<?xml version="1.0" encoding="UTF-8" standalone="no" ?>
<gpx xmlns="http://www.topografix.com/GPX/1/1" xmlns:xsi="http://www.w3.org/2001/XMLSchema-instance" xsi:schemaLocation="http://www.topografix.com/GPX/1/1 http://www.topografix.com/GPX/1/1/gpx.xsd" version="1.1" creator="VisuGPX - https://www.visugpx.com">
  <metadata>
    <name>300 Ariège</name>
    <desc><![CDATA[Carcassonne - Col de la Malepère - Fanjeaux - Belpech - Pamiers - Le Mas d\'Azil - St Girons - Col de Catchaudégué - Seix - Massat - Col de Port - Tarascon - Lavelanet - Col de la Babourade - Puivert - Col des Tougnets - Limoux - Pomas - Carcassonne

     Réalisé avec Pierre et un départ avec Stéphane jusqu\'à Belpech , Météo sans vent dans la nuit quelques zones fraîches , magnifique levé du jour dans la plaine de Pamiers , Soleil jusqu\'au Col de Catchaudégué , Pluie pour franchir le Col de Port , Soleil pour le final...

]]></desc>
  </metadata>
  <trk>
    <name><![CDATA[2014-09-14 19:44:24]]></name>
    <trkseg>
      <trkpt lat="43.21366" lon="2.34104">
        <ele>100.11</ele>
        <time>2014-09-14T01:50:01Z</time>
      </trkpt>
      <trkpt lat="43.2136" lon="2.34109">
        <ele>103.96</ele>
        <time>2014-09-14T01:50:22Z</time>
      </trkpt>
      <trkpt lat="43.21357" lon="2.34116">
        <ele>107.32</ele>
        <time>2014-09-14T01:50:36Z</time>
      </trkpt>
      <trkpt lat="43.21356" lon="2.34118">
        <ele>108.77</ele>
        <time>2014-09-14T01:50:41Z</time>
      </trkpt>
      <trkpt lat="43.21329" lon="2.34113">
        <ele>106.84</ele>
        <time>2014-09-14T01:50:54Z</time>
      </trkpt>
      <trkpt lat="43.21322" lon="2.34111">
        <ele>108.77</ele>
        <time>2014-09-14T01:51:03Z</time>
      </trkpt>
      <trkpt lat="43.21321" lon="2.34109">
        <ele>108.77</ele>
        <time>2014-09-14T01:51:04Z</time>
      </trkpt>
      <trkpt lat="43.21321" lon="2.34106">
        <ele>108.77</ele>
        <time>2014-09-14T01:51:05Z</time>
      </trkpt>
      <trkpt lat="43.21322" lon="2.34103">
        <ele>109.25</ele>
        <time>2014-09-14T01:51:06Z</time>
      </trkpt>
      <trkpt lat="43.21322" lon="2.34099">
        <ele>109.25</ele>
        <time>2014-09-14T01:51:07Z</time>
      </trkpt>
      <trkpt lat="43.21323" lon="2.34095">
        <ele>109.25</ele>
        <time>2014-09-14T01:51:08Z</time>
      </trkpt>
      <trkpt lat="43.21324" lon="2.3409">
        <ele>109.25</ele>
        <time>2014-09-14T01:51:09Z</time>
      </trkpt>
      <trkpt lat="43.21329" lon="2.34074">
        <ele>109.25</ele>
        <time>2014-09-14T01:51:12Z</time>
      </trkpt>
      <trkpt lat="43.21349" lon="2.3399">
        <ele>110.69</ele>
        <time>2014-09-14T01:51:26Z</time>
      </trkpt>
      <trkpt lat="43.2135" lon="2.33983">
        <ele>110.69</ele>
        <time>2014-09-14T01:51:27Z</time>
      </trkpt>
      <trkpt lat="43.21352" lon="2.33932">
        <ele>110.21</ele>
        <time>2014-09-14T01:51:35Z</time>
      </trkpt>
      <trkpt lat="43.21351" lon="2.33889">
        <ele>109.73</ele>
        <time>2014-09-14T01:51:41Z</time>
      </trkpt>
      <trkpt lat="43.2135" lon="2.33854">
        <ele>109.25</ele>
        <time>2014-09-14T01:51:46Z</time>
      </trkpt>
      <trkpt lat="43.2135" lon="2.33847">
        <ele>109.73</ele>
        <time>2014-09-14T01:51:47Z</time>
      </trkpt>
      <trkpt lat="43.2135" lon="2.3384">
        <ele>109.73</ele>
        <time>2014-09-14T01:51:48Z</time>
      </trkpt>
      <trkpt lat="43.21349" lon="2.33826">
        <ele>109.73</ele>
        <time>2014-09-14T01:51:50Z</time>
      </trkpt>
      <trkpt lat="43.21348" lon="2.3377">
        <ele>106.84</ele>
        <time>2014-09-14T01:51:58Z</time>
      </trkpt>
      <trkpt lat="43.21345" lon="2.33757">
        <ele>106.36</ele>
        <time>2014-09-14T01:52:00Z</time>
      </trkpt>
      <trkpt lat="43.21334" lon="2.33711">
        <ele>105.88</ele>
        <time>2014-09-14T01:52:07Z</time>
      </trkpt>
      <trkpt lat="43.21334" lon="2.33704">
        <ele>105.88</ele>
        <time>2014-09-14T01:52:08Z</time>
      </trkpt>
      <trkpt lat="43.21335" lon="2.33697">
        <ele>105.88</ele>
        <time>2014-09-14T01:52:09Z</time>
      </trkpt>
      <trkpt lat="43.21339" lon="2.33677">
        <ele>105.88</ele>
        <time>2014-09-14T01:52:12Z</time>
      </trkpt>
      <trkpt lat="43.21341" lon="2.33671">
        <ele>105.88</ele>
        <time>2014-09-14T01:52:13Z</time>
      </trkpt>
      <trkpt lat="43.21354" lon="2.33641">
        <ele>106.36</ele>
        <time>2014-09-14T01:52:18Z</time>
      </trkpt>
      <trkpt lat="43.21374" lon="2.33602">
        <ele>107.32</ele>
        <time>2014-09-14T01:52:27Z</time>
      </trkpt>
      <trkpt lat="43.21377" lon="2.33597">
        <ele>107.32</ele>
        <time>2014-09-14T01:52:28Z</time>
      </trkpt>
      <trkpt lat="43.21384" lon="2.33582">
        <ele>107.32</ele>
        <time>2014-09-14T01:52:31Z</time>
      </trkpt>
      <trkpt lat="43.21384" lon="2.33578">
        <ele>107.32</ele>
        <time>2014-09-14T01:52:32Z</time>
      </trkpt>
      <trkpt lat="43.21382" lon="2.33576">
        <ele>106.84</ele>
        <time>2014-09-14T01:52:33Z</time>
      </trkpt>
      <trkpt lat="43.21379" lon="2.33574">
        <ele>106.84</ele>
        <time>2014-09-14T01:52:34Z</time>
      </trkpt>
      <trkpt lat="43.21375" lon="2.33572">
        <ele>106.84</ele>
        <time>2014-09-14T01:52:35Z</time>
      </trkpt>
      <trkpt lat="43.21354" lon="2.3356">
        <ele>106.84</ele>
        <time>2014-09-14T01:52:40Z</time>
      </trkpt>
      <trkpt lat="43.21351" lon="2.33556">
        <ele>106.84</ele>
        <time>2014-09-14T01:52:41Z</time>
      </trkpt>
      <trkpt lat="43.2135" lon="2.33548">
        <ele>106.84</ele>
        <time>2014-09-14T01:52:42Z</time>
      </trkpt>
      <trkpt lat="43.21349" lon="2.33543">
        <ele>106.84</ele>
        <time>2014-09-14T01:52:43Z</time>
      </trkpt>
      <trkpt lat="43.2135" lon="2.33537">
        <ele>106.84</ele>
        <time>2014-09-14T01:52:44Z</time>
      </trkpt>
      <trkpt lat="43.21351" lon="2.3353">
        <ele>106.84</ele>
        <time>2014-09-14T01:52:45Z</time>
      </trkpt>
      <trkpt lat="43.21353" lon="2.33524">
        <ele>106.84</ele>
        <time>2014-09-14T01:52:46Z</time>
      </trkpt>
      <trkpt lat="43.21361" lon="2.33499">
        <ele>106.36</ele>
        <time>2014-09-14T01:52:50Z</time>
      </trkpt>
      <trkpt lat="43.2136" lon="2.33494">
        <ele>106.36</ele>
        <time>2014-09-14T01:52:51Z</time>
      </trkpt>
      <trkpt lat="43.21358" lon="2.33488">
        <ele>106.36</ele>
        <time>2014-09-14T01:52:52Z</time>
      </trkpt>
      <trkpt lat="43.21355" lon="2.33486">
        <ele>106.36</ele>
        <time>2014-09-14T01:52:53Z</time>
      </trkpt>
      <trkpt lat="43.21352" lon="2.33485">
        <ele>106.36</ele>
        <time>2014-09-14T01:52:54Z</time>
      </trkpt>
      <trkpt lat="43.2135" lon="2.33485">
        <ele>106.36</ele>
        <time>2014-09-14T01:52:55Z</time>
      </trkpt>
      <trkpt lat="43.21346" lon="2.33487">
        <ele>105.4</ele>
        <time>2014-09-14T01:53:06Z</time>
      </trkpt>
      <trkpt lat="43.21345" lon="2.3349">
        <ele>106.84</ele>
        <time>2014-09-14T01:53:23Z</time>
      </trkpt>
      <trkpt lat="43.21343" lon="2.33491">
        <ele>107.32</ele>
        <time>2014-09-14T01:53:38Z</time>
      </trkpt>
      <trkpt lat="43.21342" lon="2.33486">
        <ele>110.21</ele>
        <time>2014-09-14T01:54:05Z</time>
      </trkpt>
      <trkpt lat="43.21342" lon="2.33481">
        <ele>115.01</ele>
        <time>2014-09-14T01:54:31Z</time>
      </trkpt>
      <trkpt lat="43.21341" lon="2.33479">
        <ele>116.94</ele>
        <time>2014-09-14T01:55:05Z</time>
      </trkpt>
      <trkpt lat="43.21342" lon="2.33478">
        <ele>115.98</ele>
        <time>2014-09-14T01:55:38Z</time>
      </trkpt>
      <trkpt lat="43.2134" lon="2.33479">
        <ele>115.5</ele>
        <time>2014-09-14T01:56:13Z</time>
      </trkpt>
      <trkpt lat="43.21339" lon="2.33476">
        <ele>116.46</ele>
        <time>2014-09-14T01:56:46Z</time>
      </trkpt>
      <trkpt lat="43.21335" lon="2.33472">
        <ele>121.74</ele>
        <time>2014-09-14T01:57:27Z</time>
      </trkpt>
      <trkpt lat="43.21333" lon="2.33465">
        <ele>130.88</ele>
        <time>2014-09-14T01:58:05Z</time>
      </trkpt>
      <trkpt lat="43.21331" lon="2.33464">
        <ele>136.64</ele>
        <time>2014-09-14T01:58:31Z</time>
      </trkpt>
      <trkpt lat="43.21332" lon="2.33463">
        <ele>141.45</ele>
        <time>2014-09-14T01:59:01Z</time>
      </trkpt>
      <trkpt lat="43.21332" lon="2.33469">
        <ele>136.16</ele>
        <time>2014-09-14T01:59:37Z</time>
      </trkpt>
      <trkpt lat="43.21332" lon="2.33477">
        <ele>129.43</ele>
        <time>2014-09-14T02:00:06Z</time>
      </trkpt>
      <trkpt lat="43.21336" lon="2.33474">
        <ele>125.59</ele>
        <time>2014-09-14T02:00:40Z</time>
      </trkpt>
      <trkpt lat="43.21338" lon="2.3347">
        <ele>124.15</ele>
        <time>2014-09-14T02:01:12Z</time>
      </trkpt>
      <trkpt lat="43.21337" lon="2.33476">
        <ele>123.19</ele>
        <time>2014-09-14T02:01:49Z</time>
      </trkpt>
      <trkpt lat="43.21339" lon="2.33476">
        <ele>123.19</ele>
        <time>2014-09-14T02:02:23Z</time>
      </trkpt>
      <trkpt lat="43.2134" lon="2.33474">
        <ele>122.22</ele>
        <time>2014-09-14T02:02:57Z</time>
      </trkpt>
      <trkpt lat="43.21339" lon="2.3347">
        <ele>125.59</ele>
        <time>2014-09-14T02:03:33Z</time>
      </trkpt>
      <trkpt lat="43.21339" lon="2.33472">
        <ele>124.63</ele>
        <time>2014-09-14T02:04:12Z</time>
      </trkpt>
      <trkpt lat="43.21344" lon="2.33478">
        <ele>124.63</ele>
        <time>2014-09-14T02:04:30Z</time>
      </trkpt>
      <trkpt lat="43.21344" lon="2.33488">
        <ele>116.94</ele>
        <time>2014-09-14T02:04:52Z</time>
      </trkpt>
      <trkpt lat="43.21344" lon="2.33491">
        <ele>113.57</ele>
        <time>2014-09-14T02:05:21Z</time>
      </trkpt>
      <trkpt lat="43.21345" lon="2.33489">
        <ele>113.57</ele>
        <time>2014-09-14T02:05:39Z</time>
      </trkpt>
      <trkpt lat="43.21347" lon="2.33485">
        <ele>113.09</ele>
        <time>2014-09-14T02:06:05Z</time>
      </trkpt>
      <trkpt lat="43.2135" lon="2.33488">
        <ele>112.13</ele>
        <time>2014-09-14T02:06:28Z</time>
      </trkpt>
      <trkpt lat="43.21357" lon="2.33493">
        <ele>112.13</ele>
        <time>2014-09-14T02:06:34Z</time>
      </trkpt>
      <trkpt lat="43.21357" lon="2.33495">
        <ele>112.13</ele>
        <time>2014-09-14T02:06:35Z</time>
      </trkpt>
      <trkpt lat="43.21357" lon="2.33502">
        <ele>112.13</ele>
        <time>2014-09-14T02:06:38Z</time>
      </trkpt>
      <trkpt lat="43.21356" lon="2.33504">
        <ele>112.13</ele>
        <time>2014-09-14T02:06:39Z</time>
      </trkpt>
      <trkpt lat="43.21345" lon="2.33551">
        <ele>113.09</ele>
        <time>2014-09-14T02:06:53Z</time>
      </trkpt>
      <trkpt lat="43.21343" lon="2.33553">
        <ele>113.57</ele>
        <time>2014-09-14T02:06:54Z</time>
      </trkpt>
      <trkpt lat="43.21341" lon="2.33552">
        <ele>113.57</ele>
        <time>2014-09-14T02:06:55Z</time>
      </trkpt>
      <trkpt lat="43.21337" lon="2.33551">
        <ele>114.05</ele>
        <time>2014-09-14T02:06:56Z</time>
      </trkpt>
      <trkpt lat="43.21334" lon="2.3355">
        <ele>114.05</ele>
        <time>2014-09-14T02:06:57Z</time>
      </trkpt>
      <trkpt lat="43.21276" lon="2.3352">
        <ele>115.5</ele>
        <time>2014-09-14T02:07:13Z</time>
      </trkpt>
      <trkpt lat="43.21269" lon="2.3352">
        <ele>115.98</ele>
        <time>2014-09-14T02:07:15Z</time>
      </trkpt>
      <trkpt lat="43.21268" lon="2.33522">
        <ele>115.98</ele>
        <time>2014-09-14T02:07:16Z</time>
      </trkpt>
      <trkpt lat="43.21267" lon="2.33526">
        <ele>115.98</ele>
        <time>2014-09-14T02:07:17Z</time>
      </trkpt>
      <trkpt lat="43.2124" lon="2.3356">
        <ele>114.05</ele>
        <time>2014-09-14T02:07:29Z</time>
      </trkpt>
      <trkpt lat="43.2119" lon="2.33552">
        <ele>117.42</ele>
        <time>2014-09-14T02:07:44Z</time>
      </trkpt>
      <trkpt lat="43.21145" lon="2.33542">
        <ele>119.82</ele>
        <time>2014-09-14T02:07:58Z</time>
      </trkpt>
      <trkpt lat="43.21109" lon="2.33535">
        <ele>123.67</ele>
        <time>2014-09-14T02:08:11Z</time>
      </trkpt>
      <trkpt lat="43.21108" lon="2.33533">
        <ele>123.67</ele>
        <time>2014-09-14T02:08:12Z</time>
      </trkpt>
      <trkpt lat="43.21107" lon="2.33531">
        <ele>124.15</ele>
        <time>2014-09-14T02:08:13Z</time>
      </trkpt>
      <trkpt lat="43.21106" lon="2.33528">
        <ele>124.15</ele>
        <time>2014-09-14T02:08:14Z</time>
      </trkpt>
      <trkpt lat="43.21106" lon="2.33526">
        <ele>124.63</ele>
        <time>2014-09-14T02:08:15Z</time>
      </trkpt>
      <trkpt lat="43.21106" lon="2.33525">
        <ele>124.63</ele>
        <time>2014-09-14T02:08:16Z</time>
      </trkpt>
      <trkpt lat="43.21106" lon="2.33523">
        <ele>125.11</ele>
        <time>2014-09-14T02:08:17Z</time>
      </trkpt>
      <trkpt lat="43.21105" lon="2.33519">
        <ele>125.11</ele>
        <time>2014-09-14T02:08:19Z</time>
      </trkpt>
      <trkpt lat="43.21103" lon="2.33517">
        <ele>125.11</ele>
        <time>2014-09-14T02:08:21Z</time>
      </trkpt>
      <trkpt lat="43.2106" lon="2.33517">
        <ele>124.63</ele>
        <time>2014-09-14T02:08:32Z</time>
      </trkpt>
      <trkpt lat="43.21055" lon="2.33516">
        <ele>124.63</ele>
        <time>2014-09-14T02:08:33Z</time>
      </trkpt>
      <trkpt lat="43.20999" lon="2.33514">
        <ele>124.63</ele>
        <time>2014-09-14T02:08:43Z</time>
      </trkpt>
      <trkpt lat="43.20922" lon="2.33503">
        <ele>120.3</ele>
        <time>2014-09-14T02:08:56Z</time>
      </trkpt>
      <trkpt lat="43.20915" lon="2.33503">
        <ele>120.3</ele>
        <time>2014-09-14T02:08:57Z</time>
      </trkpt>
      <trkpt lat="43.20888" lon="2.33509">
        <ele>118.86</ele>
        <time>2014-09-14T02:09:01Z</time>
      </trkpt>
      <trkpt lat="43.20873" lon="2.33512">
        <ele>117.9</ele>
        <time>2014-09-14T02:09:03Z</time>
      </trkpt>
      <trkpt lat="43.20808" lon="2.33507">
        <ele>115.01</ele>
        <time>2014-09-14T02:09:13Z</time>
      </trkpt>
      <trkpt lat="43.20803" lon="2.33509">
        <ele>115.01</ele>
        <time>2014-09-14T02:09:14Z</time>
      </trkpt>
      <trkpt lat="43.20799" lon="2.33513">
        <ele>114.53</ele>
        <time>2014-09-14T02:09:15Z</time>
      </trkpt>
      <trkpt lat="43.20796" lon="2.33519">
        <ele>114.53</ele>
        <time>2014-09-14T02:09:16Z</time>
      </trkpt>
      <trkpt lat="43.20795" lon="2.33523">
        <ele>114.05</ele>
        <time>2014-09-14T02:09:17Z</time>
      </trkpt>
      <trkpt lat="43.20795" lon="2.3353">
        <ele>114.05</ele>
        <time>2014-09-14T02:09:18Z</time>
      </trkpt>
      <trkpt lat="43.20794" lon="2.33535">
        <ele>114.05</ele>
        <time>2014-09-14T02:09:19Z</time>
      </trkpt>
      <trkpt lat="43.20794" lon="2.33542">
        <ele>113.57</ele>
        <time>2014-09-14T02:09:20Z</time>
      </trkpt>
      <trkpt lat="43.20794" lon="2.33653">
        <ele>111.65</ele>
        <time>2014-09-14T02:09:36Z</time>
      </trkpt>
      <trkpt lat="43.20791" lon="2.33658">
        <ele>112.13</ele>
        <time>2014-09-14T02:09:37Z</time>
      </trkpt>
      <trkpt lat="43.20786" lon="2.33659">
        <ele>112.13</ele>
        <time>2014-09-14T02:09:38Z</time>
      </trkpt>
      <trkpt lat="43.2078" lon="2.33657">
        <ele>112.13</ele>
        <time>2014-09-14T02:09:39Z</time>
      </trkpt>
      <trkpt lat="43.20777" lon="2.33654">
        <ele>112.13</ele>
        <time>2014-09-14T02:09:40Z</time>
      </trkpt>
      <trkpt lat="43.20773" lon="2.33649">
        <ele>112.13</ele>
        <time>2014-09-14T02:09:41Z</time>
      </trkpt>
      <trkpt lat="43.2077" lon="2.33645">
        <ele>112.13</ele>
        <time>2014-09-14T02:09:42Z</time>
      </trkpt>
      <trkpt lat="43.20705" lon="2.33557">
        <ele>113.09</ele>
        <time>2014-09-14T02:10:00Z</time>
      </trkpt>
      <trkpt lat="43.20638" lon="2.33471">
        <ele>115.98</ele>
        <time>2014-09-14T02:10:18Z</time>
      </trkpt>
      <trkpt lat="43.2056" lon="2.33384">
        <ele>114.53</ele>
        <time>2014-09-14T02:10:37Z</time>
      </trkpt>
      <trkpt lat="43.20499" lon="2.33311">
        <ele>113.09</ele>
        <time>2014-09-14T02:10:52Z</time>
      </trkpt>
      <trkpt lat="43.20497" lon="2.33304">
        <ele>113.09</ele>
        <time>2014-09-14T02:10:53Z</time>
      </trkpt>
      <trkpt lat="43.20495" lon="2.33297">
        <ele>113.57</ele>
        <time>2014-09-14T02:10:54Z</time>
      </trkpt>
      <trkpt lat="43.20494" lon="2.3329">
        <ele>113.57</ele>
        <time>2014-09-14T02:10:55Z</time>
      </trkpt>
      <trkpt lat="43.20494" lon="2.33284">
        <ele>113.57</ele>
        <time>2014-09-14T02:10:56Z</time>
      </trkpt>
      <trkpt lat="43.20493" lon="2.33276">
        <ele>113.57</ele>
        <time>2014-09-14T02:10:57Z</time>
      </trkpt>
      <trkpt lat="43.20491" lon="2.33269">
        <ele>113.57</ele>
        <time>2014-09-14T02:10:58Z</time>
      </trkpt>
      <trkpt lat="43.20488" lon="2.33262">
        <ele>113.57</ele>
        <time>2014-09-14T02:10:59Z</time>
      </trkpt>
      <trkpt lat="43.20484" lon="2.33256">
        <ele>113.57</ele>
        <time>2014-09-14T02:11:00Z</time>
      </trkpt>
      <trkpt lat="43.2048" lon="2.33252">
        <ele>113.09</ele>
        <time>2014-09-14T02:11:01Z</time>
      </trkpt>
      <trkpt lat="43.20475" lon="2.33248">
        <ele>113.09</ele>
        <time>2014-09-14T02:11:02Z</time>
      </trkpt>
      <trkpt lat="43.2047" lon="2.33246">
        <ele>113.09</ele>
        <time>2014-09-14T02:11:03Z</time>
      </trkpt>
      <trkpt lat="43.20464" lon="2.33245">
        <ele>113.09</ele>
        <time>2014-09-14T02:11:04Z</time>
      </trkpt>
      <trkpt lat="43.20459" lon="2.33245">
        <ele>113.09</ele>
        <time>2014-09-14T02:11:05Z</time>
      </trkpt>
      <trkpt lat="43.20454" lon="2.33247">
        <ele>113.09</ele>
        <time>2014-09-14T02:11:06Z</time>
      </trkpt>
      <trkpt lat="43.20448" lon="2.33247">
        <ele>113.09</ele>
        <time>2014-09-14T02:11:07Z</time>
      </trkpt>
      <trkpt lat="43.20442" lon="2.33247">
        <ele>113.09</ele>
        <time>2014-09-14T02:11:08Z</time>
      </trkpt>
      <trkpt lat="43.20438" lon="2.33245">
        <ele>113.09</ele>
        <time>2014-09-14T02:11:09Z</time>
      </trkpt>
      <trkpt lat="43.20434" lon="2.33243">
        <ele>113.09</ele>
        <time>2014-09-14T02:11:10Z</time>
      </trkpt>
      <trkpt lat="43.20428" lon="2.33238">
        <ele>113.09</ele>
        <time>2014-09-14T02:11:11Z</time>
      </trkpt>
      <trkpt lat="43.20424" lon="2.33235">
        <ele>113.09</ele>
        <time>2014-09-14T02:11:12Z</time>
      </trkpt>
      <trkpt lat="43.20338" lon="2.33146">
        <ele>111.65</ele>
        <time>2014-09-14T02:11:32Z</time>
      </trkpt>
      <trkpt lat="43.20264" lon="2.33066">
        <ele>111.65</ele>
        <time>2014-09-14T02:11:50Z</time>
      </trkpt>
      <trkpt lat="43.20199" lon="2.32997">
        <ele>113.09</ele>
        <time>2014-09-14T02:12:05Z</time>
      </trkpt>
      <trkpt lat="43.20117" lon="2.3293">
        <ele>113.57</ele>
        <time>2014-09-14T02:12:23Z</time>
      </trkpt>
      <trkpt lat="43.20033" lon="2.32859">
        <ele>116.46</ele>
        <time>2014-09-14T02:12:42Z</time>
      </trkpt>
      <trkpt lat="43.19981" lon="2.3279">
        <ele>117.9</ele>
        <time>2014-09-14T02:12:56Z</time>
      </trkpt>
      <trkpt lat="43.19938" lon="2.32729">
        <ele>120.78</ele>
        <time>2014-09-14T02:13:10Z</time>
      </trkpt>
      <trkpt lat="43.19927" lon="2.32714">
        <ele>121.26</ele>
        <time>2014-09-14T02:13:18Z</time>
      </trkpt>
      <trkpt lat="43.19896" lon="2.32665">
        <ele>123.19</ele>
        <time>2014-09-14T02:13:29Z</time>
      </trkpt>
      <trkpt lat="43.19881" lon="2.3263">
        <ele>123.67</ele>
        <time>2014-09-14T02:13:36Z</time>
      </trkpt>
      <trkpt lat="43.19844" lon="2.32549">
        <ele>125.11</ele>
        <time>2014-09-14T02:13:52Z</time>
      </trkpt>
      <trkpt lat="43.19804" lon="2.32463">
        <ele>127.51</ele>
        <time>2014-09-14T02:14:09Z</time>
      </trkpt>
      <trkpt lat="43.19775" lon="2.32403">
        <ele>129.43</ele>
        <time>2014-09-14T02:14:21Z</time>
      </trkpt>
      <trkpt lat="43.19715" lon="2.32312">
        <ele>135.68</ele>
        <time>2014-09-14T02:14:41Z</time>
      </trkpt>
      <trkpt lat="43.19667" lon="2.32248">
        <ele>137.13</ele>
        <time>2014-09-14T02:14:56Z</time>
      </trkpt>
      <trkpt lat="43.19655" lon="2.32229">
        <ele>137.13</ele>
        <time>2014-09-14T02:15:00Z</time>
      </trkpt>
      <trkpt lat="43.19653" lon="2.32224">
        <ele>137.13</ele>
        <time>2014-09-14T02:15:01Z</time>
      </trkpt>
      <trkpt lat="43.19652" lon="2.32218">
        <ele>137.13</ele>
        <time>2014-09-14T02:15:02Z</time>
      </trkpt>
      <trkpt lat="43.19646" lon="2.32202">
        <ele>137.13</ele>
        <time>2014-09-14T02:15:05Z</time>
      </trkpt>
      <trkpt lat="43.19644" lon="2.32196">
        <ele>136.64</ele>
        <time>2014-09-14T02:15:06Z</time>
      </trkpt>
      <trkpt lat="43.1964" lon="2.32192">
        <ele>136.64</ele>
        <time>2014-09-14T02:15:07Z</time>
      </trkpt>
      <trkpt lat="43.19631" lon="2.32177">
        <ele>136.16</ele>
        <time>2014-09-14T02:15:10Z</time>
      </trkpt>
      <trkpt lat="43.19628" lon="2.32171">
        <ele>136.16</ele>
        <time>2014-09-14T02:15:11Z</time>
      </trkpt>
      <trkpt lat="43.19624" lon="2.32159">
        <ele>136.64</ele>
        <time>2014-09-14T02:15:13Z</time>
      </trkpt>
      <trkpt lat="43.19621" lon="2.32154">
        <ele>136.64</ele>
        <time>2014-09-14T02:15:14Z</time>
      </trkpt>
      <trkpt lat="43.19618" lon="2.32149">
        <ele>136.64</ele>
        <time>2014-09-14T02:15:15Z</time>
      </trkpt>
      <trkpt lat="43.19575" lon="2.32073">
        <ele>137.61</ele>
        <time>2014-09-14T02:15:30Z</time>
      </trkpt>
      <trkpt lat="43.19535" lon="2.31968">
        <ele>136.64</ele>
        <time>2014-09-14T02:15:46Z</time>
      </trkpt>
      <trkpt lat="43.19475" lon="2.31863">
        <ele>132.8</ele>
        <time>2014-09-14T02:16:01Z</time>
      </trkpt>
      <trkpt lat="43.1947" lon="2.31855">
        <ele>132.32</ele>
        <time>2014-09-14T02:16:02Z</time>
      </trkpt>
      <trkpt lat="43.19467" lon="2.31846">
        <ele>132.32</ele>
        <time>2014-09-14T02:16:03Z</time>
      </trkpt>
      <trkpt lat="43.19466" lon="2.31835">
        <ele>131.84</ele>
        <time>2014-09-14T02:16:04Z</time>
      </trkpt>
      <trkpt lat="43.19467" lon="2.31825">
        <ele>131.84</ele>
        <time>2014-09-14T02:16:05Z</time>
      </trkpt>
      <trkpt lat="43.19468" lon="2.31817">
        <ele>131.36</ele>
        <time>2014-09-14T02:16:06Z</time>
      </trkpt>
      <trkpt lat="43.1947" lon="2.31808">
        <ele>131.36</ele>
        <time>2014-09-14T02:16:07Z</time>
      </trkpt>
      <trkpt lat="43.19476" lon="2.31782">
        <ele>130.88</ele>
        <time>2014-09-14T02:16:10Z</time>
      </trkpt>
      <trkpt lat="43.19476" lon="2.31774">
        <ele>130.4</ele>
        <time>2014-09-14T02:16:11Z</time>
      </trkpt>
      <trkpt lat="43.19475" lon="2.31766">
        <ele>130.4</ele>
        <time>2014-09-14T02:16:12Z</time>
      </trkpt>
      <trkpt lat="43.19473" lon="2.31759">
        <ele>130.4</ele>
        <time>2014-09-14T02:16:13Z</time>
      </trkpt>
      <trkpt lat="43.19472" lon="2.31751">
        <ele>130.4</ele>
        <time>2014-09-14T02:16:14Z</time>
      </trkpt>
      <trkpt lat="43.19469" lon="2.31744">
        <ele>130.4</ele>
        <time>2014-09-14T02:16:15Z</time>
      </trkpt>
      <trkpt lat="43.19426" lon="2.31599">
        <ele>129.92</ele>
        <time>2014-09-14T02:16:35Z</time>
      </trkpt>
      <trkpt lat="43.19412" lon="2.31549">
        <ele>129.92</ele>
        <time>2014-09-14T02:16:42Z</time>
      </trkpt>
      <trkpt lat="43.19381" lon="2.3141">
        <ele>128.47</ele>
        <time>2014-09-14T02:17:00Z</time>
      </trkpt>
      <trkpt lat="43.1935" lon="2.31266">
        <ele>125.59</ele>
        <time>2014-09-14T02:17:18Z</time>
      </trkpt>
      <trkpt lat="43.19308" lon="2.31171">
        <ele>123.67</ele>
        <time>2014-09-14T02:17:30Z</time>
      </trkpt>
      <trkpt lat="43.1926" lon="2.31025">
        <ele>122.22</ele>
        <time>2014-09-14T02:17:47Z</time>
      </trkpt>
      <trkpt lat="43.19261" lon="2.31008">
        <ele>122.22</ele>
        <time>2014-09-14T02:17:49Z</time>
      </trkpt>
      <trkpt lat="43.19263" lon="2.30999">
        <ele>122.22</ele>
        <time>2014-09-14T02:17:50Z</time>
      </trkpt>
      <trkpt lat="43.1927" lon="2.30966">
        <ele>122.22</ele>
        <time>2014-09-14T02:17:54Z</time>
      </trkpt>
      <trkpt lat="43.19293" lon="2.30899">
        <ele>122.22</ele>
        <time>2014-09-14T02:18:03Z</time>
      </trkpt>
      <trkpt lat="43.19306" lon="2.30778">
        <ele>121.26</ele>
        <time>2014-09-14T02:18:18Z</time>
      </trkpt>
      <trkpt lat="43.19316" lon="2.30606">
        <ele>122.71</ele>
        <time>2014-09-14T02:18:39Z</time>
      </trkpt>
      <trkpt lat="43.19325" lon="2.30455">
        <ele>123.67</ele>
        <time>2014-09-14T02:18:58Z</time>
      </trkpt>
      <trkpt lat="43.19334" lon="2.30325">
        <ele>124.15</ele>
        <time>2014-09-14T02:19:15Z</time>
      </trkpt>
      <trkpt lat="43.19342" lon="2.30194">
        <ele>125.11</ele>
        <time>2014-09-14T02:19:32Z</time>
      </trkpt>
      <trkpt lat="43.19351" lon="2.30059">
        <ele>125.59</ele>
        <time>2014-09-14T02:19:49Z</time>
      </trkpt>
      <trkpt lat="43.19347" lon="2.29914">
        <ele>126.55</ele>
        <time>2014-09-14T02:20:08Z</time>
      </trkpt>
      <trkpt lat="43.19345" lon="2.29907">
        <ele>126.55</ele>
        <time>2014-09-14T02:20:09Z</time>
      </trkpt>
      <trkpt lat="43.19343" lon="2.299">
        <ele>126.55</ele>
        <time>2014-09-14T02:20:10Z</time>
      </trkpt>
      <trkpt lat="43.19341" lon="2.29893">
        <ele>127.03</ele>
        <time>2014-09-14T02:20:11Z</time>
      </trkpt>
      <trkpt lat="43.19338" lon="2.29887">
        <ele>127.03</ele>
        <time>2014-09-14T02:20:12Z</time>
      </trkpt>
      <trkpt lat="43.19335" lon="2.29881">
        <ele>127.03</ele>
        <time>2014-09-14T02:20:13Z</time>
      </trkpt>
      <trkpt lat="43.19331" lon="2.29875">
        <ele>127.03</ele>
        <time>2014-09-14T02:20:14Z</time>
      </trkpt>
      <trkpt lat="43.19328" lon="2.2987">
        <ele>127.51</ele>
        <time>2014-09-14T02:20:15Z</time>
      </trkpt>
      <trkpt lat="43.19323" lon="2.29865">
        <ele>127.51</ele>
        <time>2014-09-14T02:20:16Z</time>
      </trkpt>
      <trkpt lat="43.19319" lon="2.29862">
        <ele>127.51</ele>
        <time>2014-09-14T02:20:17Z</time>
      </trkpt>
      <trkpt lat="43.19314" lon="2.29858">
        <ele>127.51</ele>
        <time>2014-09-14T02:20:18Z</time>
      </trkpt>
      <trkpt lat="43.19309" lon="2.29855">
        <ele>127.51</ele>
        <time>2014-09-14T02:20:19Z</time>
      </trkpt>
      <trkpt lat="43.19223" lon="2.29826">
        <ele>128.47</ele>
        <time>2014-09-14T02:20:35Z</time>
      </trkpt>
      <trkpt lat="43.19218" lon="2.29823">
        <ele>128.47</ele>
        <time>2014-09-14T02:20:36Z</time>
      </trkpt>
      <trkpt lat="43.19213" lon="2.29819">
        <ele>128.47</ele>
        <time>2014-09-14T02:20:37Z</time>
      </trkpt>
      <trkpt lat="43.19207" lon="2.29812">
        <ele>128.47</ele>
        <time>2014-09-14T02:20:38Z</time>
      </trkpt>
      <trkpt lat="43.19203" lon="2.29806">
        <ele>128.47</ele>
        <time>2014-09-14T02:20:39Z</time>
      </trkpt>
      <trkpt lat="43.19198" lon="2.29799">
        <ele>128.47</ele>
        <time>2014-09-14T02:20:40Z</time>
      </trkpt>
      <trkpt lat="43.19154" lon="2.29715">
        <ele>128.47</ele>
        <time>2014-09-14T02:20:53Z</time>
      </trkpt>
      <trkpt lat="43.19097" lon="2.29603">
        <ele>129.92</ele>
        <time>2014-09-14T02:21:12Z</time>
      </trkpt>
      <trkpt lat="43.19046" lon="2.29503">
        <ele>130.88</ele>
        <time>2014-09-14T02:21:29Z</time>
      </trkpt>
      <trkpt lat="43.18996" lon="2.29402">
        <ele>132.8</ele>
        <time>2014-09-14T02:21:46Z</time>
      </trkpt>
      <trkpt lat="43.18947" lon="2.29295">
        <ele>135.68</ele>
        <time>2014-09-14T02:22:04Z</time>
      </trkpt>
      <trkpt lat="43.18909" lon="2.29189">
        <ele>138.09</ele>
        <time>2014-09-14T02:22:21Z</time>
      </trkpt>
      <trkpt lat="43.18879" lon="2.29079">
        <ele>139.53</ele>
        <time>2014-09-14T02:22:38Z</time>
      </trkpt>
      <trkpt lat="43.18831" lon="2.28978">
        <ele>141.93</ele>
        <time>2014-09-14T02:22:56Z</time>
      </trkpt>
      <trkpt lat="43.18768" lon="2.28898">
        <ele>144.82</ele>
        <time>2014-09-14T02:23:13Z</time>
      </trkpt>
      <trkpt lat="43.18703" lon="2.28801">
        <ele>147.7</ele>
        <time>2014-09-14T02:23:32Z</time>
      </trkpt>
      <trkpt lat="43.18665" lon="2.28688">
        <ele>150.1</ele>
        <time>2014-09-14T02:23:49Z</time>
      </trkpt>
      <trkpt lat="43.18629" lon="2.28532">
        <ele>151.54</ele>
        <time>2014-09-14T02:24:11Z</time>
      </trkpt>
      <trkpt lat="43.18602" lon="2.28406">
        <ele>152.51</ele>
        <time>2014-09-14T02:24:29Z</time>
      </trkpt>
      <trkpt lat="43.18568" lon="2.28263">
        <ele>154.43</ele>
        <time>2014-09-14T02:24:50Z</time>
      </trkpt>
      <trkpt lat="43.18519" lon="2.28146">
        <ele>156.35</ele>
        <time>2014-09-14T02:25:09Z</time>
      </trkpt>
      <trkpt lat="43.1848" lon="2.2806">
        <ele>157.79</ele>
        <time>2014-09-14T02:25:23Z</time>
      </trkpt>
      <trkpt lat="43.18441" lon="2.27942">
        <ele>159.72</ele>
        <time>2014-09-14T02:25:41Z</time>
      </trkpt>
      <trkpt lat="43.18435" lon="2.27871">
        <ele>160.2</ele>
        <time>2014-09-14T02:25:51Z</time>
      </trkpt>
      <trkpt lat="43.18424" lon="2.27732">
        <ele>161.64</ele>
        <time>2014-09-14T02:26:10Z</time>
      </trkpt>
      <trkpt lat="43.18414" lon="2.27611">
        <ele>163.08</ele>
        <time>2014-09-14T02:26:27Z</time>
      </trkpt>
      <trkpt lat="43.18408" lon="2.27485">
        <ele>165</ele>
        <time>2014-09-14T02:26:45Z</time>
      </trkpt>
      <trkpt lat="43.18425" lon="2.2734">
        <ele>167.41</ele>
        <time>2014-09-14T02:27:06Z</time>
      </trkpt>
      <trkpt lat="43.18428" lon="2.27313">
        <ele>167.89</ele>
        <time>2014-09-14T02:27:10Z</time>
      </trkpt>
      <trkpt lat="43.18441" lon="2.27182">
        <ele>170.29</ele>
        <time>2014-09-14T02:27:29Z</time>
      </trkpt>
      <trkpt lat="43.1846" lon="2.27045">
        <ele>173.66</ele>
        <time>2014-09-14T02:27:50Z</time>
      </trkpt>
      <trkpt lat="43.1846" lon="2.27039">
        <ele>174.14</ele>
        <time>2014-09-14T02:27:51Z</time>
      </trkpt>
      <trkpt lat="43.1846" lon="2.27033">
        <ele>174.14</ele>
        <time>2014-09-14T02:27:52Z</time>
      </trkpt>
      <trkpt lat="43.18459" lon="2.27021">
        <ele>174.62</ele>
        <time>2014-09-14T02:27:54Z</time>
      </trkpt>
      <trkpt lat="43.18459" lon="2.27015">
        <ele>174.62</ele>
        <time>2014-09-14T02:27:55Z</time>
      </trkpt>
      <trkpt lat="43.18459" lon="2.27009">
        <ele>174.62</ele>
        <time>2014-09-14T02:27:56Z</time>
      </trkpt>
      <trkpt lat="43.18447" lon="2.26908">
        <ele>176.06</ele>
        <time>2014-09-14T02:28:12Z</time>
      </trkpt>
      <trkpt lat="43.18465" lon="2.26812">
        <ele>179.9</ele>
        <time>2014-09-14T02:28:28Z</time>
      </trkpt>
      <trkpt lat="43.1849" lon="2.26719">
        <ele>183.27</ele>
        <time>2014-09-14T02:28:44Z</time>
      </trkpt>
      <trkpt lat="43.18493" lon="2.26707">
        <ele>183.75</ele>
        <time>2014-09-14T02:28:46Z</time>
      </trkpt>
      <trkpt lat="43.18505" lon="2.26667">
        <ele>184.71</ele>
        <time>2014-09-14T02:28:53Z</time>
      </trkpt>
      <trkpt lat="43.18507" lon="2.26661">
        <ele>184.71</ele>
        <time>2014-09-14T02:28:54Z</time>
      </trkpt>
      <trkpt lat="43.1851" lon="2.26647">
        <ele>184.71</ele>
        <time>2014-09-14T02:28:56Z</time>
      </trkpt>
      <trkpt lat="43.18511" lon="2.2664">
        <ele>185.19</ele>
        <time>2014-09-14T02:28:57Z</time>
      </trkpt>
      <trkpt lat="43.18513" lon="2.26633">
        <ele>185.19</ele>
        <time>2014-09-14T02:28:58Z</time>
      </trkpt>
      <trkpt lat="43.18514" lon="2.26627">
        <ele>185.67</ele>
        <time>2014-09-14T02:28:59Z</time>
      </trkpt>
      <trkpt lat="43.18516" lon="2.2662">
        <ele>185.67</ele>
        <time>2014-09-14T02:29:00Z</time>
      </trkpt>
      <trkpt lat="43.18516" lon="2.26614">
        <ele>185.67</ele>
        <time>2014-09-14T02:29:01Z</time>
      </trkpt>
      <trkpt lat="43.18502" lon="2.26516">
        <ele>188.56</ele>
        <time>2014-09-14T02:29:17Z</time>
      </trkpt>
      <trkpt lat="43.18451" lon="2.26419">
        <ele>188.08</ele>
        <time>2014-09-14T02:29:34Z</time>
      </trkpt>
      <trkpt lat="43.18401" lon="2.26337">
        <ele>188.08</ele>
        <time>2014-09-14T02:29:48Z</time>
      </trkpt>
      <trkpt lat="43.18397" lon="2.26333">
        <ele>188.08</ele>
        <time>2014-09-14T02:29:49Z</time>
      </trkpt>
      <trkpt lat="43.18392" lon="2.26329">
        <ele>188.08</ele>
        <time>2014-09-14T02:29:50Z</time>
      </trkpt>
      <trkpt lat="43.18387" lon="2.26326">
        <ele>188.08</ele>
        <time>2014-09-14T02:29:51Z</time>
      </trkpt>
      <trkpt lat="43.18382" lon="2.26324">
        <ele>187.59</ele>
        <time>2014-09-14T02:29:52Z</time>
      </trkpt>
      <trkpt lat="43.18376" lon="2.26321">
        <ele>187.59</ele>
        <time>2014-09-14T02:29:53Z</time>
      </trkpt>
      <trkpt lat="43.1836" lon="2.26316">
        <ele>187.11</ele>
        <time>2014-09-14T02:29:56Z</time>
      </trkpt>
      <trkpt lat="43.18261" lon="2.26289">
        <ele>185.19</ele>
        <time>2014-09-14T02:30:14Z</time>
      </trkpt>
      <trkpt lat="43.18219" lon="2.26274">
        <ele>187.11</ele>
        <time>2014-09-14T02:30:23Z</time>
      </trkpt>
      <trkpt lat="43.18216" lon="2.26271">
        <ele>187.59</ele>
        <time>2014-09-14T02:30:24Z</time>
      </trkpt>
      <trkpt lat="43.18212" lon="2.26266">
        <ele>188.08</ele>
        <time>2014-09-14T02:30:25Z</time>
      </trkpt>
      <trkpt lat="43.18209" lon="2.26261">
        <ele>188.08</ele>
        <time>2014-09-14T02:30:26Z</time>
      </trkpt>
      <trkpt lat="43.18206" lon="2.26256">
        <ele>188.56</ele>
        <time>2014-09-14T02:30:27Z</time>
      </trkpt>
      <trkpt lat="43.18203" lon="2.26249">
        <ele>189.04</ele>
        <time>2014-09-14T02:30:28Z</time>
      </trkpt>
      <trkpt lat="43.18202" lon="2.26243">
        <ele>189.04</ele>
        <time>2014-09-14T02:30:29Z</time>
      </trkpt>
      <trkpt lat="43.18201" lon="2.26236">
        <ele>189.52</ele>
        <time>2014-09-14T02:30:30Z</time>
      </trkpt>
      <trkpt lat="43.182" lon="2.2623">
        <ele>189.52</ele>
        <time>2014-09-14T02:30:31Z</time>
      </trkpt>
      <trkpt lat="43.182" lon="2.26223">
        <ele>190</ele>
        <time>2014-09-14T02:30:32Z</time>
      </trkpt>
      <trkpt lat="43.18209" lon="2.26124">
        <ele>191.92</ele>
        <time>2014-09-14T02:30:48Z</time>
      </trkpt>
      <trkpt lat="43.18214" lon="2.26055">
        <ele>193.36</ele>
        <time>2014-09-14T02:31:00Z</time>
      </trkpt>
      <trkpt lat="43.18213" lon="2.26043">
        <ele>193.36</ele>
        <time>2014-09-14T02:31:02Z</time>
      </trkpt>
      <trkpt lat="43.18212" lon="2.26037">
        <ele>193.36</ele>
        <time>2014-09-14T02:31:03Z</time>
      </trkpt>
      <trkpt lat="43.18209" lon="2.26026">
        <ele>193.36</ele>
        <time>2014-09-14T02:31:05Z</time>
      </trkpt>
      <trkpt lat="43.18207" lon="2.26021">
        <ele>193.36</ele>
        <time>2014-09-14T02:31:06Z</time>
      </trkpt>
      <trkpt lat="43.18205" lon="2.26016">
        <ele>193.36</ele>
        <time>2014-09-14T02:31:07Z</time>
      </trkpt>
      <trkpt lat="43.18184" lon="2.2599">
        <ele>193.84</ele>
        <time>2014-09-14T02:31:14Z</time>
      </trkpt>
      <trkpt lat="43.1818" lon="2.25986">
        <ele>193.84</ele>
        <time>2014-09-14T02:31:15Z</time>
      </trkpt>
      <trkpt lat="43.1812" lon="2.25927">
        <ele>199.61</ele>
        <time>2014-09-14T02:31:33Z</time>
      </trkpt>
      <trkpt lat="43.18069" lon="2.25879">
        <ele>206.34</ele>
        <time>2014-09-14T02:31:50Z</time>
      </trkpt>
      <trkpt lat="43.18039" lon="2.25829">
        <ele>209.7</ele>
        <time>2014-09-14T02:32:04Z</time>
      </trkpt>
      <trkpt lat="43.18028" lon="2.25761">
        <ele>210.67</ele>
        <time>2014-09-14T02:32:19Z</time>
      </trkpt>
      <trkpt lat="43.18018" lon="2.25692">
        <ele>214.51</ele>
        <time>2014-09-14T02:32:34Z</time>
      </trkpt>
      <trkpt lat="43.18007" lon="2.25619">
        <ele>217.4</ele>
        <time>2014-09-14T02:32:50Z</time>
      </trkpt>
      <trkpt lat="43.17992" lon="2.25536">
        <ele>221.24</ele>
        <time>2014-09-14T02:33:08Z</time>
      </trkpt>
      <trkpt lat="43.17973" lon="2.25461">
        <ele>223.64</ele>
        <time>2014-09-14T02:33:24Z</time>
      </trkpt>
      <trkpt lat="43.17945" lon="2.25403">
        <ele>225.09</ele>
        <time>2014-09-14T02:33:37Z</time>
      </trkpt>
      <trkpt lat="43.17898" lon="2.25306">
        <ele>227.97</ele>
        <time>2014-09-14T02:33:55Z</time>
      </trkpt>
      <trkpt lat="43.1785" lon="2.25211">
        <ele>229.41</ele>
        <time>2014-09-14T02:34:13Z</time>
      </trkpt>
      <trkpt lat="43.17794" lon="2.2513">
        <ele>230.37</ele>
        <time>2014-09-14T02:34:30Z</time>
      </trkpt>
      <trkpt lat="43.17723" lon="2.2506">
        <ele>234.7</ele>
        <time>2014-09-14T02:34:49Z</time>
      </trkpt>
      <trkpt lat="43.17665" lon="2.24998">
        <ele>236.62</ele>
        <time>2014-09-14T02:35:06Z</time>
      </trkpt>
      <trkpt lat="43.17622" lon="2.24953">
        <ele>238.54</ele>
        <time>2014-09-14T02:35:18Z</time>
      </trkpt>
      <trkpt lat="43.17586" lon="2.24908">
        <ele>239.02</ele>
        <time>2014-09-14T02:35:28Z</time>
      </trkpt>
      <trkpt lat="43.17561" lon="2.24814">
        <ele>238.06</ele>
        <time>2014-09-14T02:35:43Z</time>
      </trkpt>
      <trkpt lat="43.17556" lon="2.24776">
        <ele>238.06</ele>
        <time>2014-09-14T02:35:49Z</time>
      </trkpt>
      <trkpt lat="43.17556" lon="2.2477">
        <ele>238.06</ele>
        <time>2014-09-14T02:35:50Z</time>
      </trkpt>
      <trkpt lat="43.17557" lon="2.24763">
        <ele>238.06</ele>
        <time>2014-09-14T02:35:51Z</time>
      </trkpt>
      <trkpt lat="43.17558" lon="2.24756">
        <ele>238.54</ele>
        <time>2014-09-14T02:35:52Z</time>
      </trkpt>
      <trkpt lat="43.17559" lon="2.24749">
        <ele>238.54</ele>
        <time>2014-09-14T02:35:53Z</time>
      </trkpt>
      <trkpt lat="43.17561" lon="2.24743">
        <ele>238.54</ele>
        <time>2014-09-14T02:35:54Z</time>
      </trkpt>
      <trkpt lat="43.17563" lon="2.24736">
        <ele>238.54</ele>
        <time>2014-09-14T02:35:55Z</time>
      </trkpt>
      <trkpt lat="43.17608" lon="2.24641">
        <ele>240.47</ele>
        <time>2014-09-14T02:36:12Z</time>
      </trkpt>
      <trkpt lat="43.17617" lon="2.24619">
        <ele>240.95</ele>
        <time>2014-09-14T02:36:16Z</time>
      </trkpt>
      <trkpt lat="43.17619" lon="2.24613">
        <ele>241.43</ele>
        <time>2014-09-14T02:36:17Z</time>
      </trkpt>
      <trkpt lat="43.17621" lon="2.24606">
        <ele>241.43</ele>
        <time>2014-09-14T02:36:18Z</time>
      </trkpt>
      <trkpt lat="43.17622" lon="2.246">
        <ele>241.43</ele>
        <time>2014-09-14T02:36:19Z</time>
      </trkpt>
      <trkpt lat="43.17622" lon="2.24594">
        <ele>241.43</ele>
        <time>2014-09-14T02:36:20Z</time>
      </trkpt>
      <trkpt lat="43.17622" lon="2.24587">
        <ele>241.43</ele>
        <time>2014-09-14T02:36:21Z</time>
      </trkpt>
      <trkpt lat="43.17622" lon="2.24581">
        <ele>241.43</ele>
        <time>2014-09-14T02:36:22Z</time>
      </trkpt>
      <trkpt lat="43.17621" lon="2.24574">
        <ele>241.91</ele>
        <time>2014-09-14T02:36:23Z</time>
      </trkpt>
      <trkpt lat="43.1762" lon="2.24568">
        <ele>241.91</ele>
        <time>2014-09-14T02:36:24Z</time>
      </trkpt>
      <trkpt lat="43.17613" lon="2.24544">
        <ele>242.39</ele>
        <time>2014-09-14T02:36:28Z</time>
      </trkpt>
      <trkpt lat="43.17607" lon="2.24534">
        <ele>242.39</ele>
        <time>2014-09-14T02:36:30Z</time>
      </trkpt>
      <trkpt lat="43.17604" lon="2.24529">
        <ele>241.91</ele>
        <time>2014-09-14T02:36:31Z</time>
      </trkpt>
      <trkpt lat="43.176" lon="2.24525">
        <ele>241.91</ele>
        <time>2014-09-14T02:36:32Z</time>
      </trkpt>
      <trkpt lat="43.17596" lon="2.24522">
        <ele>241.91</ele>
        <time>2014-09-14T02:36:33Z</time>
      </trkpt>
      <trkpt lat="43.17592" lon="2.24519">
        <ele>241.91</ele>
        <time>2014-09-14T02:36:34Z</time>
      </trkpt>
      <trkpt lat="43.17587" lon="2.24517">
        <ele>241.91</ele>
        <time>2014-09-14T02:36:35Z</time>
      </trkpt>
      <trkpt lat="43.17583" lon="2.24515">
        <ele>242.39</ele>
        <time>2014-09-14T02:36:36Z</time>
      </trkpt>
      <trkpt lat="43.17578" lon="2.24514">
        <ele>242.39</ele>
        <time>2014-09-14T02:36:37Z</time>
      </trkpt>
      <trkpt lat="43.1757" lon="2.24512">
        <ele>242.39</ele>
        <time>2014-09-14T02:36:39Z</time>
      </trkpt>
      <trkpt lat="43.17497" lon="2.2451">
        <ele>245.75</ele>
        <time>2014-09-14T02:36:57Z</time>
      </trkpt>
      <trkpt lat="43.17434" lon="2.24508">
        <ele>248.64</ele>
        <time>2014-09-14T02:37:14Z</time>
      </trkpt>
      <trkpt lat="43.174" lon="2.24474">
        <ele>251.52</ele>
        <time>2014-09-14T02:37:26Z</time>
      </trkpt>
      <trkpt lat="43.17389" lon="2.24416">
        <ele>253.44</ele>
        <time>2014-09-14T02:37:37Z</time>
      </trkpt>
      <trkpt lat="43.17376" lon="2.24346">
        <ele>253.93</ele>
        <time>2014-09-14T02:37:49Z</time>
      </trkpt>
      <trkpt lat="43.17374" lon="2.2434">
        <ele>253.93</ele>
        <time>2014-09-14T02:37:50Z</time>
      </trkpt>
      <trkpt lat="43.17367" lon="2.24325">
        <ele>254.41</ele>
        <time>2014-09-14T02:37:53Z</time>
      </trkpt>
      <trkpt lat="43.17365" lon="2.2432">
        <ele>254.41</ele>
        <time>2014-09-14T02:37:54Z</time>
      </trkpt>
      <trkpt lat="43.17317" lon="2.24262">
        <ele>257.29</ele>
        <time>2014-09-14T02:38:09Z</time>
      </trkpt>
      <trkpt lat="43.17268" lon="2.24205">
        <ele>260.17</ele>
        <time>2014-09-14T02:38:25Z</time>
      </trkpt>
      <trkpt lat="43.17242" lon="2.24192">
        <ele>261.62</ele>
        <time>2014-09-14T02:38:32Z</time>
      </trkpt>
      <trkpt lat="43.17238" lon="2.24192">
        <ele>261.62</ele>
        <time>2014-09-14T02:38:33Z</time>
      </trkpt>
      <trkpt lat="43.17211" lon="2.24212">
        <ele>264.02</ele>
        <time>2014-09-14T02:38:41Z</time>
      </trkpt>
      <trkpt lat="43.17207" lon="2.24214">
        <ele>264.5</ele>
        <time>2014-09-14T02:38:42Z</time>
      </trkpt>
      <trkpt lat="43.17203" lon="2.24216">
        <ele>264.5</ele>
        <time>2014-09-14T02:38:43Z</time>
      </trkpt>
      <trkpt lat="43.17199" lon="2.24217">
        <ele>264.5</ele>
        <time>2014-09-14T02:38:44Z</time>
      </trkpt>
      <trkpt lat="43.17194" lon="2.24217">
        <ele>264.98</ele>
        <time>2014-09-14T02:38:45Z</time>
      </trkpt>
      <trkpt lat="43.1719" lon="2.24216">
        <ele>265.46</ele>
        <time>2014-09-14T02:38:46Z</time>
      </trkpt>
      <trkpt lat="43.17186" lon="2.24215">
        <ele>265.46</ele>
        <time>2014-09-14T02:38:47Z</time>
      </trkpt>
      <trkpt lat="43.17183" lon="2.24212">
        <ele>265.94</ele>
        <time>2014-09-14T02:38:48Z</time>
      </trkpt>
      <trkpt lat="43.1718" lon="2.24207">
        <ele>265.94</ele>
        <time>2014-09-14T02:38:49Z</time>
      </trkpt>
      <trkpt lat="43.17177" lon="2.24203">
        <ele>266.42</ele>
        <time>2014-09-14T02:38:50Z</time>
      </trkpt>
      <trkpt lat="43.17176" lon="2.24197">
        <ele>266.42</ele>
        <time>2014-09-14T02:38:51Z</time>
      </trkpt>
      <trkpt lat="43.17175" lon="2.24191">
        <ele>266.42</ele>
        <time>2014-09-14T02:38:52Z</time>
      </trkpt>
      <trkpt lat="43.17175" lon="2.24184">
        <ele>266.42</ele>
        <time>2014-09-14T02:38:53Z</time>
      </trkpt>
      <trkpt lat="43.17176" lon="2.24178">
        <ele>266.9</ele>
        <time>2014-09-14T02:38:54Z</time>
      </trkpt>
      <trkpt lat="43.17177" lon="2.24172">
        <ele>266.9</ele>
        <time>2014-09-14T02:38:55Z</time>
      </trkpt>
      <trkpt lat="43.17179" lon="2.24167">
        <ele>266.9</ele>
        <time>2014-09-14T02:38:56Z</time>
      </trkpt>
      <trkpt lat="43.17181" lon="2.24162">
        <ele>266.9</ele>
        <time>2014-09-14T02:38:57Z</time>
      </trkpt>
      <trkpt lat="43.17183" lon="2.24157">
        <ele>267.38</ele>
        <time>2014-09-14T02:38:58Z</time>
      </trkpt>
      <trkpt lat="43.17218" lon="2.24067">
        <ele>270.75</ele>
        <time>2014-09-14T02:39:17Z</time>
      </trkpt>
      <trkpt lat="43.17218" lon="2.2404">
        <ele>270.75</ele>
        <time>2014-09-14T02:39:22Z</time>
      </trkpt>
      <trkpt lat="43.17216" lon="2.24029">
        <ele>270.75</ele>
        <time>2014-09-14T02:39:24Z</time>
      </trkpt>
      <trkpt lat="43.17211" lon="2.24013">
        <ele>270.75</ele>
        <time>2014-09-14T02:39:27Z</time>
      </trkpt>
      <trkpt lat="43.17209" lon="2.24007">
        <ele>270.75</ele>
        <time>2014-09-14T02:39:28Z</time>
      </trkpt>
      <trkpt lat="43.17207" lon="2.24002">
        <ele>271.23</ele>
        <time>2014-09-14T02:39:29Z</time>
      </trkpt>
      <trkpt lat="43.17161" lon="2.23902">
        <ele>273.63</ele>
        <time>2014-09-14T02:39:48Z</time>
      </trkpt>
      <trkpt lat="43.17102" lon="2.2382">
        <ele>275.07</ele>
        <time>2014-09-14T02:40:06Z</time>
      </trkpt>
      <trkpt lat="43.17091" lon="2.23799">
        <ele>276.04</ele>
        <time>2014-09-14T02:40:10Z</time>
      </trkpt>
      <trkpt lat="43.17071" lon="2.23732">
        <ele>276.04</ele>
        <time>2014-09-14T02:40:21Z</time>
      </trkpt>
      <trkpt lat="43.17069" lon="2.23727">
        <ele>276.04</ele>
        <time>2014-09-14T02:40:22Z</time>
      </trkpt>
      <trkpt lat="43.17066" lon="2.23722">
        <ele>276.04</ele>
        <time>2014-09-14T02:40:23Z</time>
      </trkpt>
      <trkpt lat="43.17063" lon="2.23718">
        <ele>276.04</ele>
        <time>2014-09-14T02:40:24Z</time>
      </trkpt>
      <trkpt lat="43.1706" lon="2.23715">
        <ele>276.52</ele>
        <time>2014-09-14T02:40:25Z</time>
      </trkpt>
      <trkpt lat="43.17056" lon="2.23712">
        <ele>276.52</ele>
        <time>2014-09-14T02:40:26Z</time>
      </trkpt>
      <trkpt lat="43.17051" lon="2.2371">
        <ele>276.52</ele>
        <time>2014-09-14T02:40:27Z</time>
      </trkpt>
      <trkpt lat="43.17047" lon="2.23709">
        <ele>276.52</ele>
        <time>2014-09-14T02:40:28Z</time>
      </trkpt>
      <trkpt lat="43.16979" lon="2.23699">
        <ele>278.92</ele>
        <time>2014-09-14T02:40:44Z</time>
      </trkpt>
      <trkpt lat="43.16974" lon="2.23701">
        <ele>279.4</ele>
        <time>2014-09-14T02:40:45Z</time>
      </trkpt>
      <trkpt lat="43.16971" lon="2.23703">
        <ele>279.4</ele>
        <time>2014-09-14T02:40:46Z</time>
      </trkpt>
      <trkpt lat="43.1696" lon="2.23712">
        <ele>280.84</ele>
        <time>2014-09-14T02:40:49Z</time>
      </trkpt>
      <trkpt lat="43.16912" lon="2.2378">
        <ele>288.05</ele>
        <time>2014-09-14T02:41:05Z</time>
      </trkpt>
      <trkpt lat="43.16909" lon="2.23783">
        <ele>288.05</ele>
        <time>2014-09-14T02:41:06Z</time>
      </trkpt>
      <trkpt lat="43.16906" lon="2.23787">
        <ele>288.53</ele>
        <time>2014-09-14T02:41:07Z</time>
      </trkpt>
      <trkpt lat="43.169" lon="2.23789">
        <ele>288.53</ele>
        <time>2014-09-14T02:41:08Z</time>
      </trkpt>
      <trkpt lat="43.16895" lon="2.2379">
        <ele>288.53</ele>
        <time>2014-09-14T02:41:09Z</time>
      </trkpt>
      <trkpt lat="43.16891" lon="2.23789">
        <ele>288.53</ele>
        <time>2014-09-14T02:41:10Z</time>
      </trkpt>
      <trkpt lat="43.16887" lon="2.23787">
        <ele>288.53</ele>
        <time>2014-09-14T02:41:11Z</time>
      </trkpt>
      <trkpt lat="43.16883" lon="2.23784">
        <ele>289.01</ele>
        <time>2014-09-14T02:41:12Z</time>
      </trkpt>
      <trkpt lat="43.1688" lon="2.2378">
        <ele>289.01</ele>
        <time>2014-09-14T02:41:13Z</time>
      </trkpt>
      <trkpt lat="43.16878" lon="2.23774">
        <ele>288.53</ele>
        <time>2014-09-14T02:41:14Z</time>
      </trkpt>
      <trkpt lat="43.16876" lon="2.23769">
        <ele>289.01</ele>
        <time>2014-09-14T02:41:15Z</time>
      </trkpt>
      <trkpt lat="43.16875" lon="2.23763">
        <ele>289.01</ele>
        <time>2014-09-14T02:41:16Z</time>
      </trkpt>
      <trkpt lat="43.16875" lon="2.23757">
        <ele>288.53</ele>
        <time>2014-09-14T02:41:17Z</time>
      </trkpt>
      <trkpt lat="43.16875" lon="2.23751">
        <ele>288.53</ele>
        <time>2014-09-14T02:41:18Z</time>
      </trkpt>
      <trkpt lat="43.16877" lon="2.23744">
        <ele>288.53</ele>
        <time>2014-09-14T02:41:19Z</time>
      </trkpt>
      <trkpt lat="43.16878" lon="2.23739">
        <ele>288.53</ele>
        <time>2014-09-14T02:41:20Z</time>
      </trkpt>
      <trkpt lat="43.16881" lon="2.23733">
        <ele>288.53</ele>
        <time>2014-09-14T02:41:21Z</time>
      </trkpt>
      <trkpt lat="43.16883" lon="2.23728">
        <ele>289.01</ele>
        <time>2014-09-14T02:41:22Z</time>
      </trkpt>
      <trkpt lat="43.16906" lon="2.23685">
        <ele>289.01</ele>
        <time>2014-09-14T02:41:31Z</time>
      </trkpt>
      <trkpt lat="43.16908" lon="2.23679">
        <ele>289.49</ele>
        <time>2014-09-14T02:41:32Z</time>
      </trkpt>
      <trkpt lat="43.16909" lon="2.23674">
        <ele>289.49</ele>
        <time>2014-09-14T02:41:33Z</time>
      </trkpt>
      <trkpt lat="43.1691" lon="2.23668">
        <ele>289.49</ele>
        <time>2014-09-14T02:41:34Z</time>
      </trkpt>
      <trkpt lat="43.1691" lon="2.23662">
        <ele>289.01</ele>
        <time>2014-09-14T02:41:35Z</time>
      </trkpt>
      <trkpt lat="43.16909" lon="2.23657">
        <ele>289.01</ele>
        <time>2014-09-14T02:41:36Z</time>
      </trkpt>
      <trkpt lat="43.16907" lon="2.23652">
        <ele>289.01</ele>
        <time>2014-09-14T02:41:37Z</time>
      </trkpt>
      <trkpt lat="43.16905" lon="2.23648">
        <ele>289.01</ele>
        <time>2014-09-14T02:41:38Z</time>
      </trkpt>
      <trkpt lat="43.16902" lon="2.23644">
        <ele>289.01</ele>
        <time>2014-09-14T02:41:39Z</time>
      </trkpt>
      <trkpt lat="43.16899" lon="2.23641">
        <ele>289.49</ele>
        <time>2014-09-14T02:41:40Z</time>
      </trkpt>
      <trkpt lat="43.16885" lon="2.23622">
        <ele>290.46</ele>
        <time>2014-09-14T02:41:45Z</time>
      </trkpt>
      <trkpt lat="43.16883" lon="2.23616">
        <ele>290.46</ele>
        <time>2014-09-14T02:41:46Z</time>
      </trkpt>
      <trkpt lat="43.16882" lon="2.2361">
        <ele>290.46</ele>
        <time>2014-09-14T02:41:47Z</time>
      </trkpt>
      <trkpt lat="43.16881" lon="2.23603">
        <ele>290.46</ele>
        <time>2014-09-14T02:41:48Z</time>
      </trkpt>
      <trkpt lat="43.16881" lon="2.23597">
        <ele>290.94</ele>
        <time>2014-09-14T02:41:49Z</time>
      </trkpt>
      <trkpt lat="43.16882" lon="2.23591">
        <ele>290.94</ele>
        <time>2014-09-14T02:41:50Z</time>
      </trkpt>
      <trkpt lat="43.16883" lon="2.23584">
        <ele>290.94</ele>
        <time>2014-09-14T02:41:51Z</time>
      </trkpt>
      <trkpt lat="43.16885" lon="2.23578">
        <ele>290.46</ele>
        <time>2014-09-14T02:41:52Z</time>
      </trkpt>
      <trkpt lat="43.16887" lon="2.23573">
        <ele>290.46</ele>
        <time>2014-09-14T02:41:53Z</time>
      </trkpt>
      <trkpt lat="43.16889" lon="2.23568">
        <ele>290.94</ele>
        <time>2014-09-14T02:41:54Z</time>
      </trkpt>
      <trkpt lat="43.16894" lon="2.23552">
        <ele>290.94</ele>
        <time>2014-09-14T02:41:57Z</time>
      </trkpt>
      <trkpt lat="43.16895" lon="2.23547">
        <ele>290.94</ele>
        <time>2014-09-14T02:41:58Z</time>
      </trkpt>
      <trkpt lat="43.16896" lon="2.23541">
        <ele>290.94</ele>
        <time>2014-09-14T02:41:59Z</time>
      </trkpt>
      <trkpt lat="43.16895" lon="2.23536">
        <ele>290.94</ele>
        <time>2014-09-14T02:42:00Z</time>
      </trkpt>
      <trkpt lat="43.16895" lon="2.2353">
        <ele>290.46</ele>
        <time>2014-09-14T02:42:01Z</time>
      </trkpt>
      <trkpt lat="43.16893" lon="2.23525">
        <ele>289.97</ele>
        <time>2014-09-14T02:42:02Z</time>
      </trkpt>
      <trkpt lat="43.16891" lon="2.2352">
        <ele>289.97</ele>
        <time>2014-09-14T02:42:03Z</time>
      </trkpt>
      <trkpt lat="43.16888" lon="2.2351">
        <ele>289.97</ele>
        <time>2014-09-14T02:42:05Z</time>
      </trkpt>
      <trkpt lat="43.16885" lon="2.23505">
        <ele>289.97</ele>
        <time>2014-09-14T02:42:06Z</time>
      </trkpt>
      <trkpt lat="43.16883" lon="2.235">
        <ele>289.49</ele>
        <time>2014-09-14T02:42:07Z</time>
      </trkpt>
      <trkpt lat="43.16882" lon="2.23494">
        <ele>289.49</ele>
        <time>2014-09-14T02:42:08Z</time>
      </trkpt>
      <trkpt lat="43.16881" lon="2.23489">
        <ele>289.49</ele>
        <time>2014-09-14T02:42:09Z</time>
      </trkpt>
      <trkpt lat="43.1688" lon="2.23483">
        <ele>289.49</ele>
        <time>2014-09-14T02:42:10Z</time>
      </trkpt>
      <trkpt lat="43.16879" lon="2.23477">
        <ele>289.49</ele>
        <time>2014-09-14T02:42:11Z</time>
      </trkpt>
      <trkpt lat="43.1688" lon="2.2344">
        <ele>289.97</ele>
        <time>2014-09-14T02:42:17Z</time>
      </trkpt>
      <trkpt lat="43.16881" lon="2.23434">
        <ele>289.97</ele>
        <time>2014-09-14T02:42:18Z</time>
      </trkpt>
      <trkpt lat="43.16881" lon="2.23428">
        <ele>289.97</ele>
        <time>2014-09-14T02:42:19Z</time>
      </trkpt>
      <trkpt lat="43.16881" lon="2.23411">
        <ele>290.46</ele>
        <time>2014-09-14T02:42:22Z</time>
      </trkpt>
      <trkpt lat="43.1688" lon="2.23405">
        <ele>290.46</ele>
        <time>2014-09-14T02:42:23Z</time>
      </trkpt>
      <trkpt lat="43.16879" lon="2.234">
        <ele>290.46</ele>
        <time>2014-09-14T02:42:24Z</time>
      </trkpt>
      <trkpt lat="43.16877" lon="2.23395">
        <ele>290.94</ele>
        <time>2014-09-14T02:42:25Z</time>
      </trkpt>
      <trkpt lat="43.16875" lon="2.23391">
        <ele>290.94</ele>
        <time>2014-09-14T02:42:26Z</time>
      </trkpt>
      <trkpt lat="43.16872" lon="2.23386">
        <ele>290.94</ele>
        <time>2014-09-14T02:42:27Z</time>
      </trkpt>
      <trkpt lat="43.1687" lon="2.23382">
        <ele>291.42</ele>
        <time>2014-09-14T02:42:28Z</time>
      </trkpt>
      <trkpt lat="43.16866" lon="2.23379">
        <ele>291.42</ele>
        <time>2014-09-14T02:42:29Z</time>
      </trkpt>
      <trkpt lat="43.16863" lon="2.23376">
        <ele>291.9</ele>
        <time>2014-09-14T02:42:30Z</time>
      </trkpt>
      <trkpt lat="43.16859" lon="2.23373">
        <ele>291.9</ele>
        <time>2014-09-14T02:42:31Z</time>
      </trkpt>
      <trkpt lat="43.16852" lon="2.23369">
        <ele>292.38</ele>
        <time>2014-09-14T02:42:33Z</time>
      </trkpt>
      <trkpt lat="43.16848" lon="2.23367">
        <ele>292.86</ele>
        <time>2014-09-14T02:42:34Z</time>
      </trkpt>
      <trkpt lat="43.16791" lon="2.23369">
        <ele>298.63</ele>
        <time>2014-09-14T02:42:47Z</time>
      </trkpt>
      <trkpt lat="43.16788" lon="2.23372">
        <ele>299.11</ele>
        <time>2014-09-14T02:42:48Z</time>
      </trkpt>
      <trkpt lat="43.16784" lon="2.23375">
        <ele>299.59</ele>
        <time>2014-09-14T02:42:49Z</time>
      </trkpt>
      <trkpt lat="43.16774" lon="2.23384">
        <ele>300.55</ele>
        <time>2014-09-14T02:42:52Z</time>
      </trkpt>
      <trkpt lat="43.1677" lon="2.23386">
        <ele>301.03</ele>
        <time>2014-09-14T02:42:53Z</time>
      </trkpt>
      <trkpt lat="43.16765" lon="2.23388">
        <ele>301.03</ele>
        <time>2014-09-14T02:42:54Z</time>
      </trkpt>
      <trkpt lat="43.1676" lon="2.2339">
        <ele>301.03</ele>
        <time>2014-09-14T02:42:55Z</time>
      </trkpt>
      <trkpt lat="43.16755" lon="2.2339">
        <ele>301.51</ele>
        <time>2014-09-14T02:42:56Z</time>
      </trkpt>
      <trkpt lat="43.1675" lon="2.23389">
        <ele>301.51</ele>
        <time>2014-09-14T02:42:57Z</time>
      </trkpt>
      <trkpt lat="43.16746" lon="2.23387">
        <ele>301.99</ele>
        <time>2014-09-14T02:42:58Z</time>
      </trkpt>
      <trkpt lat="43.16742" lon="2.23383">
        <ele>301.99</ele>
        <time>2014-09-14T02:42:59Z</time>
      </trkpt>
      <trkpt lat="43.16738" lon="2.23379">
        <ele>301.99</ele>
        <time>2014-09-14T02:43:00Z</time>
      </trkpt>
      <trkpt lat="43.16736" lon="2.23373">
        <ele>301.99</ele>
        <time>2014-09-14T02:43:01Z</time>
      </trkpt>
      <trkpt lat="43.16734" lon="2.23367">
        <ele>302.47</ele>
        <time>2014-09-14T02:43:02Z</time>
      </trkpt>
      <trkpt lat="43.16732" lon="2.23361">
        <ele>302.47</ele>
        <time>2014-09-14T02:43:03Z</time>
      </trkpt>
      <trkpt lat="43.16732" lon="2.23354">
        <ele>302.95</ele>
        <time>2014-09-14T02:43:04Z</time>
      </trkpt>
      <trkpt lat="43.16733" lon="2.23348">
        <ele>302.95</ele>
        <time>2014-09-14T02:43:05Z</time>
      </trkpt>
      <trkpt lat="43.16733" lon="2.23342">
        <ele>302.95</ele>
        <time>2014-09-14T02:43:06Z</time>
      </trkpt>
      <trkpt lat="43.1674" lon="2.23307">
        <ele>303.43</ele>
        <time>2014-09-14T02:43:12Z</time>
      </trkpt>
      <trkpt lat="43.16741" lon="2.23301">
        <ele>303.43</ele>
        <time>2014-09-14T02:43:13Z</time>
      </trkpt>
      <trkpt lat="43.16748" lon="2.23255">
        <ele>304.88</ele>
        <time>2014-09-14T02:43:21Z</time>
      </trkpt>
      <trkpt lat="43.16748" lon="2.2325">
        <ele>304.39</ele>
        <time>2014-09-14T02:43:22Z</time>
      </trkpt>
      <trkpt lat="43.16747" lon="2.23244">
        <ele>304.39</ele>
        <time>2014-09-14T02:43:23Z</time>
      </trkpt>
      <trkpt lat="43.16745" lon="2.23239">
        <ele>304.39</ele>
        <time>2014-09-14T02:43:24Z</time>
      </trkpt>
      <trkpt lat="43.16743" lon="2.23235">
        <ele>303.91</ele>
        <time>2014-09-14T02:43:25Z</time>
      </trkpt>
      <trkpt lat="43.1674" lon="2.23231">
        <ele>303.91</ele>
        <time>2014-09-14T02:43:26Z</time>
      </trkpt>
      <trkpt lat="43.16738" lon="2.23228">
        <ele>303.91</ele>
        <time>2014-09-14T02:43:27Z</time>
      </trkpt>
      <trkpt lat="43.16734" lon="2.23225">
        <ele>303.91</ele>
        <time>2014-09-14T02:43:28Z</time>
      </trkpt>
      <trkpt lat="43.16721" lon="2.23211">
        <ele>304.39</ele>
        <time>2014-09-14T02:43:33Z</time>
      </trkpt>
      <trkpt lat="43.16718" lon="2.23206">
        <ele>304.39</ele>
        <time>2014-09-14T02:43:34Z</time>
      </trkpt>
      <trkpt lat="43.16715" lon="2.232">
        <ele>304.39</ele>
        <time>2014-09-14T02:43:35Z</time>
      </trkpt>
      <trkpt lat="43.16713" lon="2.23194">
        <ele>304.39</ele>
        <time>2014-09-14T02:43:36Z</time>
      </trkpt>
      <trkpt lat="43.16711" lon="2.23188">
        <ele>303.91</ele>
        <time>2014-09-14T02:43:37Z</time>
      </trkpt>
      <trkpt lat="43.1671" lon="2.23181">
        <ele>303.91</ele>
        <time>2014-09-14T02:43:38Z</time>
      </trkpt>
      <trkpt lat="43.16709" lon="2.23175">
        <ele>303.91</ele>
        <time>2014-09-14T02:43:39Z</time>
      </trkpt>
      <trkpt lat="43.16709" lon="2.23169">
        <ele>303.91</ele>
        <time>2014-09-14T02:43:40Z</time>
      </trkpt>
      <trkpt lat="43.16708" lon="2.23163">
        <ele>303.91</ele>
        <time>2014-09-14T02:43:41Z</time>
      </trkpt>
      <trkpt lat="43.16706" lon="2.23134">
        <ele>304.39</ele>
        <time>2014-09-14T02:43:46Z</time>
      </trkpt>
      <trkpt lat="43.16698" lon="2.23047">
        <ele>306.32</ele>
        <time>2014-09-14T02:44:01Z</time>
      </trkpt>
      <trkpt lat="43.16664" lon="2.22998">
        <ele>308.72</ele>
        <time>2014-09-14T02:44:14Z</time>
      </trkpt>
      <trkpt lat="43.16603" lon="2.22952">
        <ele>313.53</ele>
        <time>2014-09-14T02:44:31Z</time>
      </trkpt>
      <trkpt lat="43.16595" lon="2.22947">
        <ele>313.53</ele>
        <time>2014-09-14T02:44:33Z</time>
      </trkpt>
      <trkpt lat="43.16541" lon="2.22901">
        <ele>315.93</ele>
        <time>2014-09-14T02:44:49Z</time>
      </trkpt>
      <trkpt lat="43.16514" lon="2.22842">
        <ele>318.81</ele>
        <time>2014-09-14T02:45:02Z</time>
      </trkpt>
      <trkpt lat="43.16511" lon="2.2276">
        <ele>318.81</ele>
        <time>2014-09-14T02:45:17Z</time>
      </trkpt>
      <trkpt lat="43.16517" lon="2.22696">
        <ele>322.18</ele>
        <time>2014-09-14T02:45:29Z</time>
      </trkpt>
      <trkpt lat="43.16544" lon="2.22642">
        <ele>325.54</ele>
        <time>2014-09-14T02:45:42Z</time>
      </trkpt>
      <trkpt lat="43.16544" lon="2.22625">
        <ele>325.54</ele>
        <time>2014-09-14T02:45:45Z</time>
      </trkpt>
      <trkpt lat="43.1653" lon="2.22537">
        <ele>326.02</ele>
        <time>2014-09-14T02:46:00Z</time>
      </trkpt>
      <trkpt lat="43.16528" lon="2.22532">
        <ele>326.02</ele>
        <time>2014-09-14T02:46:01Z</time>
      </trkpt>
      <trkpt lat="43.16526" lon="2.22526">
        <ele>326.02</ele>
        <time>2014-09-14T02:46:02Z</time>
      </trkpt>
      <trkpt lat="43.16524" lon="2.22522">
        <ele>326.02</ele>
        <time>2014-09-14T02:46:03Z</time>
      </trkpt>
      <trkpt lat="43.16521" lon="2.22518">
        <ele>326.5</ele>
        <time>2014-09-14T02:46:04Z</time>
      </trkpt>
      <trkpt lat="43.16518" lon="2.22513">
        <ele>326.5</ele>
        <time>2014-09-14T02:46:05Z</time>
      </trkpt>
      <trkpt lat="43.16515" lon="2.2251">
        <ele>326.5</ele>
        <time>2014-09-14T02:46:06Z</time>
      </trkpt>
      <trkpt lat="43.16512" lon="2.22507">
        <ele>326.99</ele>
        <time>2014-09-14T02:46:07Z</time>
      </trkpt>
      <trkpt lat="43.16477" lon="2.22475">
        <ele>330.83</ele>
        <time>2014-09-14T02:46:20Z</time>
      </trkpt>
      <trkpt lat="43.16446" lon="2.22427">
        <ele>332.75</ele>
        <time>2014-09-14T02:46:33Z</time>
      </trkpt>
      <trkpt lat="43.16442" lon="2.22368">
        <ele>334.68</ele>
        <time>2014-09-14T02:46:46Z</time>
      </trkpt>
      <trkpt lat="43.16451" lon="2.22297">
        <ele>334.68</ele>
        <time>2014-09-14T02:47:02Z</time>
      </trkpt>
      <trkpt lat="43.16459" lon="2.2223">
        <ele>335.16</ele>
        <time>2014-09-14T02:47:17Z</time>
      </trkpt>
      <trkpt lat="43.16442" lon="2.2218">
        <ele>339.96</ele>
        <time>2014-09-14T02:47:30Z</time>
      </trkpt>
      <trkpt lat="43.16392" lon="2.22143">
        <ele>349.58</ele>
        <time>2014-09-14T02:47:47Z</time>
      </trkpt>
      <trkpt lat="43.16372" lon="2.22099">
        <ele>353.9</ele>
        <time>2014-09-14T02:47:59Z</time>
      </trkpt>
      <trkpt lat="43.16395" lon="2.22062">
        <ele>356.31</ele>
        <time>2014-09-14T02:48:11Z</time>
      </trkpt>
      <trkpt lat="43.16423" lon="2.2202">
        <ele>359.67</ele>
        <time>2014-09-14T02:48:24Z</time>
      </trkpt>
      <trkpt lat="43.16416" lon="2.21974">
        <ele>361.59</ele>
        <time>2014-09-14T02:48:36Z</time>
      </trkpt>
      <trkpt lat="43.16411" lon="2.21912">
        <ele>362.55</ele>
        <time>2014-09-14T02:48:50Z</time>
      </trkpt>
      <trkpt lat="43.16421" lon="2.21843">
        <ele>363.04</ele>
        <time>2014-09-14T02:49:05Z</time>
      </trkpt>
      <trkpt lat="43.16433" lon="2.21781">
        <ele>365.44</ele>
        <time>2014-09-14T02:49:19Z</time>
      </trkpt>
      <trkpt lat="43.16452" lon="2.21712">
        <ele>371.21</ele>
        <time>2014-09-14T02:49:36Z</time>
      </trkpt>
      <trkpt lat="43.16491" lon="2.21664">
        <ele>376.97</ele>
        <time>2014-09-14T02:49:52Z</time>
      </trkpt>
      <trkpt lat="43.16512" lon="2.21603">
        <ele>379.86</ele>
        <time>2014-09-14T02:50:06Z</time>
      </trkpt>
      <trkpt lat="43.16503" lon="2.21539">
        <ele>380.34</ele>
        <time>2014-09-14T02:50:19Z</time>
      </trkpt>
      <trkpt lat="43.16487" lon="2.21452">
        <ele>382.74</ele>
        <time>2014-09-14T02:50:37Z</time>
      </trkpt>
      <trkpt lat="43.16479" lon="2.21368">
        <ele>386.11</ele>
        <time>2014-09-14T02:50:55Z</time>
      </trkpt>
      <trkpt lat="43.16476" lon="2.21301">
        <ele>387.07</ele>
        <time>2014-09-14T02:51:09Z</time>
      </trkpt>
      <trkpt lat="43.16465" lon="2.21239">
        <ele>388.99</ele>
        <time>2014-09-14T02:51:23Z</time>
      </trkpt>
      <trkpt lat="43.1642" lon="2.21221">
        <ele>392.84</ele>
        <time>2014-09-14T02:51:36Z</time>
      </trkpt>
      <trkpt lat="43.16361" lon="2.21219">
        <ele>398.6</ele>
        <time>2014-09-14T02:51:53Z</time>
      </trkpt>
      <trkpt lat="43.16329" lon="2.21248">
        <ele>401.97</ele>
        <time>2014-09-14T02:52:04Z</time>
      </trkpt>
      <trkpt lat="43.16294" lon="2.21305">
        <ele>403.89</ele>
        <time>2014-09-14T02:52:19Z</time>
      </trkpt>
      <trkpt lat="43.16259" lon="2.21296">
        <ele>403.89</ele>
        <time>2014-09-14T02:52:30Z</time>
      </trkpt>
      <trkpt lat="43.16249" lon="2.2124">
        <ele>405.81</ele>
        <time>2014-09-14T02:52:42Z</time>
      </trkpt>
      <trkpt lat="43.16217" lon="2.21184">
        <ele>408.7</ele>
        <time>2014-09-14T02:52:56Z</time>
      </trkpt>
      <trkpt lat="43.16192" lon="2.21128">
        <ele>409.18</ele>
        <time>2014-09-14T02:53:07Z</time>
      </trkpt>
      <trkpt lat="43.1616" lon="2.21059">
        <ele>408.7</ele>
        <time>2014-09-14T02:53:21Z</time>
      </trkpt>
      <trkpt lat="43.16137" lon="2.21016">
        <ele>409.66</ele>
        <time>2014-09-14T02:53:30Z</time>
      </trkpt>
      <trkpt lat="43.16133" lon="2.21012">
        <ele>409.66</ele>
        <time>2014-09-14T02:53:31Z</time>
      </trkpt>
      <trkpt lat="43.16129" lon="2.21009">
        <ele>409.66</ele>
        <time>2014-09-14T02:53:32Z</time>
      </trkpt>
      <trkpt lat="43.16124" lon="2.21006">
        <ele>410.14</ele>
        <time>2014-09-14T02:53:33Z</time>
      </trkpt>
      <trkpt lat="43.16119" lon="2.21005">
        <ele>410.62</ele>
        <time>2014-09-14T02:53:34Z</time>
      </trkpt>
      <trkpt lat="43.16115" lon="2.21004">
        <ele>410.62</ele>
        <time>2014-09-14T02:53:35Z</time>
      </trkpt>
      <trkpt lat="43.1611" lon="2.21004">
        <ele>411.1</ele>
        <time>2014-09-14T02:53:36Z</time>
      </trkpt>
      <trkpt lat="43.16101" lon="2.21003">
        <ele>411.58</ele>
        <time>2014-09-14T02:53:38Z</time>
      </trkpt>
      <trkpt lat="43.16096" lon="2.21004">
        <ele>411.58</ele>
        <time>2014-09-14T02:53:39Z</time>
      </trkpt>
      <trkpt lat="43.16092" lon="2.21006">
        <ele>411.58</ele>
        <time>2014-09-14T02:53:40Z</time>
      </trkpt>
      <trkpt lat="43.16088" lon="2.21009">
        <ele>411.58</ele>
        <time>2014-09-14T02:53:41Z</time>
      </trkpt>
      <trkpt lat="43.16085" lon="2.21012">
        <ele>412.06</ele>
        <time>2014-09-14T02:53:42Z</time>
      </trkpt>
      <trkpt lat="43.16081" lon="2.21015">
        <ele>412.54</ele>
        <time>2014-09-14T02:53:43Z</time>
      </trkpt>
      <trkpt lat="43.16071" lon="2.21026">
        <ele>413.02</ele>
        <time>2014-09-14T02:53:46Z</time>
      </trkpt>
      <trkpt lat="43.16067" lon="2.2103">
        <ele>413.02</ele>
        <time>2014-09-14T02:53:47Z</time>
      </trkpt>
      <trkpt lat="43.16051" lon="2.21048">
        <ele>414.47</ele>
        <time>2014-09-14T02:53:52Z</time>
      </trkpt>
      <trkpt lat="43.16048" lon="2.21053">
        <ele>414.95</ele>
        <time>2014-09-14T02:53:53Z</time>
      </trkpt>
      <trkpt lat="43.15997" lon="2.21108">
        <ele>418.31</ele>
        <time>2014-09-14T02:54:08Z</time>
      </trkpt>
      <trkpt lat="43.15994" lon="2.2111">
        <ele>418.79</ele>
        <time>2014-09-14T02:54:09Z</time>
      </trkpt>
      <trkpt lat="43.1599" lon="2.21112">
        <ele>418.79</ele>
        <time>2014-09-14T02:54:10Z</time>
      </trkpt>
      <trkpt lat="43.15981" lon="2.21116">
        <ele>418.31</ele>
        <time>2014-09-14T02:54:12Z</time>
      </trkpt>
      <trkpt lat="43.15976" lon="2.21117">
        <ele>418.31</ele>
        <time>2014-09-14T02:54:13Z</time>
      </trkpt>
      <trkpt lat="43.15972" lon="2.21117">
        <ele>418.31</ele>
        <time>2014-09-14T02:54:14Z</time>
      </trkpt>
      <trkpt lat="43.15968" lon="2.21116">
        <ele>418.31</ele>
        <time>2014-09-14T02:54:15Z</time>
      </trkpt>
      <trkpt lat="43.15964" lon="2.21116">
        <ele>418.31</ele>
        <time>2014-09-14T02:54:16Z</time>
      </trkpt>
      <trkpt lat="43.1596" lon="2.21114">
        <ele>418.31</ele>
        <time>2014-09-14T02:54:17Z</time>
      </trkpt>
      <trkpt lat="43.15943" lon="2.2111">
        <ele>419.27</ele>
        <time>2014-09-14T02:54:21Z</time>
      </trkpt>
      <trkpt lat="43.15926" lon="2.21109">
        <ele>418.79</ele>
        <time>2014-09-14T02:54:25Z</time>
      </trkpt>
      <trkpt lat="43.15922" lon="2.2111">
        <ele>418.79</ele>
        <time>2014-09-14T02:54:26Z</time>
      </trkpt>
      <trkpt lat="43.15917" lon="2.2111">
        <ele>418.79</ele>
        <time>2014-09-14T02:54:27Z</time>
      </trkpt>
      <trkpt lat="43.15888" lon="2.21121">
        <ele>419.75</ele>
        <time>2014-09-14T02:54:34Z</time>
      </trkpt>
      <trkpt lat="43.15884" lon="2.21122">
        <ele>420.23</ele>
        <time>2014-09-14T02:54:35Z</time>
      </trkpt>
      <trkpt lat="43.1588" lon="2.21122">
        <ele>420.23</ele>
        <time>2014-09-14T02:54:36Z</time>
      </trkpt>
      <trkpt lat="43.15876" lon="2.21121">
        <ele>420.71</ele>
        <time>2014-09-14T02:54:37Z</time>
      </trkpt>
      <trkpt lat="43.15872" lon="2.21119">
        <ele>420.71</ele>
        <time>2014-09-14T02:54:38Z</time>
      </trkpt>
      <trkpt lat="43.15867" lon="2.21116">
        <ele>421.19</ele>
        <time>2014-09-14T02:54:39Z</time>
      </trkpt>
      <trkpt lat="43.15864" lon="2.21113">
        <ele>421.68</ele>
        <time>2014-09-14T02:54:40Z</time>
      </trkpt>
      <trkpt lat="43.15861" lon="2.21108">
        <ele>421.68</ele>
        <time>2014-09-14T02:54:41Z</time>
      </trkpt>
      <trkpt lat="43.15858" lon="2.21103">
        <ele>421.68</ele>
        <time>2014-09-14T02:54:42Z</time>
      </trkpt>
      <trkpt lat="43.15855" lon="2.21098">
        <ele>421.68</ele>
        <time>2014-09-14T02:54:43Z</time>
      </trkpt>
      <trkpt lat="43.15852" lon="2.21093">
        <ele>421.68</ele>
        <time>2014-09-14T02:54:44Z</time>
      </trkpt>
      <trkpt lat="43.1581" lon="2.21013">
        <ele>420.71</ele>
        <time>2014-09-14T02:55:00Z</time>
      </trkpt>
      <trkpt lat="43.15804" lon="2.21005">
        <ele>421.19</ele>
        <time>2014-09-14T02:55:02Z</time>
      </trkpt>
      <trkpt lat="43.1578" lon="2.2098">
        <ele>421.68</ele>
        <time>2014-09-14T02:55:09Z</time>
      </trkpt>
      <trkpt lat="43.15777" lon="2.20976">
        <ele>421.68</ele>
        <time>2014-09-14T02:55:10Z</time>
      </trkpt>
      <trkpt lat="43.15743" lon="2.20945">
        <ele>423.6</ele>
        <time>2014-09-14T02:55:20Z</time>
      </trkpt>
      <trkpt lat="43.15739" lon="2.20943">
        <ele>423.6</ele>
        <time>2014-09-14T02:55:21Z</time>
      </trkpt>
      <trkpt lat="43.15733" lon="2.20942">
        <ele>423.6</ele>
        <time>2014-09-14T02:55:22Z</time>
      </trkpt>
      <trkpt lat="43.15729" lon="2.20941">
        <ele>423.6</ele>
        <time>2014-09-14T02:55:23Z</time>
      </trkpt>
      <trkpt lat="43.15725" lon="2.2094">
        <ele>423.6</ele>
        <time>2014-09-14T02:55:24Z</time>
      </trkpt>
      <trkpt lat="43.15719" lon="2.2094">
        <ele>423.6</ele>
        <time>2014-09-14T02:55:25Z</time>
      </trkpt>
      <trkpt lat="43.15641" lon="2.20916">
        <ele>421.68</ele>
        <time>2014-09-14T02:55:38Z</time>
      </trkpt>
      <trkpt lat="43.15588" lon="2.20864">
        <ele>419.27</ele>
        <time>2014-09-14T02:55:47Z</time>
      </trkpt>
      <trkpt lat="43.15584" lon="2.20854">
        <ele>418.79</ele>
        <time>2014-09-14T02:55:48Z</time>
      </trkpt>
      <trkpt lat="43.15533" lon="2.20707">
        <ele>413.5</ele>
        <time>2014-09-14T02:56:02Z</time>
      </trkpt>
      <trkpt lat="43.15524" lon="2.20686">
        <ele>412.54</ele>
        <time>2014-09-14T02:56:04Z</time>
      </trkpt>
      <trkpt lat="43.15519" lon="2.20676">
        <ele>412.06</ele>
        <time>2014-09-14T02:56:05Z</time>
      </trkpt>
      <trkpt lat="43.15512" lon="2.20668">
        <ele>411.58</ele>
        <time>2014-09-14T02:56:06Z</time>
      </trkpt>
      <trkpt lat="43.15505" lon="2.2066">
        <ele>411.1</ele>
        <time>2014-09-14T02:56:07Z</time>
      </trkpt>
      <trkpt lat="43.15497" lon="2.20654">
        <ele>410.62</ele>
        <time>2014-09-14T02:56:08Z</time>
      </trkpt>
      <trkpt lat="43.15489" lon="2.20648">
        <ele>410.14</ele>
        <time>2014-09-14T02:56:09Z</time>
      </trkpt>
      <trkpt lat="43.1548" lon="2.20643">
        <ele>410.14</ele>
        <time>2014-09-14T02:56:10Z</time>
      </trkpt>
      <trkpt lat="43.15437" lon="2.20615">
        <ele>407.74</ele>
        <time>2014-09-14T02:56:15Z</time>
      </trkpt>
      <trkpt lat="43.1543" lon="2.20607">
        <ele>407.74</ele>
        <time>2014-09-14T02:56:16Z</time>
      </trkpt>
      <trkpt lat="43.15423" lon="2.20598">
        <ele>407.74</ele>
        <time>2014-09-14T02:56:17Z</time>
      </trkpt>
      <trkpt lat="43.15417" lon="2.20588">
        <ele>407.26</ele>
        <time>2014-09-14T02:56:18Z</time>
      </trkpt>
      <trkpt lat="43.15411" lon="2.20578">
        <ele>407.26</ele>
        <time>2014-09-14T02:56:19Z</time>
      </trkpt>
      <trkpt lat="43.15406" lon="2.20566">
        <ele>406.77</ele>
        <time>2014-09-14T02:56:20Z</time>
      </trkpt>
      <trkpt lat="43.15402" lon="2.20554">
        <ele>406.29</ele>
        <time>2014-09-14T02:56:21Z</time>
      </trkpt>
      <trkpt lat="43.15399" lon="2.20542">
        <ele>406.29</ele>
        <time>2014-09-14T02:56:22Z</time>
      </trkpt>
      <trkpt lat="43.15397" lon="2.20529">
        <ele>405.81</ele>
        <time>2014-09-14T02:56:23Z</time>
      </trkpt>
      <trkpt lat="43.15397" lon="2.20515">
        <ele>405.33</ele>
        <time>2014-09-14T02:56:24Z</time>
      </trkpt>
      <trkpt lat="43.15397" lon="2.20502">
        <ele>404.37</ele>
        <time>2014-09-14T02:56:25Z</time>
      </trkpt>
      <trkpt lat="43.15398" lon="2.20488">
        <ele>403.89</ele>
        <time>2014-09-14T02:56:26Z</time>
      </trkpt>
      <trkpt lat="43.154" lon="2.20474">
        <ele>403.41</ele>
        <time>2014-09-14T02:56:27Z</time>
      </trkpt>
      <trkpt lat="43.15403" lon="2.20461">
        <ele>402.93</ele>
        <time>2014-09-14T02:56:28Z</time>
      </trkpt>
      <trkpt lat="43.15408" lon="2.20449">
        <ele>402.45</ele>
        <time>2014-09-14T02:56:29Z</time>
      </trkpt>
      <trkpt lat="43.15414" lon="2.20438">
        <ele>401.97</ele>
        <time>2014-09-14T02:56:30Z</time>
      </trkpt>
      <trkpt lat="43.1542" lon="2.20427">
        <ele>401.49</ele>
        <time>2014-09-14T02:56:31Z</time>
      </trkpt>
      <trkpt lat="43.15425" lon="2.20415">
        <ele>401.01</ele>
        <time>2014-09-14T02:56:32Z</time>
      </trkpt>
      <trkpt lat="43.15429" lon="2.20402">
        <ele>400.53</ele>
        <time>2014-09-14T02:56:33Z</time>
      </trkpt>
      <trkpt lat="43.15431" lon="2.20389">
        <ele>400.05</ele>
        <time>2014-09-14T02:56:34Z</time>
      </trkpt>
      <trkpt lat="43.15431" lon="2.20375">
        <ele>399.57</ele>
        <time>2014-09-14T02:56:35Z</time>
      </trkpt>
      <trkpt lat="43.15428" lon="2.20363">
        <ele>399.57</ele>
        <time>2014-09-14T02:56:36Z</time>
      </trkpt>
      <trkpt lat="43.15423" lon="2.20353">
        <ele>399.08</ele>
        <time>2014-09-14T02:56:37Z</time>
      </trkpt>
      <trkpt lat="43.15416" lon="2.20344">
        <ele>398.6</ele>
        <time>2014-09-14T02:56:38Z</time>
      </trkpt>
      <trkpt lat="43.15408" lon="2.20336">
        <ele>398.12</ele>
        <time>2014-09-14T02:56:39Z</time>
      </trkpt>
      <trkpt lat="43.154" lon="2.2033">
        <ele>398.12</ele>
        <time>2014-09-14T02:56:40Z</time>
      </trkpt>
      <trkpt lat="43.15391" lon="2.20323">
        <ele>397.64</ele>
        <time>2014-09-14T02:56:41Z</time>
      </trkpt>
      <trkpt lat="43.15382" lon="2.20318">
        <ele>397.16</ele>
        <time>2014-09-14T02:56:42Z</time>
      </trkpt>
      <trkpt lat="43.15373" lon="2.20315">
        <ele>396.68</ele>
        <time>2014-09-14T02:56:43Z</time>
      </trkpt>
      <trkpt lat="43.15363" lon="2.20312">
        <ele>396.2</ele>
        <time>2014-09-14T02:56:44Z</time>
      </trkpt>
      <trkpt lat="43.15334" lon="2.20302">
        <ele>395.24</ele>
        <time>2014-09-14T02:56:47Z</time>
      </trkpt>
      <trkpt lat="43.15328" lon="2.20295">
        <ele>394.76</ele>
        <time>2014-09-14T02:56:48Z</time>
      </trkpt>
      <trkpt lat="43.15321" lon="2.20283">
        <ele>393.8</ele>
        <time>2014-09-14T02:56:49Z</time>
      </trkpt>
      <trkpt lat="43.15319" lon="2.20271">
        <ele>393.32</ele>
        <time>2014-09-14T02:56:50Z</time>
      </trkpt>
      <trkpt lat="43.15319" lon="2.20258">
        <ele>392.84</ele>
        <time>2014-09-14T02:56:51Z</time>
      </trkpt>
      <trkpt lat="43.15321" lon="2.20244">
        <ele>392.36</ele>
        <time>2014-09-14T02:56:52Z</time>
      </trkpt>
      <trkpt lat="43.15325" lon="2.20231">
        <ele>391.87</ele>
        <time>2014-09-14T02:56:53Z</time>
      </trkpt>
      <trkpt lat="43.15328" lon="2.2022">
        <ele>391.39</ele>
        <time>2014-09-14T02:56:54Z</time>
      </trkpt>
      <trkpt lat="43.15346" lon="2.20171">
        <ele>389.95</ele>
        <time>2014-09-14T02:56:58Z</time>
      </trkpt>
      <trkpt lat="43.1536" lon="2.20139">
        <ele>388.99</ele>
        <time>2014-09-14T02:57:01Z</time>
      </trkpt>
      <trkpt lat="43.15362" lon="2.20125">
        <ele>388.99</ele>
        <time>2014-09-14T02:57:02Z</time>
      </trkpt>
      <trkpt lat="43.15363" lon="2.20113">
        <ele>388.51</ele>
        <time>2014-09-14T02:57:03Z</time>
      </trkpt>
      <trkpt lat="43.15364" lon="2.201">
        <ele>388.03</ele>
        <time>2014-09-14T02:57:04Z</time>
      </trkpt>
      <trkpt lat="43.15364" lon="2.20087">
        <ele>387.55</ele>
        <time>2014-09-14T02:57:05Z</time>
      </trkpt>
      <trkpt lat="43.15352" lon="2.1985">
        <ele>381.3</ele>
        <time>2014-09-14T02:57:24Z</time>
      </trkpt>
      <trkpt lat="43.15364" lon="2.19667">
        <ele>374.09</ele>
        <time>2014-09-14T02:57:40Z</time>
      </trkpt>
      <trkpt lat="43.15365" lon="2.19657">
        <ele>373.61</ele>
        <time>2014-09-14T02:57:41Z</time>
      </trkpt>
      <trkpt lat="43.15365" lon="2.19646">
        <ele>372.65</ele>
        <time>2014-09-14T02:57:42Z</time>
      </trkpt>
      <trkpt lat="43.15363" lon="2.19636">
        <ele>372.65</ele>
        <time>2014-09-14T02:57:43Z</time>
      </trkpt>
      <trkpt lat="43.15361" lon="2.19626">
        <ele>371.69</ele>
        <time>2014-09-14T02:57:44Z</time>
      </trkpt>
      <trkpt lat="43.15358" lon="2.19617">
        <ele>371.21</ele>
        <time>2014-09-14T02:57:45Z</time>
      </trkpt>
      <trkpt lat="43.15345" lon="2.19574">
        <ele>369.28</ele>
        <time>2014-09-14T02:57:49Z</time>
      </trkpt>
      <trkpt lat="43.15343" lon="2.19562">
        <ele>368.8</ele>
        <time>2014-09-14T02:57:50Z</time>
      </trkpt>
      <trkpt lat="43.15343" lon="2.1955">
        <ele>368.32</ele>
        <time>2014-09-14T02:57:51Z</time>
      </trkpt>
      <trkpt lat="43.15344" lon="2.19538">
        <ele>367.36</ele>
        <time>2014-09-14T02:57:52Z</time>
      </trkpt>
      <trkpt lat="43.15346" lon="2.19526">
        <ele>366.88</ele>
        <time>2014-09-14T02:57:53Z</time>
      </trkpt>
      <trkpt lat="43.15349" lon="2.19515">
        <ele>366.4</ele>
        <time>2014-09-14T02:57:54Z</time>
      </trkpt>
      <trkpt lat="43.15351" lon="2.19503">
        <ele>366.4</ele>
        <time>2014-09-14T02:57:55Z</time>
      </trkpt>
      <trkpt lat="43.15354" lon="2.19492">
        <ele>365.92</ele>
        <time>2014-09-14T02:57:56Z</time>
      </trkpt>
      <trkpt lat="43.15359" lon="2.19324">
        <ele>362.55</ele>
        <time>2014-09-14T02:58:10Z</time>
      </trkpt>
      <trkpt lat="43.15383" lon="2.19214">
        <ele>360.63</ele>
        <time>2014-09-14T02:58:20Z</time>
      </trkpt>
      <trkpt lat="43.15386" lon="2.19192">
        <ele>360.63</ele>
        <time>2014-09-14T02:58:22Z</time>
      </trkpt>
      <trkpt lat="43.15387" lon="2.19169">
        <ele>360.15</ele>
        <time>2014-09-14T02:58:24Z</time>
      </trkpt>
      <trkpt lat="43.15386" lon="2.19157">
        <ele>359.67</ele>
        <time>2014-09-14T02:58:25Z</time>
      </trkpt>
      <trkpt lat="43.15384" lon="2.19146">
        <ele>359.67</ele>
        <time>2014-09-14T02:58:26Z</time>
      </trkpt>
      <trkpt lat="43.15347" lon="2.19019">
        <ele>358.23</ele>
        <time>2014-09-14T02:58:39Z</time>
      </trkpt>
      <trkpt lat="43.15294" lon="2.18898">
        <ele>359.67</ele>
        <time>2014-09-14T02:58:54Z</time>
      </trkpt>
      <trkpt lat="43.15244" lon="2.18841">
        <ele>361.11</ele>
        <time>2014-09-14T02:59:04Z</time>
      </trkpt>
      <trkpt lat="43.15155" lon="2.18756">
        <ele>364</ele>
        <time>2014-09-14T02:59:21Z</time>
      </trkpt>
      <trkpt lat="43.15085" lon="2.18681">
        <ele>365.44</ele>
        <time>2014-09-14T02:59:35Z</time>
      </trkpt>
      <trkpt lat="43.15022" lon="2.18586">
        <ele>366.88</ele>
        <time>2014-09-14T02:59:50Z</time>
      </trkpt>
      <trkpt lat="43.15008" lon="2.1855">
        <ele>367.36</ele>
        <time>2014-09-14T02:59:55Z</time>
      </trkpt>
      <trkpt lat="43.15001" lon="2.18516">
        <ele>366.88</ele>
        <time>2014-09-14T02:59:59Z</time>
      </trkpt>
      <trkpt lat="43.15" lon="2.18407">
        <ele>366.88</ele>
        <time>2014-09-14T03:00:12Z</time>
      </trkpt>
      <trkpt lat="43.15009" lon="2.18264">
        <ele>365.44</ele>
        <time>2014-09-14T03:00:29Z</time>
      </trkpt>
      <trkpt lat="43.15058" lon="2.18159">
        <ele>363.52</ele>
        <time>2014-09-14T03:00:42Z</time>
      </trkpt>
      <trkpt lat="43.15099" lon="2.18084">
        <ele>360.63</ele>
        <time>2014-09-14T03:00:51Z</time>
      </trkpt>
      <trkpt lat="43.15104" lon="2.18077">
        <ele>360.15</ele>
        <time>2014-09-14T03:00:52Z</time>
      </trkpt>
      <trkpt lat="43.15111" lon="2.1807">
        <ele>359.67</ele>
        <time>2014-09-14T03:00:53Z</time>
      </trkpt>
      <trkpt lat="43.15117" lon="2.18064">
        <ele>359.67</ele>
        <time>2014-09-14T03:00:54Z</time>
      </trkpt>
      <trkpt lat="43.15124" lon="2.18059">
        <ele>359.19</ele>
        <time>2014-09-14T03:00:55Z</time>
      </trkpt>
      <trkpt lat="43.1513" lon="2.18054">
        <ele>358.71</ele>
        <time>2014-09-14T03:00:56Z</time>
      </trkpt>
      <trkpt lat="43.15138" lon="2.1805">
        <ele>358.71</ele>
        <time>2014-09-14T03:00:57Z</time>
      </trkpt>
      <trkpt lat="43.15173" lon="2.18026">
        <ele>358.23</ele>
        <time>2014-09-14T03:01:02Z</time>
      </trkpt>
      <trkpt lat="43.1518" lon="2.18018">
        <ele>357.75</ele>
        <time>2014-09-14T03:01:03Z</time>
      </trkpt>
      <trkpt lat="43.15184" lon="2.18007">
        <ele>357.75</ele>
        <time>2014-09-14T03:01:04Z</time>
      </trkpt>
      <trkpt lat="43.15188" lon="2.17997">
        <ele>357.27</ele>
        <time>2014-09-14T03:01:05Z</time>
      </trkpt>
      <trkpt lat="43.1519" lon="2.17986">
        <ele>357.27</ele>
        <time>2014-09-14T03:01:06Z</time>
      </trkpt>
      <trkpt lat="43.15194" lon="2.17975">
        <ele>356.79</ele>
        <time>2014-09-14T03:01:07Z</time>
      </trkpt>
      <trkpt lat="43.15199" lon="2.17966">
        <ele>356.79</ele>
        <time>2014-09-14T03:01:08Z</time>
      </trkpt>
      <trkpt lat="43.15206" lon="2.1796">
        <ele>356.31</ele>
        <time>2014-09-14T03:01:09Z</time>
      </trkpt>
      <trkpt lat="43.15213" lon="2.17957">
        <ele>356.31</ele>
        <time>2014-09-14T03:01:10Z</time>
      </trkpt>
      <trkpt lat="43.15222" lon="2.17956">
        <ele>356.31</ele>
        <time>2014-09-14T03:01:11Z</time>
      </trkpt>
      <trkpt lat="43.1523" lon="2.17957">
        <ele>355.83</ele>
        <time>2014-09-14T03:01:12Z</time>
      </trkpt>
      <trkpt lat="43.1524" lon="2.17955">
        <ele>355.34</ele>
        <time>2014-09-14T03:01:13Z</time>
      </trkpt>
      <trkpt lat="43.15249" lon="2.17953">
        <ele>355.34</ele>
        <time>2014-09-14T03:01:14Z</time>
      </trkpt>
      <trkpt lat="43.15255" lon="2.17947">
        <ele>354.86</ele>
        <time>2014-09-14T03:01:15Z</time>
      </trkpt>
      <trkpt lat="43.15266" lon="2.17927">
        <ele>353.9</ele>
        <time>2014-09-14T03:01:17Z</time>
      </trkpt>
      <trkpt lat="43.15268" lon="2.17917">
        <ele>353.42</ele>
        <time>2014-09-14T03:01:18Z</time>
      </trkpt>
      <trkpt lat="43.1527" lon="2.17905">
        <ele>352.46</ele>
        <time>2014-09-14T03:01:19Z</time>
      </trkpt>
      <trkpt lat="43.15271" lon="2.17894">
        <ele>351.98</ele>
        <time>2014-09-14T03:01:20Z</time>
      </trkpt>
      <trkpt lat="43.15269" lon="2.17885">
        <ele>351.02</ele>
        <time>2014-09-14T03:01:21Z</time>
      </trkpt>
      <trkpt lat="43.15267" lon="2.17875">
        <ele>350.54</ele>
        <time>2014-09-14T03:01:22Z</time>
      </trkpt>
      <trkpt lat="43.15255" lon="2.1784">
        <ele>349.1</ele>
        <time>2014-09-14T03:01:25Z</time>
      </trkpt>
      <trkpt lat="43.1525" lon="2.17801">
        <ele>347.65</ele>
        <time>2014-09-14T03:01:28Z</time>
      </trkpt>
      <trkpt lat="43.15251" lon="2.17791">
        <ele>347.65</ele>
        <time>2014-09-14T03:01:29Z</time>
      </trkpt>
      <trkpt lat="43.15255" lon="2.17781">
        <ele>347.17</ele>
        <time>2014-09-14T03:01:30Z</time>
      </trkpt>
      <trkpt lat="43.15259" lon="2.17774">
        <ele>346.69</ele>
        <time>2014-09-14T03:01:31Z</time>
      </trkpt>
      <trkpt lat="43.15266" lon="2.17768">
        <ele>346.21</ele>
        <time>2014-09-14T03:01:32Z</time>
      </trkpt>
      <trkpt lat="43.15274" lon="2.17763">
        <ele>345.73</ele>
        <time>2014-09-14T03:01:33Z</time>
      </trkpt>
      <trkpt lat="43.15312" lon="2.17732">
        <ele>344.29</ele>
        <time>2014-09-14T03:01:38Z</time>
      </trkpt>
      <trkpt lat="43.15319" lon="2.17725">
        <ele>343.81</ele>
        <time>2014-09-14T03:01:39Z</time>
      </trkpt>
      <trkpt lat="43.15324" lon="2.17716">
        <ele>343.33</ele>
        <time>2014-09-14T03:01:40Z</time>
      </trkpt>
      <trkpt lat="43.15329" lon="2.17705">
        <ele>342.85</ele>
        <time>2014-09-14T03:01:41Z</time>
      </trkpt>
      <trkpt lat="43.15332" lon="2.17694">
        <ele>342.37</ele>
        <time>2014-09-14T03:01:42Z</time>
      </trkpt>
      <trkpt lat="43.15335" lon="2.17681">
        <ele>341.89</ele>
        <time>2014-09-14T03:01:43Z</time>
      </trkpt>
      <trkpt lat="43.15336" lon="2.1767">
        <ele>341.41</ele>
        <time>2014-09-14T03:01:44Z</time>
      </trkpt>
      <trkpt lat="43.15337" lon="2.1765">
        <ele>339.96</ele>
        <time>2014-09-14T03:01:46Z</time>
      </trkpt>
      <trkpt lat="43.15337" lon="2.1764">
        <ele>339.48</ele>
        <time>2014-09-14T03:01:47Z</time>
      </trkpt>
      <trkpt lat="43.1533" lon="2.176">
        <ele>337.56</ele>
        <time>2014-09-14T03:01:51Z</time>
      </trkpt>
      <trkpt lat="43.15317" lon="2.1759">
        <ele>336.6</ele>
        <time>2014-09-14T03:01:52Z</time>
      </trkpt>
      <trkpt lat="43.15304" lon="2.17583">
        <ele>336.12</ele>
        <time>2014-09-14T03:01:53Z</time>
      </trkpt>
      <trkpt lat="43.15273" lon="2.17565">
        <ele>334.68</ele>
        <time>2014-09-14T03:01:56Z</time>
      </trkpt>
      <trkpt lat="43.15265" lon="2.17557">
        <ele>334.2</ele>
        <time>2014-09-14T03:01:57Z</time>
      </trkpt>
      <trkpt lat="43.1526" lon="2.17547">
        <ele>333.71</ele>
        <time>2014-09-14T03:01:58Z</time>
      </trkpt>
      <trkpt lat="43.15255" lon="2.17535">
        <ele>333.71</ele>
        <time>2014-09-14T03:01:59Z</time>
      </trkpt>
      <trkpt lat="43.15252" lon="2.17524">
        <ele>333.23</ele>
        <time>2014-09-14T03:02:00Z</time>
      </trkpt>
      <trkpt lat="43.15237" lon="2.17478">
        <ele>331.79</ele>
        <time>2014-09-14T03:02:04Z</time>
      </trkpt>
      <trkpt lat="43.15234" lon="2.17465">
        <ele>331.79</ele>
        <time>2014-09-14T03:02:05Z</time>
      </trkpt>
      <trkpt lat="43.15232" lon="2.17451">
        <ele>331.31</ele>
        <time>2014-09-14T03:02:06Z</time>
      </trkpt>
      <trkpt lat="43.15233" lon="2.17437">
        <ele>331.31</ele>
        <time>2014-09-14T03:02:07Z</time>
      </trkpt>
      <trkpt lat="43.15235" lon="2.17424">
        <ele>330.83</ele>
        <time>2014-09-14T03:02:08Z</time>
      </trkpt>
      <trkpt lat="43.15238" lon="2.17411">
        <ele>330.83</ele>
        <time>2014-09-14T03:02:09Z</time>
      </trkpt>
      <trkpt lat="43.15242" lon="2.174">
        <ele>330.35</ele>
        <time>2014-09-14T03:02:10Z</time>
      </trkpt>
      <trkpt lat="43.15247" lon="2.17389">
        <ele>329.87</ele>
        <time>2014-09-14T03:02:11Z</time>
      </trkpt>
      <trkpt lat="43.15253" lon="2.17378">
        <ele>329.39</ele>
        <time>2014-09-14T03:02:12Z</time>
      </trkpt>
      <trkpt lat="43.1529" lon="2.17296">
        <ele>325.54</ele>
        <time>2014-09-14T03:02:19Z</time>
      </trkpt>
      <trkpt lat="43.15293" lon="2.17282">
        <ele>325.06</ele>
        <time>2014-09-14T03:02:20Z</time>
      </trkpt>
      <trkpt lat="43.15293" lon="2.17266">
        <ele>324.58</ele>
        <time>2014-09-14T03:02:21Z</time>
      </trkpt>
      <trkpt lat="43.15291" lon="2.17252">
        <ele>324.1</ele>
        <time>2014-09-14T03:02:22Z</time>
      </trkpt>
      <trkpt lat="43.15288" lon="2.17238">
        <ele>323.62</ele>
        <time>2014-09-14T03:02:23Z</time>
      </trkpt>
      <trkpt lat="43.15284" lon="2.17224">
        <ele>323.62</ele>
        <time>2014-09-14T03:02:24Z</time>
      </trkpt>
      <trkpt lat="43.1528" lon="2.1721">
        <ele>323.14</ele>
        <time>2014-09-14T03:02:25Z</time>
      </trkpt>
      <trkpt lat="43.15255" lon="2.17138">
        <ele>322.66</ele>
        <time>2014-09-14T03:02:30Z</time>
      </trkpt>
      <trkpt lat="43.15254" lon="2.17124">
        <ele>322.66</ele>
        <time>2014-09-14T03:02:31Z</time>
      </trkpt>
      <trkpt lat="43.15253" lon="2.17109">
        <ele>322.18</ele>
        <time>2014-09-14T03:02:32Z</time>
      </trkpt>
      <trkpt lat="43.15254" lon="2.17095">
        <ele>321.7</ele>
        <time>2014-09-14T03:02:33Z</time>
      </trkpt>
      <trkpt lat="43.15256" lon="2.17081">
        <ele>321.7</ele>
        <time>2014-09-14T03:02:34Z</time>
      </trkpt>
      <trkpt lat="43.15258" lon="2.17068">
        <ele>321.22</ele>
        <time>2014-09-14T03:02:35Z</time>
      </trkpt>
      <trkpt lat="43.15288" lon="2.16872">
        <ele>317.85</ele>
        <time>2014-09-14T03:02:52Z</time>
      </trkpt>
      <trkpt lat="43.15315" lon="2.16737">
        <ele>315.45</ele>
        <time>2014-09-14T03:03:05Z</time>
      </trkpt>
      <trkpt lat="43.15319" lon="2.16728">
        <ele>315.45</ele>
        <time>2014-09-14T03:03:06Z</time>
      </trkpt>
      <trkpt lat="43.15324" lon="2.1672">
        <ele>315.45</ele>
        <time>2014-09-14T03:03:07Z</time>
      </trkpt>
      <trkpt lat="43.15329" lon="2.16712">
        <ele>315.45</ele>
        <time>2014-09-14T03:03:08Z</time>
      </trkpt>
      <trkpt lat="43.15335" lon="2.16706">
        <ele>315.45</ele>
        <time>2014-09-14T03:03:09Z</time>
      </trkpt>
      <trkpt lat="43.15341" lon="2.16701">
        <ele>315.45</ele>
        <time>2014-09-14T03:03:10Z</time>
      </trkpt>
      <trkpt lat="43.15348" lon="2.16697">
        <ele>315.45</ele>
        <time>2014-09-14T03:03:11Z</time>
      </trkpt>
      <trkpt lat="43.15355" lon="2.16694">
        <ele>315.45</ele>
        <time>2014-09-14T03:03:12Z</time>
      </trkpt>
      <trkpt lat="43.15381" lon="2.1668">
        <ele>315.45</ele>
        <time>2014-09-14T03:03:16Z</time>
      </trkpt>
      <trkpt lat="43.15387" lon="2.16675">
        <ele>315.45</ele>
        <time>2014-09-14T03:03:17Z</time>
      </trkpt>
      <trkpt lat="43.15391" lon="2.16668">
        <ele>315.45</ele>
        <time>2014-09-14T03:03:18Z</time>
      </trkpt>
      <trkpt lat="43.15396" lon="2.16659">
        <ele>314.97</ele>
        <time>2014-09-14T03:03:19Z</time>
      </trkpt>
      <trkpt lat="43.15399" lon="2.16649">
        <ele>314.97</ele>
        <time>2014-09-14T03:03:20Z</time>
      </trkpt>
      <trkpt lat="43.15402" lon="2.1664">
        <ele>314.49</ele>
        <time>2014-09-14T03:03:21Z</time>
      </trkpt>
      <trkpt lat="43.15403" lon="2.1663">
        <ele>314.49</ele>
        <time>2014-09-14T03:03:22Z</time>
      </trkpt>
      <trkpt lat="43.15403" lon="2.16619">
        <ele>314.01</ele>
        <time>2014-09-14T03:03:23Z</time>
      </trkpt>
      <trkpt lat="43.15402" lon="2.16609">
        <ele>313.53</ele>
        <time>2014-09-14T03:03:24Z</time>
      </trkpt>
      <trkpt lat="43.154" lon="2.16599">
        <ele>313.53</ele>
        <time>2014-09-14T03:03:25Z</time>
      </trkpt>
      <trkpt lat="43.15398" lon="2.16589">
        <ele>313.05</ele>
        <time>2014-09-14T03:03:26Z</time>
      </trkpt>
      <trkpt lat="43.15395" lon="2.16579">
        <ele>313.05</ele>
        <time>2014-09-14T03:03:27Z</time>
      </trkpt>
      <trkpt lat="43.15346" lon="2.16466">
        <ele>311.6</ele>
        <time>2014-09-14T03:03:40Z</time>
      </trkpt>
      <trkpt lat="43.15342" lon="2.16458">
        <ele>311.6</ele>
        <time>2014-09-14T03:03:41Z</time>
      </trkpt>
      <trkpt lat="43.15339" lon="2.16449">
        <ele>311.6</ele>
        <time>2014-09-14T03:03:42Z</time>
      </trkpt>
      <trkpt lat="43.15336" lon="2.16439">
        <ele>311.6</ele>
        <time>2014-09-14T03:03:43Z</time>
      </trkpt>
      <trkpt lat="43.15335" lon="2.16428">
        <ele>311.6</ele>
        <time>2014-09-14T03:03:44Z</time>
      </trkpt>
      <trkpt lat="43.15335" lon="2.16418">
        <ele>311.12</ele>
        <time>2014-09-14T03:03:45Z</time>
      </trkpt>
      <trkpt lat="43.15336" lon="2.16408">
        <ele>311.12</ele>
        <time>2014-09-14T03:03:46Z</time>
      </trkpt>
      <trkpt lat="43.15338" lon="2.16398">
        <ele>310.64</ele>
        <time>2014-09-14T03:03:47Z</time>
      </trkpt>
      <trkpt lat="43.1534" lon="2.16388">
        <ele>310.64</ele>
        <time>2014-09-14T03:03:48Z</time>
      </trkpt>
      <trkpt lat="43.15344" lon="2.16369">
        <ele>310.16</ele>
        <time>2014-09-14T03:03:50Z</time>
      </trkpt>
      <trkpt lat="43.15345" lon="2.1635">
        <ele>309.68</ele>
        <time>2014-09-14T03:03:52Z</time>
      </trkpt>
      <trkpt lat="43.15345" lon="2.1634">
        <ele>309.68</ele>
        <time>2014-09-14T03:03:53Z</time>
      </trkpt>
      <trkpt lat="43.15343" lon="2.16331">
        <ele>309.2</ele>
        <time>2014-09-14T03:03:54Z</time>
      </trkpt>
      <trkpt lat="43.15341" lon="2.16323">
        <ele>309.2</ele>
        <time>2014-09-14T03:03:55Z</time>
      </trkpt>
      <trkpt lat="43.15337" lon="2.16316">
        <ele>309.2</ele>
        <time>2014-09-14T03:03:56Z</time>
      </trkpt>
      <trkpt lat="43.15333" lon="2.1631">
        <ele>308.72</ele>
        <time>2014-09-14T03:03:57Z</time>
      </trkpt>
      <trkpt lat="43.15327" lon="2.16305">
        <ele>308.72</ele>
        <time>2014-09-14T03:03:58Z</time>
      </trkpt>
      <trkpt lat="43.1532" lon="2.16301">
        <ele>308.72</ele>
        <time>2014-09-14T03:03:59Z</time>
      </trkpt>
      <trkpt lat="43.15312" lon="2.16299">
        <ele>309.2</ele>
        <time>2014-09-14T03:04:00Z</time>
      </trkpt>
      <trkpt lat="43.15303" lon="2.16297">
        <ele>309.2</ele>
        <time>2014-09-14T03:04:01Z</time>
      </trkpt>
      <trkpt lat="43.15295" lon="2.16297">
        <ele>309.2</ele>
        <time>2014-09-14T03:04:02Z</time>
      </trkpt>
      <trkpt lat="43.15287" lon="2.16299">
        <ele>309.2</ele>
        <time>2014-09-14T03:04:03Z</time>
      </trkpt>
      <trkpt lat="43.15279" lon="2.16301">
        <ele>309.2</ele>
        <time>2014-09-14T03:04:04Z</time>
      </trkpt>
      <trkpt lat="43.15241" lon="2.16314">
        <ele>308.24</ele>
        <time>2014-09-14T03:04:09Z</time>
      </trkpt>
      <trkpt lat="43.15232" lon="2.16315">
        <ele>308.24</ele>
        <time>2014-09-14T03:04:10Z</time>
      </trkpt>
      <trkpt lat="43.15224" lon="2.16314">
        <ele>308.24</ele>
        <time>2014-09-14T03:04:11Z</time>
      </trkpt>
      <trkpt lat="43.15216" lon="2.16313">
        <ele>308.24</ele>
        <time>2014-09-14T03:04:12Z</time>
      </trkpt>
      <trkpt lat="43.15208" lon="2.1631">
        <ele>308.24</ele>
        <time>2014-09-14T03:04:13Z</time>
      </trkpt>
      <trkpt lat="43.15201" lon="2.16306">
        <ele>308.24</ele>
        <time>2014-09-14T03:04:14Z</time>
      </trkpt>
      <trkpt lat="43.15195" lon="2.16301">
        <ele>307.76</ele>
        <time>2014-09-14T03:04:15Z</time>
      </trkpt>
      <trkpt lat="43.15189" lon="2.16295">
        <ele>307.76</ele>
        <time>2014-09-14T03:04:16Z</time>
      </trkpt>
      <trkpt lat="43.15123" lon="2.16213">
        <ele>305.84</ele>
        <time>2014-09-14T03:04:28Z</time>
      </trkpt>
      <trkpt lat="43.15094" lon="2.16088">
        <ele>303.91</ele>
        <time>2014-09-14T03:04:41Z</time>
      </trkpt>
      <trkpt lat="43.15088" lon="2.15996">
        <ele>302.47</ele>
        <time>2014-09-14T03:04:50Z</time>
      </trkpt>
      <trkpt lat="43.15122" lon="2.15859">
        <ele>301.03</ele>
        <time>2014-09-14T03:05:04Z</time>
      </trkpt>
      <trkpt lat="43.15125" lon="2.1584">
        <ele>301.03</ele>
        <time>2014-09-14T03:05:06Z</time>
      </trkpt>
      <trkpt lat="43.15126" lon="2.1579">
        <ele>301.03</ele>
        <time>2014-09-14T03:05:11Z</time>
      </trkpt>
      <trkpt lat="43.15118" lon="2.15731">
        <ele>300.07</ele>
        <time>2014-09-14T03:05:17Z</time>
      </trkpt>
      <trkpt lat="43.15119" lon="2.15721">
        <ele>300.07</ele>
        <time>2014-09-14T03:05:18Z</time>
      </trkpt>
      <trkpt lat="43.15119" lon="2.15711">
        <ele>299.59</ele>
        <time>2014-09-14T03:05:19Z</time>
      </trkpt>
      <trkpt lat="43.15121" lon="2.15701">
        <ele>299.59</ele>
        <time>2014-09-14T03:05:20Z</time>
      </trkpt>
      <trkpt lat="43.15124" lon="2.15692">
        <ele>299.11</ele>
        <time>2014-09-14T03:05:21Z</time>
      </trkpt>
      <trkpt lat="43.15126" lon="2.15682">
        <ele>299.11</ele>
        <time>2014-09-14T03:05:22Z</time>
      </trkpt>
      <trkpt lat="43.15133" lon="2.15664">
        <ele>298.63</ele>
        <time>2014-09-14T03:05:24Z</time>
      </trkpt>
      <trkpt lat="43.15137" lon="2.15656">
        <ele>298.63</ele>
        <time>2014-09-14T03:05:25Z</time>
      </trkpt>
      <trkpt lat="43.15141" lon="2.15648">
        <ele>298.15</ele>
        <time>2014-09-14T03:05:26Z</time>
      </trkpt>
      <trkpt lat="43.15146" lon="2.15641">
        <ele>298.15</ele>
        <time>2014-09-14T03:05:27Z</time>
      </trkpt>
      <trkpt lat="43.15151" lon="2.15635">
        <ele>298.15</ele>
        <time>2014-09-14T03:05:28Z</time>
      </trkpt>
      <trkpt lat="43.15226" lon="2.15546">
        <ele>296.7</ele>
        <time>2014-09-14T03:05:42Z</time>
      </trkpt>
      <trkpt lat="43.15232" lon="2.15542">
        <ele>296.7</ele>
        <time>2014-09-14T03:05:43Z</time>
      </trkpt>
      <trkpt lat="43.15239" lon="2.15539">
        <ele>296.7</ele>
        <time>2014-09-14T03:05:44Z</time>
      </trkpt>
      <trkpt lat="43.15246" lon="2.15536">
        <ele>297.18</ele>
        <time>2014-09-14T03:05:45Z</time>
      </trkpt>
      <trkpt lat="43.15253" lon="2.15534">
        <ele>296.7</ele>
        <time>2014-09-14T03:05:46Z</time>
      </trkpt>
      <trkpt lat="43.1526" lon="2.1553">
        <ele>296.7</ele>
        <time>2014-09-14T03:05:47Z</time>
      </trkpt>
      <trkpt lat="43.15266" lon="2.15525">
        <ele>296.7</ele>
        <time>2014-09-14T03:05:48Z</time>
      </trkpt>
      <trkpt lat="43.15271" lon="2.15519">
        <ele>296.7</ele>
        <time>2014-09-14T03:05:49Z</time>
      </trkpt>
      <trkpt lat="43.15275" lon="2.15512">
        <ele>296.22</ele>
        <time>2014-09-14T03:05:50Z</time>
      </trkpt>
      <trkpt lat="43.15278" lon="2.15504">
        <ele>296.22</ele>
        <time>2014-09-14T03:05:51Z</time>
      </trkpt>
      <trkpt lat="43.1528" lon="2.15495">
        <ele>295.74</ele>
        <time>2014-09-14T03:05:52Z</time>
      </trkpt>
      <trkpt lat="43.15281" lon="2.15486">
        <ele>295.74</ele>
        <time>2014-09-14T03:05:53Z</time>
      </trkpt>
      <trkpt lat="43.15282" lon="2.15477">
        <ele>295.26</ele>
        <time>2014-09-14T03:05:54Z</time>
      </trkpt>
      <trkpt lat="43.1528" lon="2.15467">
        <ele>294.78</ele>
        <time>2014-09-14T03:05:55Z</time>
      </trkpt>
      <trkpt lat="43.15278" lon="2.15458">
        <ele>294.3</ele>
        <time>2014-09-14T03:05:56Z</time>
      </trkpt>
      <trkpt lat="43.15271" lon="2.15428">
        <ele>294.3</ele>
        <time>2014-09-14T03:05:59Z</time>
      </trkpt>
      <trkpt lat="43.15267" lon="2.15419">
        <ele>294.3</ele>
        <time>2014-09-14T03:06:00Z</time>
      </trkpt>
      <trkpt lat="43.15261" lon="2.15412">
        <ele>294.3</ele>
        <time>2014-09-14T03:06:01Z</time>
      </trkpt>
      <trkpt lat="43.15255" lon="2.15405">
        <ele>294.3</ele>
        <time>2014-09-14T03:06:02Z</time>
      </trkpt>
      <trkpt lat="43.15248" lon="2.15401">
        <ele>294.3</ele>
        <time>2014-09-14T03:06:03Z</time>
      </trkpt>
      <trkpt lat="43.15241" lon="2.15398">
        <ele>294.78</ele>
        <time>2014-09-14T03:06:04Z</time>
      </trkpt>
      <trkpt lat="43.15232" lon="2.15396">
        <ele>294.78</ele>
        <time>2014-09-14T03:06:05Z</time>
      </trkpt>
      <trkpt lat="43.15224" lon="2.15394">
        <ele>294.78</ele>
        <time>2014-09-14T03:06:06Z</time>
      </trkpt>
      <trkpt lat="43.152" lon="2.15387">
        <ele>294.3</ele>
        <time>2014-09-14T03:06:09Z</time>
      </trkpt>
      <trkpt lat="43.15193" lon="2.15382">
        <ele>294.3</ele>
        <time>2014-09-14T03:06:10Z</time>
      </trkpt>
      <trkpt lat="43.15186" lon="2.15376">
        <ele>294.3</ele>
        <time>2014-09-14T03:06:11Z</time>
      </trkpt>
      <trkpt lat="43.1518" lon="2.15368">
        <ele>294.3</ele>
        <time>2014-09-14T03:06:12Z</time>
      </trkpt>
      <trkpt lat="43.15175" lon="2.15361">
        <ele>294.3</ele>
        <time>2014-09-14T03:06:13Z</time>
      </trkpt>
      <trkpt lat="43.1517" lon="2.15353">
        <ele>294.3</ele>
        <time>2014-09-14T03:06:14Z</time>
      </trkpt>
      <trkpt lat="43.15143" lon="2.15304">
        <ele>294.3</ele>
        <time>2014-09-14T03:06:20Z</time>
      </trkpt>
      <trkpt lat="43.15139" lon="2.15294">
        <ele>294.3</ele>
        <time>2014-09-14T03:06:21Z</time>
      </trkpt>
      <trkpt lat="43.15136" lon="2.15283">
        <ele>294.3</ele>
        <time>2014-09-14T03:06:22Z</time>
      </trkpt>
      <trkpt lat="43.15135" lon="2.15274">
        <ele>293.82</ele>
        <time>2014-09-14T03:06:23Z</time>
      </trkpt>
      <trkpt lat="43.15134" lon="2.15263">
        <ele>293.34</ele>
        <time>2014-09-14T03:06:24Z</time>
      </trkpt>
      <trkpt lat="43.15135" lon="2.15252">
        <ele>293.34</ele>
        <time>2014-09-14T03:06:25Z</time>
      </trkpt>
      <trkpt lat="43.15137" lon="2.15242">
        <ele>292.86</ele>
        <time>2014-09-14T03:06:26Z</time>
      </trkpt>
      <trkpt lat="43.15139" lon="2.15232">
        <ele>292.86</ele>
        <time>2014-09-14T03:06:27Z</time>
      </trkpt>
      <trkpt lat="43.15156" lon="2.15144">
        <ele>290.94</ele>
        <time>2014-09-14T03:06:36Z</time>
      </trkpt>
      <trkpt lat="43.15156" lon="2.15134">
        <ele>290.94</ele>
        <time>2014-09-14T03:06:37Z</time>
      </trkpt>
      <trkpt lat="43.15156" lon="2.15124">
        <ele>290.94</ele>
        <time>2014-09-14T03:06:38Z</time>
      </trkpt>
      <trkpt lat="43.15154" lon="2.15114">
        <ele>290.94</ele>
        <time>2014-09-14T03:06:39Z</time>
      </trkpt>
      <trkpt lat="43.15151" lon="2.15105">
        <ele>290.94</ele>
        <time>2014-09-14T03:06:40Z</time>
      </trkpt>
      <trkpt lat="43.15148" lon="2.15096">
        <ele>290.94</ele>
        <time>2014-09-14T03:06:41Z</time>
      </trkpt>
      <trkpt lat="43.15143" lon="2.15087">
        <ele>290.94</ele>
        <time>2014-09-14T03:06:42Z</time>
      </trkpt>
      <trkpt lat="43.15139" lon="2.1508">
        <ele>290.94</ele>
        <time>2014-09-14T03:06:43Z</time>
      </trkpt>
      <trkpt lat="43.15134" lon="2.15073">
        <ele>290.94</ele>
        <time>2014-09-14T03:06:44Z</time>
      </trkpt>
      <trkpt lat="43.15129" lon="2.15066">
        <ele>290.94</ele>
        <time>2014-09-14T03:06:45Z</time>
      </trkpt>
      <trkpt lat="43.15123" lon="2.15059">
        <ele>290.94</ele>
        <time>2014-09-14T03:06:46Z</time>
      </trkpt>
      <trkpt lat="43.15016" lon="2.14944">
        <ele>289.01</ele>
        <time>2014-09-14T03:07:05Z</time>
      </trkpt>
      <trkpt lat="43.1496" lon="2.14847">
        <ele>288.05</ele>
        <time>2014-09-14T03:07:18Z</time>
      </trkpt>
      <trkpt lat="43.14951" lon="2.14819">
        <ele>287.57</ele>
        <time>2014-09-14T03:07:21Z</time>
      </trkpt>
      <trkpt lat="43.14947" lon="2.14811">
        <ele>287.09</ele>
        <time>2014-09-14T03:07:22Z</time>
      </trkpt>
      <trkpt lat="43.14942" lon="2.14803">
        <ele>287.09</ele>
        <time>2014-09-14T03:07:23Z</time>
      </trkpt>
      <trkpt lat="43.14936" lon="2.14796">
        <ele>287.09</ele>
        <time>2014-09-14T03:07:24Z</time>
      </trkpt>
      <trkpt lat="43.14931" lon="2.1479">
        <ele>286.61</ele>
        <time>2014-09-14T03:07:25Z</time>
      </trkpt>
      <trkpt lat="43.14913" lon="2.14768">
        <ele>286.13</ele>
        <time>2014-09-14T03:07:28Z</time>
      </trkpt>
      <trkpt lat="43.14908" lon="2.14759">
        <ele>285.65</ele>
        <time>2014-09-14T03:07:29Z</time>
      </trkpt>
      <trkpt lat="43.14904" lon="2.14749">
        <ele>285.17</ele>
        <time>2014-09-14T03:07:30Z</time>
      </trkpt>
      <trkpt lat="43.14901" lon="2.14738">
        <ele>284.69</ele>
        <time>2014-09-14T03:07:31Z</time>
      </trkpt>
      <trkpt lat="43.14898" lon="2.14727">
        <ele>284.21</ele>
        <time>2014-09-14T03:07:32Z</time>
      </trkpt>
      <trkpt lat="43.14896" lon="2.14715">
        <ele>284.21</ele>
        <time>2014-09-14T03:07:33Z</time>
      </trkpt>
      <trkpt lat="43.14895" lon="2.14703">
        <ele>283.73</ele>
        <time>2014-09-14T03:07:34Z</time>
      </trkpt>
      <trkpt lat="43.14886" lon="2.14656">
        <ele>281.8</ele>
        <time>2014-09-14T03:07:38Z</time>
      </trkpt>
      <trkpt lat="43.14882" lon="2.14645">
        <ele>281.32</ele>
        <time>2014-09-14T03:07:39Z</time>
      </trkpt>
      <trkpt lat="43.14876" lon="2.14636">
        <ele>280.84</ele>
        <time>2014-09-14T03:07:40Z</time>
      </trkpt>
      <trkpt lat="43.14868" lon="2.1463">
        <ele>280.84</ele>
        <time>2014-09-14T03:07:41Z</time>
      </trkpt>
      <trkpt lat="43.14859" lon="2.14627">
        <ele>280.36</ele>
        <time>2014-09-14T03:07:42Z</time>
      </trkpt>
      <trkpt lat="43.1485" lon="2.14627">
        <ele>279.88</ele>
        <time>2014-09-14T03:07:43Z</time>
      </trkpt>
      <trkpt lat="43.14841" lon="2.14629">
        <ele>279.88</ele>
        <time>2014-09-14T03:07:44Z</time>
      </trkpt>
      <trkpt lat="43.14833" lon="2.14632">
        <ele>279.4</ele>
        <time>2014-09-14T03:07:45Z</time>
      </trkpt>
      <trkpt lat="43.14815" lon="2.14635">
        <ele>278.92</ele>
        <time>2014-09-14T03:07:47Z</time>
      </trkpt>
      <trkpt lat="43.14806" lon="2.14635">
        <ele>278.92</ele>
        <time>2014-09-14T03:07:48Z</time>
      </trkpt>
      <trkpt lat="43.14798" lon="2.14634">
        <ele>278.44</ele>
        <time>2014-09-14T03:07:49Z</time>
      </trkpt>
      <trkpt lat="43.14789" lon="2.14631">
        <ele>277.96</ele>
        <time>2014-09-14T03:07:50Z</time>
      </trkpt>
      <trkpt lat="43.14781" lon="2.14627">
        <ele>277.96</ele>
        <time>2014-09-14T03:07:51Z</time>
      </trkpt>
      <trkpt lat="43.14772" lon="2.14622">
        <ele>277.48</ele>
        <time>2014-09-14T03:07:52Z</time>
      </trkpt>
      <trkpt lat="43.14755" lon="2.14614">
        <ele>277</ele>
        <time>2014-09-14T03:07:54Z</time>
      </trkpt>
      <trkpt lat="43.14746" lon="2.14614">
        <ele>276.52</ele>
        <time>2014-09-14T03:07:55Z</time>
      </trkpt>
      <trkpt lat="43.14737" lon="2.14615">
        <ele>276.52</ele>
        <time>2014-09-14T03:07:56Z</time>
      </trkpt>
      <trkpt lat="43.14719" lon="2.14618">
        <ele>275.56</ele>
        <time>2014-09-14T03:07:58Z</time>
      </trkpt>
      <trkpt lat="43.1471" lon="2.14617">
        <ele>275.07</ele>
        <time>2014-09-14T03:07:59Z</time>
      </trkpt>
      <trkpt lat="43.14702" lon="2.14612">
        <ele>275.07</ele>
        <time>2014-09-14T03:08:00Z</time>
      </trkpt>
      <trkpt lat="43.14696" lon="2.14602">
        <ele>274.59</ele>
        <time>2014-09-14T03:08:01Z</time>
      </trkpt>
      <trkpt lat="43.14692" lon="2.1459">
        <ele>274.59</ele>
        <time>2014-09-14T03:08:02Z</time>
      </trkpt>
      <trkpt lat="43.14691" lon="2.1458">
        <ele>274.11</ele>
        <time>2014-09-14T03:08:03Z</time>
      </trkpt>
      <trkpt lat="43.1469" lon="2.14569">
        <ele>274.11</ele>
        <time>2014-09-14T03:08:04Z</time>
      </trkpt>
      <trkpt lat="43.14689" lon="2.14557">
        <ele>273.63</ele>
        <time>2014-09-14T03:08:05Z</time>
      </trkpt>
      <trkpt lat="43.14684" lon="2.14359">
        <ele>266.9</ele>
        <time>2014-09-14T03:08:21Z</time>
      </trkpt>
      <trkpt lat="43.1468" lon="2.14187">
        <ele>262.58</ele>
        <time>2014-09-14T03:08:36Z</time>
      </trkpt>
      <trkpt lat="43.14647" lon="2.14044">
        <ele>259.21</ele>
        <time>2014-09-14T03:08:50Z</time>
      </trkpt>
      <trkpt lat="43.14643" lon="2.14023">
        <ele>258.73</ele>
        <time>2014-09-14T03:08:52Z</time>
      </trkpt>
      <trkpt lat="43.14642" lon="2.14013">
        <ele>258.25</ele>
        <time>2014-09-14T03:08:53Z</time>
      </trkpt>
      <trkpt lat="43.14642" lon="2.14002">
        <ele>258.25</ele>
        <time>2014-09-14T03:08:54Z</time>
      </trkpt>
      <trkpt lat="43.14643" lon="2.13992">
        <ele>257.77</ele>
        <time>2014-09-14T03:08:55Z</time>
      </trkpt>
      <trkpt lat="43.14644" lon="2.13982">
        <ele>257.29</ele>
        <time>2014-09-14T03:08:56Z</time>
      </trkpt>
      <trkpt lat="43.14647" lon="2.13972">
        <ele>257.29</ele>
        <time>2014-09-14T03:08:57Z</time>
      </trkpt>
      <trkpt lat="43.1465" lon="2.13963">
        <ele>256.81</ele>
        <time>2014-09-14T03:08:58Z</time>
      </trkpt>
      <trkpt lat="43.14653" lon="2.13955">
        <ele>256.81</ele>
        <time>2014-09-14T03:08:59Z</time>
      </trkpt>
      <trkpt lat="43.14696" lon="2.13843">
        <ele>255.85</ele>
        <time>2014-09-14T03:09:12Z</time>
      </trkpt>
      <trkpt lat="43.14697" lon="2.13836">
        <ele>255.85</ele>
        <time>2014-09-14T03:09:13Z</time>
      </trkpt>
      <trkpt lat="43.14698" lon="2.13828">
        <ele>255.85</ele>
        <time>2014-09-14T03:09:14Z</time>
      </trkpt>
      <trkpt lat="43.14698" lon="2.1382">
        <ele>255.85</ele>
        <time>2014-09-14T03:09:15Z</time>
      </trkpt>
      <trkpt lat="43.14697" lon="2.13813">
        <ele>255.85</ele>
        <time>2014-09-14T03:09:16Z</time>
      </trkpt>
      <trkpt lat="43.14695" lon="2.13806">
        <ele>255.85</ele>
        <time>2014-09-14T03:09:17Z</time>
      </trkpt>
      <trkpt lat="43.14692" lon="2.13799">
        <ele>255.37</ele>
        <time>2014-09-14T03:09:18Z</time>
      </trkpt>
      <trkpt lat="43.14689" lon="2.13795">
        <ele>255.37</ele>
        <time>2014-09-14T03:09:19Z</time>
      </trkpt>
      <trkpt lat="43.14687" lon="2.1379">
        <ele>255.37</ele>
        <time>2014-09-14T03:09:20Z</time>
      </trkpt>
      <trkpt lat="43.14671" lon="2.13744">
        <ele>254.89</ele>
        <time>2014-09-14T03:09:32Z</time>
      </trkpt>
      <trkpt lat="43.14666" lon="2.13712">
        <ele>253.93</ele>
        <time>2014-09-14T03:09:37Z</time>
      </trkpt>
      <trkpt lat="43.14664" lon="2.1369">
        <ele>252.96</ele>
        <time>2014-09-14T03:09:40Z</time>
      </trkpt>
      <trkpt lat="43.14663" lon="2.13681">
        <ele>252.48</ele>
        <time>2014-09-14T03:09:41Z</time>
      </trkpt>
      <trkpt lat="43.14661" lon="2.13672">
        <ele>252</ele>
        <time>2014-09-14T03:09:42Z</time>
      </trkpt>
      <trkpt lat="43.14618" lon="2.13539">
        <ele>244.79</ele>
        <time>2014-09-14T03:09:54Z</time>
      </trkpt>
      <trkpt lat="43.14555" lon="2.13389">
        <ele>239.99</ele>
        <time>2014-09-14T03:10:06Z</time>
      </trkpt>
      <trkpt lat="43.14515" lon="2.13246">
        <ele>235.18</ele>
        <time>2014-09-14T03:10:15Z</time>
      </trkpt>
      <trkpt lat="43.145" lon="2.12995">
        <ele>227.49</ele>
        <time>2014-09-14T03:10:30Z</time>
      </trkpt>
      <trkpt lat="43.14473" lon="2.12745">
        <ele>220.28</ele>
        <time>2014-09-14T03:10:45Z</time>
      </trkpt>
      <trkpt lat="43.14413" lon="2.12593">
        <ele>215.95</ele>
        <time>2014-09-14T03:10:55Z</time>
      </trkpt>
      <trkpt lat="43.14357" lon="2.12452">
        <ele>216.43</ele>
        <time>2014-09-14T03:11:08Z</time>
      </trkpt>
      <trkpt lat="43.143" lon="2.12309">
        <ele>218.36</ele>
        <time>2014-09-14T03:11:24Z</time>
      </trkpt>
      <trkpt lat="43.14297" lon="2.12301">
        <ele>218.36</ele>
        <time>2014-09-14T03:11:25Z</time>
      </trkpt>
      <trkpt lat="43.14252" lon="2.12191">
        <ele>221.24</ele>
        <time>2014-09-14T03:11:40Z</time>
      </trkpt>
      <trkpt lat="43.14205" lon="2.12071">
        <ele>225.09</ele>
        <time>2014-09-14T03:12:00Z</time>
      </trkpt>
      <trkpt lat="43.14196" lon="2.12047">
        <ele>226.05</ele>
        <time>2014-09-14T03:12:06Z</time>
      </trkpt>
      <trkpt lat="43.14194" lon="2.12045">
        <ele>226.05</ele>
        <time>2014-09-14T03:12:07Z</time>
      </trkpt>
      <trkpt lat="43.14192" lon="2.12044">
        <ele>226.53</ele>
        <time>2014-09-14T03:12:08Z</time>
      </trkpt>
      <trkpt lat="43.14188" lon="2.12045">
        <ele>226.53</ele>
        <time>2014-09-14T03:12:09Z</time>
      </trkpt>
      <trkpt lat="43.14185" lon="2.12047">
        <ele>226.53</ele>
        <time>2014-09-14T03:12:10Z</time>
      </trkpt>
      <trkpt lat="43.14182" lon="2.12049">
        <ele>227.01</ele>
        <time>2014-09-14T03:12:11Z</time>
      </trkpt>
      <trkpt lat="43.14171" lon="2.12055">
        <ele>227.01</ele>
        <time>2014-09-14T03:12:14Z</time>
      </trkpt>
      <trkpt lat="43.14156" lon="2.12059">
        <ele>226.53</ele>
        <time>2014-09-14T03:12:17Z</time>
      </trkpt>
      <trkpt lat="43.14151" lon="2.12059">
        <ele>226.53</ele>
        <time>2014-09-14T03:12:18Z</time>
      </trkpt>
      <trkpt lat="43.14145" lon="2.12059">
        <ele>226.05</ele>
        <time>2014-09-14T03:12:19Z</time>
      </trkpt>
      <trkpt lat="43.14139" lon="2.1206">
        <ele>225.57</ele>
        <time>2014-09-14T03:12:20Z</time>
      </trkpt>
      <trkpt lat="43.14133" lon="2.12059">
        <ele>225.09</ele>
        <time>2014-09-14T03:12:21Z</time>
      </trkpt>
      <trkpt lat="43.14126" lon="2.12057">
        <ele>224.12</ele>
        <time>2014-09-14T03:12:22Z</time>
      </trkpt>
      <trkpt lat="43.14119" lon="2.12055">
        <ele>223.64</ele>
        <time>2014-09-14T03:12:23Z</time>
      </trkpt>
      <trkpt lat="43.14034" lon="2.12008">
        <ele>215.47</ele>
        <time>2014-09-14T03:12:33Z</time>
      </trkpt>
      <trkpt lat="43.13905" lon="2.11936">
        <ele>205.38</ele>
        <time>2014-09-14T03:12:46Z</time>
      </trkpt>
      <trkpt lat="43.13768" lon="2.1188">
        <ele>202.01</ele>
        <time>2014-09-14T03:13:00Z</time>
      </trkpt>
      <trkpt lat="43.13647" lon="2.11841">
        <ele>203.46</ele>
        <time>2014-09-14T03:13:16Z</time>
      </trkpt>
      <trkpt lat="43.13527" lon="2.11818">
        <ele>204.9</ele>
        <time>2014-09-14T03:13:34Z</time>
      </trkpt>
      <trkpt lat="43.13502" lon="2.11815">
        <ele>204.9</ele>
        <time>2014-09-14T03:13:38Z</time>
      </trkpt>
      <trkpt lat="43.13496" lon="2.11812">
        <ele>204.9</ele>
        <time>2014-09-14T03:13:39Z</time>
      </trkpt>
      <trkpt lat="43.13491" lon="2.11808">
        <ele>205.38</ele>
        <time>2014-09-14T03:13:40Z</time>
      </trkpt>
      <trkpt lat="43.13485" lon="2.11803">
        <ele>205.38</ele>
        <time>2014-09-14T03:13:41Z</time>
      </trkpt>
      <trkpt lat="43.13481" lon="2.11798">
        <ele>205.38</ele>
        <time>2014-09-14T03:13:42Z</time>
      </trkpt>
      <trkpt lat="43.13476" lon="2.11792">
        <ele>205.38</ele>
        <time>2014-09-14T03:13:43Z</time>
      </trkpt>
      <trkpt lat="43.13472" lon="2.11784">
        <ele>205.38</ele>
        <time>2014-09-14T03:13:44Z</time>
      </trkpt>
      <trkpt lat="43.13469" lon="2.1178">
        <ele>205.86</ele>
        <time>2014-09-14T03:13:45Z</time>
      </trkpt>
      <trkpt lat="43.13402" lon="2.11686">
        <ele>208.26</ele>
        <time>2014-09-14T03:14:00Z</time>
      </trkpt>
      <trkpt lat="43.13399" lon="2.1168">
        <ele>208.26</ele>
        <time>2014-09-14T03:14:01Z</time>
      </trkpt>
      <trkpt lat="43.13398" lon="2.11671">
        <ele>208.26</ele>
        <time>2014-09-14T03:14:02Z</time>
      </trkpt>
      <trkpt lat="43.13399" lon="2.11661">
        <ele>208.74</ele>
        <time>2014-09-14T03:14:03Z</time>
      </trkpt>
      <trkpt lat="43.13401" lon="2.11655">
        <ele>208.74</ele>
        <time>2014-09-14T03:14:04Z</time>
      </trkpt>
      <trkpt lat="43.13403" lon="2.11649">
        <ele>209.22</ele>
        <time>2014-09-14T03:14:05Z</time>
      </trkpt>
      <trkpt lat="43.13442" lon="2.11527">
        <ele>210.67</ele>
        <time>2014-09-14T03:14:22Z</time>
      </trkpt>
      <trkpt lat="43.13477" lon="2.11402">
        <ele>214.51</ele>
        <time>2014-09-14T03:14:40Z</time>
      </trkpt>
      <trkpt lat="43.13489" lon="2.11357">
        <ele>215.95</ele>
        <time>2014-09-14T03:14:47Z</time>
      </trkpt>
      <trkpt lat="43.13496" lon="2.1124">
        <ele>219.32</ele>
        <time>2014-09-14T03:15:03Z</time>
      </trkpt>
      <trkpt lat="43.13511" lon="2.11129">
        <ele>215.95</ele>
        <time>2014-09-14T03:15:17Z</time>
      </trkpt>
      <trkpt lat="43.13518" lon="2.1111">
        <ele>215.95</ele>
        <time>2014-09-14T03:15:20Z</time>
      </trkpt>
      <trkpt lat="43.1353" lon="2.11084">
        <ele>215.95</ele>
        <time>2014-09-14T03:15:26Z</time>
      </trkpt>
      <trkpt lat="43.13532" lon="2.11083">
        <ele>215.47</ele>
        <time>2014-09-14T03:15:38Z</time>
      </trkpt>
      <trkpt lat="43.13531" lon="2.11086">
        <ele>214.51</ele>
        <time>2014-09-14T03:15:57Z</time>
      </trkpt>
      <trkpt lat="43.13533" lon="2.11086">
        <ele>214.51</ele>
        <time>2014-09-14T03:16:17Z</time>
      </trkpt>
      <trkpt lat="43.13533" lon="2.11086">
        <ele>214.03</ele>
        <time>2014-09-14T03:16:31Z</time>
      </trkpt>
      <trkpt lat="43.13533" lon="2.11086">
        <ele>214.51</ele>
        <time>2014-09-14T03:17:06Z</time>
      </trkpt>
      <trkpt lat="43.13532" lon="2.11082">
        <ele>214.99</ele>
        <time>2014-09-14T03:17:37Z</time>
      </trkpt>
      <trkpt lat="43.13544" lon="2.11058">
        <ele>213.55</ele>
        <time>2014-09-14T03:17:49Z</time>
      </trkpt>
      <trkpt lat="43.13581" lon="2.10987">
        <ele>214.03</ele>
        <time>2014-09-14T03:18:03Z</time>
      </trkpt>
      <trkpt lat="43.13628" lon="2.10887">
        <ele>213.55</ele>
        <time>2014-09-14T03:18:19Z</time>
      </trkpt>
      <trkpt lat="43.13682" lon="2.10751">
        <ele>214.03</ele>
        <time>2014-09-14T03:18:39Z</time>
      </trkpt>
      <trkpt lat="43.13722" lon="2.10607">
        <ele>214.51</ele>
        <time>2014-09-14T03:18:58Z</time>
      </trkpt>
      <trkpt lat="43.1374" lon="2.10485">
        <ele>215.47</ele>
        <time>2014-09-14T03:19:14Z</time>
      </trkpt>
      <trkpt lat="43.13755" lon="2.10349">
        <ele>216.91</ele>
        <time>2014-09-14T03:19:32Z</time>
      </trkpt>
      <trkpt lat="43.13772" lon="2.10198">
        <ele>218.84</ele>
        <time>2014-09-14T03:19:52Z</time>
      </trkpt>
      <trkpt lat="43.13772" lon="2.10053">
        <ele>220.28</ele>
        <time>2014-09-14T03:20:11Z</time>
      </trkpt>
      <trkpt lat="43.1377" lon="2.09925">
        <ele>222.2</ele>
        <time>2014-09-14T03:20:28Z</time>
      </trkpt>
      <trkpt lat="43.13792" lon="2.09808">
        <ele>221.72</ele>
        <time>2014-09-14T03:20:44Z</time>
      </trkpt>
      <trkpt lat="43.13822" lon="2.09669">
        <ele>221.72</ele>
        <time>2014-09-14T03:21:02Z</time>
      </trkpt>
      <trkpt lat="43.13829" lon="2.09535">
        <ele>221.72</ele>
        <time>2014-09-14T03:21:19Z</time>
      </trkpt>
      <trkpt lat="43.13828" lon="2.09519">
        <ele>221.72</ele>
        <time>2014-09-14T03:21:21Z</time>
      </trkpt>
      <trkpt lat="43.13826" lon="2.09511">
        <ele>221.72</ele>
        <time>2014-09-14T03:21:22Z</time>
      </trkpt>
      <trkpt lat="43.13824" lon="2.09504">
        <ele>221.72</ele>
        <time>2014-09-14T03:21:23Z</time>
      </trkpt>
      <trkpt lat="43.13822" lon="2.09497">
        <ele>221.72</ele>
        <time>2014-09-14T03:21:24Z</time>
      </trkpt>
      <trkpt lat="43.13819" lon="2.0949">
        <ele>221.72</ele>
        <time>2014-09-14T03:21:25Z</time>
      </trkpt>
      <trkpt lat="43.13815" lon="2.09484">
        <ele>222.2</ele>
        <time>2014-09-14T03:21:26Z</time>
      </trkpt>
      <trkpt lat="43.13811" lon="2.09478">
        <ele>222.2</ele>
        <time>2014-09-14T03:21:27Z</time>
      </trkpt>
      <trkpt lat="43.13773" lon="2.09412">
        <ele>224.12</ele>
        <time>2014-09-14T03:21:38Z</time>
      </trkpt>
      <trkpt lat="43.13768" lon="2.09397">
        <ele>224.12</ele>
        <time>2014-09-14T03:21:40Z</time>
      </trkpt>
      <trkpt lat="43.13756" lon="2.09267">
        <ele>224.61</ele>
        <time>2014-09-14T03:21:56Z</time>
      </trkpt>
      <trkpt lat="43.1375" lon="2.09135">
        <ele>225.09</ele>
        <time>2014-09-14T03:22:12Z</time>
      </trkpt>
      <trkpt lat="43.13724" lon="2.09031">
        <ele>226.05</ele>
        <time>2014-09-14T03:22:26Z</time>
      </trkpt>
      <trkpt lat="43.137" lon="2.08928">
        <ele>226.53</ele>
        <time>2014-09-14T03:22:40Z</time>
      </trkpt>
      <trkpt lat="43.13709" lon="2.08776">
        <ele>226.53</ele>
        <time>2014-09-14T03:22:59Z</time>
      </trkpt>
      <trkpt lat="43.13709" lon="2.08607">
        <ele>227.01</ele>
        <time>2014-09-14T03:23:20Z</time>
      </trkpt>
      <trkpt lat="43.1367" lon="2.08453">
        <ele>227.97</ele>
        <time>2014-09-14T03:23:40Z</time>
      </trkpt>
      <trkpt lat="43.13659" lon="2.08318">
        <ele>227.01</ele>
        <time>2014-09-14T03:23:56Z</time>
      </trkpt>
      <trkpt lat="43.13662" lon="2.08301">
        <ele>227.01</ele>
        <time>2014-09-14T03:23:58Z</time>
      </trkpt>
      <trkpt lat="43.13704" lon="2.08195">
        <ele>225.57</ele>
        <time>2014-09-14T03:24:12Z</time>
      </trkpt>
      <trkpt lat="43.13767" lon="2.08069">
        <ele>227.49</ele>
        <time>2014-09-14T03:24:33Z</time>
      </trkpt>
      <trkpt lat="43.13822" lon="2.07959">
        <ele>230.37</ele>
        <time>2014-09-14T03:24:52Z</time>
      </trkpt>
      <trkpt lat="43.13848" lon="2.07854">
        <ele>232.3</ele>
        <time>2014-09-14T03:25:08Z</time>
      </trkpt>
      <trkpt lat="43.13856" lon="2.07721">
        <ele>234.7</ele>
        <time>2014-09-14T03:25:27Z</time>
      </trkpt>
      <trkpt lat="43.13864" lon="2.07644">
        <ele>236.14</ele>
        <time>2014-09-14T03:25:38Z</time>
      </trkpt>
      <trkpt lat="43.1387" lon="2.07625">
        <ele>236.62</ele>
        <time>2014-09-14T03:25:41Z</time>
      </trkpt>
      <trkpt lat="43.13929" lon="2.07534">
        <ele>239.02</ele>
        <time>2014-09-14T03:25:59Z</time>
      </trkpt>
      <trkpt lat="43.13978" lon="2.07438">
        <ele>241.91</ele>
        <time>2014-09-14T03:26:16Z</time>
      </trkpt>
      <trkpt lat="43.14008" lon="2.07315">
        <ele>242.87</ele>
        <time>2014-09-14T03:26:34Z</time>
      </trkpt>
      <trkpt lat="43.1404" lon="2.07165">
        <ele>243.83</ele>
        <time>2014-09-14T03:26:55Z</time>
      </trkpt>
      <trkpt lat="43.1403" lon="2.0704">
        <ele>242.87</ele>
        <time>2014-09-14T03:27:10Z</time>
      </trkpt>
      <trkpt lat="43.1401" lon="2.06853">
        <ele>239.99</ele>
        <time>2014-09-14T03:27:30Z</time>
      </trkpt>
      <trkpt lat="43.13992" lon="2.06692">
        <ele>238.54</ele>
        <time>2014-09-14T03:27:48Z</time>
      </trkpt>
      <trkpt lat="43.13985" lon="2.066">
        <ele>238.54</ele>
        <time>2014-09-14T03:27:59Z</time>
      </trkpt>
      <trkpt lat="43.14009" lon="2.06491">
        <ele>238.06</ele>
        <time>2014-09-14T03:28:13Z</time>
      </trkpt>
      <trkpt lat="43.14063" lon="2.06308">
        <ele>239.99</ele>
        <time>2014-09-14T03:28:38Z</time>
      </trkpt>
      <trkpt lat="43.1412" lon="2.06183">
        <ele>240.95</ele>
        <time>2014-09-14T03:28:57Z</time>
      </trkpt>
      <trkpt lat="43.14181" lon="2.06055">
        <ele>242.87</ele>
        <time>2014-09-14T03:29:17Z</time>
      </trkpt>
      <trkpt lat="43.14222" lon="2.05938">
        <ele>244.31</ele>
        <time>2014-09-14T03:29:34Z</time>
      </trkpt>
      <trkpt lat="43.14236" lon="2.05783">
        <ele>246.23</ele>
        <time>2014-09-14T03:29:55Z</time>
      </trkpt>
      <trkpt lat="43.14239" lon="2.05633">
        <ele>248.64</ele>
        <time>2014-09-14T03:30:15Z</time>
      </trkpt>
      <trkpt lat="43.14228" lon="2.05469">
        <ele>249.6</ele>
        <time>2014-09-14T03:30:36Z</time>
      </trkpt>
      <trkpt lat="43.14231" lon="2.05317">
        <ele>249.12</ele>
        <time>2014-09-14T03:30:55Z</time>
      </trkpt>
      <trkpt lat="43.14258" lon="2.05178">
        <ele>251.04</ele>
        <time>2014-09-14T03:31:14Z</time>
      </trkpt>
      <trkpt lat="43.1429" lon="2.05023">
        <ele>254.41</ele>
        <time>2014-09-14T03:31:36Z</time>
      </trkpt>
      <trkpt lat="43.14322" lon="2.04875">
        <ele>256.33</ele>
        <time>2014-09-14T03:31:57Z</time>
      </trkpt>
      <trkpt lat="43.1435" lon="2.04732">
        <ele>257.29</ele>
        <time>2014-09-14T03:32:17Z</time>
      </trkpt>
      <trkpt lat="43.14363" lon="2.04671">
        <ele>256.81</ele>
        <time>2014-09-14T03:32:25Z</time>
      </trkpt>
      <trkpt lat="43.14367" lon="2.04664">
        <ele>256.33</ele>
        <time>2014-09-14T03:32:26Z</time>
      </trkpt>
      <trkpt lat="43.14371" lon="2.0466">
        <ele>256.33</ele>
        <time>2014-09-14T03:32:27Z</time>
      </trkpt>
      <trkpt lat="43.14377" lon="2.04656">
        <ele>255.85</ele>
        <time>2014-09-14T03:32:28Z</time>
      </trkpt>
      <trkpt lat="43.14383" lon="2.04655">
        <ele>255.85</ele>
        <time>2014-09-14T03:32:29Z</time>
      </trkpt>
      <trkpt lat="43.14389" lon="2.04655">
        <ele>255.85</ele>
        <time>2014-09-14T03:32:30Z</time>
      </trkpt>
      <trkpt lat="43.14483" lon="2.04655">
        <ele>256.33</ele>
        <time>2014-09-14T03:32:46Z</time>
      </trkpt>
      <trkpt lat="43.1459" lon="2.04655">
        <ele>257.29</ele>
        <time>2014-09-14T03:33:04Z</time>
      </trkpt>
      <trkpt lat="43.14667" lon="2.04656">
        <ele>258.25</ele>
        <time>2014-09-14T03:33:18Z</time>
      </trkpt>
      <trkpt lat="43.1479" lon="2.04666">
        <ele>259.69</ele>
        <time>2014-09-14T03:33:39Z</time>
      </trkpt>
      <trkpt lat="43.14912" lon="2.04692">
        <ele>261.62</ele>
        <time>2014-09-14T03:34:01Z</time>
      </trkpt>
      <trkpt lat="43.14983" lon="2.04705">
        <ele>264.98</ele>
        <time>2014-09-14T03:34:17Z</time>
      </trkpt>
      <trkpt lat="43.15" lon="2.0471">
        <ele>265.94</ele>
        <time>2014-09-14T03:34:21Z</time>
      </trkpt>
      <trkpt lat="43.15004" lon="2.04713">
        <ele>265.94</ele>
        <time>2014-09-14T03:34:22Z</time>
      </trkpt>
      <trkpt lat="43.15016" lon="2.04723">
        <ele>265.94</ele>
        <time>2014-09-14T03:34:25Z</time>
      </trkpt>
      <trkpt lat="43.15019" lon="2.04727">
        <ele>265.94</ele>
        <time>2014-09-14T03:34:26Z</time>
      </trkpt>
      <trkpt lat="43.15022" lon="2.04731">
        <ele>265.94</ele>
        <time>2014-09-14T03:34:27Z</time>
      </trkpt>
      <trkpt lat="43.15025" lon="2.04737">
        <ele>265.94</ele>
        <time>2014-09-14T03:34:28Z</time>
      </trkpt>
      <trkpt lat="43.15027" lon="2.04742">
        <ele>265.94</ele>
        <time>2014-09-14T03:34:29Z</time>
      </trkpt>
      <trkpt lat="43.15049" lon="2.04779">
        <ele>265.94</ele>
        <time>2014-09-14T03:34:36Z</time>
      </trkpt>
      <trkpt lat="43.15054" lon="2.04784">
        <ele>265.94</ele>
        <time>2014-09-14T03:34:37Z</time>
      </trkpt>
      <trkpt lat="43.15059" lon="2.04787">
        <ele>266.42</ele>
        <time>2014-09-14T03:34:38Z</time>
      </trkpt>
      <trkpt lat="43.15065" lon="2.0479">
        <ele>266.42</ele>
        <time>2014-09-14T03:34:39Z</time>
      </trkpt>
      <trkpt lat="43.15071" lon="2.04791">
        <ele>266.9</ele>
        <time>2014-09-14T03:34:40Z</time>
      </trkpt>
      <trkpt lat="43.15077" lon="2.04792">
        <ele>266.9</ele>
        <time>2014-09-14T03:34:41Z</time>
      </trkpt>
      <trkpt lat="43.15082" lon="2.04792">
        <ele>267.38</ele>
        <time>2014-09-14T03:34:42Z</time>
      </trkpt>
      <trkpt lat="43.15087" lon="2.04791">
        <ele>267.38</ele>
        <time>2014-09-14T03:34:43Z</time>
      </trkpt>
      <trkpt lat="43.15093" lon="2.04789">
        <ele>267.38</ele>
        <time>2014-09-14T03:34:44Z</time>
      </trkpt>
      <trkpt lat="43.15098" lon="2.04788">
        <ele>267.38</ele>
        <time>2014-09-14T03:34:45Z</time>
      </trkpt>
      <trkpt lat="43.15108" lon="2.04784">
        <ele>267.86</ele>
        <time>2014-09-14T03:34:47Z</time>
      </trkpt>
      <trkpt lat="43.15124" lon="2.04781">
        <ele>268.83</ele>
        <time>2014-09-14T03:34:50Z</time>
      </trkpt>
      <trkpt lat="43.15129" lon="2.04781">
        <ele>269.31</ele>
        <time>2014-09-14T03:34:51Z</time>
      </trkpt>
      <trkpt lat="43.15134" lon="2.04782">
        <ele>269.31</ele>
        <time>2014-09-14T03:34:52Z</time>
      </trkpt>
      <trkpt lat="43.15215" lon="2.04808">
        <ele>271.71</ele>
        <time>2014-09-14T03:35:08Z</time>
      </trkpt>
      <trkpt lat="43.15311" lon="2.04814">
        <ele>270.75</ele>
        <time>2014-09-14T03:35:25Z</time>
      </trkpt>
      <trkpt lat="43.15398" lon="2.0479">
        <ele>270.27</ele>
        <time>2014-09-14T03:35:39Z</time>
      </trkpt>
      <trkpt lat="43.15433" lon="2.04762">
        <ele>271.71</ele>
        <time>2014-09-14T03:35:47Z</time>
      </trkpt>
      <trkpt lat="43.15437" lon="2.04758">
        <ele>271.71</ele>
        <time>2014-09-14T03:35:48Z</time>
      </trkpt>
      <trkpt lat="43.15441" lon="2.04755">
        <ele>271.71</ele>
        <time>2014-09-14T03:35:49Z</time>
      </trkpt>
      <trkpt lat="43.15445" lon="2.04751">
        <ele>272.19</ele>
        <time>2014-09-14T03:35:50Z</time>
      </trkpt>
      <trkpt lat="43.15449" lon="2.04748">
        <ele>272.19</ele>
        <time>2014-09-14T03:35:51Z</time>
      </trkpt>
      <trkpt lat="43.1547" lon="2.04733">
        <ele>273.63</ele>
        <time>2014-09-14T03:35:56Z</time>
      </trkpt>
      <trkpt lat="43.15474" lon="2.04732">
        <ele>273.63</ele>
        <time>2014-09-14T03:35:57Z</time>
      </trkpt>
      <trkpt lat="43.15539" lon="2.04715">
        <ele>277.96</ele>
        <time>2014-09-14T03:36:12Z</time>
      </trkpt>
      <trkpt lat="43.15608" lon="2.04696">
        <ele>282.28</ele>
        <time>2014-09-14T03:36:29Z</time>
      </trkpt>
      <trkpt lat="43.15612" lon="2.04694">
        <ele>282.77</ele>
        <time>2014-09-14T03:36:30Z</time>
      </trkpt>
      <trkpt lat="43.15616" lon="2.04692">
        <ele>282.77</ele>
        <time>2014-09-14T03:36:31Z</time>
      </trkpt>
      <trkpt lat="43.15619" lon="2.04689">
        <ele>283.25</ele>
        <time>2014-09-14T03:36:32Z</time>
      </trkpt>
      <trkpt lat="43.1563" lon="2.04678">
        <ele>284.21</ele>
        <time>2014-09-14T03:36:35Z</time>
      </trkpt>
      <trkpt lat="43.15635" lon="2.0467">
        <ele>284.69</ele>
        <time>2014-09-14T03:36:37Z</time>
      </trkpt>
      <trkpt lat="43.15638" lon="2.04665">
        <ele>284.69</ele>
        <time>2014-09-14T03:36:38Z</time>
      </trkpt>
      <trkpt lat="43.15673" lon="2.04568">
        <ele>288.05</ele>
        <time>2014-09-14T03:36:57Z</time>
      </trkpt>
      <trkpt lat="43.15704" lon="2.04528">
        <ele>289.49</ele>
        <time>2014-09-14T03:37:08Z</time>
      </trkpt>
      <trkpt lat="43.15708" lon="2.04527">
        <ele>289.49</ele>
        <time>2014-09-14T03:37:09Z</time>
      </trkpt>
      <trkpt lat="43.15712" lon="2.04527">
        <ele>289.97</ele>
        <time>2014-09-14T03:37:10Z</time>
      </trkpt>
      <trkpt lat="43.15716" lon="2.04528">
        <ele>289.97</ele>
        <time>2014-09-14T03:37:11Z</time>
      </trkpt>
      <trkpt lat="43.1572" lon="2.0453">
        <ele>290.46</ele>
        <time>2014-09-14T03:37:12Z</time>
      </trkpt>
      <trkpt lat="43.15723" lon="2.04533">
        <ele>290.46</ele>
        <time>2014-09-14T03:37:13Z</time>
      </trkpt>
      <trkpt lat="43.15726" lon="2.04536">
        <ele>290.94</ele>
        <time>2014-09-14T03:37:14Z</time>
      </trkpt>
      <trkpt lat="43.15729" lon="2.04539">
        <ele>290.94</ele>
        <time>2014-09-14T03:37:15Z</time>
      </trkpt>
      <trkpt lat="43.15731" lon="2.04543">
        <ele>291.42</ele>
        <time>2014-09-14T03:37:16Z</time>
      </trkpt>
      <trkpt lat="43.15775" lon="2.0459">
        <ele>294.78</ele>
        <time>2014-09-14T03:37:31Z</time>
      </trkpt>
      <trkpt lat="43.15799" lon="2.04555">
        <ele>297.18</ele>
        <time>2014-09-14T03:37:40Z</time>
      </trkpt>
      <trkpt lat="43.15812" lon="2.04528">
        <ele>298.15</ele>
        <time>2014-09-14T03:37:46Z</time>
      </trkpt>
      <trkpt lat="43.15814" lon="2.04524">
        <ele>298.15</ele>
        <time>2014-09-14T03:37:47Z</time>
      </trkpt>
      <trkpt lat="43.15818" lon="2.0452">
        <ele>298.15</ele>
        <time>2014-09-14T03:37:48Z</time>
      </trkpt>
      <trkpt lat="43.15821" lon="2.04517">
        <ele>298.15</ele>
        <time>2014-09-14T03:37:49Z</time>
      </trkpt>
      <trkpt lat="43.15824" lon="2.04515">
        <ele>298.63</ele>
        <time>2014-09-14T03:37:50Z</time>
      </trkpt>
      <trkpt lat="43.15827" lon="2.04513">
        <ele>298.63</ele>
        <time>2014-09-14T03:37:51Z</time>
      </trkpt>
      <trkpt lat="43.15831" lon="2.04511">
        <ele>299.11</ele>
        <time>2014-09-14T03:37:52Z</time>
      </trkpt>
      <trkpt lat="43.15861" lon="2.04502">
        <ele>300.55</ele>
        <time>2014-09-14T03:38:00Z</time>
      </trkpt>
      <trkpt lat="43.15864" lon="2.04499">
        <ele>301.03</ele>
        <time>2014-09-14T03:38:01Z</time>
      </trkpt>
      <trkpt lat="43.15868" lon="2.04497">
        <ele>301.03</ele>
        <time>2014-09-14T03:38:02Z</time>
      </trkpt>
      <trkpt lat="43.15904" lon="2.04437">
        <ele>304.39</ele>
        <time>2014-09-14T03:38:16Z</time>
      </trkpt>
      <trkpt lat="43.15952" lon="2.04366">
        <ele>307.28</ele>
        <time>2014-09-14T03:38:34Z</time>
      </trkpt>
      <trkpt lat="43.16006" lon="2.04323">
        <ele>310.16</ele>
        <time>2014-09-14T03:38:51Z</time>
      </trkpt>
      <trkpt lat="43.16058" lon="2.04306">
        <ele>314.01</ele>
        <time>2014-09-14T03:39:05Z</time>
      </trkpt>
      <trkpt lat="43.16074" lon="2.0432">
        <ele>314.97</ele>
        <time>2014-09-14T03:39:10Z</time>
      </trkpt>
      <trkpt lat="43.16076" lon="2.04325">
        <ele>315.45</ele>
        <time>2014-09-14T03:39:11Z</time>
      </trkpt>
      <trkpt lat="43.16095" lon="2.04411">
        <ele>317.85</ele>
        <time>2014-09-14T03:39:28Z</time>
      </trkpt>
      <trkpt lat="43.16088" lon="2.04484">
        <ele>318.81</ele>
        <time>2014-09-14T03:39:42Z</time>
      </trkpt>
      <trkpt lat="43.16092" lon="2.04568">
        <ele>322.18</ele>
        <time>2014-09-14T03:39:58Z</time>
      </trkpt>
      <trkpt lat="43.16106" lon="2.04643">
        <ele>326.5</ele>
        <time>2014-09-14T03:40:13Z</time>
      </trkpt>
      <trkpt lat="43.1611" lon="2.04723">
        <ele>329.39</ele>
        <time>2014-09-14T03:40:28Z</time>
      </trkpt>
      <trkpt lat="43.16144" lon="2.04781">
        <ele>332.27</ele>
        <time>2014-09-14T03:40:43Z</time>
      </trkpt>
      <trkpt lat="43.16152" lon="2.04782">
        <ele>332.75</ele>
        <time>2014-09-14T03:40:45Z</time>
      </trkpt>
      <trkpt lat="43.16156" lon="2.04781">
        <ele>333.23</ele>
        <time>2014-09-14T03:40:46Z</time>
      </trkpt>
      <trkpt lat="43.16214" lon="2.04749">
        <ele>337.08</ele>
        <time>2014-09-14T03:41:02Z</time>
      </trkpt>
      <trkpt lat="43.16251" lon="2.04713">
        <ele>340.44</ele>
        <time>2014-09-14T03:41:14Z</time>
      </trkpt>
      <trkpt lat="43.16289" lon="2.04659">
        <ele>342.85</ele>
        <time>2014-09-14T03:41:29Z</time>
      </trkpt>
      <trkpt lat="43.16342" lon="2.04624">
        <ele>344.77</ele>
        <time>2014-09-14T03:41:45Z</time>
      </trkpt>
      <trkpt lat="43.16393" lon="2.04607">
        <ele>347.17</ele>
        <time>2014-09-14T03:41:58Z</time>
      </trkpt>
      <trkpt lat="43.16467" lon="2.04553">
        <ele>345.25</ele>
        <time>2014-09-14T03:42:14Z</time>
      </trkpt>
      <trkpt lat="43.16572" lon="2.0447">
        <ele>342.37</ele>
        <time>2014-09-14T03:42:32Z</time>
      </trkpt>
      <trkpt lat="43.16654" lon="2.04387">
        <ele>342.37</ele>
        <time>2014-09-14T03:42:49Z</time>
      </trkpt>
      <trkpt lat="43.16742" lon="2.04302">
        <ele>342.37</ele>
        <time>2014-09-14T03:43:08Z</time>
      </trkpt>
      <trkpt lat="43.1685" lon="2.042">
        <ele>342.85</ele>
        <time>2014-09-14T03:43:29Z</time>
      </trkpt>
      <trkpt lat="43.16912" lon="2.04132">
        <ele>348.13</ele>
        <time>2014-09-14T03:43:45Z</time>
      </trkpt>
      <trkpt lat="43.1695" lon="2.04072">
        <ele>351.5</ele>
        <time>2014-09-14T03:43:59Z</time>
      </trkpt>
      <trkpt lat="43.16973" lon="2.04035">
        <ele>353.9</ele>
        <time>2014-09-14T03:44:08Z</time>
      </trkpt>
      <trkpt lat="43.17016" lon="2.03968">
        <ele>358.23</ele>
        <time>2014-09-14T03:44:25Z</time>
      </trkpt>
      <trkpt lat="43.17051" lon="2.03915">
        <ele>360.63</ele>
        <time>2014-09-14T03:44:40Z</time>
      </trkpt>
      <trkpt lat="43.17085" lon="2.03863">
        <ele>364.48</ele>
        <time>2014-09-14T03:44:54Z</time>
      </trkpt>
      <trkpt lat="43.17125" lon="2.03802">
        <ele>367.84</ele>
        <time>2014-09-14T03:45:10Z</time>
      </trkpt>
      <trkpt lat="43.17164" lon="2.03743">
        <ele>369.76</ele>
        <time>2014-09-14T03:45:26Z</time>
      </trkpt>
      <trkpt lat="43.17177" lon="2.03729">
        <ele>370.24</ele>
        <time>2014-09-14T03:45:30Z</time>
      </trkpt>
      <trkpt lat="43.1721" lon="2.03713">
        <ele>370.24</ele>
        <time>2014-09-14T03:45:37Z</time>
      </trkpt>
      <trkpt lat="43.17311" lon="2.03689">
        <ele>365.92</ele>
        <time>2014-09-14T03:45:53Z</time>
      </trkpt>
      <trkpt lat="43.17414" lon="2.03681">
        <ele>362.07</ele>
        <time>2014-09-14T03:46:07Z</time>
      </trkpt>
      <trkpt lat="43.17445" lon="2.03698">
        <ele>362.07</ele>
        <time>2014-09-14T03:46:12Z</time>
      </trkpt>
      <trkpt lat="43.1745" lon="2.03702">
        <ele>362.55</ele>
        <time>2014-09-14T03:46:13Z</time>
      </trkpt>
      <trkpt lat="43.17455" lon="2.03707">
        <ele>362.55</ele>
        <time>2014-09-14T03:46:14Z</time>
      </trkpt>
      <trkpt lat="43.17459" lon="2.03713">
        <ele>362.55</ele>
        <time>2014-09-14T03:46:15Z</time>
      </trkpt>
      <trkpt lat="43.17463" lon="2.03719">
        <ele>362.55</ele>
        <time>2014-09-14T03:46:16Z</time>
      </trkpt>
      <trkpt lat="43.17479" lon="2.03739">
        <ele>362.55</ele>
        <time>2014-09-14T03:46:20Z</time>
      </trkpt>
      <trkpt lat="43.17484" lon="2.03743">
        <ele>362.55</ele>
        <time>2014-09-14T03:46:21Z</time>
      </trkpt>
      <trkpt lat="43.17489" lon="2.03745">
        <ele>362.55</ele>
        <time>2014-09-14T03:46:22Z</time>
      </trkpt>
      <trkpt lat="43.17494" lon="2.03748">
        <ele>362.55</ele>
        <time>2014-09-14T03:46:23Z</time>
      </trkpt>
      <trkpt lat="43.175" lon="2.03749">
        <ele>362.55</ele>
        <time>2014-09-14T03:46:24Z</time>
      </trkpt>
      <trkpt lat="43.17505" lon="2.03749">
        <ele>362.55</ele>
        <time>2014-09-14T03:46:25Z</time>
      </trkpt>
      <trkpt lat="43.17511" lon="2.03748">
        <ele>362.55</ele>
        <time>2014-09-14T03:46:26Z</time>
      </trkpt>
      <trkpt lat="43.17524" lon="2.03746">
        <ele>362.07</ele>
        <time>2014-09-14T03:46:28Z</time>
      </trkpt>
      <trkpt lat="43.17604" lon="2.03724">
        <ele>360.63</ele>
        <time>2014-09-14T03:46:41Z</time>
      </trkpt>
      <trkpt lat="43.17648" lon="2.03701">
        <ele>361.59</ele>
        <time>2014-09-14T03:46:49Z</time>
      </trkpt>
      <trkpt lat="43.17699" lon="2.03657">
        <ele>363.52</ele>
        <time>2014-09-14T03:47:00Z</time>
      </trkpt>
      <trkpt lat="43.17705" lon="2.03655">
        <ele>363.52</ele>
        <time>2014-09-14T03:47:01Z</time>
      </trkpt>
      <trkpt lat="43.17726" lon="2.0365">
        <ele>364.48</ele>
        <time>2014-09-14T03:47:05Z</time>
      </trkpt>
      <trkpt lat="43.17795" lon="2.03644">
        <ele>364.48</ele>
        <time>2014-09-14T03:47:17Z</time>
      </trkpt>
      <trkpt lat="43.17806" lon="2.03649">
        <ele>364.48</ele>
        <time>2014-09-14T03:47:19Z</time>
      </trkpt>
      <trkpt lat="43.17816" lon="2.03656">
        <ele>364.48</ele>
        <time>2014-09-14T03:47:21Z</time>
      </trkpt>
      <trkpt lat="43.17821" lon="2.0366">
        <ele>364.48</ele>
        <time>2014-09-14T03:47:22Z</time>
      </trkpt>
      <trkpt lat="43.17826" lon="2.03663">
        <ele>364.48</ele>
        <time>2014-09-14T03:47:23Z</time>
      </trkpt>
      <trkpt lat="43.17899" lon="2.03695">
        <ele>363.04</ele>
        <time>2014-09-14T03:47:36Z</time>
      </trkpt>
      <trkpt lat="43.18004" lon="2.03699">
        <ele>358.71</ele>
        <time>2014-09-14T03:47:50Z</time>
      </trkpt>
      <trkpt lat="43.18041" lon="2.03685">
        <ele>357.75</ele>
        <time>2014-09-14T03:47:55Z</time>
      </trkpt>
      <trkpt lat="43.18048" lon="2.0368">
        <ele>357.75</ele>
        <time>2014-09-14T03:47:56Z</time>
      </trkpt>
      <trkpt lat="43.18053" lon="2.03675">
        <ele>357.75</ele>
        <time>2014-09-14T03:47:57Z</time>
      </trkpt>
      <trkpt lat="43.18059" lon="2.03668">
        <ele>357.75</ele>
        <time>2014-09-14T03:47:58Z</time>
      </trkpt>
      <trkpt lat="43.18063" lon="2.03662">
        <ele>358.23</ele>
        <time>2014-09-14T03:47:59Z</time>
      </trkpt>
      <trkpt lat="43.18068" lon="2.03656">
        <ele>358.23</ele>
        <time>2014-09-14T03:48:00Z</time>
      </trkpt>
      <trkpt lat="43.18135" lon="2.03552">
        <ele>359.19</ele>
        <time>2014-09-14T03:48:16Z</time>
      </trkpt>
      <trkpt lat="43.18211" lon="2.03429">
        <ele>354.86</ele>
        <time>2014-09-14T03:48:32Z</time>
      </trkpt>
      <trkpt lat="43.18256" lon="2.03288">
        <ele>351.98</ele>
        <time>2014-09-14T03:48:45Z</time>
      </trkpt>
      <trkpt lat="43.18258" lon="2.03265">
        <ele>351.5</ele>
        <time>2014-09-14T03:48:47Z</time>
      </trkpt>
      <trkpt lat="43.18258" lon="2.03254">
        <ele>351.02</ele>
        <time>2014-09-14T03:48:48Z</time>
      </trkpt>
      <trkpt lat="43.18256" lon="2.03243">
        <ele>351.02</ele>
        <time>2014-09-14T03:48:49Z</time>
      </trkpt>
      <trkpt lat="43.18253" lon="2.03232">
        <ele>350.54</ele>
        <time>2014-09-14T03:48:50Z</time>
      </trkpt>
      <trkpt lat="43.18249" lon="2.03223">
        <ele>350.54</ele>
        <time>2014-09-14T03:48:51Z</time>
      </trkpt>
      <trkpt lat="43.18244" lon="2.03214">
        <ele>350.54</ele>
        <time>2014-09-14T03:48:52Z</time>
      </trkpt>
      <trkpt lat="43.18236" lon="2.03199">
        <ele>350.06</ele>
        <time>2014-09-14T03:48:54Z</time>
      </trkpt>
      <trkpt lat="43.18234" lon="2.03191">
        <ele>350.06</ele>
        <time>2014-09-14T03:48:55Z</time>
      </trkpt>
      <trkpt lat="43.18234" lon="2.03183">
        <ele>350.06</ele>
        <time>2014-09-14T03:48:56Z</time>
      </trkpt>
      <trkpt lat="43.18236" lon="2.03176">
        <ele>350.06</ele>
        <time>2014-09-14T03:48:57Z</time>
      </trkpt>
      <trkpt lat="43.18241" lon="2.03172">
        <ele>350.06</ele>
        <time>2014-09-14T03:48:58Z</time>
      </trkpt>
      <trkpt lat="43.18246" lon="2.03171">
        <ele>349.58</ele>
        <time>2014-09-14T03:48:59Z</time>
      </trkpt>
      <trkpt lat="43.18251" lon="2.03171">
        <ele>349.58</ele>
        <time>2014-09-14T03:49:00Z</time>
      </trkpt>
      <trkpt lat="43.18255" lon="2.0317">
        <ele>349.58</ele>
        <time>2014-09-14T03:49:01Z</time>
      </trkpt>
      <trkpt lat="43.1826" lon="2.03167">
        <ele>349.58</ele>
        <time>2014-09-14T03:49:02Z</time>
      </trkpt>
      <trkpt lat="43.18265" lon="2.03163">
        <ele>349.58</ele>
        <time>2014-09-14T03:49:03Z</time>
      </trkpt>
      <trkpt lat="43.18269" lon="2.03157">
        <ele>350.06</ele>
        <time>2014-09-14T03:49:04Z</time>
      </trkpt>
      <trkpt lat="43.18272" lon="2.03151">
        <ele>350.06</ele>
        <time>2014-09-14T03:49:05Z</time>
      </trkpt>
      <trkpt lat="43.18275" lon="2.03145">
        <ele>350.54</ele>
        <time>2014-09-14T03:49:06Z</time>
      </trkpt>
      <trkpt lat="43.183" lon="2.03021">
        <ele>350.06</ele>
        <time>2014-09-14T03:49:22Z</time>
      </trkpt>
      <trkpt lat="43.18323" lon="2.02872">
        <ele>347.17</ele>
        <time>2014-09-14T03:49:38Z</time>
      </trkpt>
      <trkpt lat="43.18353" lon="2.02687">
        <ele>346.69</ele>
        <time>2014-09-14T03:49:58Z</time>
      </trkpt>
      <trkpt lat="43.1838" lon="2.02513">
        <ele>346.21</ele>
        <time>2014-09-14T03:50:17Z</time>
      </trkpt>
      <trkpt lat="43.18407" lon="2.0234">
        <ele>342.85</ele>
        <time>2014-09-14T03:50:36Z</time>
      </trkpt>
      <trkpt lat="43.18433" lon="2.02169">
        <ele>338.52</ele>
        <time>2014-09-14T03:50:53Z</time>
      </trkpt>
      <trkpt lat="43.18467" lon="2.01959">
        <ele>335.64</ele>
        <time>2014-09-14T03:51:13Z</time>
      </trkpt>
      <trkpt lat="43.18495" lon="2.0174">
        <ele>330.35</ele>
        <time>2014-09-14T03:51:33Z</time>
      </trkpt>
      <trkpt lat="43.18471" lon="2.01552">
        <ele>326.99</ele>
        <time>2014-09-14T03:51:49Z</time>
      </trkpt>
      <trkpt lat="43.18454" lon="2.01411">
        <ele>326.99</ele>
        <time>2014-09-14T03:52:03Z</time>
      </trkpt>
      <trkpt lat="43.18433" lon="2.01249">
        <ele>325.06</ele>
        <time>2014-09-14T03:52:21Z</time>
      </trkpt>
      <trkpt lat="43.18418" lon="2.01048">
        <ele>322.18</ele>
        <time>2014-09-14T03:52:42Z</time>
      </trkpt>
      <trkpt lat="43.18415" lon="2.00863">
        <ele>319.3</ele>
        <time>2014-09-14T03:53:01Z</time>
      </trkpt>
      <trkpt lat="43.18412" lon="2.0067">
        <ele>318.33</ele>
        <time>2014-09-14T03:53:21Z</time>
      </trkpt>
      <trkpt lat="43.18409" lon="2.00459">
        <ele>314.49</ele>
        <time>2014-09-14T03:53:42Z</time>
      </trkpt>
      <trkpt lat="43.18404" lon="2.00287">
        <ele>312.57</ele>
        <time>2014-09-14T03:54:00Z</time>
      </trkpt>
      <trkpt lat="43.18381" lon="2.0016">
        <ele>314.01</ele>
        <time>2014-09-14T03:54:14Z</time>
      </trkpt>
      <trkpt lat="43.18364" lon="2.00067">
        <ele>314.01</ele>
        <time>2014-09-14T03:54:25Z</time>
      </trkpt>
      <trkpt lat="43.18362" lon="2.0002">
        <ele>314.01</ele>
        <time>2014-09-14T03:54:30Z</time>
      </trkpt>
      <trkpt lat="43.18389" lon="1.99899">
        <ele>314.97</ele>
        <time>2014-09-14T03:54:44Z</time>
      </trkpt>
      <trkpt lat="43.18449" lon="1.9973">
        <ele>314.97</ele>
        <time>2014-09-14T03:55:05Z</time>
      </trkpt>
      <trkpt lat="43.18519" lon="1.99535">
        <ele>315.45</ele>
        <time>2014-09-14T03:55:29Z</time>
      </trkpt>
      <trkpt lat="43.18536" lon="1.99425">
        <ele>316.41</ele>
        <time>2014-09-14T03:55:42Z</time>
      </trkpt>
      <trkpt lat="43.1853" lon="1.99284">
        <ele>314.97</ele>
        <time>2014-09-14T03:55:57Z</time>
      </trkpt>
      <trkpt lat="43.18538" lon="1.99125">
        <ele>314.97</ele>
        <time>2014-09-14T03:56:14Z</time>
      </trkpt>
      <trkpt lat="43.18551" lon="1.98985">
        <ele>315.45</ele>
        <time>2014-09-14T03:56:30Z</time>
      </trkpt>
      <trkpt lat="43.18537" lon="1.9881">
        <ele>314.49</ele>
        <time>2014-09-14T03:56:49Z</time>
      </trkpt>
      <trkpt lat="43.18533" lon="1.98752">
        <ele>315.45</ele>
        <time>2014-09-14T03:56:56Z</time>
      </trkpt>
      <trkpt lat="43.18529" lon="1.98722">
        <ele>316.41</ele>
        <time>2014-09-14T03:57:00Z</time>
      </trkpt>
      <trkpt lat="43.18522" lon="1.98694">
        <ele>317.37</ele>
        <time>2014-09-14T03:57:04Z</time>
      </trkpt>
      <trkpt lat="43.1852" lon="1.98688">
        <ele>317.85</ele>
        <time>2014-09-14T03:57:05Z</time>
      </trkpt>
      <trkpt lat="43.1848" lon="1.98575">
        <ele>317.85</ele>
        <time>2014-09-14T03:57:21Z</time>
      </trkpt>
      <trkpt lat="43.18445" lon="1.98436">
        <ele>316.41</ele>
        <time>2014-09-14T03:57:38Z</time>
      </trkpt>
      <trkpt lat="43.18448" lon="1.98272">
        <ele>312.09</ele>
        <time>2014-09-14T03:57:54Z</time>
      </trkpt>
      <trkpt lat="43.18451" lon="1.9804">
        <ele>308.24</ele>
        <time>2014-09-14T03:58:15Z</time>
      </trkpt>
      <trkpt lat="43.18454" lon="1.97864">
        <ele>309.68</ele>
        <time>2014-09-14T03:58:33Z</time>
      </trkpt>
      <trkpt lat="43.18456" lon="1.97719">
        <ele>310.16</ele>
        <time>2014-09-14T03:58:50Z</time>
      </trkpt>
      <trkpt lat="43.18458" lon="1.97558">
        <ele>308.72</ele>
        <time>2014-09-14T03:59:07Z</time>
      </trkpt>
      <trkpt lat="43.18457" lon="1.97405">
        <ele>309.2</ele>
        <time>2014-09-14T03:59:24Z</time>
      </trkpt>
      <trkpt lat="43.18457" lon="1.9727">
        <ele>311.6</ele>
        <time>2014-09-14T03:59:41Z</time>
      </trkpt>
      <trkpt lat="43.18457" lon="1.97257">
        <ele>312.09</ele>
        <time>2014-09-14T03:59:43Z</time>
      </trkpt>
      <trkpt lat="43.18457" lon="1.97211">
        <ele>313.05</ele>
        <time>2014-09-14T03:59:50Z</time>
      </trkpt>
      <trkpt lat="43.18457" lon="1.97205">
        <ele>313.53</ele>
        <time>2014-09-14T03:59:51Z</time>
      </trkpt>
      <trkpt lat="43.18459" lon="1.97099">
        <ele>318.81</ele>
        <time>2014-09-14T04:00:08Z</time>
      </trkpt>
      <trkpt lat="43.18485" lon="1.96977">
        <ele>323.14</ele>
        <time>2014-09-14T04:00:28Z</time>
      </trkpt>
      <trkpt lat="43.18502" lon="1.96894">
        <ele>324.58</ele>
        <time>2014-09-14T04:00:42Z</time>
      </trkpt>
      <trkpt lat="43.18502" lon="1.96887">
        <ele>324.58</ele>
        <time>2014-09-14T04:00:43Z</time>
      </trkpt>
      <trkpt lat="43.18502" lon="1.96881">
        <ele>324.58</ele>
        <time>2014-09-14T04:00:44Z</time>
      </trkpt>
      <trkpt lat="43.1848" lon="1.96733">
        <ele>324.1</ele>
        <time>2014-09-14T04:01:05Z</time>
      </trkpt>
      <trkpt lat="43.1846" lon="1.96597">
        <ele>319.78</ele>
        <time>2014-09-14T04:01:20Z</time>
      </trkpt>
      <trkpt lat="43.18449" lon="1.96431">
        <ele>317.37</ele>
        <time>2014-09-14T04:01:36Z</time>
      </trkpt>
      <trkpt lat="43.18456" lon="1.96239">
        <ele>311.6</ele>
        <time>2014-09-14T04:01:52Z</time>
      </trkpt>
      <trkpt lat="43.18451" lon="1.96015">
        <ele>304.88</ele>
        <time>2014-09-14T04:02:09Z</time>
      </trkpt>
      <trkpt lat="43.18444" lon="1.95748">
        <ele>300.07</ele>
        <time>2014-09-14T04:02:29Z</time>
      </trkpt>
      <trkpt lat="43.18471" lon="1.95596">
        <ele>298.63</ele>
        <time>2014-09-14T04:02:43Z</time>
      </trkpt>
      <trkpt lat="43.18512" lon="1.9538">
        <ele>297.67</ele>
        <time>2014-09-14T04:03:04Z</time>
      </trkpt>
      <trkpt lat="43.18554" lon="1.95242">
        <ele>298.63</ele>
        <time>2014-09-14T04:03:19Z</time>
      </trkpt>
      <trkpt lat="43.18617" lon="1.95111">
        <ele>297.67</ele>
        <time>2014-09-14T04:03:36Z</time>
      </trkpt>
      <trkpt lat="43.18637" lon="1.94928">
        <ele>296.22</ele>
        <time>2014-09-14T04:03:56Z</time>
      </trkpt>
      <trkpt lat="43.18659" lon="1.94726">
        <ele>297.18</ele>
        <time>2014-09-14T04:04:19Z</time>
      </trkpt>
      <trkpt lat="43.18684" lon="1.9456">
        <ele>296.22</ele>
        <time>2014-09-14T04:04:37Z</time>
      </trkpt>
      <trkpt lat="43.18687" lon="1.94552">
        <ele>296.22</ele>
        <time>2014-09-14T04:04:38Z</time>
      </trkpt>
      <trkpt lat="43.1873" lon="1.94451">
        <ele>295.26</ele>
        <time>2014-09-14T04:04:50Z</time>
      </trkpt>
      <trkpt lat="43.18732" lon="1.94443">
        <ele>295.26</ele>
        <time>2014-09-14T04:04:51Z</time>
      </trkpt>
      <trkpt lat="43.18732" lon="1.94434">
        <ele>295.26</ele>
        <time>2014-09-14T04:04:52Z</time>
      </trkpt>
      <trkpt lat="43.18733" lon="1.94425">
        <ele>295.26</ele>
        <time>2014-09-14T04:04:53Z</time>
      </trkpt>
      <trkpt lat="43.18733" lon="1.94416">
        <ele>295.26</ele>
        <time>2014-09-14T04:04:54Z</time>
      </trkpt>
      <trkpt lat="43.18723" lon="1.94264">
        <ele>293.34</ele>
        <time>2014-09-14T04:05:10Z</time>
      </trkpt>
      <trkpt lat="43.1871" lon="1.94137">
        <ele>294.78</ele>
        <time>2014-09-14T04:05:25Z</time>
      </trkpt>
      <trkpt lat="43.18701" lon="1.94109">
        <ele>295.26</ele>
        <time>2014-09-14T04:05:29Z</time>
      </trkpt>
      <trkpt lat="43.18654" lon="1.93982">
        <ele>293.82</ele>
        <time>2014-09-14T04:05:45Z</time>
      </trkpt>
      <trkpt lat="43.18606" lon="1.9383">
        <ele>293.82</ele>
        <time>2014-09-14T04:06:03Z</time>
      </trkpt>
      <trkpt lat="43.18573" lon="1.93715">
        <ele>294.78</ele>
        <time>2014-09-14T04:06:17Z</time>
      </trkpt>
      <trkpt lat="43.18548" lon="1.93563">
        <ele>295.26</ele>
        <time>2014-09-14T04:06:35Z</time>
      </trkpt>
      <trkpt lat="43.18532" lon="1.93431">
        <ele>292.86</ele>
        <time>2014-09-14T04:06:49Z</time>
      </trkpt>
      <trkpt lat="43.18519" lon="1.93298">
        <ele>292.86</ele>
        <time>2014-09-14T04:07:04Z</time>
      </trkpt>
      <trkpt lat="43.18482" lon="1.93159">
        <ele>294.3</ele>
        <time>2014-09-14T04:07:22Z</time>
      </trkpt>
      <trkpt lat="43.18492" lon="1.93068">
        <ele>292.86</ele>
        <time>2014-09-14T04:07:32Z</time>
      </trkpt>
      <trkpt lat="43.18535" lon="1.92928">
        <ele>291.42</ele>
        <time>2014-09-14T04:07:48Z</time>
      </trkpt>
      <trkpt lat="43.18574" lon="1.92805">
        <ele>289.97</ele>
        <time>2014-09-14T04:08:02Z</time>
      </trkpt>
      <trkpt lat="43.18625" lon="1.92638">
        <ele>291.9</ele>
        <time>2014-09-14T04:08:22Z</time>
      </trkpt>
      <trkpt lat="43.18672" lon="1.9249">
        <ele>293.34</ele>
        <time>2014-09-14T04:08:41Z</time>
      </trkpt>
      <trkpt lat="43.1872" lon="1.9232">
        <ele>291.42</ele>
        <time>2014-09-14T04:09:01Z</time>
      </trkpt>
      <trkpt lat="43.18722" lon="1.92187">
        <ele>291.42</ele>
        <time>2014-09-14T04:09:16Z</time>
      </trkpt>
      <trkpt lat="43.18716" lon="1.92075">
        <ele>291.42</ele>
        <time>2014-09-14T04:09:29Z</time>
      </trkpt>
      <trkpt lat="43.18717" lon="1.92066">
        <ele>291.42</ele>
        <time>2014-09-14T04:09:30Z</time>
      </trkpt>
      <trkpt lat="43.18718" lon="1.92058">
        <ele>291.42</ele>
        <time>2014-09-14T04:09:31Z</time>
      </trkpt>
      <trkpt lat="43.18757" lon="1.91952">
        <ele>293.34</ele>
        <time>2014-09-14T04:09:45Z</time>
      </trkpt>
      <trkpt lat="43.1881" lon="1.91813">
        <ele>294.3</ele>
        <time>2014-09-14T04:10:03Z</time>
      </trkpt>
      <trkpt lat="43.18861" lon="1.91677">
        <ele>292.38</ele>
        <time>2014-09-14T04:10:20Z</time>
      </trkpt>
      <trkpt lat="43.1892" lon="1.91516">
        <ele>289.49</ele>
        <time>2014-09-14T04:10:38Z</time>
      </trkpt>
      <trkpt lat="43.18935" lon="1.91388">
        <ele>287.57</ele>
        <time>2014-09-14T04:10:51Z</time>
      </trkpt>
      <trkpt lat="43.18953" lon="1.91197">
        <ele>284.69</ele>
        <time>2014-09-14T04:11:10Z</time>
      </trkpt>
      <trkpt lat="43.18968" lon="1.91029">
        <ele>284.69</ele>
        <time>2014-09-14T04:11:28Z</time>
      </trkpt>
      <trkpt lat="43.1898" lon="1.90911">
        <ele>284.21</ele>
        <time>2014-09-14T04:11:41Z</time>
      </trkpt>
      <trkpt lat="43.19008" lon="1.90764">
        <ele>284.69</ele>
        <time>2014-09-14T04:11:58Z</time>
      </trkpt>
      <trkpt lat="43.19029" lon="1.90649">
        <ele>285.65</ele>
        <time>2014-09-14T04:12:12Z</time>
      </trkpt>
      <trkpt lat="43.19031" lon="1.90642">
        <ele>285.65</ele>
        <time>2014-09-14T04:12:13Z</time>
      </trkpt>
      <trkpt lat="43.19055" lon="1.90523">
        <ele>288.53</ele>
        <time>2014-09-14T04:12:28Z</time>
      </trkpt>
      <trkpt lat="43.19084" lon="1.90366">
        <ele>289.49</ele>
        <time>2014-09-14T04:12:48Z</time>
      </trkpt>
      <trkpt lat="43.19096" lon="1.90285">
        <ele>288.05</ele>
        <time>2014-09-14T04:12:58Z</time>
      </trkpt>
      <trkpt lat="43.19095" lon="1.90277">
        <ele>288.05</ele>
        <time>2014-09-14T04:12:59Z</time>
      </trkpt>
      <trkpt lat="43.19093" lon="1.90268">
        <ele>288.05</ele>
        <time>2014-09-14T04:13:00Z</time>
      </trkpt>
      <trkpt lat="43.19051" lon="1.90121">
        <ele>285.17</ele>
        <time>2014-09-14T04:13:16Z</time>
      </trkpt>
      <trkpt lat="43.19037" lon="1.89946">
        <ele>283.73</ele>
        <time>2014-09-14T04:13:34Z</time>
      </trkpt>
      <trkpt lat="43.19025" lon="1.8978">
        <ele>282.77</ele>
        <time>2014-09-14T04:13:51Z</time>
      </trkpt>
      <trkpt lat="43.1901" lon="1.89567">
        <ele>282.28</ele>
        <time>2014-09-14T04:14:13Z</time>
      </trkpt>
      <trkpt lat="43.18999" lon="1.89414">
        <ele>283.25</ele>
        <time>2014-09-14T04:14:30Z</time>
      </trkpt>
      <trkpt lat="43.18991" lon="1.89282">
        <ele>286.13</ele>
        <time>2014-09-14T04:14:47Z</time>
      </trkpt>
      <trkpt lat="43.18988" lon="1.89255">
        <ele>286.61</ele>
        <time>2014-09-14T04:14:51Z</time>
      </trkpt>
      <trkpt lat="43.18987" lon="1.89248">
        <ele>286.61</ele>
        <time>2014-09-14T04:14:52Z</time>
      </trkpt>
      <trkpt lat="43.18987" lon="1.89242">
        <ele>286.61</ele>
        <time>2014-09-14T04:14:53Z</time>
      </trkpt>
      <trkpt lat="43.18984" lon="1.89205">
        <ele>287.57</ele>
        <time>2014-09-14T04:14:59Z</time>
      </trkpt>
      <trkpt lat="43.18981" lon="1.89182">
        <ele>288.05</ele>
        <time>2014-09-14T04:15:03Z</time>
      </trkpt>
      <trkpt lat="43.18977" lon="1.89159">
        <ele>289.01</ele>
        <time>2014-09-14T04:15:07Z</time>
      </trkpt>
      <trkpt lat="43.18962" lon="1.89105">
        <ele>289.97</ele>
        <time>2014-09-14T04:15:16Z</time>
      </trkpt>
      <trkpt lat="43.18923" lon="1.88999">
        <ele>286.61</ele>
        <time>2014-09-14T04:15:27Z</time>
      </trkpt>
      <trkpt lat="43.18846" lon="1.88785">
        <ele>282.28</ele>
        <time>2014-09-14T04:15:46Z</time>
      </trkpt>
      <trkpt lat="43.18774" lon="1.88583">
        <ele>281.32</ele>
        <time>2014-09-14T04:16:06Z</time>
      </trkpt>
      <trkpt lat="43.18725" lon="1.88448">
        <ele>282.77</ele>
        <time>2014-09-14T04:16:22Z</time>
      </trkpt>
      <trkpt lat="43.187" lon="1.88375">
        <ele>282.77</ele>
        <time>2014-09-14T04:16:31Z</time>
      </trkpt>
      <trkpt lat="43.18691" lon="1.88254">
        <ele>282.77</ele>
        <time>2014-09-14T04:16:44Z</time>
      </trkpt>
      <trkpt lat="43.18699" lon="1.8807">
        <ele>279.88</ele>
        <time>2014-09-14T04:17:00Z</time>
      </trkpt>
      <trkpt lat="43.18708" lon="1.87991">
        <ele>279.88</ele>
        <time>2014-09-14T04:17:07Z</time>
      </trkpt>
      <trkpt lat="43.18711" lon="1.8798">
        <ele>279.88</ele>
        <time>2014-09-14T04:17:08Z</time>
      </trkpt>
      <trkpt lat="43.18765" lon="1.87886">
        <ele>281.32</ele>
        <time>2014-09-14T04:17:19Z</time>
      </trkpt>
      <trkpt lat="43.18797" lon="1.87797">
        <ele>284.21</ele>
        <time>2014-09-14T04:17:30Z</time>
      </trkpt>
      <trkpt lat="43.1881" lon="1.87641">
        <ele>282.28</ele>
        <time>2014-09-14T04:17:45Z</time>
      </trkpt>
      <trkpt lat="43.18813" lon="1.8748">
        <ele>281.32</ele>
        <time>2014-09-14T04:18:01Z</time>
      </trkpt>
      <trkpt lat="43.18797" lon="1.87306">
        <ele>277.96</ele>
        <time>2014-09-14T04:18:16Z</time>
      </trkpt>
      <trkpt lat="43.18827" lon="1.87081">
        <ele>275.07</ele>
        <time>2014-09-14T04:18:35Z</time>
      </trkpt>
      <trkpt lat="43.1887" lon="1.86996">
        <ele>277.48</ele>
        <time>2014-09-14T04:18:45Z</time>
      </trkpt>
      <trkpt lat="43.18957" lon="1.86906">
        <ele>280.36</ele>
        <time>2014-09-14T04:19:01Z</time>
      </trkpt>
      <trkpt lat="43.1896" lon="1.86897">
        <ele>280.36</ele>
        <time>2014-09-14T04:19:02Z</time>
      </trkpt>
      <trkpt lat="43.18964" lon="1.86888">
        <ele>280.36</ele>
        <time>2014-09-14T04:19:03Z</time>
      </trkpt>
      <trkpt lat="43.18967" lon="1.86878">
        <ele>279.88</ele>
        <time>2014-09-14T04:19:04Z</time>
      </trkpt>
      <trkpt lat="43.18969" lon="1.86869">
        <ele>279.88</ele>
        <time>2014-09-14T04:19:05Z</time>
      </trkpt>
      <trkpt lat="43.18971" lon="1.86858">
        <ele>279.88</ele>
        <time>2014-09-14T04:19:06Z</time>
      </trkpt>
      <trkpt lat="43.18971" lon="1.86848">
        <ele>279.88</ele>
        <time>2014-09-14T04:19:07Z</time>
      </trkpt>
      <trkpt lat="43.18966" lon="1.867">
        <ele>280.84</ele>
        <time>2014-09-14T04:19:22Z</time>
      </trkpt>
      <trkpt lat="43.18944" lon="1.86594">
        <ele>283.73</ele>
        <time>2014-09-14T04:19:35Z</time>
      </trkpt>
      <trkpt lat="43.18943" lon="1.86586">
        <ele>283.73</ele>
        <time>2014-09-14T04:19:36Z</time>
      </trkpt>
      <trkpt lat="43.18941" lon="1.86578">
        <ele>283.73</ele>
        <time>2014-09-14T04:19:37Z</time>
      </trkpt>
      <trkpt lat="43.18916" lon="1.86463">
        <ele>286.13</ele>
        <time>2014-09-14T04:19:51Z</time>
      </trkpt>
      <trkpt lat="43.18883" lon="1.86306">
        <ele>284.69</ele>
        <time>2014-09-14T04:20:08Z</time>
      </trkpt>
      <trkpt lat="43.18852" lon="1.86158">
        <ele>285.17</ele>
        <time>2014-09-14T04:20:23Z</time>
      </trkpt>
      <trkpt lat="43.18816" lon="1.85984">
        <ele>283.25</ele>
        <time>2014-09-14T04:20:42Z</time>
      </trkpt>
      <trkpt lat="43.18772" lon="1.85771">
        <ele>280.36</ele>
        <time>2014-09-14T04:21:04Z</time>
      </trkpt>
      <trkpt lat="43.18749" lon="1.85666">
        <ele>283.73</ele>
        <time>2014-09-14T04:21:18Z</time>
      </trkpt>
      <trkpt lat="43.18727" lon="1.85561">
        <ele>285.17</ele>
        <time>2014-09-14T04:21:32Z</time>
      </trkpt>
      <trkpt lat="43.18691" lon="1.85392">
        <ele>287.09</ele>
        <time>2014-09-14T04:21:54Z</time>
      </trkpt>
      <trkpt lat="43.18656" lon="1.85226">
        <ele>286.61</ele>
        <time>2014-09-14T04:22:14Z</time>
      </trkpt>
      <trkpt lat="43.18624" lon="1.85076">
        <ele>283.73</ele>
        <time>2014-09-14T04:22:30Z</time>
      </trkpt>
      <trkpt lat="43.1858" lon="1.84864">
        <ele>280.84</ele>
        <time>2014-09-14T04:22:53Z</time>
      </trkpt>
      <trkpt lat="43.18541" lon="1.84681">
        <ele>278.92</ele>
        <time>2014-09-14T04:23:13Z</time>
      </trkpt>
      <trkpt lat="43.18501" lon="1.84501">
        <ele>274.11</ele>
        <time>2014-09-14T04:23:31Z</time>
      </trkpt>
      <trkpt lat="43.18463" lon="1.84323">
        <ele>273.63</ele>
        <time>2014-09-14T04:23:49Z</time>
      </trkpt>
      <trkpt lat="43.18453" lon="1.84193">
        <ele>275.56</ele>
        <time>2014-09-14T04:24:03Z</time>
      </trkpt>
      <trkpt lat="43.1846" lon="1.84037">
        <ele>277.48</ele>
        <time>2014-09-14T04:24:20Z</time>
      </trkpt>
      <trkpt lat="43.18469" lon="1.83869">
        <ele>278.92</ele>
        <time>2014-09-14T04:24:39Z</time>
      </trkpt>
      <trkpt lat="43.1846" lon="1.83725">
        <ele>279.88</ele>
        <time>2014-09-14T04:24:56Z</time>
      </trkpt>
      <trkpt lat="43.1843" lon="1.83592">
        <ele>280.36</ele>
        <time>2014-09-14T04:25:12Z</time>
      </trkpt>
      <trkpt lat="43.18387" lon="1.83464">
        <ele>279.88</ele>
        <time>2014-09-14T04:25:28Z</time>
      </trkpt>
      <trkpt lat="43.18363" lon="1.83327">
        <ele>279.4</ele>
        <time>2014-09-14T04:25:44Z</time>
      </trkpt>
      <trkpt lat="43.18343" lon="1.83203">
        <ele>277</ele>
        <time>2014-09-14T04:25:58Z</time>
      </trkpt>
      <trkpt lat="43.18311" lon="1.83017">
        <ele>272.67</ele>
        <time>2014-09-14T04:26:17Z</time>
      </trkpt>
      <trkpt lat="43.18278" lon="1.82861">
        <ele>267.86</ele>
        <time>2014-09-14T04:26:32Z</time>
      </trkpt>
      <trkpt lat="43.18277" lon="1.82854">
        <ele>267.38</ele>
        <time>2014-09-14T04:26:33Z</time>
      </trkpt>
      <trkpt lat="43.18277" lon="1.82843">
        <ele>266.9</ele>
        <time>2014-09-14T04:26:34Z</time>
      </trkpt>
      <trkpt lat="43.18277" lon="1.82825">
        <ele>265.94</ele>
        <time>2014-09-14T04:26:36Z</time>
      </trkpt>
      <trkpt lat="43.18275" lon="1.82817">
        <ele>265.94</ele>
        <time>2014-09-14T04:26:37Z</time>
      </trkpt>
      <trkpt lat="43.18271" lon="1.82811">
        <ele>265.46</ele>
        <time>2014-09-14T04:26:38Z</time>
      </trkpt>
      <trkpt lat="43.18265" lon="1.82802">
        <ele>264.98</ele>
        <time>2014-09-14T04:26:39Z</time>
      </trkpt>
      <trkpt lat="43.18262" lon="1.82798">
        <ele>264.98</ele>
        <time>2014-09-14T04:26:40Z</time>
      </trkpt>
      <trkpt lat="43.18254" lon="1.82785">
        <ele>264.5</ele>
        <time>2014-09-14T04:26:42Z</time>
      </trkpt>
      <trkpt lat="43.18251" lon="1.82779">
        <ele>264.5</ele>
        <time>2014-09-14T04:26:43Z</time>
      </trkpt>
      <trkpt lat="43.18248" lon="1.8277">
        <ele>264.5</ele>
        <time>2014-09-14T04:26:44Z</time>
      </trkpt>
      <trkpt lat="43.18246" lon="1.82763">
        <ele>264.5</ele>
        <time>2014-09-14T04:26:45Z</time>
      </trkpt>
      <trkpt lat="43.18244" lon="1.82756">
        <ele>264.5</ele>
        <time>2014-09-14T04:26:46Z</time>
      </trkpt>
      <trkpt lat="43.18242" lon="1.82748">
        <ele>264.98</ele>
        <time>2014-09-14T04:26:47Z</time>
      </trkpt>
      <trkpt lat="43.1822" lon="1.82639">
        <ele>265.46</ele>
        <time>2014-09-14T04:27:01Z</time>
      </trkpt>
      <trkpt lat="43.18185" lon="1.82472">
        <ele>263.06</ele>
        <time>2014-09-14T04:27:19Z</time>
      </trkpt>
      <trkpt lat="43.18145" lon="1.82285">
        <ele>261.62</ele>
        <time>2014-09-14T04:27:40Z</time>
      </trkpt>
      <trkpt lat="43.18123" lon="1.8219">
        <ele>261.14</ele>
        <time>2014-09-14T04:27:54Z</time>
      </trkpt>
      <trkpt lat="43.18125" lon="1.82179">
        <ele>261.62</ele>
        <time>2014-09-14T04:28:05Z</time>
      </trkpt>
      <trkpt lat="43.18124" lon="1.82178">
        <ele>261.14</ele>
        <time>2014-09-14T04:28:29Z</time>
      </trkpt>
      <trkpt lat="43.18124" lon="1.82183">
        <ele>261.14</ele>
        <time>2014-09-14T04:28:52Z</time>
      </trkpt>
      <trkpt lat="43.18125" lon="1.82182">
        <ele>262.1</ele>
        <time>2014-09-14T04:29:11Z</time>
      </trkpt>
      <trkpt lat="43.18125" lon="1.82189">
        <ele>262.1</ele>
        <time>2014-09-14T04:29:29Z</time>
      </trkpt>
      <trkpt lat="43.18125" lon="1.82189">
        <ele>261.62</ele>
        <time>2014-09-14T04:29:52Z</time>
      </trkpt>
      <trkpt lat="43.18125" lon="1.82189">
        <ele>262.1</ele>
        <time>2014-09-14T04:30:23Z</time>
      </trkpt>
      <trkpt lat="43.18125" lon="1.8219">
        <ele>262.1</ele>
        <time>2014-09-14T04:30:56Z</time>
      </trkpt>
      <trkpt lat="43.18125" lon="1.82191">
        <ele>262.58</ele>
        <time>2014-09-14T04:31:24Z</time>
      </trkpt>
      <trkpt lat="43.18125" lon="1.82192">
        <ele>262.58</ele>
        <time>2014-09-14T04:31:52Z</time>
      </trkpt>
      <trkpt lat="43.18127" lon="1.82191">
        <ele>264.02</ele>
        <time>2014-09-14T04:32:20Z</time>
      </trkpt>
      <trkpt lat="43.18127" lon="1.8219">
        <ele>262.58</ele>
        <time>2014-09-14T04:32:40Z</time>
      </trkpt>
      <trkpt lat="43.18127" lon="1.8219">
        <ele>263.06</ele>
        <time>2014-09-14T04:33:06Z</time>
      </trkpt>
      <trkpt lat="43.18128" lon="1.82191">
        <ele>261.62</ele>
        <time>2014-09-14T04:33:40Z</time>
      </trkpt>
      <trkpt lat="43.18126" lon="1.82191">
        <ele>260.65</ele>
        <time>2014-09-14T04:34:03Z</time>
      </trkpt>
      <trkpt lat="43.18126" lon="1.8219">
        <ele>260.17</ele>
        <time>2014-09-14T04:34:31Z</time>
      </trkpt>
      <trkpt lat="43.18126" lon="1.8219">
        <ele>260.65</ele>
        <time>2014-09-14T04:34:52Z</time>
      </trkpt>
      <trkpt lat="43.18127" lon="1.82191">
        <ele>261.62</ele>
        <time>2014-09-14T04:35:20Z</time>
      </trkpt>
      <trkpt lat="43.18127" lon="1.82191">
        <ele>261.62</ele>
        <time>2014-09-14T04:35:37Z</time>
      </trkpt>
      <trkpt lat="43.18127" lon="1.82189">
        <ele>261.62</ele>
        <time>2014-09-14T04:35:41Z</time>
      </trkpt>
      <trkpt lat="43.18128" lon="1.82188">
        <ele>261.62</ele>
        <time>2014-09-14T04:35:42Z</time>
      </trkpt>
      <trkpt lat="43.18129" lon="1.82186">
        <ele>261.62</ele>
        <time>2014-09-14T04:35:43Z</time>
      </trkpt>
      <trkpt lat="43.18129" lon="1.82184">
        <ele>261.62</ele>
        <time>2014-09-14T04:35:44Z</time>
      </trkpt>
      <trkpt lat="43.1813" lon="1.82183">
        <ele>261.62</ele>
        <time>2014-09-14T04:35:45Z</time>
      </trkpt>
      <trkpt lat="43.18131" lon="1.82183">
        <ele>261.62</ele>
        <time>2014-09-14T04:35:46Z</time>
      </trkpt>
      <trkpt lat="43.18133" lon="1.82182">
        <ele>261.62</ele>
        <time>2014-09-14T04:35:47Z</time>
      </trkpt>
      <trkpt lat="43.18135" lon="1.82181">
        <ele>261.62</ele>
        <time>2014-09-14T04:35:48Z</time>
      </trkpt>
      <trkpt lat="43.18138" lon="1.82179">
        <ele>261.62</ele>
        <time>2014-09-14T04:35:49Z</time>
      </trkpt>
      <trkpt lat="43.18141" lon="1.82178">
        <ele>261.62</ele>
        <time>2014-09-14T04:35:50Z</time>
      </trkpt>
      <trkpt lat="43.18145" lon="1.82177">
        <ele>262.1</ele>
        <time>2014-09-14T04:35:51Z</time>
      </trkpt>
      <trkpt lat="43.1815" lon="1.82177">
        <ele>262.1</ele>
        <time>2014-09-14T04:35:52Z</time>
      </trkpt>
      <trkpt lat="43.18231" lon="1.82158">
        <ele>262.58</ele>
        <time>2014-09-14T04:36:08Z</time>
      </trkpt>
      <trkpt lat="43.18285" lon="1.82142">
        <ele>263.54</ele>
        <time>2014-09-14T04:36:19Z</time>
      </trkpt>
      <trkpt lat="43.18289" lon="1.82138">
        <ele>264.02</ele>
        <time>2014-09-14T04:36:20Z</time>
      </trkpt>
      <trkpt lat="43.18292" lon="1.82134">
        <ele>264.02</ele>
        <time>2014-09-14T04:36:21Z</time>
      </trkpt>
      <trkpt lat="43.18294" lon="1.82127">
        <ele>264.02</ele>
        <time>2014-09-14T04:36:22Z</time>
      </trkpt>
      <trkpt lat="43.18296" lon="1.82122">
        <ele>264.02</ele>
        <time>2014-09-14T04:36:23Z</time>
      </trkpt>
      <trkpt lat="43.18298" lon="1.82115">
        <ele>264.02</ele>
        <time>2014-09-14T04:36:24Z</time>
      </trkpt>
      <trkpt lat="43.18299" lon="1.82109">
        <ele>264.02</ele>
        <time>2014-09-14T04:36:25Z</time>
      </trkpt>
      <trkpt lat="43.183" lon="1.82103">
        <ele>264.02</ele>
        <time>2014-09-14T04:36:26Z</time>
      </trkpt>
      <trkpt lat="43.18299" lon="1.81991">
        <ele>264.5</ele>
        <time>2014-09-14T04:36:41Z</time>
      </trkpt>
      <trkpt lat="43.18298" lon="1.81847">
        <ele>264.5</ele>
        <time>2014-09-14T04:36:58Z</time>
      </trkpt>
      <trkpt lat="43.183" lon="1.81715">
        <ele>263.54</ele>
        <time>2014-09-14T04:37:13Z</time>
      </trkpt>
      <trkpt lat="43.18299" lon="1.81583">
        <ele>262.58</ele>
        <time>2014-09-14T04:37:28Z</time>
      </trkpt>
      <trkpt lat="43.18292" lon="1.81447">
        <ele>263.06</ele>
        <time>2014-09-14T04:37:44Z</time>
      </trkpt>
      <trkpt lat="43.18288" lon="1.81421">
        <ele>263.54</ele>
        <time>2014-09-14T04:37:47Z</time>
      </trkpt>
      <trkpt lat="43.18285" lon="1.81413">
        <ele>263.54</ele>
        <time>2014-09-14T04:37:48Z</time>
      </trkpt>
      <trkpt lat="43.18282" lon="1.81404">
        <ele>263.54</ele>
        <time>2014-09-14T04:37:49Z</time>
      </trkpt>
      <trkpt lat="43.18245" lon="1.81293">
        <ele>264.02</ele>
        <time>2014-09-14T04:38:03Z</time>
      </trkpt>
      <trkpt lat="43.18254" lon="1.81176">
        <ele>265.46</ele>
        <time>2014-09-14T04:38:17Z</time>
      </trkpt>
      <trkpt lat="43.18274" lon="1.81071">
        <ele>267.38</ele>
        <time>2014-09-14T04:38:30Z</time>
      </trkpt>
      <trkpt lat="43.18293" lon="1.80961">
        <ele>267.38</ele>
        <time>2014-09-14T04:38:43Z</time>
      </trkpt>
      <trkpt lat="43.18297" lon="1.80756">
        <ele>265.46</ele>
        <time>2014-09-14T04:39:05Z</time>
      </trkpt>
      <trkpt lat="43.18308" lon="1.80597">
        <ele>265.94</ele>
        <time>2014-09-14T04:39:23Z</time>
      </trkpt>
      <trkpt lat="43.18336" lon="1.80448">
        <ele>266.42</ele>
        <time>2014-09-14T04:39:40Z</time>
      </trkpt>
      <trkpt lat="43.18369" lon="1.80333">
        <ele>268.35</ele>
        <time>2014-09-14T04:39:55Z</time>
      </trkpt>
      <trkpt lat="43.18401" lon="1.8023">
        <ele>270.27</ele>
        <time>2014-09-14T04:40:09Z</time>
      </trkpt>
      <trkpt lat="43.18443" lon="1.80096">
        <ele>274.11</ele>
        <time>2014-09-14T04:40:27Z</time>
      </trkpt>
      <trkpt lat="43.18478" lon="1.79999">
        <ele>273.15</ele>
        <time>2014-09-14T04:40:39Z</time>
      </trkpt>
      <trkpt lat="43.18483" lon="1.79992">
        <ele>273.15</ele>
        <time>2014-09-14T04:40:40Z</time>
      </trkpt>
      <trkpt lat="43.1856" lon="1.79929">
        <ele>266.9</ele>
        <time>2014-09-14T04:40:50Z</time>
      </trkpt>
      <trkpt lat="43.18569" lon="1.79922">
        <ele>265.94</ele>
        <time>2014-09-14T04:40:51Z</time>
      </trkpt>
      <trkpt lat="43.18577" lon="1.79913">
        <ele>265.46</ele>
        <time>2014-09-14T04:40:52Z</time>
      </trkpt>
      <trkpt lat="43.18584" lon="1.79903">
        <ele>264.98</ele>
        <time>2014-09-14T04:40:53Z</time>
      </trkpt>
      <trkpt lat="43.1859" lon="1.79891">
        <ele>264.5</ele>
        <time>2014-09-14T04:40:54Z</time>
      </trkpt>
      <trkpt lat="43.18595" lon="1.7988">
        <ele>264.02</ele>
        <time>2014-09-14T04:40:55Z</time>
      </trkpt>
      <trkpt lat="43.18599" lon="1.79869">
        <ele>263.54</ele>
        <time>2014-09-14T04:40:56Z</time>
      </trkpt>
      <trkpt lat="43.18603" lon="1.79857">
        <ele>263.06</ele>
        <time>2014-09-14T04:40:57Z</time>
      </trkpt>
      <trkpt lat="43.18606" lon="1.79846">
        <ele>263.06</ele>
        <time>2014-09-14T04:40:58Z</time>
      </trkpt>
      <trkpt lat="43.18615" lon="1.79776">
        <ele>262.1</ele>
        <time>2014-09-14T04:41:05Z</time>
      </trkpt>
      <trkpt lat="43.18616" lon="1.79767">
        <ele>262.58</ele>
        <time>2014-09-14T04:41:06Z</time>
      </trkpt>
      <trkpt lat="43.18618" lon="1.79737">
        <ele>263.54</ele>
        <time>2014-09-14T04:41:10Z</time>
      </trkpt>
      <trkpt lat="43.18618" lon="1.79718">
        <ele>264.98</ele>
        <time>2014-09-14T04:41:13Z</time>
      </trkpt>
      <trkpt lat="43.1862" lon="1.79646">
        <ele>269.31</ele>
        <time>2014-09-14T04:41:25Z</time>
      </trkpt>
      <trkpt lat="43.1862" lon="1.7964">
        <ele>269.79</ele>
        <time>2014-09-14T04:41:26Z</time>
      </trkpt>
      <trkpt lat="43.1862" lon="1.79634">
        <ele>269.79</ele>
        <time>2014-09-14T04:41:27Z</time>
      </trkpt>
      <trkpt lat="43.18624" lon="1.79545">
        <ele>274.11</ele>
        <time>2014-09-14T04:41:42Z</time>
      </trkpt>
      <trkpt lat="43.18626" lon="1.79515">
        <ele>275.07</ele>
        <time>2014-09-14T04:41:47Z</time>
      </trkpt>
      <trkpt lat="43.18654" lon="1.79409">
        <ele>278.92</ele>
        <time>2014-09-14T04:42:06Z</time>
      </trkpt>
      <trkpt lat="43.18664" lon="1.79375">
        <ele>280.36</ele>
        <time>2014-09-14T04:42:12Z</time>
      </trkpt>
      <trkpt lat="43.18693" lon="1.79285">
        <ele>285.65</ele>
        <time>2014-09-14T04:42:29Z</time>
      </trkpt>
      <trkpt lat="43.18703" lon="1.79259">
        <ele>286.61</ele>
        <time>2014-09-14T04:42:34Z</time>
      </trkpt>
      <trkpt lat="43.18719" lon="1.79238">
        <ele>288.53</ele>
        <time>2014-09-14T04:42:39Z</time>
      </trkpt>
      <trkpt lat="43.18723" lon="1.79234">
        <ele>289.01</ele>
        <time>2014-09-14T04:42:40Z</time>
      </trkpt>
      <trkpt lat="43.18761" lon="1.79198">
        <ele>290.94</ele>
        <time>2014-09-14T04:42:51Z</time>
      </trkpt>
      <trkpt lat="43.18768" lon="1.79191">
        <ele>291.42</ele>
        <time>2014-09-14T04:42:53Z</time>
      </trkpt>
      <trkpt lat="43.18772" lon="1.79188">
        <ele>291.42</ele>
        <time>2014-09-14T04:42:54Z</time>
      </trkpt>
      <trkpt lat="43.18775" lon="1.79185">
        <ele>291.9</ele>
        <time>2014-09-14T04:42:55Z</time>
      </trkpt>
      <trkpt lat="43.18844" lon="1.79129">
        <ele>295.26</ele>
        <time>2014-09-14T04:43:13Z</time>
      </trkpt>
      <trkpt lat="43.18894" lon="1.79077">
        <ele>297.18</ele>
        <time>2014-09-14T04:43:27Z</time>
      </trkpt>
      <trkpt lat="43.18923" lon="1.79036">
        <ele>296.22</ele>
        <time>2014-09-14T04:43:35Z</time>
      </trkpt>
      <trkpt lat="43.18962" lon="1.78917">
        <ele>291.42</ele>
        <time>2014-09-14T04:43:50Z</time>
      </trkpt>
      <trkpt lat="43.1901" lon="1.7878">
        <ele>284.69</ele>
        <time>2014-09-14T04:44:03Z</time>
      </trkpt>
      <trkpt lat="43.19054" lon="1.78672">
        <ele>280.84</ele>
        <time>2014-09-14T04:44:12Z</time>
      </trkpt>
      <trkpt lat="43.19056" lon="1.7866">
        <ele>280.84</ele>
        <time>2014-09-14T04:44:13Z</time>
      </trkpt>
      <trkpt lat="43.19058" lon="1.78647">
        <ele>280.84</ele>
        <time>2014-09-14T04:44:14Z</time>
      </trkpt>
      <trkpt lat="43.1909" lon="1.78533">
        <ele>280.36</ele>
        <time>2014-09-14T04:44:25Z</time>
      </trkpt>
      <trkpt lat="43.19179" lon="1.7835">
        <ele>278.44</ele>
        <time>2014-09-14T04:44:45Z</time>
      </trkpt>
      <trkpt lat="43.19232" lon="1.78214">
        <ele>274.59</ele>
        <time>2014-09-14T04:44:58Z</time>
      </trkpt>
      <trkpt lat="43.1926" lon="1.78119">
        <ele>277.96</ele>
        <time>2014-09-14T04:45:09Z</time>
      </trkpt>
      <trkpt lat="43.19262" lon="1.78113">
        <ele>278.44</ele>
        <time>2014-09-14T04:45:10Z</time>
      </trkpt>
      <trkpt lat="43.19282" lon="1.78057">
        <ele>280.84</ele>
        <time>2014-09-14T04:45:19Z</time>
      </trkpt>
      <trkpt lat="43.19303" lon="1.7797">
        <ele>283.73</ele>
        <time>2014-09-14T04:45:33Z</time>
      </trkpt>
      <trkpt lat="43.19316" lon="1.77933">
        <ele>285.65</ele>
        <time>2014-09-14T04:45:39Z</time>
      </trkpt>
      <trkpt lat="43.19375" lon="1.77804">
        <ele>286.61</ele>
        <time>2014-09-14T04:45:59Z</time>
      </trkpt>
      <trkpt lat="43.19444" lon="1.77655">
        <ele>281.8</ele>
        <time>2014-09-14T04:46:17Z</time>
      </trkpt>
      <trkpt lat="43.19459" lon="1.77577">
        <ele>279.88</ele>
        <time>2014-09-14T04:46:25Z</time>
      </trkpt>
      <trkpt lat="43.1946" lon="1.77517">
        <ele>278.44</ele>
        <time>2014-09-14T04:46:31Z</time>
      </trkpt>
      <trkpt lat="43.19474" lon="1.77375">
        <ele>273.63</ele>
        <time>2014-09-14T04:46:44Z</time>
      </trkpt>
      <trkpt lat="43.19508" lon="1.77221">
        <ele>265.46</ele>
        <time>2014-09-14T04:46:56Z</time>
      </trkpt>
      <trkpt lat="43.19519" lon="1.77069">
        <ele>259.69</ele>
        <time>2014-09-14T04:47:06Z</time>
      </trkpt>
      <trkpt lat="43.19532" lon="1.76916">
        <ele>260.17</ele>
        <time>2014-09-14T04:47:19Z</time>
      </trkpt>
      <trkpt lat="43.1954" lon="1.7683">
        <ele>263.06</ele>
        <time>2014-09-14T04:47:30Z</time>
      </trkpt>
      <trkpt lat="43.19541" lon="1.76824">
        <ele>263.54</ele>
        <time>2014-09-14T04:47:31Z</time>
      </trkpt>
      <trkpt lat="43.19541" lon="1.76817">
        <ele>263.54</ele>
        <time>2014-09-14T04:47:32Z</time>
      </trkpt>
      <trkpt lat="43.19549" lon="1.76722">
        <ele>268.83</ele>
        <time>2014-09-14T04:47:48Z</time>
      </trkpt>
      <trkpt lat="43.19556" lon="1.7663">
        <ele>273.63</ele>
        <time>2014-09-14T04:48:05Z</time>
      </trkpt>
      <trkpt lat="43.19566" lon="1.7652">
        <ele>276.52</ele>
        <time>2014-09-14T04:48:25Z</time>
      </trkpt>
      <trkpt lat="43.19575" lon="1.76406">
        <ele>280.36</ele>
        <time>2014-09-14T04:48:46Z</time>
      </trkpt>
      <trkpt lat="43.19581" lon="1.76335">
        <ele>282.28</ele>
        <time>2014-09-14T04:49:00Z</time>
      </trkpt>
      <trkpt lat="43.19586" lon="1.76265">
        <ele>285.65</ele>
        <time>2014-09-14T04:49:14Z</time>
      </trkpt>
      <trkpt lat="43.19578" lon="1.76169">
        <ele>290.94</ele>
        <time>2014-09-14T04:49:32Z</time>
      </trkpt>
      <trkpt lat="43.19576" lon="1.76119">
        <ele>290.94</ele>
        <time>2014-09-14T04:49:39Z</time>
      </trkpt>
      <trkpt lat="43.19575" lon="1.76111">
        <ele>290.46</ele>
        <time>2014-09-14T04:49:40Z</time>
      </trkpt>
      <trkpt lat="43.19571" lon="1.76096">
        <ele>290.46</ele>
        <time>2014-09-14T04:49:42Z</time>
      </trkpt>
      <trkpt lat="43.19522" lon="1.7598">
        <ele>287.57</ele>
        <time>2014-09-14T04:49:56Z</time>
      </trkpt>
      <trkpt lat="43.19507" lon="1.75898">
        <ele>284.21</ele>
        <time>2014-09-14T04:50:03Z</time>
      </trkpt>
      <trkpt lat="43.19508" lon="1.75885">
        <ele>283.73</ele>
        <time>2014-09-14T04:50:04Z</time>
      </trkpt>
      <trkpt lat="43.19533" lon="1.75692">
        <ele>273.63</ele>
        <time>2014-09-14T04:50:17Z</time>
      </trkpt>
      <trkpt lat="43.19572" lon="1.75436">
        <ele>260.17</ele>
        <time>2014-09-14T04:50:33Z</time>
      </trkpt>
      <trkpt lat="43.19577" lon="1.75424">
        <ele>259.21</ele>
        <time>2014-09-14T04:50:34Z</time>
      </trkpt>
      <trkpt lat="43.19583" lon="1.75411">
        <ele>258.73</ele>
        <time>2014-09-14T04:50:35Z</time>
      </trkpt>
      <trkpt lat="43.1959" lon="1.75401">
        <ele>257.77</ele>
        <time>2014-09-14T04:50:36Z</time>
      </trkpt>
      <trkpt lat="43.19598" lon="1.75392">
        <ele>257.29</ele>
        <time>2014-09-14T04:50:37Z</time>
      </trkpt>
      <trkpt lat="43.19606" lon="1.75383">
        <ele>256.33</ele>
        <time>2014-09-14T04:50:38Z</time>
      </trkpt>
      <trkpt lat="43.19695" lon="1.75316">
        <ele>250.56</ele>
        <time>2014-09-14T04:50:48Z</time>
      </trkpt>
      <trkpt lat="43.19731" lon="1.75294">
        <ele>247.68</ele>
        <time>2014-09-14T04:50:53Z</time>
      </trkpt>
      <trkpt lat="43.19738" lon="1.75288">
        <ele>247.2</ele>
        <time>2014-09-14T04:50:54Z</time>
      </trkpt>
      <trkpt lat="43.19744" lon="1.75281">
        <ele>246.72</ele>
        <time>2014-09-14T04:50:55Z</time>
      </trkpt>
      <trkpt lat="43.19791" lon="1.75215">
        <ele>241.91</ele>
        <time>2014-09-14T04:51:04Z</time>
      </trkpt>
      <trkpt lat="43.19794" lon="1.7521">
        <ele>241.43</ele>
        <time>2014-09-14T04:51:05Z</time>
      </trkpt>
      <trkpt lat="43.19803" lon="1.7519">
        <ele>240.95</ele>
        <time>2014-09-14T04:51:08Z</time>
      </trkpt>
      <trkpt lat="43.19813" lon="1.7515">
        <ele>239.51</ele>
        <time>2014-09-14T04:51:13Z</time>
      </trkpt>
      <trkpt lat="43.19818" lon="1.75114">
        <ele>238.06</ele>
        <time>2014-09-14T04:51:17Z</time>
      </trkpt>
      <trkpt lat="43.19818" lon="1.75104">
        <ele>237.58</ele>
        <time>2014-09-14T04:51:18Z</time>
      </trkpt>
      <trkpt lat="43.19819" lon="1.75085">
        <ele>237.1</ele>
        <time>2014-09-14T04:51:20Z</time>
      </trkpt>
      <trkpt lat="43.1982" lon="1.75076">
        <ele>237.1</ele>
        <time>2014-09-14T04:51:21Z</time>
      </trkpt>
      <trkpt lat="43.19822" lon="1.75068">
        <ele>237.58</ele>
        <time>2014-09-14T04:51:22Z</time>
      </trkpt>
      <trkpt lat="43.1983" lon="1.75044">
        <ele>238.54</ele>
        <time>2014-09-14T04:51:25Z</time>
      </trkpt>
      <trkpt lat="43.19858" lon="1.74935">
        <ele>240.95</ele>
        <time>2014-09-14T04:51:39Z</time>
      </trkpt>
      <trkpt lat="43.19876" lon="1.74806">
        <ele>243.35</ele>
        <time>2014-09-14T04:51:55Z</time>
      </trkpt>
      <trkpt lat="43.199" lon="1.74624">
        <ele>243.35</ele>
        <time>2014-09-14T04:52:16Z</time>
      </trkpt>
      <trkpt lat="43.19921" lon="1.74472">
        <ele>245.75</ele>
        <time>2014-09-14T04:52:34Z</time>
      </trkpt>
      <trkpt lat="43.19941" lon="1.74321">
        <ele>245.75</ele>
        <time>2014-09-14T04:52:51Z</time>
      </trkpt>
      <trkpt lat="43.19961" lon="1.74174">
        <ele>245.27</ele>
        <time>2014-09-14T04:53:08Z</time>
      </trkpt>
      <trkpt lat="43.19985" lon="1.74007">
        <ele>245.27</ele>
        <time>2014-09-14T04:53:27Z</time>
      </trkpt>
      <trkpt lat="43.20005" lon="1.73866">
        <ele>245.75</ele>
        <time>2014-09-14T04:53:43Z</time>
      </trkpt>
      <trkpt lat="43.20026" lon="1.73718">
        <ele>247.2</ele>
        <time>2014-09-14T04:54:00Z</time>
      </trkpt>
      <trkpt lat="43.20047" lon="1.73567">
        <ele>247.68</ele>
        <time>2014-09-14T04:54:19Z</time>
      </trkpt>
      <trkpt lat="43.2005" lon="1.73546">
        <ele>248.16</ele>
        <time>2014-09-14T04:54:22Z</time>
      </trkpt>
      <trkpt lat="43.20051" lon="1.73539">
        <ele>248.64</ele>
        <time>2014-09-14T04:54:23Z</time>
      </trkpt>
      <trkpt lat="43.20058" lon="1.73479">
        <ele>250.08</ele>
        <time>2014-09-14T04:54:32Z</time>
      </trkpt>
      <trkpt lat="43.20059" lon="1.73472">
        <ele>250.56</ele>
        <time>2014-09-14T04:54:33Z</time>
      </trkpt>
      <trkpt lat="43.20059" lon="1.73465">
        <ele>251.04</ele>
        <time>2014-09-14T04:54:34Z</time>
      </trkpt>
      <trkpt lat="43.20059" lon="1.73458">
        <ele>251.52</ele>
        <time>2014-09-14T04:54:35Z</time>
      </trkpt>
      <trkpt lat="43.20059" lon="1.73451">
        <ele>251.52</ele>
        <time>2014-09-14T04:54:36Z</time>
      </trkpt>
      <trkpt lat="43.20057" lon="1.73444">
        <ele>252</ele>
        <time>2014-09-14T04:54:37Z</time>
      </trkpt>
      <trkpt lat="43.20056" lon="1.73438">
        <ele>252.48</ele>
        <time>2014-09-14T04:54:38Z</time>
      </trkpt>
      <trkpt lat="43.20054" lon="1.73431">
        <ele>252.48</ele>
        <time>2014-09-14T04:54:39Z</time>
      </trkpt>
      <trkpt lat="43.20051" lon="1.73425">
        <ele>252.96</ele>
        <time>2014-09-14T04:54:40Z</time>
      </trkpt>
      <trkpt lat="43.20047" lon="1.73419">
        <ele>253.44</ele>
        <time>2014-09-14T04:54:41Z</time>
      </trkpt>
      <trkpt lat="43.20043" lon="1.73415">
        <ele>253.44</ele>
        <time>2014-09-14T04:54:42Z</time>
      </trkpt>
      <trkpt lat="43.20039" lon="1.73411">
        <ele>253.93</ele>
        <time>2014-09-14T04:54:43Z</time>
      </trkpt>
      <trkpt lat="43.20034" lon="1.73408">
        <ele>253.93</ele>
        <time>2014-09-14T04:54:44Z</time>
      </trkpt>
      <trkpt lat="43.20029" lon="1.73406">
        <ele>253.93</ele>
        <time>2014-09-14T04:54:45Z</time>
      </trkpt>
      <trkpt lat="43.20024" lon="1.73404">
        <ele>253.93</ele>
        <time>2014-09-14T04:54:46Z</time>
      </trkpt>
      <trkpt lat="43.19937" lon="1.73366">
        <ele>254.41</ele>
        <time>2014-09-14T04:55:02Z</time>
      </trkpt>
      <trkpt lat="43.19872" lon="1.73297">
        <ele>255.85</ele>
        <time>2014-09-14T04:55:17Z</time>
      </trkpt>
      <trkpt lat="43.19772" lon="1.73231">
        <ele>257.77</ele>
        <time>2014-09-14T04:55:37Z</time>
      </trkpt>
      <trkpt lat="43.19665" lon="1.73196">
        <ele>256.33</ele>
        <time>2014-09-14T04:55:55Z</time>
      </trkpt>
      <trkpt lat="43.19583" lon="1.73134">
        <ele>256.81</ele>
        <time>2014-09-14T04:56:10Z</time>
      </trkpt>
      <trkpt lat="43.19515" lon="1.73028">
        <ele>258.25</ele>
        <time>2014-09-14T04:56:27Z</time>
      </trkpt>
      <trkpt lat="43.19488" lon="1.72993">
        <ele>258.73</ele>
        <time>2014-09-14T04:56:33Z</time>
      </trkpt>
      <trkpt lat="43.19392" lon="1.7293">
        <ele>259.69</ele>
        <time>2014-09-14T04:56:51Z</time>
      </trkpt>
      <trkpt lat="43.19246" lon="1.72858">
        <ele>259.21</ele>
        <time>2014-09-14T04:57:17Z</time>
      </trkpt>
      <trkpt lat="43.19181" lon="1.72786">
        <ele>259.21</ele>
        <time>2014-09-14T04:57:30Z</time>
      </trkpt>
      <trkpt lat="43.19103" lon="1.72689">
        <ele>260.65</ele>
        <time>2014-09-14T04:57:47Z</time>
      </trkpt>
      <trkpt lat="43.19046" lon="1.72622">
        <ele>263.54</ele>
        <time>2014-09-14T04:58:01Z</time>
      </trkpt>
      <trkpt lat="43.19017" lon="1.72591">
        <ele>264.5</ele>
        <time>2014-09-14T04:58:08Z</time>
      </trkpt>
      <trkpt lat="43.19004" lon="1.72579">
        <ele>265.46</ele>
        <time>2014-09-14T04:58:11Z</time>
      </trkpt>
      <trkpt lat="43.19" lon="1.72574">
        <ele>265.46</ele>
        <time>2014-09-14T04:58:12Z</time>
      </trkpt>
      <trkpt lat="43.18996" lon="1.7257">
        <ele>265.46</ele>
        <time>2014-09-14T04:58:13Z</time>
      </trkpt>
      <trkpt lat="43.18992" lon="1.72566">
        <ele>265.94</ele>
        <time>2014-09-14T04:58:14Z</time>
      </trkpt>
      <trkpt lat="43.18987" lon="1.72562">
        <ele>265.94</ele>
        <time>2014-09-14T04:58:15Z</time>
      </trkpt>
      <trkpt lat="43.18911" lon="1.72486">
        <ele>268.35</ele>
        <time>2014-09-14T04:58:32Z</time>
      </trkpt>
      <trkpt lat="43.18833" lon="1.72398">
        <ele>269.31</ele>
        <time>2014-09-14T04:58:49Z</time>
      </trkpt>
      <trkpt lat="43.18783" lon="1.72274">
        <ele>268.83</ele>
        <time>2014-09-14T04:59:06Z</time>
      </trkpt>
      <trkpt lat="43.18734" lon="1.7214">
        <ele>268.83</ele>
        <time>2014-09-14T04:59:24Z</time>
      </trkpt>
      <trkpt lat="43.18673" lon="1.72029">
        <ele>269.31</ele>
        <time>2014-09-14T04:59:41Z</time>
      </trkpt>
      <trkpt lat="43.18601" lon="1.71916">
        <ele>270.27</ele>
        <time>2014-09-14T04:59:59Z</time>
      </trkpt>
      <trkpt lat="43.1855" lon="1.71833">
        <ele>270.75</ele>
        <time>2014-09-14T05:00:12Z</time>
      </trkpt>
      <trkpt lat="43.18473" lon="1.71712">
        <ele>270.75</ele>
        <time>2014-09-14T05:00:31Z</time>
      </trkpt>
      <trkpt lat="43.18412" lon="1.71614">
        <ele>271.71</ele>
        <time>2014-09-14T05:00:47Z</time>
      </trkpt>
      <trkpt lat="43.18337" lon="1.71494">
        <ele>272.19</ele>
        <time>2014-09-14T05:01:06Z</time>
      </trkpt>
      <trkpt lat="43.18256" lon="1.71365">
        <ele>273.15</ele>
        <time>2014-09-14T05:01:26Z</time>
      </trkpt>
      <trkpt lat="43.18179" lon="1.71255">
        <ele>273.15</ele>
        <time>2014-09-14T05:01:44Z</time>
      </trkpt>
      <trkpt lat="43.18094" lon="1.71202">
        <ele>272.67</ele>
        <time>2014-09-14T05:02:00Z</time>
      </trkpt>
      <trkpt lat="43.17989" lon="1.7117">
        <ele>273.63</ele>
        <time>2014-09-14T05:02:18Z</time>
      </trkpt>
      <trkpt lat="43.17843" lon="1.71126">
        <ele>275.07</ele>
        <time>2014-09-14T05:02:43Z</time>
      </trkpt>
      <trkpt lat="43.17728" lon="1.71091">
        <ele>275.07</ele>
        <time>2014-09-14T05:03:02Z</time>
      </trkpt>
      <trkpt lat="43.17611" lon="1.71057">
        <ele>276.04</ele>
        <time>2014-09-14T05:03:21Z</time>
      </trkpt>
      <trkpt lat="43.17479" lon="1.71016">
        <ele>275.56</ele>
        <time>2014-09-14T05:03:43Z</time>
      </trkpt>
      <trkpt lat="43.17347" lon="1.70989">
        <ele>276.04</ele>
        <time>2014-09-14T05:04:05Z</time>
      </trkpt>
      <trkpt lat="43.17202" lon="1.70988">
        <ele>276.04</ele>
        <time>2014-09-14T05:04:29Z</time>
      </trkpt>
      <trkpt lat="43.17081" lon="1.70986">
        <ele>276.52</ele>
        <time>2014-09-14T05:04:49Z</time>
      </trkpt>
      <trkpt lat="43.16979" lon="1.70985">
        <ele>277.48</ele>
        <time>2014-09-14T05:05:06Z</time>
      </trkpt>
      <trkpt lat="43.16871" lon="1.70982">
        <ele>278.92</ele>
        <time>2014-09-14T05:05:24Z</time>
      </trkpt>
      <trkpt lat="43.16745" lon="1.70992">
        <ele>279.4</ele>
        <time>2014-09-14T05:05:45Z</time>
      </trkpt>
      <trkpt lat="43.16628" lon="1.71009">
        <ele>279.88</ele>
        <time>2014-09-14T05:06:04Z</time>
      </trkpt>
      <trkpt lat="43.16514" lon="1.71022">
        <ele>279.4</ele>
        <time>2014-09-14T05:06:22Z</time>
      </trkpt>
      <trkpt lat="43.16407" lon="1.71009">
        <ele>278.92</ele>
        <time>2014-09-14T05:06:39Z</time>
      </trkpt>
      <trkpt lat="43.1628" lon="1.70962">
        <ele>279.88</ele>
        <time>2014-09-14T05:06:59Z</time>
      </trkpt>
      <trkpt lat="43.16169" lon="1.7093">
        <ele>280.84</ele>
        <time>2014-09-14T05:07:17Z</time>
      </trkpt>
      <trkpt lat="43.16061" lon="1.70911">
        <ele>282.77</ele>
        <time>2014-09-14T05:07:35Z</time>
      </trkpt>
      <trkpt lat="43.15939" lon="1.70887">
        <ele>283.25</ele>
        <time>2014-09-14T05:07:55Z</time>
      </trkpt>
      <trkpt lat="43.15821" lon="1.70865">
        <ele>283.25</ele>
        <time>2014-09-14T05:08:14Z</time>
      </trkpt>
      <trkpt lat="43.15739" lon="1.70831">
        <ele>284.21</ele>
        <time>2014-09-14T05:08:28Z</time>
      </trkpt>
      <trkpt lat="43.15637" lon="1.70757">
        <ele>284.69</ele>
        <time>2014-09-14T05:08:46Z</time>
      </trkpt>
      <trkpt lat="43.15547" lon="1.7071">
        <ele>284.69</ele>
        <time>2014-09-14T05:09:01Z</time>
      </trkpt>
      <trkpt lat="43.15444" lon="1.70672">
        <ele>285.65</ele>
        <time>2014-09-14T05:09:18Z</time>
      </trkpt>
      <trkpt lat="43.15361" lon="1.70619">
        <ele>285.65</ele>
        <time>2014-09-14T05:09:32Z</time>
      </trkpt>
      <trkpt lat="43.1528" lon="1.70561">
        <ele>286.61</ele>
        <time>2014-09-14T05:09:46Z</time>
      </trkpt>
      <trkpt lat="43.15179" lon="1.70519">
        <ele>286.61</ele>
        <time>2014-09-14T05:10:03Z</time>
      </trkpt>
      <trkpt lat="43.15088" lon="1.70503">
        <ele>287.09</ele>
        <time>2014-09-14T05:10:18Z</time>
      </trkpt>
      <trkpt lat="43.14988" lon="1.70503">
        <ele>286.61</ele>
        <time>2014-09-14T05:10:34Z</time>
      </trkpt>
      <trkpt lat="43.14889" lon="1.70497">
        <ele>287.09</ele>
        <time>2014-09-14T05:10:50Z</time>
      </trkpt>
      <trkpt lat="43.14768" lon="1.70481">
        <ele>287.57</ele>
        <time>2014-09-14T05:11:09Z</time>
      </trkpt>
      <trkpt lat="43.14638" lon="1.70464">
        <ele>286.61</ele>
        <time>2014-09-14T05:11:29Z</time>
      </trkpt>
      <trkpt lat="43.14492" lon="1.70437">
        <ele>287.57</ele>
        <time>2014-09-14T05:11:52Z</time>
      </trkpt>
      <trkpt lat="43.14411" lon="1.70365">
        <ele>288.53</ele>
        <time>2014-09-14T05:12:07Z</time>
      </trkpt>
      <trkpt lat="43.14312" lon="1.70237">
        <ele>287.57</ele>
        <time>2014-09-14T05:12:27Z</time>
      </trkpt>
      <trkpt lat="43.14241" lon="1.70119">
        <ele>285.65</ele>
        <time>2014-09-14T05:12:42Z</time>
      </trkpt>
      <trkpt lat="43.14228" lon="1.69987">
        <ele>283.73</ele>
        <time>2014-09-14T05:12:54Z</time>
      </trkpt>
      <trkpt lat="43.14257" lon="1.69825">
        <ele>283.73</ele>
        <time>2014-09-14T05:13:10Z</time>
      </trkpt>
      <trkpt lat="43.14259" lon="1.69694">
        <ele>285.17</ele>
        <time>2014-09-14T05:13:24Z</time>
      </trkpt>
      <trkpt lat="43.14214" lon="1.69563">
        <ele>287.09</ele>
        <time>2014-09-14T05:13:40Z</time>
      </trkpt>
      <trkpt lat="43.14145" lon="1.69377">
        <ele>287.57</ele>
        <time>2014-09-14T05:14:02Z</time>
      </trkpt>
      <trkpt lat="43.14084" lon="1.69209">
        <ele>288.53</ele>
        <time>2014-09-14T05:14:22Z</time>
      </trkpt>
      <trkpt lat="43.14019" lon="1.6903">
        <ele>289.01</ele>
        <time>2014-09-14T05:14:43Z</time>
      </trkpt>
      <trkpt lat="43.13954" lon="1.68855">
        <ele>290.46</ele>
        <time>2014-09-14T05:15:03Z</time>
      </trkpt>
      <trkpt lat="43.13889" lon="1.6868">
        <ele>290.94</ele>
        <time>2014-09-14T05:15:24Z</time>
      </trkpt>
      <trkpt lat="43.1382" lon="1.68492">
        <ele>290.94</ele>
        <time>2014-09-14T05:15:46Z</time>
      </trkpt>
      <trkpt lat="43.13743" lon="1.68282">
        <ele>291.9</ele>
        <time>2014-09-14T05:16:10Z</time>
      </trkpt>
      <trkpt lat="43.13686" lon="1.68128">
        <ele>292.86</ele>
        <time>2014-09-14T05:16:28Z</time>
      </trkpt>
      <trkpt lat="43.13643" lon="1.68011">
        <ele>293.82</ele>
        <time>2014-09-14T05:16:42Z</time>
      </trkpt>
      <trkpt lat="43.13581" lon="1.67842">
        <ele>293.82</ele>
        <time>2014-09-14T05:17:02Z</time>
      </trkpt>
      <trkpt lat="43.13519" lon="1.67673">
        <ele>294.3</ele>
        <time>2014-09-14T05:17:22Z</time>
      </trkpt>
      <trkpt lat="43.13451" lon="1.67489">
        <ele>294.3</ele>
        <time>2014-09-14T05:17:44Z</time>
      </trkpt>
      <trkpt lat="43.13399" lon="1.67346">
        <ele>293.34</ele>
        <time>2014-09-14T05:18:01Z</time>
      </trkpt>
      <trkpt lat="43.13336" lon="1.67177">
        <ele>294.3</ele>
        <time>2014-09-14T05:18:21Z</time>
      </trkpt>
      <trkpt lat="43.13264" lon="1.66982">
        <ele>295.26</ele>
        <time>2014-09-14T05:18:44Z</time>
      </trkpt>
      <trkpt lat="43.13202" lon="1.66808">
        <ele>296.22</ele>
        <time>2014-09-14T05:19:05Z</time>
      </trkpt>
      <trkpt lat="43.13161" lon="1.66642">
        <ele>295.74</ele>
        <time>2014-09-14T05:19:23Z</time>
      </trkpt>
      <trkpt lat="43.13115" lon="1.66442">
        <ele>296.22</ele>
        <time>2014-09-14T05:19:45Z</time>
      </trkpt>
      <trkpt lat="43.13074" lon="1.66264">
        <ele>297.67</ele>
        <time>2014-09-14T05:20:05Z</time>
      </trkpt>
      <trkpt lat="43.13026" lon="1.66053">
        <ele>298.15</ele>
        <time>2014-09-14T05:20:28Z</time>
      </trkpt>
      <trkpt lat="43.1298" lon="1.65848">
        <ele>298.15</ele>
        <time>2014-09-14T05:20:50Z</time>
      </trkpt>
      <trkpt lat="43.12933" lon="1.65657">
        <ele>296.7</ele>
        <time>2014-09-14T05:21:10Z</time>
      </trkpt>
      <trkpt lat="43.12876" lon="1.65513">
        <ele>297.67</ele>
        <time>2014-09-14T05:21:27Z</time>
      </trkpt>
      <trkpt lat="43.12814" lon="1.65359">
        <ele>297.67</ele>
        <time>2014-09-14T05:21:45Z</time>
      </trkpt>
      <trkpt lat="43.12758" lon="1.65208">
        <ele>297.67</ele>
        <time>2014-09-14T05:22:02Z</time>
      </trkpt>
      <trkpt lat="43.12725" lon="1.65036">
        <ele>298.15</ele>
        <time>2014-09-14T05:22:20Z</time>
      </trkpt>
      <trkpt lat="43.12683" lon="1.64924">
        <ele>298.15</ele>
        <time>2014-09-14T05:22:33Z</time>
      </trkpt>
      <trkpt lat="43.12556" lon="1.6476">
        <ele>296.22</ele>
        <time>2014-09-14T05:22:56Z</time>
      </trkpt>
      <trkpt lat="43.12448" lon="1.64621">
        <ele>296.7</ele>
        <time>2014-09-14T05:23:16Z</time>
      </trkpt>
      <trkpt lat="43.12375" lon="1.64519">
        <ele>297.18</ele>
        <time>2014-09-14T05:23:31Z</time>
      </trkpt>
      <trkpt lat="43.1228" lon="1.64427">
        <ele>297.67</ele>
        <time>2014-09-14T05:23:48Z</time>
      </trkpt>
      <trkpt lat="43.12163" lon="1.64325">
        <ele>298.15</ele>
        <time>2014-09-14T05:24:08Z</time>
      </trkpt>
      <trkpt lat="43.12078" lon="1.64249">
        <ele>298.63</ele>
        <time>2014-09-14T05:24:23Z</time>
      </trkpt>
      <trkpt lat="43.11999" lon="1.64154">
        <ele>298.63</ele>
        <time>2014-09-14T05:24:39Z</time>
      </trkpt>
      <trkpt lat="43.11931" lon="1.6404">
        <ele>298.15</ele>
        <time>2014-09-14T05:24:55Z</time>
      </trkpt>
      <trkpt lat="43.11871" lon="1.63903">
        <ele>299.11</ele>
        <time>2014-09-14T05:25:12Z</time>
      </trkpt>
      <trkpt lat="43.11793" lon="1.63724">
        <ele>299.59</ele>
        <time>2014-09-14T05:25:35Z</time>
      </trkpt>
      <trkpt lat="43.11733" lon="1.63575">
        <ele>301.03</ele>
        <time>2014-09-14T05:25:54Z</time>
      </trkpt>
      <trkpt lat="43.11708" lon="1.63422">
        <ele>302.95</ele>
        <time>2014-09-14T05:26:12Z</time>
      </trkpt>
      <trkpt lat="43.11687" lon="1.63268">
        <ele>301.99</ele>
        <time>2014-09-14T05:26:29Z</time>
      </trkpt>
      <trkpt lat="43.1168" lon="1.63234">
        <ele>301.99</ele>
        <time>2014-09-14T05:26:33Z</time>
      </trkpt>
      <trkpt lat="43.11676" lon="1.63225">
        <ele>301.51</ele>
        <time>2014-09-14T05:26:34Z</time>
      </trkpt>
      <trkpt lat="43.11672" lon="1.63218">
        <ele>301.51</ele>
        <time>2014-09-14T05:26:35Z</time>
      </trkpt>
      <trkpt lat="43.11668" lon="1.63212">
        <ele>301.03</ele>
        <time>2014-09-14T05:26:36Z</time>
      </trkpt>
      <trkpt lat="43.11663" lon="1.63205">
        <ele>301.03</ele>
        <time>2014-09-14T05:26:37Z</time>
      </trkpt>
      <trkpt lat="43.11659" lon="1.632">
        <ele>301.03</ele>
        <time>2014-09-14T05:26:38Z</time>
      </trkpt>
      <trkpt lat="43.11655" lon="1.63196">
        <ele>300.55</ele>
        <time>2014-09-14T05:26:39Z</time>
      </trkpt>
      <trkpt lat="43.11647" lon="1.6319">
        <ele>300.55</ele>
        <time>2014-09-14T05:26:40Z</time>
      </trkpt>
      <trkpt lat="43.11583" lon="1.63101">
        <ele>296.7</ele>
        <time>2014-09-14T05:26:53Z</time>
      </trkpt>
      <trkpt lat="43.1157" lon="1.63063">
        <ele>295.26</ele>
        <time>2014-09-14T05:26:57Z</time>
      </trkpt>
      <trkpt lat="43.1156" lon="1.63038">
        <ele>294.3</ele>
        <time>2014-09-14T05:27:00Z</time>
      </trkpt>
      <trkpt lat="43.11544" lon="1.62974">
        <ele>293.82</ele>
        <time>2014-09-14T05:27:07Z</time>
      </trkpt>
      <trkpt lat="43.11543" lon="1.62968">
        <ele>293.82</ele>
        <time>2014-09-14T05:27:08Z</time>
      </trkpt>
      <trkpt lat="43.11541" lon="1.62944">
        <ele>293.82</ele>
        <time>2014-09-14T05:27:11Z</time>
      </trkpt>
      <trkpt lat="43.11542" lon="1.6287">
        <ele>294.78</ele>
        <time>2014-09-14T05:27:20Z</time>
      </trkpt>
      <trkpt lat="43.11576" lon="1.62752">
        <ele>297.18</ele>
        <time>2014-09-14T05:27:36Z</time>
      </trkpt>
      <trkpt lat="43.11597" lon="1.62699">
        <ele>298.15</ele>
        <time>2014-09-14T05:27:44Z</time>
      </trkpt>
      <trkpt lat="43.11598" lon="1.62691">
        <ele>298.63</ele>
        <time>2014-09-14T05:27:45Z</time>
      </trkpt>
      <trkpt lat="43.11598" lon="1.6268">
        <ele>298.63</ele>
        <time>2014-09-14T05:27:47Z</time>
      </trkpt>
      <trkpt lat="43.11597" lon="1.62672">
        <ele>298.63</ele>
        <time>2014-09-14T05:27:48Z</time>
      </trkpt>
      <trkpt lat="43.11588" lon="1.62557">
        <ele>299.59</ele>
        <time>2014-09-14T05:28:01Z</time>
      </trkpt>
      <trkpt lat="43.11564" lon="1.62381">
        <ele>299.11</ele>
        <time>2014-09-14T05:28:22Z</time>
      </trkpt>
      <trkpt lat="43.11546" lon="1.62247">
        <ele>298.63</ele>
        <time>2014-09-14T05:28:38Z</time>
      </trkpt>
      <trkpt lat="43.11526" lon="1.62112">
        <ele>299.59</ele>
        <time>2014-09-14T05:28:55Z</time>
      </trkpt>
      <trkpt lat="43.11522" lon="1.62105">
        <ele>299.59</ele>
        <time>2014-09-14T05:28:56Z</time>
      </trkpt>
      <trkpt lat="43.1147" lon="1.62034">
        <ele>298.15</ele>
        <time>2014-09-14T05:29:08Z</time>
      </trkpt>
      <trkpt lat="43.11467" lon="1.62027">
        <ele>298.15</ele>
        <time>2014-09-14T05:29:09Z</time>
      </trkpt>
      <trkpt lat="43.11436" lon="1.61944">
        <ele>297.67</ele>
        <time>2014-09-14T05:29:21Z</time>
      </trkpt>
      <trkpt lat="43.11434" lon="1.61936">
        <ele>297.18</ele>
        <time>2014-09-14T05:29:22Z</time>
      </trkpt>
      <trkpt lat="43.11432" lon="1.61927">
        <ele>297.18</ele>
        <time>2014-09-14T05:29:23Z</time>
      </trkpt>
      <trkpt lat="43.11431" lon="1.61918">
        <ele>297.18</ele>
        <time>2014-09-14T05:29:24Z</time>
      </trkpt>
      <trkpt lat="43.11432" lon="1.61908">
        <ele>297.18</ele>
        <time>2014-09-14T05:29:25Z</time>
      </trkpt>
      <trkpt lat="43.11434" lon="1.61899">
        <ele>297.18</ele>
        <time>2014-09-14T05:29:26Z</time>
      </trkpt>
      <trkpt lat="43.11437" lon="1.61891">
        <ele>296.7</ele>
        <time>2014-09-14T05:29:27Z</time>
      </trkpt>
      <trkpt lat="43.11442" lon="1.61884">
        <ele>296.7</ele>
        <time>2014-09-14T05:29:28Z</time>
      </trkpt>
      <trkpt lat="43.11449" lon="1.61876">
        <ele>296.22</ele>
        <time>2014-09-14T05:29:29Z</time>
      </trkpt>
      <trkpt lat="43.11453" lon="1.61872">
        <ele>296.22</ele>
        <time>2014-09-14T05:29:30Z</time>
      </trkpt>
      <trkpt lat="43.11484" lon="1.61841">
        <ele>295.26</ele>
        <time>2014-09-14T05:29:35Z</time>
      </trkpt>
      <trkpt lat="43.11489" lon="1.61833">
        <ele>295.26</ele>
        <time>2014-09-14T05:29:36Z</time>
      </trkpt>
      <trkpt lat="43.11494" lon="1.61824">
        <ele>294.78</ele>
        <time>2014-09-14T05:29:37Z</time>
      </trkpt>
      <trkpt lat="43.11498" lon="1.61814">
        <ele>294.78</ele>
        <time>2014-09-14T05:29:38Z</time>
      </trkpt>
      <trkpt lat="43.11502" lon="1.61804">
        <ele>294.3</ele>
        <time>2014-09-14T05:29:39Z</time>
      </trkpt>
      <trkpt lat="43.11505" lon="1.61793">
        <ele>294.3</ele>
        <time>2014-09-14T05:29:40Z</time>
      </trkpt>
      <trkpt lat="43.11556" lon="1.61609">
        <ele>288.53</ele>
        <time>2014-09-14T05:29:56Z</time>
      </trkpt>
      <trkpt lat="43.11565" lon="1.61571">
        <ele>289.01</ele>
        <time>2014-09-14T05:29:59Z</time>
      </trkpt>
      <trkpt lat="43.11567" lon="1.6156">
        <ele>288.53</ele>
        <time>2014-09-14T05:30:00Z</time>
      </trkpt>
      <trkpt lat="43.11569" lon="1.61514">
        <ele>288.53</ele>
        <time>2014-09-14T05:30:04Z</time>
      </trkpt>
      <trkpt lat="43.11567" lon="1.61505">
        <ele>288.53</ele>
        <time>2014-09-14T05:30:05Z</time>
      </trkpt>
      <trkpt lat="43.11562" lon="1.61482">
        <ele>286.61</ele>
        <time>2014-09-14T05:30:11Z</time>
      </trkpt>
      <trkpt lat="43.11565" lon="1.61477">
        <ele>285.65</ele>
        <time>2014-09-14T05:30:15Z</time>
      </trkpt>
      <trkpt lat="43.11566" lon="1.61476">
        <ele>285.65</ele>
        <time>2014-09-14T05:30:16Z</time>
      </trkpt>
      <trkpt lat="43.11568" lon="1.61476">
        <ele>285.65</ele>
        <time>2014-09-14T05:30:17Z</time>
      </trkpt>
      <trkpt lat="43.11579" lon="1.61477">
        <ele>285.65</ele>
        <time>2014-09-14T05:30:23Z</time>
      </trkpt>
      <trkpt lat="43.11578" lon="1.61473">
        <ele>287.57</ele>
        <time>2014-09-14T05:30:29Z</time>
      </trkpt>
      <trkpt lat="43.11575" lon="1.61472">
        <ele>287.57</ele>
        <time>2014-09-14T05:30:30Z</time>
      </trkpt>
      <trkpt lat="43.11571" lon="1.61471">
        <ele>288.05</ele>
        <time>2014-09-14T05:30:31Z</time>
      </trkpt>
      <trkpt lat="43.11567" lon="1.61468">
        <ele>288.05</ele>
        <time>2014-09-14T05:30:32Z</time>
      </trkpt>
      <trkpt lat="43.11564" lon="1.61464">
        <ele>288.53</ele>
        <time>2014-09-14T05:30:34Z</time>
      </trkpt>
      <trkpt lat="43.11561" lon="1.61456">
        <ele>288.53</ele>
        <time>2014-09-14T05:30:35Z</time>
      </trkpt>
      <trkpt lat="43.11561" lon="1.61451">
        <ele>288.53</ele>
        <time>2014-09-14T05:30:36Z</time>
      </trkpt>
      <trkpt lat="43.1156" lon="1.61443">
        <ele>288.53</ele>
        <time>2014-09-14T05:30:37Z</time>
      </trkpt>
      <trkpt lat="43.11559" lon="1.61437">
        <ele>288.53</ele>
        <time>2014-09-14T05:30:38Z</time>
      </trkpt>
      <trkpt lat="43.11559" lon="1.6134">
        <ele>288.53</ele>
        <time>2014-09-14T05:30:53Z</time>
      </trkpt>
      <trkpt lat="43.11568" lon="1.61218">
        <ele>287.09</ele>
        <time>2014-09-14T05:31:12Z</time>
      </trkpt>
      <trkpt lat="43.11594" lon="1.61121">
        <ele>292.86</ele>
        <time>2014-09-14T05:31:29Z</time>
      </trkpt>
      <trkpt lat="43.11595" lon="1.61106">
        <ele>292.86</ele>
        <time>2014-09-14T05:31:33Z</time>
      </trkpt>
      <trkpt lat="43.11592" lon="1.61105">
        <ele>293.34</ele>
        <time>2014-09-14T05:31:34Z</time>
      </trkpt>
      <trkpt lat="43.11588" lon="1.61102">
        <ele>293.82</ele>
        <time>2014-09-14T05:31:35Z</time>
      </trkpt>
      <trkpt lat="43.11585" lon="1.61099">
        <ele>294.3</ele>
        <time>2014-09-14T05:31:36Z</time>
      </trkpt>
      <trkpt lat="43.11581" lon="1.61096">
        <ele>294.78</ele>
        <time>2014-09-14T05:31:37Z</time>
      </trkpt>
      <trkpt lat="43.11571" lon="1.6108">
        <ele>295.74</ele>
        <time>2014-09-14T05:31:45Z</time>
      </trkpt>
      <trkpt lat="43.11579" lon="1.61067">
        <ele>296.22</ele>
        <time>2014-09-14T05:31:56Z</time>
      </trkpt>
      <trkpt lat="43.11587" lon="1.61071">
        <ele>300.07</ele>
        <time>2014-09-14T05:32:22Z</time>
      </trkpt>
      <trkpt lat="43.11594" lon="1.61078">
        <ele>303.91</ele>
        <time>2014-09-14T05:32:48Z</time>
      </trkpt>
      <trkpt lat="43.11597" lon="1.61077">
        <ele>308.24</ele>
        <time>2014-09-14T05:33:14Z</time>
      </trkpt>
      <trkpt lat="43.11594" lon="1.6108">
        <ele>300.55</ele>
        <time>2014-09-14T05:33:41Z</time>
      </trkpt>
      <trkpt lat="43.11595" lon="1.6108">
        <ele>301.51</ele>
        <time>2014-09-14T05:34:10Z</time>
      </trkpt>
      <trkpt lat="43.11598" lon="1.61075">
        <ele>301.03</ele>
        <time>2014-09-14T05:34:37Z</time>
      </trkpt>
      <trkpt lat="43.11603" lon="1.61078">
        <ele>296.7</ele>
        <time>2014-09-14T05:35:02Z</time>
      </trkpt>
      <trkpt lat="43.11606" lon="1.61077">
        <ele>301.51</ele>
        <time>2014-09-14T05:35:27Z</time>
      </trkpt>
      <trkpt lat="43.11609" lon="1.61084">
        <ele>303.91</ele>
        <time>2014-09-14T05:35:58Z</time>
      </trkpt>
      <trkpt lat="43.11593" lon="1.61078">
        <ele>301.03</ele>
        <time>2014-09-14T05:36:29Z</time>
      </trkpt>
      <trkpt lat="43.11591" lon="1.61076">
        <ele>298.63</ele>
        <time>2014-09-14T05:36:57Z</time>
      </trkpt>
      <trkpt lat="43.11593" lon="1.61072">
        <ele>298.63</ele>
        <time>2014-09-14T05:37:26Z</time>
      </trkpt>
      <trkpt lat="43.11589" lon="1.61069">
        <ele>296.7</ele>
        <time>2014-09-14T05:37:52Z</time>
      </trkpt>
      <trkpt lat="43.11585" lon="1.6107">
        <ele>296.7</ele>
        <time>2014-09-14T05:38:21Z</time>
      </trkpt>
      <trkpt lat="43.11581" lon="1.61071">
        <ele>297.67</ele>
        <time>2014-09-14T05:38:48Z</time>
      </trkpt>
      <trkpt lat="43.11583" lon="1.61074">
        <ele>295.74</ele>
        <time>2014-09-14T05:39:19Z</time>
      </trkpt>
      <trkpt lat="43.11589" lon="1.61081">
        <ele>296.7</ele>
        <time>2014-09-14T05:39:54Z</time>
      </trkpt>
      <trkpt lat="43.11596" lon="1.61084">
        <ele>297.18</ele>
        <time>2014-09-14T05:40:23Z</time>
      </trkpt>
      <trkpt lat="43.11602" lon="1.61085">
        <ele>291.42</ele>
        <time>2014-09-14T05:40:55Z</time>
      </trkpt>
      <trkpt lat="43.11612" lon="1.61088">
        <ele>290.94</ele>
        <time>2014-09-14T05:41:25Z</time>
      </trkpt>
      <trkpt lat="43.1161" lon="1.61089">
        <ele>289.01</ele>
        <time>2014-09-14T05:41:52Z</time>
      </trkpt>
      <trkpt lat="43.11609" lon="1.61092">
        <ele>292.86</ele>
        <time>2014-09-14T05:42:13Z</time>
      </trkpt>
      <trkpt lat="43.11613" lon="1.61093">
        <ele>291.42</ele>
        <time>2014-09-14T05:42:40Z</time>
      </trkpt>
      <trkpt lat="43.11591" lon="1.6107">
        <ele>288.05</ele>
        <time>2014-09-14T05:43:15Z</time>
      </trkpt>
      <trkpt lat="43.11588" lon="1.61066">
        <ele>287.57</ele>
        <time>2014-09-14T05:43:49Z</time>
      </trkpt>
      <trkpt lat="43.11598" lon="1.61071">
        <ele>286.61</ele>
        <time>2014-09-14T05:44:31Z</time>
      </trkpt>
      <trkpt lat="43.11596" lon="1.61068">
        <ele>281.8</ele>
        <time>2014-09-14T05:45:04Z</time>
      </trkpt>
      <trkpt lat="43.11598" lon="1.61068">
        <ele>292.86</ele>
        <time>2014-09-14T05:45:28Z</time>
      </trkpt>
      <trkpt lat="43.11595" lon="1.61071">
        <ele>296.22</ele>
        <time>2014-09-14T05:46:01Z</time>
      </trkpt>
      <trkpt lat="43.11596" lon="1.61074">
        <ele>294.78</ele>
        <time>2014-09-14T05:46:24Z</time>
      </trkpt>
      <trkpt lat="43.11613" lon="1.61082">
        <ele>291.42</ele>
        <time>2014-09-14T05:46:49Z</time>
      </trkpt>
      <trkpt lat="43.11628" lon="1.61095">
        <ele>286.13</ele>
        <time>2014-09-14T05:47:22Z</time>
      </trkpt>
      <trkpt lat="43.11639" lon="1.6111">
        <ele>286.61</ele>
        <time>2014-09-14T05:47:52Z</time>
      </trkpt>
      <trkpt lat="43.11626" lon="1.61107">
        <ele>281.32</ele>
        <time>2014-09-14T05:48:24Z</time>
      </trkpt>
      <trkpt lat="43.1163" lon="1.61105">
        <ele>277.48</ele>
        <time>2014-09-14T05:48:50Z</time>
      </trkpt>
      <trkpt lat="43.11616" lon="1.61091">
        <ele>276.04</ele>
        <time>2014-09-14T05:49:16Z</time>
      </trkpt>
      <trkpt lat="43.11608" lon="1.61087">
        <ele>276.04</ele>
        <time>2014-09-14T05:49:46Z</time>
      </trkpt>
      <trkpt lat="43.11605" lon="1.61093">
        <ele>276.04</ele>
        <time>2014-09-14T05:50:11Z</time>
      </trkpt>
      <trkpt lat="43.11602" lon="1.61092">
        <ele>277.48</ele>
        <time>2014-09-14T05:50:15Z</time>
      </trkpt>
      <trkpt lat="43.11602" lon="1.61092">
        <ele>278.44</ele>
        <time>2014-09-14T05:50:16Z</time>
      </trkpt>
      <trkpt lat="43.11602" lon="1.61092">
        <ele>278.92</ele>
        <time>2014-09-14T05:50:17Z</time>
      </trkpt>
      <trkpt lat="43.11602" lon="1.61092">
        <ele>279.4</ele>
        <time>2014-09-14T05:50:18Z</time>
      </trkpt>
      <trkpt lat="43.11603" lon="1.61093">
        <ele>279.4</ele>
        <time>2014-09-14T05:50:19Z</time>
      </trkpt>
      <trkpt lat="43.11603" lon="1.61095">
        <ele>279.88</ele>
        <time>2014-09-14T05:50:20Z</time>
      </trkpt>
      <trkpt lat="43.11603" lon="1.61097">
        <ele>279.88</ele>
        <time>2014-09-14T05:50:21Z</time>
      </trkpt>
      <trkpt lat="43.11603" lon="1.61098">
        <ele>280.36</ele>
        <time>2014-09-14T05:50:22Z</time>
      </trkpt>
      <trkpt lat="43.11606" lon="1.611">
        <ele>280.36</ele>
        <time>2014-09-14T05:50:28Z</time>
      </trkpt>
      <trkpt lat="43.11608" lon="1.61098">
        <ele>280.36</ele>
        <time>2014-09-14T05:50:29Z</time>
      </trkpt>
      <trkpt lat="43.11609" lon="1.61094">
        <ele>280.36</ele>
        <time>2014-09-14T05:50:30Z</time>
      </trkpt>
      <trkpt lat="43.11628" lon="1.61021">
        <ele>283.25</ele>
        <time>2014-09-14T05:50:46Z</time>
      </trkpt>
      <trkpt lat="43.11633" lon="1.60994">
        <ele>283.73</ele>
        <time>2014-09-14T05:50:51Z</time>
      </trkpt>
      <trkpt lat="43.11635" lon="1.60987">
        <ele>283.73</ele>
        <time>2014-09-14T05:50:52Z</time>
      </trkpt>
      <trkpt lat="43.11651" lon="1.60903">
        <ele>281.32</ele>
        <time>2014-09-14T05:51:03Z</time>
      </trkpt>
      <trkpt lat="43.11653" lon="1.60896">
        <ele>280.84</ele>
        <time>2014-09-14T05:51:04Z</time>
      </trkpt>
      <trkpt lat="43.11655" lon="1.60888">
        <ele>280.84</ele>
        <time>2014-09-14T05:51:05Z</time>
      </trkpt>
      <trkpt lat="43.11667" lon="1.60842">
        <ele>279.4</ele>
        <time>2014-09-14T05:51:11Z</time>
      </trkpt>
      <trkpt lat="43.11674" lon="1.60814">
        <ele>281.32</ele>
        <time>2014-09-14T05:51:15Z</time>
      </trkpt>
      <trkpt lat="43.11675" lon="1.60806">
        <ele>281.8</ele>
        <time>2014-09-14T05:51:16Z</time>
      </trkpt>
      <trkpt lat="43.11676" lon="1.60798">
        <ele>281.8</ele>
        <time>2014-09-14T05:51:17Z</time>
      </trkpt>
      <trkpt lat="43.11674" lon="1.60791">
        <ele>281.8</ele>
        <time>2014-09-14T05:51:18Z</time>
      </trkpt>
      <trkpt lat="43.11672" lon="1.60785">
        <ele>281.8</ele>
        <time>2014-09-14T05:51:19Z</time>
      </trkpt>
      <trkpt lat="43.11669" lon="1.60778">
        <ele>281.8</ele>
        <time>2014-09-14T05:51:20Z</time>
      </trkpt>
      <trkpt lat="43.11662" lon="1.60763">
        <ele>281.8</ele>
        <time>2014-09-14T05:51:22Z</time>
      </trkpt>
      <trkpt lat="43.11658" lon="1.60758">
        <ele>281.8</ele>
        <time>2014-09-14T05:51:23Z</time>
      </trkpt>
      <trkpt lat="43.11653" lon="1.60752">
        <ele>281.8</ele>
        <time>2014-09-14T05:51:24Z</time>
      </trkpt>
      <trkpt lat="43.11649" lon="1.6075">
        <ele>281.32</ele>
        <time>2014-09-14T05:51:25Z</time>
      </trkpt>
      <trkpt lat="43.11645" lon="1.60748">
        <ele>281.32</ele>
        <time>2014-09-14T05:51:26Z</time>
      </trkpt>
      <trkpt lat="43.1164" lon="1.60746">
        <ele>281.32</ele>
        <time>2014-09-14T05:51:27Z</time>
      </trkpt>
      <trkpt lat="43.11623" lon="1.6074">
        <ele>280.84</ele>
        <time>2014-09-14T05:51:30Z</time>
      </trkpt>
      <trkpt lat="43.11555" lon="1.607">
        <ele>279.4</ele>
        <time>2014-09-14T05:51:43Z</time>
      </trkpt>
      <trkpt lat="43.1152" lon="1.60671">
        <ele>278.92</ele>
        <time>2014-09-14T05:51:50Z</time>
      </trkpt>
      <trkpt lat="43.11515" lon="1.60665">
        <ele>278.92</ele>
        <time>2014-09-14T05:51:51Z</time>
      </trkpt>
      <trkpt lat="43.11471" lon="1.60585">
        <ele>278.44</ele>
        <time>2014-09-14T05:52:03Z</time>
      </trkpt>
      <trkpt lat="43.11464" lon="1.60571">
        <ele>278.44</ele>
        <time>2014-09-14T05:52:05Z</time>
      </trkpt>
      <trkpt lat="43.11461" lon="1.60565">
        <ele>278.44</ele>
        <time>2014-09-14T05:52:06Z</time>
      </trkpt>
      <trkpt lat="43.11461" lon="1.60558">
        <ele>277.96</ele>
        <time>2014-09-14T05:52:07Z</time>
      </trkpt>
      <trkpt lat="43.1146" lon="1.6055">
        <ele>277.96</ele>
        <time>2014-09-14T05:52:08Z</time>
      </trkpt>
      <trkpt lat="43.11457" lon="1.60543">
        <ele>277.96</ele>
        <time>2014-09-14T05:52:09Z</time>
      </trkpt>
      <trkpt lat="43.11454" lon="1.60542">
        <ele>277.96</ele>
        <time>2014-09-14T05:52:10Z</time>
      </trkpt>
      <trkpt lat="43.11446" lon="1.60542">
        <ele>277.96</ele>
        <time>2014-09-14T05:52:11Z</time>
      </trkpt>
      <trkpt lat="43.11443" lon="1.60541">
        <ele>277.96</ele>
        <time>2014-09-14T05:52:12Z</time>
      </trkpt>
      <trkpt lat="43.11437" lon="1.60541">
        <ele>278.44</ele>
        <time>2014-09-14T05:52:13Z</time>
      </trkpt>
      <trkpt lat="43.11426" lon="1.60541">
        <ele>278.92</ele>
        <time>2014-09-14T05:52:15Z</time>
      </trkpt>
      <trkpt lat="43.11383" lon="1.60555">
        <ele>281.8</ele>
        <time>2014-09-14T05:52:23Z</time>
      </trkpt>
      <trkpt lat="43.11379" lon="1.60559">
        <ele>282.28</ele>
        <time>2014-09-14T05:52:24Z</time>
      </trkpt>
      <trkpt lat="43.11376" lon="1.60563">
        <ele>282.28</ele>
        <time>2014-09-14T05:52:25Z</time>
      </trkpt>
      <trkpt lat="43.11371" lon="1.60567">
        <ele>282.77</ele>
        <time>2014-09-14T05:52:26Z</time>
      </trkpt>
      <trkpt lat="43.11367" lon="1.6057">
        <ele>283.25</ele>
        <time>2014-09-14T05:52:27Z</time>
      </trkpt>
      <trkpt lat="43.11363" lon="1.60572">
        <ele>283.25</ele>
        <time>2014-09-14T05:52:28Z</time>
      </trkpt>
      <trkpt lat="43.11359" lon="1.60571">
        <ele>283.73</ele>
        <time>2014-09-14T05:52:29Z</time>
      </trkpt>
      <trkpt lat="43.11353" lon="1.60566">
        <ele>284.21</ele>
        <time>2014-09-14T05:52:30Z</time>
      </trkpt>
      <trkpt lat="43.11352" lon="1.60562">
        <ele>284.21</ele>
        <time>2014-09-14T05:52:31Z</time>
      </trkpt>
      <trkpt lat="43.1135" lon="1.60556">
        <ele>284.21</ele>
        <time>2014-09-14T05:52:32Z</time>
      </trkpt>
      <trkpt lat="43.11348" lon="1.60548">
        <ele>284.69</ele>
        <time>2014-09-14T05:52:33Z</time>
      </trkpt>
      <trkpt lat="43.11308" lon="1.60431">
        <ele>285.17</ele>
        <time>2014-09-14T05:52:50Z</time>
      </trkpt>
      <trkpt lat="43.11271" lon="1.6032">
        <ele>288.53</ele>
        <time>2014-09-14T05:53:07Z</time>
      </trkpt>
      <trkpt lat="43.11263" lon="1.60294">
        <ele>289.97</ele>
        <time>2014-09-14T05:53:12Z</time>
      </trkpt>
      <trkpt lat="43.11255" lon="1.60255">
        <ele>292.38</ele>
        <time>2014-09-14T05:53:19Z</time>
      </trkpt>
      <trkpt lat="43.11256" lon="1.60232">
        <ele>292.86</ele>
        <time>2014-09-14T05:53:23Z</time>
      </trkpt>
      <trkpt lat="43.11277" lon="1.60133">
        <ele>296.7</ele>
        <time>2014-09-14T05:53:41Z</time>
      </trkpt>
      <trkpt lat="43.1128" lon="1.60129">
        <ele>296.7</ele>
        <time>2014-09-14T05:53:42Z</time>
      </trkpt>
      <trkpt lat="43.11283" lon="1.60124">
        <ele>297.18</ele>
        <time>2014-09-14T05:53:43Z</time>
      </trkpt>
      <trkpt lat="43.11286" lon="1.60121">
        <ele>297.18</ele>
        <time>2014-09-14T05:53:44Z</time>
      </trkpt>
      <trkpt lat="43.11289" lon="1.60117">
        <ele>297.67</ele>
        <time>2014-09-14T05:53:45Z</time>
      </trkpt>
      <trkpt lat="43.11299" lon="1.60105">
        <ele>298.15</ele>
        <time>2014-09-14T05:53:48Z</time>
      </trkpt>
      <trkpt lat="43.11304" lon="1.60097">
        <ele>298.63</ele>
        <time>2014-09-14T05:53:50Z</time>
      </trkpt>
      <trkpt lat="43.11306" lon="1.60092">
        <ele>298.63</ele>
        <time>2014-09-14T05:53:51Z</time>
      </trkpt>
      <trkpt lat="43.1131" lon="1.60081">
        <ele>298.63</ele>
        <time>2014-09-14T05:53:53Z</time>
      </trkpt>
      <trkpt lat="43.11311" lon="1.60075">
        <ele>298.63</ele>
        <time>2014-09-14T05:53:54Z</time>
      </trkpt>
      <trkpt lat="43.11319" lon="1.59991">
        <ele>301.51</ele>
        <time>2014-09-14T05:54:09Z</time>
      </trkpt>
      <trkpt lat="43.11323" lon="1.59974">
        <ele>301.99</ele>
        <time>2014-09-14T05:54:12Z</time>
      </trkpt>
      <trkpt lat="43.11347" lon="1.5993">
        <ele>303.91</ele>
        <time>2014-09-14T05:54:23Z</time>
      </trkpt>
      <trkpt lat="43.1135" lon="1.59926">
        <ele>304.39</ele>
        <time>2014-09-14T05:54:24Z</time>
      </trkpt>
      <trkpt lat="43.11354" lon="1.59922">
        <ele>304.39</ele>
        <time>2014-09-14T05:54:25Z</time>
      </trkpt>
      <trkpt lat="43.11356" lon="1.59919">
        <ele>304.88</ele>
        <time>2014-09-14T05:54:26Z</time>
      </trkpt>
      <trkpt lat="43.11359" lon="1.59916">
        <ele>304.88</ele>
        <time>2014-09-14T05:54:27Z</time>
      </trkpt>
      <trkpt lat="43.11362" lon="1.59912">
        <ele>305.36</ele>
        <time>2014-09-14T05:54:28Z</time>
      </trkpt>
      <trkpt lat="43.11381" lon="1.59849">
        <ele>309.68</ele>
        <time>2014-09-14T05:54:42Z</time>
      </trkpt>
      <trkpt lat="43.11383" lon="1.598">
        <ele>312.57</ele>
        <time>2014-09-14T05:54:54Z</time>
      </trkpt>
      <trkpt lat="43.11414" lon="1.59757">
        <ele>314.49</ele>
        <time>2014-09-14T05:55:09Z</time>
      </trkpt>
      <trkpt lat="43.11426" lon="1.59696">
        <ele>320.26</ele>
        <time>2014-09-14T05:55:24Z</time>
      </trkpt>
      <trkpt lat="43.11443" lon="1.59651">
        <ele>321.7</ele>
        <time>2014-09-14T05:55:38Z</time>
      </trkpt>
      <trkpt lat="43.11456" lon="1.59616">
        <ele>323.14</ele>
        <time>2014-09-14T05:55:49Z</time>
      </trkpt>
      <trkpt lat="43.11446" lon="1.59549">
        <ele>329.87</ele>
        <time>2014-09-14T05:56:05Z</time>
      </trkpt>
      <trkpt lat="43.11436" lon="1.59532">
        <ele>330.83</ele>
        <time>2014-09-14T05:56:11Z</time>
      </trkpt>
      <trkpt lat="43.11432" lon="1.59532">
        <ele>331.31</ele>
        <time>2014-09-14T05:56:12Z</time>
      </trkpt>
      <trkpt lat="43.11429" lon="1.59534">
        <ele>331.31</ele>
        <time>2014-09-14T05:56:13Z</time>
      </trkpt>
      <trkpt lat="43.11425" lon="1.59536">
        <ele>331.79</ele>
        <time>2014-09-14T05:56:14Z</time>
      </trkpt>
      <trkpt lat="43.11422" lon="1.59538">
        <ele>332.27</ele>
        <time>2014-09-14T05:56:15Z</time>
      </trkpt>
      <trkpt lat="43.11419" lon="1.59541">
        <ele>332.75</ele>
        <time>2014-09-14T05:56:16Z</time>
      </trkpt>
      <trkpt lat="43.11417" lon="1.59544">
        <ele>333.23</ele>
        <time>2014-09-14T05:56:17Z</time>
      </trkpt>
      <trkpt lat="43.11416" lon="1.59549">
        <ele>333.71</ele>
        <time>2014-09-14T05:56:18Z</time>
      </trkpt>
      <trkpt lat="43.11416" lon="1.59554">
        <ele>334.2</ele>
        <time>2014-09-14T05:56:19Z</time>
      </trkpt>
      <trkpt lat="43.11416" lon="1.59559">
        <ele>334.68</ele>
        <time>2014-09-14T05:56:20Z</time>
      </trkpt>
      <trkpt lat="43.11417" lon="1.59564">
        <ele>335.16</ele>
        <time>2014-09-14T05:56:21Z</time>
      </trkpt>
      <trkpt lat="43.11405" lon="1.59601">
        <ele>338.04</ele>
        <time>2014-09-14T05:56:33Z</time>
      </trkpt>
      <trkpt lat="43.11403" lon="1.59598">
        <ele>338.04</ele>
        <time>2014-09-14T05:56:34Z</time>
      </trkpt>
      <trkpt lat="43.11401" lon="1.59595">
        <ele>338.52</ele>
        <time>2014-09-14T05:56:35Z</time>
      </trkpt>
      <trkpt lat="43.114" lon="1.59591">
        <ele>338.52</ele>
        <time>2014-09-14T05:56:36Z</time>
      </trkpt>
      <trkpt lat="43.11399" lon="1.59587">
        <ele>339</ele>
        <time>2014-09-14T05:56:37Z</time>
      </trkpt>
      <trkpt lat="43.11394" lon="1.59538">
        <ele>340.92</ele>
        <time>2014-09-14T05:56:50Z</time>
      </trkpt>
      <trkpt lat="43.11393" lon="1.59481">
        <ele>344.77</ele>
        <time>2014-09-14T05:57:05Z</time>
      </trkpt>
      <trkpt lat="43.11401" lon="1.59423">
        <ele>350.06</ele>
        <time>2014-09-14T05:57:19Z</time>
      </trkpt>
      <trkpt lat="43.11402" lon="1.59346">
        <ele>354.38</ele>
        <time>2014-09-14T05:57:37Z</time>
      </trkpt>
      <trkpt lat="43.1138" lon="1.59296">
        <ele>359.19</ele>
        <time>2014-09-14T05:57:51Z</time>
      </trkpt>
      <trkpt lat="43.11335" lon="1.59276">
        <ele>363.04</ele>
        <time>2014-09-14T05:58:07Z</time>
      </trkpt>
      <trkpt lat="43.11289" lon="1.59282">
        <ele>363.52</ele>
        <time>2014-09-14T05:58:22Z</time>
      </trkpt>
      <trkpt lat="43.11237" lon="1.59262">
        <ele>367.36</ele>
        <time>2014-09-14T05:58:40Z</time>
      </trkpt>
      <trkpt lat="43.1119" lon="1.59202">
        <ele>372.17</ele>
        <time>2014-09-14T05:59:00Z</time>
      </trkpt>
      <trkpt lat="43.11158" lon="1.59146">
        <ele>375.05</ele>
        <time>2014-09-14T05:59:17Z</time>
      </trkpt>
      <trkpt lat="43.11155" lon="1.59076">
        <ele>378.42</ele>
        <time>2014-09-14T05:59:33Z</time>
      </trkpt>
      <trkpt lat="43.11124" lon="1.59019">
        <ele>382.26</ele>
        <time>2014-09-14T05:59:49Z</time>
      </trkpt>
      <trkpt lat="43.11087" lon="1.5898">
        <ele>385.63</ele>
        <time>2014-09-14T06:00:03Z</time>
      </trkpt>
      <trkpt lat="43.11059" lon="1.5892">
        <ele>388.99</ele>
        <time>2014-09-14T06:00:19Z</time>
      </trkpt>
      <trkpt lat="43.11042" lon="1.58885">
        <ele>390.91</ele>
        <time>2014-09-14T06:00:33Z</time>
      </trkpt>
      <trkpt lat="43.11041" lon="1.58848">
        <ele>391.87</ele>
        <time>2014-09-14T06:00:43Z</time>
      </trkpt>
      <trkpt lat="43.11048" lon="1.58795">
        <ele>391.87</ele>
        <time>2014-09-14T06:00:55Z</time>
      </trkpt>
      <trkpt lat="43.11056" lon="1.5872">
        <ele>391.39</ele>
        <time>2014-09-14T06:01:11Z</time>
      </trkpt>
      <trkpt lat="43.11045" lon="1.58655">
        <ele>391.39</ele>
        <time>2014-09-14T06:01:25Z</time>
      </trkpt>
      <trkpt lat="43.11021" lon="1.58597">
        <ele>393.8</ele>
        <time>2014-09-14T06:01:39Z</time>
      </trkpt>
      <trkpt lat="43.11037" lon="1.58552">
        <ele>395.72</ele>
        <time>2014-09-14T06:01:50Z</time>
      </trkpt>
      <trkpt lat="43.11077" lon="1.58518">
        <ele>399.57</ele>
        <time>2014-09-14T06:02:04Z</time>
      </trkpt>
      <trkpt lat="43.1113" lon="1.5848">
        <ele>406.29</ele>
        <time>2014-09-14T06:02:20Z</time>
      </trkpt>
      <trkpt lat="43.11169" lon="1.58426">
        <ele>411.58</ele>
        <time>2014-09-14T06:02:35Z</time>
      </trkpt>
      <trkpt lat="43.11169" lon="1.5841">
        <ele>411.58</ele>
        <time>2014-09-14T06:02:39Z</time>
      </trkpt>
      <trkpt lat="43.11168" lon="1.58408">
        <ele>412.06</ele>
        <time>2014-09-14T06:02:40Z</time>
      </trkpt>
      <trkpt lat="43.11166" lon="1.58407">
        <ele>412.06</ele>
        <time>2014-09-14T06:02:41Z</time>
      </trkpt>
      <trkpt lat="43.11161" lon="1.58405">
        <ele>413.98</ele>
        <time>2014-09-14T06:02:54Z</time>
      </trkpt>
      <trkpt lat="43.11163" lon="1.58411">
        <ele>415.91</ele>
        <time>2014-09-14T06:03:28Z</time>
      </trkpt>
      <trkpt lat="43.11157" lon="1.58404">
        <ele>414.95</ele>
        <time>2014-09-14T06:04:00Z</time>
      </trkpt>
      <trkpt lat="43.11161" lon="1.58406">
        <ele>414.95</ele>
        <time>2014-09-14T06:04:37Z</time>
      </trkpt>
      <trkpt lat="43.11165" lon="1.58407">
        <ele>416.87</ele>
        <time>2014-09-14T06:04:57Z</time>
      </trkpt>
      <trkpt lat="43.11161" lon="1.58409">
        <ele>419.27</ele>
        <time>2014-09-14T06:05:20Z</time>
      </trkpt>
      <trkpt lat="43.1116" lon="1.5841">
        <ele>419.75</ele>
        <time>2014-09-14T06:05:21Z</time>
      </trkpt>
      <trkpt lat="43.11133" lon="1.58438">
        <ele>421.19</ele>
        <time>2014-09-14T06:05:33Z</time>
      </trkpt>
      <trkpt lat="43.11129" lon="1.58441">
        <ele>421.68</ele>
        <time>2014-09-14T06:05:34Z</time>
      </trkpt>
      <trkpt lat="43.11125" lon="1.58444">
        <ele>421.68</ele>
        <time>2014-09-14T06:05:35Z</time>
      </trkpt>
      <trkpt lat="43.11121" lon="1.58447">
        <ele>422.16</ele>
        <time>2014-09-14T06:05:36Z</time>
      </trkpt>
      <trkpt lat="43.11116" lon="1.5845">
        <ele>422.16</ele>
        <time>2014-09-14T06:05:37Z</time>
      </trkpt>
      <trkpt lat="43.11113" lon="1.58452">
        <ele>422.64</ele>
        <time>2014-09-14T06:05:38Z</time>
      </trkpt>
      <trkpt lat="43.11108" lon="1.58453">
        <ele>422.64</ele>
        <time>2014-09-14T06:05:39Z</time>
      </trkpt>
      <trkpt lat="43.11103" lon="1.58454">
        <ele>423.12</ele>
        <time>2014-09-14T06:05:40Z</time>
      </trkpt>
      <trkpt lat="43.11099" lon="1.58455">
        <ele>423.12</ele>
        <time>2014-09-14T06:05:41Z</time>
      </trkpt>
      <trkpt lat="43.1103" lon="1.58451">
        <ele>426.96</ele>
        <time>2014-09-14T06:05:57Z</time>
      </trkpt>
      <trkpt lat="43.11022" lon="1.58446">
        <ele>426.96</ele>
        <time>2014-09-14T06:05:59Z</time>
      </trkpt>
      <trkpt lat="43.1101" lon="1.58437">
        <ele>426.96</ele>
        <time>2014-09-14T06:06:02Z</time>
      </trkpt>
      <trkpt lat="43.10939" lon="1.58362">
        <ele>422.16</ele>
        <time>2014-09-14T06:06:19Z</time>
      </trkpt>
      <trkpt lat="43.10907" lon="1.58329">
        <ele>420.23</ele>
        <time>2014-09-14T06:06:26Z</time>
      </trkpt>
      <trkpt lat="43.10902" lon="1.58326">
        <ele>420.23</ele>
        <time>2014-09-14T06:06:27Z</time>
      </trkpt>
      <trkpt lat="43.10896" lon="1.58324">
        <ele>420.23</ele>
        <time>2014-09-14T06:06:28Z</time>
      </trkpt>
      <trkpt lat="43.10891" lon="1.58324">
        <ele>419.75</ele>
        <time>2014-09-14T06:06:29Z</time>
      </trkpt>
      <trkpt lat="43.10885" lon="1.58326">
        <ele>419.75</ele>
        <time>2014-09-14T06:06:30Z</time>
      </trkpt>
      <trkpt lat="43.10879" lon="1.5833">
        <ele>419.27</ele>
        <time>2014-09-14T06:06:31Z</time>
      </trkpt>
      <trkpt lat="43.10874" lon="1.58336">
        <ele>419.27</ele>
        <time>2014-09-14T06:06:32Z</time>
      </trkpt>
      <trkpt lat="43.1087" lon="1.58342">
        <ele>419.27</ele>
        <time>2014-09-14T06:06:33Z</time>
      </trkpt>
      <trkpt lat="43.10866" lon="1.58349">
        <ele>419.27</ele>
        <time>2014-09-14T06:06:34Z</time>
      </trkpt>
      <trkpt lat="43.10863" lon="1.58356">
        <ele>419.27</ele>
        <time>2014-09-14T06:06:35Z</time>
      </trkpt>
      <trkpt lat="43.10822" lon="1.58432">
        <ele>418.31</ele>
        <time>2014-09-14T06:06:45Z</time>
      </trkpt>
      <trkpt lat="43.10819" lon="1.58439">
        <ele>418.31</ele>
        <time>2014-09-14T06:06:46Z</time>
      </trkpt>
      <trkpt lat="43.10816" lon="1.58448">
        <ele>418.31</ele>
        <time>2014-09-14T06:06:47Z</time>
      </trkpt>
      <trkpt lat="43.1078" lon="1.58585">
        <ele>415.43</ele>
        <time>2014-09-14T06:07:01Z</time>
      </trkpt>
      <trkpt lat="43.10773" lon="1.58605">
        <ele>414.47</ele>
        <time>2014-09-14T06:07:03Z</time>
      </trkpt>
      <trkpt lat="43.10768" lon="1.58615">
        <ele>413.98</ele>
        <time>2014-09-14T06:07:04Z</time>
      </trkpt>
      <trkpt lat="43.10757" lon="1.58632">
        <ele>413.5</ele>
        <time>2014-09-14T06:07:06Z</time>
      </trkpt>
      <trkpt lat="43.10752" lon="1.58638">
        <ele>413.02</ele>
        <time>2014-09-14T06:07:07Z</time>
      </trkpt>
      <trkpt lat="43.10746" lon="1.58645">
        <ele>412.54</ele>
        <time>2014-09-14T06:07:08Z</time>
      </trkpt>
      <trkpt lat="43.10663" lon="1.58709">
        <ele>408.7</ele>
        <time>2014-09-14T06:07:20Z</time>
      </trkpt>
      <trkpt lat="43.10655" lon="1.58711">
        <ele>408.22</ele>
        <time>2014-09-14T06:07:21Z</time>
      </trkpt>
      <trkpt lat="43.10647" lon="1.58712">
        <ele>407.74</ele>
        <time>2014-09-14T06:07:22Z</time>
      </trkpt>
      <trkpt lat="43.10638" lon="1.58712">
        <ele>407.74</ele>
        <time>2014-09-14T06:07:23Z</time>
      </trkpt>
      <trkpt lat="43.10629" lon="1.58709">
        <ele>407.26</ele>
        <time>2014-09-14T06:07:24Z</time>
      </trkpt>
      <trkpt lat="43.10621" lon="1.58706">
        <ele>407.26</ele>
        <time>2014-09-14T06:07:25Z</time>
      </trkpt>
      <trkpt lat="43.10614" lon="1.58701">
        <ele>407.26</ele>
        <time>2014-09-14T06:07:26Z</time>
      </trkpt>
      <trkpt lat="43.10607" lon="1.58693">
        <ele>407.26</ele>
        <time>2014-09-14T06:07:27Z</time>
      </trkpt>
      <trkpt lat="43.10602" lon="1.58681">
        <ele>406.77</ele>
        <time>2014-09-14T06:07:28Z</time>
      </trkpt>
      <trkpt lat="43.106" lon="1.58673">
        <ele>406.77</ele>
        <time>2014-09-14T06:07:29Z</time>
      </trkpt>
      <trkpt lat="43.10597" lon="1.5866">
        <ele>406.77</ele>
        <time>2014-09-14T06:07:30Z</time>
      </trkpt>
      <trkpt lat="43.10596" lon="1.58651">
        <ele>406.77</ele>
        <time>2014-09-14T06:07:31Z</time>
      </trkpt>
      <trkpt lat="43.10599" lon="1.58497">
        <ele>404.85</ele>
        <time>2014-09-14T06:07:45Z</time>
      </trkpt>
      <trkpt lat="43.10604" lon="1.58443">
        <ele>403.89</ele>
        <time>2014-09-14T06:07:50Z</time>
      </trkpt>
      <trkpt lat="43.10603" lon="1.58432">
        <ele>403.89</ele>
        <time>2014-09-14T06:07:51Z</time>
      </trkpt>
      <trkpt lat="43.10601" lon="1.58422">
        <ele>403.89</ele>
        <time>2014-09-14T06:07:52Z</time>
      </trkpt>
      <trkpt lat="43.10599" lon="1.58412">
        <ele>403.89</ele>
        <time>2014-09-14T06:07:53Z</time>
      </trkpt>
      <trkpt lat="43.10596" lon="1.58401">
        <ele>403.89</ele>
        <time>2014-09-14T06:07:54Z</time>
      </trkpt>
      <trkpt lat="43.10552" lon="1.58265">
        <ele>401.97</ele>
        <time>2014-09-14T06:08:09Z</time>
      </trkpt>
      <trkpt lat="43.10536" lon="1.58227">
        <ele>401.49</ele>
        <time>2014-09-14T06:08:13Z</time>
      </trkpt>
      <trkpt lat="43.10533" lon="1.58218">
        <ele>401.49</ele>
        <time>2014-09-14T06:08:14Z</time>
      </trkpt>
      <trkpt lat="43.10531" lon="1.58208">
        <ele>401.49</ele>
        <time>2014-09-14T06:08:15Z</time>
      </trkpt>
      <trkpt lat="43.10529" lon="1.58195">
        <ele>401.01</ele>
        <time>2014-09-14T06:08:16Z</time>
      </trkpt>
      <trkpt lat="43.10528" lon="1.58187">
        <ele>401.01</ele>
        <time>2014-09-14T06:08:17Z</time>
      </trkpt>
      <trkpt lat="43.10523" lon="1.58144">
        <ele>400.53</ele>
        <time>2014-09-14T06:08:21Z</time>
      </trkpt>
      <trkpt lat="43.1052" lon="1.58134">
        <ele>400.05</ele>
        <time>2014-09-14T06:08:22Z</time>
      </trkpt>
      <trkpt lat="43.10516" lon="1.58124">
        <ele>400.05</ele>
        <time>2014-09-14T06:08:23Z</time>
      </trkpt>
      <trkpt lat="43.10512" lon="1.58115">
        <ele>399.57</ele>
        <time>2014-09-14T06:08:24Z</time>
      </trkpt>
      <trkpt lat="43.10508" lon="1.58106">
        <ele>399.57</ele>
        <time>2014-09-14T06:08:25Z</time>
      </trkpt>
      <trkpt lat="43.10497" lon="1.58078">
        <ele>399.08</ele>
        <time>2014-09-14T06:08:28Z</time>
      </trkpt>
      <trkpt lat="43.10495" lon="1.58068">
        <ele>399.08</ele>
        <time>2014-09-14T06:08:29Z</time>
      </trkpt>
      <trkpt lat="43.10495" lon="1.58057">
        <ele>399.08</ele>
        <time>2014-09-14T06:08:30Z</time>
      </trkpt>
      <trkpt lat="43.10495" lon="1.58047">
        <ele>399.08</ele>
        <time>2014-09-14T06:08:31Z</time>
      </trkpt>
      <trkpt lat="43.10497" lon="1.58036">
        <ele>399.08</ele>
        <time>2014-09-14T06:08:32Z</time>
      </trkpt>
      <trkpt lat="43.10499" lon="1.58026">
        <ele>399.08</ele>
        <time>2014-09-14T06:08:33Z</time>
      </trkpt>
      <trkpt lat="43.10502" lon="1.58015">
        <ele>398.6</ele>
        <time>2014-09-14T06:08:34Z</time>
      </trkpt>
      <trkpt lat="43.10535" lon="1.57909">
        <ele>396.68</ele>
        <time>2014-09-14T06:08:45Z</time>
      </trkpt>
      <trkpt lat="43.10539" lon="1.57901">
        <ele>396.68</ele>
        <time>2014-09-14T06:08:46Z</time>
      </trkpt>
      <trkpt lat="43.10545" lon="1.57893">
        <ele>396.2</ele>
        <time>2014-09-14T06:08:47Z</time>
      </trkpt>
      <trkpt lat="43.1055" lon="1.57887">
        <ele>396.2</ele>
        <time>2014-09-14T06:08:48Z</time>
      </trkpt>
      <trkpt lat="43.10556" lon="1.57881">
        <ele>396.2</ele>
        <time>2014-09-14T06:08:49Z</time>
      </trkpt>
      <trkpt lat="43.10563" lon="1.57874">
        <ele>395.72</ele>
        <time>2014-09-14T06:08:50Z</time>
      </trkpt>
      <trkpt lat="43.10643" lon="1.57784">
        <ele>392.36</ele>
        <time>2014-09-14T06:09:04Z</time>
      </trkpt>
      <trkpt lat="43.10659" lon="1.57761">
        <ele>391.87</ele>
        <time>2014-09-14T06:09:07Z</time>
      </trkpt>
      <trkpt lat="43.10664" lon="1.57753">
        <ele>391.39</ele>
        <time>2014-09-14T06:09:08Z</time>
      </trkpt>
      <trkpt lat="43.10668" lon="1.57745">
        <ele>391.39</ele>
        <time>2014-09-14T06:09:09Z</time>
      </trkpt>
      <trkpt lat="43.10684" lon="1.57695">
        <ele>389.95</ele>
        <time>2014-09-14T06:09:14Z</time>
      </trkpt>
      <trkpt lat="43.10693" lon="1.57571">
        <ele>388.03</ele>
        <time>2014-09-14T06:09:25Z</time>
      </trkpt>
      <trkpt lat="43.1069" lon="1.5756">
        <ele>387.55</ele>
        <time>2014-09-14T06:09:26Z</time>
      </trkpt>
      <trkpt lat="43.10685" lon="1.5755">
        <ele>387.55</ele>
        <time>2014-09-14T06:09:27Z</time>
      </trkpt>
      <trkpt lat="43.10679" lon="1.57543">
        <ele>387.07</ele>
        <time>2014-09-14T06:09:28Z</time>
      </trkpt>
      <trkpt lat="43.10669" lon="1.57537">
        <ele>386.59</ele>
        <time>2014-09-14T06:09:29Z</time>
      </trkpt>
      <trkpt lat="43.10661" lon="1.57536">
        <ele>386.59</ele>
        <time>2014-09-14T06:09:30Z</time>
      </trkpt>
      <trkpt lat="43.1065" lon="1.57537">
        <ele>386.11</ele>
        <time>2014-09-14T06:09:31Z</time>
      </trkpt>
      <trkpt lat="43.1064" lon="1.57539">
        <ele>385.15</ele>
        <time>2014-09-14T06:09:32Z</time>
      </trkpt>
      <trkpt lat="43.10631" lon="1.57539">
        <ele>384.18</ele>
        <time>2014-09-14T06:09:33Z</time>
      </trkpt>
      <trkpt lat="43.10621" lon="1.57537">
        <ele>383.7</ele>
        <time>2014-09-14T06:09:34Z</time>
      </trkpt>
      <trkpt lat="43.1061" lon="1.57532">
        <ele>382.74</ele>
        <time>2014-09-14T06:09:35Z</time>
      </trkpt>
      <trkpt lat="43.10602" lon="1.57526">
        <ele>382.26</ele>
        <time>2014-09-14T06:09:36Z</time>
      </trkpt>
      <trkpt lat="43.10594" lon="1.57518">
        <ele>381.78</ele>
        <time>2014-09-14T06:09:37Z</time>
      </trkpt>
      <trkpt lat="43.10587" lon="1.57508">
        <ele>381.3</ele>
        <time>2014-09-14T06:09:38Z</time>
      </trkpt>
      <trkpt lat="43.10579" lon="1.57498">
        <ele>380.82</ele>
        <time>2014-09-14T06:09:39Z</time>
      </trkpt>
      <trkpt lat="43.10573" lon="1.57488">
        <ele>380.34</ele>
        <time>2014-09-14T06:09:40Z</time>
      </trkpt>
      <trkpt lat="43.10522" lon="1.5738">
        <ele>376.97</ele>
        <time>2014-09-14T06:09:49Z</time>
      </trkpt>
      <trkpt lat="43.1052" lon="1.57368">
        <ele>376.01</ele>
        <time>2014-09-14T06:09:50Z</time>
      </trkpt>
      <trkpt lat="43.10518" lon="1.57351">
        <ele>375.53</ele>
        <time>2014-09-14T06:09:51Z</time>
      </trkpt>
      <trkpt lat="43.10517" lon="1.57339">
        <ele>375.05</ele>
        <time>2014-09-14T06:09:52Z</time>
      </trkpt>
      <trkpt lat="43.10518" lon="1.57323">
        <ele>374.57</ele>
        <time>2014-09-14T06:09:53Z</time>
      </trkpt>
      <trkpt lat="43.10519" lon="1.5731">
        <ele>374.09</ele>
        <time>2014-09-14T06:09:54Z</time>
      </trkpt>
      <trkpt lat="43.10525" lon="1.57222">
        <ele>370.73</ele>
        <time>2014-09-14T06:10:00Z</time>
      </trkpt>
      <trkpt lat="43.10524" lon="1.57208">
        <ele>370.24</ele>
        <time>2014-09-14T06:10:01Z</time>
      </trkpt>
      <trkpt lat="43.10521" lon="1.57194">
        <ele>369.76</ele>
        <time>2014-09-14T06:10:02Z</time>
      </trkpt>
      <trkpt lat="43.10512" lon="1.57154">
        <ele>368.32</ele>
        <time>2014-09-14T06:10:05Z</time>
      </trkpt>
      <trkpt lat="43.10511" lon="1.57139">
        <ele>367.84</ele>
        <time>2014-09-14T06:10:06Z</time>
      </trkpt>
      <trkpt lat="43.10512" lon="1.57128">
        <ele>367.84</ele>
        <time>2014-09-14T06:10:07Z</time>
      </trkpt>
      <trkpt lat="43.10515" lon="1.57115">
        <ele>367.36</ele>
        <time>2014-09-14T06:10:08Z</time>
      </trkpt>
      <trkpt lat="43.10519" lon="1.57104">
        <ele>366.88</ele>
        <time>2014-09-14T06:10:09Z</time>
      </trkpt>
      <trkpt lat="43.10525" lon="1.57094">
        <ele>366.4</ele>
        <time>2014-09-14T06:10:10Z</time>
      </trkpt>
      <trkpt lat="43.10531" lon="1.57085">
        <ele>365.92</ele>
        <time>2014-09-14T06:10:11Z</time>
      </trkpt>
      <trkpt lat="43.10538" lon="1.57077">
        <ele>365.44</ele>
        <time>2014-09-14T06:10:12Z</time>
      </trkpt>
      <trkpt lat="43.10547" lon="1.57068">
        <ele>364.48</ele>
        <time>2014-09-14T06:10:13Z</time>
      </trkpt>
      <trkpt lat="43.10573" lon="1.57039">
        <ele>362.55</ele>
        <time>2014-09-14T06:10:16Z</time>
      </trkpt>
      <trkpt lat="43.10579" lon="1.57029">
        <ele>362.55</ele>
        <time>2014-09-14T06:10:17Z</time>
      </trkpt>
      <trkpt lat="43.10586" lon="1.57015">
        <ele>361.59</ele>
        <time>2014-09-14T06:10:18Z</time>
      </trkpt>
      <trkpt lat="43.1059" lon="1.57004">
        <ele>361.59</ele>
        <time>2014-09-14T06:10:19Z</time>
      </trkpt>
      <trkpt lat="43.10594" lon="1.56988">
        <ele>360.63</ele>
        <time>2014-09-14T06:10:20Z</time>
      </trkpt>
      <trkpt lat="43.10596" lon="1.56976">
        <ele>360.15</ele>
        <time>2014-09-14T06:10:21Z</time>
      </trkpt>
      <trkpt lat="43.10599" lon="1.56962">
        <ele>359.67</ele>
        <time>2014-09-14T06:10:22Z</time>
      </trkpt>
      <trkpt lat="43.10601" lon="1.56948">
        <ele>359.19</ele>
        <time>2014-09-14T06:10:23Z</time>
      </trkpt>
      <trkpt lat="43.10589" lon="1.56804">
        <ele>354.38</ele>
        <time>2014-09-14T06:10:33Z</time>
      </trkpt>
      <trkpt lat="43.10579" lon="1.56776">
        <ele>353.42</ele>
        <time>2014-09-14T06:10:35Z</time>
      </trkpt>
      <trkpt lat="43.10573" lon="1.56765">
        <ele>352.94</ele>
        <time>2014-09-14T06:10:36Z</time>
      </trkpt>
      <trkpt lat="43.10566" lon="1.56753">
        <ele>352.46</ele>
        <time>2014-09-14T06:10:37Z</time>
      </trkpt>
      <trkpt lat="43.10523" lon="1.56686">
        <ele>350.54</ele>
        <time>2014-09-14T06:10:43Z</time>
      </trkpt>
      <trkpt lat="43.10518" lon="1.56673">
        <ele>350.54</ele>
        <time>2014-09-14T06:10:44Z</time>
      </trkpt>
      <trkpt lat="43.10516" lon="1.56659">
        <ele>350.06</ele>
        <time>2014-09-14T06:10:45Z</time>
      </trkpt>
      <trkpt lat="43.10516" lon="1.56645">
        <ele>350.06</ele>
        <time>2014-09-14T06:10:46Z</time>
      </trkpt>
      <trkpt lat="43.10517" lon="1.5663">
        <ele>349.58</ele>
        <time>2014-09-14T06:10:47Z</time>
      </trkpt>
      <trkpt lat="43.1052" lon="1.56617">
        <ele>349.58</ele>
        <time>2014-09-14T06:10:48Z</time>
      </trkpt>
      <trkpt lat="43.10554" lon="1.56427">
        <ele>343.33</ele>
        <time>2014-09-14T06:11:01Z</time>
      </trkpt>
      <trkpt lat="43.10553" lon="1.56412">
        <ele>342.85</ele>
        <time>2014-09-14T06:11:02Z</time>
      </trkpt>
      <trkpt lat="43.1055" lon="1.56398">
        <ele>342.37</ele>
        <time>2014-09-14T06:11:03Z</time>
      </trkpt>
      <trkpt lat="43.10543" lon="1.56385">
        <ele>341.89</ele>
        <time>2014-09-14T06:11:04Z</time>
      </trkpt>
      <trkpt lat="43.10535" lon="1.56377">
        <ele>341.89</ele>
        <time>2014-09-14T06:11:05Z</time>
      </trkpt>
      <trkpt lat="43.10525" lon="1.56371">
        <ele>341.41</ele>
        <time>2014-09-14T06:11:06Z</time>
      </trkpt>
      <trkpt lat="43.10515" lon="1.56369">
        <ele>340.92</ele>
        <time>2014-09-14T06:11:07Z</time>
      </trkpt>
      <trkpt lat="43.10503" lon="1.56367">
        <ele>340.92</ele>
        <time>2014-09-14T06:11:08Z</time>
      </trkpt>
      <trkpt lat="43.10482" lon="1.56363">
        <ele>339.96</ele>
        <time>2014-09-14T06:11:10Z</time>
      </trkpt>
      <trkpt lat="43.10471" lon="1.56358">
        <ele>339.48</ele>
        <time>2014-09-14T06:11:11Z</time>
      </trkpt>
      <trkpt lat="43.1046" lon="1.56351">
        <ele>338.52</ele>
        <time>2014-09-14T06:11:12Z</time>
      </trkpt>
      <trkpt lat="43.10451" lon="1.56344">
        <ele>338.04</ele>
        <time>2014-09-14T06:11:13Z</time>
      </trkpt>
      <trkpt lat="43.1044" lon="1.56334">
        <ele>337.56</ele>
        <time>2014-09-14T06:11:14Z</time>
      </trkpt>
      <trkpt lat="43.10434" lon="1.56326">
        <ele>337.08</ele>
        <time>2014-09-14T06:11:15Z</time>
      </trkpt>
      <trkpt lat="43.10426" lon="1.56315">
        <ele>336.12</ele>
        <time>2014-09-14T06:11:16Z</time>
      </trkpt>
      <trkpt lat="43.10419" lon="1.56304">
        <ele>335.64</ele>
        <time>2014-09-14T06:11:17Z</time>
      </trkpt>
      <trkpt lat="43.10413" lon="1.56291">
        <ele>335.16</ele>
        <time>2014-09-14T06:11:18Z</time>
      </trkpt>
      <trkpt lat="43.10408" lon="1.56277">
        <ele>334.2</ele>
        <time>2014-09-14T06:11:19Z</time>
      </trkpt>
      <trkpt lat="43.10405" lon="1.56261">
        <ele>333.71</ele>
        <time>2014-09-14T06:11:20Z</time>
      </trkpt>
      <trkpt lat="43.10404" lon="1.56246">
        <ele>333.23</ele>
        <time>2014-09-14T06:11:21Z</time>
      </trkpt>
      <trkpt lat="43.10404" lon="1.56229">
        <ele>332.27</ele>
        <time>2014-09-14T06:11:22Z</time>
      </trkpt>
      <trkpt lat="43.1041" lon="1.56123">
        <ele>328.91</ele>
        <time>2014-09-14T06:11:29Z</time>
      </trkpt>
      <trkpt lat="43.10415" lon="1.56107">
        <ele>328.43</ele>
        <time>2014-09-14T06:11:30Z</time>
      </trkpt>
      <trkpt lat="43.10419" lon="1.56095">
        <ele>327.95</ele>
        <time>2014-09-14T06:11:31Z</time>
      </trkpt>
      <trkpt lat="43.10424" lon="1.5608">
        <ele>327.47</ele>
        <time>2014-09-14T06:11:32Z</time>
      </trkpt>
      <trkpt lat="43.1043" lon="1.56068">
        <ele>327.47</ele>
        <time>2014-09-14T06:11:33Z</time>
      </trkpt>
      <trkpt lat="43.10437" lon="1.56057">
        <ele>326.99</ele>
        <time>2014-09-14T06:11:34Z</time>
      </trkpt>
      <trkpt lat="43.10446" lon="1.56046">
        <ele>326.5</ele>
        <time>2014-09-14T06:11:35Z</time>
      </trkpt>
      <trkpt lat="43.10455" lon="1.56038">
        <ele>325.54</ele>
        <time>2014-09-14T06:11:36Z</time>
      </trkpt>
      <trkpt lat="43.10466" lon="1.56029">
        <ele>325.06</ele>
        <time>2014-09-14T06:11:37Z</time>
      </trkpt>
      <trkpt lat="43.10484" lon="1.56012">
        <ele>324.1</ele>
        <time>2014-09-14T06:11:39Z</time>
      </trkpt>
      <trkpt lat="43.10491" lon="1.56001">
        <ele>323.14</ele>
        <time>2014-09-14T06:11:40Z</time>
      </trkpt>
      <trkpt lat="43.10496" lon="1.55987">
        <ele>322.66</ele>
        <time>2014-09-14T06:11:41Z</time>
      </trkpt>
      <trkpt lat="43.10498" lon="1.55972">
        <ele>322.18</ele>
        <time>2014-09-14T06:11:42Z</time>
      </trkpt>
      <trkpt lat="43.10498" lon="1.55956">
        <ele>321.7</ele>
        <time>2014-09-14T06:11:43Z</time>
      </trkpt>
      <trkpt lat="43.10497" lon="1.55942">
        <ele>321.22</ele>
        <time>2014-09-14T06:11:44Z</time>
      </trkpt>
      <trkpt lat="43.10494" lon="1.55928">
        <ele>320.74</ele>
        <time>2014-09-14T06:11:45Z</time>
      </trkpt>
      <trkpt lat="43.10489" lon="1.55914">
        <ele>320.26</ele>
        <time>2014-09-14T06:11:46Z</time>
      </trkpt>
      <trkpt lat="43.10484" lon="1.55898">
        <ele>319.78</ele>
        <time>2014-09-14T06:11:47Z</time>
      </trkpt>
      <trkpt lat="43.1048" lon="1.55884">
        <ele>319.3</ele>
        <time>2014-09-14T06:11:48Z</time>
      </trkpt>
      <trkpt lat="43.10478" lon="1.55869">
        <ele>318.81</ele>
        <time>2014-09-14T06:11:49Z</time>
      </trkpt>
      <trkpt lat="43.10479" lon="1.55853">
        <ele>318.33</ele>
        <time>2014-09-14T06:11:50Z</time>
      </trkpt>
      <trkpt lat="43.10482" lon="1.55838">
        <ele>317.85</ele>
        <time>2014-09-14T06:11:51Z</time>
      </trkpt>
      <trkpt lat="43.10486" lon="1.55823">
        <ele>317.37</ele>
        <time>2014-09-14T06:11:52Z</time>
      </trkpt>
      <trkpt lat="43.10491" lon="1.55809">
        <ele>316.89</ele>
        <time>2014-09-14T06:11:53Z</time>
      </trkpt>
      <trkpt lat="43.10506" lon="1.55766">
        <ele>315.45</ele>
        <time>2014-09-14T06:11:56Z</time>
      </trkpt>
      <trkpt lat="43.10512" lon="1.55752">
        <ele>314.97</ele>
        <time>2014-09-14T06:11:57Z</time>
      </trkpt>
      <trkpt lat="43.10546" lon="1.55678">
        <ele>312.57</ele>
        <time>2014-09-14T06:12:03Z</time>
      </trkpt>
      <trkpt lat="43.10549" lon="1.55665">
        <ele>312.09</ele>
        <time>2014-09-14T06:12:04Z</time>
      </trkpt>
      <trkpt lat="43.10552" lon="1.55651">
        <ele>311.6</ele>
        <time>2014-09-14T06:12:05Z</time>
      </trkpt>
      <trkpt lat="43.10607" lon="1.55413">
        <ele>306.8</ele>
        <time>2014-09-14T06:12:22Z</time>
      </trkpt>
      <trkpt lat="43.1067" lon="1.55327">
        <ele>303.91</ele>
        <time>2014-09-14T06:12:31Z</time>
      </trkpt>
      <trkpt lat="43.10679" lon="1.5532">
        <ele>303.91</ele>
        <time>2014-09-14T06:12:32Z</time>
      </trkpt>
      <trkpt lat="43.10688" lon="1.55315">
        <ele>303.43</ele>
        <time>2014-09-14T06:12:33Z</time>
      </trkpt>
      <trkpt lat="43.10698" lon="1.55311">
        <ele>303.43</ele>
        <time>2014-09-14T06:12:34Z</time>
      </trkpt>
      <trkpt lat="43.10708" lon="1.55307">
        <ele>302.95</ele>
        <time>2014-09-14T06:12:35Z</time>
      </trkpt>
      <trkpt lat="43.10717" lon="1.55304">
        <ele>302.95</ele>
        <time>2014-09-14T06:12:36Z</time>
      </trkpt>
      <trkpt lat="43.10746" lon="1.55294">
        <ele>301.99</ele>
        <time>2014-09-14T06:12:39Z</time>
      </trkpt>
      <trkpt lat="43.10755" lon="1.55288">
        <ele>301.99</ele>
        <time>2014-09-14T06:12:40Z</time>
      </trkpt>
      <trkpt lat="43.10763" lon="1.55279">
        <ele>301.51</ele>
        <time>2014-09-14T06:12:41Z</time>
      </trkpt>
      <trkpt lat="43.10769" lon="1.55268">
        <ele>301.51</ele>
        <time>2014-09-14T06:12:42Z</time>
      </trkpt>
      <trkpt lat="43.10774" lon="1.55254">
        <ele>301.03</ele>
        <time>2014-09-14T06:12:43Z</time>
      </trkpt>
      <trkpt lat="43.10777" lon="1.55238">
        <ele>300.55</ele>
        <time>2014-09-14T06:12:44Z</time>
      </trkpt>
      <trkpt lat="43.10778" lon="1.55224">
        <ele>300.07</ele>
        <time>2014-09-14T06:12:45Z</time>
      </trkpt>
      <trkpt lat="43.10778" lon="1.55211">
        <ele>299.59</ele>
        <time>2014-09-14T06:12:46Z</time>
      </trkpt>
      <trkpt lat="43.10774" lon="1.55028">
        <ele>296.7</ele>
        <time>2014-09-14T06:13:00Z</time>
      </trkpt>
      <trkpt lat="43.10772" lon="1.54911">
        <ele>297.67</ele>
        <time>2014-09-14T06:13:12Z</time>
      </trkpt>
      <trkpt lat="43.10767" lon="1.54757">
        <ele>298.63</ele>
        <time>2014-09-14T06:13:29Z</time>
      </trkpt>
      <trkpt lat="43.10765" lon="1.54598">
        <ele>300.07</ele>
        <time>2014-09-14T06:13:47Z</time>
      </trkpt>
      <trkpt lat="43.10761" lon="1.5444">
        <ele>301.99</ele>
        <time>2014-09-14T06:14:06Z</time>
      </trkpt>
      <trkpt lat="43.10758" lon="1.54286">
        <ele>305.84</ele>
        <time>2014-09-14T06:14:26Z</time>
      </trkpt>
      <trkpt lat="43.10755" lon="1.54158">
        <ele>308.72</ele>
        <time>2014-09-14T06:14:43Z</time>
      </trkpt>
      <trkpt lat="43.10753" lon="1.54023">
        <ele>311.12</ele>
        <time>2014-09-14T06:15:01Z</time>
      </trkpt>
      <trkpt lat="43.10777" lon="1.53878">
        <ele>311.6</ele>
        <time>2014-09-14T06:15:20Z</time>
      </trkpt>
      <trkpt lat="43.108" lon="1.53749">
        <ele>313.53</ele>
        <time>2014-09-14T06:15:37Z</time>
      </trkpt>
      <trkpt lat="43.10828" lon="1.53595">
        <ele>316.41</ele>
        <time>2014-09-14T06:15:58Z</time>
      </trkpt>
      <trkpt lat="43.10856" lon="1.53438">
        <ele>319.3</ele>
        <time>2014-09-14T06:16:20Z</time>
      </trkpt>
      <trkpt lat="43.10883" lon="1.53286">
        <ele>321.22</ele>
        <time>2014-09-14T06:16:41Z</time>
      </trkpt>
      <trkpt lat="43.10891" lon="1.5324">
        <ele>322.66</ele>
        <time>2014-09-14T06:16:48Z</time>
      </trkpt>
      <trkpt lat="43.10893" lon="1.53226">
        <ele>322.66</ele>
        <time>2014-09-14T06:16:50Z</time>
      </trkpt>
      <trkpt lat="43.10895" lon="1.53219">
        <ele>323.14</ele>
        <time>2014-09-14T06:16:51Z</time>
      </trkpt>
      <trkpt lat="43.10896" lon="1.53214">
        <ele>323.14</ele>
        <time>2014-09-14T06:16:52Z</time>
      </trkpt>
      <trkpt lat="43.10897" lon="1.53207">
        <ele>323.62</ele>
        <time>2014-09-14T06:16:53Z</time>
      </trkpt>
      <trkpt lat="43.10898" lon="1.53201">
        <ele>323.62</ele>
        <time>2014-09-14T06:16:54Z</time>
      </trkpt>
      <trkpt lat="43.10899" lon="1.53194">
        <ele>324.1</ele>
        <time>2014-09-14T06:16:55Z</time>
      </trkpt>
      <trkpt lat="43.10917" lon="1.53092">
        <ele>327.47</ele>
        <time>2014-09-14T06:17:11Z</time>
      </trkpt>
      <trkpt lat="43.10932" lon="1.53005">
        <ele>331.31</ele>
        <time>2014-09-14T06:17:26Z</time>
      </trkpt>
      <trkpt lat="43.10943" lon="1.52949">
        <ele>333.23</ele>
        <time>2014-09-14T06:17:36Z</time>
      </trkpt>
      <trkpt lat="43.10945" lon="1.52932">
        <ele>333.71</ele>
        <time>2014-09-14T06:17:39Z</time>
      </trkpt>
      <trkpt lat="43.10968" lon="1.52812">
        <ele>338.52</ele>
        <time>2014-09-14T06:18:00Z</time>
      </trkpt>
      <trkpt lat="43.10992" lon="1.52681">
        <ele>342.85</ele>
        <time>2014-09-14T06:18:23Z</time>
      </trkpt>
      <trkpt lat="43.11011" lon="1.52566">
        <ele>346.69</ele>
        <time>2014-09-14T06:18:43Z</time>
      </trkpt>
      <trkpt lat="43.11032" lon="1.52444">
        <ele>350.54</ele>
        <time>2014-09-14T06:19:04Z</time>
      </trkpt>
      <trkpt lat="43.11053" lon="1.52329">
        <ele>356.31</ele>
        <time>2014-09-14T06:19:25Z</time>
      </trkpt>
      <trkpt lat="43.11061" lon="1.52257">
        <ele>360.63</ele>
        <time>2014-09-14T06:19:39Z</time>
      </trkpt>
      <trkpt lat="43.11045" lon="1.5219">
        <ele>366.4</ele>
        <time>2014-09-14T06:19:53Z</time>
      </trkpt>
      <trkpt lat="43.11031" lon="1.5211">
        <ele>369.76</ele>
        <time>2014-09-14T06:20:08Z</time>
      </trkpt>
      <trkpt lat="43.11039" lon="1.52043">
        <ele>372.65</ele>
        <time>2014-09-14T06:20:21Z</time>
      </trkpt>
      <trkpt lat="43.11058" lon="1.5193">
        <ele>375.05</ele>
        <time>2014-09-14T06:20:43Z</time>
      </trkpt>
      <trkpt lat="43.11083" lon="1.51837">
        <ele>377.94</ele>
        <time>2014-09-14T06:21:02Z</time>
      </trkpt>
      <trkpt lat="43.11112" lon="1.51742">
        <ele>382.74</ele>
        <time>2014-09-14T06:21:22Z</time>
      </trkpt>
      <trkpt lat="43.11104" lon="1.51642">
        <ele>388.03</ele>
        <time>2014-09-14T06:21:42Z</time>
      </trkpt>
      <trkpt lat="43.11077" lon="1.51554">
        <ele>395.72</ele>
        <time>2014-09-14T06:22:01Z</time>
      </trkpt>
      <trkpt lat="43.11057" lon="1.51465">
        <ele>397.64</ele>
        <time>2014-09-14T06:22:19Z</time>
      </trkpt>
      <trkpt lat="43.11057" lon="1.51394">
        <ele>397.16</ele>
        <time>2014-09-14T06:22:32Z</time>
      </trkpt>
      <trkpt lat="43.11072" lon="1.51302">
        <ele>398.6</ele>
        <time>2014-09-14T06:22:49Z</time>
      </trkpt>
      <trkpt lat="43.11099" lon="1.51201">
        <ele>400.53</ele>
        <time>2014-09-14T06:23:09Z</time>
      </trkpt>
      <trkpt lat="43.11124" lon="1.51139">
        <ele>401.97</ele>
        <time>2014-09-14T06:23:22Z</time>
      </trkpt>
      <trkpt lat="43.11145" lon="1.51092">
        <ele>404.37</ele>
        <time>2014-09-14T06:23:31Z</time>
      </trkpt>
      <trkpt lat="43.11175" lon="1.50972">
        <ele>405.81</ele>
        <time>2014-09-14T06:23:49Z</time>
      </trkpt>
      <trkpt lat="43.11203" lon="1.50833">
        <ele>407.26</ele>
        <time>2014-09-14T06:24:10Z</time>
      </trkpt>
      <trkpt lat="43.11226" lon="1.50716">
        <ele>408.7</ele>
        <time>2014-09-14T06:24:28Z</time>
      </trkpt>
      <trkpt lat="43.11252" lon="1.50588">
        <ele>412.06</ele>
        <time>2014-09-14T06:24:48Z</time>
      </trkpt>
      <trkpt lat="43.1126" lon="1.50547">
        <ele>413.5</ele>
        <time>2014-09-14T06:24:55Z</time>
      </trkpt>
      <trkpt lat="43.11261" lon="1.50542">
        <ele>413.5</ele>
        <time>2014-09-14T06:24:56Z</time>
      </trkpt>
      <trkpt lat="43.11277" lon="1.50464">
        <ele>416.39</ele>
        <time>2014-09-14T06:25:10Z</time>
      </trkpt>
      <trkpt lat="43.11282" lon="1.50438">
        <ele>417.83</ele>
        <time>2014-09-14T06:25:15Z</time>
      </trkpt>
      <trkpt lat="43.11283" lon="1.50433">
        <ele>418.31</ele>
        <time>2014-09-14T06:25:16Z</time>
      </trkpt>
      <trkpt lat="43.11286" lon="1.50423">
        <ele>418.79</ele>
        <time>2014-09-14T06:25:18Z</time>
      </trkpt>
      <trkpt lat="43.11295" lon="1.50353">
        <ele>422.64</ele>
        <time>2014-09-14T06:25:31Z</time>
      </trkpt>
      <trkpt lat="43.1128" lon="1.50267">
        <ele>426.48</ele>
        <time>2014-09-14T06:25:47Z</time>
      </trkpt>
      <trkpt lat="43.11269" lon="1.50212">
        <ele>427.92</ele>
        <time>2014-09-14T06:25:57Z</time>
      </trkpt>
      <trkpt lat="43.11234" lon="1.50125">
        <ele>431.77</ele>
        <time>2014-09-14T06:26:14Z</time>
      </trkpt>
      <trkpt lat="43.11196" lon="1.50029">
        <ele>436.1</ele>
        <time>2014-09-14T06:26:32Z</time>
      </trkpt>
      <trkpt lat="43.1116" lon="1.49949">
        <ele>438.98</ele>
        <time>2014-09-14T06:26:48Z</time>
      </trkpt>
      <trkpt lat="43.11144" lon="1.49924">
        <ele>439.46</ele>
        <time>2014-09-14T06:26:53Z</time>
      </trkpt>
      <trkpt lat="43.11137" lon="1.49905">
        <ele>439.94</ele>
        <time>2014-09-14T06:26:56Z</time>
      </trkpt>
      <trkpt lat="43.11135" lon="1.49898">
        <ele>439.94</ele>
        <time>2014-09-14T06:26:57Z</time>
      </trkpt>
      <trkpt lat="43.11117" lon="1.49796">
        <ele>439.46</ele>
        <time>2014-09-14T06:27:12Z</time>
      </trkpt>
      <trkpt lat="43.11093" lon="1.49703">
        <ele>440.9</ele>
        <time>2014-09-14T06:27:25Z</time>
      </trkpt>
      <trkpt lat="43.11092" lon="1.49688">
        <ele>441.38</ele>
        <time>2014-09-14T06:27:27Z</time>
      </trkpt>
      <trkpt lat="43.11112" lon="1.49593">
        <ele>442.82</ele>
        <time>2014-09-14T06:27:40Z</time>
      </trkpt>
      <trkpt lat="43.11161" lon="1.49465">
        <ele>446.19</ele>
        <time>2014-09-14T06:27:58Z</time>
      </trkpt>
      <trkpt lat="43.11211" lon="1.49364">
        <ele>447.63</ele>
        <time>2014-09-14T06:28:13Z</time>
      </trkpt>
      <trkpt lat="43.11272" lon="1.49272">
        <ele>447.63</ele>
        <time>2014-09-14T06:28:28Z</time>
      </trkpt>
      <trkpt lat="43.11273" lon="1.49264">
        <ele>447.63</ele>
        <time>2014-09-14T06:28:29Z</time>
      </trkpt>
      <trkpt lat="43.11275" lon="1.49255">
        <ele>447.63</ele>
        <time>2014-09-14T06:28:30Z</time>
      </trkpt>
      <trkpt lat="43.11276" lon="1.49247">
        <ele>447.63</ele>
        <time>2014-09-14T06:28:31Z</time>
      </trkpt>
      <trkpt lat="43.11276" lon="1.49238">
        <ele>447.63</ele>
        <time>2014-09-14T06:28:32Z</time>
      </trkpt>
      <trkpt lat="43.11276" lon="1.4923">
        <ele>447.63</ele>
        <time>2014-09-14T06:28:33Z</time>
      </trkpt>
      <trkpt lat="43.11249" lon="1.49144">
        <ele>447.15</ele>
        <time>2014-09-14T06:28:45Z</time>
      </trkpt>
      <trkpt lat="43.11218" lon="1.49096">
        <ele>448.11</ele>
        <time>2014-09-14T06:28:53Z</time>
      </trkpt>
      <trkpt lat="43.11215" lon="1.49089">
        <ele>447.63</ele>
        <time>2014-09-14T06:28:54Z</time>
      </trkpt>
      <trkpt lat="43.11213" lon="1.49081">
        <ele>448.11</ele>
        <time>2014-09-14T06:28:55Z</time>
      </trkpt>
      <trkpt lat="43.11208" lon="1.4896">
        <ele>447.15</ele>
        <time>2014-09-14T06:29:10Z</time>
      </trkpt>
      <trkpt lat="43.11219" lon="1.48819">
        <ele>448.11</ele>
        <time>2014-09-14T06:29:27Z</time>
      </trkpt>
      <trkpt lat="43.1122" lon="1.48664">
        <ele>449.07</ele>
        <time>2014-09-14T06:29:47Z</time>
      </trkpt>
      <trkpt lat="43.11213" lon="1.48618">
        <ele>449.07</ele>
        <time>2014-09-14T06:29:53Z</time>
      </trkpt>
      <trkpt lat="43.11211" lon="1.48612">
        <ele>449.07</ele>
        <time>2014-09-14T06:29:54Z</time>
      </trkpt>
      <trkpt lat="43.11208" lon="1.48605">
        <ele>449.07</ele>
        <time>2014-09-14T06:29:55Z</time>
      </trkpt>
      <trkpt lat="43.11196" lon="1.48581">
        <ele>448.59</ele>
        <time>2014-09-14T06:29:59Z</time>
      </trkpt>
      <trkpt lat="43.11192" lon="1.48576">
        <ele>448.59</ele>
        <time>2014-09-14T06:30:00Z</time>
      </trkpt>
      <trkpt lat="43.11169" lon="1.48557">
        <ele>449.55</ele>
        <time>2014-09-14T06:30:05Z</time>
      </trkpt>
      <trkpt lat="43.11132" lon="1.48536">
        <ele>450.52</ele>
        <time>2014-09-14T06:30:13Z</time>
      </trkpt>
      <trkpt lat="43.11127" lon="1.48534">
        <ele>451</ele>
        <time>2014-09-14T06:30:14Z</time>
      </trkpt>
      <trkpt lat="43.11122" lon="1.48532">
        <ele>451</ele>
        <time>2014-09-14T06:30:15Z</time>
      </trkpt>
      <trkpt lat="43.11118" lon="1.48529">
        <ele>451.48</ele>
        <time>2014-09-14T06:30:16Z</time>
      </trkpt>
      <trkpt lat="43.11113" lon="1.48526">
        <ele>451.48</ele>
        <time>2014-09-14T06:30:17Z</time>
      </trkpt>
      <trkpt lat="43.1109" lon="1.48512">
        <ele>452.44</ele>
        <time>2014-09-14T06:30:22Z</time>
      </trkpt>
      <trkpt lat="43.11085" lon="1.48508">
        <ele>452.44</ele>
        <time>2014-09-14T06:30:23Z</time>
      </trkpt>
      <trkpt lat="43.11081" lon="1.48504">
        <ele>452.92</ele>
        <time>2014-09-14T06:30:24Z</time>
      </trkpt>
      <trkpt lat="43.11078" lon="1.48499">
        <ele>452.92</ele>
        <time>2014-09-14T06:30:25Z</time>
      </trkpt>
      <trkpt lat="43.11074" lon="1.48494">
        <ele>452.92</ele>
        <time>2014-09-14T06:30:26Z</time>
      </trkpt>
      <trkpt lat="43.11071" lon="1.48488">
        <ele>452.92</ele>
        <time>2014-09-14T06:30:27Z</time>
      </trkpt>
      <trkpt lat="43.11069" lon="1.48481">
        <ele>452.44</ele>
        <time>2014-09-14T06:30:28Z</time>
      </trkpt>
      <trkpt lat="43.11068" lon="1.48473">
        <ele>452.44</ele>
        <time>2014-09-14T06:30:29Z</time>
      </trkpt>
      <trkpt lat="43.11068" lon="1.48465">
        <ele>452.44</ele>
        <time>2014-09-14T06:30:30Z</time>
      </trkpt>
      <trkpt lat="43.11069" lon="1.48456">
        <ele>451.96</ele>
        <time>2014-09-14T06:30:31Z</time>
      </trkpt>
      <trkpt lat="43.11071" lon="1.48448">
        <ele>451.96</ele>
        <time>2014-09-14T06:30:32Z</time>
      </trkpt>
      <trkpt lat="43.11101" lon="1.48309">
        <ele>447.15</ele>
        <time>2014-09-14T06:30:46Z</time>
      </trkpt>
      <trkpt lat="43.11157" lon="1.48115">
        <ele>441.38</ele>
        <time>2014-09-14T06:31:01Z</time>
      </trkpt>
      <trkpt lat="43.11178" lon="1.48014">
        <ele>437.06</ele>
        <time>2014-09-14T06:31:08Z</time>
      </trkpt>
      <trkpt lat="43.11177" lon="1.47998">
        <ele>436.58</ele>
        <time>2014-09-14T06:31:09Z</time>
      </trkpt>
      <trkpt lat="43.11175" lon="1.47981">
        <ele>436.1</ele>
        <time>2014-09-14T06:31:10Z</time>
      </trkpt>
      <trkpt lat="43.11172" lon="1.47968">
        <ele>435.61</ele>
        <time>2014-09-14T06:31:11Z</time>
      </trkpt>
      <trkpt lat="43.11167" lon="1.47954">
        <ele>434.65</ele>
        <time>2014-09-14T06:31:12Z</time>
      </trkpt>
      <trkpt lat="43.11162" lon="1.47939">
        <ele>434.17</ele>
        <time>2014-09-14T06:31:13Z</time>
      </trkpt>
      <trkpt lat="43.11083" lon="1.47796">
        <ele>427.92</ele>
        <time>2014-09-14T06:31:24Z</time>
      </trkpt>
      <trkpt lat="43.1098" lon="1.47665">
        <ele>422.64</ele>
        <time>2014-09-14T06:31:37Z</time>
      </trkpt>
      <trkpt lat="43.10974" lon="1.47653">
        <ele>422.16</ele>
        <time>2014-09-14T06:31:38Z</time>
      </trkpt>
      <trkpt lat="43.10968" lon="1.47641">
        <ele>421.68</ele>
        <time>2014-09-14T06:31:39Z</time>
      </trkpt>
      <trkpt lat="43.10964" lon="1.47629">
        <ele>421.68</ele>
        <time>2014-09-14T06:31:40Z</time>
      </trkpt>
      <trkpt lat="43.10961" lon="1.47616">
        <ele>421.19</ele>
        <time>2014-09-14T06:31:41Z</time>
      </trkpt>
      <trkpt lat="43.10959" lon="1.47603">
        <ele>421.19</ele>
        <time>2014-09-14T06:31:42Z</time>
      </trkpt>
      <trkpt lat="43.10957" lon="1.47589">
        <ele>420.71</ele>
        <time>2014-09-14T06:31:43Z</time>
      </trkpt>
      <trkpt lat="43.1095" lon="1.47444">
        <ele>419.75</ele>
        <time>2014-09-14T06:31:55Z</time>
      </trkpt>
      <trkpt lat="43.10985" lon="1.47292">
        <ele>419.75</ele>
        <time>2014-09-14T06:32:09Z</time>
      </trkpt>
      <trkpt lat="43.10988" lon="1.47281">
        <ele>419.27</ele>
        <time>2014-09-14T06:32:10Z</time>
      </trkpt>
      <trkpt lat="43.1099" lon="1.4727">
        <ele>419.27</ele>
        <time>2014-09-14T06:32:11Z</time>
      </trkpt>
      <trkpt lat="43.10991" lon="1.47259">
        <ele>419.27</ele>
        <time>2014-09-14T06:32:12Z</time>
      </trkpt>
      <trkpt lat="43.10991" lon="1.47248">
        <ele>418.79</ele>
        <time>2014-09-14T06:32:13Z</time>
      </trkpt>
      <trkpt lat="43.10991" lon="1.47236">
        <ele>418.79</ele>
        <time>2014-09-14T06:32:14Z</time>
      </trkpt>
      <trkpt lat="43.10984" lon="1.4718">
        <ele>418.31</ele>
        <time>2014-09-14T06:32:19Z</time>
      </trkpt>
      <trkpt lat="43.10982" lon="1.4717">
        <ele>418.31</ele>
        <time>2014-09-14T06:32:20Z</time>
      </trkpt>
      <trkpt lat="43.10977" lon="1.47159">
        <ele>418.31</ele>
        <time>2014-09-14T06:32:21Z</time>
      </trkpt>
      <trkpt lat="43.10973" lon="1.47152">
        <ele>418.31</ele>
        <time>2014-09-14T06:32:22Z</time>
      </trkpt>
      <trkpt lat="43.10967" lon="1.47144">
        <ele>418.31</ele>
        <time>2014-09-14T06:32:23Z</time>
      </trkpt>
      <trkpt lat="43.1096" lon="1.47135">
        <ele>418.31</ele>
        <time>2014-09-14T06:32:24Z</time>
      </trkpt>
      <trkpt lat="43.1091" lon="1.47051">
        <ele>417.83</ele>
        <time>2014-09-14T06:32:34Z</time>
      </trkpt>
      <trkpt lat="43.10879" lon="1.46929">
        <ele>417.83</ele>
        <time>2014-09-14T06:32:47Z</time>
      </trkpt>
      <trkpt lat="43.10879" lon="1.46918">
        <ele>417.83</ele>
        <time>2014-09-14T06:32:48Z</time>
      </trkpt>
      <trkpt lat="43.1088" lon="1.46908">
        <ele>417.83</ele>
        <time>2014-09-14T06:32:49Z</time>
      </trkpt>
      <trkpt lat="43.10881" lon="1.46898">
        <ele>418.31</ele>
        <time>2014-09-14T06:32:50Z</time>
      </trkpt>
      <trkpt lat="43.10884" lon="1.46888">
        <ele>418.31</ele>
        <time>2014-09-14T06:32:51Z</time>
      </trkpt>
      <trkpt lat="43.10889" lon="1.46879">
        <ele>418.31</ele>
        <time>2014-09-14T06:32:52Z</time>
      </trkpt>
      <trkpt lat="43.10894" lon="1.46872">
        <ele>418.31</ele>
        <time>2014-09-14T06:32:53Z</time>
      </trkpt>
      <trkpt lat="43.109" lon="1.46865">
        <ele>418.31</ele>
        <time>2014-09-14T06:32:54Z</time>
      </trkpt>
      <trkpt lat="43.10906" lon="1.46857">
        <ele>418.31</ele>
        <time>2014-09-14T06:32:55Z</time>
      </trkpt>
      <trkpt lat="43.10928" lon="1.46831">
        <ele>418.79</ele>
        <time>2014-09-14T06:32:59Z</time>
      </trkpt>
      <trkpt lat="43.10933" lon="1.46823">
        <ele>418.79</ele>
        <time>2014-09-14T06:33:00Z</time>
      </trkpt>
      <trkpt lat="43.10938" lon="1.46815">
        <ele>418.79</ele>
        <time>2014-09-14T06:33:01Z</time>
      </trkpt>
      <trkpt lat="43.10941" lon="1.46806">
        <ele>418.79</ele>
        <time>2014-09-14T06:33:02Z</time>
      </trkpt>
      <trkpt lat="43.10944" lon="1.46795">
        <ele>418.79</ele>
        <time>2014-09-14T06:33:03Z</time>
      </trkpt>
      <trkpt lat="43.10946" lon="1.46785">
        <ele>418.79</ele>
        <time>2014-09-14T06:33:04Z</time>
      </trkpt>
      <trkpt lat="43.10947" lon="1.46774">
        <ele>418.79</ele>
        <time>2014-09-14T06:33:05Z</time>
      </trkpt>
      <trkpt lat="43.10947" lon="1.46763">
        <ele>418.79</ele>
        <time>2014-09-14T06:33:06Z</time>
      </trkpt>
      <trkpt lat="43.10946" lon="1.46752">
        <ele>418.79</ele>
        <time>2014-09-14T06:33:07Z</time>
      </trkpt>
      <trkpt lat="43.10944" lon="1.46707">
        <ele>418.79</ele>
        <time>2014-09-14T06:33:11Z</time>
      </trkpt>
      <trkpt lat="43.10945" lon="1.46696">
        <ele>418.31</ele>
        <time>2014-09-14T06:33:12Z</time>
      </trkpt>
      <trkpt lat="43.10947" lon="1.46683">
        <ele>418.31</ele>
        <time>2014-09-14T06:33:13Z</time>
      </trkpt>
      <trkpt lat="43.10955" lon="1.46655">
        <ele>418.31</ele>
        <time>2014-09-14T06:33:16Z</time>
      </trkpt>
      <trkpt lat="43.10959" lon="1.46645">
        <ele>417.83</ele>
        <time>2014-09-14T06:33:17Z</time>
      </trkpt>
      <trkpt lat="43.10964" lon="1.46637">
        <ele>417.83</ele>
        <time>2014-09-14T06:33:18Z</time>
      </trkpt>
      <trkpt lat="43.10969" lon="1.46629">
        <ele>417.83</ele>
        <time>2014-09-14T06:33:19Z</time>
      </trkpt>
      <trkpt lat="43.10975" lon="1.46623">
        <ele>417.83</ele>
        <time>2014-09-14T06:33:20Z</time>
      </trkpt>
      <trkpt lat="43.10982" lon="1.46618">
        <ele>417.83</ele>
        <time>2014-09-14T06:33:21Z</time>
      </trkpt>
      <trkpt lat="43.10989" lon="1.46613">
        <ele>417.83</ele>
        <time>2014-09-14T06:33:22Z</time>
      </trkpt>
      <trkpt lat="43.11024" lon="1.46588">
        <ele>416.87</ele>
        <time>2014-09-14T06:33:27Z</time>
      </trkpt>
      <trkpt lat="43.1103" lon="1.46581">
        <ele>416.39</ele>
        <time>2014-09-14T06:33:28Z</time>
      </trkpt>
      <trkpt lat="43.11036" lon="1.46571">
        <ele>416.39</ele>
        <time>2014-09-14T06:33:29Z</time>
      </trkpt>
      <trkpt lat="43.11039" lon="1.46561">
        <ele>416.39</ele>
        <time>2014-09-14T06:33:30Z</time>
      </trkpt>
      <trkpt lat="43.11041" lon="1.46551">
        <ele>416.39</ele>
        <time>2014-09-14T06:33:31Z</time>
      </trkpt>
      <trkpt lat="43.11043" lon="1.46538">
        <ele>416.39</ele>
        <time>2014-09-14T06:33:32Z</time>
      </trkpt>
      <trkpt lat="43.11043" lon="1.46529">
        <ele>415.91</ele>
        <time>2014-09-14T06:33:33Z</time>
      </trkpt>
      <trkpt lat="43.11041" lon="1.46518">
        <ele>416.39</ele>
        <time>2014-09-14T06:33:34Z</time>
      </trkpt>
      <trkpt lat="43.11038" lon="1.4651">
        <ele>416.39</ele>
        <time>2014-09-14T06:33:35Z</time>
      </trkpt>
      <trkpt lat="43.11035" lon="1.46498">
        <ele>415.91</ele>
        <time>2014-09-14T06:33:36Z</time>
      </trkpt>
      <trkpt lat="43.11032" lon="1.46485">
        <ele>415.91</ele>
        <time>2014-09-14T06:33:37Z</time>
      </trkpt>
      <trkpt lat="43.11032" lon="1.46473">
        <ele>415.91</ele>
        <time>2014-09-14T06:33:38Z</time>
      </trkpt>
      <trkpt lat="43.11032" lon="1.4646">
        <ele>415.43</ele>
        <time>2014-09-14T06:33:39Z</time>
      </trkpt>
      <trkpt lat="43.11034" lon="1.46447">
        <ele>415.43</ele>
        <time>2014-09-14T06:33:40Z</time>
      </trkpt>
      <trkpt lat="43.11038" lon="1.46434">
        <ele>414.95</ele>
        <time>2014-09-14T06:33:41Z</time>
      </trkpt>
      <trkpt lat="43.11041" lon="1.46423">
        <ele>414.95</ele>
        <time>2014-09-14T06:33:42Z</time>
      </trkpt>
      <trkpt lat="43.11045" lon="1.46411">
        <ele>414.47</ele>
        <time>2014-09-14T06:33:43Z</time>
      </trkpt>
      <trkpt lat="43.11049" lon="1.464">
        <ele>413.98</ele>
        <time>2014-09-14T06:33:44Z</time>
      </trkpt>
      <trkpt lat="43.11053" lon="1.46389">
        <ele>413.5</ele>
        <time>2014-09-14T06:33:45Z</time>
      </trkpt>
      <trkpt lat="43.11054" lon="1.46379">
        <ele>413.5</ele>
        <time>2014-09-14T06:33:46Z</time>
      </trkpt>
      <trkpt lat="43.11054" lon="1.46369">
        <ele>413.02</ele>
        <time>2014-09-14T06:33:47Z</time>
      </trkpt>
      <trkpt lat="43.11054" lon="1.46363">
        <ele>413.02</ele>
        <time>2014-09-14T06:33:48Z</time>
      </trkpt>
      <trkpt lat="43.11055" lon="1.4636">
        <ele>413.02</ele>
        <time>2014-09-14T06:33:49Z</time>
      </trkpt>
      <trkpt lat="43.11051" lon="1.4636">
        <ele>412.54</ele>
        <time>2014-09-14T06:33:51Z</time>
      </trkpt>
      <trkpt lat="43.1105" lon="1.46357">
        <ele>412.54</ele>
        <time>2014-09-14T06:33:52Z</time>
      </trkpt>
      <trkpt lat="43.11046" lon="1.46347">
        <ele>412.54</ele>
        <time>2014-09-14T06:33:54Z</time>
      </trkpt>
      <trkpt lat="43.11039" lon="1.46341">
        <ele>412.54</ele>
        <time>2014-09-14T06:33:55Z</time>
      </trkpt>
      <trkpt lat="43.11018" lon="1.46327">
        <ele>412.54</ele>
        <time>2014-09-14T06:33:57Z</time>
      </trkpt>
      <trkpt lat="43.10978" lon="1.46274">
        <ele>411.1</ele>
        <time>2014-09-14T06:34:02Z</time>
      </trkpt>
      <trkpt lat="43.10928" lon="1.46156">
        <ele>409.18</ele>
        <time>2014-09-14T06:34:11Z</time>
      </trkpt>
      <trkpt lat="43.1089" lon="1.46042">
        <ele>404.37</ele>
        <time>2014-09-14T06:34:19Z</time>
      </trkpt>
      <trkpt lat="43.10878" lon="1.45878">
        <ele>399.08</ele>
        <time>2014-09-14T06:34:29Z</time>
      </trkpt>
      <trkpt lat="43.10881" lon="1.4586">
        <ele>398.6</ele>
        <time>2014-09-14T06:34:30Z</time>
      </trkpt>
      <trkpt lat="43.10887" lon="1.45838">
        <ele>397.64</ele>
        <time>2014-09-14T06:34:31Z</time>
      </trkpt>
      <trkpt lat="43.10891" lon="1.45828">
        <ele>397.64</ele>
        <time>2014-09-14T06:34:32Z</time>
      </trkpt>
      <trkpt lat="43.10897" lon="1.45814">
        <ele>397.16</ele>
        <time>2014-09-14T06:34:33Z</time>
      </trkpt>
      <trkpt lat="43.10907" lon="1.45779">
        <ele>396.2</ele>
        <time>2014-09-14T06:34:35Z</time>
      </trkpt>
      <trkpt lat="43.10911" lon="1.45763">
        <ele>395.24</ele>
        <time>2014-09-14T06:34:36Z</time>
      </trkpt>
      <trkpt lat="43.10915" lon="1.45745">
        <ele>394.28</ele>
        <time>2014-09-14T06:34:37Z</time>
      </trkpt>
      <trkpt lat="43.10917" lon="1.45726">
        <ele>393.32</ele>
        <time>2014-09-14T06:34:38Z</time>
      </trkpt>
      <trkpt lat="43.10918" lon="1.45706">
        <ele>392.36</ele>
        <time>2014-09-14T06:34:39Z</time>
      </trkpt>
      <trkpt lat="43.10916" lon="1.45692">
        <ele>391.39</ele>
        <time>2014-09-14T06:34:40Z</time>
      </trkpt>
      <trkpt lat="43.1091" lon="1.45678">
        <ele>390.91</ele>
        <time>2014-09-14T06:34:41Z</time>
      </trkpt>
      <trkpt lat="43.109" lon="1.45668">
        <ele>389.95</ele>
        <time>2014-09-14T06:34:42Z</time>
      </trkpt>
      <trkpt lat="43.10888" lon="1.45659">
        <ele>388.99</ele>
        <time>2014-09-14T06:34:43Z</time>
      </trkpt>
      <trkpt lat="43.10877" lon="1.4565">
        <ele>388.51</ele>
        <time>2014-09-14T06:34:44Z</time>
      </trkpt>
      <trkpt lat="43.10867" lon="1.45638">
        <ele>387.55</ele>
        <time>2014-09-14T06:34:45Z</time>
      </trkpt>
      <trkpt lat="43.10857" lon="1.45622">
        <ele>387.07</ele>
        <time>2014-09-14T06:34:46Z</time>
      </trkpt>
      <trkpt lat="43.10852" lon="1.45609">
        <ele>386.59</ele>
        <time>2014-09-14T06:34:47Z</time>
      </trkpt>
      <trkpt lat="43.10848" lon="1.45591">
        <ele>385.63</ele>
        <time>2014-09-14T06:34:48Z</time>
      </trkpt>
      <trkpt lat="43.10845" lon="1.45575">
        <ele>385.15</ele>
        <time>2014-09-14T06:34:49Z</time>
      </trkpt>
      <trkpt lat="43.10843" lon="1.45558">
        <ele>384.18</ele>
        <time>2014-09-14T06:34:50Z</time>
      </trkpt>
      <trkpt lat="43.1084" lon="1.45541">
        <ele>383.7</ele>
        <time>2014-09-14T06:34:51Z</time>
      </trkpt>
      <trkpt lat="43.10836" lon="1.45526">
        <ele>382.74</ele>
        <time>2014-09-14T06:34:52Z</time>
      </trkpt>
      <trkpt lat="43.10829" lon="1.45513">
        <ele>381.78</ele>
        <time>2014-09-14T06:34:53Z</time>
      </trkpt>
      <trkpt lat="43.10818" lon="1.45504">
        <ele>380.34</ele>
        <time>2014-09-14T06:34:54Z</time>
      </trkpt>
      <trkpt lat="43.10806" lon="1.45505">
        <ele>379.38</ele>
        <time>2014-09-14T06:34:55Z</time>
      </trkpt>
      <trkpt lat="43.10798" lon="1.45509">
        <ele>378.9</ele>
        <time>2014-09-14T06:34:56Z</time>
      </trkpt>
      <trkpt lat="43.10789" lon="1.45516">
        <ele>378.42</ele>
        <time>2014-09-14T06:34:57Z</time>
      </trkpt>
      <trkpt lat="43.10778" lon="1.45522">
        <ele>377.94</ele>
        <time>2014-09-14T06:34:58Z</time>
      </trkpt>
      <trkpt lat="43.10767" lon="1.45528">
        <ele>376.97</ele>
        <time>2014-09-14T06:34:59Z</time>
      </trkpt>
      <trkpt lat="43.10756" lon="1.45532">
        <ele>376.01</ele>
        <time>2014-09-14T06:35:00Z</time>
      </trkpt>
      <trkpt lat="43.10744" lon="1.45536">
        <ele>375.53</ele>
        <time>2014-09-14T06:35:01Z</time>
      </trkpt>
      <trkpt lat="43.10734" lon="1.45541">
        <ele>374.57</ele>
        <time>2014-09-14T06:35:02Z</time>
      </trkpt>
      <trkpt lat="43.10723" lon="1.45548">
        <ele>374.09</ele>
        <time>2014-09-14T06:35:03Z</time>
      </trkpt>
      <trkpt lat="43.10713" lon="1.45555">
        <ele>373.13</ele>
        <time>2014-09-14T06:35:04Z</time>
      </trkpt>
      <trkpt lat="43.10672" lon="1.45583">
        <ele>370.24</ele>
        <time>2014-09-14T06:35:08Z</time>
      </trkpt>
      <trkpt lat="43.10661" lon="1.45587">
        <ele>369.28</ele>
        <time>2014-09-14T06:35:09Z</time>
      </trkpt>
      <trkpt lat="43.10649" lon="1.45588">
        <ele>368.32</ele>
        <time>2014-09-14T06:35:10Z</time>
      </trkpt>
      <trkpt lat="43.10638" lon="1.45585">
        <ele>367.36</ele>
        <time>2014-09-14T06:35:11Z</time>
      </trkpt>
      <trkpt lat="43.10627" lon="1.45575">
        <ele>365.92</ele>
        <time>2014-09-14T06:35:12Z</time>
      </trkpt>
      <trkpt lat="43.10621" lon="1.45562">
        <ele>365.44</ele>
        <time>2014-09-14T06:35:13Z</time>
      </trkpt>
      <trkpt lat="43.10618" lon="1.45547">
        <ele>364.48</ele>
        <time>2014-09-14T06:35:14Z</time>
      </trkpt>
      <trkpt lat="43.10619" lon="1.4553">
        <ele>363.52</ele>
        <time>2014-09-14T06:35:15Z</time>
      </trkpt>
      <trkpt lat="43.10622" lon="1.45514">
        <ele>362.55</ele>
        <time>2014-09-14T06:35:16Z</time>
      </trkpt>
      <trkpt lat="43.10626" lon="1.45496">
        <ele>361.59</ele>
        <time>2014-09-14T06:35:17Z</time>
      </trkpt>
      <trkpt lat="43.10626" lon="1.45476">
        <ele>360.63</ele>
        <time>2014-09-14T06:35:18Z</time>
      </trkpt>
      <trkpt lat="43.10624" lon="1.45464">
        <ele>359.67</ele>
        <time>2014-09-14T06:35:19Z</time>
      </trkpt>
      <trkpt lat="43.1062" lon="1.45447">
        <ele>358.71</ele>
        <time>2014-09-14T06:35:20Z</time>
      </trkpt>
      <trkpt lat="43.10616" lon="1.45431">
        <ele>357.75</ele>
        <time>2014-09-14T06:35:21Z</time>
      </trkpt>
      <trkpt lat="43.10615" lon="1.45413">
        <ele>356.31</ele>
        <time>2014-09-14T06:35:22Z</time>
      </trkpt>
      <trkpt lat="43.10618" lon="1.45397">
        <ele>355.83</ele>
        <time>2014-09-14T06:35:23Z</time>
      </trkpt>
      <trkpt lat="43.10624" lon="1.45381">
        <ele>354.86</ele>
        <time>2014-09-14T06:35:24Z</time>
      </trkpt>
      <trkpt lat="43.10633" lon="1.45366">
        <ele>353.42</ele>
        <time>2014-09-14T06:35:25Z</time>
      </trkpt>
      <trkpt lat="43.10641" lon="1.45354">
        <ele>352.94</ele>
        <time>2014-09-14T06:35:26Z</time>
      </trkpt>
      <trkpt lat="43.10665" lon="1.45313">
        <ele>349.58</ele>
        <time>2014-09-14T06:35:29Z</time>
      </trkpt>
      <trkpt lat="43.1067" lon="1.45296">
        <ele>348.62</ele>
        <time>2014-09-14T06:35:30Z</time>
      </trkpt>
      <trkpt lat="43.10671" lon="1.45282">
        <ele>347.65</ele>
        <time>2014-09-14T06:35:31Z</time>
      </trkpt>
      <trkpt lat="43.10669" lon="1.45262">
        <ele>346.69</ele>
        <time>2014-09-14T06:35:32Z</time>
      </trkpt>
      <trkpt lat="43.10665" lon="1.45248">
        <ele>345.73</ele>
        <time>2014-09-14T06:35:33Z</time>
      </trkpt>
      <trkpt lat="43.10661" lon="1.45232">
        <ele>344.77</ele>
        <time>2014-09-14T06:35:34Z</time>
      </trkpt>
      <trkpt lat="43.10659" lon="1.45216">
        <ele>343.81</ele>
        <time>2014-09-14T06:35:35Z</time>
      </trkpt>
      <trkpt lat="43.10658" lon="1.45199">
        <ele>343.33</ele>
        <time>2014-09-14T06:35:36Z</time>
      </trkpt>
      <trkpt lat="43.10661" lon="1.45182">
        <ele>342.37</ele>
        <time>2014-09-14T06:35:37Z</time>
      </trkpt>
      <trkpt lat="43.10665" lon="1.45166">
        <ele>341.89</ele>
        <time>2014-09-14T06:35:38Z</time>
      </trkpt>
      <trkpt lat="43.10672" lon="1.45151">
        <ele>341.41</ele>
        <time>2014-09-14T06:35:39Z</time>
      </trkpt>
      <trkpt lat="43.10679" lon="1.45134">
        <ele>340.44</ele>
        <time>2014-09-14T06:35:40Z</time>
      </trkpt>
      <trkpt lat="43.1072" lon="1.45047">
        <ele>336.12</ele>
        <time>2014-09-14T06:35:46Z</time>
      </trkpt>
      <trkpt lat="43.10724" lon="1.45032">
        <ele>335.16</ele>
        <time>2014-09-14T06:35:47Z</time>
      </trkpt>
      <trkpt lat="43.10726" lon="1.45015">
        <ele>334.68</ele>
        <time>2014-09-14T06:35:48Z</time>
      </trkpt>
      <trkpt lat="43.10727" lon="1.44981">
        <ele>333.23</ele>
        <time>2014-09-14T06:35:50Z</time>
      </trkpt>
      <trkpt lat="43.10724" lon="1.44964">
        <ele>332.75</ele>
        <time>2014-09-14T06:35:51Z</time>
      </trkpt>
      <trkpt lat="43.10719" lon="1.44948">
        <ele>331.79</ele>
        <time>2014-09-14T06:35:52Z</time>
      </trkpt>
      <trkpt lat="43.10712" lon="1.44934">
        <ele>331.31</ele>
        <time>2014-09-14T06:35:53Z</time>
      </trkpt>
      <trkpt lat="43.10704" lon="1.44921">
        <ele>330.83</ele>
        <time>2014-09-14T06:35:54Z</time>
      </trkpt>
      <trkpt lat="43.10696" lon="1.44909">
        <ele>330.35</ele>
        <time>2014-09-14T06:35:55Z</time>
      </trkpt>
      <trkpt lat="43.10686" lon="1.44895">
        <ele>329.39</ele>
        <time>2014-09-14T06:35:56Z</time>
      </trkpt>
      <trkpt lat="43.10679" lon="1.44882">
        <ele>328.91</ele>
        <time>2014-09-14T06:35:57Z</time>
      </trkpt>
      <trkpt lat="43.10672" lon="1.44868">
        <ele>327.95</ele>
        <time>2014-09-14T06:35:58Z</time>
      </trkpt>
      <trkpt lat="43.10656" lon="1.44842">
        <ele>326.5</ele>
        <time>2014-09-14T06:36:00Z</time>
      </trkpt>
      <trkpt lat="43.10647" lon="1.44831">
        <ele>326.02</ele>
        <time>2014-09-14T06:36:01Z</time>
      </trkpt>
      <trkpt lat="43.10636" lon="1.44822">
        <ele>325.06</ele>
        <time>2014-09-14T06:36:02Z</time>
      </trkpt>
      <trkpt lat="43.10624" lon="1.44816">
        <ele>324.1</ele>
        <time>2014-09-14T06:36:03Z</time>
      </trkpt>
      <trkpt lat="43.10611" lon="1.44813">
        <ele>323.62</ele>
        <time>2014-09-14T06:36:04Z</time>
      </trkpt>
      <trkpt lat="43.10597" lon="1.44811">
        <ele>322.66</ele>
        <time>2014-09-14T06:36:05Z</time>
      </trkpt>
      <trkpt lat="43.10583" lon="1.44808">
        <ele>322.18</ele>
        <time>2014-09-14T06:36:06Z</time>
      </trkpt>
      <trkpt lat="43.10574" lon="1.44803">
        <ele>321.22</ele>
        <time>2014-09-14T06:36:07Z</time>
      </trkpt>
      <trkpt lat="43.10563" lon="1.4479">
        <ele>320.26</ele>
        <time>2014-09-14T06:36:08Z</time>
      </trkpt>
      <trkpt lat="43.10559" lon="1.44775">
        <ele>319.3</ele>
        <time>2014-09-14T06:36:09Z</time>
      </trkpt>
      <trkpt lat="43.10557" lon="1.44762">
        <ele>318.33</ele>
        <time>2014-09-14T06:36:10Z</time>
      </trkpt>
      <trkpt lat="43.10552" lon="1.44749">
        <ele>317.85</ele>
        <time>2014-09-14T06:36:11Z</time>
      </trkpt>
      <trkpt lat="43.10542" lon="1.4474">
        <ele>316.89</ele>
        <time>2014-09-14T06:36:12Z</time>
      </trkpt>
      <trkpt lat="43.10531" lon="1.44737">
        <ele>315.93</ele>
        <time>2014-09-14T06:36:13Z</time>
      </trkpt>
      <trkpt lat="43.10521" lon="1.44736">
        <ele>314.49</ele>
        <time>2014-09-14T06:36:14Z</time>
      </trkpt>
      <trkpt lat="43.1051" lon="1.44731">
        <ele>313.53</ele>
        <time>2014-09-14T06:36:15Z</time>
      </trkpt>
      <trkpt lat="43.10502" lon="1.4472">
        <ele>312.57</ele>
        <time>2014-09-14T06:36:16Z</time>
      </trkpt>
      <trkpt lat="43.10499" lon="1.44705">
        <ele>311.12</ele>
        <time>2014-09-14T06:36:17Z</time>
      </trkpt>
      <trkpt lat="43.10499" lon="1.4469">
        <ele>310.16</ele>
        <time>2014-09-14T06:36:18Z</time>
      </trkpt>
      <trkpt lat="43.105" lon="1.44674">
        <ele>309.2</ele>
        <time>2014-09-14T06:36:19Z</time>
      </trkpt>
      <trkpt lat="43.10501" lon="1.44659">
        <ele>308.24</ele>
        <time>2014-09-14T06:36:20Z</time>
      </trkpt>
      <trkpt lat="43.10499" lon="1.44644">
        <ele>307.76</ele>
        <time>2014-09-14T06:36:21Z</time>
      </trkpt>
      <trkpt lat="43.10496" lon="1.4463">
        <ele>306.8</ele>
        <time>2014-09-14T06:36:22Z</time>
      </trkpt>
      <trkpt lat="43.1049" lon="1.44617">
        <ele>305.84</ele>
        <time>2014-09-14T06:36:23Z</time>
      </trkpt>
      <trkpt lat="43.10483" lon="1.44603">
        <ele>304.39</ele>
        <time>2014-09-14T06:36:24Z</time>
      </trkpt>
      <trkpt lat="43.10475" lon="1.44591">
        <ele>303.91</ele>
        <time>2014-09-14T06:36:25Z</time>
      </trkpt>
      <trkpt lat="43.10469" lon="1.44581">
        <ele>302.95</ele>
        <time>2014-09-14T06:36:26Z</time>
      </trkpt>
      <trkpt lat="43.10452" lon="1.4456">
        <ele>301.03</ele>
        <time>2014-09-14T06:36:28Z</time>
      </trkpt>
      <trkpt lat="43.10322" lon="1.4444">
        <ele>289.97</ele>
        <time>2014-09-14T06:36:42Z</time>
      </trkpt>
      <trkpt lat="43.10239" lon="1.44383">
        <ele>284.69</ele>
        <time>2014-09-14T06:36:52Z</time>
      </trkpt>
      <trkpt lat="43.10212" lon="1.44369">
        <ele>282.77</ele>
        <time>2014-09-14T06:36:58Z</time>
      </trkpt>
      <trkpt lat="43.10206" lon="1.4436">
        <ele>282.77</ele>
        <time>2014-09-14T06:37:01Z</time>
      </trkpt>
      <trkpt lat="43.10206" lon="1.44355">
        <ele>282.77</ele>
        <time>2014-09-14T06:37:02Z</time>
      </trkpt>
      <trkpt lat="43.10206" lon="1.4435">
        <ele>282.77</ele>
        <time>2014-09-14T06:37:03Z</time>
      </trkpt>
      <trkpt lat="43.10208" lon="1.44344">
        <ele>282.77</ele>
        <time>2014-09-14T06:37:04Z</time>
      </trkpt>
      <trkpt lat="43.10208" lon="1.44341">
        <ele>282.77</ele>
        <time>2014-09-14T06:37:05Z</time>
      </trkpt>
      <trkpt lat="43.1021" lon="1.44334">
        <ele>283.25</ele>
        <time>2014-09-14T06:37:06Z</time>
      </trkpt>
      <trkpt lat="43.10218" lon="1.44283">
        <ele>284.69</ele>
        <time>2014-09-14T06:37:13Z</time>
      </trkpt>
      <trkpt lat="43.10219" lon="1.44276">
        <ele>284.69</ele>
        <time>2014-09-14T06:37:14Z</time>
      </trkpt>
      <trkpt lat="43.10221" lon="1.44268">
        <ele>284.69</ele>
        <time>2014-09-14T06:37:15Z</time>
      </trkpt>
      <trkpt lat="43.1023" lon="1.44228">
        <ele>284.69</ele>
        <time>2014-09-14T06:37:20Z</time>
      </trkpt>
      <trkpt lat="43.10233" lon="1.44222">
        <ele>284.69</ele>
        <time>2014-09-14T06:37:21Z</time>
      </trkpt>
      <trkpt lat="43.10237" lon="1.44218">
        <ele>284.69</ele>
        <time>2014-09-14T06:37:22Z</time>
      </trkpt>
      <trkpt lat="43.1024" lon="1.44214">
        <ele>284.69</ele>
        <time>2014-09-14T06:37:23Z</time>
      </trkpt>
      <trkpt lat="43.10244" lon="1.44211">
        <ele>285.17</ele>
        <time>2014-09-14T06:37:24Z</time>
      </trkpt>
      <trkpt lat="43.10248" lon="1.44207">
        <ele>285.65</ele>
        <time>2014-09-14T06:37:25Z</time>
      </trkpt>
      <trkpt lat="43.10251" lon="1.44203">
        <ele>287.09</ele>
        <time>2014-09-14T06:37:26Z</time>
      </trkpt>
      <trkpt lat="43.1027" lon="1.44187">
        <ele>289.01</ele>
        <time>2014-09-14T06:37:31Z</time>
      </trkpt>
      <trkpt lat="43.10274" lon="1.44183">
        <ele>289.49</ele>
        <time>2014-09-14T06:37:32Z</time>
      </trkpt>
      <trkpt lat="43.10291" lon="1.44163">
        <ele>291.42</ele>
        <time>2014-09-14T06:37:37Z</time>
      </trkpt>
      <trkpt lat="43.10332" lon="1.44094">
        <ele>293.34</ele>
        <time>2014-09-14T06:37:51Z</time>
      </trkpt>
      <trkpt lat="43.10346" lon="1.44019">
        <ele>295.74</ele>
        <time>2014-09-14T06:38:03Z</time>
      </trkpt>
      <trkpt lat="43.10344" lon="1.43994">
        <ele>295.74</ele>
        <time>2014-09-14T06:38:07Z</time>
      </trkpt>
      <trkpt lat="43.10309" lon="1.43908">
        <ele>299.11</ele>
        <time>2014-09-14T06:38:23Z</time>
      </trkpt>
      <trkpt lat="43.10306" lon="1.43897">
        <ele>300.07</ele>
        <time>2014-09-14T06:38:25Z</time>
      </trkpt>
      <trkpt lat="43.10305" lon="1.43891">
        <ele>300.07</ele>
        <time>2014-09-14T06:38:26Z</time>
      </trkpt>
      <trkpt lat="43.10304" lon="1.43885">
        <ele>300.55</ele>
        <time>2014-09-14T06:38:27Z</time>
      </trkpt>
      <trkpt lat="43.10303" lon="1.43879">
        <ele>300.55</ele>
        <time>2014-09-14T06:38:28Z</time>
      </trkpt>
      <trkpt lat="43.10302" lon="1.43874">
        <ele>301.03</ele>
        <time>2014-09-14T06:38:29Z</time>
      </trkpt>
      <trkpt lat="43.10302" lon="1.43868">
        <ele>301.03</ele>
        <time>2014-09-14T06:38:30Z</time>
      </trkpt>
      <trkpt lat="43.10303" lon="1.43863">
        <ele>301.51</ele>
        <time>2014-09-14T06:38:31Z</time>
      </trkpt>
      <trkpt lat="43.10303" lon="1.43857">
        <ele>301.99</ele>
        <time>2014-09-14T06:38:32Z</time>
      </trkpt>
      <trkpt lat="43.10304" lon="1.43852">
        <ele>301.99</ele>
        <time>2014-09-14T06:38:33Z</time>
      </trkpt>
      <trkpt lat="43.10303" lon="1.43829">
        <ele>302.47</ele>
        <time>2014-09-14T06:38:37Z</time>
      </trkpt>
      <trkpt lat="43.10299" lon="1.43818">
        <ele>302.95</ele>
        <time>2014-09-14T06:38:39Z</time>
      </trkpt>
      <trkpt lat="43.10297" lon="1.43812">
        <ele>303.43</ele>
        <time>2014-09-14T06:38:40Z</time>
      </trkpt>
      <trkpt lat="43.10294" lon="1.43807">
        <ele>303.91</ele>
        <time>2014-09-14T06:38:41Z</time>
      </trkpt>
      <trkpt lat="43.10249" lon="1.43745">
        <ele>307.28</ele>
        <time>2014-09-14T06:38:56Z</time>
      </trkpt>
      <trkpt lat="43.10211" lon="1.43681">
        <ele>311.12</ele>
        <time>2014-09-14T06:39:10Z</time>
      </trkpt>
      <trkpt lat="43.10208" lon="1.43678">
        <ele>311.6</ele>
        <time>2014-09-14T06:39:11Z</time>
      </trkpt>
      <trkpt lat="43.10204" lon="1.43675">
        <ele>311.6</ele>
        <time>2014-09-14T06:39:12Z</time>
      </trkpt>
      <trkpt lat="43.102" lon="1.43672">
        <ele>311.6</ele>
        <time>2014-09-14T06:39:13Z</time>
      </trkpt>
      <trkpt lat="43.10196" lon="1.4367">
        <ele>312.09</ele>
        <time>2014-09-14T06:39:14Z</time>
      </trkpt>
      <trkpt lat="43.10192" lon="1.43668">
        <ele>312.09</ele>
        <time>2014-09-14T06:39:15Z</time>
      </trkpt>
      <trkpt lat="43.10188" lon="1.43666">
        <ele>312.09</ele>
        <time>2014-09-14T06:39:16Z</time>
      </trkpt>
      <trkpt lat="43.10133" lon="1.43668">
        <ele>315.93</ele>
        <time>2014-09-14T06:39:30Z</time>
      </trkpt>
      <trkpt lat="43.10125" lon="1.4367">
        <ele>316.41</ele>
        <time>2014-09-14T06:39:32Z</time>
      </trkpt>
      <trkpt lat="43.10057" lon="1.43675">
        <ele>318.81</ele>
        <time>2014-09-14T06:39:48Z</time>
      </trkpt>
      <trkpt lat="43.09993" lon="1.4366">
        <ele>318.33</ele>
        <time>2014-09-14T06:40:04Z</time>
      </trkpt>
      <trkpt lat="43.09938" lon="1.43659">
        <ele>318.81</ele>
        <time>2014-09-14T06:40:17Z</time>
      </trkpt>
      <trkpt lat="43.09884" lon="1.43636">
        <ele>319.78</ele>
        <time>2014-09-14T06:40:31Z</time>
      </trkpt>
      <trkpt lat="43.0982" lon="1.43632">
        <ele>319.78</ele>
        <time>2014-09-14T06:40:46Z</time>
      </trkpt>
      <trkpt lat="43.09735" lon="1.43648">
        <ele>325.06</ele>
        <time>2014-09-14T06:41:05Z</time>
      </trkpt>
      <trkpt lat="43.09662" lon="1.4369">
        <ele>330.35</ele>
        <time>2014-09-14T06:41:22Z</time>
      </trkpt>
      <trkpt lat="43.09597" lon="1.43748">
        <ele>335.64</ele>
        <time>2014-09-14T06:41:38Z</time>
      </trkpt>
      <trkpt lat="43.09518" lon="1.43804">
        <ele>336.6</ele>
        <time>2014-09-14T06:41:56Z</time>
      </trkpt>
      <trkpt lat="43.09427" lon="1.43859">
        <ele>339</ele>
        <time>2014-09-14T06:42:16Z</time>
      </trkpt>
      <trkpt lat="43.09361" lon="1.4392">
        <ele>339</ele>
        <time>2014-09-14T06:42:31Z</time>
      </trkpt>
      <trkpt lat="43.0927" lon="1.4397">
        <ele>340.44</ele>
        <time>2014-09-14T06:42:50Z</time>
      </trkpt>
      <trkpt lat="43.09246" lon="1.4398">
        <ele>340.44</ele>
        <time>2014-09-14T06:42:55Z</time>
      </trkpt>
      <trkpt lat="43.09237" lon="1.43983">
        <ele>340.44</ele>
        <time>2014-09-14T06:42:57Z</time>
      </trkpt>
      <trkpt lat="43.09173" lon="1.44008">
        <ele>339.96</ele>
        <time>2014-09-14T06:43:11Z</time>
      </trkpt>
      <trkpt lat="43.09091" lon="1.44042">
        <ele>341.89</ele>
        <time>2014-09-14T06:43:27Z</time>
      </trkpt>
      <trkpt lat="43.08996" lon="1.4408">
        <ele>345.25</ele>
        <time>2014-09-14T06:43:46Z</time>
      </trkpt>
      <trkpt lat="43.089" lon="1.4412">
        <ele>348.13</ele>
        <time>2014-09-14T06:44:05Z</time>
      </trkpt>
      <trkpt lat="43.08878" lon="1.44125">
        <ele>349.1</ele>
        <time>2014-09-14T06:44:09Z</time>
      </trkpt>
      <trkpt lat="43.0887" lon="1.44124">
        <ele>349.1</ele>
        <time>2014-09-14T06:44:10Z</time>
      </trkpt>
      <trkpt lat="43.08864" lon="1.44123">
        <ele>349.1</ele>
        <time>2014-09-14T06:44:11Z</time>
      </trkpt>
      <trkpt lat="43.08861" lon="1.44122">
        <ele>349.1</ele>
        <time>2014-09-14T06:44:12Z</time>
      </trkpt>
      <trkpt lat="43.08856" lon="1.44119">
        <ele>349.58</ele>
        <time>2014-09-14T06:44:13Z</time>
      </trkpt>
      <trkpt lat="43.0885" lon="1.44116">
        <ele>349.58</ele>
        <time>2014-09-14T06:44:14Z</time>
      </trkpt>
      <trkpt lat="43.08845" lon="1.44112">
        <ele>349.58</ele>
        <time>2014-09-14T06:44:15Z</time>
      </trkpt>
      <trkpt lat="43.08841" lon="1.44108">
        <ele>350.06</ele>
        <time>2014-09-14T06:44:16Z</time>
      </trkpt>
      <trkpt lat="43.08781" lon="1.44038">
        <ele>352.94</ele>
        <time>2014-09-14T06:44:31Z</time>
      </trkpt>
      <trkpt lat="43.0877" lon="1.44024">
        <ele>352.94</ele>
        <time>2014-09-14T06:44:34Z</time>
      </trkpt>
      <trkpt lat="43.08763" lon="1.44016">
        <ele>353.42</ele>
        <time>2014-09-14T06:44:36Z</time>
      </trkpt>
      <trkpt lat="43.08739" lon="1.43987">
        <ele>354.38</ele>
        <time>2014-09-14T06:44:43Z</time>
      </trkpt>
      <trkpt lat="43.08735" lon="1.43984">
        <ele>354.86</ele>
        <time>2014-09-14T06:44:44Z</time>
      </trkpt>
      <trkpt lat="43.08728" lon="1.43976">
        <ele>354.86</ele>
        <time>2014-09-14T06:44:46Z</time>
      </trkpt>
      <trkpt lat="43.08725" lon="1.43972">
        <ele>355.34</ele>
        <time>2014-09-14T06:44:47Z</time>
      </trkpt>
      <trkpt lat="43.08722" lon="1.43968">
        <ele>355.34</ele>
        <time>2014-09-14T06:44:48Z</time>
      </trkpt>
      <trkpt lat="43.08719" lon="1.43964">
        <ele>355.83</ele>
        <time>2014-09-14T06:44:49Z</time>
      </trkpt>
      <trkpt lat="43.08715" lon="1.4396">
        <ele>355.83</ele>
        <time>2014-09-14T06:44:50Z</time>
      </trkpt>
      <trkpt lat="43.08687" lon="1.43925">
        <ele>356.79</ele>
        <time>2014-09-14T06:44:59Z</time>
      </trkpt>
      <trkpt lat="43.08684" lon="1.43921">
        <ele>356.79</ele>
        <time>2014-09-14T06:45:00Z</time>
      </trkpt>
      <trkpt lat="43.08655" lon="1.43887">
        <ele>357.27</ele>
        <time>2014-09-14T06:45:08Z</time>
      </trkpt>
      <trkpt lat="43.08593" lon="1.43839">
        <ele>361.11</ele>
        <time>2014-09-14T06:45:23Z</time>
      </trkpt>
      <trkpt lat="43.08524" lon="1.43798">
        <ele>365.44</ele>
        <time>2014-09-14T06:45:39Z</time>
      </trkpt>
      <trkpt lat="43.08442" lon="1.43747">
        <ele>369.28</ele>
        <time>2014-09-14T06:45:57Z</time>
      </trkpt>
      <trkpt lat="43.08395" lon="1.43717">
        <ele>371.21</ele>
        <time>2014-09-14T06:46:07Z</time>
      </trkpt>
      <trkpt lat="43.08391" lon="1.43713">
        <ele>371.69</ele>
        <time>2014-09-14T06:46:08Z</time>
      </trkpt>
      <trkpt lat="43.08319" lon="1.4367">
        <ele>373.61</ele>
        <time>2014-09-14T06:46:22Z</time>
      </trkpt>
      <trkpt lat="43.08299" lon="1.43657">
        <ele>373.13</ele>
        <time>2014-09-14T06:46:25Z</time>
      </trkpt>
      <trkpt lat="43.08293" lon="1.43651">
        <ele>373.13</ele>
        <time>2014-09-14T06:46:26Z</time>
      </trkpt>
      <trkpt lat="43.08287" lon="1.43643">
        <ele>373.13</ele>
        <time>2014-09-14T06:46:27Z</time>
      </trkpt>
      <trkpt lat="43.08282" lon="1.43632">
        <ele>372.65</ele>
        <time>2014-09-14T06:46:28Z</time>
      </trkpt>
      <trkpt lat="43.08279" lon="1.4362">
        <ele>372.65</ele>
        <time>2014-09-14T06:46:29Z</time>
      </trkpt>
      <trkpt lat="43.08277" lon="1.43607">
        <ele>372.17</ele>
        <time>2014-09-14T06:46:30Z</time>
      </trkpt>
      <trkpt lat="43.08277" lon="1.43594">
        <ele>372.17</ele>
        <time>2014-09-14T06:46:31Z</time>
      </trkpt>
      <trkpt lat="43.08278" lon="1.4358">
        <ele>371.69</ele>
        <time>2014-09-14T06:46:32Z</time>
      </trkpt>
      <trkpt lat="43.08281" lon="1.43566">
        <ele>371.21</ele>
        <time>2014-09-14T06:46:33Z</time>
      </trkpt>
      <trkpt lat="43.08284" lon="1.43554">
        <ele>371.21</ele>
        <time>2014-09-14T06:46:34Z</time>
      </trkpt>
      <trkpt lat="43.08303" lon="1.43489">
        <ele>369.28</ele>
        <time>2014-09-14T06:46:39Z</time>
      </trkpt>
      <trkpt lat="43.08309" lon="1.43476">
        <ele>368.8</ele>
        <time>2014-09-14T06:46:40Z</time>
      </trkpt>
      <trkpt lat="43.08315" lon="1.43464">
        <ele>368.32</ele>
        <time>2014-09-14T06:46:41Z</time>
      </trkpt>
      <trkpt lat="43.08351" lon="1.43387">
        <ele>365.44</ele>
        <time>2014-09-14T06:46:47Z</time>
      </trkpt>
      <trkpt lat="43.08354" lon="1.43372">
        <ele>364.96</ele>
        <time>2014-09-14T06:46:48Z</time>
      </trkpt>
      <trkpt lat="43.08354" lon="1.43356">
        <ele>364.48</ele>
        <time>2014-09-14T06:46:49Z</time>
      </trkpt>
      <trkpt lat="43.08358" lon="1.43261">
        <ele>360.15</ele>
        <time>2014-09-14T06:46:55Z</time>
      </trkpt>
      <trkpt lat="43.08358" lon="1.43245">
        <ele>359.67</ele>
        <time>2014-09-14T06:46:56Z</time>
      </trkpt>
      <trkpt lat="43.08354" lon="1.4323">
        <ele>358.71</ele>
        <time>2014-09-14T06:46:57Z</time>
      </trkpt>
      <trkpt lat="43.08347" lon="1.43217">
        <ele>358.23</ele>
        <time>2014-09-14T06:46:58Z</time>
      </trkpt>
      <trkpt lat="43.08337" lon="1.43205">
        <ele>357.75</ele>
        <time>2014-09-14T06:46:59Z</time>
      </trkpt>
      <trkpt lat="43.08327" lon="1.43196">
        <ele>356.79</ele>
        <time>2014-09-14T06:47:00Z</time>
      </trkpt>
      <trkpt lat="43.08318" lon="1.43187">
        <ele>355.83</ele>
        <time>2014-09-14T06:47:01Z</time>
      </trkpt>
      <trkpt lat="43.08307" lon="1.43175">
        <ele>354.86</ele>
        <time>2014-09-14T06:47:02Z</time>
      </trkpt>
      <trkpt lat="43.08301" lon="1.43163">
        <ele>353.9</ele>
        <time>2014-09-14T06:47:03Z</time>
      </trkpt>
      <trkpt lat="43.08296" lon="1.43148">
        <ele>352.94</ele>
        <time>2014-09-14T06:47:04Z</time>
      </trkpt>
      <trkpt lat="43.08294" lon="1.43131">
        <ele>352.46</ele>
        <time>2014-09-14T06:47:05Z</time>
      </trkpt>
      <trkpt lat="43.08294" lon="1.43115">
        <ele>351.5</ele>
        <time>2014-09-14T06:47:06Z</time>
      </trkpt>
      <trkpt lat="43.08296" lon="1.43097">
        <ele>351.02</ele>
        <time>2014-09-14T06:47:07Z</time>
      </trkpt>
      <trkpt lat="43.08306" lon="1.43013">
        <ele>345.73</ele>
        <time>2014-09-14T06:47:12Z</time>
      </trkpt>
      <trkpt lat="43.08335" lon="1.42935">
        <ele>339.96</ele>
        <time>2014-09-14T06:47:17Z</time>
      </trkpt>
      <trkpt lat="43.08345" lon="1.42922">
        <ele>339</ele>
        <time>2014-09-14T06:47:18Z</time>
      </trkpt>
      <trkpt lat="43.08374" lon="1.4289">
        <ele>336.12</ele>
        <time>2014-09-14T06:47:21Z</time>
      </trkpt>
      <trkpt lat="43.08382" lon="1.42877">
        <ele>335.16</ele>
        <time>2014-09-14T06:47:22Z</time>
      </trkpt>
      <trkpt lat="43.08389" lon="1.42864">
        <ele>334.2</ele>
        <time>2014-09-14T06:47:23Z</time>
      </trkpt>
      <trkpt lat="43.08395" lon="1.42849">
        <ele>333.23</ele>
        <time>2014-09-14T06:47:24Z</time>
      </trkpt>
      <trkpt lat="43.08399" lon="1.42834">
        <ele>332.27</ele>
        <time>2014-09-14T06:47:25Z</time>
      </trkpt>
      <trkpt lat="43.08404" lon="1.42819">
        <ele>331.79</ele>
        <time>2014-09-14T06:47:26Z</time>
      </trkpt>
      <trkpt lat="43.08407" lon="1.42803">
        <ele>330.83</ele>
        <time>2014-09-14T06:47:27Z</time>
      </trkpt>
      <trkpt lat="43.0841" lon="1.42787">
        <ele>330.35</ele>
        <time>2014-09-14T06:47:28Z</time>
      </trkpt>
      <trkpt lat="43.08411" lon="1.42771">
        <ele>329.87</ele>
        <time>2014-09-14T06:47:29Z</time>
      </trkpt>
      <trkpt lat="43.08436" lon="1.42605">
        <ele>324.1</ele>
        <time>2014-09-14T06:47:40Z</time>
      </trkpt>
      <trkpt lat="43.08469" lon="1.42498">
        <ele>320.26</ele>
        <time>2014-09-14T06:47:48Z</time>
      </trkpt>
      <trkpt lat="43.08476" lon="1.42486">
        <ele>320.26</ele>
        <time>2014-09-14T06:47:49Z</time>
      </trkpt>
      <trkpt lat="43.08483" lon="1.42476">
        <ele>319.78</ele>
        <time>2014-09-14T06:47:50Z</time>
      </trkpt>
      <trkpt lat="43.08534" lon="1.42405">
        <ele>318.33</ele>
        <time>2014-09-14T06:47:57Z</time>
      </trkpt>
      <trkpt lat="43.08539" lon="1.42392">
        <ele>317.85</ele>
        <time>2014-09-14T06:47:58Z</time>
      </trkpt>
      <trkpt lat="43.08543" lon="1.42379">
        <ele>317.37</ele>
        <time>2014-09-14T06:47:59Z</time>
      </trkpt>
      <trkpt lat="43.08603" lon="1.42137">
        <ele>312.57</ele>
        <time>2014-09-14T06:48:17Z</time>
      </trkpt>
      <trkpt lat="43.08664" lon="1.41962">
        <ele>309.2</ele>
        <time>2014-09-14T06:48:31Z</time>
      </trkpt>
      <trkpt lat="43.08769" lon="1.41832">
        <ele>309.2</ele>
        <time>2014-09-14T06:48:46Z</time>
      </trkpt>
      <trkpt lat="43.08878" lon="1.41662">
        <ele>306.32</ele>
        <time>2014-09-14T06:49:03Z</time>
      </trkpt>
      <trkpt lat="43.08917" lon="1.41463">
        <ele>301.99</ele>
        <time>2014-09-14T06:49:18Z</time>
      </trkpt>
      <trkpt lat="43.0897" lon="1.41163">
        <ele>295.26</ele>
        <time>2014-09-14T06:49:41Z</time>
      </trkpt>
      <trkpt lat="43.09008" lon="1.40946">
        <ele>293.82</ele>
        <time>2014-09-14T06:49:58Z</time>
      </trkpt>
      <trkpt lat="43.09065" lon="1.40736">
        <ele>291.42</ele>
        <time>2014-09-14T06:50:15Z</time>
      </trkpt>
      <trkpt lat="43.09143" lon="1.4057">
        <ele>289.49</ele>
        <time>2014-09-14T06:50:30Z</time>
      </trkpt>
      <trkpt lat="43.09234" lon="1.40497">
        <ele>290.46</ele>
        <time>2014-09-14T06:50:41Z</time>
      </trkpt>
      <trkpt lat="43.0924" lon="1.40486">
        <ele>290.46</ele>
        <time>2014-09-14T06:50:42Z</time>
      </trkpt>
      <trkpt lat="43.09246" lon="1.40476">
        <ele>290.46</ele>
        <time>2014-09-14T06:50:43Z</time>
      </trkpt>
      <trkpt lat="43.09317" lon="1.40301">
        <ele>288.05</ele>
        <time>2014-09-14T06:50:58Z</time>
      </trkpt>
      <trkpt lat="43.09394" lon="1.40054">
        <ele>282.28</ele>
        <time>2014-09-14T06:51:18Z</time>
      </trkpt>
      <trkpt lat="43.09464" lon="1.39851">
        <ele>279.4</ele>
        <time>2014-09-14T06:51:35Z</time>
      </trkpt>
      <trkpt lat="43.09587" lon="1.3964">
        <ele>277.96</ele>
        <time>2014-09-14T06:51:56Z</time>
      </trkpt>
      <trkpt lat="43.09701" lon="1.39436">
        <ele>276.04</ele>
        <time>2014-09-14T06:52:16Z</time>
      </trkpt>
      <trkpt lat="43.0977" lon="1.39365">
        <ele>274.11</ele>
        <time>2014-09-14T06:52:25Z</time>
      </trkpt>
      <trkpt lat="43.09779" lon="1.39359">
        <ele>274.11</ele>
        <time>2014-09-14T06:52:26Z</time>
      </trkpt>
      <trkpt lat="43.09788" lon="1.39355">
        <ele>274.11</ele>
        <time>2014-09-14T06:52:27Z</time>
      </trkpt>
      <trkpt lat="43.09797" lon="1.39352">
        <ele>274.11</ele>
        <time>2014-09-14T06:52:28Z</time>
      </trkpt>
      <trkpt lat="43.09807" lon="1.39349">
        <ele>274.11</ele>
        <time>2014-09-14T06:52:29Z</time>
      </trkpt>
      <trkpt lat="43.09844" lon="1.39333">
        <ele>273.63</ele>
        <time>2014-09-14T06:52:33Z</time>
      </trkpt>
      <trkpt lat="43.09852" lon="1.39327">
        <ele>273.15</ele>
        <time>2014-09-14T06:52:34Z</time>
      </trkpt>
      <trkpt lat="43.09934" lon="1.39226">
        <ele>272.67</ele>
        <time>2014-09-14T06:52:46Z</time>
      </trkpt>
      <trkpt lat="43.10028" lon="1.39045">
        <ele>271.71</ele>
        <time>2014-09-14T06:53:04Z</time>
      </trkpt>
      <trkpt lat="43.10055" lon="1.38991">
        <ele>272.19</ele>
        <time>2014-09-14T06:53:10Z</time>
      </trkpt>
      <trkpt lat="43.10057" lon="1.38983">
        <ele>272.19</ele>
        <time>2014-09-14T06:53:11Z</time>
      </trkpt>
      <trkpt lat="43.10058" lon="1.38973">
        <ele>272.19</ele>
        <time>2014-09-14T06:53:12Z</time>
      </trkpt>
      <trkpt lat="43.10059" lon="1.38962">
        <ele>272.19</ele>
        <time>2014-09-14T06:53:13Z</time>
      </trkpt>
      <trkpt lat="43.10059" lon="1.38953">
        <ele>272.19</ele>
        <time>2014-09-14T06:53:14Z</time>
      </trkpt>
      <trkpt lat="43.10045" lon="1.38922">
        <ele>272.19</ele>
        <time>2014-09-14T06:53:19Z</time>
      </trkpt>
      <trkpt lat="43.10035" lon="1.38917">
        <ele>272.19</ele>
        <time>2014-09-14T06:53:21Z</time>
      </trkpt>
      <trkpt lat="43.09948" lon="1.38847">
        <ele>270.75</ele>
        <time>2014-09-14T06:53:33Z</time>
      </trkpt>
      <trkpt lat="43.09888" lon="1.38779">
        <ele>269.79</ele>
        <time>2014-09-14T06:53:44Z</time>
      </trkpt>
      <trkpt lat="43.09822" lon="1.38673">
        <ele>269.79</ele>
        <time>2014-09-14T06:54:00Z</time>
      </trkpt>
      <trkpt lat="43.0981" lon="1.38656">
        <ele>270.27</ele>
        <time>2014-09-14T06:54:03Z</time>
      </trkpt>
      <trkpt lat="43.09804" lon="1.38651">
        <ele>269.79</ele>
        <time>2014-09-14T06:54:04Z</time>
      </trkpt>
      <trkpt lat="43.09798" lon="1.38648">
        <ele>269.79</ele>
        <time>2014-09-14T06:54:05Z</time>
      </trkpt>
      <trkpt lat="43.09792" lon="1.38646">
        <ele>269.79</ele>
        <time>2014-09-14T06:54:06Z</time>
      </trkpt>
      <trkpt lat="43.09786" lon="1.38644">
        <ele>269.79</ele>
        <time>2014-09-14T06:54:07Z</time>
      </trkpt>
      <trkpt lat="43.09677" lon="1.38616">
        <ele>270.75</ele>
        <time>2014-09-14T06:54:25Z</time>
      </trkpt>
      <trkpt lat="43.09597" lon="1.38592">
        <ele>271.23</ele>
        <time>2014-09-14T06:54:38Z</time>
      </trkpt>
      <trkpt lat="43.09494" lon="1.38565">
        <ele>270.75</ele>
        <time>2014-09-14T06:54:56Z</time>
      </trkpt>
      <trkpt lat="43.09421" lon="1.38552">
        <ele>271.71</ele>
        <time>2014-09-14T06:55:10Z</time>
      </trkpt>
      <trkpt lat="43.09373" lon="1.38537">
        <ele>273.15</ele>
        <time>2014-09-14T06:55:19Z</time>
      </trkpt>
      <trkpt lat="43.09323" lon="1.3851">
        <ele>275.56</ele>
        <time>2014-09-14T06:55:29Z</time>
      </trkpt>
      <trkpt lat="43.09293" lon="1.38502">
        <ele>277</ele>
        <time>2014-09-14T06:55:35Z</time>
      </trkpt>
      <trkpt lat="43.09288" lon="1.38501">
        <ele>277</ele>
        <time>2014-09-14T06:55:36Z</time>
      </trkpt>
      <trkpt lat="43.09226" lon="1.38485">
        <ele>277.96</ele>
        <time>2014-09-14T06:55:49Z</time>
      </trkpt>
      <trkpt lat="43.09222" lon="1.38482">
        <ele>278.44</ele>
        <time>2014-09-14T06:55:50Z</time>
      </trkpt>
      <trkpt lat="43.09188" lon="1.3845">
        <ele>279.4</ele>
        <time>2014-09-14T06:55:59Z</time>
      </trkpt>
      <trkpt lat="43.09184" lon="1.38445">
        <ele>279.4</ele>
        <time>2014-09-14T06:56:00Z</time>
      </trkpt>
      <trkpt lat="43.09172" lon="1.38426">
        <ele>279.4</ele>
        <time>2014-09-14T06:56:04Z</time>
      </trkpt>
      <trkpt lat="43.09162" lon="1.38405">
        <ele>279.88</ele>
        <time>2014-09-14T06:56:08Z</time>
      </trkpt>
      <trkpt lat="43.0916" lon="1.38399">
        <ele>279.88</ele>
        <time>2014-09-14T06:56:09Z</time>
      </trkpt>
      <trkpt lat="43.09156" lon="1.38387">
        <ele>280.36</ele>
        <time>2014-09-14T06:56:11Z</time>
      </trkpt>
      <trkpt lat="43.09155" lon="1.38379">
        <ele>280.36</ele>
        <time>2014-09-14T06:56:12Z</time>
      </trkpt>
      <trkpt lat="43.09155" lon="1.38373">
        <ele>280.84</ele>
        <time>2014-09-14T06:56:13Z</time>
      </trkpt>
      <trkpt lat="43.09155" lon="1.38366">
        <ele>281.8</ele>
        <time>2014-09-14T06:56:14Z</time>
      </trkpt>
      <trkpt lat="43.09156" lon="1.38358">
        <ele>282.28</ele>
        <time>2014-09-14T06:56:15Z</time>
      </trkpt>
      <trkpt lat="43.09157" lon="1.38353">
        <ele>282.77</ele>
        <time>2014-09-14T06:56:16Z</time>
      </trkpt>
      <trkpt lat="43.0916" lon="1.38347">
        <ele>282.77</ele>
        <time>2014-09-14T06:56:17Z</time>
      </trkpt>
      <trkpt lat="43.09162" lon="1.38341">
        <ele>283.25</ele>
        <time>2014-09-14T06:56:18Z</time>
      </trkpt>
      <trkpt lat="43.09165" lon="1.38336">
        <ele>283.73</ele>
        <time>2014-09-14T06:56:19Z</time>
      </trkpt>
      <trkpt lat="43.09168" lon="1.38331">
        <ele>283.73</ele>
        <time>2014-09-14T06:56:20Z</time>
      </trkpt>
      <trkpt lat="43.09172" lon="1.38326">
        <ele>283.73</ele>
        <time>2014-09-14T06:56:21Z</time>
      </trkpt>
      <trkpt lat="43.09178" lon="1.38321">
        <ele>283.73</ele>
        <time>2014-09-14T06:56:22Z</time>
      </trkpt>
      <trkpt lat="43.09181" lon="1.38318">
        <ele>284.21</ele>
        <time>2014-09-14T06:56:23Z</time>
      </trkpt>
      <trkpt lat="43.09207" lon="1.38295">
        <ele>285.17</ele>
        <time>2014-09-14T06:56:29Z</time>
      </trkpt>
      <trkpt lat="43.09211" lon="1.38289">
        <ele>285.65</ele>
        <time>2014-09-14T06:56:30Z</time>
      </trkpt>
      <trkpt lat="43.09214" lon="1.38284">
        <ele>285.65</ele>
        <time>2014-09-14T06:56:31Z</time>
      </trkpt>
      <trkpt lat="43.09217" lon="1.38279">
        <ele>286.13</ele>
        <time>2014-09-14T06:56:32Z</time>
      </trkpt>
      <trkpt lat="43.09219" lon="1.38273">
        <ele>286.13</ele>
        <time>2014-09-14T06:56:33Z</time>
      </trkpt>
      <trkpt lat="43.09222" lon="1.38266">
        <ele>286.13</ele>
        <time>2014-09-14T06:56:34Z</time>
      </trkpt>
      <trkpt lat="43.09223" lon="1.38259">
        <ele>286.61</ele>
        <time>2014-09-14T06:56:35Z</time>
      </trkpt>
      <trkpt lat="43.09224" lon="1.38252">
        <ele>286.61</ele>
        <time>2014-09-14T06:56:36Z</time>
      </trkpt>
      <trkpt lat="43.09225" lon="1.38245">
        <ele>287.09</ele>
        <time>2014-09-14T06:56:37Z</time>
      </trkpt>
      <trkpt lat="43.09225" lon="1.38237">
        <ele>287.09</ele>
        <time>2014-09-14T06:56:38Z</time>
      </trkpt>
      <trkpt lat="43.09226" lon="1.38231">
        <ele>287.09</ele>
        <time>2014-09-14T06:56:39Z</time>
      </trkpt>
      <trkpt lat="43.09218" lon="1.38114">
        <ele>288.05</ele>
        <time>2014-09-14T06:56:55Z</time>
      </trkpt>
      <trkpt lat="43.0918" lon="1.37975">
        <ele>282.77</ele>
        <time>2014-09-14T06:57:11Z</time>
      </trkpt>
      <trkpt lat="43.09139" lon="1.37832">
        <ele>278.92</ele>
        <time>2014-09-14T06:57:26Z</time>
      </trkpt>
      <trkpt lat="43.09134" lon="1.37824">
        <ele>278.44</ele>
        <time>2014-09-14T06:57:27Z</time>
      </trkpt>
      <trkpt lat="43.09129" lon="1.37817">
        <ele>278.44</ele>
        <time>2014-09-14T06:57:28Z</time>
      </trkpt>
      <trkpt lat="43.09122" lon="1.37809">
        <ele>277.96</ele>
        <time>2014-09-14T06:57:29Z</time>
      </trkpt>
      <trkpt lat="43.09117" lon="1.37803">
        <ele>277.96</ele>
        <time>2014-09-14T06:57:30Z</time>
      </trkpt>
      <trkpt lat="43.0902" lon="1.37689">
        <ele>277</ele>
        <time>2014-09-14T06:57:46Z</time>
      </trkpt>
      <trkpt lat="43.08951" lon="1.37604">
        <ele>277</ele>
        <time>2014-09-14T06:57:59Z</time>
      </trkpt>
      <trkpt lat="43.08893" lon="1.37498">
        <ele>277.48</ele>
        <time>2014-09-14T06:58:13Z</time>
      </trkpt>
      <trkpt lat="43.08819" lon="1.3736">
        <ele>278.44</ele>
        <time>2014-09-14T06:58:32Z</time>
      </trkpt>
      <trkpt lat="43.08747" lon="1.37267">
        <ele>279.88</ele>
        <time>2014-09-14T06:58:47Z</time>
      </trkpt>
      <trkpt lat="43.0867" lon="1.37199">
        <ele>279.88</ele>
        <time>2014-09-14T06:59:01Z</time>
      </trkpt>
      <trkpt lat="43.08582" lon="1.37196">
        <ele>279.88</ele>
        <time>2014-09-14T06:59:14Z</time>
      </trkpt>
      <trkpt lat="43.08544" lon="1.37212">
        <ele>280.36</ele>
        <time>2014-09-14T06:59:20Z</time>
      </trkpt>
      <trkpt lat="43.08484" lon="1.37294">
        <ele>281.32</ele>
        <time>2014-09-14T06:59:32Z</time>
      </trkpt>
      <trkpt lat="43.08479" lon="1.37299">
        <ele>281.32</ele>
        <time>2014-09-14T06:59:33Z</time>
      </trkpt>
      <trkpt lat="43.08402" lon="1.37345">
        <ele>280.84</ele>
        <time>2014-09-14T06:59:45Z</time>
      </trkpt>
      <trkpt lat="43.08331" lon="1.37402">
        <ele>280.84</ele>
        <time>2014-09-14T06:59:58Z</time>
      </trkpt>
      <trkpt lat="43.08295" lon="1.3744">
        <ele>281.8</ele>
        <time>2014-09-14T07:00:11Z</time>
      </trkpt>
      <trkpt lat="43.08285" lon="1.37449">
        <ele>282.28</ele>
        <time>2014-09-14T07:00:23Z</time>
      </trkpt>
      <trkpt lat="43.08286" lon="1.3745">
        <ele>284.21</ele>
        <time>2014-09-14T07:00:41Z</time>
      </trkpt>
      <trkpt lat="43.08286" lon="1.37451">
        <ele>284.21</ele>
        <time>2014-09-14T07:00:42Z</time>
      </trkpt>
      <trkpt lat="43.08291" lon="1.37448">
        <ele>285.65</ele>
        <time>2014-09-14T07:00:45Z</time>
      </trkpt>
      <trkpt lat="43.08293" lon="1.37446">
        <ele>286.13</ele>
        <time>2014-09-14T07:00:46Z</time>
      </trkpt>
      <trkpt lat="43.08294" lon="1.37444">
        <ele>286.61</ele>
        <time>2014-09-14T07:00:47Z</time>
      </trkpt>
      <trkpt lat="43.08336" lon="1.37402">
        <ele>290.46</ele>
        <time>2014-09-14T07:01:00Z</time>
      </trkpt>
      <trkpt lat="43.08408" lon="1.37349">
        <ele>290.94</ele>
        <time>2014-09-14T07:01:13Z</time>
      </trkpt>
      <trkpt lat="43.08488" lon="1.37297">
        <ele>291.42</ele>
        <time>2014-09-14T07:01:26Z</time>
      </trkpt>
      <trkpt lat="43.08497" lon="1.37284">
        <ele>291.42</ele>
        <time>2014-09-14T07:01:28Z</time>
      </trkpt>
      <trkpt lat="43.08532" lon="1.3723">
        <ele>292.38</ele>
        <time>2014-09-14T07:01:36Z</time>
      </trkpt>
      <trkpt lat="43.08537" lon="1.37224">
        <ele>292.86</ele>
        <time>2014-09-14T07:01:37Z</time>
      </trkpt>
      <trkpt lat="43.08543" lon="1.3722">
        <ele>292.86</ele>
        <time>2014-09-14T07:01:38Z</time>
      </trkpt>
      <trkpt lat="43.08623" lon="1.37201">
        <ele>295.26</ele>
        <time>2014-09-14T07:01:50Z</time>
      </trkpt>
      <trkpt lat="43.08666" lon="1.37204">
        <ele>294.78</ele>
        <time>2014-09-14T07:01:57Z</time>
      </trkpt>
      <trkpt lat="43.08672" lon="1.37206">
        <ele>294.3</ele>
        <time>2014-09-14T07:01:58Z</time>
      </trkpt>
      <trkpt lat="43.08738" lon="1.37268">
        <ele>291.42</ele>
        <time>2014-09-14T07:02:11Z</time>
      </trkpt>
      <trkpt lat="43.08785" lon="1.3732">
        <ele>285.17</ele>
        <time>2014-09-14T07:02:21Z</time>
      </trkpt>
      <trkpt lat="43.08789" lon="1.37326">
        <ele>285.17</ele>
        <time>2014-09-14T07:02:22Z</time>
      </trkpt>
      <trkpt lat="43.08793" lon="1.3733">
        <ele>285.17</ele>
        <time>2014-09-14T07:02:23Z</time>
      </trkpt>
      <trkpt lat="43.08799" lon="1.37332">
        <ele>285.17</ele>
        <time>2014-09-14T07:02:24Z</time>
      </trkpt>
      <trkpt lat="43.08801" lon="1.37331">
        <ele>285.17</ele>
        <time>2014-09-14T07:02:25Z</time>
      </trkpt>
      <trkpt lat="43.08805" lon="1.37326">
        <ele>282.77</ele>
        <time>2014-09-14T07:02:33Z</time>
      </trkpt>
      <trkpt lat="43.08806" lon="1.37327">
        <ele>281.32</ele>
        <time>2014-09-14T07:03:02Z</time>
      </trkpt>
      <trkpt lat="43.08805" lon="1.37326">
        <ele>282.28</ele>
        <time>2014-09-14T07:03:41Z</time>
      </trkpt>
      <trkpt lat="43.08806" lon="1.37326">
        <ele>282.77</ele>
        <time>2014-09-14T07:03:58Z</time>
      </trkpt>
      <trkpt lat="43.08796" lon="1.3733">
        <ele>282.77</ele>
        <time>2014-09-14T07:04:04Z</time>
      </trkpt>
      <trkpt lat="43.08792" lon="1.37327">
        <ele>282.28</ele>
        <time>2014-09-14T07:04:06Z</time>
      </trkpt>
      <trkpt lat="43.08779" lon="1.37311">
        <ele>282.28</ele>
        <time>2014-09-14T07:04:09Z</time>
      </trkpt>
      <trkpt lat="43.08728" lon="1.37245">
        <ele>281.8</ele>
        <time>2014-09-14T07:04:22Z</time>
      </trkpt>
      <trkpt lat="43.08705" lon="1.37219">
        <ele>281.8</ele>
        <time>2014-09-14T07:04:27Z</time>
      </trkpt>
      <trkpt lat="43.08669" lon="1.372">
        <ele>281.8</ele>
        <time>2014-09-14T07:04:33Z</time>
      </trkpt>
      <trkpt lat="43.08569" lon="1.372">
        <ele>281.32</ele>
        <time>2014-09-14T07:04:49Z</time>
      </trkpt>
      <trkpt lat="43.08558" lon="1.37204">
        <ele>281.32</ele>
        <time>2014-09-14T07:04:51Z</time>
      </trkpt>
      <trkpt lat="43.08552" lon="1.37208">
        <ele>281.32</ele>
        <time>2014-09-14T07:04:52Z</time>
      </trkpt>
      <trkpt lat="43.08545" lon="1.37212">
        <ele>281.32</ele>
        <time>2014-09-14T07:04:53Z</time>
      </trkpt>
      <trkpt lat="43.0854" lon="1.37217">
        <ele>281.32</ele>
        <time>2014-09-14T07:04:54Z</time>
      </trkpt>
      <trkpt lat="43.08534" lon="1.37222">
        <ele>281.32</ele>
        <time>2014-09-14T07:04:55Z</time>
      </trkpt>
      <trkpt lat="43.08529" lon="1.37229">
        <ele>280.84</ele>
        <time>2014-09-14T07:04:56Z</time>
      </trkpt>
      <trkpt lat="43.08525" lon="1.37233">
        <ele>280.84</ele>
        <time>2014-09-14T07:04:57Z</time>
      </trkpt>
      <trkpt lat="43.08465" lon="1.37313">
        <ele>281.32</ele>
        <time>2014-09-14T07:05:10Z</time>
      </trkpt>
      <trkpt lat="43.08373" lon="1.37365">
        <ele>279.88</ele>
        <time>2014-09-14T07:05:25Z</time>
      </trkpt>
      <trkpt lat="43.08288" lon="1.37447">
        <ele>279.88</ele>
        <time>2014-09-14T07:05:41Z</time>
      </trkpt>
      <trkpt lat="43.08185" lon="1.37569">
        <ele>283.25</ele>
        <time>2014-09-14T07:06:02Z</time>
      </trkpt>
      <trkpt lat="43.08178" lon="1.37583">
        <ele>283.73</ele>
        <time>2014-09-14T07:06:04Z</time>
      </trkpt>
      <trkpt lat="43.08176" lon="1.37591">
        <ele>284.21</ele>
        <time>2014-09-14T07:06:05Z</time>
      </trkpt>
      <trkpt lat="43.08173" lon="1.37599">
        <ele>284.21</ele>
        <time>2014-09-14T07:06:06Z</time>
      </trkpt>
      <trkpt lat="43.08128" lon="1.37709">
        <ele>287.09</ele>
        <time>2014-09-14T07:06:20Z</time>
      </trkpt>
      <trkpt lat="43.08098" lon="1.37802">
        <ele>286.61</ele>
        <time>2014-09-14T07:06:32Z</time>
      </trkpt>
      <trkpt lat="43.08055" lon="1.37892">
        <ele>286.13</ele>
        <time>2014-09-14T07:06:44Z</time>
      </trkpt>
      <trkpt lat="43.08051" lon="1.37899">
        <ele>286.13</ele>
        <time>2014-09-14T07:06:45Z</time>
      </trkpt>
      <trkpt lat="43.08011" lon="1.3797">
        <ele>286.13</ele>
        <time>2014-09-14T07:06:56Z</time>
      </trkpt>
      <trkpt lat="43.08" lon="1.37985">
        <ele>286.13</ele>
        <time>2014-09-14T07:06:58Z</time>
      </trkpt>
      <trkpt lat="43.0799" lon="1.37994">
        <ele>286.13</ele>
        <time>2014-09-14T07:07:00Z</time>
      </trkpt>
      <trkpt lat="43.07984" lon="1.37996">
        <ele>286.13</ele>
        <time>2014-09-14T07:07:01Z</time>
      </trkpt>
      <trkpt lat="43.07977" lon="1.37999">
        <ele>286.13</ele>
        <time>2014-09-14T07:07:02Z</time>
      </trkpt>
      <trkpt lat="43.07973" lon="1.37999">
        <ele>286.13</ele>
        <time>2014-09-14T07:07:03Z</time>
      </trkpt>
      <trkpt lat="43.07966" lon="1.38">
        <ele>286.13</ele>
        <time>2014-09-14T07:07:04Z</time>
      </trkpt>
      <trkpt lat="43.07959" lon="1.37999">
        <ele>286.13</ele>
        <time>2014-09-14T07:07:05Z</time>
      </trkpt>
      <trkpt lat="43.07953" lon="1.37997">
        <ele>286.13</ele>
        <time>2014-09-14T07:07:06Z</time>
      </trkpt>
      <trkpt lat="43.07946" lon="1.37994">
        <ele>286.13</ele>
        <time>2014-09-14T07:07:07Z</time>
      </trkpt>
      <trkpt lat="43.07941" lon="1.37991">
        <ele>286.13</ele>
        <time>2014-09-14T07:07:08Z</time>
      </trkpt>
      <trkpt lat="43.07935" lon="1.37987">
        <ele>286.13</ele>
        <time>2014-09-14T07:07:09Z</time>
      </trkpt>
      <trkpt lat="43.0793" lon="1.37982">
        <ele>286.13</ele>
        <time>2014-09-14T07:07:10Z</time>
      </trkpt>
      <trkpt lat="43.07925" lon="1.37977">
        <ele>285.65</ele>
        <time>2014-09-14T07:07:11Z</time>
      </trkpt>
      <trkpt lat="43.0792" lon="1.3797">
        <ele>286.13</ele>
        <time>2014-09-14T07:07:12Z</time>
      </trkpt>
      <trkpt lat="43.07915" lon="1.37964">
        <ele>286.13</ele>
        <time>2014-09-14T07:07:13Z</time>
      </trkpt>
      <trkpt lat="43.07912" lon="1.37956">
        <ele>286.13</ele>
        <time>2014-09-14T07:07:14Z</time>
      </trkpt>
      <trkpt lat="43.0791" lon="1.37948">
        <ele>286.13</ele>
        <time>2014-09-14T07:07:15Z</time>
      </trkpt>
      <trkpt lat="43.07908" lon="1.37939">
        <ele>286.13</ele>
        <time>2014-09-14T07:07:16Z</time>
      </trkpt>
      <trkpt lat="43.07907" lon="1.37931">
        <ele>286.61</ele>
        <time>2014-09-14T07:07:17Z</time>
      </trkpt>
      <trkpt lat="43.07897" lon="1.37825">
        <ele>287.09</ele>
        <time>2014-09-14T07:07:29Z</time>
      </trkpt>
      <trkpt lat="43.07894" lon="1.37817">
        <ele>287.09</ele>
        <time>2014-09-14T07:07:30Z</time>
      </trkpt>
      <trkpt lat="43.07889" lon="1.37807">
        <ele>286.61</ele>
        <time>2014-09-14T07:07:31Z</time>
      </trkpt>
      <trkpt lat="43.07886" lon="1.37801">
        <ele>286.61</ele>
        <time>2014-09-14T07:07:32Z</time>
      </trkpt>
      <trkpt lat="43.07881" lon="1.37794">
        <ele>286.61</ele>
        <time>2014-09-14T07:07:33Z</time>
      </trkpt>
      <trkpt lat="43.07875" lon="1.37787">
        <ele>286.61</ele>
        <time>2014-09-14T07:07:34Z</time>
      </trkpt>
      <trkpt lat="43.07871" lon="1.37782">
        <ele>286.61</ele>
        <time>2014-09-14T07:07:35Z</time>
      </trkpt>
      <trkpt lat="43.07865" lon="1.37777">
        <ele>286.13</ele>
        <time>2014-09-14T07:07:36Z</time>
      </trkpt>
      <trkpt lat="43.07859" lon="1.37773">
        <ele>286.13</ele>
        <time>2014-09-14T07:07:37Z</time>
      </trkpt>
      <trkpt lat="43.07853" lon="1.37769">
        <ele>286.13</ele>
        <time>2014-09-14T07:07:38Z</time>
      </trkpt>
      <trkpt lat="43.07846" lon="1.37765">
        <ele>286.13</ele>
        <time>2014-09-14T07:07:39Z</time>
      </trkpt>
      <trkpt lat="43.07804" lon="1.37737">
        <ele>285.65</ele>
        <time>2014-09-14T07:07:46Z</time>
      </trkpt>
      <trkpt lat="43.07799" lon="1.37732">
        <ele>285.65</ele>
        <time>2014-09-14T07:07:47Z</time>
      </trkpt>
      <trkpt lat="43.07793" lon="1.37723">
        <ele>285.65</ele>
        <time>2014-09-14T07:07:48Z</time>
      </trkpt>
      <trkpt lat="43.0779" lon="1.37715">
        <ele>285.65</ele>
        <time>2014-09-14T07:07:49Z</time>
      </trkpt>
      <trkpt lat="43.07787" lon="1.37707">
        <ele>285.65</ele>
        <time>2014-09-14T07:07:50Z</time>
      </trkpt>
      <trkpt lat="43.07786" lon="1.37698">
        <ele>285.65</ele>
        <time>2014-09-14T07:07:51Z</time>
      </trkpt>
      <trkpt lat="43.07786" lon="1.3769">
        <ele>285.65</ele>
        <time>2014-09-14T07:07:52Z</time>
      </trkpt>
      <trkpt lat="43.07786" lon="1.37682">
        <ele>285.65</ele>
        <time>2014-09-14T07:07:53Z</time>
      </trkpt>
      <trkpt lat="43.07799" lon="1.37517">
        <ele>287.09</ele>
        <time>2014-09-14T07:08:12Z</time>
      </trkpt>
      <trkpt lat="43.07805" lon="1.37383">
        <ele>287.09</ele>
        <time>2014-09-14T07:08:27Z</time>
      </trkpt>
      <trkpt lat="43.07818" lon="1.3724">
        <ele>286.13</ele>
        <time>2014-09-14T07:08:42Z</time>
      </trkpt>
      <trkpt lat="43.07819" lon="1.37092">
        <ele>285.17</ele>
        <time>2014-09-14T07:08:57Z</time>
      </trkpt>
      <trkpt lat="43.07826" lon="1.36938">
        <ele>285.17</ele>
        <time>2014-09-14T07:09:13Z</time>
      </trkpt>
      <trkpt lat="43.07813" lon="1.36798">
        <ele>286.13</ele>
        <time>2014-09-14T07:09:28Z</time>
      </trkpt>
      <trkpt lat="43.07834" lon="1.36692">
        <ele>287.57</ele>
        <time>2014-09-14T07:09:40Z</time>
      </trkpt>
      <trkpt lat="43.07843" lon="1.36667">
        <ele>288.05</ele>
        <time>2014-09-14T07:09:43Z</time>
      </trkpt>
      <trkpt lat="43.07847" lon="1.36659">
        <ele>288.05</ele>
        <time>2014-09-14T07:09:44Z</time>
      </trkpt>
      <trkpt lat="43.07851" lon="1.36652">
        <ele>288.53</ele>
        <time>2014-09-14T07:09:45Z</time>
      </trkpt>
      <trkpt lat="43.07856" lon="1.36646">
        <ele>288.53</ele>
        <time>2014-09-14T07:09:46Z</time>
      </trkpt>
      <trkpt lat="43.07862" lon="1.36641">
        <ele>289.01</ele>
        <time>2014-09-14T07:09:47Z</time>
      </trkpt>
      <trkpt lat="43.07867" lon="1.36637">
        <ele>289.01</ele>
        <time>2014-09-14T07:09:48Z</time>
      </trkpt>
      <trkpt lat="43.07873" lon="1.36633">
        <ele>289.49</ele>
        <time>2014-09-14T07:09:49Z</time>
      </trkpt>
      <trkpt lat="43.0788" lon="1.3663">
        <ele>289.49</ele>
        <time>2014-09-14T07:09:50Z</time>
      </trkpt>
      <trkpt lat="43.07987" lon="1.36598">
        <ele>291.9</ele>
        <time>2014-09-14T07:10:06Z</time>
      </trkpt>
      <trkpt lat="43.08029" lon="1.36576">
        <ele>292.38</ele>
        <time>2014-09-14T07:10:13Z</time>
      </trkpt>
      <trkpt lat="43.08035" lon="1.3657">
        <ele>292.86</ele>
        <time>2014-09-14T07:10:14Z</time>
      </trkpt>
      <trkpt lat="43.08041" lon="1.36562">
        <ele>292.86</ele>
        <time>2014-09-14T07:10:15Z</time>
      </trkpt>
      <trkpt lat="43.08044" lon="1.36557">
        <ele>292.86</ele>
        <time>2014-09-14T07:10:16Z</time>
      </trkpt>
      <trkpt lat="43.08047" lon="1.36551">
        <ele>292.86</ele>
        <time>2014-09-14T07:10:17Z</time>
      </trkpt>
      <trkpt lat="43.08051" lon="1.36544">
        <ele>292.86</ele>
        <time>2014-09-14T07:10:18Z</time>
      </trkpt>
      <trkpt lat="43.08055" lon="1.36535">
        <ele>292.86</ele>
        <time>2014-09-14T07:10:19Z</time>
      </trkpt>
      <trkpt lat="43.08092" lon="1.36407">
        <ele>289.49</ele>
        <time>2014-09-14T07:10:34Z</time>
      </trkpt>
      <trkpt lat="43.08084" lon="1.36299">
        <ele>286.13</ele>
        <time>2014-09-14T07:10:46Z</time>
      </trkpt>
      <trkpt lat="43.08075" lon="1.36254">
        <ele>284.69</ele>
        <time>2014-09-14T07:10:51Z</time>
      </trkpt>
      <trkpt lat="43.08054" lon="1.36187">
        <ele>282.77</ele>
        <time>2014-09-14T07:10:59Z</time>
      </trkpt>
      <trkpt lat="43.08049" lon="1.3618">
        <ele>282.28</ele>
        <time>2014-09-14T07:11:00Z</time>
      </trkpt>
      <trkpt lat="43.08045" lon="1.36175">
        <ele>282.28</ele>
        <time>2014-09-14T07:11:01Z</time>
      </trkpt>
      <trkpt lat="43.08039" lon="1.36171">
        <ele>281.8</ele>
        <time>2014-09-14T07:11:02Z</time>
      </trkpt>
      <trkpt lat="43.08034" lon="1.36168">
        <ele>281.8</ele>
        <time>2014-09-14T07:11:03Z</time>
      </trkpt>
      <trkpt lat="43.08026" lon="1.36165">
        <ele>281.8</ele>
        <time>2014-09-14T07:11:04Z</time>
      </trkpt>
      <trkpt lat="43.0802" lon="1.36163">
        <ele>281.8</ele>
        <time>2014-09-14T07:11:05Z</time>
      </trkpt>
      <trkpt lat="43.07969" lon="1.36141">
        <ele>280.84</ele>
        <time>2014-09-14T07:11:14Z</time>
      </trkpt>
      <trkpt lat="43.07904" lon="1.36068">
        <ele>282.77</ele>
        <time>2014-09-14T07:11:28Z</time>
      </trkpt>
      <trkpt lat="43.07866" lon="1.36027">
        <ele>283.73</ele>
        <time>2014-09-14T07:11:36Z</time>
      </trkpt>
      <trkpt lat="43.07861" lon="1.36023">
        <ele>284.21</ele>
        <time>2014-09-14T07:11:37Z</time>
      </trkpt>
      <trkpt lat="43.07855" lon="1.36021">
        <ele>284.21</ele>
        <time>2014-09-14T07:11:38Z</time>
      </trkpt>
      <trkpt lat="43.07785" lon="1.36005">
        <ele>284.69</ele>
        <time>2014-09-14T07:11:49Z</time>
      </trkpt>
      <trkpt lat="43.07712" lon="1.35985">
        <ele>288.05</ele>
        <time>2014-09-14T07:12:03Z</time>
      </trkpt>
      <trkpt lat="43.07644" lon="1.35967">
        <ele>292.86</ele>
        <time>2014-09-14T07:12:18Z</time>
      </trkpt>
      <trkpt lat="43.07582" lon="1.35953">
        <ele>297.67</ele>
        <time>2014-09-14T07:12:33Z</time>
      </trkpt>
      <trkpt lat="43.07553" lon="1.35924">
        <ele>300.07</ele>
        <time>2014-09-14T07:12:44Z</time>
      </trkpt>
      <trkpt lat="43.07498" lon="1.35859">
        <ele>300.55</ele>
        <time>2014-09-14T07:12:58Z</time>
      </trkpt>
      <trkpt lat="43.07493" lon="1.35854">
        <ele>300.55</ele>
        <time>2014-09-14T07:12:59Z</time>
      </trkpt>
      <trkpt lat="43.07462" lon="1.35829">
        <ele>298.63</ele>
        <time>2014-09-14T07:13:05Z</time>
      </trkpt>
      <trkpt lat="43.07456" lon="1.35826">
        <ele>298.15</ele>
        <time>2014-09-14T07:13:06Z</time>
      </trkpt>
      <trkpt lat="43.07433" lon="1.3581">
        <ele>296.22</ele>
        <time>2014-09-14T07:13:10Z</time>
      </trkpt>
      <trkpt lat="43.07428" lon="1.35807">
        <ele>296.22</ele>
        <time>2014-09-14T07:13:11Z</time>
      </trkpt>
      <trkpt lat="43.07422" lon="1.35803">
        <ele>295.74</ele>
        <time>2014-09-14T07:13:12Z</time>
      </trkpt>
      <trkpt lat="43.07353" lon="1.35744">
        <ele>293.34</ele>
        <time>2014-09-14T07:13:26Z</time>
      </trkpt>
      <trkpt lat="43.0734" lon="1.35729">
        <ele>294.3</ele>
        <time>2014-09-14T07:13:29Z</time>
      </trkpt>
      <trkpt lat="43.073" lon="1.35676">
        <ele>298.63</ele>
        <time>2014-09-14T07:13:39Z</time>
      </trkpt>
      <trkpt lat="43.07294" lon="1.35671">
        <ele>298.63</ele>
        <time>2014-09-14T07:13:40Z</time>
      </trkpt>
      <trkpt lat="43.07289" lon="1.35668">
        <ele>299.11</ele>
        <time>2014-09-14T07:13:41Z</time>
      </trkpt>
      <trkpt lat="43.07203" lon="1.35655">
        <ele>302.95</ele>
        <time>2014-09-14T07:13:56Z</time>
      </trkpt>
      <trkpt lat="43.07193" lon="1.35654">
        <ele>303.43</ele>
        <time>2014-09-14T07:13:58Z</time>
      </trkpt>
      <trkpt lat="43.07186" lon="1.35654">
        <ele>303.43</ele>
        <time>2014-09-14T07:13:59Z</time>
      </trkpt>
      <trkpt lat="43.07163" lon="1.35653">
        <ele>304.88</ele>
        <time>2014-09-14T07:14:03Z</time>
      </trkpt>
      <trkpt lat="43.07152" lon="1.35654">
        <ele>305.36</ele>
        <time>2014-09-14T07:14:05Z</time>
      </trkpt>
      <trkpt lat="43.07146" lon="1.35654">
        <ele>305.36</ele>
        <time>2014-09-14T07:14:06Z</time>
      </trkpt>
      <trkpt lat="43.07141" lon="1.35654">
        <ele>305.36</ele>
        <time>2014-09-14T07:14:07Z</time>
      </trkpt>
      <trkpt lat="43.07136" lon="1.35652">
        <ele>305.84</ele>
        <time>2014-09-14T07:14:08Z</time>
      </trkpt>
      <trkpt lat="43.07131" lon="1.3565">
        <ele>305.84</ele>
        <time>2014-09-14T07:14:09Z</time>
      </trkpt>
      <trkpt lat="43.07126" lon="1.35646">
        <ele>305.84</ele>
        <time>2014-09-14T07:14:10Z</time>
      </trkpt>
      <trkpt lat="43.07115" lon="1.35639">
        <ele>305.84</ele>
        <time>2014-09-14T07:14:12Z</time>
      </trkpt>
      <trkpt lat="43.07111" lon="1.35636">
        <ele>305.84</ele>
        <time>2014-09-14T07:14:13Z</time>
      </trkpt>
      <trkpt lat="43.07107" lon="1.35631">
        <ele>305.84</ele>
        <time>2014-09-14T07:14:14Z</time>
      </trkpt>
      <trkpt lat="43.07104" lon="1.35627">
        <ele>305.84</ele>
        <time>2014-09-14T07:14:15Z</time>
      </trkpt>
      <trkpt lat="43.07101" lon="1.35622">
        <ele>305.84</ele>
        <time>2014-09-14T07:14:16Z</time>
      </trkpt>
      <trkpt lat="43.07097" lon="1.35615">
        <ele>305.84</ele>
        <time>2014-09-14T07:14:17Z</time>
      </trkpt>
      <trkpt lat="43.07093" lon="1.35606">
        <ele>305.84</ele>
        <time>2014-09-14T07:14:18Z</time>
      </trkpt>
      <trkpt lat="43.07092" lon="1.35601">
        <ele>305.84</ele>
        <time>2014-09-14T07:14:19Z</time>
      </trkpt>
      <trkpt lat="43.0709" lon="1.35594">
        <ele>305.84</ele>
        <time>2014-09-14T07:14:20Z</time>
      </trkpt>
      <trkpt lat="43.07088" lon="1.35587">
        <ele>305.84</ele>
        <time>2014-09-14T07:14:21Z</time>
      </trkpt>
      <trkpt lat="43.07088" lon="1.3558">
        <ele>305.84</ele>
        <time>2014-09-14T07:14:22Z</time>
      </trkpt>
      <trkpt lat="43.07087" lon="1.3557">
        <ele>305.84</ele>
        <time>2014-09-14T07:14:23Z</time>
      </trkpt>
      <trkpt lat="43.07083" lon="1.35526">
        <ele>305.84</ele>
        <time>2014-09-14T07:14:29Z</time>
      </trkpt>
      <trkpt lat="43.07082" lon="1.3552">
        <ele>305.84</ele>
        <time>2014-09-14T07:14:30Z</time>
      </trkpt>
      <trkpt lat="43.07079" lon="1.35514">
        <ele>305.84</ele>
        <time>2014-09-14T07:14:31Z</time>
      </trkpt>
      <trkpt lat="43.06787" lon="1.35475">
        <ele>338.04</ele>
        <time>2014-09-14T07:16:43Z</time>
      </trkpt>
      <trkpt lat="43.06796" lon="1.35522">
        <ele>328.43</ele>
        <time>2014-09-14T07:16:53Z</time>
      </trkpt>
      <trkpt lat="43.06793" lon="1.35531">
        <ele>327.95</ele>
        <time>2014-09-14T07:16:55Z</time>
      </trkpt>
      <trkpt lat="43.0679" lon="1.35537">
        <ele>328.43</ele>
        <time>2014-09-14T07:16:56Z</time>
      </trkpt>
      <trkpt lat="43.06787" lon="1.35543">
        <ele>328.91</ele>
        <time>2014-09-14T07:16:57Z</time>
      </trkpt>
      <trkpt lat="43.06783" lon="1.35547">
        <ele>328.91</ele>
        <time>2014-09-14T07:16:58Z</time>
      </trkpt>
      <trkpt lat="43.06779" lon="1.35552">
        <ele>329.39</ele>
        <time>2014-09-14T07:16:59Z</time>
      </trkpt>
      <trkpt lat="43.06774" lon="1.35555">
        <ele>329.39</ele>
        <time>2014-09-14T07:17:00Z</time>
      </trkpt>
      <trkpt lat="43.06768" lon="1.35559">
        <ele>329.87</ele>
        <time>2014-09-14T07:17:01Z</time>
      </trkpt>
      <trkpt lat="43.06763" lon="1.3556">
        <ele>329.39</ele>
        <time>2014-09-14T07:17:02Z</time>
      </trkpt>
      <trkpt lat="43.06757" lon="1.35561">
        <ele>328.91</ele>
        <time>2014-09-14T07:17:03Z</time>
      </trkpt>
      <trkpt lat="43.06751" lon="1.35561">
        <ele>328.91</ele>
        <time>2014-09-14T07:17:04Z</time>
      </trkpt>
      <trkpt lat="43.06744" lon="1.35559">
        <ele>328.43</ele>
        <time>2014-09-14T07:17:05Z</time>
      </trkpt>
      <trkpt lat="43.06739" lon="1.35558">
        <ele>328.43</ele>
        <time>2014-09-14T07:17:06Z</time>
      </trkpt>
      <trkpt lat="43.06734" lon="1.35556">
        <ele>327.95</ele>
        <time>2014-09-14T07:17:07Z</time>
      </trkpt>
      <trkpt lat="43.06714" lon="1.35547">
        <ele>327.47</ele>
        <time>2014-09-14T07:17:11Z</time>
      </trkpt>
      <trkpt lat="43.06709" lon="1.35543">
        <ele>327.47</ele>
        <time>2014-09-14T07:17:12Z</time>
      </trkpt>
      <trkpt lat="43.06704" lon="1.3554">
        <ele>327.47</ele>
        <time>2014-09-14T07:17:13Z</time>
      </trkpt>
      <trkpt lat="43.06661" lon="1.35477">
        <ele>326.02</ele>
        <time>2014-09-14T07:17:24Z</time>
      </trkpt>
      <trkpt lat="43.06589" lon="1.35341">
        <ele>322.18</ele>
        <time>2014-09-14T07:17:43Z</time>
      </trkpt>
      <trkpt lat="43.0653" lon="1.35231">
        <ele>321.22</ele>
        <time>2014-09-14T07:17:58Z</time>
      </trkpt>
      <trkpt lat="43.06487" lon="1.35101">
        <ele>320.74</ele>
        <time>2014-09-14T07:18:14Z</time>
      </trkpt>
      <trkpt lat="43.06446" lon="1.34973">
        <ele>320.74</ele>
        <time>2014-09-14T07:18:30Z</time>
      </trkpt>
      <trkpt lat="43.0639" lon="1.34832">
        <ele>321.7</ele>
        <time>2014-09-14T07:18:48Z</time>
      </trkpt>
      <trkpt lat="43.06361" lon="1.34769">
        <ele>321.7</ele>
        <time>2014-09-14T07:18:56Z</time>
      </trkpt>
      <trkpt lat="43.06356" lon="1.34762">
        <ele>321.7</ele>
        <time>2014-09-14T07:18:57Z</time>
      </trkpt>
      <trkpt lat="43.0635" lon="1.34756">
        <ele>321.7</ele>
        <time>2014-09-14T07:18:58Z</time>
      </trkpt>
      <trkpt lat="43.06345" lon="1.3475">
        <ele>321.7</ele>
        <time>2014-09-14T07:18:59Z</time>
      </trkpt>
      <trkpt lat="43.06339" lon="1.34745">
        <ele>321.7</ele>
        <time>2014-09-14T07:19:00Z</time>
      </trkpt>
      <trkpt lat="43.06222" lon="1.3467">
        <ele>323.62</ele>
        <time>2014-09-14T07:19:18Z</time>
      </trkpt>
      <trkpt lat="43.06145" lon="1.34617">
        <ele>325.06</ele>
        <time>2014-09-14T07:19:31Z</time>
      </trkpt>
      <trkpt lat="43.06139" lon="1.3461">
        <ele>325.06</ele>
        <time>2014-09-14T07:19:32Z</time>
      </trkpt>
      <trkpt lat="43.06135" lon="1.34605">
        <ele>325.06</ele>
        <time>2014-09-14T07:19:33Z</time>
      </trkpt>
      <trkpt lat="43.06131" lon="1.34598">
        <ele>325.06</ele>
        <time>2014-09-14T07:19:34Z</time>
      </trkpt>
      <trkpt lat="43.06128" lon="1.34591">
        <ele>325.54</ele>
        <time>2014-09-14T07:19:35Z</time>
      </trkpt>
      <trkpt lat="43.06125" lon="1.34584">
        <ele>325.54</ele>
        <time>2014-09-14T07:19:36Z</time>
      </trkpt>
      <trkpt lat="43.06122" lon="1.34577">
        <ele>325.54</ele>
        <time>2014-09-14T07:19:37Z</time>
      </trkpt>
      <trkpt lat="43.06119" lon="1.34571">
        <ele>326.02</ele>
        <time>2014-09-14T07:19:38Z</time>
      </trkpt>
      <trkpt lat="43.06116" lon="1.34564">
        <ele>326.02</ele>
        <time>2014-09-14T07:19:39Z</time>
      </trkpt>
      <trkpt lat="43.06111" lon="1.34551">
        <ele>326.5</ele>
        <time>2014-09-14T07:19:41Z</time>
      </trkpt>
      <trkpt lat="43.06103" lon="1.34531">
        <ele>326.99</ele>
        <time>2014-09-14T07:19:44Z</time>
      </trkpt>
      <trkpt lat="43.06098" lon="1.34518">
        <ele>326.99</ele>
        <time>2014-09-14T07:19:46Z</time>
      </trkpt>
      <trkpt lat="43.06096" lon="1.34512">
        <ele>326.99</ele>
        <time>2014-09-14T07:19:47Z</time>
      </trkpt>
      <trkpt lat="43.06093" lon="1.34506">
        <ele>327.47</ele>
        <time>2014-09-14T07:19:48Z</time>
      </trkpt>
      <trkpt lat="43.0609" lon="1.34499">
        <ele>327.47</ele>
        <time>2014-09-14T07:19:49Z</time>
      </trkpt>
      <trkpt lat="43.06087" lon="1.34492">
        <ele>327.47</ele>
        <time>2014-09-14T07:19:50Z</time>
      </trkpt>
      <trkpt lat="43.06057" lon="1.34367">
        <ele>325.54</ele>
        <time>2014-09-14T07:20:05Z</time>
      </trkpt>
      <trkpt lat="43.06024" lon="1.34234">
        <ele>324.1</ele>
        <time>2014-09-14T07:20:20Z</time>
      </trkpt>
      <trkpt lat="43.05993" lon="1.34072">
        <ele>324.58</ele>
        <time>2014-09-14T07:20:38Z</time>
      </trkpt>
      <trkpt lat="43.05964" lon="1.33901">
        <ele>327.47</ele>
        <time>2014-09-14T07:20:57Z</time>
      </trkpt>
      <trkpt lat="43.05933" lon="1.33743">
        <ele>332.27</ele>
        <time>2014-09-14T07:21:15Z</time>
      </trkpt>
      <trkpt lat="43.0593" lon="1.33735">
        <ele>332.27</ele>
        <time>2014-09-14T07:21:16Z</time>
      </trkpt>
      <trkpt lat="43.05926" lon="1.33727">
        <ele>332.27</ele>
        <time>2014-09-14T07:21:17Z</time>
      </trkpt>
      <trkpt lat="43.05836" lon="1.33588">
        <ele>330.35</ele>
        <time>2014-09-14T07:21:36Z</time>
      </trkpt>
      <trkpt lat="43.05725" lon="1.33421">
        <ele>329.39</ele>
        <time>2014-09-14T07:22:00Z</time>
      </trkpt>
      <trkpt lat="43.05666" lon="1.33343">
        <ele>329.39</ele>
        <time>2014-09-14T07:22:12Z</time>
      </trkpt>
      <trkpt lat="43.0566" lon="1.33339">
        <ele>329.39</ele>
        <time>2014-09-14T07:22:13Z</time>
      </trkpt>
      <trkpt lat="43.05524" lon="1.33268">
        <ele>329.87</ele>
        <time>2014-09-14T07:22:34Z</time>
      </trkpt>
      <trkpt lat="43.05364" lon="1.33187">
        <ele>330.83</ele>
        <time>2014-09-14T07:22:59Z</time>
      </trkpt>
      <trkpt lat="43.05254" lon="1.33132">
        <ele>332.75</ele>
        <time>2014-09-14T07:23:16Z</time>
      </trkpt>
      <trkpt lat="43.05147" lon="1.33074">
        <ele>333.71</ele>
        <time>2014-09-14T07:23:33Z</time>
      </trkpt>
      <trkpt lat="43.05026" lon="1.33008">
        <ele>333.71</ele>
        <time>2014-09-14T07:23:52Z</time>
      </trkpt>
      <trkpt lat="43.04951" lon="1.32964">
        <ele>333.71</ele>
        <time>2014-09-14T07:24:04Z</time>
      </trkpt>
      <trkpt lat="43.04947" lon="1.32958">
        <ele>333.71</ele>
        <time>2014-09-14T07:24:05Z</time>
      </trkpt>
      <trkpt lat="43.04942" lon="1.32952">
        <ele>333.71</ele>
        <time>2014-09-14T07:24:06Z</time>
      </trkpt>
      <trkpt lat="43.04939" lon="1.32944">
        <ele>333.71</ele>
        <time>2014-09-14T07:24:07Z</time>
      </trkpt>
      <trkpt lat="43.04936" lon="1.32936">
        <ele>333.71</ele>
        <time>2014-09-14T07:24:08Z</time>
      </trkpt>
      <trkpt lat="43.04933" lon="1.32928">
        <ele>333.71</ele>
        <time>2014-09-14T07:24:09Z</time>
      </trkpt>
      <trkpt lat="43.04923" lon="1.32875">
        <ele>333.71</ele>
        <time>2014-09-14T07:24:15Z</time>
      </trkpt>
      <trkpt lat="43.04928" lon="1.32737">
        <ele>335.64</ele>
        <time>2014-09-14T07:24:30Z</time>
      </trkpt>
      <trkpt lat="43.04934" lon="1.32569">
        <ele>338.52</ele>
        <time>2014-09-14T07:24:48Z</time>
      </trkpt>
      <trkpt lat="43.04941" lon="1.32427">
        <ele>337.08</ele>
        <time>2014-09-14T07:25:03Z</time>
      </trkpt>
      <trkpt lat="43.04948" lon="1.32251">
        <ele>337.08</ele>
        <time>2014-09-14T07:25:22Z</time>
      </trkpt>
      <trkpt lat="43.04959" lon="1.32025">
        <ele>337.56</ele>
        <time>2014-09-14T07:25:46Z</time>
      </trkpt>
      <trkpt lat="43.04938" lon="1.31916">
        <ele>339</ele>
        <time>2014-09-14T07:25:58Z</time>
      </trkpt>
      <trkpt lat="43.0487" lon="1.31741">
        <ele>339</ele>
        <time>2014-09-14T07:26:19Z</time>
      </trkpt>
      <trkpt lat="43.04794" lon="1.31548">
        <ele>339.48</ele>
        <time>2014-09-14T07:26:42Z</time>
      </trkpt>
      <trkpt lat="43.04707" lon="1.31326">
        <ele>340.92</ele>
        <time>2014-09-14T07:27:09Z</time>
      </trkpt>
      <trkpt lat="43.04637" lon="1.3115">
        <ele>341.41</ele>
        <time>2014-09-14T07:27:30Z</time>
      </trkpt>
      <trkpt lat="43.04569" lon="1.30977">
        <ele>342.37</ele>
        <time>2014-09-14T07:27:51Z</time>
      </trkpt>
      <trkpt lat="43.04507" lon="1.30822">
        <ele>344.77</ele>
        <time>2014-09-14T07:28:10Z</time>
      </trkpt>
      <trkpt lat="43.04438" lon="1.30666">
        <ele>347.65</ele>
        <time>2014-09-14T07:28:30Z</time>
      </trkpt>
      <trkpt lat="43.04423" lon="1.30649">
        <ele>348.13</ele>
        <time>2014-09-14T07:28:33Z</time>
      </trkpt>
      <trkpt lat="43.04345" lon="1.3057">
        <ele>349.1</ele>
        <time>2014-09-14T07:28:48Z</time>
      </trkpt>
      <trkpt lat="43.0431" lon="1.30532">
        <ele>349.58</ele>
        <time>2014-09-14T07:28:55Z</time>
      </trkpt>
      <trkpt lat="43.04306" lon="1.30526">
        <ele>349.58</ele>
        <time>2014-09-14T07:28:56Z</time>
      </trkpt>
      <trkpt lat="43.0423" lon="1.30445">
        <ele>350.54</ele>
        <time>2014-09-14T07:29:11Z</time>
      </trkpt>
      <trkpt lat="43.04115" lon="1.30324">
        <ele>352.46</ele>
        <time>2014-09-14T07:29:33Z</time>
      </trkpt>
      <trkpt lat="43.03991" lon="1.30196">
        <ele>354.38</ele>
        <time>2014-09-14T07:29:56Z</time>
      </trkpt>
      <trkpt lat="43.03901" lon="1.30099">
        <ele>354.86</ele>
        <time>2014-09-14T07:30:14Z</time>
      </trkpt>
      <trkpt lat="43.03891" lon="1.30092">
        <ele>355.34</ele>
        <time>2014-09-14T07:30:16Z</time>
      </trkpt>
      <trkpt lat="43.03885" lon="1.30089">
        <ele>355.34</ele>
        <time>2014-09-14T07:30:17Z</time>
      </trkpt>
      <trkpt lat="43.03855" lon="1.30082">
        <ele>355.83</ele>
        <time>2014-09-14T07:30:22Z</time>
      </trkpt>
      <trkpt lat="43.03849" lon="1.30082">
        <ele>355.83</ele>
        <time>2014-09-14T07:30:23Z</time>
      </trkpt>
      <trkpt lat="43.03782" lon="1.30079">
        <ele>355.34</ele>
        <time>2014-09-14T07:30:34Z</time>
      </trkpt>
      <trkpt lat="43.03776" lon="1.30077">
        <ele>355.34</ele>
        <time>2014-09-14T07:30:35Z</time>
      </trkpt>
      <trkpt lat="43.03771" lon="1.30074">
        <ele>355.34</ele>
        <time>2014-09-14T07:30:36Z</time>
      </trkpt>
      <trkpt lat="43.03765" lon="1.30071">
        <ele>355.34</ele>
        <time>2014-09-14T07:30:37Z</time>
      </trkpt>
      <trkpt lat="43.0376" lon="1.30068">
        <ele>355.34</ele>
        <time>2014-09-14T07:30:38Z</time>
      </trkpt>
      <trkpt lat="43.03755" lon="1.30064">
        <ele>355.34</ele>
        <time>2014-09-14T07:30:39Z</time>
      </trkpt>
      <trkpt lat="43.0375" lon="1.3006">
        <ele>355.83</ele>
        <time>2014-09-14T07:30:40Z</time>
      </trkpt>
      <trkpt lat="43.03745" lon="1.30055">
        <ele>355.83</ele>
        <time>2014-09-14T07:30:41Z</time>
      </trkpt>
      <trkpt lat="43.03741" lon="1.3005">
        <ele>355.83</ele>
        <time>2014-09-14T07:30:42Z</time>
      </trkpt>
      <trkpt lat="43.03736" lon="1.30044">
        <ele>355.83</ele>
        <time>2014-09-14T07:30:43Z</time>
      </trkpt>
      <trkpt lat="43.03668" lon="1.29946">
        <ele>358.71</ele>
        <time>2014-09-14T07:31:00Z</time>
      </trkpt>
      <trkpt lat="43.03599" lon="1.29906">
        <ele>361.11</ele>
        <time>2014-09-14T07:31:13Z</time>
      </trkpt>
      <trkpt lat="43.03593" lon="1.29905">
        <ele>361.11</ele>
        <time>2014-09-14T07:31:14Z</time>
      </trkpt>
      <trkpt lat="43.03588" lon="1.29904">
        <ele>361.11</ele>
        <time>2014-09-14T07:31:15Z</time>
      </trkpt>
      <trkpt lat="43.03583" lon="1.29904">
        <ele>361.59</ele>
        <time>2014-09-14T07:31:16Z</time>
      </trkpt>
      <trkpt lat="43.03578" lon="1.29905">
        <ele>361.59</ele>
        <time>2014-09-14T07:31:17Z</time>
      </trkpt>
      <trkpt lat="43.03572" lon="1.29906">
        <ele>361.59</ele>
        <time>2014-09-14T07:31:18Z</time>
      </trkpt>
      <trkpt lat="43.03551" lon="1.2991">
        <ele>362.55</ele>
        <time>2014-09-14T07:31:22Z</time>
      </trkpt>
      <trkpt lat="43.03476" lon="1.29914">
        <ele>367.84</ele>
        <time>2014-09-14T07:31:36Z</time>
      </trkpt>
      <trkpt lat="43.03438" lon="1.29904">
        <ele>369.76</ele>
        <time>2014-09-14T07:31:43Z</time>
      </trkpt>
      <trkpt lat="43.03433" lon="1.29901">
        <ele>370.24</ele>
        <time>2014-09-14T07:31:44Z</time>
      </trkpt>
      <trkpt lat="43.0338" lon="1.29831">
        <ele>375.05</ele>
        <time>2014-09-14T07:31:58Z</time>
      </trkpt>
      <trkpt lat="43.03366" lon="1.2981">
        <ele>375.53</ele>
        <time>2014-09-14T07:32:02Z</time>
      </trkpt>
      <trkpt lat="43.03363" lon="1.29804">
        <ele>376.01</ele>
        <time>2014-09-14T07:32:03Z</time>
      </trkpt>
      <trkpt lat="43.03319" lon="1.29735">
        <ele>379.38</ele>
        <time>2014-09-14T07:32:17Z</time>
      </trkpt>
      <trkpt lat="43.03308" lon="1.29722">
        <ele>380.34</ele>
        <time>2014-09-14T07:32:20Z</time>
      </trkpt>
      <trkpt lat="43.03304" lon="1.29719">
        <ele>380.82</ele>
        <time>2014-09-14T07:32:21Z</time>
      </trkpt>
      <trkpt lat="43.03299" lon="1.29716">
        <ele>381.3</ele>
        <time>2014-09-14T07:32:22Z</time>
      </trkpt>
      <trkpt lat="43.03295" lon="1.29714">
        <ele>381.78</ele>
        <time>2014-09-14T07:32:23Z</time>
      </trkpt>
      <trkpt lat="43.0329" lon="1.29713">
        <ele>381.78</ele>
        <time>2014-09-14T07:32:24Z</time>
      </trkpt>
      <trkpt lat="43.03285" lon="1.29712">
        <ele>381.78</ele>
        <time>2014-09-14T07:32:25Z</time>
      </trkpt>
      <trkpt lat="43.0328" lon="1.29712">
        <ele>381.78</ele>
        <time>2014-09-14T07:32:26Z</time>
      </trkpt>
      <trkpt lat="43.03204" lon="1.29712">
        <ele>380.82</ele>
        <time>2014-09-14T07:32:40Z</time>
      </trkpt>
      <trkpt lat="43.03124" lon="1.2968">
        <ele>381.78</ele>
        <time>2014-09-14T07:32:55Z</time>
      </trkpt>
      <trkpt lat="43.03063" lon="1.29626">
        <ele>382.74</ele>
        <time>2014-09-14T07:33:08Z</time>
      </trkpt>
      <trkpt lat="43.03002" lon="1.29534">
        <ele>383.7</ele>
        <time>2014-09-14T07:33:24Z</time>
      </trkpt>
      <trkpt lat="43.03001" lon="1.29527">
        <ele>384.18</ele>
        <time>2014-09-14T07:33:25Z</time>
      </trkpt>
      <trkpt lat="43.03" lon="1.2952">
        <ele>384.18</ele>
        <time>2014-09-14T07:33:26Z</time>
      </trkpt>
      <trkpt lat="43.02995" lon="1.29489">
        <ele>383.7</ele>
        <time>2014-09-14T07:33:30Z</time>
      </trkpt>
      <trkpt lat="43.0299" lon="1.29474">
        <ele>383.7</ele>
        <time>2014-09-14T07:33:32Z</time>
      </trkpt>
      <trkpt lat="43.02987" lon="1.29467">
        <ele>383.7</ele>
        <time>2014-09-14T07:33:33Z</time>
      </trkpt>
      <trkpt lat="43.02941" lon="1.29368">
        <ele>385.63</ele>
        <time>2014-09-14T07:33:48Z</time>
      </trkpt>
      <trkpt lat="43.02894" lon="1.29263">
        <ele>387.07</ele>
        <time>2014-09-14T07:34:04Z</time>
      </trkpt>
      <trkpt lat="43.0288" lon="1.29238">
        <ele>387.55</ele>
        <time>2014-09-14T07:34:08Z</time>
      </trkpt>
      <trkpt lat="43.02865" lon="1.29166">
        <ele>388.99</ele>
        <time>2014-09-14T07:34:18Z</time>
      </trkpt>
      <trkpt lat="43.02865" lon="1.29157">
        <ele>389.47</ele>
        <time>2014-09-14T07:34:19Z</time>
      </trkpt>
      <trkpt lat="43.02866" lon="1.29151">
        <ele>389.47</ele>
        <time>2014-09-14T07:34:20Z</time>
      </trkpt>
      <trkpt lat="43.0287" lon="1.2913">
        <ele>389.95</ele>
        <time>2014-09-14T07:34:23Z</time>
      </trkpt>
      <trkpt lat="43.0288" lon="1.29103">
        <ele>390.91</ele>
        <time>2014-09-14T07:34:27Z</time>
      </trkpt>
      <trkpt lat="43.02884" lon="1.2909">
        <ele>390.91</ele>
        <time>2014-09-14T07:34:29Z</time>
      </trkpt>
      <trkpt lat="43.02886" lon="1.28984">
        <ele>392.84</ele>
        <time>2014-09-14T07:34:43Z</time>
      </trkpt>
      <trkpt lat="43.02885" lon="1.28953">
        <ele>393.8</ele>
        <time>2014-09-14T07:34:47Z</time>
      </trkpt>
      <trkpt lat="43.02886" lon="1.28946">
        <ele>393.8</ele>
        <time>2014-09-14T07:34:48Z</time>
      </trkpt>
      <trkpt lat="43.02887" lon="1.28938">
        <ele>394.28</ele>
        <time>2014-09-14T07:34:49Z</time>
      </trkpt>
      <trkpt lat="43.02888" lon="1.28931">
        <ele>394.28</ele>
        <time>2014-09-14T07:34:50Z</time>
      </trkpt>
      <trkpt lat="43.0289" lon="1.28923">
        <ele>394.28</ele>
        <time>2014-09-14T07:34:51Z</time>
      </trkpt>
      <trkpt lat="43.02899" lon="1.28896">
        <ele>395.24</ele>
        <time>2014-09-14T07:34:55Z</time>
      </trkpt>
      <trkpt lat="43.02907" lon="1.28777">
        <ele>396.68</ele>
        <time>2014-09-14T07:35:11Z</time>
      </trkpt>
      <trkpt lat="43.02893" lon="1.28663">
        <ele>398.6</ele>
        <time>2014-09-14T07:35:26Z</time>
      </trkpt>
      <trkpt lat="43.02889" lon="1.28648">
        <ele>398.6</ele>
        <time>2014-09-14T07:35:28Z</time>
      </trkpt>
      <trkpt lat="43.02887" lon="1.28641">
        <ele>399.08</ele>
        <time>2014-09-14T07:35:29Z</time>
      </trkpt>
      <trkpt lat="43.02884" lon="1.28635">
        <ele>399.08</ele>
        <time>2014-09-14T07:35:30Z</time>
      </trkpt>
      <trkpt lat="43.02823" lon="1.28539">
        <ele>404.85</ele>
        <time>2014-09-14T07:35:47Z</time>
      </trkpt>
      <trkpt lat="43.0278" lon="1.28514">
        <ele>407.26</ele>
        <time>2014-09-14T07:35:55Z</time>
      </trkpt>
      <trkpt lat="43.0277" lon="1.28505">
        <ele>407.74</ele>
        <time>2014-09-14T07:35:57Z</time>
      </trkpt>
      <trkpt lat="43.02717" lon="1.28417">
        <ele>410.62</ele>
        <time>2014-09-14T07:36:12Z</time>
      </trkpt>
      <trkpt lat="43.02691" lon="1.2838">
        <ele>412.06</ele>
        <time>2014-09-14T07:36:19Z</time>
      </trkpt>
      <trkpt lat="43.02688" lon="1.28373">
        <ele>412.54</ele>
        <time>2014-09-14T07:36:20Z</time>
      </trkpt>
      <trkpt lat="43.02663" lon="1.28309">
        <ele>414.47</ele>
        <time>2014-09-14T07:36:30Z</time>
      </trkpt>
      <trkpt lat="43.02633" lon="1.28245">
        <ele>417.35</ele>
        <time>2014-09-14T07:36:41Z</time>
      </trkpt>
      <trkpt lat="43.02631" lon="1.28237">
        <ele>417.83</ele>
        <time>2014-09-14T07:36:42Z</time>
      </trkpt>
      <trkpt lat="43.02629" lon="1.28223">
        <ele>418.79</ele>
        <time>2014-09-14T07:36:44Z</time>
      </trkpt>
      <trkpt lat="43.02629" lon="1.28216">
        <ele>418.79</ele>
        <time>2014-09-14T07:36:45Z</time>
      </trkpt>
      <trkpt lat="43.02639" lon="1.28099">
        <ele>418.79</ele>
        <time>2014-09-14T07:37:01Z</time>
      </trkpt>
      <trkpt lat="43.02641" lon="1.2802">
        <ele>422.16</ele>
        <time>2014-09-14T07:37:12Z</time>
      </trkpt>
      <trkpt lat="43.02641" lon="1.28013">
        <ele>422.64</ele>
        <time>2014-09-14T07:37:13Z</time>
      </trkpt>
      <trkpt lat="43.0264" lon="1.28007">
        <ele>422.64</ele>
        <time>2014-09-14T07:37:14Z</time>
      </trkpt>
      <trkpt lat="43.02639" lon="1.27999">
        <ele>423.12</ele>
        <time>2014-09-14T07:37:15Z</time>
      </trkpt>
      <trkpt lat="43.02637" lon="1.27994">
        <ele>423.6</ele>
        <time>2014-09-14T07:37:16Z</time>
      </trkpt>
      <trkpt lat="43.02635" lon="1.27988">
        <ele>424.08</ele>
        <time>2014-09-14T07:37:17Z</time>
      </trkpt>
      <trkpt lat="43.02631" lon="1.27982">
        <ele>424.56</ele>
        <time>2014-09-14T07:37:18Z</time>
      </trkpt>
      <trkpt lat="43.02628" lon="1.27978">
        <ele>424.56</ele>
        <time>2014-09-14T07:37:19Z</time>
      </trkpt>
      <trkpt lat="43.02623" lon="1.27974">
        <ele>425.04</ele>
        <time>2014-09-14T07:37:20Z</time>
      </trkpt>
      <trkpt lat="43.02619" lon="1.27972">
        <ele>425.52</ele>
        <time>2014-09-14T07:37:21Z</time>
      </trkpt>
      <trkpt lat="43.02615" lon="1.2797">
        <ele>426</ele>
        <time>2014-09-14T07:37:22Z</time>
      </trkpt>
      <trkpt lat="43.0261" lon="1.27971">
        <ele>426.48</ele>
        <time>2014-09-14T07:37:23Z</time>
      </trkpt>
      <trkpt lat="43.02606" lon="1.27973">
        <ele>426.96</ele>
        <time>2014-09-14T07:37:24Z</time>
      </trkpt>
      <trkpt lat="43.02602" lon="1.27977">
        <ele>426.96</ele>
        <time>2014-09-14T07:37:25Z</time>
      </trkpt>
      <trkpt lat="43.02597" lon="1.27982">
        <ele>427.44</ele>
        <time>2014-09-14T07:37:26Z</time>
      </trkpt>
      <trkpt lat="43.02593" lon="1.27988">
        <ele>427.44</ele>
        <time>2014-09-14T07:37:27Z</time>
      </trkpt>
      <trkpt lat="43.0259" lon="1.27993">
        <ele>427.92</ele>
        <time>2014-09-14T07:37:28Z</time>
      </trkpt>
      <trkpt lat="43.02587" lon="1.28001">
        <ele>427.92</ele>
        <time>2014-09-14T07:37:29Z</time>
      </trkpt>
      <trkpt lat="43.02584" lon="1.28006">
        <ele>427.92</ele>
        <time>2014-09-14T07:37:30Z</time>
      </trkpt>
      <trkpt lat="43.02582" lon="1.28013">
        <ele>428.4</ele>
        <time>2014-09-14T07:37:31Z</time>
      </trkpt>
      <trkpt lat="43.02581" lon="1.28019">
        <ele>428.4</ele>
        <time>2014-09-14T07:37:32Z</time>
      </trkpt>
      <trkpt lat="43.0258" lon="1.28026">
        <ele>428.4</ele>
        <time>2014-09-14T07:37:33Z</time>
      </trkpt>
      <trkpt lat="43.02572" lon="1.28076">
        <ele>430.81</ele>
        <time>2014-09-14T07:37:41Z</time>
      </trkpt>
      <trkpt lat="43.0257" lon="1.28081">
        <ele>431.29</ele>
        <time>2014-09-14T07:37:42Z</time>
      </trkpt>
      <trkpt lat="43.02567" lon="1.28086">
        <ele>431.77</ele>
        <time>2014-09-14T07:37:43Z</time>
      </trkpt>
      <trkpt lat="43.02563" lon="1.2809">
        <ele>432.25</ele>
        <time>2014-09-14T07:37:44Z</time>
      </trkpt>
      <trkpt lat="43.02559" lon="1.28095">
        <ele>432.25</ele>
        <time>2014-09-14T07:37:45Z</time>
      </trkpt>
      <trkpt lat="43.02554" lon="1.28098">
        <ele>432.25</ele>
        <time>2014-09-14T07:37:46Z</time>
      </trkpt>
      <trkpt lat="43.02549" lon="1.28102">
        <ele>432.73</ele>
        <time>2014-09-14T07:37:47Z</time>
      </trkpt>
      <trkpt lat="43.02543" lon="1.28105">
        <ele>432.73</ele>
        <time>2014-09-14T07:37:48Z</time>
      </trkpt>
      <trkpt lat="43.02538" lon="1.28106">
        <ele>432.73</ele>
        <time>2014-09-14T07:37:49Z</time>
      </trkpt>
      <trkpt lat="43.02533" lon="1.28106">
        <ele>432.73</ele>
        <time>2014-09-14T07:37:50Z</time>
      </trkpt>
      <trkpt lat="43.02527" lon="1.28106">
        <ele>433.21</ele>
        <time>2014-09-14T07:37:51Z</time>
      </trkpt>
      <trkpt lat="43.02522" lon="1.28104">
        <ele>433.21</ele>
        <time>2014-09-14T07:37:52Z</time>
      </trkpt>
      <trkpt lat="43.02517" lon="1.28102">
        <ele>433.21</ele>
        <time>2014-09-14T07:37:53Z</time>
      </trkpt>
      <trkpt lat="43.02512" lon="1.28099">
        <ele>433.21</ele>
        <time>2014-09-14T07:37:54Z</time>
      </trkpt>
      <trkpt lat="43.02508" lon="1.28096">
        <ele>433.69</ele>
        <time>2014-09-14T07:37:55Z</time>
      </trkpt>
      <trkpt lat="43.025" lon="1.28088">
        <ele>433.69</ele>
        <time>2014-09-14T07:37:57Z</time>
      </trkpt>
      <trkpt lat="43.02496" lon="1.28083">
        <ele>433.69</ele>
        <time>2014-09-14T07:37:58Z</time>
      </trkpt>
      <trkpt lat="43.02493" lon="1.28078">
        <ele>434.17</ele>
        <time>2014-09-14T07:37:59Z</time>
      </trkpt>
      <trkpt lat="43.0249" lon="1.28072">
        <ele>434.17</ele>
        <time>2014-09-14T07:38:00Z</time>
      </trkpt>
      <trkpt lat="43.02488" lon="1.28066">
        <ele>434.17</ele>
        <time>2014-09-14T07:38:01Z</time>
      </trkpt>
      <trkpt lat="43.02486" lon="1.28059">
        <ele>434.17</ele>
        <time>2014-09-14T07:38:02Z</time>
      </trkpt>
      <trkpt lat="43.0247" lon="1.28016">
        <ele>434.17</ele>
        <time>2014-09-14T07:38:09Z</time>
      </trkpt>
      <trkpt lat="43.02467" lon="1.28011">
        <ele>434.17</ele>
        <time>2014-09-14T07:38:10Z</time>
      </trkpt>
      <trkpt lat="43.02463" lon="1.28005">
        <ele>434.17</ele>
        <time>2014-09-14T07:38:11Z</time>
      </trkpt>
      <trkpt lat="43.02459" lon="1.28002">
        <ele>434.17</ele>
        <time>2014-09-14T07:38:12Z</time>
      </trkpt>
      <trkpt lat="43.02453" lon="1.28">
        <ele>434.65</ele>
        <time>2014-09-14T07:38:13Z</time>
      </trkpt>
      <trkpt lat="43.02449" lon="1.27999">
        <ele>434.65</ele>
        <time>2014-09-14T07:38:14Z</time>
      </trkpt>
      <trkpt lat="43.02444" lon="1.27999">
        <ele>434.65</ele>
        <time>2014-09-14T07:38:15Z</time>
      </trkpt>
      <trkpt lat="43.02439" lon="1.28">
        <ele>434.17</ele>
        <time>2014-09-14T07:38:16Z</time>
      </trkpt>
      <trkpt lat="43.02435" lon="1.28003">
        <ele>434.17</ele>
        <time>2014-09-14T07:38:17Z</time>
      </trkpt>
      <trkpt lat="43.0243" lon="1.28005">
        <ele>433.69</ele>
        <time>2014-09-14T07:38:18Z</time>
      </trkpt>
      <trkpt lat="43.02426" lon="1.28009">
        <ele>433.69</ele>
        <time>2014-09-14T07:38:19Z</time>
      </trkpt>
      <trkpt lat="43.02422" lon="1.28013">
        <ele>433.21</ele>
        <time>2014-09-14T07:38:20Z</time>
      </trkpt>
      <trkpt lat="43.02405" lon="1.2803">
        <ele>432.25</ele>
        <time>2014-09-14T07:38:24Z</time>
      </trkpt>
      <trkpt lat="43.02397" lon="1.28035">
        <ele>432.25</ele>
        <time>2014-09-14T07:38:26Z</time>
      </trkpt>
      <trkpt lat="43.02392" lon="1.28037">
        <ele>432.25</ele>
        <time>2014-09-14T07:38:27Z</time>
      </trkpt>
      <trkpt lat="43.02386" lon="1.28039">
        <ele>432.73</ele>
        <time>2014-09-14T07:38:28Z</time>
      </trkpt>
      <trkpt lat="43.02382" lon="1.28039">
        <ele>432.73</ele>
        <time>2014-09-14T07:38:29Z</time>
      </trkpt>
      <trkpt lat="43.02376" lon="1.28039">
        <ele>433.21</ele>
        <time>2014-09-14T07:38:30Z</time>
      </trkpt>
      <trkpt lat="43.02372" lon="1.28039">
        <ele>433.21</ele>
        <time>2014-09-14T07:38:31Z</time>
      </trkpt>
      <trkpt lat="43.02367" lon="1.28038">
        <ele>433.69</ele>
        <time>2014-09-14T07:38:32Z</time>
      </trkpt>
      <trkpt lat="43.02303" lon="1.27996">
        <ele>436.58</ele>
        <time>2014-09-14T07:38:46Z</time>
      </trkpt>
      <trkpt lat="43.02262" lon="1.27971">
        <ele>438.5</ele>
        <time>2014-09-14T07:38:55Z</time>
      </trkpt>
      <trkpt lat="43.0225" lon="1.27958">
        <ele>438.98</ele>
        <time>2014-09-14T07:38:58Z</time>
      </trkpt>
      <trkpt lat="43.02246" lon="1.27953">
        <ele>438.98</ele>
        <time>2014-09-14T07:38:59Z</time>
      </trkpt>
      <trkpt lat="43.02229" lon="1.2791">
        <ele>440.9</ele>
        <time>2014-09-14T07:39:07Z</time>
      </trkpt>
      <trkpt lat="43.02227" lon="1.27904">
        <ele>440.9</ele>
        <time>2014-09-14T07:39:08Z</time>
      </trkpt>
      <trkpt lat="43.02225" lon="1.27899">
        <ele>441.38</ele>
        <time>2014-09-14T07:39:09Z</time>
      </trkpt>
      <trkpt lat="43.02205" lon="1.27858">
        <ele>442.82</ele>
        <time>2014-09-14T07:39:17Z</time>
      </trkpt>
      <trkpt lat="43.02194" lon="1.27844">
        <ele>443.79</ele>
        <time>2014-09-14T07:39:20Z</time>
      </trkpt>
      <trkpt lat="43.0219" lon="1.2784">
        <ele>443.79</ele>
        <time>2014-09-14T07:39:21Z</time>
      </trkpt>
      <trkpt lat="43.02185" lon="1.27837">
        <ele>443.79</ele>
        <time>2014-09-14T07:39:22Z</time>
      </trkpt>
      <trkpt lat="43.0218" lon="1.27834">
        <ele>444.27</ele>
        <time>2014-09-14T07:39:23Z</time>
      </trkpt>
      <trkpt lat="43.02175" lon="1.27833">
        <ele>444.27</ele>
        <time>2014-09-14T07:39:24Z</time>
      </trkpt>
      <trkpt lat="43.0217" lon="1.27832">
        <ele>444.75</ele>
        <time>2014-09-14T07:39:25Z</time>
      </trkpt>
      <trkpt lat="43.02165" lon="1.27832">
        <ele>444.75</ele>
        <time>2014-09-14T07:39:26Z</time>
      </trkpt>
      <trkpt lat="43.0216" lon="1.27833">
        <ele>444.75</ele>
        <time>2014-09-14T07:39:27Z</time>
      </trkpt>
      <trkpt lat="43.0214" lon="1.27833">
        <ele>445.23</ele>
        <time>2014-09-14T07:39:31Z</time>
      </trkpt>
      <trkpt lat="43.02136" lon="1.27831">
        <ele>444.75</ele>
        <time>2014-09-14T07:39:32Z</time>
      </trkpt>
      <trkpt lat="43.02131" lon="1.27828">
        <ele>444.27</ele>
        <time>2014-09-14T07:39:33Z</time>
      </trkpt>
      <trkpt lat="43.02127" lon="1.27824">
        <ele>444.75</ele>
        <time>2014-09-14T07:39:34Z</time>
      </trkpt>
      <trkpt lat="43.02123" lon="1.27819">
        <ele>444.75</ele>
        <time>2014-09-14T07:39:35Z</time>
      </trkpt>
      <trkpt lat="43.0212" lon="1.27813">
        <ele>445.23</ele>
        <time>2014-09-14T07:39:36Z</time>
      </trkpt>
      <trkpt lat="43.02118" lon="1.27807">
        <ele>445.23</ele>
        <time>2014-09-14T07:39:37Z</time>
      </trkpt>
      <trkpt lat="43.02115" lon="1.278">
        <ele>445.71</ele>
        <time>2014-09-14T07:39:38Z</time>
      </trkpt>
      <trkpt lat="43.02113" lon="1.27794">
        <ele>445.71</ele>
        <time>2014-09-14T07:39:39Z</time>
      </trkpt>
      <trkpt lat="43.02097" lon="1.27681">
        <ele>449.55</ele>
        <time>2014-09-14T07:39:56Z</time>
      </trkpt>
      <trkpt lat="43.02079" lon="1.27542">
        <ele>449.55</ele>
        <time>2014-09-14T07:40:16Z</time>
      </trkpt>
      <trkpt lat="43.02053" lon="1.27409">
        <ele>452.92</ele>
        <time>2014-09-14T07:40:36Z</time>
      </trkpt>
      <trkpt lat="43.02045" lon="1.27292">
        <ele>455.8</ele>
        <time>2014-09-14T07:40:53Z</time>
      </trkpt>
      <trkpt lat="43.02036" lon="1.27205">
        <ele>457.72</ele>
        <time>2014-09-14T07:41:06Z</time>
      </trkpt>
      <trkpt lat="43.02033" lon="1.27199">
        <ele>457.72</ele>
        <time>2014-09-14T07:41:07Z</time>
      </trkpt>
      <trkpt lat="43.02029" lon="1.27193">
        <ele>457.72</ele>
        <time>2014-09-14T07:41:08Z</time>
      </trkpt>
      <trkpt lat="43.02026" lon="1.27188">
        <ele>458.21</ele>
        <time>2014-09-14T07:41:09Z</time>
      </trkpt>
      <trkpt lat="43.02023" lon="1.27183">
        <ele>458.21</ele>
        <time>2014-09-14T07:41:10Z</time>
      </trkpt>
      <trkpt lat="43.02018" lon="1.27179">
        <ele>458.21</ele>
        <time>2014-09-14T07:41:11Z</time>
      </trkpt>
      <trkpt lat="43.02014" lon="1.27174">
        <ele>458.69</ele>
        <time>2014-09-14T07:41:12Z</time>
      </trkpt>
      <trkpt lat="43.01936" lon="1.2711">
        <ele>463.01</ele>
        <time>2014-09-14T07:41:30Z</time>
      </trkpt>
      <trkpt lat="43.01928" lon="1.27102">
        <ele>463.49</ele>
        <time>2014-09-14T07:41:32Z</time>
      </trkpt>
      <trkpt lat="43.01924" lon="1.27097">
        <ele>463.49</ele>
        <time>2014-09-14T07:41:33Z</time>
      </trkpt>
      <trkpt lat="43.01921" lon="1.27092">
        <ele>463.49</ele>
        <time>2014-09-14T07:41:34Z</time>
      </trkpt>
      <trkpt lat="43.01918" lon="1.27086">
        <ele>463.49</ele>
        <time>2014-09-14T07:41:35Z</time>
      </trkpt>
      <trkpt lat="43.01916" lon="1.2708">
        <ele>463.49</ele>
        <time>2014-09-14T07:41:36Z</time>
      </trkpt>
      <trkpt lat="43.01914" lon="1.27074">
        <ele>463.49</ele>
        <time>2014-09-14T07:41:37Z</time>
      </trkpt>
      <trkpt lat="43.01911" lon="1.27068">
        <ele>463.49</ele>
        <time>2014-09-14T07:41:38Z</time>
      </trkpt>
      <trkpt lat="43.0191" lon="1.27062">
        <ele>463.97</ele>
        <time>2014-09-14T07:41:39Z</time>
      </trkpt>
      <trkpt lat="43.01903" lon="1.2703">
        <ele>464.45</ele>
        <time>2014-09-14T07:41:44Z</time>
      </trkpt>
      <trkpt lat="43.01901" lon="1.27024">
        <ele>464.45</ele>
        <time>2014-09-14T07:41:45Z</time>
      </trkpt>
      <trkpt lat="43.01893" lon="1.27">
        <ele>465.42</ele>
        <time>2014-09-14T07:41:49Z</time>
      </trkpt>
      <trkpt lat="43.0189" lon="1.26994">
        <ele>465.42</ele>
        <time>2014-09-14T07:41:50Z</time>
      </trkpt>
      <trkpt lat="43.01843" lon="1.26909">
        <ele>466.38</ele>
        <time>2014-09-14T07:42:05Z</time>
      </trkpt>
      <trkpt lat="43.0179" lon="1.26778">
        <ele>467.34</ele>
        <time>2014-09-14T07:42:25Z</time>
      </trkpt>
      <trkpt lat="43.01752" lon="1.26673">
        <ele>470.22</ele>
        <time>2014-09-14T07:42:41Z</time>
      </trkpt>
      <trkpt lat="43.01708" lon="1.2652">
        <ele>473.11</ele>
        <time>2014-09-14T07:43:03Z</time>
      </trkpt>
      <trkpt lat="43.01677" lon="1.2641">
        <ele>472.14</ele>
        <time>2014-09-14T07:43:18Z</time>
      </trkpt>
      <trkpt lat="43.01623" lon="1.2626">
        <ele>469.26</ele>
        <time>2014-09-14T07:43:36Z</time>
      </trkpt>
      <trkpt lat="43.01565" lon="1.26106">
        <ele>465.9</ele>
        <time>2014-09-14T07:43:54Z</time>
      </trkpt>
      <trkpt lat="43.01499" lon="1.2593">
        <ele>464.93</ele>
        <time>2014-09-14T07:44:16Z</time>
      </trkpt>
      <trkpt lat="43.01448" lon="1.25792">
        <ele>466.86</ele>
        <time>2014-09-14T07:44:34Z</time>
      </trkpt>
      <trkpt lat="43.01398" lon="1.25657">
        <ele>468.78</ele>
        <time>2014-09-14T07:44:52Z</time>
      </trkpt>
      <trkpt lat="43.01357" lon="1.25555">
        <ele>472.63</ele>
        <time>2014-09-14T07:45:07Z</time>
      </trkpt>
      <trkpt lat="43.01324" lon="1.25467">
        <ele>475.51</ele>
        <time>2014-09-14T07:45:20Z</time>
      </trkpt>
      <trkpt lat="43.01314" lon="1.25439">
        <ele>476.47</ele>
        <time>2014-09-14T07:45:24Z</time>
      </trkpt>
      <trkpt lat="43.01311" lon="1.25435">
        <ele>476.47</ele>
        <time>2014-09-14T07:45:25Z</time>
      </trkpt>
      <trkpt lat="43.01296" lon="1.25413">
        <ele>477.43</ele>
        <time>2014-09-14T07:45:29Z</time>
      </trkpt>
      <trkpt lat="43.01291" lon="1.25409">
        <ele>477.91</ele>
        <time>2014-09-14T07:45:30Z</time>
      </trkpt>
      <trkpt lat="43.01287" lon="1.25406">
        <ele>477.91</ele>
        <time>2014-09-14T07:45:31Z</time>
      </trkpt>
      <trkpt lat="43.01281" lon="1.25403">
        <ele>478.39</ele>
        <time>2014-09-14T07:45:32Z</time>
      </trkpt>
      <trkpt lat="43.01276" lon="1.25402">
        <ele>478.39</ele>
        <time>2014-09-14T07:45:33Z</time>
      </trkpt>
      <trkpt lat="43.0127" lon="1.254">
        <ele>478.39</ele>
        <time>2014-09-14T07:45:34Z</time>
      </trkpt>
      <trkpt lat="43.01265" lon="1.254">
        <ele>478.39</ele>
        <time>2014-09-14T07:45:35Z</time>
      </trkpt>
      <trkpt lat="43.01259" lon="1.254">
        <ele>478.39</ele>
        <time>2014-09-14T07:45:36Z</time>
      </trkpt>
      <trkpt lat="43.0117" lon="1.25401">
        <ele>479.35</ele>
        <time>2014-09-14T07:45:50Z</time>
      </trkpt>
      <trkpt lat="43.01052" lon="1.25375">
        <ele>476.47</ele>
        <time>2014-09-14T07:46:08Z</time>
      </trkpt>
      <trkpt lat="43.00976" lon="1.2534">
        <ele>474.55</ele>
        <time>2014-09-14T07:46:20Z</time>
      </trkpt>
      <trkpt lat="43.00966" lon="1.25329">
        <ele>474.55</ele>
        <time>2014-09-14T07:46:22Z</time>
      </trkpt>
      <trkpt lat="43.00962" lon="1.25321">
        <ele>474.55</ele>
        <time>2014-09-14T07:46:23Z</time>
      </trkpt>
      <trkpt lat="43.00958" lon="1.25313">
        <ele>474.07</ele>
        <time>2014-09-14T07:46:24Z</time>
      </trkpt>
      <trkpt lat="43.00956" lon="1.25303">
        <ele>474.07</ele>
        <time>2014-09-14T07:46:25Z</time>
      </trkpt>
      <trkpt lat="43.00955" lon="1.25293">
        <ele>473.59</ele>
        <time>2014-09-14T07:46:26Z</time>
      </trkpt>
      <trkpt lat="43.00955" lon="1.25284">
        <ele>473.59</ele>
        <time>2014-09-14T07:46:27Z</time>
      </trkpt>
      <trkpt lat="43.00957" lon="1.25274">
        <ele>473.11</ele>
        <time>2014-09-14T07:46:28Z</time>
      </trkpt>
      <trkpt lat="43.0096" lon="1.25265">
        <ele>473.11</ele>
        <time>2014-09-14T07:46:29Z</time>
      </trkpt>
      <trkpt lat="43.00963" lon="1.25257">
        <ele>473.11</ele>
        <time>2014-09-14T07:46:30Z</time>
      </trkpt>
      <trkpt lat="43.00968" lon="1.25248">
        <ele>472.63</ele>
        <time>2014-09-14T07:46:31Z</time>
      </trkpt>
      <trkpt lat="43.00973" lon="1.25239">
        <ele>472.63</ele>
        <time>2014-09-14T07:46:32Z</time>
      </trkpt>
      <trkpt lat="43.01029" lon="1.25137">
        <ele>470.22</ele>
        <time>2014-09-14T07:46:45Z</time>
      </trkpt>
      <trkpt lat="43.01031" lon="1.25127">
        <ele>470.22</ele>
        <time>2014-09-14T07:46:46Z</time>
      </trkpt>
      <trkpt lat="43.01032" lon="1.25117">
        <ele>470.22</ele>
        <time>2014-09-14T07:46:47Z</time>
      </trkpt>
      <trkpt lat="43.01032" lon="1.25107">
        <ele>469.74</ele>
        <time>2014-09-14T07:46:48Z</time>
      </trkpt>
      <trkpt lat="43.01032" lon="1.25097">
        <ele>469.74</ele>
        <time>2014-09-14T07:46:49Z</time>
      </trkpt>
      <trkpt lat="43.01031" lon="1.25087">
        <ele>469.26</ele>
        <time>2014-09-14T07:46:50Z</time>
      </trkpt>
      <trkpt lat="43.01001" lon="1.24951">
        <ele>466.86</ele>
        <time>2014-09-14T07:47:04Z</time>
      </trkpt>
      <trkpt lat="43.00968" lon="1.24839">
        <ele>464.45</ele>
        <time>2014-09-14T07:47:16Z</time>
      </trkpt>
      <trkpt lat="43.00967" lon="1.24829">
        <ele>463.97</ele>
        <time>2014-09-14T07:47:17Z</time>
      </trkpt>
      <trkpt lat="43.00967" lon="1.24819">
        <ele>463.49</ele>
        <time>2014-09-14T07:47:18Z</time>
      </trkpt>
      <trkpt lat="43.00972" lon="1.24654">
        <ele>461.09</ele>
        <time>2014-09-14T07:47:34Z</time>
      </trkpt>
      <trkpt lat="43.00979" lon="1.24455">
        <ele>457.24</ele>
        <time>2014-09-14T07:47:52Z</time>
      </trkpt>
      <trkpt lat="43.00961" lon="1.2432">
        <ele>454.36</ele>
        <time>2014-09-14T07:48:05Z</time>
      </trkpt>
      <trkpt lat="43.00916" lon="1.24092">
        <ele>449.55</ele>
        <time>2014-09-14T07:48:27Z</time>
      </trkpt>
      <trkpt lat="43.00895" lon="1.24005">
        <ele>448.59</ele>
        <time>2014-09-14T07:48:36Z</time>
      </trkpt>
      <trkpt lat="43.00889" lon="1.23994">
        <ele>449.07</ele>
        <time>2014-09-14T07:48:37Z</time>
      </trkpt>
      <trkpt lat="43.00885" lon="1.23989">
        <ele>448.59</ele>
        <time>2014-09-14T07:48:38Z</time>
      </trkpt>
      <trkpt lat="43.0088" lon="1.23982">
        <ele>448.59</ele>
        <time>2014-09-14T07:48:39Z</time>
      </trkpt>
      <trkpt lat="43.00874" lon="1.23977">
        <ele>448.59</ele>
        <time>2014-09-14T07:48:40Z</time>
      </trkpt>
      <trkpt lat="43.00867" lon="1.23972">
        <ele>448.59</ele>
        <time>2014-09-14T07:48:41Z</time>
      </trkpt>
      <trkpt lat="43.00861" lon="1.23968">
        <ele>448.11</ele>
        <time>2014-09-14T07:48:42Z</time>
      </trkpt>
      <trkpt lat="43.00854" lon="1.23965">
        <ele>448.11</ele>
        <time>2014-09-14T07:48:43Z</time>
      </trkpt>
      <trkpt lat="43.00847" lon="1.23963">
        <ele>448.11</ele>
        <time>2014-09-14T07:48:44Z</time>
      </trkpt>
      <trkpt lat="43.00742" lon="1.23924">
        <ele>449.07</ele>
        <time>2014-09-14T07:49:00Z</time>
      </trkpt>
      <trkpt lat="43.00707" lon="1.2391">
        <ele>449.55</ele>
        <time>2014-09-14T07:49:06Z</time>
      </trkpt>
      <trkpt lat="43.00679" lon="1.23896">
        <ele>449.07</ele>
        <time>2014-09-14T07:49:11Z</time>
      </trkpt>
      <trkpt lat="43.00674" lon="1.23891">
        <ele>449.07</ele>
        <time>2014-09-14T07:49:12Z</time>
      </trkpt>
      <trkpt lat="43.00667" lon="1.23885">
        <ele>449.07</ele>
        <time>2014-09-14T07:49:13Z</time>
      </trkpt>
      <trkpt lat="43.00582" lon="1.23827">
        <ele>447.63</ele>
        <time>2014-09-14T07:49:26Z</time>
      </trkpt>
      <trkpt lat="43.00457" lon="1.23781">
        <ele>444.27</ele>
        <time>2014-09-14T07:49:43Z</time>
      </trkpt>
      <trkpt lat="43.0034" lon="1.23738">
        <ele>442.34</ele>
        <time>2014-09-14T07:49:59Z</time>
      </trkpt>
      <trkpt lat="43.00257" lon="1.23696">
        <ele>441.38</ele>
        <time>2014-09-14T07:50:11Z</time>
      </trkpt>
      <trkpt lat="43.00252" lon="1.2369">
        <ele>441.38</ele>
        <time>2014-09-14T07:50:12Z</time>
      </trkpt>
      <trkpt lat="43.00246" lon="1.23683">
        <ele>440.9</ele>
        <time>2014-09-14T07:50:13Z</time>
      </trkpt>
      <trkpt lat="43.00241" lon="1.23676">
        <ele>440.9</ele>
        <time>2014-09-14T07:50:14Z</time>
      </trkpt>
      <trkpt lat="43.00237" lon="1.23668">
        <ele>440.9</ele>
        <time>2014-09-14T07:50:15Z</time>
      </trkpt>
      <trkpt lat="43.00233" lon="1.2366">
        <ele>440.9</ele>
        <time>2014-09-14T07:50:16Z</time>
      </trkpt>
      <trkpt lat="43.0023" lon="1.23651">
        <ele>440.9</ele>
        <time>2014-09-14T07:50:17Z</time>
      </trkpt>
      <trkpt lat="43.00211" lon="1.23596">
        <ele>439.46</ele>
        <time>2014-09-14T07:50:23Z</time>
      </trkpt>
      <trkpt lat="43.00193" lon="1.23561">
        <ele>439.46</ele>
        <time>2014-09-14T07:50:27Z</time>
      </trkpt>
      <trkpt lat="43.00187" lon="1.23554">
        <ele>439.46</ele>
        <time>2014-09-14T07:50:28Z</time>
      </trkpt>
      <trkpt lat="43.0018" lon="1.23547">
        <ele>439.94</ele>
        <time>2014-09-14T07:50:29Z</time>
      </trkpt>
      <trkpt lat="43.00174" lon="1.23543">
        <ele>439.94</ele>
        <time>2014-09-14T07:50:30Z</time>
      </trkpt>
      <trkpt lat="43.00167" lon="1.23538">
        <ele>439.94</ele>
        <time>2014-09-14T07:50:31Z</time>
      </trkpt>
      <trkpt lat="43.00159" lon="1.23534">
        <ele>439.94</ele>
        <time>2014-09-14T07:50:32Z</time>
      </trkpt>
      <trkpt lat="43.00152" lon="1.23531">
        <ele>439.46</ele>
        <time>2014-09-14T07:50:33Z</time>
      </trkpt>
      <trkpt lat="43.00046" lon="1.23478">
        <ele>439.46</ele>
        <time>2014-09-14T07:50:48Z</time>
      </trkpt>
      <trkpt lat="43.00042" lon="1.23474">
        <ele>439.46</ele>
        <time>2014-09-14T07:50:49Z</time>
      </trkpt>
      <trkpt lat="43.00039" lon="1.23468">
        <ele>439.46</ele>
        <time>2014-09-14T07:50:50Z</time>
      </trkpt>
      <trkpt lat="43.00036" lon="1.23461">
        <ele>439.46</ele>
        <time>2014-09-14T07:50:51Z</time>
      </trkpt>
      <trkpt lat="43.00035" lon="1.23453">
        <ele>438.98</ele>
        <time>2014-09-14T07:50:52Z</time>
      </trkpt>
      <trkpt lat="43.00035" lon="1.23447">
        <ele>438.98</ele>
        <time>2014-09-14T07:50:53Z</time>
      </trkpt>
      <trkpt lat="43.00036" lon="1.23438">
        <ele>439.46</ele>
        <time>2014-09-14T07:50:54Z</time>
      </trkpt>
      <trkpt lat="43.00036" lon="1.23431">
        <ele>439.46</ele>
        <time>2014-09-14T07:50:55Z</time>
      </trkpt>
      <trkpt lat="43.00037" lon="1.23423">
        <ele>439.46</ele>
        <time>2014-09-14T07:50:56Z</time>
      </trkpt>
      <trkpt lat="43.00033" lon="1.23293">
        <ele>438.5</ele>
        <time>2014-09-14T07:51:10Z</time>
      </trkpt>
      <trkpt lat="43.0001" lon="1.23098">
        <ele>438.5</ele>
        <time>2014-09-14T07:51:30Z</time>
      </trkpt>
      <trkpt lat="42.99953" lon="1.22981">
        <ele>436.58</ele>
        <time>2014-09-14T07:51:43Z</time>
      </trkpt>
      <trkpt lat="42.99867" lon="1.22903">
        <ele>434.17</ele>
        <time>2014-09-14T07:51:56Z</time>
      </trkpt>
      <trkpt lat="42.99779" lon="1.22799">
        <ele>432.25</ele>
        <time>2014-09-14T07:52:11Z</time>
      </trkpt>
      <trkpt lat="42.99697" lon="1.22632">
        <ele>433.69</ele>
        <time>2014-09-14T07:52:30Z</time>
      </trkpt>
      <trkpt lat="42.99595" lon="1.22426">
        <ele>434.17</ele>
        <time>2014-09-14T07:52:53Z</time>
      </trkpt>
      <trkpt lat="42.99501" lon="1.22319">
        <ele>431.29</ele>
        <time>2014-09-14T07:53:08Z</time>
      </trkpt>
      <trkpt lat="42.99381" lon="1.22242">
        <ele>427.92</ele>
        <time>2014-09-14T07:53:24Z</time>
      </trkpt>
      <trkpt lat="42.99322" lon="1.22203">
        <ele>427.44</ele>
        <time>2014-09-14T07:53:32Z</time>
      </trkpt>
      <trkpt lat="42.99292" lon="1.2215">
        <ele>427.44</ele>
        <time>2014-09-14T07:53:38Z</time>
      </trkpt>
      <trkpt lat="42.99289" lon="1.2214">
        <ele>426.96</ele>
        <time>2014-09-14T07:53:39Z</time>
      </trkpt>
      <trkpt lat="42.99288" lon="1.22128">
        <ele>426.96</ele>
        <time>2014-09-14T07:53:40Z</time>
      </trkpt>
      <trkpt lat="42.99287" lon="1.22116">
        <ele>426.96</ele>
        <time>2014-09-14T07:53:41Z</time>
      </trkpt>
      <trkpt lat="42.99287" lon="1.22105">
        <ele>426.96</ele>
        <time>2014-09-14T07:53:42Z</time>
      </trkpt>
      <trkpt lat="42.99287" lon="1.22093">
        <ele>426.96</ele>
        <time>2014-09-14T07:53:43Z</time>
      </trkpt>
      <trkpt lat="42.99288" lon="1.22081">
        <ele>426.96</ele>
        <time>2014-09-14T07:53:44Z</time>
      </trkpt>
      <trkpt lat="42.9929" lon="1.22069">
        <ele>426.96</ele>
        <time>2014-09-14T07:53:45Z</time>
      </trkpt>
      <trkpt lat="42.99292" lon="1.22058">
        <ele>426.48</ele>
        <time>2014-09-14T07:53:46Z</time>
      </trkpt>
      <trkpt lat="42.9933" lon="1.21894">
        <ele>426</ele>
        <time>2014-09-14T07:54:01Z</time>
      </trkpt>
      <trkpt lat="42.99329" lon="1.21732">
        <ele>426</ele>
        <time>2014-09-14T07:54:15Z</time>
      </trkpt>
      <trkpt lat="42.9935" lon="1.21548">
        <ele>426</ele>
        <time>2014-09-14T07:54:31Z</time>
      </trkpt>
      <trkpt lat="42.99373" lon="1.21326">
        <ele>424.08</ele>
        <time>2014-09-14T07:54:50Z</time>
      </trkpt>
      <trkpt lat="42.99395" lon="1.21075">
        <ele>424.56</ele>
        <time>2014-09-14T07:55:12Z</time>
      </trkpt>
      <trkpt lat="42.99432" lon="1.20813">
        <ele>422.64</ele>
        <time>2014-09-14T07:55:35Z</time>
      </trkpt>
      <trkpt lat="42.99486" lon="1.20539">
        <ele>420.23</ele>
        <time>2014-09-14T07:55:59Z</time>
      </trkpt>
      <trkpt lat="42.99544" lon="1.20281">
        <ele>417.35</ele>
        <time>2014-09-14T07:56:21Z</time>
      </trkpt>
      <trkpt lat="42.99591" lon="1.20022">
        <ele>415.91</ele>
        <time>2014-09-14T07:56:43Z</time>
      </trkpt>
      <trkpt lat="42.996" lon="1.19835">
        <ele>415.43</ele>
        <time>2014-09-14T07:56:59Z</time>
      </trkpt>
      <trkpt lat="42.9957" lon="1.19643">
        <ele>415.43</ele>
        <time>2014-09-14T07:57:16Z</time>
      </trkpt>
      <trkpt lat="42.9954" lon="1.19438">
        <ele>415.91</ele>
        <time>2014-09-14T07:57:34Z</time>
      </trkpt>
      <trkpt lat="42.99541" lon="1.19247">
        <ele>414.47</ele>
        <time>2014-09-14T07:57:50Z</time>
      </trkpt>
      <trkpt lat="42.99585" lon="1.19037">
        <ele>412.06</ele>
        <time>2014-09-14T07:58:08Z</time>
      </trkpt>
      <trkpt lat="42.99622" lon="1.18872">
        <ele>411.1</ele>
        <time>2014-09-14T07:58:23Z</time>
      </trkpt>
      <trkpt lat="42.99611" lon="1.18736">
        <ele>410.14</ele>
        <time>2014-09-14T07:58:35Z</time>
      </trkpt>
      <trkpt lat="42.9954" lon="1.18593">
        <ele>409.18</ele>
        <time>2014-09-14T07:58:50Z</time>
      </trkpt>
      <trkpt lat="42.99519" lon="1.18555">
        <ele>408.7</ele>
        <time>2014-09-14T07:58:54Z</time>
      </trkpt>
      <trkpt lat="42.99515" lon="1.18545">
        <ele>408.7</ele>
        <time>2014-09-14T07:58:55Z</time>
      </trkpt>
      <trkpt lat="42.99512" lon="1.18534">
        <ele>408.7</ele>
        <time>2014-09-14T07:58:56Z</time>
      </trkpt>
      <trkpt lat="42.9951" lon="1.18523">
        <ele>408.7</ele>
        <time>2014-09-14T07:58:57Z</time>
      </trkpt>
      <trkpt lat="42.99508" lon="1.18512">
        <ele>408.7</ele>
        <time>2014-09-14T07:58:58Z</time>
      </trkpt>
      <trkpt lat="42.99505" lon="1.18489">
        <ele>408.7</ele>
        <time>2014-09-14T07:59:00Z</time>
      </trkpt>
      <trkpt lat="42.99505" lon="1.18476">
        <ele>408.7</ele>
        <time>2014-09-14T07:59:01Z</time>
      </trkpt>
      <trkpt lat="42.99501" lon="1.18331">
        <ele>409.66</ele>
        <time>2014-09-14T07:59:14Z</time>
      </trkpt>
      <trkpt lat="42.99452" lon="1.18224">
        <ele>409.66</ele>
        <time>2014-09-14T07:59:26Z</time>
      </trkpt>
      <trkpt lat="42.9939" lon="1.1813">
        <ele>409.18</ele>
        <time>2014-09-14T07:59:38Z</time>
      </trkpt>
      <trkpt lat="42.99386" lon="1.18038">
        <ele>408.7</ele>
        <time>2014-09-14T07:59:47Z</time>
      </trkpt>
      <trkpt lat="42.99388" lon="1.18028">
        <ele>408.7</ele>
        <time>2014-09-14T07:59:48Z</time>
      </trkpt>
      <trkpt lat="42.99437" lon="1.17893">
        <ele>408.7</ele>
        <time>2014-09-14T08:00:02Z</time>
      </trkpt>
      <trkpt lat="42.99452" lon="1.17779">
        <ele>408.22</ele>
        <time>2014-09-14T08:00:13Z</time>
      </trkpt>
      <trkpt lat="42.99414" lon="1.17659">
        <ele>406.77</ele>
        <time>2014-09-14T08:00:25Z</time>
      </trkpt>
      <trkpt lat="42.99338" lon="1.1748">
        <ele>404.85</ele>
        <time>2014-09-14T08:00:44Z</time>
      </trkpt>
      <trkpt lat="42.99303" lon="1.17354">
        <ele>404.37</ele>
        <time>2014-09-14T08:00:56Z</time>
      </trkpt>
      <trkpt lat="42.99314" lon="1.17242">
        <ele>403.89</ele>
        <time>2014-09-14T08:01:06Z</time>
      </trkpt>
      <trkpt lat="42.99371" lon="1.17144">
        <ele>404.85</ele>
        <time>2014-09-14T08:01:17Z</time>
      </trkpt>
      <trkpt lat="42.99459" lon="1.17001">
        <ele>404.85</ele>
        <time>2014-09-14T08:01:34Z</time>
      </trkpt>
      <trkpt lat="42.99483" lon="1.16896">
        <ele>403.89</ele>
        <time>2014-09-14T08:01:44Z</time>
      </trkpt>
      <trkpt lat="42.99465" lon="1.16776">
        <ele>404.85</ele>
        <time>2014-09-14T08:01:55Z</time>
      </trkpt>
      <trkpt lat="42.99399" lon="1.1666">
        <ele>403.89</ele>
        <time>2014-09-14T08:02:08Z</time>
      </trkpt>
      <trkpt lat="42.99312" lon="1.16528">
        <ele>402.93</ele>
        <time>2014-09-14T08:02:24Z</time>
      </trkpt>
      <trkpt lat="42.99287" lon="1.16403">
        <ele>401.49</ele>
        <time>2014-09-14T08:02:35Z</time>
      </trkpt>
      <trkpt lat="42.99276" lon="1.16232">
        <ele>400.05</ele>
        <time>2014-09-14T08:02:50Z</time>
      </trkpt>
      <trkpt lat="42.99265" lon="1.16027">
        <ele>401.01</ele>
        <time>2014-09-14T08:03:07Z</time>
      </trkpt>
      <trkpt lat="42.99283" lon="1.15864">
        <ele>401.49</ele>
        <time>2014-09-14T08:03:20Z</time>
      </trkpt>
      <trkpt lat="42.99289" lon="1.15758">
        <ele>400.05</ele>
        <time>2014-09-14T08:03:29Z</time>
      </trkpt>
      <trkpt lat="42.99288" lon="1.15747">
        <ele>400.05</ele>
        <time>2014-09-14T08:03:30Z</time>
      </trkpt>
      <trkpt lat="42.99285" lon="1.15735">
        <ele>399.57</ele>
        <time>2014-09-14T08:03:31Z</time>
      </trkpt>
      <trkpt lat="42.99282" lon="1.15724">
        <ele>399.57</ele>
        <time>2014-09-14T08:03:32Z</time>
      </trkpt>
      <trkpt lat="42.99278" lon="1.15712">
        <ele>399.57</ele>
        <time>2014-09-14T08:03:33Z</time>
      </trkpt>
      <trkpt lat="42.9923" lon="1.15608">
        <ele>398.6</ele>
        <time>2014-09-14T08:03:44Z</time>
      </trkpt>
      <trkpt lat="42.99165" lon="1.15482">
        <ele>396.2</ele>
        <time>2014-09-14T08:04:00Z</time>
      </trkpt>
      <trkpt lat="42.99121" lon="1.15413">
        <ele>396.2</ele>
        <time>2014-09-14T08:04:10Z</time>
      </trkpt>
      <trkpt lat="42.99029" lon="1.153">
        <ele>396.2</ele>
        <time>2014-09-14T08:04:28Z</time>
      </trkpt>
      <trkpt lat="42.9896" lon="1.15158">
        <ele>395.24</ele>
        <time>2014-09-14T08:04:46Z</time>
      </trkpt>
      <trkpt lat="42.98874" lon="1.15011">
        <ele>395.72</ele>
        <time>2014-09-14T08:05:05Z</time>
      </trkpt>
      <trkpt lat="42.98778" lon="1.14948">
        <ele>397.64</ele>
        <time>2014-09-14T08:05:20Z</time>
      </trkpt>
      <trkpt lat="42.98744" lon="1.1494">
        <ele>397.16</ele>
        <time>2014-09-14T08:05:25Z</time>
      </trkpt>
      <trkpt lat="42.9874" lon="1.14936">
        <ele>397.16</ele>
        <time>2014-09-14T08:05:26Z</time>
      </trkpt>
      <trkpt lat="42.98737" lon="1.14934">
        <ele>397.16</ele>
        <time>2014-09-14T08:05:27Z</time>
      </trkpt>
      <trkpt lat="42.98719" lon="1.14909">
        <ele>396.68</ele>
        <time>2014-09-14T08:05:36Z</time>
      </trkpt>
      <trkpt lat="42.98718" lon="1.14908">
        <ele>396.68</ele>
        <time>2014-09-14T08:05:37Z</time>
      </trkpt>
      <trkpt lat="42.98716" lon="1.14909">
        <ele>396.68</ele>
        <time>2014-09-14T08:05:38Z</time>
      </trkpt>
      <trkpt lat="42.98686" lon="1.14923">
        <ele>396.68</ele>
        <time>2014-09-14T08:05:47Z</time>
      </trkpt>
      <trkpt lat="42.98682" lon="1.14925">
        <ele>397.16</ele>
        <time>2014-09-14T08:05:48Z</time>
      </trkpt>
      <trkpt lat="42.98677" lon="1.14924">
        <ele>397.16</ele>
        <time>2014-09-14T08:05:49Z</time>
      </trkpt>
      <trkpt lat="42.98673" lon="1.1492">
        <ele>396.68</ele>
        <time>2014-09-14T08:05:50Z</time>
      </trkpt>
      <trkpt lat="42.9867" lon="1.14915">
        <ele>396.68</ele>
        <time>2014-09-14T08:05:51Z</time>
      </trkpt>
      <trkpt lat="42.98668" lon="1.14909">
        <ele>396.68</ele>
        <time>2014-09-14T08:05:52Z</time>
      </trkpt>
      <trkpt lat="42.98665" lon="1.14904">
        <ele>396.2</ele>
        <time>2014-09-14T08:05:53Z</time>
      </trkpt>
      <trkpt lat="42.9863" lon="1.14819">
        <ele>394.28</ele>
        <time>2014-09-14T08:06:02Z</time>
      </trkpt>
      <trkpt lat="42.98625" lon="1.14807">
        <ele>393.8</ele>
        <time>2014-09-14T08:06:03Z</time>
      </trkpt>
      <trkpt lat="42.98575" lon="1.14701">
        <ele>392.36</ele>
        <time>2014-09-14T08:06:16Z</time>
      </trkpt>
      <trkpt lat="42.98569" lon="1.14685">
        <ele>391.87</ele>
        <time>2014-09-14T08:06:20Z</time>
      </trkpt>
      <trkpt lat="42.9857" lon="1.14681">
        <ele>391.87</ele>
        <time>2014-09-14T08:06:21Z</time>
      </trkpt>
      <trkpt lat="42.98573" lon="1.14667">
        <ele>391.87</ele>
        <time>2014-09-14T08:06:24Z</time>
      </trkpt>
      <trkpt lat="42.98579" lon="1.14641">
        <ele>391.39</ele>
        <time>2014-09-14T08:06:28Z</time>
      </trkpt>
      <trkpt lat="42.98583" lon="1.14614">
        <ele>390.91</ele>
        <time>2014-09-14T08:06:32Z</time>
      </trkpt>
      <trkpt lat="42.98607" lon="1.14506">
        <ele>392.84</ele>
        <time>2014-09-14T08:06:46Z</time>
      </trkpt>
      <trkpt lat="42.98629" lon="1.14428">
        <ele>392.84</ele>
        <time>2014-09-14T08:06:59Z</time>
      </trkpt>
      <trkpt lat="42.98637" lon="1.14413">
        <ele>393.32</ele>
        <time>2014-09-14T08:07:10Z</time>
      </trkpt>
      <trkpt lat="42.98637" lon="1.14401">
        <ele>398.6</ele>
        <time>2014-09-14T08:07:22Z</time>
      </trkpt>
      <trkpt lat="42.98633" lon="1.14397">
        <ele>399.57</ele>
        <time>2014-09-14T08:07:26Z</time>
      </trkpt>
      <trkpt lat="42.98632" lon="1.14397">
        <ele>400.05</ele>
        <time>2014-09-14T08:07:27Z</time>
      </trkpt>
      <trkpt lat="42.9863" lon="1.14398">
        <ele>400.53</ele>
        <time>2014-09-14T08:07:28Z</time>
      </trkpt>
      <trkpt lat="42.98622" lon="1.14404">
        <ele>401.97</ele>
        <time>2014-09-14T08:07:34Z</time>
      </trkpt>
      <trkpt lat="42.98622" lon="1.14407">
        <ele>402.45</ele>
        <time>2014-09-14T08:07:35Z</time>
      </trkpt>
      <trkpt lat="42.98623" lon="1.14411">
        <ele>402.93</ele>
        <time>2014-09-14T08:07:36Z</time>
      </trkpt>
      <trkpt lat="42.98623" lon="1.14414">
        <ele>402.93</ele>
        <time>2014-09-14T08:07:37Z</time>
      </trkpt>
      <trkpt lat="42.98624" lon="1.14418">
        <ele>403.41</ele>
        <time>2014-09-14T08:07:38Z</time>
      </trkpt>
      <trkpt lat="42.98625" lon="1.14427">
        <ele>402.93</ele>
        <time>2014-09-14T08:07:49Z</time>
      </trkpt>
      <trkpt lat="42.98625" lon="1.14424">
        <ele>401.97</ele>
        <time>2014-09-14T08:08:01Z</time>
      </trkpt>
      <trkpt lat="42.98624" lon="1.14422">
        <ele>401.97</ele>
        <time>2014-09-14T08:08:02Z</time>
      </trkpt>
      <trkpt lat="42.98624" lon="1.1442">
        <ele>401.97</ele>
        <time>2014-09-14T08:08:03Z</time>
      </trkpt>
      <trkpt lat="42.98624" lon="1.14418">
        <ele>401.97</ele>
        <time>2014-09-14T08:08:04Z</time>
      </trkpt>
      <trkpt lat="42.98623" lon="1.14416">
        <ele>401.97</ele>
        <time>2014-09-14T08:08:05Z</time>
      </trkpt>
      <trkpt lat="42.98622" lon="1.14413">
        <ele>401.97</ele>
        <time>2014-09-14T08:08:06Z</time>
      </trkpt>
      <trkpt lat="42.98621" lon="1.14405">
        <ele>401.49</ele>
        <time>2014-09-14T08:08:09Z</time>
      </trkpt>
      <trkpt lat="42.98623" lon="1.14402">
        <ele>401.49</ele>
        <time>2014-09-14T08:08:10Z</time>
      </trkpt>
      <trkpt lat="42.98625" lon="1.144">
        <ele>401.49</ele>
        <time>2014-09-14T08:08:11Z</time>
      </trkpt>
      <trkpt lat="42.98632" lon="1.14391">
        <ele>401.01</ele>
        <time>2014-09-14T08:08:14Z</time>
      </trkpt>
      <trkpt lat="42.98634" lon="1.14386">
        <ele>401.01</ele>
        <time>2014-09-14T08:08:15Z</time>
      </trkpt>
      <trkpt lat="42.98635" lon="1.1438">
        <ele>401.01</ele>
        <time>2014-09-14T08:08:16Z</time>
      </trkpt>
      <trkpt lat="42.98635" lon="1.14374">
        <ele>400.53</ele>
        <time>2014-09-14T08:08:17Z</time>
      </trkpt>
      <trkpt lat="42.98634" lon="1.14369">
        <ele>400.53</ele>
        <time>2014-09-14T08:08:18Z</time>
      </trkpt>
      <trkpt lat="42.98632" lon="1.14362">
        <ele>400.05</ele>
        <time>2014-09-14T08:08:19Z</time>
      </trkpt>
      <trkpt lat="42.9863" lon="1.14357">
        <ele>399.57</ele>
        <time>2014-09-14T08:08:20Z</time>
      </trkpt>
      <trkpt lat="42.98628" lon="1.14352">
        <ele>399.08</ele>
        <time>2014-09-14T08:08:21Z</time>
      </trkpt>
      <trkpt lat="42.98621" lon="1.14336">
        <ele>397.64</ele>
        <time>2014-09-14T08:08:31Z</time>
      </trkpt>
      <trkpt lat="42.98617" lon="1.14334">
        <ele>398.12</ele>
        <time>2014-09-14T08:08:50Z</time>
      </trkpt>
      <trkpt lat="42.98622" lon="1.14331">
        <ele>393.8</ele>
        <time>2014-09-14T08:09:22Z</time>
      </trkpt>
      <trkpt lat="42.98621" lon="1.14332">
        <ele>390.91</ele>
        <time>2014-09-14T08:09:57Z</time>
      </trkpt>
      <trkpt lat="42.98624" lon="1.14327">
        <ele>391.87</ele>
        <time>2014-09-14T08:10:40Z</time>
      </trkpt>
      <trkpt lat="42.98626" lon="1.14325">
        <ele>385.15</ele>
        <time>2014-09-14T08:11:16Z</time>
      </trkpt>
      <trkpt lat="42.98629" lon="1.14333">
        <ele>388.99</ele>
        <time>2014-09-14T08:11:59Z</time>
      </trkpt>
      <trkpt lat="42.98622" lon="1.14324">
        <ele>385.63</ele>
        <time>2014-09-14T08:12:31Z</time>
      </trkpt>
      <trkpt lat="42.98622" lon="1.1433">
        <ele>383.7</ele>
        <time>2014-09-14T08:13:03Z</time>
      </trkpt>
      <trkpt lat="42.98618" lon="1.1433">
        <ele>386.11</ele>
        <time>2014-09-14T08:13:37Z</time>
      </trkpt>
      <trkpt lat="42.98621" lon="1.14331">
        <ele>395.24</ele>
        <time>2014-09-14T08:14:10Z</time>
      </trkpt>
      <trkpt lat="42.98618" lon="1.14335">
        <ele>396.2</ele>
        <time>2014-09-14T08:14:27Z</time>
      </trkpt>
      <trkpt lat="42.98619" lon="1.1434">
        <ele>396.2</ele>
        <time>2014-09-14T08:14:32Z</time>
      </trkpt>
      <trkpt lat="42.9862" lon="1.14347">
        <ele>396.68</ele>
        <time>2014-09-14T08:14:35Z</time>
      </trkpt>
      <trkpt lat="42.98621" lon="1.1435">
        <ele>396.68</ele>
        <time>2014-09-14T08:14:36Z</time>
      </trkpt>
      <trkpt lat="42.98622" lon="1.14354">
        <ele>396.68</ele>
        <time>2014-09-14T08:14:37Z</time>
      </trkpt>
      <trkpt lat="42.98623" lon="1.14357">
        <ele>396.68</ele>
        <time>2014-09-14T08:14:38Z</time>
      </trkpt>
      <trkpt lat="42.98623" lon="1.1436">
        <ele>396.68</ele>
        <time>2014-09-14T08:14:39Z</time>
      </trkpt>
      <trkpt lat="42.98624" lon="1.14363">
        <ele>396.68</ele>
        <time>2014-09-14T08:14:40Z</time>
      </trkpt>
      <trkpt lat="42.98625" lon="1.14365">
        <ele>396.68</ele>
        <time>2014-09-14T08:14:41Z</time>
      </trkpt>
      <trkpt lat="42.98625" lon="1.14367">
        <ele>396.68</ele>
        <time>2014-09-14T08:14:42Z</time>
      </trkpt>
      <trkpt lat="42.98632" lon="1.14398">
        <ele>396.68</ele>
        <time>2014-09-14T08:14:50Z</time>
      </trkpt>
      <trkpt lat="42.98626" lon="1.14433">
        <ele>396.68</ele>
        <time>2014-09-14T08:14:58Z</time>
      </trkpt>
      <trkpt lat="42.98624" lon="1.14439">
        <ele>396.68</ele>
        <time>2014-09-14T08:14:59Z</time>
      </trkpt>
      <trkpt lat="42.98618" lon="1.14455">
        <ele>396.68</ele>
        <time>2014-09-14T08:15:02Z</time>
      </trkpt>
      <trkpt lat="42.98591" lon="1.14567">
        <ele>399.57</ele>
        <time>2014-09-14T08:15:20Z</time>
      </trkpt>
      <trkpt lat="42.98572" lon="1.1467">
        <ele>401.01</ele>
        <time>2014-09-14T08:15:35Z</time>
      </trkpt>
      <trkpt lat="42.9857" lon="1.14677">
        <ele>401.01</ele>
        <time>2014-09-14T08:15:36Z</time>
      </trkpt>
      <trkpt lat="42.98567" lon="1.14683">
        <ele>401.01</ele>
        <time>2014-09-14T08:15:37Z</time>
      </trkpt>
      <trkpt lat="42.98564" lon="1.1469">
        <ele>401.01</ele>
        <time>2014-09-14T08:15:38Z</time>
      </trkpt>
      <trkpt lat="42.98561" lon="1.14696">
        <ele>401.49</ele>
        <time>2014-09-14T08:15:39Z</time>
      </trkpt>
      <trkpt lat="42.98558" lon="1.14701">
        <ele>401.49</ele>
        <time>2014-09-14T08:15:40Z</time>
      </trkpt>
      <trkpt lat="42.98554" lon="1.14705">
        <ele>401.49</ele>
        <time>2014-09-14T08:15:41Z</time>
      </trkpt>
      <trkpt lat="42.98549" lon="1.1471">
        <ele>401.49</ele>
        <time>2014-09-14T08:15:42Z</time>
      </trkpt>
      <trkpt lat="42.98545" lon="1.14714">
        <ele>401.97</ele>
        <time>2014-09-14T08:15:43Z</time>
      </trkpt>
      <trkpt lat="42.98479" lon="1.14756">
        <ele>401.97</ele>
        <time>2014-09-14T08:15:56Z</time>
      </trkpt>
      <trkpt lat="42.98391" lon="1.14802">
        <ele>402.45</ele>
        <time>2014-09-14T08:16:13Z</time>
      </trkpt>
      <trkpt lat="42.98386" lon="1.14805">
        <ele>402.45</ele>
        <time>2014-09-14T08:16:14Z</time>
      </trkpt>
      <trkpt lat="42.9838" lon="1.14808">
        <ele>402.93</ele>
        <time>2014-09-14T08:16:15Z</time>
      </trkpt>
      <trkpt lat="42.98294" lon="1.14851">
        <ele>404.37</ele>
        <time>2014-09-14T08:16:32Z</time>
      </trkpt>
      <trkpt lat="42.9829" lon="1.14855">
        <ele>403.89</ele>
        <time>2014-09-14T08:16:33Z</time>
      </trkpt>
      <trkpt lat="42.98251" lon="1.14897">
        <ele>403.41</ele>
        <time>2014-09-14T08:16:42Z</time>
      </trkpt>
      <trkpt lat="42.98246" lon="1.14902">
        <ele>403.41</ele>
        <time>2014-09-14T08:16:43Z</time>
      </trkpt>
      <trkpt lat="42.9817" lon="1.14992">
        <ele>401.01</ele>
        <time>2014-09-14T08:17:01Z</time>
      </trkpt>
      <trkpt lat="42.98127" lon="1.15044">
        <ele>401.49</ele>
        <time>2014-09-14T08:17:12Z</time>
      </trkpt>
      <trkpt lat="42.98122" lon="1.15048">
        <ele>401.49</ele>
        <time>2014-09-14T08:17:13Z</time>
      </trkpt>
      <trkpt lat="42.98118" lon="1.15051">
        <ele>401.49</ele>
        <time>2014-09-14T08:17:14Z</time>
      </trkpt>
      <trkpt lat="42.98114" lon="1.15056">
        <ele>401.49</ele>
        <time>2014-09-14T08:17:15Z</time>
      </trkpt>
      <trkpt lat="42.9811" lon="1.15062">
        <ele>401.49</ele>
        <time>2014-09-14T08:17:16Z</time>
      </trkpt>
      <trkpt lat="42.98042" lon="1.1514">
        <ele>400.53</ele>
        <time>2014-09-14T08:17:31Z</time>
      </trkpt>
      <trkpt lat="42.97966" lon="1.15219">
        <ele>400.53</ele>
        <time>2014-09-14T08:17:47Z</time>
      </trkpt>
      <trkpt lat="42.97886" lon="1.153">
        <ele>400.53</ele>
        <time>2014-09-14T08:18:04Z</time>
      </trkpt>
      <trkpt lat="42.97795" lon="1.15391">
        <ele>400.05</ele>
        <time>2014-09-14T08:18:23Z</time>
      </trkpt>
      <trkpt lat="42.97729" lon="1.15462">
        <ele>401.49</ele>
        <time>2014-09-14T08:18:37Z</time>
      </trkpt>
      <trkpt lat="42.97681" lon="1.15536">
        <ele>401.97</ele>
        <time>2014-09-14T08:18:50Z</time>
      </trkpt>
      <trkpt lat="42.97648" lon="1.15652">
        <ele>401.49</ele>
        <time>2014-09-14T08:19:05Z</time>
      </trkpt>
      <trkpt lat="42.97628" lon="1.15792">
        <ele>402.93</ele>
        <time>2014-09-14T08:19:22Z</time>
      </trkpt>
      <trkpt lat="42.97596" lon="1.15945">
        <ele>403.41</ele>
        <time>2014-09-14T08:19:41Z</time>
      </trkpt>
      <trkpt lat="42.97558" lon="1.16061">
        <ele>403.89</ele>
        <time>2014-09-14T08:19:56Z</time>
      </trkpt>
      <trkpt lat="42.97545" lon="1.1609">
        <ele>404.37</ele>
        <time>2014-09-14T08:20:00Z</time>
      </trkpt>
      <trkpt lat="42.97532" lon="1.16109">
        <ele>404.37</ele>
        <time>2014-09-14T08:20:03Z</time>
      </trkpt>
      <trkpt lat="42.97458" lon="1.16198">
        <ele>403.41</ele>
        <time>2014-09-14T08:20:19Z</time>
      </trkpt>
      <trkpt lat="42.97411" lon="1.16252">
        <ele>402.93</ele>
        <time>2014-09-14T08:20:29Z</time>
      </trkpt>
      <trkpt lat="42.97328" lon="1.16333">
        <ele>402.45</ele>
        <time>2014-09-14T08:20:46Z</time>
      </trkpt>
      <trkpt lat="42.9724" lon="1.16409">
        <ele>402.45</ele>
        <time>2014-09-14T08:21:03Z</time>
      </trkpt>
      <trkpt lat="42.97162" lon="1.16479">
        <ele>403.41</ele>
        <time>2014-09-14T08:21:18Z</time>
      </trkpt>
      <trkpt lat="42.9708" lon="1.16567">
        <ele>404.37</ele>
        <time>2014-09-14T08:21:35Z</time>
      </trkpt>
      <trkpt lat="42.97016" lon="1.16644">
        <ele>404.37</ele>
        <time>2014-09-14T08:21:49Z</time>
      </trkpt>
      <trkpt lat="42.96929" lon="1.16744">
        <ele>405.33</ele>
        <time>2014-09-14T08:22:08Z</time>
      </trkpt>
      <trkpt lat="42.96845" lon="1.16838">
        <ele>407.26</ele>
        <time>2014-09-14T08:22:26Z</time>
      </trkpt>
      <trkpt lat="42.96772" lon="1.16916">
        <ele>408.22</ele>
        <time>2014-09-14T08:22:41Z</time>
      </trkpt>
      <trkpt lat="42.96689" lon="1.16977">
        <ele>410.62</ele>
        <time>2014-09-14T08:22:56Z</time>
      </trkpt>
      <trkpt lat="42.96599" lon="1.1704">
        <ele>411.1</ele>
        <time>2014-09-14T08:23:13Z</time>
      </trkpt>
      <trkpt lat="42.96569" lon="1.1706">
        <ele>412.06</ele>
        <time>2014-09-14T08:23:19Z</time>
      </trkpt>
      <trkpt lat="42.96554" lon="1.1707">
        <ele>412.54</ele>
        <time>2014-09-14T08:23:22Z</time>
      </trkpt>
      <trkpt lat="42.9655" lon="1.17072">
        <ele>412.54</ele>
        <time>2014-09-14T08:23:23Z</time>
      </trkpt>
      <trkpt lat="42.96545" lon="1.17072">
        <ele>412.54</ele>
        <time>2014-09-14T08:23:24Z</time>
      </trkpt>
      <trkpt lat="42.96542" lon="1.1707">
        <ele>412.54</ele>
        <time>2014-09-14T08:23:25Z</time>
      </trkpt>
      <trkpt lat="42.96539" lon="1.17068">
        <ele>413.02</ele>
        <time>2014-09-14T08:23:26Z</time>
      </trkpt>
      <trkpt lat="42.96537" lon="1.17067">
        <ele>413.02</ele>
        <time>2014-09-14T08:23:27Z</time>
      </trkpt>
      <trkpt lat="42.96534" lon="1.17066">
        <ele>413.02</ele>
        <time>2014-09-14T08:23:28Z</time>
      </trkpt>
      <trkpt lat="42.96532" lon="1.17066">
        <ele>413.02</ele>
        <time>2014-09-14T08:23:29Z</time>
      </trkpt>
      <trkpt lat="42.96525" lon="1.17065">
        <ele>411.1</ele>
        <time>2014-09-14T08:23:39Z</time>
      </trkpt>
      <trkpt lat="42.96524" lon="1.17067">
        <ele>413.5</ele>
        <time>2014-09-14T08:24:05Z</time>
      </trkpt>
      <trkpt lat="42.96528" lon="1.17067">
        <ele>416.87</ele>
        <time>2014-09-14T08:24:32Z</time>
      </trkpt>
      <trkpt lat="42.96528" lon="1.17068">
        <ele>414.95</ele>
        <time>2014-09-14T08:25:02Z</time>
      </trkpt>
      <trkpt lat="42.9653" lon="1.17067">
        <ele>412.06</ele>
        <time>2014-09-14T08:25:29Z</time>
      </trkpt>
      <trkpt lat="42.9653" lon="1.17068">
        <ele>416.87</ele>
        <time>2014-09-14T08:25:58Z</time>
      </trkpt>
      <trkpt lat="42.96523" lon="1.17064">
        <ele>425.04</ele>
        <time>2014-09-14T08:26:35Z</time>
      </trkpt>
      <trkpt lat="42.96527" lon="1.17062">
        <ele>428.89</ele>
        <time>2014-09-14T08:27:05Z</time>
      </trkpt>
      <trkpt lat="42.96526" lon="1.17065">
        <ele>437.06</ele>
        <time>2014-09-14T08:27:46Z</time>
      </trkpt>
      <trkpt lat="42.96533" lon="1.17065">
        <ele>438.02</ele>
        <time>2014-09-14T08:28:19Z</time>
      </trkpt>
      <trkpt lat="42.96523" lon="1.17059">
        <ele>431.77</ele>
        <time>2014-09-14T08:28:49Z</time>
      </trkpt>
      <trkpt lat="42.96521" lon="1.17059">
        <ele>432.25</ele>
        <time>2014-09-14T08:29:16Z</time>
      </trkpt>
      <trkpt lat="42.96528" lon="1.1706">
        <ele>430.81</ele>
        <time>2014-09-14T08:29:53Z</time>
      </trkpt>
      <trkpt lat="42.96522" lon="1.17059">
        <ele>429.37</ele>
        <time>2014-09-14T08:30:20Z</time>
      </trkpt>
      <trkpt lat="42.96526" lon="1.17062">
        <ele>426.48</ele>
        <time>2014-09-14T08:30:49Z</time>
      </trkpt>
      <trkpt lat="42.96527" lon="1.17065">
        <ele>426.96</ele>
        <time>2014-09-14T08:31:12Z</time>
      </trkpt>
      <trkpt lat="42.96534" lon="1.17065">
        <ele>431.77</ele>
        <time>2014-09-14T08:31:50Z</time>
      </trkpt>
      <trkpt lat="42.96531" lon="1.17065">
        <ele>423.6</ele>
        <time>2014-09-14T08:32:20Z</time>
      </trkpt>
      <trkpt lat="42.96522" lon="1.17064">
        <ele>421.68</ele>
        <time>2014-09-14T08:32:53Z</time>
      </trkpt>
      <trkpt lat="42.96521" lon="1.17065">
        <ele>420.23</ele>
        <time>2014-09-14T08:33:26Z</time>
      </trkpt>
      <trkpt lat="42.96522" lon="1.17064">
        <ele>417.83</ele>
        <time>2014-09-14T08:33:56Z</time>
      </trkpt>
      <trkpt lat="42.96522" lon="1.1706">
        <ele>417.83</ele>
        <time>2014-09-14T08:34:22Z</time>
      </trkpt>
      <trkpt lat="42.9652" lon="1.17059">
        <ele>418.79</ele>
        <time>2014-09-14T08:35:01Z</time>
      </trkpt>
      <trkpt lat="42.9652" lon="1.17056">
        <ele>423.12</ele>
        <time>2014-09-14T08:35:35Z</time>
      </trkpt>
      <trkpt lat="42.96523" lon="1.17057">
        <ele>420.71</ele>
        <time>2014-09-14T08:36:07Z</time>
      </trkpt>
      <trkpt lat="42.96518" lon="1.17055">
        <ele>426</ele>
        <time>2014-09-14T08:36:45Z</time>
      </trkpt>
      <trkpt lat="42.96518" lon="1.17055">
        <ele>422.16</ele>
        <time>2014-09-14T08:37:15Z</time>
      </trkpt>
      <trkpt lat="42.96521" lon="1.1706">
        <ele>420.71</ele>
        <time>2014-09-14T08:37:47Z</time>
      </trkpt>
      <trkpt lat="42.96524" lon="1.17065">
        <ele>417.83</ele>
        <time>2014-09-14T08:38:21Z</time>
      </trkpt>
      <trkpt lat="42.96522" lon="1.17061">
        <ele>415.43</ele>
        <time>2014-09-14T08:38:52Z</time>
      </trkpt>
      <trkpt lat="42.96523" lon="1.17059">
        <ele>411.1</ele>
        <time>2014-09-14T08:39:22Z</time>
      </trkpt>
      <trkpt lat="42.96524" lon="1.17061">
        <ele>411.1</ele>
        <time>2014-09-14T08:39:55Z</time>
      </trkpt>
      <trkpt lat="42.96526" lon="1.17056">
        <ele>405.33</ele>
        <time>2014-09-14T08:40:31Z</time>
      </trkpt>
      <trkpt lat="42.96526" lon="1.1706">
        <ele>410.14</ele>
        <time>2014-09-14T08:40:50Z</time>
      </trkpt>
      <trkpt lat="42.9653" lon="1.17061">
        <ele>410.14</ele>
        <time>2014-09-14T08:41:05Z</time>
      </trkpt>
      <trkpt lat="42.9654" lon="1.17073">
        <ele>410.14</ele>
        <time>2014-09-14T08:41:12Z</time>
      </trkpt>
      <trkpt lat="42.9654" lon="1.17076">
        <ele>410.14</ele>
        <time>2014-09-14T08:41:13Z</time>
      </trkpt>
      <trkpt lat="42.96535" lon="1.17084">
        <ele>410.14</ele>
        <time>2014-09-14T08:41:16Z</time>
      </trkpt>
      <trkpt lat="42.96471" lon="1.17135">
        <ele>411.58</ele>
        <time>2014-09-14T08:41:32Z</time>
      </trkpt>
      <trkpt lat="42.96416" lon="1.17197">
        <ele>412.54</ele>
        <time>2014-09-14T08:41:45Z</time>
      </trkpt>
      <trkpt lat="42.96344" lon="1.17295">
        <ele>413.02</ele>
        <time>2014-09-14T08:42:03Z</time>
      </trkpt>
      <trkpt lat="42.96272" lon="1.17393">
        <ele>415.91</ele>
        <time>2014-09-14T08:42:21Z</time>
      </trkpt>
      <trkpt lat="42.96194" lon="1.17468">
        <ele>417.83</ele>
        <time>2014-09-14T08:42:38Z</time>
      </trkpt>
      <trkpt lat="42.96099" lon="1.17519">
        <ele>418.31</ele>
        <time>2014-09-14T08:42:55Z</time>
      </trkpt>
      <trkpt lat="42.96006" lon="1.17537">
        <ele>420.23</ele>
        <time>2014-09-14T08:43:11Z</time>
      </trkpt>
      <trkpt lat="42.95892" lon="1.17578">
        <ele>421.68</ele>
        <time>2014-09-14T08:43:30Z</time>
      </trkpt>
      <trkpt lat="42.95791" lon="1.17615">
        <ele>423.6</ele>
        <time>2014-09-14T08:43:47Z</time>
      </trkpt>
      <trkpt lat="42.95703" lon="1.17659">
        <ele>424.08</ele>
        <time>2014-09-14T08:44:04Z</time>
      </trkpt>
      <trkpt lat="42.95612" lon="1.17698">
        <ele>423.6</ele>
        <time>2014-09-14T08:44:19Z</time>
      </trkpt>
      <trkpt lat="42.9551" lon="1.17712">
        <ele>423.6</ele>
        <time>2014-09-14T08:44:35Z</time>
      </trkpt>
      <trkpt lat="42.95413" lon="1.17711">
        <ele>423.12</ele>
        <time>2014-09-14T08:44:50Z</time>
      </trkpt>
      <trkpt lat="42.95321" lon="1.17693">
        <ele>421.19</ele>
        <time>2014-09-14T08:45:04Z</time>
      </trkpt>
      <trkpt lat="42.95216" lon="1.17695">
        <ele>419.75</ele>
        <time>2014-09-14T08:45:20Z</time>
      </trkpt>
      <trkpt lat="42.95184" lon="1.17693">
        <ele>419.27</ele>
        <time>2014-09-14T08:45:25Z</time>
      </trkpt>
      <trkpt lat="42.95177" lon="1.17691">
        <ele>419.27</ele>
        <time>2014-09-14T08:45:26Z</time>
      </trkpt>
      <trkpt lat="42.95171" lon="1.17687">
        <ele>419.27</ele>
        <time>2014-09-14T08:45:27Z</time>
      </trkpt>
      <trkpt lat="42.95166" lon="1.17682">
        <ele>419.27</ele>
        <time>2014-09-14T08:45:28Z</time>
      </trkpt>
      <trkpt lat="42.95161" lon="1.17677">
        <ele>419.27</ele>
        <time>2014-09-14T08:45:29Z</time>
      </trkpt>
      <trkpt lat="42.95155" lon="1.17672">
        <ele>419.27</ele>
        <time>2014-09-14T08:45:30Z</time>
      </trkpt>
      <trkpt lat="42.95072" lon="1.17555">
        <ele>420.71</ele>
        <time>2014-09-14T08:45:48Z</time>
      </trkpt>
      <trkpt lat="42.95028" lon="1.17509">
        <ele>421.68</ele>
        <time>2014-09-14T08:45:57Z</time>
      </trkpt>
      <trkpt lat="42.95023" lon="1.17506">
        <ele>421.68</ele>
        <time>2014-09-14T08:45:58Z</time>
      </trkpt>
      <trkpt lat="42.94935" lon="1.17486">
        <ele>421.68</ele>
        <time>2014-09-14T08:46:13Z</time>
      </trkpt>
      <trkpt lat="42.94872" lon="1.17439">
        <ele>423.12</ele>
        <time>2014-09-14T08:46:27Z</time>
      </trkpt>
      <trkpt lat="42.94779" lon="1.17367">
        <ele>425.04</ele>
        <time>2014-09-14T08:46:46Z</time>
      </trkpt>
      <trkpt lat="42.94687" lon="1.17328">
        <ele>425.52</ele>
        <time>2014-09-14T08:47:02Z</time>
      </trkpt>
      <trkpt lat="42.94568" lon="1.17319">
        <ele>425.52</ele>
        <time>2014-09-14T08:47:22Z</time>
      </trkpt>
      <trkpt lat="42.94479" lon="1.17337">
        <ele>426</ele>
        <time>2014-09-14T08:47:37Z</time>
      </trkpt>
      <trkpt lat="42.9441" lon="1.17391">
        <ele>426.48</ele>
        <time>2014-09-14T08:47:51Z</time>
      </trkpt>
      <trkpt lat="42.94341" lon="1.17489">
        <ele>426</ele>
        <time>2014-09-14T08:48:09Z</time>
      </trkpt>
      <trkpt lat="42.94326" lon="1.17509">
        <ele>426.48</ele>
        <time>2014-09-14T08:48:13Z</time>
      </trkpt>
      <trkpt lat="42.94322" lon="1.17512">
        <ele>426.48</ele>
        <time>2014-09-14T08:48:14Z</time>
      </trkpt>
      <trkpt lat="42.94318" lon="1.17513">
        <ele>426.48</ele>
        <time>2014-09-14T08:48:15Z</time>
      </trkpt>
      <trkpt lat="42.94313" lon="1.1751">
        <ele>426.48</ele>
        <time>2014-09-14T08:48:16Z</time>
      </trkpt>
      <trkpt lat="42.9431" lon="1.17506">
        <ele>426.48</ele>
        <time>2014-09-14T08:48:17Z</time>
      </trkpt>
      <trkpt lat="42.94307" lon="1.175">
        <ele>426.48</ele>
        <time>2014-09-14T08:48:18Z</time>
      </trkpt>
      <trkpt lat="42.94304" lon="1.17494">
        <ele>426.48</ele>
        <time>2014-09-14T08:48:19Z</time>
      </trkpt>
      <trkpt lat="42.94288" lon="1.17468">
        <ele>426.48</ele>
        <time>2014-09-14T08:48:24Z</time>
      </trkpt>
      <trkpt lat="42.94284" lon="1.17465">
        <ele>426.48</ele>
        <time>2014-09-14T08:48:25Z</time>
      </trkpt>
      <trkpt lat="42.94281" lon="1.17463">
        <ele>426.48</ele>
        <time>2014-09-14T08:48:26Z</time>
      </trkpt>
      <trkpt lat="42.94278" lon="1.17462">
        <ele>426.48</ele>
        <time>2014-09-14T08:48:27Z</time>
      </trkpt>
      <trkpt lat="42.94275" lon="1.17461">
        <ele>426.48</ele>
        <time>2014-09-14T08:48:28Z</time>
      </trkpt>
      <trkpt lat="42.94273" lon="1.17461">
        <ele>426.48</ele>
        <time>2014-09-14T08:48:29Z</time>
      </trkpt>
      <trkpt lat="42.94261" lon="1.17461">
        <ele>426.48</ele>
        <time>2014-09-14T08:48:39Z</time>
      </trkpt>
      <trkpt lat="42.94257" lon="1.17464">
        <ele>426.48</ele>
        <time>2014-09-14T08:48:45Z</time>
      </trkpt>
      <trkpt lat="42.94256" lon="1.17467">
        <ele>426.48</ele>
        <time>2014-09-14T08:48:46Z</time>
      </trkpt>
      <trkpt lat="42.94255" lon="1.1747">
        <ele>426.48</ele>
        <time>2014-09-14T08:48:47Z</time>
      </trkpt>
      <trkpt lat="42.94253" lon="1.17474">
        <ele>426.48</ele>
        <time>2014-09-14T08:48:48Z</time>
      </trkpt>
      <trkpt lat="42.94252" lon="1.17478">
        <ele>426.48</ele>
        <time>2014-09-14T08:48:49Z</time>
      </trkpt>
      <trkpt lat="42.9425" lon="1.17481">
        <ele>426.48</ele>
        <time>2014-09-14T08:48:50Z</time>
      </trkpt>
      <trkpt lat="42.94247" lon="1.17484">
        <ele>426.48</ele>
        <time>2014-09-14T08:48:51Z</time>
      </trkpt>
      <trkpt lat="42.94244" lon="1.17486">
        <ele>426.48</ele>
        <time>2014-09-14T08:48:52Z</time>
      </trkpt>
      <trkpt lat="42.94223" lon="1.17495">
        <ele>426.48</ele>
        <time>2014-09-14T08:49:02Z</time>
      </trkpt>
      <trkpt lat="42.94221" lon="1.17496">
        <ele>426.48</ele>
        <time>2014-09-14T08:49:03Z</time>
      </trkpt>
      <trkpt lat="42.9422" lon="1.17498">
        <ele>426.48</ele>
        <time>2014-09-14T08:49:04Z</time>
      </trkpt>
      <trkpt lat="42.94195" lon="1.17551">
        <ele>426</ele>
        <time>2014-09-14T08:49:19Z</time>
      </trkpt>
      <trkpt lat="42.94155" lon="1.17624">
        <ele>426</ele>
        <time>2014-09-14T08:49:35Z</time>
      </trkpt>
      <trkpt lat="42.94146" lon="1.17639">
        <ele>426</ele>
        <time>2014-09-14T08:49:38Z</time>
      </trkpt>
      <trkpt lat="42.94142" lon="1.17643">
        <ele>426</ele>
        <time>2014-09-14T08:49:39Z</time>
      </trkpt>
      <trkpt lat="42.94109" lon="1.17671">
        <ele>426</ele>
        <time>2014-09-14T08:49:46Z</time>
      </trkpt>
      <trkpt lat="42.94096" lon="1.17674">
        <ele>426</ele>
        <time>2014-09-14T08:49:47Z</time>
      </trkpt>
      <trkpt lat="42.94086" lon="1.17675">
        <ele>425.52</ele>
        <time>2014-09-14T08:49:48Z</time>
      </trkpt>
      <trkpt lat="42.94077" lon="1.17677">
        <ele>425.52</ele>
        <time>2014-09-14T08:49:49Z</time>
      </trkpt>
      <trkpt lat="42.94068" lon="1.17677">
        <ele>425.52</ele>
        <time>2014-09-14T08:49:50Z</time>
      </trkpt>
      <trkpt lat="42.94061" lon="1.17678">
        <ele>425.52</ele>
        <time>2014-09-14T08:49:51Z</time>
      </trkpt>
      <trkpt lat="42.94053" lon="1.17677">
        <ele>425.52</ele>
        <time>2014-09-14T08:49:52Z</time>
      </trkpt>
      <trkpt lat="42.94048" lon="1.17676">
        <ele>425.52</ele>
        <time>2014-09-14T08:49:53Z</time>
      </trkpt>
      <trkpt lat="42.94042" lon="1.17674">
        <ele>425.52</ele>
        <time>2014-09-14T08:49:54Z</time>
      </trkpt>
      <trkpt lat="42.94036" lon="1.17671">
        <ele>425.52</ele>
        <time>2014-09-14T08:49:55Z</time>
      </trkpt>
      <trkpt lat="42.9403" lon="1.17667">
        <ele>425.52</ele>
        <time>2014-09-14T08:49:56Z</time>
      </trkpt>
      <trkpt lat="42.94025" lon="1.17664">
        <ele>425.52</ele>
        <time>2014-09-14T08:49:57Z</time>
      </trkpt>
      <trkpt lat="42.93953" lon="1.17602">
        <ele>425.04</ele>
        <time>2014-09-14T08:50:11Z</time>
      </trkpt>
      <trkpt lat="42.93886" lon="1.17554">
        <ele>426</ele>
        <time>2014-09-14T08:50:23Z</time>
      </trkpt>
      <trkpt lat="42.9388" lon="1.17552">
        <ele>426</ele>
        <time>2014-09-14T08:50:24Z</time>
      </trkpt>
      <trkpt lat="42.93868" lon="1.1755">
        <ele>426</ele>
        <time>2014-09-14T08:50:26Z</time>
      </trkpt>
      <trkpt lat="42.93851" lon="1.17551">
        <ele>426</ele>
        <time>2014-09-14T08:50:29Z</time>
      </trkpt>
      <trkpt lat="42.93845" lon="1.17553">
        <ele>426</ele>
        <time>2014-09-14T08:50:30Z</time>
      </trkpt>
      <trkpt lat="42.93839" lon="1.17556">
        <ele>426</ele>
        <time>2014-09-14T08:50:31Z</time>
      </trkpt>
      <trkpt lat="42.93807" lon="1.1758">
        <ele>426.96</ele>
        <time>2014-09-14T08:50:37Z</time>
      </trkpt>
      <trkpt lat="42.93803" lon="1.17586">
        <ele>426.96</ele>
        <time>2014-09-14T08:50:38Z</time>
      </trkpt>
      <trkpt lat="42.938" lon="1.17591">
        <ele>426.96</ele>
        <time>2014-09-14T08:50:39Z</time>
      </trkpt>
      <trkpt lat="42.93784" lon="1.17622">
        <ele>427.92</ele>
        <time>2014-09-14T08:50:45Z</time>
      </trkpt>
      <trkpt lat="42.9377" lon="1.17638">
        <ele>428.4</ele>
        <time>2014-09-14T08:50:49Z</time>
      </trkpt>
      <trkpt lat="42.93721" lon="1.17669">
        <ele>428.89</ele>
        <time>2014-09-14T08:51:02Z</time>
      </trkpt>
      <trkpt lat="42.93676" lon="1.17689">
        <ele>428.4</ele>
        <time>2014-09-14T08:51:11Z</time>
      </trkpt>
      <trkpt lat="42.93647" lon="1.17696">
        <ele>428.4</ele>
        <time>2014-09-14T08:51:14Z</time>
      </trkpt>
      <trkpt lat="42.93581" lon="1.17697">
        <ele>427.44</ele>
        <time>2014-09-14T08:51:30Z</time>
      </trkpt>
      <trkpt lat="42.93542" lon="1.17683">
        <ele>424.56</ele>
        <time>2014-09-14T08:51:43Z</time>
      </trkpt>
      <trkpt lat="42.93493" lon="1.17679">
        <ele>424.56</ele>
        <time>2014-09-14T08:51:55Z</time>
      </trkpt>
      <trkpt lat="42.93445" lon="1.17678">
        <ele>425.04</ele>
        <time>2014-09-14T08:52:08Z</time>
      </trkpt>
      <trkpt lat="42.934" lon="1.17676">
        <ele>423.6</ele>
        <time>2014-09-14T08:52:20Z</time>
      </trkpt>
      <trkpt lat="42.93343" lon="1.1768">
        <ele>434.65</ele>
        <time>2014-09-14T08:52:34Z</time>
      </trkpt>
      <trkpt lat="42.93293" lon="1.1769">
        <ele>446.67</ele>
        <time>2014-09-14T08:52:48Z</time>
      </trkpt>
      <trkpt lat="42.93249" lon="1.17704">
        <ele>451.48</ele>
        <time>2014-09-14T08:53:04Z</time>
      </trkpt>
      <trkpt lat="42.93242" lon="1.17742">
        <ele>451.96</ele>
        <time>2014-09-14T08:53:19Z</time>
      </trkpt>
      <trkpt lat="42.93219" lon="1.17783">
        <ele>451.96</ele>
        <time>2014-09-14T08:53:35Z</time>
      </trkpt>
      <trkpt lat="42.93161" lon="1.17824">
        <ele>451.96</ele>
        <time>2014-09-14T08:53:49Z</time>
      </trkpt>
      <trkpt lat="42.93078" lon="1.17818">
        <ele>452.44</ele>
        <time>2014-09-14T08:54:00Z</time>
      </trkpt>
      <trkpt lat="42.93036" lon="1.17803">
        <ele>454.84</ele>
        <time>2014-09-14T08:54:14Z</time>
      </trkpt>
      <trkpt lat="42.92998" lon="1.17784">
        <ele>456.76</ele>
        <time>2014-09-14T08:54:27Z</time>
      </trkpt>
      <trkpt lat="42.92962" lon="1.17757">
        <ele>458.69</ele>
        <time>2014-09-14T08:54:42Z</time>
      </trkpt>
      <trkpt lat="42.92911" lon="1.1772">
        <ele>463.97</ele>
        <time>2014-09-14T08:54:58Z</time>
      </trkpt>
      <trkpt lat="42.92877" lon="1.17695">
        <ele>466.86</ele>
        <time>2014-09-14T08:55:12Z</time>
      </trkpt>
      <trkpt lat="42.92841" lon="1.17671">
        <ele>473.11</ele>
        <time>2014-09-14T08:55:24Z</time>
      </trkpt>
      <trkpt lat="42.92829" lon="1.17663">
        <ele>476.47</ele>
        <time>2014-09-14T08:55:29Z</time>
      </trkpt>
      <trkpt lat="42.92826" lon="1.17662">
        <ele>476.95</ele>
        <time>2014-09-14T08:55:30Z</time>
      </trkpt>
      <trkpt lat="42.92823" lon="1.17661">
        <ele>477.43</ele>
        <time>2014-09-14T08:55:31Z</time>
      </trkpt>
      <trkpt lat="42.92821" lon="1.17659">
        <ele>477.91</ele>
        <time>2014-09-14T08:55:32Z</time>
      </trkpt>
      <trkpt lat="42.92818" lon="1.17657">
        <ele>478.39</ele>
        <time>2014-09-14T08:55:33Z</time>
      </trkpt>
      <trkpt lat="42.92777" lon="1.17627">
        <ele>482.24</ele>
        <time>2014-09-14T08:55:48Z</time>
      </trkpt>
      <trkpt lat="42.92744" lon="1.17625">
        <ele>484.16</ele>
        <time>2014-09-14T08:55:56Z</time>
      </trkpt>
      <trkpt lat="42.9274" lon="1.17624">
        <ele>484.16</ele>
        <time>2014-09-14T08:55:57Z</time>
      </trkpt>
      <trkpt lat="42.92727" lon="1.17624">
        <ele>488.49</ele>
        <time>2014-09-14T08:55:58Z</time>
      </trkpt>
      <trkpt lat="42.92673" lon="1.17628">
        <ele>494.26</ele>
        <time>2014-09-14T08:56:11Z</time>
      </trkpt>
      <trkpt lat="42.92624" lon="1.17648">
        <ele>497.14</ele>
        <time>2014-09-14T08:56:26Z</time>
      </trkpt>
      <trkpt lat="42.92578" lon="1.17664">
        <ele>501.46</ele>
        <time>2014-09-14T08:56:40Z</time>
      </trkpt>
      <trkpt lat="42.92567" lon="1.17652">
        <ele>501.46</ele>
        <time>2014-09-14T08:56:44Z</time>
      </trkpt>
      <trkpt lat="42.92566" lon="1.17647">
        <ele>501.46</ele>
        <time>2014-09-14T08:56:45Z</time>
      </trkpt>
      <trkpt lat="42.92564" lon="1.17641">
        <ele>501.46</ele>
        <time>2014-09-14T08:56:46Z</time>
      </trkpt>
      <trkpt lat="42.92563" lon="1.17636">
        <ele>501.46</ele>
        <time>2014-09-14T08:56:47Z</time>
      </trkpt>
      <trkpt lat="42.92563" lon="1.1763">
        <ele>501.46</ele>
        <time>2014-09-14T08:56:48Z</time>
      </trkpt>
      <trkpt lat="42.92543" lon="1.17574">
        <ele>500.98</ele>
        <time>2014-09-14T08:57:01Z</time>
      </trkpt>
      <trkpt lat="42.92493" lon="1.1755">
        <ele>499.54</ele>
        <time>2014-09-14T08:57:15Z</time>
      </trkpt>
      <trkpt lat="42.92479" lon="1.17549">
        <ele>501.95</ele>
        <time>2014-09-14T08:57:18Z</time>
      </trkpt>
      <trkpt lat="42.92474" lon="1.1755">
        <ele>502.43</ele>
        <time>2014-09-14T08:57:19Z</time>
      </trkpt>
      <trkpt lat="42.92469" lon="1.17551">
        <ele>502.91</ele>
        <time>2014-09-14T08:57:20Z</time>
      </trkpt>
      <trkpt lat="42.92465" lon="1.17553">
        <ele>503.39</ele>
        <time>2014-09-14T08:57:21Z</time>
      </trkpt>
      <trkpt lat="42.92461" lon="1.17555">
        <ele>503.39</ele>
        <time>2014-09-14T08:57:22Z</time>
      </trkpt>
      <trkpt lat="42.92456" lon="1.17557">
        <ele>503.87</ele>
        <time>2014-09-14T08:57:23Z</time>
      </trkpt>
      <trkpt lat="42.92452" lon="1.17558">
        <ele>503.87</ele>
        <time>2014-09-14T08:57:24Z</time>
      </trkpt>
      <trkpt lat="42.92448" lon="1.17558">
        <ele>504.35</ele>
        <time>2014-09-14T08:57:25Z</time>
      </trkpt>
      <trkpt lat="42.92443" lon="1.17557">
        <ele>504.35</ele>
        <time>2014-09-14T08:57:26Z</time>
      </trkpt>
      <trkpt lat="42.92439" lon="1.17555">
        <ele>504.35</ele>
        <time>2014-09-14T08:57:27Z</time>
      </trkpt>
      <trkpt lat="42.92435" lon="1.17553">
        <ele>504.35</ele>
        <time>2014-09-14T08:57:28Z</time>
      </trkpt>
      <trkpt lat="42.92431" lon="1.17551">
        <ele>504.35</ele>
        <time>2014-09-14T08:57:29Z</time>
      </trkpt>
      <trkpt lat="42.92427" lon="1.17547">
        <ele>504.35</ele>
        <time>2014-09-14T08:57:30Z</time>
      </trkpt>
      <trkpt lat="42.92424" lon="1.17544">
        <ele>504.83</ele>
        <time>2014-09-14T08:57:31Z</time>
      </trkpt>
      <trkpt lat="42.9242" lon="1.1754">
        <ele>504.83</ele>
        <time>2014-09-14T08:57:32Z</time>
      </trkpt>
      <trkpt lat="42.92417" lon="1.17536">
        <ele>504.83</ele>
        <time>2014-09-14T08:57:33Z</time>
      </trkpt>
      <trkpt lat="42.92414" lon="1.17531">
        <ele>504.83</ele>
        <time>2014-09-14T08:57:34Z</time>
      </trkpt>
      <trkpt lat="42.92412" lon="1.17525">
        <ele>504.83</ele>
        <time>2014-09-14T08:57:35Z</time>
      </trkpt>
      <trkpt lat="42.9241" lon="1.17521">
        <ele>504.83</ele>
        <time>2014-09-14T08:57:36Z</time>
      </trkpt>
      <trkpt lat="42.92408" lon="1.17514">
        <ele>504.83</ele>
        <time>2014-09-14T08:57:37Z</time>
      </trkpt>
      <trkpt lat="42.92407" lon="1.17509">
        <ele>504.83</ele>
        <time>2014-09-14T08:57:38Z</time>
      </trkpt>
      <trkpt lat="42.92392" lon="1.17433">
        <ele>503.87</ele>
        <time>2014-09-14T08:57:52Z</time>
      </trkpt>
      <trkpt lat="42.92379" lon="1.17404">
        <ele>503.87</ele>
        <time>2014-09-14T08:57:58Z</time>
      </trkpt>
      <trkpt lat="42.92339" lon="1.17369">
        <ele>503.39</ele>
        <time>2014-09-14T08:58:10Z</time>
      </trkpt>
      <trkpt lat="42.92322" lon="1.17359">
        <ele>502.91</ele>
        <time>2014-09-14T08:58:14Z</time>
      </trkpt>
      <trkpt lat="42.92261" lon="1.1732">
        <ele>510.12</ele>
        <time>2014-09-14T08:58:28Z</time>
      </trkpt>
      <trkpt lat="42.92258" lon="1.17316">
        <ele>510.6</ele>
        <time>2014-09-14T08:58:29Z</time>
      </trkpt>
      <trkpt lat="42.9223" lon="1.17274">
        <ele>512.52</ele>
        <time>2014-09-14T08:58:38Z</time>
      </trkpt>
      <trkpt lat="42.92202" lon="1.17247">
        <ele>512.52</ele>
        <time>2014-09-14T08:58:46Z</time>
      </trkpt>
      <trkpt lat="42.92199" lon="1.17244">
        <ele>512.52</ele>
        <time>2014-09-14T08:58:47Z</time>
      </trkpt>
      <trkpt lat="42.92196" lon="1.17239">
        <ele>512.52</ele>
        <time>2014-09-14T08:58:48Z</time>
      </trkpt>
      <trkpt lat="42.92193" lon="1.17234">
        <ele>512.04</ele>
        <time>2014-09-14T08:58:49Z</time>
      </trkpt>
      <trkpt lat="42.92191" lon="1.17228">
        <ele>512.04</ele>
        <time>2014-09-14T08:58:50Z</time>
      </trkpt>
      <trkpt lat="42.92189" lon="1.17222">
        <ele>511.56</ele>
        <time>2014-09-14T08:58:51Z</time>
      </trkpt>
      <trkpt lat="42.92187" lon="1.17216">
        <ele>511.56</ele>
        <time>2014-09-14T08:58:52Z</time>
      </trkpt>
      <trkpt lat="42.92174" lon="1.17181">
        <ele>511.08</ele>
        <time>2014-09-14T08:58:58Z</time>
      </trkpt>
      <trkpt lat="42.92171" lon="1.17176">
        <ele>511.08</ele>
        <time>2014-09-14T08:58:59Z</time>
      </trkpt>
      <trkpt lat="42.92168" lon="1.1717">
        <ele>511.08</ele>
        <time>2014-09-14T08:59:00Z</time>
      </trkpt>
      <trkpt lat="42.92125" lon="1.1711">
        <ele>509.64</ele>
        <time>2014-09-14T08:59:13Z</time>
      </trkpt>
      <trkpt lat="42.92104" lon="1.17088">
        <ele>508.19</ele>
        <time>2014-09-14T08:59:19Z</time>
      </trkpt>
      <trkpt lat="42.92101" lon="1.17085">
        <ele>507.71</ele>
        <time>2014-09-14T08:59:20Z</time>
      </trkpt>
      <trkpt lat="42.92098" lon="1.17081">
        <ele>507.23</ele>
        <time>2014-09-14T08:59:21Z</time>
      </trkpt>
      <trkpt lat="42.92095" lon="1.17076">
        <ele>506.75</ele>
        <time>2014-09-14T08:59:22Z</time>
      </trkpt>
      <trkpt lat="42.92092" lon="1.17071">
        <ele>506.75</ele>
        <time>2014-09-14T08:59:23Z</time>
      </trkpt>
      <trkpt lat="42.92087" lon="1.1706">
        <ele>506.75</ele>
        <time>2014-09-14T08:59:25Z</time>
      </trkpt>
      <trkpt lat="42.92083" lon="1.17033">
        <ele>506.75</ele>
        <time>2014-09-14T08:59:30Z</time>
      </trkpt>
      <trkpt lat="42.92085" lon="1.17028">
        <ele>506.75</ele>
        <time>2014-09-14T08:59:31Z</time>
      </trkpt>
      <trkpt lat="42.92088" lon="1.17024">
        <ele>506.75</ele>
        <time>2014-09-14T08:59:32Z</time>
      </trkpt>
      <trkpt lat="42.92091" lon="1.1702">
        <ele>506.75</ele>
        <time>2014-09-14T08:59:33Z</time>
      </trkpt>
      <trkpt lat="42.92094" lon="1.17016">
        <ele>507.23</ele>
        <time>2014-09-14T08:59:34Z</time>
      </trkpt>
      <trkpt lat="42.92096" lon="1.17012">
        <ele>507.23</ele>
        <time>2014-09-14T08:59:35Z</time>
      </trkpt>
      <trkpt lat="42.92117" lon="1.16978">
        <ele>506.75</ele>
        <time>2014-09-14T08:59:43Z</time>
      </trkpt>
      <trkpt lat="42.92123" lon="1.16968">
        <ele>507.23</ele>
        <time>2014-09-14T08:59:45Z</time>
      </trkpt>
      <trkpt lat="42.92125" lon="1.16962">
        <ele>507.23</ele>
        <time>2014-09-14T08:59:46Z</time>
      </trkpt>
      <trkpt lat="42.92127" lon="1.16957">
        <ele>507.23</ele>
        <time>2014-09-14T08:59:47Z</time>
      </trkpt>
      <trkpt lat="42.92129" lon="1.16953">
        <ele>507.23</ele>
        <time>2014-09-14T08:59:48Z</time>
      </trkpt>
      <trkpt lat="42.92132" lon="1.16949">
        <ele>507.23</ele>
        <time>2014-09-14T08:59:49Z</time>
      </trkpt>
      <trkpt lat="42.92135" lon="1.16945">
        <ele>507.23</ele>
        <time>2014-09-14T08:59:50Z</time>
      </trkpt>
      <trkpt lat="42.92139" lon="1.16942">
        <ele>507.23</ele>
        <time>2014-09-14T08:59:51Z</time>
      </trkpt>
      <trkpt lat="42.92142" lon="1.16939">
        <ele>507.23</ele>
        <time>2014-09-14T08:59:52Z</time>
      </trkpt>
      <trkpt lat="42.92158" lon="1.16926">
        <ele>507.23</ele>
        <time>2014-09-14T08:59:56Z</time>
      </trkpt>
      <trkpt lat="42.92161" lon="1.16923">
        <ele>507.71</ele>
        <time>2014-09-14T08:59:57Z</time>
      </trkpt>
      <trkpt lat="42.92164" lon="1.16919">
        <ele>507.71</ele>
        <time>2014-09-14T08:59:58Z</time>
      </trkpt>
      <trkpt lat="42.92167" lon="1.16915">
        <ele>507.71</ele>
        <time>2014-09-14T08:59:59Z</time>
      </trkpt>
      <trkpt lat="42.92171" lon="1.16912">
        <ele>507.71</ele>
        <time>2014-09-14T09:00:00Z</time>
      </trkpt>
      <trkpt lat="42.92185" lon="1.1687">
        <ele>507.71</ele>
        <time>2014-09-14T09:00:10Z</time>
      </trkpt>
      <trkpt lat="42.92154" lon="1.16795">
        <ele>512.52</ele>
        <time>2014-09-14T09:00:25Z</time>
      </trkpt>
      <trkpt lat="42.92109" lon="1.1672">
        <ele>520.69</ele>
        <time>2014-09-14T09:00:41Z</time>
      </trkpt>
      <trkpt lat="42.92073" lon="1.16649">
        <ele>521.65</ele>
        <time>2014-09-14T09:00:57Z</time>
      </trkpt>
      <trkpt lat="42.92028" lon="1.16628">
        <ele>521.65</ele>
        <time>2014-09-14T09:01:10Z</time>
      </trkpt>
      <trkpt lat="42.92014" lon="1.16623">
        <ele>522.13</ele>
        <time>2014-09-14T09:01:13Z</time>
      </trkpt>
      <trkpt lat="42.9201" lon="1.16618">
        <ele>522.61</ele>
        <time>2014-09-14T09:01:14Z</time>
      </trkpt>
      <trkpt lat="42.92008" lon="1.16613">
        <ele>522.61</ele>
        <time>2014-09-14T09:01:15Z</time>
      </trkpt>
      <trkpt lat="42.92005" lon="1.16606">
        <ele>522.61</ele>
        <time>2014-09-14T09:01:16Z</time>
      </trkpt>
      <trkpt lat="42.92004" lon="1.16601">
        <ele>522.61</ele>
        <time>2014-09-14T09:01:17Z</time>
      </trkpt>
      <trkpt lat="42.92001" lon="1.16595">
        <ele>522.61</ele>
        <time>2014-09-14T09:01:18Z</time>
      </trkpt>
      <trkpt lat="42.92" lon="1.16588">
        <ele>522.61</ele>
        <time>2014-09-14T09:01:19Z</time>
      </trkpt>
      <trkpt lat="42.92" lon="1.16583">
        <ele>522.61</ele>
        <time>2014-09-14T09:01:20Z</time>
      </trkpt>
      <trkpt lat="42.92" lon="1.16569">
        <ele>523.09</ele>
        <time>2014-09-14T09:01:22Z</time>
      </trkpt>
      <trkpt lat="42.91999" lon="1.16563">
        <ele>523.09</ele>
        <time>2014-09-14T09:01:23Z</time>
      </trkpt>
      <trkpt lat="42.91997" lon="1.16557">
        <ele>523.09</ele>
        <time>2014-09-14T09:01:24Z</time>
      </trkpt>
      <trkpt lat="42.91996" lon="1.16551">
        <ele>523.09</ele>
        <time>2014-09-14T09:01:25Z</time>
      </trkpt>
      <trkpt lat="42.91994" lon="1.16545">
        <ele>523.09</ele>
        <time>2014-09-14T09:01:26Z</time>
      </trkpt>
      <trkpt lat="42.91992" lon="1.1654">
        <ele>523.58</ele>
        <time>2014-09-14T09:01:27Z</time>
      </trkpt>
      <trkpt lat="42.91989" lon="1.16534">
        <ele>524.06</ele>
        <time>2014-09-14T09:01:28Z</time>
      </trkpt>
      <trkpt lat="42.91986" lon="1.16528">
        <ele>524.06</ele>
        <time>2014-09-14T09:01:29Z</time>
      </trkpt>
      <trkpt lat="42.91976" lon="1.16511">
        <ele>525.02</ele>
        <time>2014-09-14T09:01:32Z</time>
      </trkpt>
      <trkpt lat="42.91974" lon="1.16506">
        <ele>525.02</ele>
        <time>2014-09-14T09:01:33Z</time>
      </trkpt>
      <trkpt lat="42.91973" lon="1.165">
        <ele>525.02</ele>
        <time>2014-09-14T09:01:34Z</time>
      </trkpt>
      <trkpt lat="42.91971" lon="1.16493">
        <ele>525.02</ele>
        <time>2014-09-14T09:01:35Z</time>
      </trkpt>
      <trkpt lat="42.91971" lon="1.16486">
        <ele>525.02</ele>
        <time>2014-09-14T09:01:36Z</time>
      </trkpt>
      <trkpt lat="42.91971" lon="1.16479">
        <ele>525.5</ele>
        <time>2014-09-14T09:01:37Z</time>
      </trkpt>
      <trkpt lat="42.91971" lon="1.16471">
        <ele>525.5</ele>
        <time>2014-09-14T09:01:38Z</time>
      </trkpt>
      <trkpt lat="42.91975" lon="1.16366">
        <ele>525.98</ele>
        <time>2014-09-14T09:01:53Z</time>
      </trkpt>
      <trkpt lat="42.91967" lon="1.16293">
        <ele>528.86</ele>
        <time>2014-09-14T09:02:04Z</time>
      </trkpt>
      <trkpt lat="42.91965" lon="1.16287">
        <ele>529.34</ele>
        <time>2014-09-14T09:02:05Z</time>
      </trkpt>
      <trkpt lat="42.91959" lon="1.16263">
        <ele>530.3</ele>
        <time>2014-09-14T09:02:09Z</time>
      </trkpt>
      <trkpt lat="42.91957" lon="1.16257">
        <ele>530.79</ele>
        <time>2014-09-14T09:02:10Z</time>
      </trkpt>
      <trkpt lat="42.91929" lon="1.16186">
        <ele>536.55</ele>
        <time>2014-09-14T09:02:23Z</time>
      </trkpt>
      <trkpt lat="42.91882" lon="1.16133">
        <ele>538.96</ele>
        <time>2014-09-14T09:02:37Z</time>
      </trkpt>
      <trkpt lat="42.91868" lon="1.16119">
        <ele>538.96</ele>
        <time>2014-09-14T09:02:41Z</time>
      </trkpt>
      <trkpt lat="42.91833" lon="1.16053">
        <ele>537.99</ele>
        <time>2014-09-14T09:02:53Z</time>
      </trkpt>
      <trkpt lat="42.91829" lon="1.16048">
        <ele>537.99</ele>
        <time>2014-09-14T09:02:54Z</time>
      </trkpt>
      <trkpt lat="42.91825" lon="1.16044">
        <ele>537.99</ele>
        <time>2014-09-14T09:02:55Z</time>
      </trkpt>
      <trkpt lat="42.9182" lon="1.16041">
        <ele>537.99</ele>
        <time>2014-09-14T09:02:56Z</time>
      </trkpt>
      <trkpt lat="42.91815" lon="1.16037">
        <ele>537.99</ele>
        <time>2014-09-14T09:02:57Z</time>
      </trkpt>
      <trkpt lat="42.91792" lon="1.16017">
        <ele>537.51</ele>
        <time>2014-09-14T09:03:01Z</time>
      </trkpt>
      <trkpt lat="42.9176" lon="1.15962">
        <ele>537.51</ele>
        <time>2014-09-14T09:03:07Z</time>
      </trkpt>
      <trkpt lat="42.91732" lon="1.1584">
        <ele>537.51</ele>
        <time>2014-09-14T09:03:19Z</time>
      </trkpt>
      <trkpt lat="42.91738" lon="1.15767">
        <ele>537.51</ele>
        <time>2014-09-14T09:03:29Z</time>
      </trkpt>
      <trkpt lat="42.9174" lon="1.15686">
        <ele>538.48</ele>
        <time>2014-09-14T09:03:43Z</time>
      </trkpt>
      <trkpt lat="42.9174" lon="1.15681">
        <ele>537.99</ele>
        <time>2014-09-14T09:03:44Z</time>
      </trkpt>
      <trkpt lat="42.91739" lon="1.15676">
        <ele>537.99</ele>
        <time>2014-09-14T09:03:45Z</time>
      </trkpt>
      <trkpt lat="42.91737" lon="1.15671">
        <ele>538.48</ele>
        <time>2014-09-14T09:03:46Z</time>
      </trkpt>
      <trkpt lat="42.91735" lon="1.15667">
        <ele>538.48</ele>
        <time>2014-09-14T09:03:47Z</time>
      </trkpt>
      <trkpt lat="42.9171" lon="1.15622">
        <ele>538.48</ele>
        <time>2014-09-14T09:03:59Z</time>
      </trkpt>
      <trkpt lat="42.91688" lon="1.15549">
        <ele>541.84</ele>
        <time>2014-09-14T09:04:16Z</time>
      </trkpt>
      <trkpt lat="42.91656" lon="1.15477">
        <ele>545.2</ele>
        <time>2014-09-14T09:04:32Z</time>
      </trkpt>
      <trkpt lat="42.91617" lon="1.15417">
        <ele>550.49</ele>
        <time>2014-09-14T09:04:47Z</time>
      </trkpt>
      <trkpt lat="42.91574" lon="1.15342">
        <ele>559.14</ele>
        <time>2014-09-14T09:05:03Z</time>
      </trkpt>
      <trkpt lat="42.91543" lon="1.15275">
        <ele>560.11</ele>
        <time>2014-09-14T09:05:18Z</time>
      </trkpt>
      <trkpt lat="42.91531" lon="1.1526">
        <ele>560.59</ele>
        <time>2014-09-14T09:05:22Z</time>
      </trkpt>
      <trkpt lat="42.91496" lon="1.152">
        <ele>562.51</ele>
        <time>2014-09-14T09:05:36Z</time>
      </trkpt>
      <trkpt lat="42.91478" lon="1.15144">
        <ele>562.99</ele>
        <time>2014-09-14T09:05:50Z</time>
      </trkpt>
      <trkpt lat="42.91459" lon="1.15084">
        <ele>563.47</ele>
        <time>2014-09-14T09:06:04Z</time>
      </trkpt>
      <trkpt lat="42.91433" lon="1.1504">
        <ele>563.47</ele>
        <time>2014-09-14T09:06:13Z</time>
      </trkpt>
      <trkpt lat="42.91429" lon="1.15035">
        <ele>564.43</ele>
        <time>2014-09-14T09:06:14Z</time>
      </trkpt>
      <trkpt lat="42.91418" lon="1.15013">
        <ele>564.91</ele>
        <time>2014-09-14T09:06:18Z</time>
      </trkpt>
      <trkpt lat="42.91416" lon="1.15008">
        <ele>564.91</ele>
        <time>2014-09-14T09:06:19Z</time>
      </trkpt>
      <trkpt lat="42.91414" lon="1.15004">
        <ele>564.91</ele>
        <time>2014-09-14T09:06:20Z</time>
      </trkpt>
      <trkpt lat="42.91411" lon="1.15">
        <ele>564.91</ele>
        <time>2014-09-14T09:06:21Z</time>
      </trkpt>
      <trkpt lat="42.91408" lon="1.14996">
        <ele>564.91</ele>
        <time>2014-09-14T09:06:22Z</time>
      </trkpt>
      <trkpt lat="42.91384" lon="1.14937">
        <ele>568.28</ele>
        <time>2014-09-14T09:06:36Z</time>
      </trkpt>
      <trkpt lat="42.9138" lon="1.14882">
        <ele>573.56</ele>
        <time>2014-09-14T09:06:49Z</time>
      </trkpt>
      <trkpt lat="42.91364" lon="1.14808">
        <ele>577.89</ele>
        <time>2014-09-14T09:07:06Z</time>
      </trkpt>
      <trkpt lat="42.91337" lon="1.14748">
        <ele>578.85</ele>
        <time>2014-09-14T09:07:23Z</time>
      </trkpt>
      <trkpt lat="42.91335" lon="1.14696">
        <ele>579.33</ele>
        <time>2014-09-14T09:07:35Z</time>
      </trkpt>
      <trkpt lat="42.91318" lon="1.14643">
        <ele>578.85</ele>
        <time>2014-09-14T09:07:51Z</time>
      </trkpt>
      <trkpt lat="42.9129" lon="1.14602">
        <ele>578.85</ele>
        <time>2014-09-14T09:08:03Z</time>
      </trkpt>
      <trkpt lat="42.91241" lon="1.14536">
        <ele>578.37</ele>
        <time>2014-09-14T09:08:13Z</time>
      </trkpt>
      <trkpt lat="42.91193" lon="1.14481">
        <ele>578.37</ele>
        <time>2014-09-14T09:08:23Z</time>
      </trkpt>
      <trkpt lat="42.91188" lon="1.14471">
        <ele>578.37</ele>
        <time>2014-09-14T09:08:25Z</time>
      </trkpt>
      <trkpt lat="42.91185" lon="1.14466">
        <ele>578.37</ele>
        <time>2014-09-14T09:08:26Z</time>
      </trkpt>
      <trkpt lat="42.91158" lon="1.14414">
        <ele>579.33</ele>
        <time>2014-09-14T09:08:39Z</time>
      </trkpt>
      <trkpt lat="42.91127" lon="1.14371">
        <ele>577.41</ele>
        <time>2014-09-14T09:08:55Z</time>
      </trkpt>
      <trkpt lat="42.911" lon="1.14311">
        <ele>577.41</ele>
        <time>2014-09-14T09:09:12Z</time>
      </trkpt>
      <trkpt lat="42.91102" lon="1.14268">
        <ele>580.77</ele>
        <time>2014-09-14T09:09:25Z</time>
      </trkpt>
      <trkpt lat="42.91069" lon="1.1427">
        <ele>580.29</ele>
        <time>2014-09-14T09:09:37Z</time>
      </trkpt>
      <trkpt lat="42.91032" lon="1.14283">
        <ele>580.29</ele>
        <time>2014-09-14T09:09:52Z</time>
      </trkpt>
      <trkpt lat="42.91" lon="1.14288">
        <ele>579.81</ele>
        <time>2014-09-14T09:10:05Z</time>
      </trkpt>
      <trkpt lat="42.9098" lon="1.14259">
        <ele>579.81</ele>
        <time>2014-09-14T09:10:19Z</time>
      </trkpt>
      <trkpt lat="42.90944" lon="1.14243">
        <ele>579.81</ele>
        <time>2014-09-14T09:10:32Z</time>
      </trkpt>
      <trkpt lat="42.90876" lon="1.14223">
        <ele>579.33</ele>
        <time>2014-09-14T09:10:48Z</time>
      </trkpt>
      <trkpt lat="42.9083" lon="1.14214">
        <ele>579.33</ele>
        <time>2014-09-14T09:11:02Z</time>
      </trkpt>
      <trkpt lat="42.90782" lon="1.14211">
        <ele>579.33</ele>
        <time>2014-09-14T09:11:17Z</time>
      </trkpt>
      <trkpt lat="42.90748" lon="1.14247">
        <ele>579.33</ele>
        <time>2014-09-14T09:11:31Z</time>
      </trkpt>
      <trkpt lat="42.90727" lon="1.14288">
        <ele>579.81</ele>
        <time>2014-09-14T09:11:44Z</time>
      </trkpt>
      <trkpt lat="42.90676" lon="1.14311">
        <ele>580.29</ele>
        <time>2014-09-14T09:12:02Z</time>
      </trkpt>
      <trkpt lat="42.9064" lon="1.14305">
        <ele>580.29</ele>
        <time>2014-09-14T09:12:17Z</time>
      </trkpt>
      <trkpt lat="42.90608" lon="1.14324">
        <ele>580.29</ele>
        <time>2014-09-14T09:12:31Z</time>
      </trkpt>
      <trkpt lat="42.90574" lon="1.14331">
        <ele>580.29</ele>
        <time>2014-09-14T09:12:46Z</time>
      </trkpt>
      <trkpt lat="42.90541" lon="1.14333">
        <ele>580.77</ele>
        <time>2014-09-14T09:13:01Z</time>
      </trkpt>
      <trkpt lat="42.90517" lon="1.1432">
        <ele>580.77</ele>
        <time>2014-09-14T09:13:12Z</time>
      </trkpt>
      <trkpt lat="42.90515" lon="1.14321">
        <ele>580.77</ele>
        <time>2014-09-14T09:13:13Z</time>
      </trkpt>
      <trkpt lat="42.90513" lon="1.14323">
        <ele>580.77</ele>
        <time>2014-09-14T09:13:14Z</time>
      </trkpt>
      <trkpt lat="42.90512" lon="1.14325">
        <ele>580.77</ele>
        <time>2014-09-14T09:13:15Z</time>
      </trkpt>
      <trkpt lat="42.90511" lon="1.14327">
        <ele>580.77</ele>
        <time>2014-09-14T09:13:16Z</time>
      </trkpt>
      <trkpt lat="42.9051" lon="1.14332">
        <ele>580.77</ele>
        <time>2014-09-14T09:13:18Z</time>
      </trkpt>
      <trkpt lat="42.9051" lon="1.14334">
        <ele>580.77</ele>
        <time>2014-09-14T09:13:19Z</time>
      </trkpt>
      <trkpt lat="42.90511" lon="1.14337">
        <ele>580.77</ele>
        <time>2014-09-14T09:13:20Z</time>
      </trkpt>
      <trkpt lat="42.90512" lon="1.14339">
        <ele>580.77</ele>
        <time>2014-09-14T09:13:21Z</time>
      </trkpt>
      <trkpt lat="42.90514" lon="1.14341">
        <ele>580.77</ele>
        <time>2014-09-14T09:13:22Z</time>
      </trkpt>
      <trkpt lat="42.90516" lon="1.14343">
        <ele>581.25</ele>
        <time>2014-09-14T09:13:23Z</time>
      </trkpt>
      <trkpt lat="42.90519" lon="1.14344">
        <ele>581.25</ele>
        <time>2014-09-14T09:13:24Z</time>
      </trkpt>
      <trkpt lat="42.90552" lon="1.14377">
        <ele>605.77</ele>
        <time>2014-09-14T09:13:39Z</time>
      </trkpt>
      <trkpt lat="42.90575" lon="1.14434">
        <ele>638.45</ele>
        <time>2014-09-14T09:13:54Z</time>
      </trkpt>
      <trkpt lat="42.90608" lon="1.14468">
        <ele>638.45</ele>
        <time>2014-09-14T09:14:07Z</time>
      </trkpt>
      <trkpt lat="42.90647" lon="1.14457">
        <ele>638.93</ele>
        <time>2014-09-14T09:14:20Z</time>
      </trkpt>
      <trkpt lat="42.9069" lon="1.14443">
        <ele>638.93</ele>
        <time>2014-09-14T09:14:36Z</time>
      </trkpt>
      <trkpt lat="42.90728" lon="1.14484">
        <ele>639.41</ele>
        <time>2014-09-14T09:14:50Z</time>
      </trkpt>
      <trkpt lat="42.90766" lon="1.14506">
        <ele>639.89</ele>
        <time>2014-09-14T09:15:06Z</time>
      </trkpt>
      <trkpt lat="42.90809" lon="1.14489">
        <ele>640.38</ele>
        <time>2014-09-14T09:15:20Z</time>
      </trkpt>
      <trkpt lat="42.90822" lon="1.14483">
        <ele>640.38</ele>
        <time>2014-09-14T09:15:24Z</time>
      </trkpt>
      <trkpt lat="42.90821" lon="1.14484">
        <ele>650.47</ele>
        <time>2014-09-14T09:15:26Z</time>
      </trkpt>
      <trkpt lat="42.90824" lon="1.14493">
        <ele>656.24</ele>
        <time>2014-09-14T09:15:27Z</time>
      </trkpt>
      <trkpt lat="42.90826" lon="1.14498">
        <ele>656.24</ele>
        <time>2014-09-14T09:15:28Z</time>
      </trkpt>
      <trkpt lat="42.90827" lon="1.14502">
        <ele>656.24</ele>
        <time>2014-09-14T09:15:29Z</time>
      </trkpt>
      <trkpt lat="42.90828" lon="1.14508">
        <ele>656.24</ele>
        <time>2014-09-14T09:15:30Z</time>
      </trkpt>
      <trkpt lat="42.90828" lon="1.14511">
        <ele>656.24</ele>
        <time>2014-09-14T09:15:31Z</time>
      </trkpt>
      <trkpt lat="42.90827" lon="1.14515">
        <ele>656.24</ele>
        <time>2014-09-14T09:15:32Z</time>
      </trkpt>
      <trkpt lat="42.9081" lon="1.14577">
        <ele>688.92</ele>
        <time>2014-09-14T09:15:47Z</time>
      </trkpt>
      <trkpt lat="42.90811" lon="1.14648">
        <ele>691.81</ele>
        <time>2014-09-14T09:16:02Z</time>
      </trkpt>
      <trkpt lat="42.90816" lon="1.14733">
        <ele>694.69</ele>
        <time>2014-09-14T09:16:20Z</time>
      </trkpt>
      <trkpt lat="42.90809" lon="1.14808">
        <ele>694.21</ele>
        <time>2014-09-14T09:16:35Z</time>
      </trkpt>
      <trkpt lat="42.90808" lon="1.1482">
        <ele>694.21</ele>
        <time>2014-09-14T09:16:37Z</time>
      </trkpt>
      <trkpt lat="42.90807" lon="1.14826">
        <ele>694.21</ele>
        <time>2014-09-14T09:16:38Z</time>
      </trkpt>
      <trkpt lat="42.90808" lon="1.14845">
        <ele>694.21</ele>
        <time>2014-09-14T09:16:41Z</time>
      </trkpt>
      <trkpt lat="42.90811" lon="1.1485">
        <ele>694.21</ele>
        <time>2014-09-14T09:16:42Z</time>
      </trkpt>
      <trkpt lat="42.90813" lon="1.14852">
        <ele>694.21</ele>
        <time>2014-09-14T09:16:43Z</time>
      </trkpt>
      <trkpt lat="42.90817" lon="1.14855">
        <ele>694.69</ele>
        <time>2014-09-14T09:16:44Z</time>
      </trkpt>
      <trkpt lat="42.90821" lon="1.14856">
        <ele>694.69</ele>
        <time>2014-09-14T09:16:45Z</time>
      </trkpt>
      <trkpt lat="42.90825" lon="1.14857">
        <ele>694.69</ele>
        <time>2014-09-14T09:16:46Z</time>
      </trkpt>
      <trkpt lat="42.9083" lon="1.14856">
        <ele>694.69</ele>
        <time>2014-09-14T09:16:47Z</time>
      </trkpt>
      <trkpt lat="42.90834" lon="1.14854">
        <ele>694.69</ele>
        <time>2014-09-14T09:16:48Z</time>
      </trkpt>
      <trkpt lat="42.90838" lon="1.14852">
        <ele>694.69</ele>
        <time>2014-09-14T09:16:49Z</time>
      </trkpt>
      <trkpt lat="42.90842" lon="1.14848">
        <ele>694.69</ele>
        <time>2014-09-14T09:16:50Z</time>
      </trkpt>
      <trkpt lat="42.90845" lon="1.14845">
        <ele>694.69</ele>
        <time>2014-09-14T09:16:51Z</time>
      </trkpt>
      <trkpt lat="42.90872" lon="1.14826">
        <ele>694.69</ele>
        <time>2014-09-14T09:16:58Z</time>
      </trkpt>
      <trkpt lat="42.90877" lon="1.14825">
        <ele>694.69</ele>
        <time>2014-09-14T09:16:59Z</time>
      </trkpt>
      <trkpt lat="42.90889" lon="1.14826">
        <ele>694.69</ele>
        <time>2014-09-14T09:17:02Z</time>
      </trkpt>
      <trkpt lat="42.90893" lon="1.14826">
        <ele>694.69</ele>
        <time>2014-09-14T09:17:03Z</time>
      </trkpt>
      <trkpt lat="42.90935" lon="1.1484">
        <ele>695.17</ele>
        <time>2014-09-14T09:17:17Z</time>
      </trkpt>
      <trkpt lat="42.90978" lon="1.14881">
        <ele>704.3</ele>
        <time>2014-09-14T09:17:33Z</time>
      </trkpt>
      <trkpt lat="42.90985" lon="1.14939">
        <ele>706.71</ele>
        <time>2014-09-14T09:17:48Z</time>
      </trkpt>
      <trkpt lat="42.90956" lon="1.14964">
        <ele>706.71</ele>
        <time>2014-09-14T09:17:58Z</time>
      </trkpt>
      <trkpt lat="42.90936" lon="1.14996">
        <ele>709.11</ele>
        <time>2014-09-14T09:18:10Z</time>
      </trkpt>
      <trkpt lat="42.90908" lon="1.15027">
        <ele>712.95</ele>
        <time>2014-09-14T09:18:23Z</time>
      </trkpt>
      <trkpt lat="42.90889" lon="1.15073">
        <ele>715.36</ele>
        <time>2014-09-14T09:18:38Z</time>
      </trkpt>
      <trkpt lat="42.909" lon="1.15144">
        <ele>721.61</ele>
        <time>2014-09-14T09:18:54Z</time>
      </trkpt>
      <trkpt lat="42.90921" lon="1.15192">
        <ele>726.41</ele>
        <time>2014-09-14T09:19:08Z</time>
      </trkpt>
      <trkpt lat="42.9092" lon="1.15198">
        <ele>726.41</ele>
        <time>2014-09-14T09:19:10Z</time>
      </trkpt>
      <trkpt lat="42.90918" lon="1.152">
        <ele>726.41</ele>
        <time>2014-09-14T09:19:11Z</time>
      </trkpt>
      <trkpt lat="42.90914" lon="1.15201">
        <ele>726.41</ele>
        <time>2014-09-14T09:19:12Z</time>
      </trkpt>
      <trkpt lat="42.90912" lon="1.15201">
        <ele>726.41</ele>
        <time>2014-09-14T09:19:13Z</time>
      </trkpt>
      <trkpt lat="42.90909" lon="1.15201">
        <ele>726.89</ele>
        <time>2014-09-14T09:19:14Z</time>
      </trkpt>
      <trkpt lat="42.90907" lon="1.152">
        <ele>726.89</ele>
        <time>2014-09-14T09:19:15Z</time>
      </trkpt>
      <trkpt lat="42.90904" lon="1.15199">
        <ele>726.89</ele>
        <time>2014-09-14T09:19:16Z</time>
      </trkpt>
      <trkpt lat="42.90901" lon="1.15196">
        <ele>726.41</ele>
        <time>2014-09-14T09:19:17Z</time>
      </trkpt>
      <trkpt lat="42.909" lon="1.15195">
        <ele>726.89</ele>
        <time>2014-09-14T09:19:18Z</time>
      </trkpt>
      <trkpt lat="42.90875" lon="1.15159">
        <ele>729.3</ele>
        <time>2014-09-14T09:19:31Z</time>
      </trkpt>
      <trkpt lat="42.90848" lon="1.15123">
        <ele>732.66</ele>
        <time>2014-09-14T09:19:45Z</time>
      </trkpt>
      <trkpt lat="42.90834" lon="1.15069">
        <ele>736.03</ele>
        <time>2014-09-14T09:20:02Z</time>
      </trkpt>
      <trkpt lat="42.9084" lon="1.15026">
        <ele>737.47</ele>
        <time>2014-09-14T09:20:16Z</time>
      </trkpt>
      <trkpt lat="42.90833" lon="1.15012">
        <ele>738.43</ele>
        <time>2014-09-14T09:20:22Z</time>
      </trkpt>
      <trkpt lat="42.90831" lon="1.15012">
        <ele>738.43</ele>
        <time>2014-09-14T09:20:23Z</time>
      </trkpt>
      <trkpt lat="42.90829" lon="1.15013">
        <ele>738.43</ele>
        <time>2014-09-14T09:20:24Z</time>
      </trkpt>
      <trkpt lat="42.9079" lon="1.15034">
        <ele>738.91</ele>
        <time>2014-09-14T09:20:43Z</time>
      </trkpt>
      <trkpt lat="42.9076" lon="1.15036">
        <ele>738.91</ele>
        <time>2014-09-14T09:20:58Z</time>
      </trkpt>
      <trkpt lat="42.90733" lon="1.15002">
        <ele>740.83</ele>
        <time>2014-09-14T09:21:13Z</time>
      </trkpt>
      <trkpt lat="42.90699" lon="1.14978">
        <ele>748.52</ele>
        <time>2014-09-14T09:21:30Z</time>
      </trkpt>
      <trkpt lat="42.90668" lon="1.14952">
        <ele>757.66</ele>
        <time>2014-09-14T09:21:47Z</time>
      </trkpt>
      <trkpt lat="42.90637" lon="1.14935">
        <ele>764.39</ele>
        <time>2014-09-14T09:22:02Z</time>
      </trkpt>
      <trkpt lat="42.90609" lon="1.14912">
        <ele>768.71</ele>
        <time>2014-09-14T09:22:20Z</time>
      </trkpt>
      <trkpt lat="42.90579" lon="1.14892">
        <ele>768.23</ele>
        <time>2014-09-14T09:22:35Z</time>
      </trkpt>
      <trkpt lat="42.90542" lon="1.14879">
        <ele>768.71</ele>
        <time>2014-09-14T09:22:50Z</time>
      </trkpt>
      <trkpt lat="42.90506" lon="1.14885">
        <ele>768.71</ele>
        <time>2014-09-14T09:23:03Z</time>
      </trkpt>
      <trkpt lat="42.90466" lon="1.14887">
        <ele>769.67</ele>
        <time>2014-09-14T09:23:19Z</time>
      </trkpt>
      <trkpt lat="42.90422" lon="1.1489">
        <ele>769.19</ele>
        <time>2014-09-14T09:23:36Z</time>
      </trkpt>
      <trkpt lat="42.90389" lon="1.14901">
        <ele>768.71</ele>
        <time>2014-09-14T09:23:51Z</time>
      </trkpt>
      <trkpt lat="42.90357" lon="1.14927">
        <ele>768.71</ele>
        <time>2014-09-14T09:24:06Z</time>
      </trkpt>
      <trkpt lat="42.90319" lon="1.14963">
        <ele>768.71</ele>
        <time>2014-09-14T09:24:23Z</time>
      </trkpt>
      <trkpt lat="42.90281" lon="1.14983">
        <ele>768.23</ele>
        <time>2014-09-14T09:24:38Z</time>
      </trkpt>
      <trkpt lat="42.90234" lon="1.14993">
        <ele>768.23</ele>
        <time>2014-09-14T09:24:53Z</time>
      </trkpt>
      <trkpt lat="42.90187" lon="1.14996">
        <ele>768.23</ele>
        <time>2014-09-14T09:25:08Z</time>
      </trkpt>
      <trkpt lat="42.90145" lon="1.15">
        <ele>768.23</ele>
        <time>2014-09-14T09:25:22Z</time>
      </trkpt>
      <trkpt lat="42.90105" lon="1.15006">
        <ele>768.23</ele>
        <time>2014-09-14T09:25:37Z</time>
      </trkpt>
      <trkpt lat="42.90073" lon="1.15008">
        <ele>767.75</ele>
        <time>2014-09-14T09:25:49Z</time>
      </trkpt>
      <trkpt lat="42.90047" lon="1.14992">
        <ele>767.75</ele>
        <time>2014-09-14T09:26:02Z</time>
      </trkpt>
      <trkpt lat="42.90006" lon="1.14989">
        <ele>767.27</ele>
        <time>2014-09-14T09:26:15Z</time>
      </trkpt>
      <trkpt lat="42.89953" lon="1.15009">
        <ele>767.27</ele>
        <time>2014-09-14T09:26:32Z</time>
      </trkpt>
      <trkpt lat="42.89922" lon="1.15027">
        <ele>767.27</ele>
        <time>2014-09-14T09:26:47Z</time>
      </trkpt>
      <trkpt lat="42.89889" lon="1.15052">
        <ele>766.79</ele>
        <time>2014-09-14T09:27:03Z</time>
      </trkpt>
      <trkpt lat="42.89853" lon="1.15085">
        <ele>766.79</ele>
        <time>2014-09-14T09:27:20Z</time>
      </trkpt>
      <trkpt lat="42.89847" lon="1.15091">
        <ele>766.79</ele>
        <time>2014-09-14T09:27:24Z</time>
      </trkpt>
      <trkpt lat="42.89846" lon="1.15092">
        <ele>766.79</ele>
        <time>2014-09-14T09:27:25Z</time>
      </trkpt>
      <trkpt lat="42.89844" lon="1.15094">
        <ele>766.79</ele>
        <time>2014-09-14T09:27:26Z</time>
      </trkpt>
      <trkpt lat="42.89842" lon="1.15096">
        <ele>766.79</ele>
        <time>2014-09-14T09:27:27Z</time>
      </trkpt>
      <trkpt lat="42.8984" lon="1.15097">
        <ele>766.79</ele>
        <time>2014-09-14T09:27:28Z</time>
      </trkpt>
      <trkpt lat="42.89839" lon="1.15099">
        <ele>766.79</ele>
        <time>2014-09-14T09:27:29Z</time>
      </trkpt>
      <trkpt lat="42.89804" lon="1.15125">
        <ele>766.79</ele>
        <time>2014-09-14T09:27:45Z</time>
      </trkpt>
      <trkpt lat="42.89767" lon="1.15141">
        <ele>766.79</ele>
        <time>2014-09-14T09:28:01Z</time>
      </trkpt>
      <trkpt lat="42.89723" lon="1.15125">
        <ele>766.79</ele>
        <time>2014-09-14T09:28:19Z</time>
      </trkpt>
      <trkpt lat="42.89679" lon="1.15109">
        <ele>767.27</ele>
        <time>2014-09-14T09:28:36Z</time>
      </trkpt>
      <trkpt lat="42.89644" lon="1.1513">
        <ele>767.27</ele>
        <time>2014-09-14T09:28:49Z</time>
      </trkpt>
      <trkpt lat="42.89607" lon="1.15197">
        <ele>767.75</ele>
        <time>2014-09-14T09:29:00Z</time>
      </trkpt>
      <trkpt lat="42.89599" lon="1.15209">
        <ele>767.75</ele>
        <time>2014-09-14T09:29:02Z</time>
      </trkpt>
      <trkpt lat="42.89596" lon="1.15217">
        <ele>767.75</ele>
        <time>2014-09-14T09:29:03Z</time>
      </trkpt>
      <trkpt lat="42.89595" lon="1.15226">
        <ele>767.75</ele>
        <time>2014-09-14T09:29:04Z</time>
      </trkpt>
      <trkpt lat="42.89595" lon="1.15235">
        <ele>767.75</ele>
        <time>2014-09-14T09:29:05Z</time>
      </trkpt>
      <trkpt lat="42.89595" lon="1.15243">
        <ele>767.75</ele>
        <time>2014-09-14T09:29:06Z</time>
      </trkpt>
      <trkpt lat="42.89595" lon="1.15268">
        <ele>767.75</ele>
        <time>2014-09-14T09:29:09Z</time>
      </trkpt>
      <trkpt lat="42.89595" lon="1.15276">
        <ele>767.75</ele>
        <time>2014-09-14T09:29:10Z</time>
      </trkpt>
      <trkpt lat="42.89594" lon="1.15283">
        <ele>767.75</ele>
        <time>2014-09-14T09:29:11Z</time>
      </trkpt>
      <trkpt lat="42.89592" lon="1.15289">
        <ele>767.75</ele>
        <time>2014-09-14T09:29:12Z</time>
      </trkpt>
      <trkpt lat="42.89588" lon="1.15294">
        <ele>767.75</ele>
        <time>2014-09-14T09:29:13Z</time>
      </trkpt>
      <trkpt lat="42.89583" lon="1.15297">
        <ele>767.75</ele>
        <time>2014-09-14T09:29:14Z</time>
      </trkpt>
      <trkpt lat="42.89577" lon="1.15296">
        <ele>767.27</ele>
        <time>2014-09-14T09:29:15Z</time>
      </trkpt>
      <trkpt lat="42.89571" lon="1.15293">
        <ele>767.27</ele>
        <time>2014-09-14T09:29:16Z</time>
      </trkpt>
      <trkpt lat="42.89567" lon="1.1529">
        <ele>767.27</ele>
        <time>2014-09-14T09:29:17Z</time>
      </trkpt>
      <trkpt lat="42.89564" lon="1.15286">
        <ele>767.27</ele>
        <time>2014-09-14T09:29:18Z</time>
      </trkpt>
      <trkpt lat="42.8956" lon="1.15281">
        <ele>767.27</ele>
        <time>2014-09-14T09:29:19Z</time>
      </trkpt>
      <trkpt lat="42.89556" lon="1.15275">
        <ele>767.27</ele>
        <time>2014-09-14T09:29:20Z</time>
      </trkpt>
      <trkpt lat="42.89533" lon="1.15237">
        <ele>767.27</ele>
        <time>2014-09-14T09:29:28Z</time>
      </trkpt>
      <trkpt lat="42.8953" lon="1.15234">
        <ele>767.27</ele>
        <time>2014-09-14T09:29:29Z</time>
      </trkpt>
      <trkpt lat="42.89527" lon="1.15231">
        <ele>767.27</ele>
        <time>2014-09-14T09:29:30Z</time>
      </trkpt>
      <trkpt lat="42.89523" lon="1.1523">
        <ele>767.27</ele>
        <time>2014-09-14T09:29:31Z</time>
      </trkpt>
      <trkpt lat="42.89519" lon="1.1523">
        <ele>767.27</ele>
        <time>2014-09-14T09:29:32Z</time>
      </trkpt>
      <trkpt lat="42.89514" lon="1.1523">
        <ele>767.27</ele>
        <time>2014-09-14T09:29:33Z</time>
      </trkpt>
      <trkpt lat="42.8951" lon="1.15232">
        <ele>767.27</ele>
        <time>2014-09-14T09:29:34Z</time>
      </trkpt>
      <trkpt lat="42.89505" lon="1.15234">
        <ele>767.27</ele>
        <time>2014-09-14T09:29:35Z</time>
      </trkpt>
      <trkpt lat="42.895" lon="1.15236">
        <ele>767.27</ele>
        <time>2014-09-14T09:29:36Z</time>
      </trkpt>
      <trkpt lat="42.89481" lon="1.15243">
        <ele>767.27</ele>
        <time>2014-09-14T09:29:40Z</time>
      </trkpt>
      <trkpt lat="42.89468" lon="1.15245">
        <ele>767.27</ele>
        <time>2014-09-14T09:29:43Z</time>
      </trkpt>
      <trkpt lat="42.89464" lon="1.15244">
        <ele>767.27</ele>
        <time>2014-09-14T09:29:44Z</time>
      </trkpt>
      <trkpt lat="42.89426" lon="1.15224">
        <ele>767.27</ele>
        <time>2014-09-14T09:29:55Z</time>
      </trkpt>
      <trkpt lat="42.89389" lon="1.15212">
        <ele>767.27</ele>
        <time>2014-09-14T09:30:07Z</time>
      </trkpt>
      <trkpt lat="42.89321" lon="1.1526">
        <ele>792.26</ele>
        <time>2014-09-14T09:30:23Z</time>
      </trkpt>
      <trkpt lat="42.8931" lon="1.15272">
        <ele>792.74</ele>
        <time>2014-09-14T09:30:26Z</time>
      </trkpt>
      <trkpt lat="42.89308" lon="1.15277">
        <ele>792.74</ele>
        <time>2014-09-14T09:30:27Z</time>
      </trkpt>
      <trkpt lat="42.89305" lon="1.15283">
        <ele>792.74</ele>
        <time>2014-09-14T09:30:28Z</time>
      </trkpt>
      <trkpt lat="42.89304" lon="1.15288">
        <ele>792.74</ele>
        <time>2014-09-14T09:30:29Z</time>
      </trkpt>
      <trkpt lat="42.89303" lon="1.15295">
        <ele>792.74</ele>
        <time>2014-09-14T09:30:30Z</time>
      </trkpt>
      <trkpt lat="42.89302" lon="1.15301">
        <ele>792.74</ele>
        <time>2014-09-14T09:30:31Z</time>
      </trkpt>
      <trkpt lat="42.89302" lon="1.15307">
        <ele>792.74</ele>
        <time>2014-09-14T09:30:32Z</time>
      </trkpt>
      <trkpt lat="42.89302" lon="1.15313">
        <ele>792.74</ele>
        <time>2014-09-14T09:30:33Z</time>
      </trkpt>
      <trkpt lat="42.89302" lon="1.1532">
        <ele>792.74</ele>
        <time>2014-09-14T09:30:34Z</time>
      </trkpt>
      <trkpt lat="42.893" lon="1.1542">
        <ele>792.74</ele>
        <time>2014-09-14T09:30:47Z</time>
      </trkpt>
      <trkpt lat="42.89296" lon="1.15435">
        <ele>792.74</ele>
        <time>2014-09-14T09:30:49Z</time>
      </trkpt>
      <trkpt lat="42.89292" lon="1.15443">
        <ele>792.74</ele>
        <time>2014-09-14T09:30:50Z</time>
      </trkpt>
      <trkpt lat="42.89287" lon="1.15447">
        <ele>792.74</ele>
        <time>2014-09-14T09:30:51Z</time>
      </trkpt>
      <trkpt lat="42.89281" lon="1.15449">
        <ele>792.74</ele>
        <time>2014-09-14T09:30:52Z</time>
      </trkpt>
      <trkpt lat="42.89275" lon="1.15448">
        <ele>792.74</ele>
        <time>2014-09-14T09:30:53Z</time>
      </trkpt>
      <trkpt lat="42.89269" lon="1.15444">
        <ele>792.74</ele>
        <time>2014-09-14T09:30:54Z</time>
      </trkpt>
      <trkpt lat="42.89264" lon="1.15441">
        <ele>792.74</ele>
        <time>2014-09-14T09:30:55Z</time>
      </trkpt>
      <trkpt lat="42.89236" lon="1.1542">
        <ele>792.74</ele>
        <time>2014-09-14T09:31:01Z</time>
      </trkpt>
      <trkpt lat="42.89231" lon="1.15419">
        <ele>792.74</ele>
        <time>2014-09-14T09:31:02Z</time>
      </trkpt>
      <trkpt lat="42.89226" lon="1.15418">
        <ele>792.74</ele>
        <time>2014-09-14T09:31:03Z</time>
      </trkpt>
      <trkpt lat="42.89221" lon="1.15418">
        <ele>792.74</ele>
        <time>2014-09-14T09:31:04Z</time>
      </trkpt>
      <trkpt lat="42.89216" lon="1.15419">
        <ele>792.74</ele>
        <time>2014-09-14T09:31:05Z</time>
      </trkpt>
      <trkpt lat="42.8921" lon="1.15419">
        <ele>792.74</ele>
        <time>2014-09-14T09:31:06Z</time>
      </trkpt>
      <trkpt lat="42.89201" lon="1.15418">
        <ele>792.74</ele>
        <time>2014-09-14T09:31:08Z</time>
      </trkpt>
      <trkpt lat="42.89192" lon="1.15415">
        <ele>792.74</ele>
        <time>2014-09-14T09:31:10Z</time>
      </trkpt>
      <trkpt lat="42.89189" lon="1.15414">
        <ele>792.74</ele>
        <time>2014-09-14T09:31:11Z</time>
      </trkpt>
      <trkpt lat="42.89185" lon="1.15413">
        <ele>792.74</ele>
        <time>2014-09-14T09:31:12Z</time>
      </trkpt>
      <trkpt lat="42.89138" lon="1.15416">
        <ele>792.74</ele>
        <time>2014-09-14T09:31:26Z</time>
      </trkpt>
      <trkpt lat="42.89089" lon="1.15443">
        <ele>793.22</ele>
        <time>2014-09-14T09:31:42Z</time>
      </trkpt>
      <trkpt lat="42.89042" lon="1.15457">
        <ele>793.71</ele>
        <time>2014-09-14T09:31:57Z</time>
      </trkpt>
      <trkpt lat="42.8899" lon="1.15458">
        <ele>793.71</ele>
        <time>2014-09-14T09:32:11Z</time>
      </trkpt>
      <trkpt lat="42.88934" lon="1.15452">
        <ele>793.71</ele>
        <time>2014-09-14T09:32:26Z</time>
      </trkpt>
      <trkpt lat="42.8886" lon="1.15479">
        <ele>793.71</ele>
        <time>2014-09-14T09:32:44Z</time>
      </trkpt>
      <trkpt lat="42.88789" lon="1.15528">
        <ele>883.59</ele>
        <time>2014-09-14T09:32:58Z</time>
      </trkpt>
      <trkpt lat="42.88787" lon="1.15528">
        <ele>884.55</ele>
        <time>2014-09-14T09:32:59Z</time>
      </trkpt>
      <trkpt lat="42.88787" lon="1.15526">
        <ele>886.47</ele>
        <time>2014-09-14T09:33:03Z</time>
      </trkpt>
      <trkpt lat="42.88787" lon="1.1552">
        <ele>892.24</ele>
        <time>2014-09-14T09:33:15Z</time>
      </trkpt>
      <trkpt lat="42.88789" lon="1.15517">
        <ele>887.91</ele>
        <time>2014-09-14T09:33:52Z</time>
      </trkpt>
      <trkpt lat="42.88789" lon="1.1552">
        <ele>890.8</ele>
        <time>2014-09-14T09:34:30Z</time>
      </trkpt>
      <trkpt lat="42.88788" lon="1.1553">
        <ele>894.64</ele>
        <time>2014-09-14T09:34:46Z</time>
      </trkpt>
      <trkpt lat="42.88787" lon="1.15531">
        <ele>894.64</ele>
        <time>2014-09-14T09:34:47Z</time>
      </trkpt>
      <trkpt lat="42.88786" lon="1.15534">
        <ele>894.64</ele>
        <time>2014-09-14T09:34:50Z</time>
      </trkpt>
      <trkpt lat="42.88784" lon="1.15535">
        <ele>894.64</ele>
        <time>2014-09-14T09:34:52Z</time>
      </trkpt>
      <trkpt lat="42.8878" lon="1.15549">
        <ele>895.61</ele>
        <time>2014-09-14T09:34:58Z</time>
      </trkpt>
      <trkpt lat="42.88781" lon="1.15553">
        <ele>895.61</ele>
        <time>2014-09-14T09:34:59Z</time>
      </trkpt>
      <trkpt lat="42.88787" lon="1.15592">
        <ele>895.12</ele>
        <time>2014-09-14T09:35:10Z</time>
      </trkpt>
      <trkpt lat="42.88783" lon="1.15594">
        <ele>894.16</ele>
        <time>2014-09-14T09:35:26Z</time>
      </trkpt>
      <trkpt lat="42.88784" lon="1.15593">
        <ele>894.64</ele>
        <time>2014-09-14T09:36:03Z</time>
      </trkpt>
      <trkpt lat="42.88785" lon="1.15597">
        <ele>895.61</ele>
        <time>2014-09-14T09:36:45Z</time>
      </trkpt>
      <trkpt lat="42.88784" lon="1.15592">
        <ele>891.76</ele>
        <time>2014-09-14T09:37:16Z</time>
      </trkpt>
      <trkpt lat="42.88786" lon="1.15592">
        <ele>890.32</ele>
        <time>2014-09-14T09:37:46Z</time>
      </trkpt>
      <trkpt lat="42.88784" lon="1.15591">
        <ele>892.72</ele>
        <time>2014-09-14T09:38:22Z</time>
      </trkpt>
      <trkpt lat="42.88783" lon="1.15592">
        <ele>893.2</ele>
        <time>2014-09-14T09:39:02Z</time>
      </trkpt>
      <trkpt lat="42.8879" lon="1.15593">
        <ele>896.09</ele>
        <time>2014-09-14T09:39:18Z</time>
      </trkpt>
      <trkpt lat="42.88791" lon="1.15598">
        <ele>896.09</ele>
        <time>2014-09-14T09:39:33Z</time>
      </trkpt>
      <trkpt lat="42.88791" lon="1.156">
        <ele>896.09</ele>
        <time>2014-09-14T09:39:34Z</time>
      </trkpt>
      <trkpt lat="42.88792" lon="1.15603">
        <ele>896.09</ele>
        <time>2014-09-14T09:39:35Z</time>
      </trkpt>
      <trkpt lat="42.88793" lon="1.15606">
        <ele>896.09</ele>
        <time>2014-09-14T09:39:36Z</time>
      </trkpt>
      <trkpt lat="42.88794" lon="1.15609">
        <ele>896.09</ele>
        <time>2014-09-14T09:39:37Z</time>
      </trkpt>
      <trkpt lat="42.88795" lon="1.15613">
        <ele>896.09</ele>
        <time>2014-09-14T09:39:38Z</time>
      </trkpt>
      <trkpt lat="42.88806" lon="1.15674">
        <ele>894.16</ele>
        <time>2014-09-14T09:39:52Z</time>
      </trkpt>
      <trkpt lat="42.8881" lon="1.15691">
        <ele>894.16</ele>
        <time>2014-09-14T09:39:55Z</time>
      </trkpt>
      <trkpt lat="42.88813" lon="1.15697">
        <ele>894.16</ele>
        <time>2014-09-14T09:39:56Z</time>
      </trkpt>
      <trkpt lat="42.88817" lon="1.15704">
        <ele>894.16</ele>
        <time>2014-09-14T09:39:57Z</time>
      </trkpt>
      <trkpt lat="42.88829" lon="1.15727">
        <ele>894.16</ele>
        <time>2014-09-14T09:40:00Z</time>
      </trkpt>
      <trkpt lat="42.88833" lon="1.15736">
        <ele>893.68</ele>
        <time>2014-09-14T09:40:01Z</time>
      </trkpt>
      <trkpt lat="42.88835" lon="1.15748">
        <ele>893.68</ele>
        <time>2014-09-14T09:40:02Z</time>
      </trkpt>
      <trkpt lat="42.88835" lon="1.15818">
        <ele>893.2</ele>
        <time>2014-09-14T09:40:08Z</time>
      </trkpt>
      <trkpt lat="42.88829" lon="1.15834">
        <ele>892.72</ele>
        <time>2014-09-14T09:40:09Z</time>
      </trkpt>
      <trkpt lat="42.88819" lon="1.15865">
        <ele>892.72</ele>
        <time>2014-09-14T09:40:11Z</time>
      </trkpt>
      <trkpt lat="42.88817" lon="1.15879">
        <ele>892.72</ele>
        <time>2014-09-14T09:40:12Z</time>
      </trkpt>
      <trkpt lat="42.88818" lon="1.15892">
        <ele>892.72</ele>
        <time>2014-09-14T09:40:13Z</time>
      </trkpt>
      <trkpt lat="42.88846" lon="1.16036">
        <ele>892.24</ele>
        <time>2014-09-14T09:40:25Z</time>
      </trkpt>
      <trkpt lat="42.88937" lon="1.15957">
        <ele>863.4</ele>
        <time>2014-09-14T09:40:26Z</time>
      </trkpt>
      <trkpt lat="42.89027" lon="1.1596">
        <ele>858.59</ele>
        <time>2014-09-14T09:40:34Z</time>
      </trkpt>
      <trkpt lat="42.89037" lon="1.15964">
        <ele>858.59</ele>
        <time>2014-09-14T09:40:35Z</time>
      </trkpt>
      <trkpt lat="42.89046" lon="1.15969">
        <ele>858.59</ele>
        <time>2014-09-14T09:40:36Z</time>
      </trkpt>
      <trkpt lat="42.89054" lon="1.15976">
        <ele>858.59</ele>
        <time>2014-09-14T09:40:37Z</time>
      </trkpt>
      <trkpt lat="42.89061" lon="1.15984">
        <ele>858.59</ele>
        <time>2014-09-14T09:40:38Z</time>
      </trkpt>
      <trkpt lat="42.89067" lon="1.15995">
        <ele>858.59</ele>
        <time>2014-09-14T09:40:39Z</time>
      </trkpt>
      <trkpt lat="42.89068" lon="1.16004">
        <ele>858.59</ele>
        <time>2014-09-14T09:40:40Z</time>
      </trkpt>
      <trkpt lat="42.89068" lon="1.16014">
        <ele>858.59</ele>
        <time>2014-09-14T09:40:41Z</time>
      </trkpt>
      <trkpt lat="42.89066" lon="1.16025">
        <ele>858.59</ele>
        <time>2014-09-14T09:40:42Z</time>
      </trkpt>
      <trkpt lat="42.89065" lon="1.16035">
        <ele>858.59</ele>
        <time>2014-09-14T09:40:43Z</time>
      </trkpt>
      <trkpt lat="42.89067" lon="1.16046">
        <ele>858.59</ele>
        <time>2014-09-14T09:40:44Z</time>
      </trkpt>
      <trkpt lat="42.89068" lon="1.16061">
        <ele>858.59</ele>
        <time>2014-09-14T09:40:45Z</time>
      </trkpt>
      <trkpt lat="42.89066" lon="1.16072">
        <ele>858.59</ele>
        <time>2014-09-14T09:40:46Z</time>
      </trkpt>
      <trkpt lat="42.89063" lon="1.16086">
        <ele>858.59</ele>
        <time>2014-09-14T09:40:47Z</time>
      </trkpt>
      <trkpt lat="42.8906" lon="1.16098">
        <ele>858.59</ele>
        <time>2014-09-14T09:40:48Z</time>
      </trkpt>
      <trkpt lat="42.89053" lon="1.16118">
        <ele>858.59</ele>
        <time>2014-09-14T09:40:50Z</time>
      </trkpt>
      <trkpt lat="42.89045" lon="1.16126">
        <ele>858.59</ele>
        <time>2014-09-14T09:40:51Z</time>
      </trkpt>
      <trkpt lat="42.89038" lon="1.16129">
        <ele>859.08</ele>
        <time>2014-09-14T09:40:52Z</time>
      </trkpt>
      <trkpt lat="42.89012" lon="1.1614">
        <ele>856.19</ele>
        <time>2014-09-14T09:40:55Z</time>
      </trkpt>
      <trkpt lat="42.8897" lon="1.16167">
        <ele>851.87</ele>
        <time>2014-09-14T09:41:00Z</time>
      </trkpt>
      <trkpt lat="42.88962" lon="1.16176">
        <ele>850.9</ele>
        <time>2014-09-14T09:41:01Z</time>
      </trkpt>
      <trkpt lat="42.88954" lon="1.1619">
        <ele>849.46</ele>
        <time>2014-09-14T09:41:02Z</time>
      </trkpt>
      <trkpt lat="42.88942" lon="1.16212">
        <ele>848.5</ele>
        <time>2014-09-14T09:41:04Z</time>
      </trkpt>
      <trkpt lat="42.88932" lon="1.16225">
        <ele>847.54</ele>
        <time>2014-09-14T09:41:05Z</time>
      </trkpt>
      <trkpt lat="42.88922" lon="1.16234">
        <ele>846.1</ele>
        <time>2014-09-14T09:41:06Z</time>
      </trkpt>
      <trkpt lat="42.88912" lon="1.1624">
        <ele>844.18</ele>
        <time>2014-09-14T09:41:07Z</time>
      </trkpt>
      <trkpt lat="42.88902" lon="1.16246">
        <ele>844.18</ele>
        <time>2014-09-14T09:41:08Z</time>
      </trkpt>
      <trkpt lat="42.88872" lon="1.16263">
        <ele>834.56</ele>
        <time>2014-09-14T09:41:11Z</time>
      </trkpt>
      <trkpt lat="42.88862" lon="1.16272">
        <ele>832.64</ele>
        <time>2014-09-14T09:41:12Z</time>
      </trkpt>
      <trkpt lat="42.88853" lon="1.16282">
        <ele>831.68</ele>
        <time>2014-09-14T09:41:13Z</time>
      </trkpt>
      <trkpt lat="42.88845" lon="1.16294">
        <ele>830.72</ele>
        <time>2014-09-14T09:41:14Z</time>
      </trkpt>
      <trkpt lat="42.88838" lon="1.16306">
        <ele>830.72</ele>
        <time>2014-09-14T09:41:15Z</time>
      </trkpt>
      <trkpt lat="42.88796" lon="1.164">
        <ele>829.76</ele>
        <time>2014-09-14T09:41:24Z</time>
      </trkpt>
      <trkpt lat="42.88793" lon="1.16405">
        <ele>829.76</ele>
        <time>2014-09-14T09:41:25Z</time>
      </trkpt>
      <trkpt lat="42.88791" lon="1.16406">
        <ele>829.76</ele>
        <time>2014-09-14T09:41:26Z</time>
      </trkpt>
      <trkpt lat="42.8879" lon="1.16403">
        <ele>828.31</ele>
        <time>2014-09-14T09:41:27Z</time>
      </trkpt>
      <trkpt lat="42.88789" lon="1.16399">
        <ele>827.83</ele>
        <time>2014-09-14T09:41:28Z</time>
      </trkpt>
      <trkpt lat="42.88787" lon="1.16393">
        <ele>827.83</ele>
        <time>2014-09-14T09:41:29Z</time>
      </trkpt>
      <trkpt lat="42.88786" lon="1.16385">
        <ele>826.87</ele>
        <time>2014-09-14T09:41:30Z</time>
      </trkpt>
      <trkpt lat="42.88787" lon="1.16372">
        <ele>825.91</ele>
        <time>2014-09-14T09:41:31Z</time>
      </trkpt>
      <trkpt lat="42.88787" lon="1.1636">
        <ele>824.95</ele>
        <time>2014-09-14T09:41:32Z</time>
      </trkpt>
      <trkpt lat="42.88781" lon="1.1632">
        <ele>823.51</ele>
        <time>2014-09-14T09:41:35Z</time>
      </trkpt>
      <trkpt lat="42.88776" lon="1.16309">
        <ele>823.03</ele>
        <time>2014-09-14T09:41:36Z</time>
      </trkpt>
      <trkpt lat="42.88765" lon="1.16293">
        <ele>823.03</ele>
        <time>2014-09-14T09:41:38Z</time>
      </trkpt>
      <trkpt lat="42.88759" lon="1.16289">
        <ele>822.55</ele>
        <time>2014-09-14T09:41:39Z</time>
      </trkpt>
      <trkpt lat="42.88753" lon="1.16287">
        <ele>822.55</ele>
        <time>2014-09-14T09:41:40Z</time>
      </trkpt>
      <trkpt lat="42.8875" lon="1.16288">
        <ele>822.06</ele>
        <time>2014-09-14T09:41:41Z</time>
      </trkpt>
      <trkpt lat="42.88747" lon="1.16292">
        <ele>822.06</ele>
        <time>2014-09-14T09:41:43Z</time>
      </trkpt>
      <trkpt lat="42.88743" lon="1.16318">
        <ele>823.03</ele>
        <time>2014-09-14T09:41:46Z</time>
      </trkpt>
      <trkpt lat="42.88743" lon="1.16334">
        <ele>822.55</ele>
        <time>2014-09-14T09:41:47Z</time>
      </trkpt>
      <trkpt lat="42.88716" lon="1.164">
        <ele>819.66</ele>
        <time>2014-09-14T09:41:52Z</time>
      </trkpt>
      <trkpt lat="42.88712" lon="1.16413">
        <ele>819.18</ele>
        <time>2014-09-14T09:41:53Z</time>
      </trkpt>
      <trkpt lat="42.88709" lon="1.16427">
        <ele>818.7</ele>
        <time>2014-09-14T09:41:54Z</time>
      </trkpt>
      <trkpt lat="42.88706" lon="1.16441">
        <ele>818.22</ele>
        <time>2014-09-14T09:41:55Z</time>
      </trkpt>
      <trkpt lat="42.88703" lon="1.16456">
        <ele>817.74</ele>
        <time>2014-09-14T09:41:56Z</time>
      </trkpt>
      <trkpt lat="42.88698" lon="1.16471">
        <ele>817.26</ele>
        <time>2014-09-14T09:41:57Z</time>
      </trkpt>
      <trkpt lat="42.88692" lon="1.16485">
        <ele>816.78</ele>
        <time>2014-09-14T09:41:58Z</time>
      </trkpt>
      <trkpt lat="42.88682" lon="1.16498">
        <ele>815.82</ele>
        <time>2014-09-14T09:41:59Z</time>
      </trkpt>
      <trkpt lat="42.88673" lon="1.16505">
        <ele>815.34</ele>
        <time>2014-09-14T09:42:00Z</time>
      </trkpt>
      <trkpt lat="42.88663" lon="1.16511">
        <ele>813.89</ele>
        <time>2014-09-14T09:42:01Z</time>
      </trkpt>
      <trkpt lat="42.88614" lon="1.16557">
        <ele>810.05</ele>
        <time>2014-09-14T09:42:06Z</time>
      </trkpt>
      <trkpt lat="42.8857" lon="1.16635">
        <ele>805.24</ele>
        <time>2014-09-14T09:42:12Z</time>
      </trkpt>
      <trkpt lat="42.88562" lon="1.16646">
        <ele>805.24</ele>
        <time>2014-09-14T09:42:13Z</time>
      </trkpt>
      <trkpt lat="42.8855" lon="1.16666">
        <ele>804.76</ele>
        <time>2014-09-14T09:42:15Z</time>
      </trkpt>
      <trkpt lat="42.88547" lon="1.16677">
        <ele>804.28</ele>
        <time>2014-09-14T09:42:16Z</time>
      </trkpt>
      <trkpt lat="42.88546" lon="1.16688">
        <ele>803.8</ele>
        <time>2014-09-14T09:42:17Z</time>
      </trkpt>
      <trkpt lat="42.88548" lon="1.16696">
        <ele>803.32</ele>
        <time>2014-09-14T09:42:18Z</time>
      </trkpt>
      <trkpt lat="42.88551" lon="1.16706">
        <ele>802.84</ele>
        <time>2014-09-14T09:42:19Z</time>
      </trkpt>
      <trkpt lat="42.88554" lon="1.16714">
        <ele>802.84</ele>
        <time>2014-09-14T09:42:20Z</time>
      </trkpt>
      <trkpt lat="42.88554" lon="1.16721">
        <ele>802.36</ele>
        <time>2014-09-14T09:42:21Z</time>
      </trkpt>
      <trkpt lat="42.88552" lon="1.16725">
        <ele>802.36</ele>
        <time>2014-09-14T09:42:22Z</time>
      </trkpt>
      <trkpt lat="42.88548" lon="1.16727">
        <ele>801.88</ele>
        <time>2014-09-14T09:42:23Z</time>
      </trkpt>
      <trkpt lat="42.88545" lon="1.16725">
        <ele>801.88</ele>
        <time>2014-09-14T09:42:24Z</time>
      </trkpt>
      <trkpt lat="42.8854" lon="1.16721">
        <ele>801.88</ele>
        <time>2014-09-14T09:42:25Z</time>
      </trkpt>
      <trkpt lat="42.88524" lon="1.16705">
        <ele>800.92</ele>
        <time>2014-09-14T09:42:28Z</time>
      </trkpt>
      <trkpt lat="42.88519" lon="1.16696">
        <ele>800.92</ele>
        <time>2014-09-14T09:42:29Z</time>
      </trkpt>
      <trkpt lat="42.88516" lon="1.16686">
        <ele>800.92</ele>
        <time>2014-09-14T09:42:30Z</time>
      </trkpt>
      <trkpt lat="42.88516" lon="1.16675">
        <ele>800.92</ele>
        <time>2014-09-14T09:42:31Z</time>
      </trkpt>
      <trkpt lat="42.88517" lon="1.16665">
        <ele>800.92</ele>
        <time>2014-09-14T09:42:32Z</time>
      </trkpt>
      <trkpt lat="42.88521" lon="1.16605">
        <ele>800.92</ele>
        <time>2014-09-14T09:42:38Z</time>
      </trkpt>
      <trkpt lat="42.88527" lon="1.16584">
        <ele>800.92</ele>
        <time>2014-09-14T09:42:41Z</time>
      </trkpt>
      <trkpt lat="42.88532" lon="1.16578">
        <ele>800.92</ele>
        <time>2014-09-14T09:42:42Z</time>
      </trkpt>
      <trkpt lat="42.88536" lon="1.16577">
        <ele>800.92</ele>
        <time>2014-09-14T09:42:43Z</time>
      </trkpt>
      <trkpt lat="42.88542" lon="1.16577">
        <ele>800.92</ele>
        <time>2014-09-14T09:42:44Z</time>
      </trkpt>
      <trkpt lat="42.88463" lon="1.16686">
        <ele>777.84</ele>
        <time>2014-09-14T09:42:45Z</time>
      </trkpt>
      <trkpt lat="42.88464" lon="1.16701">
        <ele>792.74</ele>
        <time>2014-09-14T09:42:46Z</time>
      </trkpt>
      <trkpt lat="42.88469" lon="1.16715">
        <ele>800.44</ele>
        <time>2014-09-14T09:42:48Z</time>
      </trkpt>
      <trkpt lat="42.88475" lon="1.16716">
        <ele>793.71</ele>
        <time>2014-09-14T09:42:49Z</time>
      </trkpt>
      <trkpt lat="42.8848" lon="1.16724">
        <ele>793.71</ele>
        <time>2014-09-14T09:42:50Z</time>
      </trkpt>
      <trkpt lat="42.88484" lon="1.1673">
        <ele>794.19</ele>
        <time>2014-09-14T09:42:51Z</time>
      </trkpt>
      <trkpt lat="42.8849" lon="1.16737">
        <ele>794.19</ele>
        <time>2014-09-14T09:42:52Z</time>
      </trkpt>
      <trkpt lat="42.88513" lon="1.16752">
        <ele>781.21</ele>
        <time>2014-09-14T09:42:55Z</time>
      </trkpt>
      <trkpt lat="42.8852" lon="1.16758">
        <ele>776.4</ele>
        <time>2014-09-14T09:42:56Z</time>
      </trkpt>
      <trkpt lat="42.8852" lon="1.16761">
        <ele>772.56</ele>
        <time>2014-09-14T09:42:57Z</time>
      </trkpt>
      <trkpt lat="42.88519" lon="1.16765">
        <ele>771.11</ele>
        <time>2014-09-14T09:42:58Z</time>
      </trkpt>
      <trkpt lat="42.88511" lon="1.16759">
        <ele>763.9</ele>
        <time>2014-09-14T09:42:59Z</time>
      </trkpt>
      <trkpt lat="42.88511" lon="1.1678">
        <ele>755.25</ele>
        <time>2014-09-14T09:43:04Z</time>
      </trkpt>
      <trkpt lat="42.88511" lon="1.16786">
        <ele>754.77</ele>
        <time>2014-09-14T09:43:05Z</time>
      </trkpt>
      <trkpt lat="42.88498" lon="1.16844">
        <ele>749.97</ele>
        <time>2014-09-14T09:43:16Z</time>
      </trkpt>
      <trkpt lat="42.88491" lon="1.16903">
        <ele>754.29</ele>
        <time>2014-09-14T09:43:28Z</time>
      </trkpt>
      <trkpt lat="42.88468" lon="1.16979">
        <ele>756.21</ele>
        <time>2014-09-14T09:43:44Z</time>
      </trkpt>
      <trkpt lat="42.88451" lon="1.1701">
        <ele>757.18</ele>
        <time>2014-09-14T09:43:56Z</time>
      </trkpt>
      <trkpt lat="42.88412" lon="1.17055">
        <ele>758.62</ele>
        <time>2014-09-14T09:44:08Z</time>
      </trkpt>
      <trkpt lat="42.88408" lon="1.17057">
        <ele>758.14</ele>
        <time>2014-09-14T09:44:09Z</time>
      </trkpt>
      <trkpt lat="42.88403" lon="1.17058">
        <ele>758.14</ele>
        <time>2014-09-14T09:44:10Z</time>
      </trkpt>
      <trkpt lat="42.88398" lon="1.17056">
        <ele>758.14</ele>
        <time>2014-09-14T09:44:11Z</time>
      </trkpt>
      <trkpt lat="42.88392" lon="1.17052">
        <ele>757.66</ele>
        <time>2014-09-14T09:44:12Z</time>
      </trkpt>
      <trkpt lat="42.88387" lon="1.17046">
        <ele>757.18</ele>
        <time>2014-09-14T09:44:13Z</time>
      </trkpt>
      <trkpt lat="42.88384" lon="1.17036">
        <ele>756.69</ele>
        <time>2014-09-14T09:44:14Z</time>
      </trkpt>
      <trkpt lat="42.88381" lon="1.17027">
        <ele>756.69</ele>
        <time>2014-09-14T09:44:15Z</time>
      </trkpt>
      <trkpt lat="42.88379" lon="1.17014">
        <ele>756.21</ele>
        <time>2014-09-14T09:44:16Z</time>
      </trkpt>
      <trkpt lat="42.8837" lon="1.1698">
        <ele>754.77</ele>
        <time>2014-09-14T09:44:19Z</time>
      </trkpt>
      <trkpt lat="42.88364" lon="1.1697">
        <ele>754.29</ele>
        <time>2014-09-14T09:44:20Z</time>
      </trkpt>
      <trkpt lat="42.88357" lon="1.16962">
        <ele>753.81</ele>
        <time>2014-09-14T09:44:21Z</time>
      </trkpt>
      <trkpt lat="42.88348" lon="1.16957">
        <ele>752.85</ele>
        <time>2014-09-14T09:44:22Z</time>
      </trkpt>
      <trkpt lat="42.88338" lon="1.16953">
        <ele>752.37</ele>
        <time>2014-09-14T09:44:23Z</time>
      </trkpt>
      <trkpt lat="42.88311" lon="1.16938">
        <ele>749.49</ele>
        <time>2014-09-14T09:44:26Z</time>
      </trkpt>
      <trkpt lat="42.88304" lon="1.16929">
        <ele>748.52</ele>
        <time>2014-09-14T09:44:27Z</time>
      </trkpt>
      <trkpt lat="42.88298" lon="1.1692">
        <ele>747.56</ele>
        <time>2014-09-14T09:44:28Z</time>
      </trkpt>
      <trkpt lat="42.88293" lon="1.16915">
        <ele>747.08</ele>
        <time>2014-09-14T09:44:29Z</time>
      </trkpt>
      <trkpt lat="42.88288" lon="1.16911">
        <ele>746.6</ele>
        <time>2014-09-14T09:44:30Z</time>
      </trkpt>
      <trkpt lat="42.88285" lon="1.1691">
        <ele>746.6</ele>
        <time>2014-09-14T09:44:31Z</time>
      </trkpt>
      <trkpt lat="42.88282" lon="1.1691">
        <ele>746.6</ele>
        <time>2014-09-14T09:44:32Z</time>
      </trkpt>
      <trkpt lat="42.88283" lon="1.16913">
        <ele>746.6</ele>
        <time>2014-09-14T09:44:34Z</time>
      </trkpt>
      <trkpt lat="42.88285" lon="1.16918">
        <ele>746.6</ele>
        <time>2014-09-14T09:44:35Z</time>
      </trkpt>
      <trkpt lat="42.88287" lon="1.16922">
        <ele>746.6</ele>
        <time>2014-09-14T09:44:36Z</time>
      </trkpt>
      <trkpt lat="42.88291" lon="1.16935">
        <ele>746.12</ele>
        <time>2014-09-14T09:44:37Z</time>
      </trkpt>
      <trkpt lat="42.88294" lon="1.16951">
        <ele>746.12</ele>
        <time>2014-09-14T09:44:38Z</time>
      </trkpt>
      <trkpt lat="42.88296" lon="1.16974">
        <ele>745.16</ele>
        <time>2014-09-14T09:44:39Z</time>
      </trkpt>
      <trkpt lat="42.883" lon="1.17016">
        <ele>743.72</ele>
        <time>2014-09-14T09:44:41Z</time>
      </trkpt>
      <trkpt lat="42.88299" lon="1.17035">
        <ele>743.72</ele>
        <time>2014-09-14T09:44:42Z</time>
      </trkpt>
      <trkpt lat="42.883" lon="1.17053">
        <ele>743.24</ele>
        <time>2014-09-14T09:44:43Z</time>
      </trkpt>
      <trkpt lat="42.88302" lon="1.17069">
        <ele>743.24</ele>
        <time>2014-09-14T09:44:44Z</time>
      </trkpt>
      <trkpt lat="42.88306" lon="1.17083">
        <ele>742.28</ele>
        <time>2014-09-14T09:44:45Z</time>
      </trkpt>
      <trkpt lat="42.88311" lon="1.17095">
        <ele>741.79</ele>
        <time>2014-09-14T09:44:46Z</time>
      </trkpt>
      <trkpt lat="42.88316" lon="1.17106">
        <ele>741.31</ele>
        <time>2014-09-14T09:44:47Z</time>
      </trkpt>
      <trkpt lat="42.88319" lon="1.17116">
        <ele>740.35</ele>
        <time>2014-09-14T09:44:48Z</time>
      </trkpt>
      <trkpt lat="42.8832" lon="1.17123">
        <ele>740.35</ele>
        <time>2014-09-14T09:44:49Z</time>
      </trkpt>
      <trkpt lat="42.8832" lon="1.17128">
        <ele>739.87</ele>
        <time>2014-09-14T09:44:50Z</time>
      </trkpt>
      <trkpt lat="42.88319" lon="1.17131">
        <ele>739.87</ele>
        <time>2014-09-14T09:44:53Z</time>
      </trkpt>
      <trkpt lat="42.88315" lon="1.17129">
        <ele>740.35</ele>
        <time>2014-09-14T09:44:54Z</time>
      </trkpt>
      <trkpt lat="42.88312" lon="1.17125">
        <ele>740.35</ele>
        <time>2014-09-14T09:44:55Z</time>
      </trkpt>
      <trkpt lat="42.88308" lon="1.1712">
        <ele>740.83</ele>
        <time>2014-09-14T09:44:56Z</time>
      </trkpt>
      <trkpt lat="42.88306" lon="1.17115">
        <ele>740.83</ele>
        <time>2014-09-14T09:44:57Z</time>
      </trkpt>
      <trkpt lat="42.88303" lon="1.17107">
        <ele>741.31</ele>
        <time>2014-09-14T09:44:58Z</time>
      </trkpt>
      <trkpt lat="42.88298" lon="1.17092">
        <ele>740.83</ele>
        <time>2014-09-14T09:44:59Z</time>
      </trkpt>
      <trkpt lat="42.8827" lon="1.17038">
        <ele>739.87</ele>
        <time>2014-09-14T09:45:06Z</time>
      </trkpt>
      <trkpt lat="42.88265" lon="1.1704">
        <ele>739.87</ele>
        <time>2014-09-14T09:45:07Z</time>
      </trkpt>
      <trkpt lat="42.88259" lon="1.17048">
        <ele>738.91</ele>
        <time>2014-09-14T09:45:09Z</time>
      </trkpt>
      <trkpt lat="42.88255" lon="1.17052">
        <ele>737.95</ele>
        <time>2014-09-14T09:45:10Z</time>
      </trkpt>
      <trkpt lat="42.88253" lon="1.17059">
        <ele>737.47</ele>
        <time>2014-09-14T09:45:11Z</time>
      </trkpt>
      <trkpt lat="42.88252" lon="1.17069">
        <ele>736.51</ele>
        <time>2014-09-14T09:45:12Z</time>
      </trkpt>
      <trkpt lat="42.88253" lon="1.17082">
        <ele>735.55</ele>
        <time>2014-09-14T09:45:13Z</time>
      </trkpt>
      <trkpt lat="42.88246" lon="1.17144">
        <ele>733.62</ele>
        <time>2014-09-14T09:45:18Z</time>
      </trkpt>
      <trkpt lat="42.88236" lon="1.17318">
        <ele>730.26</ele>
        <time>2014-09-14T09:45:33Z</time>
      </trkpt>
      <trkpt lat="42.88233" lon="1.17339">
        <ele>730.26</ele>
        <time>2014-09-14T09:45:35Z</time>
      </trkpt>
      <trkpt lat="42.8823" lon="1.17347">
        <ele>728.82</ele>
        <time>2014-09-14T09:45:36Z</time>
      </trkpt>
      <trkpt lat="42.88225" lon="1.17358">
        <ele>727.86</ele>
        <time>2014-09-14T09:45:37Z</time>
      </trkpt>
      <trkpt lat="42.88222" lon="1.17364">
        <ele>727.37</ele>
        <time>2014-09-14T09:45:38Z</time>
      </trkpt>
      <trkpt lat="42.88217" lon="1.17373">
        <ele>726.89</ele>
        <time>2014-09-14T09:45:39Z</time>
      </trkpt>
      <trkpt lat="42.88207" lon="1.17388">
        <ele>725.93</ele>
        <time>2014-09-14T09:45:41Z</time>
      </trkpt>
      <trkpt lat="42.88195" lon="1.17403">
        <ele>724.01</ele>
        <time>2014-09-14T09:45:43Z</time>
      </trkpt>
      <trkpt lat="42.8819" lon="1.1741">
        <ele>723.05</ele>
        <time>2014-09-14T09:45:44Z</time>
      </trkpt>
      <trkpt lat="42.88186" lon="1.1742">
        <ele>723.05</ele>
        <time>2014-09-14T09:45:45Z</time>
      </trkpt>
      <trkpt lat="42.88184" lon="1.1743">
        <ele>722.57</ele>
        <time>2014-09-14T09:45:46Z</time>
      </trkpt>
      <trkpt lat="42.88183" lon="1.1744">
        <ele>722.57</ele>
        <time>2014-09-14T09:45:47Z</time>
      </trkpt>
      <trkpt lat="42.88183" lon="1.1745">
        <ele>722.09</ele>
        <time>2014-09-14T09:45:48Z</time>
      </trkpt>
      <trkpt lat="42.88183" lon="1.17511">
        <ele>718.24</ele>
        <time>2014-09-14T09:45:54Z</time>
      </trkpt>
      <trkpt lat="42.88181" lon="1.17521">
        <ele>717.76</ele>
        <time>2014-09-14T09:45:55Z</time>
      </trkpt>
      <trkpt lat="42.88178" lon="1.17532">
        <ele>717.28</ele>
        <time>2014-09-14T09:45:56Z</time>
      </trkpt>
      <trkpt lat="42.88176" lon="1.17541">
        <ele>716.32</ele>
        <time>2014-09-14T09:45:57Z</time>
      </trkpt>
      <trkpt lat="42.88172" lon="1.17549">
        <ele>715.84</ele>
        <time>2014-09-14T09:45:58Z</time>
      </trkpt>
      <trkpt lat="42.88164" lon="1.17565">
        <ele>714.88</ele>
        <time>2014-09-14T09:46:00Z</time>
      </trkpt>
      <trkpt lat="42.88158" lon="1.17571">
        <ele>714.4</ele>
        <time>2014-09-14T09:46:01Z</time>
      </trkpt>
      <trkpt lat="42.88153" lon="1.17576">
        <ele>713.92</ele>
        <time>2014-09-14T09:46:02Z</time>
      </trkpt>
      <trkpt lat="42.88146" lon="1.17583">
        <ele>712.95</ele>
        <time>2014-09-14T09:46:03Z</time>
      </trkpt>
      <trkpt lat="42.88141" lon="1.17589">
        <ele>712.47</ele>
        <time>2014-09-14T09:46:04Z</time>
      </trkpt>
      <trkpt lat="42.88136" lon="1.17597">
        <ele>712.47</ele>
        <time>2014-09-14T09:46:05Z</time>
      </trkpt>
      <trkpt lat="42.88133" lon="1.17604">
        <ele>712.47</ele>
        <time>2014-09-14T09:46:06Z</time>
      </trkpt>
      <trkpt lat="42.88129" lon="1.17612">
        <ele>711.99</ele>
        <time>2014-09-14T09:46:07Z</time>
      </trkpt>
      <trkpt lat="42.88124" lon="1.17619">
        <ele>711.51</ele>
        <time>2014-09-14T09:46:08Z</time>
      </trkpt>
      <trkpt lat="42.88118" lon="1.17624">
        <ele>711.51</ele>
        <time>2014-09-14T09:46:09Z</time>
      </trkpt>
      <trkpt lat="42.8811" lon="1.17628">
        <ele>711.03</ele>
        <time>2014-09-14T09:46:10Z</time>
      </trkpt>
      <trkpt lat="42.88103" lon="1.17631">
        <ele>710.55</ele>
        <time>2014-09-14T09:46:11Z</time>
      </trkpt>
      <trkpt lat="42.88086" lon="1.17642">
        <ele>710.07</ele>
        <time>2014-09-14T09:46:14Z</time>
      </trkpt>
      <trkpt lat="42.88082" lon="1.17646">
        <ele>710.07</ele>
        <time>2014-09-14T09:46:15Z</time>
      </trkpt>
      <trkpt lat="42.88078" lon="1.17651">
        <ele>710.07</ele>
        <time>2014-09-14T09:46:16Z</time>
      </trkpt>
      <trkpt lat="42.88046" lon="1.17685">
        <ele>708.15</ele>
        <time>2014-09-14T09:46:22Z</time>
      </trkpt>
      <trkpt lat="42.88038" lon="1.1769">
        <ele>707.67</ele>
        <time>2014-09-14T09:46:23Z</time>
      </trkpt>
      <trkpt lat="42.87978" lon="1.17719">
        <ele>702.86</ele>
        <time>2014-09-14T09:46:31Z</time>
      </trkpt>
      <trkpt lat="42.8797" lon="1.17719">
        <ele>702.86</ele>
        <time>2014-09-14T09:46:32Z</time>
      </trkpt>
      <trkpt lat="42.87963" lon="1.17717">
        <ele>702.38</ele>
        <time>2014-09-14T09:46:33Z</time>
      </trkpt>
      <trkpt lat="42.87933" lon="1.17711">
        <ele>701.42</ele>
        <time>2014-09-14T09:46:37Z</time>
      </trkpt>
      <trkpt lat="42.87926" lon="1.17707">
        <ele>700.94</ele>
        <time>2014-09-14T09:46:38Z</time>
      </trkpt>
      <trkpt lat="42.8792" lon="1.17702">
        <ele>700.94</ele>
        <time>2014-09-14T09:46:39Z</time>
      </trkpt>
      <trkpt lat="42.8786" lon="1.17661">
        <ele>697.57</ele>
        <time>2014-09-14T09:46:49Z</time>
      </trkpt>
      <trkpt lat="42.87854" lon="1.17659">
        <ele>697.09</ele>
        <time>2014-09-14T09:46:50Z</time>
      </trkpt>
      <trkpt lat="42.87847" lon="1.17659">
        <ele>696.61</ele>
        <time>2014-09-14T09:46:51Z</time>
      </trkpt>
      <trkpt lat="42.87817" lon="1.17664">
        <ele>695.17</ele>
        <time>2014-09-14T09:46:55Z</time>
      </trkpt>
      <trkpt lat="42.8781" lon="1.17668">
        <ele>694.69</ele>
        <time>2014-09-14T09:46:56Z</time>
      </trkpt>
      <trkpt lat="42.87804" lon="1.17675">
        <ele>694.21</ele>
        <time>2014-09-14T09:46:57Z</time>
      </trkpt>
      <trkpt lat="42.87798" lon="1.17683">
        <ele>693.73</ele>
        <time>2014-09-14T09:46:58Z</time>
      </trkpt>
      <trkpt lat="42.87793" lon="1.17691">
        <ele>693.25</ele>
        <time>2014-09-14T09:46:59Z</time>
      </trkpt>
      <trkpt lat="42.87789" lon="1.17698">
        <ele>692.77</ele>
        <time>2014-09-14T09:47:00Z</time>
      </trkpt>
      <trkpt lat="42.87783" lon="1.17703">
        <ele>691.81</ele>
        <time>2014-09-14T09:47:01Z</time>
      </trkpt>
      <trkpt lat="42.8776" lon="1.1773">
        <ele>689.88</ele>
        <time>2014-09-14T09:47:05Z</time>
      </trkpt>
      <trkpt lat="42.87713" lon="1.17774">
        <ele>685.56</ele>
        <time>2014-09-14T09:47:12Z</time>
      </trkpt>
      <trkpt lat="42.87706" lon="1.17776">
        <ele>685.08</ele>
        <time>2014-09-14T09:47:13Z</time>
      </trkpt>
      <trkpt lat="42.87697" lon="1.17777">
        <ele>684.6</ele>
        <time>2014-09-14T09:47:14Z</time>
      </trkpt>
      <trkpt lat="42.87645" lon="1.17774">
        <ele>680.75</ele>
        <time>2014-09-14T09:47:21Z</time>
      </trkpt>
      <trkpt lat="42.87641" lon="1.17778">
        <ele>680.27</ele>
        <time>2014-09-14T09:47:22Z</time>
      </trkpt>
      <trkpt lat="42.87638" lon="1.17785">
        <ele>679.79</ele>
        <time>2014-09-14T09:47:23Z</time>
      </trkpt>
      <trkpt lat="42.87635" lon="1.17793">
        <ele>679.31</ele>
        <time>2014-09-14T09:47:24Z</time>
      </trkpt>
      <trkpt lat="42.87632" lon="1.17801">
        <ele>678.83</ele>
        <time>2014-09-14T09:47:25Z</time>
      </trkpt>
      <trkpt lat="42.87628" lon="1.17809">
        <ele>678.35</ele>
        <time>2014-09-14T09:47:26Z</time>
      </trkpt>
      <trkpt lat="42.87623" lon="1.17817">
        <ele>677.39</ele>
        <time>2014-09-14T09:47:27Z</time>
      </trkpt>
      <trkpt lat="42.8762" lon="1.17824">
        <ele>677.39</ele>
        <time>2014-09-14T09:47:28Z</time>
      </trkpt>
      <trkpt lat="42.87616" lon="1.17833">
        <ele>676.91</ele>
        <time>2014-09-14T09:47:29Z</time>
      </trkpt>
      <trkpt lat="42.87612" lon="1.17843">
        <ele>676.91</ele>
        <time>2014-09-14T09:47:30Z</time>
      </trkpt>
      <trkpt lat="42.87557" lon="1.17945">
        <ele>667.77</ele>
        <time>2014-09-14T09:47:42Z</time>
      </trkpt>
      <trkpt lat="42.87543" lon="1.17978">
        <ele>660.08</ele>
        <time>2014-09-14T09:47:50Z</time>
      </trkpt>
      <trkpt lat="42.87544" lon="1.17984">
        <ele>659.12</ele>
        <time>2014-09-14T09:47:51Z</time>
      </trkpt>
      <trkpt lat="42.87546" lon="1.17988">
        <ele>658.64</ele>
        <time>2014-09-14T09:47:52Z</time>
      </trkpt>
      <trkpt lat="42.8755" lon="1.17999">
        <ele>657.68</ele>
        <time>2014-09-14T09:47:54Z</time>
      </trkpt>
      <trkpt lat="42.87553" lon="1.18007">
        <ele>657.2</ele>
        <time>2014-09-14T09:47:55Z</time>
      </trkpt>
      <trkpt lat="42.87552" lon="1.18016">
        <ele>656.72</ele>
        <time>2014-09-14T09:47:56Z</time>
      </trkpt>
      <trkpt lat="42.8755" lon="1.18025">
        <ele>655.76</ele>
        <time>2014-09-14T09:47:57Z</time>
      </trkpt>
      <trkpt lat="42.87546" lon="1.18035">
        <ele>655.28</ele>
        <time>2014-09-14T09:47:58Z</time>
      </trkpt>
      <trkpt lat="42.87541" lon="1.18043">
        <ele>654.8</ele>
        <time>2014-09-14T09:47:59Z</time>
      </trkpt>
      <trkpt lat="42.87535" lon="1.18049">
        <ele>654.8</ele>
        <time>2014-09-14T09:48:00Z</time>
      </trkpt>
      <trkpt lat="42.8753" lon="1.18052">
        <ele>654.31</ele>
        <time>2014-09-14T09:48:01Z</time>
      </trkpt>
      <trkpt lat="42.87526" lon="1.18053">
        <ele>654.31</ele>
        <time>2014-09-14T09:48:02Z</time>
      </trkpt>
      <trkpt lat="42.8752" lon="1.18054">
        <ele>654.31</ele>
        <time>2014-09-14T09:48:03Z</time>
      </trkpt>
      <trkpt lat="42.87518" lon="1.1805">
        <ele>653.83</ele>
        <time>2014-09-14T09:48:04Z</time>
      </trkpt>
      <trkpt lat="42.87517" lon="1.18042">
        <ele>653.35</ele>
        <time>2014-09-14T09:48:05Z</time>
      </trkpt>
      <trkpt lat="42.87517" lon="1.18033">
        <ele>652.87</ele>
        <time>2014-09-14T09:48:06Z</time>
      </trkpt>
      <trkpt lat="42.87518" lon="1.18022">
        <ele>652.87</ele>
        <time>2014-09-14T09:48:07Z</time>
      </trkpt>
      <trkpt lat="42.87515" lon="1.18006">
        <ele>652.87</ele>
        <time>2014-09-14T09:48:08Z</time>
      </trkpt>
      <trkpt lat="42.87511" lon="1.1799">
        <ele>652.87</ele>
        <time>2014-09-14T09:48:09Z</time>
      </trkpt>
      <trkpt lat="42.87482" lon="1.17874">
        <ele>652.39</ele>
        <time>2014-09-14T09:48:16Z</time>
      </trkpt>
      <trkpt lat="42.87465" lon="1.17851">
        <ele>651.91</ele>
        <time>2014-09-14T09:48:18Z</time>
      </trkpt>
      <trkpt lat="42.87454" lon="1.17844">
        <ele>651.91</ele>
        <time>2014-09-14T09:48:19Z</time>
      </trkpt>
      <trkpt lat="42.87443" lon="1.17838">
        <ele>651.43</ele>
        <time>2014-09-14T09:48:20Z</time>
      </trkpt>
      <trkpt lat="42.87431" lon="1.17836">
        <ele>650.95</ele>
        <time>2014-09-14T09:48:21Z</time>
      </trkpt>
      <trkpt lat="42.87421" lon="1.17836">
        <ele>649.99</ele>
        <time>2014-09-14T09:48:22Z</time>
      </trkpt>
      <trkpt lat="42.87414" lon="1.17841">
        <ele>649.99</ele>
        <time>2014-09-14T09:48:23Z</time>
      </trkpt>
      <trkpt lat="42.87409" lon="1.17849">
        <ele>649.51</ele>
        <time>2014-09-14T09:48:24Z</time>
      </trkpt>
      <trkpt lat="42.87403" lon="1.17861">
        <ele>649.03</ele>
        <time>2014-09-14T09:48:25Z</time>
      </trkpt>
      <trkpt lat="42.87366" lon="1.17941">
        <ele>644.7</ele>
        <time>2014-09-14T09:48:31Z</time>
      </trkpt>
      <trkpt lat="42.87358" lon="1.17952">
        <ele>644.22</ele>
        <time>2014-09-14T09:48:32Z</time>
      </trkpt>
      <trkpt lat="42.87348" lon="1.1796">
        <ele>643.74</ele>
        <time>2014-09-14T09:48:33Z</time>
      </trkpt>
      <trkpt lat="42.87337" lon="1.17965">
        <ele>642.78</ele>
        <time>2014-09-14T09:48:34Z</time>
      </trkpt>
      <trkpt lat="42.87327" lon="1.17972">
        <ele>642.78</ele>
        <time>2014-09-14T09:48:35Z</time>
      </trkpt>
      <trkpt lat="42.87322" lon="1.17979">
        <ele>642.3</ele>
        <time>2014-09-14T09:48:36Z</time>
      </trkpt>
      <trkpt lat="42.87317" lon="1.17988">
        <ele>642.3</ele>
        <time>2014-09-14T09:48:37Z</time>
      </trkpt>
      <trkpt lat="42.87313" lon="1.18">
        <ele>642.78</ele>
        <time>2014-09-14T09:48:38Z</time>
      </trkpt>
      <trkpt lat="42.87311" lon="1.18013">
        <ele>642.78</ele>
        <time>2014-09-14T09:48:39Z</time>
      </trkpt>
      <trkpt lat="42.8731" lon="1.18026">
        <ele>642.78</ele>
        <time>2014-09-14T09:48:40Z</time>
      </trkpt>
      <trkpt lat="42.8731" lon="1.18039">
        <ele>642.78</ele>
        <time>2014-09-14T09:48:41Z</time>
      </trkpt>
      <trkpt lat="42.87314" lon="1.1823">
        <ele>639.89</ele>
        <time>2014-09-14T09:48:54Z</time>
      </trkpt>
      <trkpt lat="42.8731" lon="1.18246">
        <ele>639.41</ele>
        <time>2014-09-14T09:48:55Z</time>
      </trkpt>
      <trkpt lat="42.87262" lon="1.1838">
        <ele>631.72</ele>
        <time>2014-09-14T09:49:04Z</time>
      </trkpt>
      <trkpt lat="42.87253" lon="1.18394">
        <ele>631.24</ele>
        <time>2014-09-14T09:49:05Z</time>
      </trkpt>
      <trkpt lat="42.87246" lon="1.18403">
        <ele>630.28</ele>
        <time>2014-09-14T09:49:06Z</time>
      </trkpt>
      <trkpt lat="42.87236" lon="1.18412">
        <ele>629.8</ele>
        <time>2014-09-14T09:49:07Z</time>
      </trkpt>
      <trkpt lat="42.87225" lon="1.18418">
        <ele>628.84</ele>
        <time>2014-09-14T09:49:08Z</time>
      </trkpt>
      <trkpt lat="42.87213" lon="1.18419">
        <ele>627.88</ele>
        <time>2014-09-14T09:49:09Z</time>
      </trkpt>
      <trkpt lat="42.87204" lon="1.18416">
        <ele>627.88</ele>
        <time>2014-09-14T09:49:10Z</time>
      </trkpt>
      <trkpt lat="42.87193" lon="1.18413">
        <ele>627.88</ele>
        <time>2014-09-14T09:49:11Z</time>
      </trkpt>
      <trkpt lat="42.87187" lon="1.18414">
        <ele>627.88</ele>
        <time>2014-09-14T09:49:12Z</time>
      </trkpt>
      <trkpt lat="42.8718" lon="1.18419">
        <ele>627.4</ele>
        <time>2014-09-14T09:49:13Z</time>
      </trkpt>
      <trkpt lat="42.87174" lon="1.18424">
        <ele>627.4</ele>
        <time>2014-09-14T09:49:14Z</time>
      </trkpt>
      <trkpt lat="42.87169" lon="1.18429">
        <ele>627.4</ele>
        <time>2014-09-14T09:49:15Z</time>
      </trkpt>
      <trkpt lat="42.8715" lon="1.18447">
        <ele>626.44</ele>
        <time>2014-09-14T09:49:19Z</time>
      </trkpt>
      <trkpt lat="42.87146" lon="1.18453">
        <ele>626.44</ele>
        <time>2014-09-14T09:49:20Z</time>
      </trkpt>
      <trkpt lat="42.87143" lon="1.1848">
        <ele>626.44</ele>
        <time>2014-09-14T09:49:23Z</time>
      </trkpt>
      <trkpt lat="42.8714" lon="1.18543">
        <ele>624.51</ele>
        <time>2014-09-14T09:49:27Z</time>
      </trkpt>
      <trkpt lat="42.87138" lon="1.18549">
        <ele>624.03</ele>
        <time>2014-09-14T09:49:28Z</time>
      </trkpt>
      <trkpt lat="42.87132" lon="1.18556">
        <ele>624.03</ele>
        <time>2014-09-14T09:49:29Z</time>
      </trkpt>
      <trkpt lat="42.87128" lon="1.18562">
        <ele>623.55</ele>
        <time>2014-09-14T09:49:30Z</time>
      </trkpt>
      <trkpt lat="42.87122" lon="1.18566">
        <ele>623.55</ele>
        <time>2014-09-14T09:49:31Z</time>
      </trkpt>
      <trkpt lat="42.87111" lon="1.18572">
        <ele>622.59</ele>
        <time>2014-09-14T09:49:32Z</time>
      </trkpt>
      <trkpt lat="42.87095" lon="1.18581">
        <ele>621.63</ele>
        <time>2014-09-14T09:49:34Z</time>
      </trkpt>
      <trkpt lat="42.8702" lon="1.18666">
        <ele>619.23</ele>
        <time>2014-09-14T09:49:43Z</time>
      </trkpt>
      <trkpt lat="42.87014" lon="1.18681">
        <ele>619.23</ele>
        <time>2014-09-14T09:49:44Z</time>
      </trkpt>
      <trkpt lat="42.87009" lon="1.18696">
        <ele>619.23</ele>
        <time>2014-09-14T09:49:45Z</time>
      </trkpt>
      <trkpt lat="42.87002" lon="1.18725">
        <ele>618.26</ele>
        <time>2014-09-14T09:49:47Z</time>
      </trkpt>
      <trkpt lat="42.86997" lon="1.18739">
        <ele>618.26</ele>
        <time>2014-09-14T09:49:48Z</time>
      </trkpt>
      <trkpt lat="42.86989" lon="1.1875">
        <ele>617.78</ele>
        <time>2014-09-14T09:49:49Z</time>
      </trkpt>
      <trkpt lat="42.8698" lon="1.1876">
        <ele>617.3</ele>
        <time>2014-09-14T09:49:50Z</time>
      </trkpt>
      <trkpt lat="42.8697" lon="1.18769">
        <ele>616.82</ele>
        <time>2014-09-14T09:49:51Z</time>
      </trkpt>
      <trkpt lat="42.86961" lon="1.1878">
        <ele>616.34</ele>
        <time>2014-09-14T09:49:52Z</time>
      </trkpt>
      <trkpt lat="42.86954" lon="1.18793">
        <ele>615.86</ele>
        <time>2014-09-14T09:49:53Z</time>
      </trkpt>
      <trkpt lat="42.86948" lon="1.18808">
        <ele>615.86</ele>
        <time>2014-09-14T09:49:54Z</time>
      </trkpt>
      <trkpt lat="42.86913" lon="1.18888">
        <ele>612.5</ele>
        <time>2014-09-14T09:50:00Z</time>
      </trkpt>
      <trkpt lat="42.86909" lon="1.18904">
        <ele>611.54</ele>
        <time>2014-09-14T09:50:01Z</time>
      </trkpt>
      <trkpt lat="42.86879" lon="1.19007">
        <ele>603.85</ele>
        <time>2014-09-14T09:50:08Z</time>
      </trkpt>
      <trkpt lat="42.86871" lon="1.19021">
        <ele>602.88</ele>
        <time>2014-09-14T09:50:09Z</time>
      </trkpt>
      <trkpt lat="42.86792" lon="1.19127">
        <ele>596.64</ele>
        <time>2014-09-14T09:50:18Z</time>
      </trkpt>
      <trkpt lat="42.86787" lon="1.19144">
        <ele>594.71</ele>
        <time>2014-09-14T09:50:19Z</time>
      </trkpt>
      <trkpt lat="42.86782" lon="1.19164">
        <ele>594.71</ele>
        <time>2014-09-14T09:50:20Z</time>
      </trkpt>
      <trkpt lat="42.86779" lon="1.19179">
        <ele>594.23</ele>
        <time>2014-09-14T09:50:21Z</time>
      </trkpt>
      <trkpt lat="42.86774" lon="1.19193">
        <ele>593.27</ele>
        <time>2014-09-14T09:50:22Z</time>
      </trkpt>
      <trkpt lat="42.86767" lon="1.19205">
        <ele>592.79</ele>
        <time>2014-09-14T09:50:23Z</time>
      </trkpt>
      <trkpt lat="42.86758" lon="1.19218">
        <ele>592.31</ele>
        <time>2014-09-14T09:50:24Z</time>
      </trkpt>
      <trkpt lat="42.86715" lon="1.19307">
        <ele>584.14</ele>
        <time>2014-09-14T09:50:31Z</time>
      </trkpt>
      <trkpt lat="42.86707" lon="1.1932">
        <ele>580.77</ele>
        <time>2014-09-14T09:50:32Z</time>
      </trkpt>
      <trkpt lat="42.86618" lon="1.19487">
        <ele>559.14</ele>
        <time>2014-09-14T09:50:44Z</time>
      </trkpt>
      <trkpt lat="42.86572" lon="1.19622">
        <ele>548.57</ele>
        <time>2014-09-14T09:50:53Z</time>
      </trkpt>
      <trkpt lat="42.86571" lon="1.19635">
        <ele>547.61</ele>
        <time>2014-09-14T09:50:54Z</time>
      </trkpt>
      <trkpt lat="42.86571" lon="1.19648">
        <ele>546.65</ele>
        <time>2014-09-14T09:50:55Z</time>
      </trkpt>
      <trkpt lat="42.86571" lon="1.19782">
        <ele>538.48</ele>
        <time>2014-09-14T09:51:07Z</time>
      </trkpt>
      <trkpt lat="42.86564" lon="1.19814">
        <ele>535.11</ele>
        <time>2014-09-14T09:51:11Z</time>
      </trkpt>
      <trkpt lat="42.86557" lon="1.19831">
        <ele>534.15</ele>
        <time>2014-09-14T09:51:13Z</time>
      </trkpt>
      <trkpt lat="42.86554" lon="1.19838">
        <ele>533.67</ele>
        <time>2014-09-14T09:51:14Z</time>
      </trkpt>
      <trkpt lat="42.8655" lon="1.19845">
        <ele>533.67</ele>
        <time>2014-09-14T09:51:15Z</time>
      </trkpt>
      <trkpt lat="42.86534" lon="1.19898">
        <ele>529.82</ele>
        <time>2014-09-14T09:51:21Z</time>
      </trkpt>
      <trkpt lat="42.86533" lon="1.19909">
        <ele>529.34</ele>
        <time>2014-09-14T09:51:22Z</time>
      </trkpt>
      <trkpt lat="42.86532" lon="1.19937">
        <ele>527.9</ele>
        <time>2014-09-14T09:51:25Z</time>
      </trkpt>
      <trkpt lat="42.86531" lon="1.19946">
        <ele>526.94</ele>
        <time>2014-09-14T09:51:26Z</time>
      </trkpt>
      <trkpt lat="42.86529" lon="1.19956">
        <ele>525.98</ele>
        <time>2014-09-14T09:51:27Z</time>
      </trkpt>
      <trkpt lat="42.86526" lon="1.19965">
        <ele>525.5</ele>
        <time>2014-09-14T09:51:28Z</time>
      </trkpt>
      <trkpt lat="42.86523" lon="1.19972">
        <ele>524.54</ele>
        <time>2014-09-14T09:51:29Z</time>
      </trkpt>
      <trkpt lat="42.86518" lon="1.1998">
        <ele>524.54</ele>
        <time>2014-09-14T09:51:30Z</time>
      </trkpt>
      <trkpt lat="42.86491" lon="1.20031">
        <ele>521.65</ele>
        <time>2014-09-14T09:51:39Z</time>
      </trkpt>
      <trkpt lat="42.86486" lon="1.20041">
        <ele>518.29</ele>
        <time>2014-09-14T09:51:53Z</time>
      </trkpt>
      <trkpt lat="42.86481" lon="1.20049">
        <ele>517.33</ele>
        <time>2014-09-14T09:51:55Z</time>
      </trkpt>
      <trkpt lat="42.86472" lon="1.20061">
        <ele>516.85</ele>
        <time>2014-09-14T09:51:58Z</time>
      </trkpt>
      <trkpt lat="42.86463" lon="1.20076">
        <ele>515.88</ele>
        <time>2014-09-14T09:52:01Z</time>
      </trkpt>
      <trkpt lat="42.86426" lon="1.20128">
        <ele>513.96</ele>
        <time>2014-09-14T09:52:12Z</time>
      </trkpt>
      <trkpt lat="42.86422" lon="1.20128">
        <ele>513.96</ele>
        <time>2014-09-14T09:52:13Z</time>
      </trkpt>
      <trkpt lat="42.86416" lon="1.20128">
        <ele>513.48</ele>
        <time>2014-09-14T09:52:14Z</time>
      </trkpt>
      <trkpt lat="42.8641" lon="1.20129">
        <ele>513.48</ele>
        <time>2014-09-14T09:52:15Z</time>
      </trkpt>
      <trkpt lat="42.86407" lon="1.2013">
        <ele>513.48</ele>
        <time>2014-09-14T09:52:16Z</time>
      </trkpt>
      <trkpt lat="42.86384" lon="1.20135">
        <ele>513</ele>
        <time>2014-09-14T09:52:21Z</time>
      </trkpt>
      <trkpt lat="42.86379" lon="1.20138">
        <ele>513</ele>
        <time>2014-09-14T09:52:22Z</time>
      </trkpt>
      <trkpt lat="42.86375" lon="1.20141">
        <ele>513</ele>
        <time>2014-09-14T09:52:23Z</time>
      </trkpt>
      <trkpt lat="42.86353" lon="1.20166">
        <ele>513.96</ele>
        <time>2014-09-14T09:52:30Z</time>
      </trkpt>
      <trkpt lat="42.86353" lon="1.20172">
        <ele>513.96</ele>
        <time>2014-09-14T09:52:31Z</time>
      </trkpt>
      <trkpt lat="42.86353" lon="1.20178">
        <ele>513.96</ele>
        <time>2014-09-14T09:52:32Z</time>
      </trkpt>
      <trkpt lat="42.86354" lon="1.20183">
        <ele>513.96</ele>
        <time>2014-09-14T09:52:33Z</time>
      </trkpt>
      <trkpt lat="42.86356" lon="1.20188">
        <ele>513.96</ele>
        <time>2014-09-14T09:52:34Z</time>
      </trkpt>
      <trkpt lat="42.86359" lon="1.20195">
        <ele>513.96</ele>
        <time>2014-09-14T09:52:35Z</time>
      </trkpt>
      <trkpt lat="42.86405" lon="1.20303">
        <ele>513.96</ele>
        <time>2014-09-14T09:52:49Z</time>
      </trkpt>
      <trkpt lat="42.8648" lon="1.20418">
        <ele>512.52</ele>
        <time>2014-09-14T09:53:05Z</time>
      </trkpt>
      <trkpt lat="42.86561" lon="1.20508">
        <ele>513.96</ele>
        <time>2014-09-14T09:53:20Z</time>
      </trkpt>
      <trkpt lat="42.86663" lon="1.20641">
        <ele>513.48</ele>
        <time>2014-09-14T09:53:40Z</time>
      </trkpt>
      <trkpt lat="42.86752" lon="1.2076">
        <ele>511.56</ele>
        <time>2014-09-14T09:53:58Z</time>
      </trkpt>
      <trkpt lat="42.86807" lon="1.20828">
        <ele>512.52</ele>
        <time>2014-09-14T09:54:11Z</time>
      </trkpt>
      <trkpt lat="42.86811" lon="1.20833">
        <ele>512.52</ele>
        <time>2014-09-14T09:54:12Z</time>
      </trkpt>
      <trkpt lat="42.86814" lon="1.2084">
        <ele>513</ele>
        <time>2014-09-14T09:54:13Z</time>
      </trkpt>
      <trkpt lat="42.8682" lon="1.20852">
        <ele>513.48</ele>
        <time>2014-09-14T09:54:15Z</time>
      </trkpt>
      <trkpt lat="42.86824" lon="1.20856">
        <ele>513.48</ele>
        <time>2014-09-14T09:54:16Z</time>
      </trkpt>
      <trkpt lat="42.86828" lon="1.20858">
        <ele>513.48</ele>
        <time>2014-09-14T09:54:17Z</time>
      </trkpt>
      <trkpt lat="42.86834" lon="1.2086">
        <ele>513.48</ele>
        <time>2014-09-14T09:54:18Z</time>
      </trkpt>
      <trkpt lat="42.86839" lon="1.20862">
        <ele>513.96</ele>
        <time>2014-09-14T09:54:19Z</time>
      </trkpt>
      <trkpt lat="42.86844" lon="1.20866">
        <ele>513.96</ele>
        <time>2014-09-14T09:54:20Z</time>
      </trkpt>
      <trkpt lat="42.86849" lon="1.2087">
        <ele>514.44</ele>
        <time>2014-09-14T09:54:21Z</time>
      </trkpt>
      <trkpt lat="42.86855" lon="1.20875">
        <ele>514.92</ele>
        <time>2014-09-14T09:54:22Z</time>
      </trkpt>
      <trkpt lat="42.86942" lon="1.2094">
        <ele>515.4</ele>
        <time>2014-09-14T09:54:37Z</time>
      </trkpt>
      <trkpt lat="42.8702" lon="1.21028">
        <ele>513</ele>
        <time>2014-09-14T09:54:50Z</time>
      </trkpt>
      <trkpt lat="42.87152" lon="1.21103">
        <ele>510.12</ele>
        <time>2014-09-14T09:55:08Z</time>
      </trkpt>
      <trkpt lat="42.87275" lon="1.21138">
        <ele>507.71</ele>
        <time>2014-09-14T09:55:25Z</time>
      </trkpt>
      <trkpt lat="42.87361" lon="1.21165">
        <ele>505.79</ele>
        <time>2014-09-14T09:55:37Z</time>
      </trkpt>
      <trkpt lat="42.87505" lon="1.2125">
        <ele>502.91</ele>
        <time>2014-09-14T09:55:58Z</time>
      </trkpt>
      <trkpt lat="42.87643" lon="1.21333">
        <ele>500.5</ele>
        <time>2014-09-14T09:56:19Z</time>
      </trkpt>
      <trkpt lat="42.87783" lon="1.21416">
        <ele>498.58</ele>
        <time>2014-09-14T09:56:40Z</time>
      </trkpt>
      <trkpt lat="42.87943" lon="1.21513">
        <ele>497.62</ele>
        <time>2014-09-14T09:57:04Z</time>
      </trkpt>
      <trkpt lat="42.87999" lon="1.21549">
        <ele>496.66</ele>
        <time>2014-09-14T09:57:13Z</time>
      </trkpt>
      <trkpt lat="42.88003" lon="1.21558">
        <ele>495.7</ele>
        <time>2014-09-14T09:57:14Z</time>
      </trkpt>
      <trkpt lat="42.88011" lon="1.21571">
        <ele>495.7</ele>
        <time>2014-09-14T09:57:16Z</time>
      </trkpt>
      <trkpt lat="42.88017" lon="1.21572">
        <ele>495.7</ele>
        <time>2014-09-14T09:57:17Z</time>
      </trkpt>
      <trkpt lat="42.88023" lon="1.2157">
        <ele>496.18</ele>
        <time>2014-09-14T09:57:18Z</time>
      </trkpt>
      <trkpt lat="42.88029" lon="1.21569">
        <ele>496.18</ele>
        <time>2014-09-14T09:57:19Z</time>
      </trkpt>
      <trkpt lat="42.88037" lon="1.21569">
        <ele>496.18</ele>
        <time>2014-09-14T09:57:20Z</time>
      </trkpt>
      <trkpt lat="42.88043" lon="1.2157">
        <ele>496.18</ele>
        <time>2014-09-14T09:57:21Z</time>
      </trkpt>
      <trkpt lat="42.88051" lon="1.21572">
        <ele>496.18</ele>
        <time>2014-09-14T09:57:22Z</time>
      </trkpt>
      <trkpt lat="42.88057" lon="1.21574">
        <ele>496.18</ele>
        <time>2014-09-14T09:57:23Z</time>
      </trkpt>
      <trkpt lat="42.88172" lon="1.21588">
        <ele>498.1</ele>
        <time>2014-09-14T09:57:39Z</time>
      </trkpt>
      <trkpt lat="42.88305" lon="1.21556">
        <ele>499.54</ele>
        <time>2014-09-14T09:57:57Z</time>
      </trkpt>
      <trkpt lat="42.88436" lon="1.21524">
        <ele>494.26</ele>
        <time>2014-09-14T09:58:15Z</time>
      </trkpt>
      <trkpt lat="42.88573" lon="1.21503">
        <ele>491.37</ele>
        <time>2014-09-14T09:58:33Z</time>
      </trkpt>
      <trkpt lat="42.8873" lon="1.21496">
        <ele>488.97</ele>
        <time>2014-09-14T09:58:54Z</time>
      </trkpt>
      <trkpt lat="42.88884" lon="1.21489">
        <ele>487.05</ele>
        <time>2014-09-14T09:59:14Z</time>
      </trkpt>
      <trkpt lat="42.89031" lon="1.21482">
        <ele>485.6</ele>
        <time>2014-09-14T09:59:33Z</time>
      </trkpt>
      <trkpt lat="42.89176" lon="1.21486">
        <ele>484.64</ele>
        <time>2014-09-14T09:59:52Z</time>
      </trkpt>
      <trkpt lat="42.8929" lon="1.21538">
        <ele>485.12</ele>
        <time>2014-09-14T10:00:08Z</time>
      </trkpt>
      <trkpt lat="42.89311" lon="1.21545">
        <ele>485.12</ele>
        <time>2014-09-14T10:00:11Z</time>
      </trkpt>
      <trkpt lat="42.89417" lon="1.21542">
        <ele>485.12</ele>
        <time>2014-09-14T10:00:25Z</time>
      </trkpt>
      <trkpt lat="42.89544" lon="1.2152">
        <ele>483.68</ele>
        <time>2014-09-14T10:00:42Z</time>
      </trkpt>
      <trkpt lat="42.89683" lon="1.21493">
        <ele>483.2</ele>
        <time>2014-09-14T10:01:00Z</time>
      </trkpt>
      <trkpt lat="42.89835" lon="1.21463">
        <ele>483.2</ele>
        <time>2014-09-14T10:01:20Z</time>
      </trkpt>
      <trkpt lat="42.89979" lon="1.21435">
        <ele>483.2</ele>
        <time>2014-09-14T10:01:40Z</time>
      </trkpt>
      <trkpt lat="42.90085" lon="1.21369">
        <ele>476.47</ele>
        <time>2014-09-14T10:01:56Z</time>
      </trkpt>
      <trkpt lat="42.90207" lon="1.21251">
        <ele>473.59</ele>
        <time>2014-09-14T10:02:16Z</time>
      </trkpt>
      <trkpt lat="42.90313" lon="1.21142">
        <ele>473.11</ele>
        <time>2014-09-14T10:02:34Z</time>
      </trkpt>
      <trkpt lat="42.9041" lon="1.21107">
        <ele>474.07</ele>
        <time>2014-09-14T10:02:48Z</time>
      </trkpt>
      <trkpt lat="42.90515" lon="1.21131">
        <ele>475.51</ele>
        <time>2014-09-14T10:03:01Z</time>
      </trkpt>
      <trkpt lat="42.90596" lon="1.21202">
        <ele>475.99</ele>
        <time>2014-09-14T10:03:13Z</time>
      </trkpt>
      <trkpt lat="42.90666" lon="1.21328">
        <ele>476.47</ele>
        <time>2014-09-14T10:03:28Z</time>
      </trkpt>
      <trkpt lat="42.90744" lon="1.21386">
        <ele>476.47</ele>
        <time>2014-09-14T10:03:40Z</time>
      </trkpt>
      <trkpt lat="42.90751" lon="1.21386">
        <ele>476.47</ele>
        <time>2014-09-14T10:03:41Z</time>
      </trkpt>
      <trkpt lat="42.90757" lon="1.21385">
        <ele>476.47</ele>
        <time>2014-09-14T10:03:42Z</time>
      </trkpt>
      <trkpt lat="42.90764" lon="1.21383">
        <ele>476.95</ele>
        <time>2014-09-14T10:03:43Z</time>
      </trkpt>
      <trkpt lat="42.90771" lon="1.21381">
        <ele>476.95</ele>
        <time>2014-09-14T10:03:44Z</time>
      </trkpt>
      <trkpt lat="42.90778" lon="1.21378">
        <ele>476.95</ele>
        <time>2014-09-14T10:03:45Z</time>
      </trkpt>
      <trkpt lat="42.90853" lon="1.21382">
        <ele>477.43</ele>
        <time>2014-09-14T10:03:55Z</time>
      </trkpt>
      <trkpt lat="42.90861" lon="1.21387">
        <ele>477.43</ele>
        <time>2014-09-14T10:03:56Z</time>
      </trkpt>
      <trkpt lat="42.90868" lon="1.21392">
        <ele>477.43</ele>
        <time>2014-09-14T10:03:57Z</time>
      </trkpt>
      <trkpt lat="42.90873" lon="1.21397">
        <ele>477.43</ele>
        <time>2014-09-14T10:03:58Z</time>
      </trkpt>
      <trkpt lat="42.90879" lon="1.21404">
        <ele>477.43</ele>
        <time>2014-09-14T10:03:59Z</time>
      </trkpt>
      <trkpt lat="42.90883" lon="1.21412">
        <ele>477.43</ele>
        <time>2014-09-14T10:04:00Z</time>
      </trkpt>
      <trkpt lat="42.90886" lon="1.21421">
        <ele>477.43</ele>
        <time>2014-09-14T10:04:01Z</time>
      </trkpt>
      <trkpt lat="42.9089" lon="1.21434">
        <ele>477.91</ele>
        <time>2014-09-14T10:04:02Z</time>
      </trkpt>
      <trkpt lat="42.90891" lon="1.21441">
        <ele>477.91</ele>
        <time>2014-09-14T10:04:03Z</time>
      </trkpt>
      <trkpt lat="42.90892" lon="1.21449">
        <ele>477.91</ele>
        <time>2014-09-14T10:04:04Z</time>
      </trkpt>
      <trkpt lat="42.90892" lon="1.21459">
        <ele>477.91</ele>
        <time>2014-09-14T10:04:05Z</time>
      </trkpt>
      <trkpt lat="42.9089" lon="1.2147">
        <ele>477.91</ele>
        <time>2014-09-14T10:04:06Z</time>
      </trkpt>
      <trkpt lat="42.9089" lon="1.21478">
        <ele>477.91</ele>
        <time>2014-09-14T10:04:07Z</time>
      </trkpt>
      <trkpt lat="42.90891" lon="1.21489">
        <ele>477.91</ele>
        <time>2014-09-14T10:04:08Z</time>
      </trkpt>
      <trkpt lat="42.90892" lon="1.21498">
        <ele>477.43</ele>
        <time>2014-09-14T10:04:09Z</time>
      </trkpt>
      <trkpt lat="42.90892" lon="1.21508">
        <ele>475.99</ele>
        <time>2014-09-14T10:04:10Z</time>
      </trkpt>
      <trkpt lat="42.9089" lon="1.21519">
        <ele>475.99</ele>
        <time>2014-09-14T10:04:11Z</time>
      </trkpt>
      <trkpt lat="42.90888" lon="1.21527">
        <ele>475.51</ele>
        <time>2014-09-14T10:04:12Z</time>
      </trkpt>
      <trkpt lat="42.90885" lon="1.21538">
        <ele>475.51</ele>
        <time>2014-09-14T10:04:13Z</time>
      </trkpt>
      <trkpt lat="42.90833" lon="1.21644">
        <ele>473.59</ele>
        <time>2014-09-14T10:04:25Z</time>
      </trkpt>
      <trkpt lat="42.90753" lon="1.21781">
        <ele>475.03</ele>
        <time>2014-09-14T10:04:43Z</time>
      </trkpt>
      <trkpt lat="42.90718" lon="1.21827">
        <ele>474.07</ele>
        <time>2014-09-14T10:04:50Z</time>
      </trkpt>
      <trkpt lat="42.90627" lon="1.2189">
        <ele>476.47</ele>
        <time>2014-09-14T10:05:05Z</time>
      </trkpt>
      <trkpt lat="42.90543" lon="1.21965">
        <ele>479.84</ele>
        <time>2014-09-14T10:05:21Z</time>
      </trkpt>
      <trkpt lat="42.90457" lon="1.22046">
        <ele>483.68</ele>
        <time>2014-09-14T10:05:38Z</time>
      </trkpt>
      <trkpt lat="42.90393" lon="1.2211">
        <ele>486.56</ele>
        <time>2014-09-14T10:05:51Z</time>
      </trkpt>
      <trkpt lat="42.90339" lon="1.22174">
        <ele>486.08</ele>
        <time>2014-09-14T10:06:03Z</time>
      </trkpt>
      <trkpt lat="42.90263" lon="1.22261">
        <ele>488.49</ele>
        <time>2014-09-14T10:06:19Z</time>
      </trkpt>
      <trkpt lat="42.9021" lon="1.22345">
        <ele>491.85</ele>
        <time>2014-09-14T10:06:32Z</time>
      </trkpt>
      <trkpt lat="42.90139" lon="1.22459">
        <ele>488.97</ele>
        <time>2014-09-14T10:06:49Z</time>
      </trkpt>
      <trkpt lat="42.90093" lon="1.22519">
        <ele>488.97</ele>
        <time>2014-09-14T10:06:59Z</time>
      </trkpt>
      <trkpt lat="42.9009" lon="1.22527">
        <ele>488.97</ele>
        <time>2014-09-14T10:07:00Z</time>
      </trkpt>
      <trkpt lat="42.90088" lon="1.22533">
        <ele>488.97</ele>
        <time>2014-09-14T10:07:01Z</time>
      </trkpt>
      <trkpt lat="42.90079" lon="1.22576">
        <ele>488.97</ele>
        <time>2014-09-14T10:07:06Z</time>
      </trkpt>
      <trkpt lat="42.90079" lon="1.22584">
        <ele>488.97</ele>
        <time>2014-09-14T10:07:07Z</time>
      </trkpt>
      <trkpt lat="42.90079" lon="1.22593">
        <ele>488.97</ele>
        <time>2014-09-14T10:07:08Z</time>
      </trkpt>
      <trkpt lat="42.90102" lon="1.22726">
        <ele>488.97</ele>
        <time>2014-09-14T10:07:24Z</time>
      </trkpt>
      <trkpt lat="42.90111" lon="1.22764">
        <ele>488.97</ele>
        <time>2014-09-14T10:07:29Z</time>
      </trkpt>
      <trkpt lat="42.90114" lon="1.22772">
        <ele>488.97</ele>
        <time>2014-09-14T10:07:30Z</time>
      </trkpt>
      <trkpt lat="42.90117" lon="1.22779">
        <ele>488.97</ele>
        <time>2014-09-14T10:07:31Z</time>
      </trkpt>
      <trkpt lat="42.90151" lon="1.22842">
        <ele>488.97</ele>
        <time>2014-09-14T10:07:40Z</time>
      </trkpt>
      <trkpt lat="42.90154" lon="1.2285">
        <ele>488.97</ele>
        <time>2014-09-14T10:07:41Z</time>
      </trkpt>
      <trkpt lat="42.90156" lon="1.22858">
        <ele>488.97</ele>
        <time>2014-09-14T10:07:42Z</time>
      </trkpt>
      <trkpt lat="42.90158" lon="1.22866">
        <ele>488.97</ele>
        <time>2014-09-14T10:07:43Z</time>
      </trkpt>
      <trkpt lat="42.90159" lon="1.22874">
        <ele>488.97</ele>
        <time>2014-09-14T10:07:44Z</time>
      </trkpt>
      <trkpt lat="42.90159" lon="1.22883">
        <ele>488.49</ele>
        <time>2014-09-14T10:07:45Z</time>
      </trkpt>
      <trkpt lat="42.90158" lon="1.22892">
        <ele>487.53</ele>
        <time>2014-09-14T10:07:46Z</time>
      </trkpt>
      <trkpt lat="42.90157" lon="1.229">
        <ele>487.05</ele>
        <time>2014-09-14T10:07:47Z</time>
      </trkpt>
      <trkpt lat="42.90153" lon="1.22917">
        <ele>486.56</ele>
        <time>2014-09-14T10:07:49Z</time>
      </trkpt>
      <trkpt lat="42.9015" lon="1.22924">
        <ele>486.56</ele>
        <time>2014-09-14T10:07:50Z</time>
      </trkpt>
      <trkpt lat="42.90146" lon="1.2293">
        <ele>486.56</ele>
        <time>2014-09-14T10:07:51Z</time>
      </trkpt>
      <trkpt lat="42.90141" lon="1.22936">
        <ele>486.56</ele>
        <time>2014-09-14T10:07:52Z</time>
      </trkpt>
      <trkpt lat="42.90135" lon="1.2294">
        <ele>486.56</ele>
        <time>2014-09-14T10:07:53Z</time>
      </trkpt>
      <trkpt lat="42.90129" lon="1.22943">
        <ele>486.56</ele>
        <time>2014-09-14T10:07:54Z</time>
      </trkpt>
      <trkpt lat="42.90122" lon="1.22944">
        <ele>486.08</ele>
        <time>2014-09-14T10:07:55Z</time>
      </trkpt>
      <trkpt lat="42.90115" lon="1.22945">
        <ele>486.08</ele>
        <time>2014-09-14T10:07:56Z</time>
      </trkpt>
      <trkpt lat="42.90108" lon="1.22945">
        <ele>486.08</ele>
        <time>2014-09-14T10:07:57Z</time>
      </trkpt>
      <trkpt lat="42.9004" lon="1.22956">
        <ele>485.12</ele>
        <time>2014-09-14T10:08:08Z</time>
      </trkpt>
      <trkpt lat="42.90034" lon="1.22959">
        <ele>485.12</ele>
        <time>2014-09-14T10:08:09Z</time>
      </trkpt>
      <trkpt lat="42.90029" lon="1.22963">
        <ele>485.12</ele>
        <time>2014-09-14T10:08:10Z</time>
      </trkpt>
      <trkpt lat="42.89948" lon="1.23046">
        <ele>484.64</ele>
        <time>2014-09-14T10:08:26Z</time>
      </trkpt>
      <trkpt lat="42.8993" lon="1.23069">
        <ele>485.6</ele>
        <time>2014-09-14T10:08:30Z</time>
      </trkpt>
      <trkpt lat="42.89924" lon="1.23082">
        <ele>485.6</ele>
        <time>2014-09-14T10:08:32Z</time>
      </trkpt>
      <trkpt lat="42.89905" lon="1.23159">
        <ele>487.53</ele>
        <time>2014-09-14T10:08:42Z</time>
      </trkpt>
      <trkpt lat="42.89905" lon="1.23176">
        <ele>488.01</ele>
        <time>2014-09-14T10:08:44Z</time>
      </trkpt>
      <trkpt lat="42.89906" lon="1.23184">
        <ele>488.49</ele>
        <time>2014-09-14T10:08:45Z</time>
      </trkpt>
      <trkpt lat="42.89907" lon="1.23192">
        <ele>488.97</ele>
        <time>2014-09-14T10:08:46Z</time>
      </trkpt>
      <trkpt lat="42.89909" lon="1.23201">
        <ele>488.97</ele>
        <time>2014-09-14T10:08:47Z</time>
      </trkpt>
      <trkpt lat="42.89911" lon="1.23208">
        <ele>489.45</ele>
        <time>2014-09-14T10:08:48Z</time>
      </trkpt>
      <trkpt lat="42.89914" lon="1.23215">
        <ele>489.45</ele>
        <time>2014-09-14T10:08:49Z</time>
      </trkpt>
      <trkpt lat="42.89917" lon="1.23223">
        <ele>489.45</ele>
        <time>2014-09-14T10:08:50Z</time>
      </trkpt>
      <trkpt lat="42.8996" lon="1.23332">
        <ele>489.45</ele>
        <time>2014-09-14T10:09:04Z</time>
      </trkpt>
      <trkpt lat="42.9001" lon="1.23441">
        <ele>489.93</ele>
        <time>2014-09-14T10:09:18Z</time>
      </trkpt>
      <trkpt lat="42.90025" lon="1.23476">
        <ele>489.93</ele>
        <time>2014-09-14T10:09:23Z</time>
      </trkpt>
      <trkpt lat="42.9003" lon="1.23483">
        <ele>489.93</ele>
        <time>2014-09-14T10:09:24Z</time>
      </trkpt>
      <trkpt lat="42.90079" lon="1.2356">
        <ele>489.93</ele>
        <time>2014-09-14T10:09:36Z</time>
      </trkpt>
      <trkpt lat="42.90139" lon="1.23633">
        <ele>490.41</ele>
        <time>2014-09-14T10:09:49Z</time>
      </trkpt>
      <trkpt lat="42.90198" lon="1.23698">
        <ele>490.89</ele>
        <time>2014-09-14T10:10:02Z</time>
      </trkpt>
      <trkpt lat="42.90223" lon="1.23731">
        <ele>490.89</ele>
        <time>2014-09-14T10:10:08Z</time>
      </trkpt>
      <trkpt lat="42.90226" lon="1.23738">
        <ele>490.89</ele>
        <time>2014-09-14T10:10:09Z</time>
      </trkpt>
      <trkpt lat="42.90228" lon="1.23744">
        <ele>490.89</ele>
        <time>2014-09-14T10:10:10Z</time>
      </trkpt>
      <trkpt lat="42.90233" lon="1.23764">
        <ele>490.89</ele>
        <time>2014-09-14T10:10:13Z</time>
      </trkpt>
      <trkpt lat="42.90234" lon="1.23771">
        <ele>490.89</ele>
        <time>2014-09-14T10:10:14Z</time>
      </trkpt>
      <trkpt lat="42.90235" lon="1.23778">
        <ele>490.89</ele>
        <time>2014-09-14T10:10:15Z</time>
      </trkpt>
      <trkpt lat="42.90235" lon="1.23785">
        <ele>490.89</ele>
        <time>2014-09-14T10:10:16Z</time>
      </trkpt>
      <trkpt lat="42.90234" lon="1.23792">
        <ele>490.89</ele>
        <time>2014-09-14T10:10:17Z</time>
      </trkpt>
      <trkpt lat="42.90234" lon="1.238">
        <ele>490.89</ele>
        <time>2014-09-14T10:10:18Z</time>
      </trkpt>
      <trkpt lat="42.90219" lon="1.23873">
        <ele>485.6</ele>
        <time>2014-09-14T10:10:28Z</time>
      </trkpt>
      <trkpt lat="42.90204" lon="1.23898">
        <ele>489.93</ele>
        <time>2014-09-14T10:10:33Z</time>
      </trkpt>
      <trkpt lat="42.90199" lon="1.23902">
        <ele>490.89</ele>
        <time>2014-09-14T10:10:34Z</time>
      </trkpt>
      <trkpt lat="42.90196" lon="1.23905">
        <ele>491.37</ele>
        <time>2014-09-14T10:10:35Z</time>
      </trkpt>
      <trkpt lat="42.90192" lon="1.23907">
        <ele>492.33</ele>
        <time>2014-09-14T10:10:36Z</time>
      </trkpt>
      <trkpt lat="42.90188" lon="1.23909">
        <ele>493.29</ele>
        <time>2014-09-14T10:10:37Z</time>
      </trkpt>
      <trkpt lat="42.9018" lon="1.23909">
        <ele>491.85</ele>
        <time>2014-09-14T10:10:38Z</time>
      </trkpt>
      <trkpt lat="42.90175" lon="1.2391">
        <ele>492.33</ele>
        <time>2014-09-14T10:10:39Z</time>
      </trkpt>
      <trkpt lat="42.90165" lon="1.23914">
        <ele>492.81</ele>
        <time>2014-09-14T10:10:41Z</time>
      </trkpt>
      <trkpt lat="42.9016" lon="1.23917">
        <ele>492.81</ele>
        <time>2014-09-14T10:10:42Z</time>
      </trkpt>
      <trkpt lat="42.90157" lon="1.23921">
        <ele>493.77</ele>
        <time>2014-09-14T10:10:43Z</time>
      </trkpt>
      <trkpt lat="42.90153" lon="1.23925">
        <ele>494.26</ele>
        <time>2014-09-14T10:10:44Z</time>
      </trkpt>
      <trkpt lat="42.90151" lon="1.23929">
        <ele>494.74</ele>
        <time>2014-09-14T10:10:45Z</time>
      </trkpt>
      <trkpt lat="42.90149" lon="1.23934">
        <ele>494.74</ele>
        <time>2014-09-14T10:10:46Z</time>
      </trkpt>
      <trkpt lat="42.90148" lon="1.23939">
        <ele>495.22</ele>
        <time>2014-09-14T10:10:47Z</time>
      </trkpt>
      <trkpt lat="42.90148" lon="1.23944">
        <ele>495.22</ele>
        <time>2014-09-14T10:10:48Z</time>
      </trkpt>
      <trkpt lat="42.90146" lon="1.23955">
        <ele>496.66</ele>
        <time>2014-09-14T10:10:49Z</time>
      </trkpt>
      <trkpt lat="42.9015" lon="1.24091">
        <ele>497.14</ele>
        <time>2014-09-14T10:11:04Z</time>
      </trkpt>
      <trkpt lat="42.90167" lon="1.24136">
        <ele>497.62</ele>
        <time>2014-09-14T10:11:10Z</time>
      </trkpt>
      <trkpt lat="42.90175" lon="1.24149">
        <ele>497.62</ele>
        <time>2014-09-14T10:11:12Z</time>
      </trkpt>
      <trkpt lat="42.90253" lon="1.2422">
        <ele>497.62</ele>
        <time>2014-09-14T10:11:27Z</time>
      </trkpt>
      <trkpt lat="42.90325" lon="1.24253">
        <ele>498.1</ele>
        <time>2014-09-14T10:11:41Z</time>
      </trkpt>
      <trkpt lat="42.90401" lon="1.24318">
        <ele>498.1</ele>
        <time>2014-09-14T10:11:57Z</time>
      </trkpt>
      <trkpt lat="42.90405" lon="1.24324">
        <ele>498.1</ele>
        <time>2014-09-14T10:11:58Z</time>
      </trkpt>
      <trkpt lat="42.90408" lon="1.24332">
        <ele>498.1</ele>
        <time>2014-09-14T10:11:59Z</time>
      </trkpt>
      <trkpt lat="42.90411" lon="1.24338">
        <ele>498.1</ele>
        <time>2014-09-14T10:12:00Z</time>
      </trkpt>
      <trkpt lat="42.90434" lon="1.24423">
        <ele>498.1</ele>
        <time>2014-09-14T10:12:10Z</time>
      </trkpt>
      <trkpt lat="42.90442" lon="1.24437">
        <ele>498.58</ele>
        <time>2014-09-14T10:12:12Z</time>
      </trkpt>
      <trkpt lat="42.90447" lon="1.24444">
        <ele>498.58</ele>
        <time>2014-09-14T10:12:13Z</time>
      </trkpt>
      <trkpt lat="42.90452" lon="1.24451">
        <ele>498.58</ele>
        <time>2014-09-14T10:12:14Z</time>
      </trkpt>
      <trkpt lat="42.90492" lon="1.24502">
        <ele>498.58</ele>
        <time>2014-09-14T10:12:22Z</time>
      </trkpt>
      <trkpt lat="42.90495" lon="1.2451">
        <ele>498.58</ele>
        <time>2014-09-14T10:12:23Z</time>
      </trkpt>
      <trkpt lat="42.90497" lon="1.24519">
        <ele>498.58</ele>
        <time>2014-09-14T10:12:24Z</time>
      </trkpt>
      <trkpt lat="42.90498" lon="1.24529">
        <ele>498.58</ele>
        <time>2014-09-14T10:12:25Z</time>
      </trkpt>
      <trkpt lat="42.90497" lon="1.24537">
        <ele>498.58</ele>
        <time>2014-09-14T10:12:26Z</time>
      </trkpt>
      <trkpt lat="42.90492" lon="1.2455">
        <ele>499.06</ele>
        <time>2014-09-14T10:12:27Z</time>
      </trkpt>
      <trkpt lat="42.9049" lon="1.24559">
        <ele>497.14</ele>
        <time>2014-09-14T10:12:28Z</time>
      </trkpt>
      <trkpt lat="42.90484" lon="1.24587">
        <ele>492.81</ele>
        <time>2014-09-14T10:12:31Z</time>
      </trkpt>
      <trkpt lat="42.90483" lon="1.24596">
        <ele>492.33</ele>
        <time>2014-09-14T10:12:32Z</time>
      </trkpt>
      <trkpt lat="42.90483" lon="1.24606">
        <ele>493.29</ele>
        <time>2014-09-14T10:12:33Z</time>
      </trkpt>
      <trkpt lat="42.90485" lon="1.24615">
        <ele>493.77</ele>
        <time>2014-09-14T10:12:34Z</time>
      </trkpt>
      <trkpt lat="42.90487" lon="1.24625">
        <ele>493.29</ele>
        <time>2014-09-14T10:12:35Z</time>
      </trkpt>
      <trkpt lat="42.90489" lon="1.24635">
        <ele>493.29</ele>
        <time>2014-09-14T10:12:36Z</time>
      </trkpt>
      <trkpt lat="42.90493" lon="1.24644">
        <ele>493.29</ele>
        <time>2014-09-14T10:12:37Z</time>
      </trkpt>
      <trkpt lat="42.90538" lon="1.24772">
        <ele>495.7</ele>
        <time>2014-09-14T10:12:52Z</time>
      </trkpt>
      <trkpt lat="42.90566" lon="1.24862">
        <ele>497.14</ele>
        <time>2014-09-14T10:13:05Z</time>
      </trkpt>
      <trkpt lat="42.9058" lon="1.24908">
        <ele>497.14</ele>
        <time>2014-09-14T10:13:11Z</time>
      </trkpt>
      <trkpt lat="42.90584" lon="1.24916">
        <ele>497.14</ele>
        <time>2014-09-14T10:13:12Z</time>
      </trkpt>
      <trkpt lat="42.90588" lon="1.24923">
        <ele>497.14</ele>
        <time>2014-09-14T10:13:13Z</time>
      </trkpt>
      <trkpt lat="42.90593" lon="1.24928">
        <ele>497.14</ele>
        <time>2014-09-14T10:13:14Z</time>
      </trkpt>
      <trkpt lat="42.90599" lon="1.24932">
        <ele>497.14</ele>
        <time>2014-09-14T10:13:15Z</time>
      </trkpt>
      <trkpt lat="42.90606" lon="1.24934">
        <ele>497.62</ele>
        <time>2014-09-14T10:13:16Z</time>
      </trkpt>
      <trkpt lat="42.90613" lon="1.24935">
        <ele>497.14</ele>
        <time>2014-09-14T10:13:17Z</time>
      </trkpt>
      <trkpt lat="42.90621" lon="1.24934">
        <ele>497.14</ele>
        <time>2014-09-14T10:13:18Z</time>
      </trkpt>
      <trkpt lat="42.90738" lon="1.24922">
        <ele>499.06</ele>
        <time>2014-09-14T10:13:35Z</time>
      </trkpt>
      <trkpt lat="42.90773" lon="1.24922">
        <ele>500.5</ele>
        <time>2014-09-14T10:13:40Z</time>
      </trkpt>
      <trkpt lat="42.9078" lon="1.24924">
        <ele>500.5</ele>
        <time>2014-09-14T10:13:41Z</time>
      </trkpt>
      <trkpt lat="42.90845" lon="1.24979">
        <ele>501.46</ele>
        <time>2014-09-14T10:13:53Z</time>
      </trkpt>
      <trkpt lat="42.90892" lon="1.25037">
        <ele>501.95</ele>
        <time>2014-09-14T10:14:05Z</time>
      </trkpt>
      <trkpt lat="42.90974" lon="1.25123">
        <ele>502.43</ele>
        <time>2014-09-14T10:14:24Z</time>
      </trkpt>
      <trkpt lat="42.91004" lon="1.25155">
        <ele>502.43</ele>
        <time>2014-09-14T10:14:32Z</time>
      </trkpt>
      <trkpt lat="42.91053" lon="1.25236">
        <ele>502.43</ele>
        <time>2014-09-14T10:14:49Z</time>
      </trkpt>
      <trkpt lat="42.91107" lon="1.25313">
        <ele>502.43</ele>
        <time>2014-09-14T10:15:04Z</time>
      </trkpt>
      <trkpt lat="42.9115" lon="1.25348">
        <ele>502.91</ele>
        <time>2014-09-14T10:15:12Z</time>
      </trkpt>
      <trkpt lat="42.91155" lon="1.25355">
        <ele>502.91</ele>
        <time>2014-09-14T10:15:13Z</time>
      </trkpt>
      <trkpt lat="42.91158" lon="1.25359">
        <ele>502.91</ele>
        <time>2014-09-14T10:15:14Z</time>
      </trkpt>
      <trkpt lat="42.91161" lon="1.25365">
        <ele>502.91</ele>
        <time>2014-09-14T10:15:15Z</time>
      </trkpt>
      <trkpt lat="42.91163" lon="1.25371">
        <ele>502.91</ele>
        <time>2014-09-14T10:15:16Z</time>
      </trkpt>
      <trkpt lat="42.91165" lon="1.25377">
        <ele>502.91</ele>
        <time>2014-09-14T10:15:17Z</time>
      </trkpt>
      <trkpt lat="42.91166" lon="1.25384">
        <ele>502.91</ele>
        <time>2014-09-14T10:15:18Z</time>
      </trkpt>
      <trkpt lat="42.91166" lon="1.2539">
        <ele>502.91</ele>
        <time>2014-09-14T10:15:19Z</time>
      </trkpt>
      <trkpt lat="42.91165" lon="1.25397">
        <ele>502.43</ele>
        <time>2014-09-14T10:15:20Z</time>
      </trkpt>
      <trkpt lat="42.91164" lon="1.25403">
        <ele>502.43</ele>
        <time>2014-09-14T10:15:21Z</time>
      </trkpt>
      <trkpt lat="42.91163" lon="1.2541">
        <ele>502.43</ele>
        <time>2014-09-14T10:15:22Z</time>
      </trkpt>
      <trkpt lat="42.91157" lon="1.25436">
        <ele>502.43</ele>
        <time>2014-09-14T10:15:26Z</time>
      </trkpt>
      <trkpt lat="42.91156" lon="1.25449">
        <ele>502.43</ele>
        <time>2014-09-14T10:15:28Z</time>
      </trkpt>
      <trkpt lat="42.91156" lon="1.25456">
        <ele>502.43</ele>
        <time>2014-09-14T10:15:29Z</time>
      </trkpt>
      <trkpt lat="42.91157" lon="1.25464">
        <ele>502.43</ele>
        <time>2014-09-14T10:15:30Z</time>
      </trkpt>
      <trkpt lat="42.91159" lon="1.2547">
        <ele>502.43</ele>
        <time>2014-09-14T10:15:31Z</time>
      </trkpt>
      <trkpt lat="42.91161" lon="1.25476">
        <ele>502.43</ele>
        <time>2014-09-14T10:15:32Z</time>
      </trkpt>
      <trkpt lat="42.91163" lon="1.25482">
        <ele>502.43</ele>
        <time>2014-09-14T10:15:33Z</time>
      </trkpt>
      <trkpt lat="42.91167" lon="1.25487">
        <ele>502.43</ele>
        <time>2014-09-14T10:15:34Z</time>
      </trkpt>
      <trkpt lat="42.91171" lon="1.25491">
        <ele>502.43</ele>
        <time>2014-09-14T10:15:35Z</time>
      </trkpt>
      <trkpt lat="42.91176" lon="1.25495">
        <ele>502.43</ele>
        <time>2014-09-14T10:15:36Z</time>
      </trkpt>
      <trkpt lat="42.91182" lon="1.25497">
        <ele>502.43</ele>
        <time>2014-09-14T10:15:37Z</time>
      </trkpt>
      <trkpt lat="42.91187" lon="1.255">
        <ele>502.43</ele>
        <time>2014-09-14T10:15:38Z</time>
      </trkpt>
      <trkpt lat="42.91199" lon="1.25503">
        <ele>502.43</ele>
        <time>2014-09-14T10:15:40Z</time>
      </trkpt>
      <trkpt lat="42.91204" lon="1.25504">
        <ele>502.43</ele>
        <time>2014-09-14T10:15:41Z</time>
      </trkpt>
      <trkpt lat="42.9121" lon="1.25503">
        <ele>502.91</ele>
        <time>2014-09-14T10:15:42Z</time>
      </trkpt>
      <trkpt lat="42.91232" lon="1.25498">
        <ele>502.91</ele>
        <time>2014-09-14T10:15:46Z</time>
      </trkpt>
      <trkpt lat="42.91251" lon="1.25486">
        <ele>502.91</ele>
        <time>2014-09-14T10:15:50Z</time>
      </trkpt>
      <trkpt lat="42.91266" lon="1.25469">
        <ele>502.91</ele>
        <time>2014-09-14T10:15:54Z</time>
      </trkpt>
      <trkpt lat="42.91271" lon="1.25465">
        <ele>502.91</ele>
        <time>2014-09-14T10:15:55Z</time>
      </trkpt>
      <trkpt lat="42.91276" lon="1.25463">
        <ele>502.91</ele>
        <time>2014-09-14T10:15:56Z</time>
      </trkpt>
      <trkpt lat="42.91282" lon="1.25461">
        <ele>502.91</ele>
        <time>2014-09-14T10:15:57Z</time>
      </trkpt>
      <trkpt lat="42.91288" lon="1.25462">
        <ele>502.91</ele>
        <time>2014-09-14T10:15:58Z</time>
      </trkpt>
      <trkpt lat="42.91295" lon="1.25463">
        <ele>502.91</ele>
        <time>2014-09-14T10:15:59Z</time>
      </trkpt>
      <trkpt lat="42.913" lon="1.25465">
        <ele>502.91</ele>
        <time>2014-09-14T10:16:00Z</time>
      </trkpt>
      <trkpt lat="42.91306" lon="1.25468">
        <ele>502.91</ele>
        <time>2014-09-14T10:16:01Z</time>
      </trkpt>
      <trkpt lat="42.91311" lon="1.25473">
        <ele>502.91</ele>
        <time>2014-09-14T10:16:02Z</time>
      </trkpt>
      <trkpt lat="42.91314" lon="1.25479">
        <ele>502.91</ele>
        <time>2014-09-14T10:16:03Z</time>
      </trkpt>
      <trkpt lat="42.91317" lon="1.25484">
        <ele>502.91</ele>
        <time>2014-09-14T10:16:04Z</time>
      </trkpt>
      <trkpt lat="42.9132" lon="1.25491">
        <ele>502.91</ele>
        <time>2014-09-14T10:16:05Z</time>
      </trkpt>
      <trkpt lat="42.91323" lon="1.25498">
        <ele>502.91</ele>
        <time>2014-09-14T10:16:06Z</time>
      </trkpt>
      <trkpt lat="42.91335" lon="1.25532">
        <ele>502.91</ele>
        <time>2014-09-14T10:16:11Z</time>
      </trkpt>
      <trkpt lat="42.91338" lon="1.25538">
        <ele>502.91</ele>
        <time>2014-09-14T10:16:12Z</time>
      </trkpt>
      <trkpt lat="42.91341" lon="1.25544">
        <ele>502.91</ele>
        <time>2014-09-14T10:16:13Z</time>
      </trkpt>
      <trkpt lat="42.91345" lon="1.2555">
        <ele>502.91</ele>
        <time>2014-09-14T10:16:14Z</time>
      </trkpt>
      <trkpt lat="42.91349" lon="1.25555">
        <ele>502.91</ele>
        <time>2014-09-14T10:16:15Z</time>
      </trkpt>
      <trkpt lat="42.91354" lon="1.25562">
        <ele>502.91</ele>
        <time>2014-09-14T10:16:16Z</time>
      </trkpt>
      <trkpt lat="42.91357" lon="1.25569">
        <ele>502.91</ele>
        <time>2014-09-14T10:16:17Z</time>
      </trkpt>
      <trkpt lat="42.9136" lon="1.25578">
        <ele>502.91</ele>
        <time>2014-09-14T10:16:18Z</time>
      </trkpt>
      <trkpt lat="42.91362" lon="1.25587">
        <ele>502.91</ele>
        <time>2014-09-14T10:16:19Z</time>
      </trkpt>
      <trkpt lat="42.91362" lon="1.25597">
        <ele>502.91</ele>
        <time>2014-09-14T10:16:20Z</time>
      </trkpt>
      <trkpt lat="42.91362" lon="1.25606">
        <ele>502.91</ele>
        <time>2014-09-14T10:16:21Z</time>
      </trkpt>
      <trkpt lat="42.9136" lon="1.25616">
        <ele>502.91</ele>
        <time>2014-09-14T10:16:22Z</time>
      </trkpt>
      <trkpt lat="42.91352" lon="1.25714">
        <ele>502.91</ele>
        <time>2014-09-14T10:16:32Z</time>
      </trkpt>
      <trkpt lat="42.91354" lon="1.25725">
        <ele>502.91</ele>
        <time>2014-09-14T10:16:33Z</time>
      </trkpt>
      <trkpt lat="42.91357" lon="1.25733">
        <ele>502.91</ele>
        <time>2014-09-14T10:16:34Z</time>
      </trkpt>
      <trkpt lat="42.9136" lon="1.25742">
        <ele>502.91</ele>
        <time>2014-09-14T10:16:35Z</time>
      </trkpt>
      <trkpt lat="42.91363" lon="1.2575">
        <ele>502.91</ele>
        <time>2014-09-14T10:16:36Z</time>
      </trkpt>
      <trkpt lat="42.91367" lon="1.25758">
        <ele>502.91</ele>
        <time>2014-09-14T10:16:37Z</time>
      </trkpt>
      <trkpt lat="42.91406" lon="1.25853">
        <ele>502.91</ele>
        <time>2014-09-14T10:16:49Z</time>
      </trkpt>
      <trkpt lat="42.91407" lon="1.25862">
        <ele>502.91</ele>
        <time>2014-09-14T10:16:50Z</time>
      </trkpt>
      <trkpt lat="42.91408" lon="1.2587">
        <ele>502.91</ele>
        <time>2014-09-14T10:16:51Z</time>
      </trkpt>
      <trkpt lat="42.91407" lon="1.25879">
        <ele>502.91</ele>
        <time>2014-09-14T10:16:52Z</time>
      </trkpt>
      <trkpt lat="42.91407" lon="1.25887">
        <ele>505.79</ele>
        <time>2014-09-14T10:16:53Z</time>
      </trkpt>
      <trkpt lat="42.91405" lon="1.25895">
        <ele>507.23</ele>
        <time>2014-09-14T10:16:54Z</time>
      </trkpt>
      <trkpt lat="42.91403" lon="1.25905">
        <ele>508.67</ele>
        <time>2014-09-14T10:16:55Z</time>
      </trkpt>
      <trkpt lat="42.914" lon="1.25911">
        <ele>510.12</ele>
        <time>2014-09-14T10:16:56Z</time>
      </trkpt>
      <trkpt lat="42.91396" lon="1.25919">
        <ele>511.08</ele>
        <time>2014-09-14T10:16:57Z</time>
      </trkpt>
      <trkpt lat="42.91392" lon="1.25926">
        <ele>513</ele>
        <time>2014-09-14T10:16:58Z</time>
      </trkpt>
      <trkpt lat="42.91373" lon="1.25951">
        <ele>513</ele>
        <time>2014-09-14T10:17:02Z</time>
      </trkpt>
      <trkpt lat="42.9137" lon="1.25957">
        <ele>513</ele>
        <time>2014-09-14T10:17:03Z</time>
      </trkpt>
      <trkpt lat="42.91367" lon="1.25964">
        <ele>513</ele>
        <time>2014-09-14T10:17:04Z</time>
      </trkpt>
      <trkpt lat="42.91364" lon="1.25971">
        <ele>513</ele>
        <time>2014-09-14T10:17:05Z</time>
      </trkpt>
      <trkpt lat="42.91362" lon="1.25978">
        <ele>513</ele>
        <time>2014-09-14T10:17:06Z</time>
      </trkpt>
      <trkpt lat="42.9136" lon="1.25986">
        <ele>513</ele>
        <time>2014-09-14T10:17:07Z</time>
      </trkpt>
      <trkpt lat="42.9136" lon="1.25994">
        <ele>513</ele>
        <time>2014-09-14T10:17:08Z</time>
      </trkpt>
      <trkpt lat="42.91359" lon="1.26002">
        <ele>513</ele>
        <time>2014-09-14T10:17:09Z</time>
      </trkpt>
      <trkpt lat="42.9136" lon="1.26012">
        <ele>513</ele>
        <time>2014-09-14T10:17:10Z</time>
      </trkpt>
      <trkpt lat="42.91361" lon="1.2602">
        <ele>513</ele>
        <time>2014-09-14T10:17:11Z</time>
      </trkpt>
      <trkpt lat="42.91363" lon="1.26029">
        <ele>513</ele>
        <time>2014-09-14T10:17:12Z</time>
      </trkpt>
      <trkpt lat="42.91365" lon="1.26037">
        <ele>513</ele>
        <time>2014-09-14T10:17:13Z</time>
      </trkpt>
      <trkpt lat="42.91368" lon="1.26045">
        <ele>513</ele>
        <time>2014-09-14T10:17:14Z</time>
      </trkpt>
      <trkpt lat="42.91392" lon="1.26123">
        <ele>513</ele>
        <time>2014-09-14T10:17:24Z</time>
      </trkpt>
      <trkpt lat="42.91393" lon="1.26131">
        <ele>513</ele>
        <time>2014-09-14T10:17:25Z</time>
      </trkpt>
      <trkpt lat="42.91393" lon="1.26148">
        <ele>513</ele>
        <time>2014-09-14T10:17:27Z</time>
      </trkpt>
      <trkpt lat="42.91392" lon="1.26156">
        <ele>513</ele>
        <time>2014-09-14T10:17:28Z</time>
      </trkpt>
      <trkpt lat="42.9139" lon="1.26164">
        <ele>513</ele>
        <time>2014-09-14T10:17:29Z</time>
      </trkpt>
      <trkpt lat="42.91348" lon="1.26284">
        <ele>513</ele>
        <time>2014-09-14T10:17:45Z</time>
      </trkpt>
      <trkpt lat="42.91336" lon="1.26338">
        <ele>513</ele>
        <time>2014-09-14T10:17:52Z</time>
      </trkpt>
      <trkpt lat="42.91335" lon="1.26347">
        <ele>513</ele>
        <time>2014-09-14T10:17:53Z</time>
      </trkpt>
      <trkpt lat="42.91335" lon="1.26363">
        <ele>513</ele>
        <time>2014-09-14T10:17:55Z</time>
      </trkpt>
      <trkpt lat="42.91336" lon="1.2637">
        <ele>513</ele>
        <time>2014-09-14T10:17:56Z</time>
      </trkpt>
      <trkpt lat="42.91337" lon="1.26377">
        <ele>513</ele>
        <time>2014-09-14T10:17:57Z</time>
      </trkpt>
      <trkpt lat="42.9134" lon="1.26382">
        <ele>513</ele>
        <time>2014-09-14T10:17:58Z</time>
      </trkpt>
      <trkpt lat="42.91344" lon="1.26388">
        <ele>513</ele>
        <time>2014-09-14T10:17:59Z</time>
      </trkpt>
      <trkpt lat="42.9135" lon="1.26394">
        <ele>513</ele>
        <time>2014-09-14T10:18:00Z</time>
      </trkpt>
      <trkpt lat="42.91356" lon="1.26398">
        <ele>513</ele>
        <time>2014-09-14T10:18:01Z</time>
      </trkpt>
      <trkpt lat="42.91362" lon="1.26402">
        <ele>513</ele>
        <time>2014-09-14T10:18:02Z</time>
      </trkpt>
      <trkpt lat="42.91369" lon="1.26406">
        <ele>513</ele>
        <time>2014-09-14T10:18:03Z</time>
      </trkpt>
      <trkpt lat="42.91453" lon="1.26431">
        <ele>513.48</ele>
        <time>2014-09-14T10:18:16Z</time>
      </trkpt>
      <trkpt lat="42.91515" lon="1.26431">
        <ele>513.48</ele>
        <time>2014-09-14T10:18:26Z</time>
      </trkpt>
      <trkpt lat="42.91522" lon="1.26434">
        <ele>513.48</ele>
        <time>2014-09-14T10:18:27Z</time>
      </trkpt>
      <trkpt lat="42.91528" lon="1.26438">
        <ele>513.48</ele>
        <time>2014-09-14T10:18:28Z</time>
      </trkpt>
      <trkpt lat="42.91531" lon="1.26444">
        <ele>513.48</ele>
        <time>2014-09-14T10:18:29Z</time>
      </trkpt>
      <trkpt lat="42.91533" lon="1.2645">
        <ele>513.48</ele>
        <time>2014-09-14T10:18:30Z</time>
      </trkpt>
      <trkpt lat="42.91537" lon="1.26455">
        <ele>515.4</ele>
        <time>2014-09-14T10:18:31Z</time>
      </trkpt>
      <trkpt lat="42.91537" lon="1.2646">
        <ele>517.33</ele>
        <time>2014-09-14T10:18:32Z</time>
      </trkpt>
      <trkpt lat="42.91535" lon="1.26467">
        <ele>518.29</ele>
        <time>2014-09-14T10:18:33Z</time>
      </trkpt>
      <trkpt lat="42.91529" lon="1.2648">
        <ele>519.25</ele>
        <time>2014-09-14T10:18:35Z</time>
      </trkpt>
      <trkpt lat="42.91466" lon="1.26586">
        <ele>527.42</ele>
        <time>2014-09-14T10:18:51Z</time>
      </trkpt>
      <trkpt lat="42.91384" lon="1.26658">
        <ele>530.3</ele>
        <time>2014-09-14T10:19:06Z</time>
      </trkpt>
      <trkpt lat="42.91297" lon="1.26723">
        <ele>530.79</ele>
        <time>2014-09-14T10:19:22Z</time>
      </trkpt>
      <trkpt lat="42.91226" lon="1.26816">
        <ele>532.23</ele>
        <time>2014-09-14T10:19:37Z</time>
      </trkpt>
      <trkpt lat="42.9115" lon="1.26894">
        <ele>530.79</ele>
        <time>2014-09-14T10:19:51Z</time>
      </trkpt>
      <trkpt lat="42.9109" lon="1.26928">
        <ele>532.23</ele>
        <time>2014-09-14T10:20:01Z</time>
      </trkpt>
      <trkpt lat="42.91085" lon="1.26934">
        <ele>532.23</ele>
        <time>2014-09-14T10:20:02Z</time>
      </trkpt>
      <trkpt lat="42.91081" lon="1.2694">
        <ele>532.23</ele>
        <time>2014-09-14T10:20:03Z</time>
      </trkpt>
      <trkpt lat="42.91078" lon="1.26947">
        <ele>532.23</ele>
        <time>2014-09-14T10:20:04Z</time>
      </trkpt>
      <trkpt lat="42.91076" lon="1.26954">
        <ele>532.23</ele>
        <time>2014-09-14T10:20:05Z</time>
      </trkpt>
      <trkpt lat="42.91075" lon="1.2696">
        <ele>532.23</ele>
        <time>2014-09-14T10:20:06Z</time>
      </trkpt>
      <trkpt lat="42.91074" lon="1.26967">
        <ele>532.23</ele>
        <time>2014-09-14T10:20:07Z</time>
      </trkpt>
      <trkpt lat="42.91072" lon="1.26978">
        <ele>532.23</ele>
        <time>2014-09-14T10:20:08Z</time>
      </trkpt>
      <trkpt lat="42.91072" lon="1.26989">
        <ele>532.23</ele>
        <time>2014-09-14T10:20:09Z</time>
      </trkpt>
      <trkpt lat="42.9107" lon="1.27107">
        <ele>532.71</ele>
        <time>2014-09-14T10:20:22Z</time>
      </trkpt>
      <trkpt lat="42.91065" lon="1.27129">
        <ele>532.71</ele>
        <time>2014-09-14T10:20:25Z</time>
      </trkpt>
      <trkpt lat="42.91062" lon="1.27136">
        <ele>532.71</ele>
        <time>2014-09-14T10:20:26Z</time>
      </trkpt>
      <trkpt lat="42.91059" lon="1.27142">
        <ele>532.71</ele>
        <time>2014-09-14T10:20:27Z</time>
      </trkpt>
      <trkpt lat="42.91055" lon="1.27148">
        <ele>532.71</ele>
        <time>2014-09-14T10:20:28Z</time>
      </trkpt>
      <trkpt lat="42.91051" lon="1.27153">
        <ele>532.71</ele>
        <time>2014-09-14T10:20:29Z</time>
      </trkpt>
      <trkpt lat="42.91046" lon="1.27158">
        <ele>532.71</ele>
        <time>2014-09-14T10:20:30Z</time>
      </trkpt>
      <trkpt lat="42.91041" lon="1.27162">
        <ele>532.23</ele>
        <time>2014-09-14T10:20:31Z</time>
      </trkpt>
      <trkpt lat="42.91036" lon="1.27165">
        <ele>532.23</ele>
        <time>2014-09-14T10:20:32Z</time>
      </trkpt>
      <trkpt lat="42.9103" lon="1.27167">
        <ele>532.23</ele>
        <time>2014-09-14T10:20:33Z</time>
      </trkpt>
      <trkpt lat="42.91024" lon="1.27169">
        <ele>532.23</ele>
        <time>2014-09-14T10:20:34Z</time>
      </trkpt>
      <trkpt lat="42.90932" lon="1.27175">
        <ele>531.27</ele>
        <time>2014-09-14T10:20:48Z</time>
      </trkpt>
      <trkpt lat="42.90909" lon="1.2717">
        <ele>531.27</ele>
        <time>2014-09-14T10:20:52Z</time>
      </trkpt>
      <trkpt lat="42.90894" lon="1.2717">
        <ele>531.27</ele>
        <time>2014-09-14T10:20:55Z</time>
      </trkpt>
      <trkpt lat="42.90857" lon="1.27187">
        <ele>531.27</ele>
        <time>2014-09-14T10:21:05Z</time>
      </trkpt>
      <trkpt lat="42.90856" lon="1.27189">
        <ele>531.75</ele>
        <time>2014-09-14T10:21:06Z</time>
      </trkpt>
      <trkpt lat="42.90856" lon="1.27192">
        <ele>531.75</ele>
        <time>2014-09-14T10:21:07Z</time>
      </trkpt>
      <trkpt lat="42.90853" lon="1.27202">
        <ele>531.27</ele>
        <time>2014-09-14T10:21:08Z</time>
      </trkpt>
      <trkpt lat="42.90836" lon="1.27302">
        <ele>531.27</ele>
        <time>2014-09-14T10:21:17Z</time>
      </trkpt>
      <trkpt lat="42.90837" lon="1.2731">
        <ele>531.27</ele>
        <time>2014-09-14T10:21:18Z</time>
      </trkpt>
      <trkpt lat="42.90838" lon="1.27318">
        <ele>531.27</ele>
        <time>2014-09-14T10:21:19Z</time>
      </trkpt>
      <trkpt lat="42.90844" lon="1.27341">
        <ele>531.27</ele>
        <time>2014-09-14T10:21:22Z</time>
      </trkpt>
      <trkpt lat="42.90845" lon="1.27348">
        <ele>531.27</ele>
        <time>2014-09-14T10:21:23Z</time>
      </trkpt>
      <trkpt lat="42.90845" lon="1.27355">
        <ele>531.27</ele>
        <time>2014-09-14T10:21:24Z</time>
      </trkpt>
      <trkpt lat="42.90845" lon="1.27363">
        <ele>531.27</ele>
        <time>2014-09-14T10:21:25Z</time>
      </trkpt>
      <trkpt lat="42.90843" lon="1.27369">
        <ele>531.27</ele>
        <time>2014-09-14T10:21:26Z</time>
      </trkpt>
      <trkpt lat="42.90841" lon="1.27375">
        <ele>531.27</ele>
        <time>2014-09-14T10:21:27Z</time>
      </trkpt>
      <trkpt lat="42.90838" lon="1.2738">
        <ele>531.27</ele>
        <time>2014-09-14T10:21:28Z</time>
      </trkpt>
      <trkpt lat="42.90834" lon="1.27384">
        <ele>531.27</ele>
        <time>2014-09-14T10:21:29Z</time>
      </trkpt>
      <trkpt lat="42.90829" lon="1.27388">
        <ele>531.27</ele>
        <time>2014-09-14T10:21:30Z</time>
      </trkpt>
      <trkpt lat="42.90826" lon="1.27391">
        <ele>531.27</ele>
        <time>2014-09-14T10:21:31Z</time>
      </trkpt>
      <trkpt lat="42.90813" lon="1.27401">
        <ele>531.27</ele>
        <time>2014-09-14T10:21:34Z</time>
      </trkpt>
      <trkpt lat="42.90798" lon="1.27413">
        <ele>531.27</ele>
        <time>2014-09-14T10:21:38Z</time>
      </trkpt>
      <trkpt lat="42.90794" lon="1.27418">
        <ele>531.27</ele>
        <time>2014-09-14T10:21:39Z</time>
      </trkpt>
      <trkpt lat="42.90791" lon="1.27422">
        <ele>531.27</ele>
        <time>2014-09-14T10:21:40Z</time>
      </trkpt>
      <trkpt lat="42.90789" lon="1.27427">
        <ele>531.27</ele>
        <time>2014-09-14T10:21:41Z</time>
      </trkpt>
      <trkpt lat="42.90787" lon="1.27434">
        <ele>531.27</ele>
        <time>2014-09-14T10:21:42Z</time>
      </trkpt>
      <trkpt lat="42.90785" lon="1.27441">
        <ele>531.27</ele>
        <time>2014-09-14T10:21:43Z</time>
      </trkpt>
      <trkpt lat="42.90783" lon="1.27449">
        <ele>531.27</ele>
        <time>2014-09-14T10:21:44Z</time>
      </trkpt>
      <trkpt lat="42.90782" lon="1.27458">
        <ele>531.27</ele>
        <time>2014-09-14T10:21:45Z</time>
      </trkpt>
      <trkpt lat="42.90782" lon="1.27467">
        <ele>530.79</ele>
        <time>2014-09-14T10:21:46Z</time>
      </trkpt>
      <trkpt lat="42.90783" lon="1.27477">
        <ele>530.79</ele>
        <time>2014-09-14T10:21:47Z</time>
      </trkpt>
      <trkpt lat="42.90784" lon="1.27484">
        <ele>530.79</ele>
        <time>2014-09-14T10:21:48Z</time>
      </trkpt>
      <trkpt lat="42.90785" lon="1.27492">
        <ele>530.79</ele>
        <time>2014-09-14T10:21:49Z</time>
      </trkpt>
      <trkpt lat="42.90787" lon="1.275">
        <ele>530.79</ele>
        <time>2014-09-14T10:21:50Z</time>
      </trkpt>
      <trkpt lat="42.9079" lon="1.27508">
        <ele>530.79</ele>
        <time>2014-09-14T10:21:51Z</time>
      </trkpt>
      <trkpt lat="42.90809" lon="1.27541">
        <ele>530.3</ele>
        <time>2014-09-14T10:21:56Z</time>
      </trkpt>
      <trkpt lat="42.90813" lon="1.27546">
        <ele>530.3</ele>
        <time>2014-09-14T10:21:57Z</time>
      </trkpt>
      <trkpt lat="42.90819" lon="1.27551">
        <ele>530.3</ele>
        <time>2014-09-14T10:21:58Z</time>
      </trkpt>
      <trkpt lat="42.90823" lon="1.27555">
        <ele>530.3</ele>
        <time>2014-09-14T10:21:59Z</time>
      </trkpt>
      <trkpt lat="42.90829" lon="1.27558">
        <ele>530.3</ele>
        <time>2014-09-14T10:22:00Z</time>
      </trkpt>
      <trkpt lat="42.90835" lon="1.27562">
        <ele>529.82</ele>
        <time>2014-09-14T10:22:01Z</time>
      </trkpt>
      <trkpt lat="42.90841" lon="1.27564">
        <ele>529.82</ele>
        <time>2014-09-14T10:22:02Z</time>
      </trkpt>
      <trkpt lat="42.90878" lon="1.27578">
        <ele>529.34</ele>
        <time>2014-09-14T10:22:08Z</time>
      </trkpt>
      <trkpt lat="42.90884" lon="1.27582">
        <ele>529.34</ele>
        <time>2014-09-14T10:22:09Z</time>
      </trkpt>
      <trkpt lat="42.9089" lon="1.27587">
        <ele>529.34</ele>
        <time>2014-09-14T10:22:10Z</time>
      </trkpt>
      <trkpt lat="42.90895" lon="1.27593">
        <ele>529.34</ele>
        <time>2014-09-14T10:22:11Z</time>
      </trkpt>
      <trkpt lat="42.90899" lon="1.276">
        <ele>529.34</ele>
        <time>2014-09-14T10:22:12Z</time>
      </trkpt>
      <trkpt lat="42.90902" lon="1.27608">
        <ele>529.34</ele>
        <time>2014-09-14T10:22:13Z</time>
      </trkpt>
      <trkpt lat="42.90905" lon="1.27618">
        <ele>529.34</ele>
        <time>2014-09-14T10:22:14Z</time>
      </trkpt>
      <trkpt lat="42.90906" lon="1.27626">
        <ele>529.34</ele>
        <time>2014-09-14T10:22:15Z</time>
      </trkpt>
      <trkpt lat="42.90906" lon="1.27636">
        <ele>529.34</ele>
        <time>2014-09-14T10:22:16Z</time>
      </trkpt>
      <trkpt lat="42.90906" lon="1.27645">
        <ele>529.82</ele>
        <time>2014-09-14T10:22:17Z</time>
      </trkpt>
      <trkpt lat="42.90905" lon="1.27654">
        <ele>529.82</ele>
        <time>2014-09-14T10:22:18Z</time>
      </trkpt>
      <trkpt lat="42.90904" lon="1.27663">
        <ele>529.82</ele>
        <time>2014-09-14T10:22:19Z</time>
      </trkpt>
      <trkpt lat="42.90902" lon="1.27673">
        <ele>530.3</ele>
        <time>2014-09-14T10:22:20Z</time>
      </trkpt>
      <trkpt lat="42.909" lon="1.2768">
        <ele>530.3</ele>
        <time>2014-09-14T10:22:21Z</time>
      </trkpt>
      <trkpt lat="42.90897" lon="1.27689">
        <ele>530.79</ele>
        <time>2014-09-14T10:22:22Z</time>
      </trkpt>
      <trkpt lat="42.90862" lon="1.27786">
        <ele>532.71</ele>
        <time>2014-09-14T10:22:35Z</time>
      </trkpt>
      <trkpt lat="42.9085" lon="1.27807">
        <ele>532.71</ele>
        <time>2014-09-14T10:22:38Z</time>
      </trkpt>
      <trkpt lat="42.90846" lon="1.27813">
        <ele>532.71</ele>
        <time>2014-09-14T10:22:39Z</time>
      </trkpt>
      <trkpt lat="42.90796" lon="1.2792">
        <ele>532.23</ele>
        <time>2014-09-14T10:22:54Z</time>
      </trkpt>
      <trkpt lat="42.90769" lon="1.27978">
        <ele>531.27</ele>
        <time>2014-09-14T10:23:02Z</time>
      </trkpt>
      <trkpt lat="42.90766" lon="1.27986">
        <ele>531.27</ele>
        <time>2014-09-14T10:23:03Z</time>
      </trkpt>
      <trkpt lat="42.90764" lon="1.28003">
        <ele>530.79</ele>
        <time>2014-09-14T10:23:05Z</time>
      </trkpt>
      <trkpt lat="42.90762" lon="1.28029">
        <ele>529.82</ele>
        <time>2014-09-14T10:23:08Z</time>
      </trkpt>
      <trkpt lat="42.90764" lon="1.28037">
        <ele>529.82</ele>
        <time>2014-09-14T10:23:09Z</time>
      </trkpt>
      <trkpt lat="42.90766" lon="1.28046">
        <ele>529.82</ele>
        <time>2014-09-14T10:23:10Z</time>
      </trkpt>
      <trkpt lat="42.9077" lon="1.28053">
        <ele>529.82</ele>
        <time>2014-09-14T10:23:11Z</time>
      </trkpt>
      <trkpt lat="42.90775" lon="1.28059">
        <ele>529.82</ele>
        <time>2014-09-14T10:23:12Z</time>
      </trkpt>
      <trkpt lat="42.9078" lon="1.28065">
        <ele>529.82</ele>
        <time>2014-09-14T10:23:13Z</time>
      </trkpt>
      <trkpt lat="42.90786" lon="1.2807">
        <ele>529.82</ele>
        <time>2014-09-14T10:23:14Z</time>
      </trkpt>
      <trkpt lat="42.9079" lon="1.28074">
        <ele>529.82</ele>
        <time>2014-09-14T10:23:15Z</time>
      </trkpt>
      <trkpt lat="42.90796" lon="1.28078">
        <ele>529.82</ele>
        <time>2014-09-14T10:23:16Z</time>
      </trkpt>
      <trkpt lat="42.90803" lon="1.28081">
        <ele>529.82</ele>
        <time>2014-09-14T10:23:17Z</time>
      </trkpt>
      <trkpt lat="42.90809" lon="1.28084">
        <ele>529.82</ele>
        <time>2014-09-14T10:23:18Z</time>
      </trkpt>
      <trkpt lat="42.90901" lon="1.281">
        <ele>529.82</ele>
        <time>2014-09-14T10:23:32Z</time>
      </trkpt>
      <trkpt lat="42.90987" lon="1.28107">
        <ele>530.79</ele>
        <time>2014-09-14T10:23:46Z</time>
      </trkpt>
      <trkpt lat="42.90998" lon="1.28112">
        <ele>531.27</ele>
        <time>2014-09-14T10:23:48Z</time>
      </trkpt>
      <trkpt lat="42.91041" lon="1.28147">
        <ele>531.75</ele>
        <time>2014-09-14T10:23:55Z</time>
      </trkpt>
      <trkpt lat="42.91046" lon="1.28153">
        <ele>531.75</ele>
        <time>2014-09-14T10:23:56Z</time>
      </trkpt>
      <trkpt lat="42.9105" lon="1.28159">
        <ele>532.23</ele>
        <time>2014-09-14T10:23:57Z</time>
      </trkpt>
      <trkpt lat="42.91053" lon="1.28166">
        <ele>532.71</ele>
        <time>2014-09-14T10:23:58Z</time>
      </trkpt>
      <trkpt lat="42.91056" lon="1.28173">
        <ele>533.19</ele>
        <time>2014-09-14T10:23:59Z</time>
      </trkpt>
      <trkpt lat="42.91059" lon="1.28181">
        <ele>533.67</ele>
        <time>2014-09-14T10:24:00Z</time>
      </trkpt>
      <trkpt lat="42.91059" lon="1.28191">
        <ele>533.67</ele>
        <time>2014-09-14T10:24:01Z</time>
      </trkpt>
      <trkpt lat="42.9106" lon="1.282">
        <ele>534.15</ele>
        <time>2014-09-14T10:24:02Z</time>
      </trkpt>
      <trkpt lat="42.9106" lon="1.28209">
        <ele>534.63</ele>
        <time>2014-09-14T10:24:03Z</time>
      </trkpt>
      <trkpt lat="42.91059" lon="1.28219">
        <ele>535.11</ele>
        <time>2014-09-14T10:24:04Z</time>
      </trkpt>
      <trkpt lat="42.91057" lon="1.28229">
        <ele>535.59</ele>
        <time>2014-09-14T10:24:05Z</time>
      </trkpt>
      <trkpt lat="42.91054" lon="1.28239">
        <ele>536.07</ele>
        <time>2014-09-14T10:24:06Z</time>
      </trkpt>
      <trkpt lat="42.91028" lon="1.28376">
        <ele>539.92</ele>
        <time>2014-09-14T10:24:20Z</time>
      </trkpt>
      <trkpt lat="42.91011" lon="1.28515">
        <ele>543.76</ele>
        <time>2014-09-14T10:24:35Z</time>
      </trkpt>
      <trkpt lat="42.9098" lon="1.28639">
        <ele>546.65</ele>
        <time>2014-09-14T10:24:49Z</time>
      </trkpt>
      <trkpt lat="42.90941" lon="1.28763">
        <ele>548.09</ele>
        <time>2014-09-14T10:25:04Z</time>
      </trkpt>
      <trkpt lat="42.90906" lon="1.28882">
        <ele>548.09</ele>
        <time>2014-09-14T10:25:18Z</time>
      </trkpt>
      <trkpt lat="42.90873" lon="1.28992">
        <ele>548.57</ele>
        <time>2014-09-14T10:25:31Z</time>
      </trkpt>
      <trkpt lat="42.90852" lon="1.29084">
        <ele>549.05</ele>
        <time>2014-09-14T10:25:42Z</time>
      </trkpt>
      <trkpt lat="42.9084" lon="1.29114">
        <ele>549.05</ele>
        <time>2014-09-14T10:25:46Z</time>
      </trkpt>
      <trkpt lat="42.90776" lon="1.29202">
        <ele>550.01</ele>
        <time>2014-09-14T10:26:00Z</time>
      </trkpt>
      <trkpt lat="42.90771" lon="1.29206">
        <ele>550.01</ele>
        <time>2014-09-14T10:26:01Z</time>
      </trkpt>
      <trkpt lat="42.90765" lon="1.2921">
        <ele>550.01</ele>
        <time>2014-09-14T10:26:02Z</time>
      </trkpt>
      <trkpt lat="42.90689" lon="1.29235">
        <ele>550.01</ele>
        <time>2014-09-14T10:26:15Z</time>
      </trkpt>
      <trkpt lat="42.90604" lon="1.29219">
        <ele>549.05</ele>
        <time>2014-09-14T10:26:28Z</time>
      </trkpt>
      <trkpt lat="42.90519" lon="1.29213">
        <ele>550.49</ele>
        <time>2014-09-14T10:26:42Z</time>
      </trkpt>
      <trkpt lat="42.90437" lon="1.29196">
        <ele>554.82</ele>
        <time>2014-09-14T10:26:55Z</time>
      </trkpt>
      <trkpt lat="42.9034" lon="1.29176">
        <ele>557.22</ele>
        <time>2014-09-14T10:27:11Z</time>
      </trkpt>
      <trkpt lat="42.90335" lon="1.29178">
        <ele>557.22</ele>
        <time>2014-09-14T10:27:12Z</time>
      </trkpt>
      <trkpt lat="42.90331" lon="1.29181">
        <ele>557.22</ele>
        <time>2014-09-14T10:27:13Z</time>
      </trkpt>
      <trkpt lat="42.90328" lon="1.29184">
        <ele>557.22</ele>
        <time>2014-09-14T10:27:14Z</time>
      </trkpt>
      <trkpt lat="42.90325" lon="1.29188">
        <ele>557.22</ele>
        <time>2014-09-14T10:27:15Z</time>
      </trkpt>
      <trkpt lat="42.90322" lon="1.29193">
        <ele>557.22</ele>
        <time>2014-09-14T10:27:16Z</time>
      </trkpt>
      <trkpt lat="42.90321" lon="1.29199">
        <ele>557.22</ele>
        <time>2014-09-14T10:27:17Z</time>
      </trkpt>
      <trkpt lat="42.9032" lon="1.29204">
        <ele>557.22</ele>
        <time>2014-09-14T10:27:18Z</time>
      </trkpt>
      <trkpt lat="42.9032" lon="1.29211">
        <ele>557.22</ele>
        <time>2014-09-14T10:27:19Z</time>
      </trkpt>
      <trkpt lat="42.90321" lon="1.29219">
        <ele>557.22</ele>
        <time>2014-09-14T10:27:20Z</time>
      </trkpt>
      <trkpt lat="42.90317" lon="1.29236">
        <ele>556.26</ele>
        <time>2014-09-14T10:27:21Z</time>
      </trkpt>
      <trkpt lat="42.90316" lon="1.29249">
        <ele>555.78</ele>
        <time>2014-09-14T10:27:22Z</time>
      </trkpt>
      <trkpt lat="42.90341" lon="1.29352">
        <ele>556.26</ele>
        <time>2014-09-14T10:27:34Z</time>
      </trkpt>
      <trkpt lat="42.90354" lon="1.29398">
        <ele>557.22</ele>
        <time>2014-09-14T10:27:40Z</time>
      </trkpt>
      <trkpt lat="42.90355" lon="1.29405">
        <ele>557.22</ele>
        <time>2014-09-14T10:27:41Z</time>
      </trkpt>
      <trkpt lat="42.90355" lon="1.29413">
        <ele>557.7</ele>
        <time>2014-09-14T10:27:42Z</time>
      </trkpt>
      <trkpt lat="42.90355" lon="1.29421">
        <ele>557.7</ele>
        <time>2014-09-14T10:27:43Z</time>
      </trkpt>
      <trkpt lat="42.90354" lon="1.29428">
        <ele>557.7</ele>
        <time>2014-09-14T10:27:44Z</time>
      </trkpt>
      <trkpt lat="42.90353" lon="1.29436">
        <ele>557.7</ele>
        <time>2014-09-14T10:27:45Z</time>
      </trkpt>
      <trkpt lat="42.90351" lon="1.29444">
        <ele>557.7</ele>
        <time>2014-09-14T10:27:46Z</time>
      </trkpt>
      <trkpt lat="42.90316" lon="1.29555">
        <ele>560.59</ele>
        <time>2014-09-14T10:28:01Z</time>
      </trkpt>
      <trkpt lat="42.90307" lon="1.29585">
        <ele>560.11</ele>
        <time>2014-09-14T10:28:05Z</time>
      </trkpt>
      <trkpt lat="42.90304" lon="1.29592">
        <ele>560.59</ele>
        <time>2014-09-14T10:28:06Z</time>
      </trkpt>
      <trkpt lat="42.90301" lon="1.29598">
        <ele>560.59</ele>
        <time>2014-09-14T10:28:07Z</time>
      </trkpt>
      <trkpt lat="42.90297" lon="1.29604">
        <ele>561.07</ele>
        <time>2014-09-14T10:28:08Z</time>
      </trkpt>
      <trkpt lat="42.90292" lon="1.29609">
        <ele>561.07</ele>
        <time>2014-09-14T10:28:09Z</time>
      </trkpt>
      <trkpt lat="42.90287" lon="1.29613">
        <ele>561.55</ele>
        <time>2014-09-14T10:28:10Z</time>
      </trkpt>
      <trkpt lat="42.90227" lon="1.29663">
        <ele>565.39</ele>
        <time>2014-09-14T10:28:21Z</time>
      </trkpt>
      <trkpt lat="42.90223" lon="1.29668">
        <ele>565.87</ele>
        <time>2014-09-14T10:28:22Z</time>
      </trkpt>
      <trkpt lat="42.90219" lon="1.29675">
        <ele>565.87</ele>
        <time>2014-09-14T10:28:23Z</time>
      </trkpt>
      <trkpt lat="42.90212" lon="1.29688">
        <ele>565.87</ele>
        <time>2014-09-14T10:28:25Z</time>
      </trkpt>
      <trkpt lat="42.90171" lon="1.29818">
        <ele>567.8</ele>
        <time>2014-09-14T10:28:40Z</time>
      </trkpt>
      <trkpt lat="42.90145" lon="1.29946">
        <ele>568.28</ele>
        <time>2014-09-14T10:28:56Z</time>
      </trkpt>
      <trkpt lat="42.90129" lon="1.30062">
        <ele>568.28</ele>
        <time>2014-09-14T10:29:10Z</time>
      </trkpt>
      <trkpt lat="42.90122" lon="1.30091">
        <ele>567.8</ele>
        <time>2014-09-14T10:29:14Z</time>
      </trkpt>
      <trkpt lat="42.90119" lon="1.30098">
        <ele>567.8</ele>
        <time>2014-09-14T10:29:15Z</time>
      </trkpt>
      <trkpt lat="42.90117" lon="1.30104">
        <ele>567.32</ele>
        <time>2014-09-14T10:29:16Z</time>
      </trkpt>
      <trkpt lat="42.90115" lon="1.30113">
        <ele>567.8</ele>
        <time>2014-09-14T10:29:17Z</time>
      </trkpt>
      <trkpt lat="42.90113" lon="1.30119">
        <ele>567.8</ele>
        <time>2014-09-14T10:29:18Z</time>
      </trkpt>
      <trkpt lat="42.90109" lon="1.30134">
        <ele>568.28</ele>
        <time>2014-09-14T10:29:20Z</time>
      </trkpt>
      <trkpt lat="42.90107" lon="1.30142">
        <ele>568.76</ele>
        <time>2014-09-14T10:29:21Z</time>
      </trkpt>
      <trkpt lat="42.90101" lon="1.30184">
        <ele>570.2</ele>
        <time>2014-09-14T10:29:26Z</time>
      </trkpt>
      <trkpt lat="42.90099" lon="1.30192">
        <ele>570.68</ele>
        <time>2014-09-14T10:29:27Z</time>
      </trkpt>
      <trkpt lat="42.90096" lon="1.30199">
        <ele>570.68</ele>
        <time>2014-09-14T10:29:28Z</time>
      </trkpt>
      <trkpt lat="42.90043" lon="1.30283">
        <ele>574.53</ele>
        <time>2014-09-14T10:29:41Z</time>
      </trkpt>
      <trkpt lat="42.90039" lon="1.3029">
        <ele>574.53</ele>
        <time>2014-09-14T10:29:42Z</time>
      </trkpt>
      <trkpt lat="42.90037" lon="1.30297">
        <ele>574.53</ele>
        <time>2014-09-14T10:29:43Z</time>
      </trkpt>
      <trkpt lat="42.90007" lon="1.30423">
        <ele>575.49</ele>
        <time>2014-09-14T10:29:58Z</time>
      </trkpt>
      <trkpt lat="42.90017" lon="1.30524">
        <ele>577.41</ele>
        <time>2014-09-14T10:30:10Z</time>
      </trkpt>
      <trkpt lat="42.90021" lon="1.3055">
        <ele>578.37</ele>
        <time>2014-09-14T10:30:13Z</time>
      </trkpt>
      <trkpt lat="42.90021" lon="1.30559">
        <ele>578.85</ele>
        <time>2014-09-14T10:30:14Z</time>
      </trkpt>
      <trkpt lat="42.90021" lon="1.30567">
        <ele>579.33</ele>
        <time>2014-09-14T10:30:15Z</time>
      </trkpt>
      <trkpt lat="42.9002" lon="1.30576">
        <ele>579.81</ele>
        <time>2014-09-14T10:30:16Z</time>
      </trkpt>
      <trkpt lat="42.90019" lon="1.30584">
        <ele>580.29</ele>
        <time>2014-09-14T10:30:17Z</time>
      </trkpt>
      <trkpt lat="42.90016" lon="1.30593">
        <ele>580.77</ele>
        <time>2014-09-14T10:30:18Z</time>
      </trkpt>
      <trkpt lat="42.90014" lon="1.30603">
        <ele>581.25</ele>
        <time>2014-09-14T10:30:19Z</time>
      </trkpt>
      <trkpt lat="42.89987" lon="1.30701">
        <ele>585.1</ele>
        <time>2014-09-14T10:30:31Z</time>
      </trkpt>
      <trkpt lat="42.89986" lon="1.3071">
        <ele>585.1</ele>
        <time>2014-09-14T10:30:32Z</time>
      </trkpt>
      <trkpt lat="42.89986" lon="1.30718">
        <ele>585.58</ele>
        <time>2014-09-14T10:30:33Z</time>
      </trkpt>
      <trkpt lat="42.89986" lon="1.30727">
        <ele>585.58</ele>
        <time>2014-09-14T10:30:34Z</time>
      </trkpt>
      <trkpt lat="42.89987" lon="1.30736">
        <ele>585.58</ele>
        <time>2014-09-14T10:30:35Z</time>
      </trkpt>
      <trkpt lat="42.89988" lon="1.30744">
        <ele>586.06</ele>
        <time>2014-09-14T10:30:36Z</time>
      </trkpt>
      <trkpt lat="42.89989" lon="1.30753">
        <ele>586.06</ele>
        <time>2014-09-14T10:30:37Z</time>
      </trkpt>
      <trkpt lat="42.89992" lon="1.30779">
        <ele>586.06</ele>
        <time>2014-09-14T10:30:40Z</time>
      </trkpt>
      <trkpt lat="42.89991" lon="1.30788">
        <ele>585.58</ele>
        <time>2014-09-14T10:30:41Z</time>
      </trkpt>
      <trkpt lat="42.89988" lon="1.30797">
        <ele>585.58</ele>
        <time>2014-09-14T10:30:42Z</time>
      </trkpt>
      <trkpt lat="42.89985" lon="1.30807">
        <ele>585.58</ele>
        <time>2014-09-14T10:30:43Z</time>
      </trkpt>
      <trkpt lat="42.89982" lon="1.30814">
        <ele>585.58</ele>
        <time>2014-09-14T10:30:44Z</time>
      </trkpt>
      <trkpt lat="42.89978" lon="1.30821">
        <ele>585.1</ele>
        <time>2014-09-14T10:30:45Z</time>
      </trkpt>
      <trkpt lat="42.89974" lon="1.30828">
        <ele>585.1</ele>
        <time>2014-09-14T10:30:46Z</time>
      </trkpt>
      <trkpt lat="42.89969" lon="1.30835">
        <ele>585.1</ele>
        <time>2014-09-14T10:30:47Z</time>
      </trkpt>
      <trkpt lat="42.89964" lon="1.3084">
        <ele>584.62</ele>
        <time>2014-09-14T10:30:48Z</time>
      </trkpt>
      <trkpt lat="42.89958" lon="1.30846">
        <ele>584.62</ele>
        <time>2014-09-14T10:30:49Z</time>
      </trkpt>
      <trkpt lat="42.89952" lon="1.30851">
        <ele>584.62</ele>
        <time>2014-09-14T10:30:50Z</time>
      </trkpt>
      <trkpt lat="42.89923" lon="1.30882">
        <ele>583.66</ele>
        <time>2014-09-14T10:30:56Z</time>
      </trkpt>
      <trkpt lat="42.89919" lon="1.3089">
        <ele>583.18</ele>
        <time>2014-09-14T10:30:57Z</time>
      </trkpt>
      <trkpt lat="42.89916" lon="1.30897">
        <ele>583.18</ele>
        <time>2014-09-14T10:30:58Z</time>
      </trkpt>
      <trkpt lat="42.89913" lon="1.30905">
        <ele>582.7</ele>
        <time>2014-09-14T10:30:59Z</time>
      </trkpt>
      <trkpt lat="42.8991" lon="1.30913">
        <ele>582.7</ele>
        <time>2014-09-14T10:31:00Z</time>
      </trkpt>
      <trkpt lat="42.89908" lon="1.30921">
        <ele>582.7</ele>
        <time>2014-09-14T10:31:01Z</time>
      </trkpt>
      <trkpt lat="42.8988" lon="1.31049">
        <ele>582.22</ele>
        <time>2014-09-14T10:31:17Z</time>
      </trkpt>
      <trkpt lat="42.89852" lon="1.31178">
        <ele>582.22</ele>
        <time>2014-09-14T10:31:33Z</time>
      </trkpt>
      <trkpt lat="42.89822" lon="1.31333">
        <ele>584.14</ele>
        <time>2014-09-14T10:31:52Z</time>
      </trkpt>
      <trkpt lat="42.89809" lon="1.31447">
        <ele>585.58</ele>
        <time>2014-09-14T10:32:06Z</time>
      </trkpt>
      <trkpt lat="42.89808" lon="1.31455">
        <ele>585.58</ele>
        <time>2014-09-14T10:32:07Z</time>
      </trkpt>
      <trkpt lat="42.89807" lon="1.31487">
        <ele>585.58</ele>
        <time>2014-09-14T10:32:11Z</time>
      </trkpt>
      <trkpt lat="42.89795" lon="1.3161">
        <ele>588.46</ele>
        <time>2014-09-14T10:32:26Z</time>
      </trkpt>
      <trkpt lat="42.89777" lon="1.31741">
        <ele>592.31</ele>
        <time>2014-09-14T10:32:43Z</time>
      </trkpt>
      <trkpt lat="42.89762" lon="1.31782">
        <ele>594.23</ele>
        <time>2014-09-14T10:32:49Z</time>
      </trkpt>
      <trkpt lat="42.89711" lon="1.31884">
        <ele>597.6</ele>
        <time>2014-09-14T10:33:05Z</time>
      </trkpt>
      <trkpt lat="42.8969" lon="1.31994">
        <ele>598.08</ele>
        <time>2014-09-14T10:33:20Z</time>
      </trkpt>
      <trkpt lat="42.89707" lon="1.32103">
        <ele>598.08</ele>
        <time>2014-09-14T10:33:34Z</time>
      </trkpt>
      <trkpt lat="42.89767" lon="1.3223">
        <ele>597.6</ele>
        <time>2014-09-14T10:33:52Z</time>
      </trkpt>
      <trkpt lat="42.89795" lon="1.32344">
        <ele>597.12</ele>
        <time>2014-09-14T10:34:07Z</time>
      </trkpt>
      <trkpt lat="42.8978" lon="1.32456">
        <ele>598.08</ele>
        <time>2014-09-14T10:34:21Z</time>
      </trkpt>
      <trkpt lat="42.89737" lon="1.32598">
        <ele>598.56</ele>
        <time>2014-09-14T10:34:40Z</time>
      </trkpt>
      <trkpt lat="42.89705" lon="1.32723">
        <ele>599.04</ele>
        <time>2014-09-14T10:34:57Z</time>
      </trkpt>
      <trkpt lat="42.89671" lon="1.32872">
        <ele>600.48</ele>
        <time>2014-09-14T10:35:17Z</time>
      </trkpt>
      <trkpt lat="42.89644" lon="1.33008">
        <ele>602.88</ele>
        <time>2014-09-14T10:35:35Z</time>
      </trkpt>
      <trkpt lat="42.89643" lon="1.33013">
        <ele>602.88</ele>
        <time>2014-09-14T10:35:36Z</time>
      </trkpt>
      <trkpt lat="42.89638" lon="1.3302">
        <ele>603.36</ele>
        <time>2014-09-14T10:35:37Z</time>
      </trkpt>
      <trkpt lat="42.89635" lon="1.33024">
        <ele>603.36</ele>
        <time>2014-09-14T10:35:38Z</time>
      </trkpt>
      <trkpt lat="42.89631" lon="1.33029">
        <ele>603.36</ele>
        <time>2014-09-14T10:35:39Z</time>
      </trkpt>
      <trkpt lat="42.89626" lon="1.33034">
        <ele>603.85</ele>
        <time>2014-09-14T10:35:40Z</time>
      </trkpt>
      <trkpt lat="42.89549" lon="1.33108">
        <ele>603.85</ele>
        <time>2014-09-14T10:35:57Z</time>
      </trkpt>
      <trkpt lat="42.89474" lon="1.33187">
        <ele>606.25</ele>
        <time>2014-09-14T10:36:13Z</time>
      </trkpt>
      <trkpt lat="42.89427" lon="1.33264">
        <ele>607.69</ele>
        <time>2014-09-14T10:36:26Z</time>
      </trkpt>
      <trkpt lat="42.89389" lon="1.33409">
        <ele>609.61</ele>
        <time>2014-09-14T10:36:45Z</time>
      </trkpt>
      <trkpt lat="42.89367" lon="1.33505">
        <ele>612.02</ele>
        <time>2014-09-14T10:37:00Z</time>
      </trkpt>
      <trkpt lat="42.89355" lon="1.33576">
        <ele>613.94</ele>
        <time>2014-09-14T10:37:12Z</time>
      </trkpt>
      <trkpt lat="42.89352" lon="1.33613">
        <ele>616.34</ele>
        <time>2014-09-14T10:37:18Z</time>
      </trkpt>
      <trkpt lat="42.89353" lon="1.33619">
        <ele>616.34</ele>
        <time>2014-09-14T10:37:19Z</time>
      </trkpt>
      <trkpt lat="42.89354" lon="1.33625">
        <ele>616.82</ele>
        <time>2014-09-14T10:37:20Z</time>
      </trkpt>
      <trkpt lat="42.89355" lon="1.3363">
        <ele>617.78</ele>
        <time>2014-09-14T10:37:21Z</time>
      </trkpt>
      <trkpt lat="42.89357" lon="1.33636">
        <ele>618.26</ele>
        <time>2014-09-14T10:37:22Z</time>
      </trkpt>
      <trkpt lat="42.89364" lon="1.33659">
        <ele>618.75</ele>
        <time>2014-09-14T10:37:26Z</time>
      </trkpt>
      <trkpt lat="42.89376" lon="1.33709">
        <ele>619.71</ele>
        <time>2014-09-14T10:37:35Z</time>
      </trkpt>
      <trkpt lat="42.89376" lon="1.33716">
        <ele>619.71</ele>
        <time>2014-09-14T10:37:36Z</time>
      </trkpt>
      <trkpt lat="42.89376" lon="1.33722">
        <ele>619.71</ele>
        <time>2014-09-14T10:37:37Z</time>
      </trkpt>
      <trkpt lat="42.89374" lon="1.3374">
        <ele>620.19</ele>
        <time>2014-09-14T10:37:40Z</time>
      </trkpt>
      <trkpt lat="42.89372" lon="1.33746">
        <ele>620.19</ele>
        <time>2014-09-14T10:37:41Z</time>
      </trkpt>
      <trkpt lat="42.89341" lon="1.33838">
        <ele>625.47</ele>
        <time>2014-09-14T10:37:58Z</time>
      </trkpt>
      <trkpt lat="42.89334" lon="1.3386">
        <ele>627.4</ele>
        <time>2014-09-14T10:38:02Z</time>
      </trkpt>
      <trkpt lat="42.89331" lon="1.33864">
        <ele>627.4</ele>
        <time>2014-09-14T10:38:03Z</time>
      </trkpt>
      <trkpt lat="42.89328" lon="1.33868">
        <ele>627.88</ele>
        <time>2014-09-14T10:38:04Z</time>
      </trkpt>
      <trkpt lat="42.89325" lon="1.33871">
        <ele>628.36</ele>
        <time>2014-09-14T10:38:05Z</time>
      </trkpt>
      <trkpt lat="42.89321" lon="1.33874">
        <ele>628.84</ele>
        <time>2014-09-14T10:38:06Z</time>
      </trkpt>
      <trkpt lat="42.89318" lon="1.33877">
        <ele>628.84</ele>
        <time>2014-09-14T10:38:07Z</time>
      </trkpt>
      <trkpt lat="42.8931" lon="1.33881">
        <ele>629.8</ele>
        <time>2014-09-14T10:38:09Z</time>
      </trkpt>
      <trkpt lat="42.89306" lon="1.33883">
        <ele>630.28</ele>
        <time>2014-09-14T10:38:10Z</time>
      </trkpt>
      <trkpt lat="42.89297" lon="1.33885">
        <ele>630.76</ele>
        <time>2014-09-14T10:38:12Z</time>
      </trkpt>
      <trkpt lat="42.89293" lon="1.33888">
        <ele>631.24</ele>
        <time>2014-09-14T10:38:13Z</time>
      </trkpt>
      <trkpt lat="42.89289" lon="1.3389">
        <ele>631.72</ele>
        <time>2014-09-14T10:38:14Z</time>
      </trkpt>
      <trkpt lat="42.89274" lon="1.33901">
        <ele>633.17</ele>
        <time>2014-09-14T10:38:18Z</time>
      </trkpt>
      <trkpt lat="42.8927" lon="1.33905">
        <ele>633.17</ele>
        <time>2014-09-14T10:38:19Z</time>
      </trkpt>
      <trkpt lat="42.89267" lon="1.33909">
        <ele>633.17</ele>
        <time>2014-09-14T10:38:20Z</time>
      </trkpt>
      <trkpt lat="42.89264" lon="1.33914">
        <ele>633.17</ele>
        <time>2014-09-14T10:38:21Z</time>
      </trkpt>
      <trkpt lat="42.89261" lon="1.33919">
        <ele>633.65</ele>
        <time>2014-09-14T10:38:22Z</time>
      </trkpt>
      <trkpt lat="42.89259" lon="1.33924">
        <ele>633.65</ele>
        <time>2014-09-14T10:38:23Z</time>
      </trkpt>
      <trkpt lat="42.89257" lon="1.33929">
        <ele>633.65</ele>
        <time>2014-09-14T10:38:24Z</time>
      </trkpt>
      <trkpt lat="42.89256" lon="1.33935">
        <ele>634.13</ele>
        <time>2014-09-14T10:38:25Z</time>
      </trkpt>
      <trkpt lat="42.89254" lon="1.33941">
        <ele>634.13</ele>
        <time>2014-09-14T10:38:26Z</time>
      </trkpt>
      <trkpt lat="42.89252" lon="1.33946">
        <ele>634.61</ele>
        <time>2014-09-14T10:38:27Z</time>
      </trkpt>
      <trkpt lat="42.89221" lon="1.34032">
        <ele>636.05</ele>
        <time>2014-09-14T10:38:43Z</time>
      </trkpt>
      <trkpt lat="42.89174" lon="1.34128">
        <ele>641.34</ele>
        <time>2014-09-14T10:39:02Z</time>
      </trkpt>
      <trkpt lat="42.89117" lon="1.34237">
        <ele>646.14</ele>
        <time>2014-09-14T10:39:23Z</time>
      </trkpt>
      <trkpt lat="42.89068" lon="1.34331">
        <ele>646.62</ele>
        <time>2014-09-14T10:39:40Z</time>
      </trkpt>
      <trkpt lat="42.89014" lon="1.34438">
        <ele>647.59</ele>
        <time>2014-09-14T10:39:57Z</time>
      </trkpt>
      <trkpt lat="42.88981" lon="1.34507">
        <ele>647.1</ele>
        <time>2014-09-14T10:40:09Z</time>
      </trkpt>
      <trkpt lat="42.88979" lon="1.34512">
        <ele>647.1</ele>
        <time>2014-09-14T10:40:10Z</time>
      </trkpt>
      <trkpt lat="42.88977" lon="1.34518">
        <ele>647.1</ele>
        <time>2014-09-14T10:40:11Z</time>
      </trkpt>
      <trkpt lat="42.88972" lon="1.34538">
        <ele>646.62</ele>
        <time>2014-09-14T10:40:14Z</time>
      </trkpt>
      <trkpt lat="42.8897" lon="1.34544">
        <ele>646.14</ele>
        <time>2014-09-14T10:40:15Z</time>
      </trkpt>
      <trkpt lat="42.88955" lon="1.34588">
        <ele>646.14</ele>
        <time>2014-09-14T10:40:22Z</time>
      </trkpt>
      <trkpt lat="42.88939" lon="1.34682">
        <ele>646.62</ele>
        <time>2014-09-14T10:40:37Z</time>
      </trkpt>
      <trkpt lat="42.88937" lon="1.34688">
        <ele>647.1</ele>
        <time>2014-09-14T10:40:39Z</time>
      </trkpt>
      <trkpt lat="42.88935" lon="1.34686">
        <ele>647.1</ele>
        <time>2014-09-14T10:40:42Z</time>
      </trkpt>
      <trkpt lat="42.88936" lon="1.34683">
        <ele>647.1</ele>
        <time>2014-09-14T10:40:43Z</time>
      </trkpt>
      <trkpt lat="42.88937" lon="1.34681">
        <ele>647.1</ele>
        <time>2014-09-14T10:40:45Z</time>
      </trkpt>
      <trkpt lat="42.88939" lon="1.34679">
        <ele>647.1</ele>
        <time>2014-09-14T10:40:46Z</time>
      </trkpt>
      <trkpt lat="42.88943" lon="1.34677">
        <ele>648.55</ele>
        <time>2014-09-14T10:40:56Z</time>
      </trkpt>
      <trkpt lat="42.88948" lon="1.34681">
        <ele>649.03</ele>
        <time>2014-09-14T10:41:19Z</time>
      </trkpt>
      <trkpt lat="42.88948" lon="1.34675">
        <ele>647.59</ele>
        <time>2014-09-14T10:41:46Z</time>
      </trkpt>
      <trkpt lat="42.88949" lon="1.34678">
        <ele>649.51</ele>
        <time>2014-09-14T10:42:18Z</time>
      </trkpt>
      <trkpt lat="42.88947" lon="1.34679">
        <ele>649.99</ele>
        <time>2014-09-14T10:42:52Z</time>
      </trkpt>
      <trkpt lat="42.88946" lon="1.34678">
        <ele>649.03</ele>
        <time>2014-09-14T10:43:24Z</time>
      </trkpt>
      <trkpt lat="42.88947" lon="1.3468">
        <ele>645.66</ele>
        <time>2014-09-14T10:43:52Z</time>
      </trkpt>
      <trkpt lat="42.88947" lon="1.34679">
        <ele>645.18</ele>
        <time>2014-09-14T10:44:29Z</time>
      </trkpt>
      <trkpt lat="42.88948" lon="1.34679">
        <ele>649.03</ele>
        <time>2014-09-14T10:45:07Z</time>
      </trkpt>
      <trkpt lat="42.88947" lon="1.34679">
        <ele>649.03</ele>
        <time>2014-09-14T10:45:41Z</time>
      </trkpt>
      <trkpt lat="42.88947" lon="1.3468">
        <ele>643.74</ele>
        <time>2014-09-14T10:46:18Z</time>
      </trkpt>
      <trkpt lat="42.88947" lon="1.3468">
        <ele>645.66</ele>
        <time>2014-09-14T10:46:59Z</time>
      </trkpt>
      <trkpt lat="42.88944" lon="1.3468">
        <ele>642.78</ele>
        <time>2014-09-14T10:47:37Z</time>
      </trkpt>
      <trkpt lat="42.88946" lon="1.34682">
        <ele>643.74</ele>
        <time>2014-09-14T10:48:10Z</time>
      </trkpt>
      <trkpt lat="42.88949" lon="1.34679">
        <ele>641.82</ele>
        <time>2014-09-14T10:48:50Z</time>
      </trkpt>
      <trkpt lat="42.88953" lon="1.34682">
        <ele>637.97</ele>
        <time>2014-09-14T10:49:30Z</time>
      </trkpt>
      <trkpt lat="42.8895" lon="1.3468">
        <ele>642.3</ele>
        <time>2014-09-14T10:50:09Z</time>
      </trkpt>
      <trkpt lat="42.8895" lon="1.34682">
        <ele>644.22</ele>
        <time>2014-09-14T10:50:46Z</time>
      </trkpt>
      <trkpt lat="42.88945" lon="1.34679">
        <ele>650.95</ele>
        <time>2014-09-14T10:51:25Z</time>
      </trkpt>
      <trkpt lat="42.88947" lon="1.34681">
        <ele>652.87</ele>
        <time>2014-09-14T10:51:58Z</time>
      </trkpt>
      <trkpt lat="42.88947" lon="1.34683">
        <ele>645.66</ele>
        <time>2014-09-14T10:52:35Z</time>
      </trkpt>
      <trkpt lat="42.88946" lon="1.34681">
        <ele>642.78</ele>
        <time>2014-09-14T10:53:09Z</time>
      </trkpt>
      <trkpt lat="42.88947" lon="1.3468">
        <ele>642.78</ele>
        <time>2014-09-14T10:53:56Z</time>
      </trkpt>
      <trkpt lat="42.88946" lon="1.34679">
        <ele>646.14</ele>
        <time>2014-09-14T10:54:23Z</time>
      </trkpt>
      <trkpt lat="42.88949" lon="1.34681">
        <ele>652.87</ele>
        <time>2014-09-14T10:55:01Z</time>
      </trkpt>
      <trkpt lat="42.88946" lon="1.34681">
        <ele>649.99</ele>
        <time>2014-09-14T10:55:41Z</time>
      </trkpt>
      <trkpt lat="42.88945" lon="1.3468">
        <ele>649.99</ele>
        <time>2014-09-14T10:56:23Z</time>
      </trkpt>
      <trkpt lat="42.88945" lon="1.34679">
        <ele>650.95</ele>
        <time>2014-09-14T10:57:00Z</time>
      </trkpt>
      <trkpt lat="42.88946" lon="1.34679">
        <ele>651.91</ele>
        <time>2014-09-14T10:57:30Z</time>
      </trkpt>
      <trkpt lat="42.88943" lon="1.34682">
        <ele>652.39</ele>
        <time>2014-09-14T10:57:56Z</time>
      </trkpt>
      <trkpt lat="42.88944" lon="1.34684">
        <ele>652.39</ele>
        <time>2014-09-14T10:58:15Z</time>
      </trkpt>
      <trkpt lat="42.88942" lon="1.34688">
        <ele>651.91</ele>
        <time>2014-09-14T10:58:46Z</time>
      </trkpt>
      <trkpt lat="42.88942" lon="1.3469">
        <ele>652.39</ele>
        <time>2014-09-14T10:58:48Z</time>
      </trkpt>
      <trkpt lat="42.88939" lon="1.34708">
        <ele>657.68</ele>
        <time>2014-09-14T10:59:01Z</time>
      </trkpt>
      <trkpt lat="42.88943" lon="1.34751">
        <ele>658.64</ele>
        <time>2014-09-14T10:59:12Z</time>
      </trkpt>
      <trkpt lat="42.88946" lon="1.34754">
        <ele>658.64</ele>
        <time>2014-09-14T10:59:13Z</time>
      </trkpt>
      <trkpt lat="42.8895" lon="1.34756">
        <ele>658.64</ele>
        <time>2014-09-14T10:59:14Z</time>
      </trkpt>
      <trkpt lat="42.89003" lon="1.34782">
        <ele>659.12</ele>
        <time>2014-09-14T10:59:23Z</time>
      </trkpt>
      <trkpt lat="42.89107" lon="1.34855">
        <ele>650.95</ele>
        <time>2014-09-14T10:59:34Z</time>
      </trkpt>
      <trkpt lat="42.89265" lon="1.34955">
        <ele>638.45</ele>
        <time>2014-09-14T10:59:50Z</time>
      </trkpt>
      <trkpt lat="42.89307" lon="1.34981">
        <ele>637.49</ele>
        <time>2014-09-14T10:59:56Z</time>
      </trkpt>
      <trkpt lat="42.89311" lon="1.34986">
        <ele>637.49</ele>
        <time>2014-09-14T10:59:57Z</time>
      </trkpt>
      <trkpt lat="42.89315" lon="1.34992">
        <ele>637.49</ele>
        <time>2014-09-14T10:59:58Z</time>
      </trkpt>
      <trkpt lat="42.89318" lon="1.34998">
        <ele>637.49</ele>
        <time>2014-09-14T10:59:59Z</time>
      </trkpt>
      <trkpt lat="42.8932" lon="1.35004">
        <ele>637.97</ele>
        <time>2014-09-14T11:00:00Z</time>
      </trkpt>
      <trkpt lat="42.8932" lon="1.3501">
        <ele>637.97</ele>
        <time>2014-09-14T11:00:01Z</time>
      </trkpt>
      <trkpt lat="42.8932" lon="1.35016">
        <ele>638.45</ele>
        <time>2014-09-14T11:00:02Z</time>
      </trkpt>
      <trkpt lat="42.8932" lon="1.35021">
        <ele>638.45</ele>
        <time>2014-09-14T11:00:03Z</time>
      </trkpt>
      <trkpt lat="42.89319" lon="1.35027">
        <ele>638.93</ele>
        <time>2014-09-14T11:00:04Z</time>
      </trkpt>
      <trkpt lat="42.89337" lon="1.35075">
        <ele>640.86</ele>
        <time>2014-09-14T11:00:15Z</time>
      </trkpt>
      <trkpt lat="42.89382" lon="1.35108">
        <ele>644.22</ele>
        <time>2014-09-14T11:00:29Z</time>
      </trkpt>
      <trkpt lat="42.89435" lon="1.35126">
        <ele>647.59</ele>
        <time>2014-09-14T11:00:45Z</time>
      </trkpt>
      <trkpt lat="42.89472" lon="1.35152">
        <ele>649.03</ele>
        <time>2014-09-14T11:00:58Z</time>
      </trkpt>
      <trkpt lat="42.89473" lon="1.35185">
        <ele>650.95</ele>
        <time>2014-09-14T11:01:09Z</time>
      </trkpt>
      <trkpt lat="42.89472" lon="1.35186">
        <ele>652.39</ele>
        <time>2014-09-14T11:01:22Z</time>
      </trkpt>
      <trkpt lat="42.89475" lon="1.35189">
        <ele>651.43</ele>
        <time>2014-09-14T11:02:02Z</time>
      </trkpt>
      <trkpt lat="42.89474" lon="1.35187">
        <ele>654.31</ele>
        <time>2014-09-14T11:02:28Z</time>
      </trkpt>
      <trkpt lat="42.89475" lon="1.35188">
        <ele>653.83</ele>
        <time>2014-09-14T11:02:31Z</time>
      </trkpt>
      <trkpt lat="42.89476" lon="1.3519">
        <ele>653.83</ele>
        <time>2014-09-14T11:02:33Z</time>
      </trkpt>
      <trkpt lat="42.89476" lon="1.35192">
        <ele>653.83</ele>
        <time>2014-09-14T11:02:34Z</time>
      </trkpt>
      <trkpt lat="42.89476" lon="1.35195">
        <ele>653.83</ele>
        <time>2014-09-14T11:02:35Z</time>
      </trkpt>
      <trkpt lat="42.89476" lon="1.35197">
        <ele>654.31</ele>
        <time>2014-09-14T11:02:36Z</time>
      </trkpt>
      <trkpt lat="42.89475" lon="1.352">
        <ele>654.31</ele>
        <time>2014-09-14T11:02:37Z</time>
      </trkpt>
      <trkpt lat="42.89475" lon="1.35203">
        <ele>654.8</ele>
        <time>2014-09-14T11:02:38Z</time>
      </trkpt>
      <trkpt lat="42.89474" lon="1.35205">
        <ele>654.8</ele>
        <time>2014-09-14T11:02:39Z</time>
      </trkpt>
      <trkpt lat="42.89472" lon="1.35208">
        <ele>655.28</ele>
        <time>2014-09-14T11:02:40Z</time>
      </trkpt>
      <trkpt lat="42.89469" lon="1.35211">
        <ele>655.28</ele>
        <time>2014-09-14T11:02:41Z</time>
      </trkpt>
      <trkpt lat="42.89467" lon="1.35213">
        <ele>655.28</ele>
        <time>2014-09-14T11:02:42Z</time>
      </trkpt>
      <trkpt lat="42.89463" lon="1.35215">
        <ele>655.28</ele>
        <time>2014-09-14T11:02:43Z</time>
      </trkpt>
      <trkpt lat="42.89459" lon="1.35215">
        <ele>655.76</ele>
        <time>2014-09-14T11:02:44Z</time>
      </trkpt>
      <trkpt lat="42.89456" lon="1.35215">
        <ele>655.76</ele>
        <time>2014-09-14T11:02:45Z</time>
      </trkpt>
      <trkpt lat="42.89452" lon="1.35212">
        <ele>656.24</ele>
        <time>2014-09-14T11:02:46Z</time>
      </trkpt>
      <trkpt lat="42.8945" lon="1.3521">
        <ele>656.72</ele>
        <time>2014-09-14T11:02:47Z</time>
      </trkpt>
      <trkpt lat="42.89431" lon="1.3517">
        <ele>656.72</ele>
        <time>2014-09-14T11:02:58Z</time>
      </trkpt>
      <trkpt lat="42.89392" lon="1.35168">
        <ele>657.2</ele>
        <time>2014-09-14T11:03:10Z</time>
      </trkpt>
      <trkpt lat="42.89387" lon="1.35203">
        <ele>659.12</ele>
        <time>2014-09-14T11:03:20Z</time>
      </trkpt>
      <trkpt lat="42.8943" lon="1.35246">
        <ele>664.41</ele>
        <time>2014-09-14T11:03:37Z</time>
      </trkpt>
      <trkpt lat="42.89448" lon="1.35296">
        <ele>666.81</ele>
        <time>2014-09-14T11:03:50Z</time>
      </trkpt>
      <trkpt lat="42.89468" lon="1.35339">
        <ele>669.22</ele>
        <time>2014-09-14T11:04:02Z</time>
      </trkpt>
      <trkpt lat="42.89505" lon="1.35391">
        <ele>672.58</ele>
        <time>2014-09-14T11:04:19Z</time>
      </trkpt>
      <trkpt lat="42.8953" lon="1.35471">
        <ele>673.06</ele>
        <time>2014-09-14T11:04:39Z</time>
      </trkpt>
      <trkpt lat="42.8955" lon="1.3554">
        <ele>679.31</ele>
        <time>2014-09-14T11:04:57Z</time>
      </trkpt>
      <trkpt lat="42.89555" lon="1.35609">
        <ele>685.56</ele>
        <time>2014-09-14T11:05:13Z</time>
      </trkpt>
      <trkpt lat="42.89556" lon="1.35681">
        <ele>689.4</ele>
        <time>2014-09-14T11:05:29Z</time>
      </trkpt>
      <trkpt lat="42.89554" lon="1.35752">
        <ele>693.73</ele>
        <time>2014-09-14T11:05:45Z</time>
      </trkpt>
      <trkpt lat="42.89552" lon="1.35819">
        <ele>697.57</ele>
        <time>2014-09-14T11:06:01Z</time>
      </trkpt>
      <trkpt lat="42.89556" lon="1.35882">
        <ele>702.86</ele>
        <time>2014-09-14T11:06:16Z</time>
      </trkpt>
      <trkpt lat="42.89546" lon="1.35938">
        <ele>707.19</ele>
        <time>2014-09-14T11:06:29Z</time>
      </trkpt>
      <trkpt lat="42.89541" lon="1.35995">
        <ele>708.15</ele>
        <time>2014-09-14T11:06:42Z</time>
      </trkpt>
      <trkpt lat="42.8957" lon="1.36038">
        <ele>708.63</ele>
        <time>2014-09-14T11:06:56Z</time>
      </trkpt>
      <trkpt lat="42.89619" lon="1.36028">
        <ele>709.59</ele>
        <time>2014-09-14T11:07:12Z</time>
      </trkpt>
      <trkpt lat="42.89664" lon="1.36018">
        <ele>710.07</ele>
        <time>2014-09-14T11:07:26Z</time>
      </trkpt>
      <trkpt lat="42.89715" lon="1.36041">
        <ele>713.44</ele>
        <time>2014-09-14T11:07:43Z</time>
      </trkpt>
      <trkpt lat="42.8976" lon="1.3608">
        <ele>719.2</ele>
        <time>2014-09-14T11:08:00Z</time>
      </trkpt>
      <trkpt lat="42.89797" lon="1.3613">
        <ele>725.93</ele>
        <time>2014-09-14T11:08:16Z</time>
      </trkpt>
      <trkpt lat="42.89837" lon="1.36139">
        <ele>726.89</ele>
        <time>2014-09-14T11:08:29Z</time>
      </trkpt>
      <trkpt lat="42.89882" lon="1.36122">
        <ele>728.34</ele>
        <time>2014-09-14T11:08:44Z</time>
      </trkpt>
      <trkpt lat="42.89936" lon="1.36082">
        <ele>730.74</ele>
        <time>2014-09-14T11:09:02Z</time>
      </trkpt>
      <trkpt lat="42.89972" lon="1.3606">
        <ele>732.18</ele>
        <time>2014-09-14T11:09:15Z</time>
      </trkpt>
      <trkpt lat="42.89977" lon="1.36064">
        <ele>731.7</ele>
        <time>2014-09-14T11:09:17Z</time>
      </trkpt>
      <trkpt lat="42.89979" lon="1.36067">
        <ele>731.7</ele>
        <time>2014-09-14T11:09:18Z</time>
      </trkpt>
      <trkpt lat="42.89979" lon="1.36072">
        <ele>731.7</ele>
        <time>2014-09-14T11:09:19Z</time>
      </trkpt>
      <trkpt lat="42.8998" lon="1.36076">
        <ele>731.7</ele>
        <time>2014-09-14T11:09:20Z</time>
      </trkpt>
      <trkpt lat="42.89981" lon="1.36079">
        <ele>731.7</ele>
        <time>2014-09-14T11:09:21Z</time>
      </trkpt>
      <trkpt lat="42.89955" lon="1.36135">
        <ele>733.14</ele>
        <time>2014-09-14T11:09:32Z</time>
      </trkpt>
      <trkpt lat="42.89919" lon="1.36186">
        <ele>737.47</ele>
        <time>2014-09-14T11:09:49Z</time>
      </trkpt>
      <trkpt lat="42.89933" lon="1.36223">
        <ele>739.39</ele>
        <time>2014-09-14T11:09:59Z</time>
      </trkpt>
      <trkpt lat="42.89983" lon="1.36251">
        <ele>744.2</ele>
        <time>2014-09-14T11:10:16Z</time>
      </trkpt>
      <trkpt lat="42.90033" lon="1.3629">
        <ele>749</ele>
        <time>2014-09-14T11:10:34Z</time>
      </trkpt>
      <trkpt lat="42.90076" lon="1.3631">
        <ele>751.89</ele>
        <time>2014-09-14T11:10:49Z</time>
      </trkpt>
      <trkpt lat="42.90131" lon="1.36303">
        <ele>755.73</ele>
        <time>2014-09-14T11:11:07Z</time>
      </trkpt>
      <trkpt lat="42.90178" lon="1.36289">
        <ele>756.69</ele>
        <time>2014-09-14T11:11:23Z</time>
      </trkpt>
      <trkpt lat="42.90202" lon="1.36302">
        <ele>759.1</ele>
        <time>2014-09-14T11:11:33Z</time>
      </trkpt>
      <trkpt lat="42.90202" lon="1.36306">
        <ele>759.1</ele>
        <time>2014-09-14T11:11:34Z</time>
      </trkpt>
      <trkpt lat="42.90201" lon="1.3631">
        <ele>759.58</ele>
        <time>2014-09-14T11:11:35Z</time>
      </trkpt>
      <trkpt lat="42.90185" lon="1.36373">
        <ele>763.42</ele>
        <time>2014-09-14T11:11:51Z</time>
      </trkpt>
      <trkpt lat="42.90198" lon="1.36404">
        <ele>764.87</ele>
        <time>2014-09-14T11:12:01Z</time>
      </trkpt>
      <trkpt lat="42.90238" lon="1.36414">
        <ele>765.35</ele>
        <time>2014-09-14T11:12:15Z</time>
      </trkpt>
      <trkpt lat="42.90265" lon="1.36454">
        <ele>768.23</ele>
        <time>2014-09-14T11:12:28Z</time>
      </trkpt>
      <trkpt lat="42.9028" lon="1.36518">
        <ele>774</ele>
        <time>2014-09-14T11:12:44Z</time>
      </trkpt>
      <trkpt lat="42.90326" lon="1.36536">
        <ele>777.84</ele>
        <time>2014-09-14T11:12:59Z</time>
      </trkpt>
      <trkpt lat="42.90353" lon="1.36552">
        <ele>780.73</ele>
        <time>2014-09-14T11:13:09Z</time>
      </trkpt>
      <trkpt lat="42.90354" lon="1.36556">
        <ele>781.21</ele>
        <time>2014-09-14T11:13:10Z</time>
      </trkpt>
      <trkpt lat="42.90353" lon="1.36561">
        <ele>781.21</ele>
        <time>2014-09-14T11:13:11Z</time>
      </trkpt>
      <trkpt lat="42.90353" lon="1.36565">
        <ele>781.69</ele>
        <time>2014-09-14T11:13:12Z</time>
      </trkpt>
      <trkpt lat="42.90351" lon="1.36569">
        <ele>781.69</ele>
        <time>2014-09-14T11:13:13Z</time>
      </trkpt>
      <trkpt lat="42.90327" lon="1.36636">
        <ele>785.53</ele>
        <time>2014-09-14T11:13:30Z</time>
      </trkpt>
      <trkpt lat="42.90324" lon="1.3672">
        <ele>790.82</ele>
        <time>2014-09-14T11:13:50Z</time>
      </trkpt>
      <trkpt lat="42.90356" lon="1.36778">
        <ele>791.78</ele>
        <time>2014-09-14T11:14:06Z</time>
      </trkpt>
      <trkpt lat="42.90369" lon="1.36846">
        <ele>795.15</ele>
        <time>2014-09-14T11:14:22Z</time>
      </trkpt>
      <trkpt lat="42.90393" lon="1.36893">
        <ele>795.63</ele>
        <time>2014-09-14T11:14:34Z</time>
      </trkpt>
      <trkpt lat="42.90437" lon="1.36903">
        <ele>796.11</ele>
        <time>2014-09-14T11:14:47Z</time>
      </trkpt>
      <trkpt lat="42.90483" lon="1.36892">
        <ele>798.51</ele>
        <time>2014-09-14T11:15:00Z</time>
      </trkpt>
      <trkpt lat="42.9051" lon="1.36879">
        <ele>799.47</ele>
        <time>2014-09-14T11:15:08Z</time>
      </trkpt>
      <trkpt lat="42.90513" lon="1.36882">
        <ele>798.99</ele>
        <time>2014-09-14T11:15:09Z</time>
      </trkpt>
      <trkpt lat="42.90516" lon="1.36887">
        <ele>798.99</ele>
        <time>2014-09-14T11:15:10Z</time>
      </trkpt>
      <trkpt lat="42.90519" lon="1.36892">
        <ele>798.99</ele>
        <time>2014-09-14T11:15:11Z</time>
      </trkpt>
      <trkpt lat="42.90521" lon="1.36897">
        <ele>798.99</ele>
        <time>2014-09-14T11:15:12Z</time>
      </trkpt>
      <trkpt lat="42.90522" lon="1.36903">
        <ele>798.99</ele>
        <time>2014-09-14T11:15:13Z</time>
      </trkpt>
      <trkpt lat="42.9055" lon="1.36963">
        <ele>799.47</ele>
        <time>2014-09-14T11:15:28Z</time>
      </trkpt>
      <trkpt lat="42.90594" lon="1.37005">
        <ele>801.88</ele>
        <time>2014-09-14T11:15:42Z</time>
      </trkpt>
      <trkpt lat="42.90637" lon="1.37025">
        <ele>803.8</ele>
        <time>2014-09-14T11:15:53Z</time>
      </trkpt>
      <trkpt lat="42.90675" lon="1.37034">
        <ele>805.72</ele>
        <time>2014-09-14T11:16:02Z</time>
      </trkpt>
      <trkpt lat="42.90679" lon="1.37033">
        <ele>805.72</ele>
        <time>2014-09-14T11:16:03Z</time>
      </trkpt>
      <trkpt lat="42.90683" lon="1.37033">
        <ele>806.2</ele>
        <time>2014-09-14T11:16:04Z</time>
      </trkpt>
      <trkpt lat="42.90746" lon="1.37039">
        <ele>807.64</ele>
        <time>2014-09-14T11:16:19Z</time>
      </trkpt>
      <trkpt lat="42.90757" lon="1.3704">
        <ele>808.13</ele>
        <time>2014-09-14T11:16:22Z</time>
      </trkpt>
      <trkpt lat="42.90761" lon="1.37043">
        <ele>808.13</ele>
        <time>2014-09-14T11:16:23Z</time>
      </trkpt>
      <trkpt lat="42.90764" lon="1.37048">
        <ele>808.13</ele>
        <time>2014-09-14T11:16:24Z</time>
      </trkpt>
      <trkpt lat="42.90766" lon="1.37052">
        <ele>808.13</ele>
        <time>2014-09-14T11:16:25Z</time>
      </trkpt>
      <trkpt lat="42.90767" lon="1.37058">
        <ele>808.13</ele>
        <time>2014-09-14T11:16:26Z</time>
      </trkpt>
      <trkpt lat="42.90766" lon="1.37064">
        <ele>808.13</ele>
        <time>2014-09-14T11:16:27Z</time>
      </trkpt>
      <trkpt lat="42.90764" lon="1.37069">
        <ele>808.13</ele>
        <time>2014-09-14T11:16:28Z</time>
      </trkpt>
      <trkpt lat="42.90761" lon="1.37073">
        <ele>808.13</ele>
        <time>2014-09-14T11:16:29Z</time>
      </trkpt>
      <trkpt lat="42.90758" lon="1.37077">
        <ele>808.13</ele>
        <time>2014-09-14T11:16:30Z</time>
      </trkpt>
      <trkpt lat="42.90755" lon="1.3708">
        <ele>808.13</ele>
        <time>2014-09-14T11:16:31Z</time>
      </trkpt>
      <trkpt lat="42.90751" lon="1.37083">
        <ele>808.13</ele>
        <time>2014-09-14T11:16:32Z</time>
      </trkpt>
      <trkpt lat="42.90747" lon="1.37085">
        <ele>808.13</ele>
        <time>2014-09-14T11:16:33Z</time>
      </trkpt>
      <trkpt lat="42.90714" lon="1.37108">
        <ele>808.13</ele>
        <time>2014-09-14T11:16:44Z</time>
      </trkpt>
      <trkpt lat="42.90709" lon="1.3716">
        <ele>809.09</ele>
        <time>2014-09-14T11:16:56Z</time>
      </trkpt>
      <trkpt lat="42.90705" lon="1.37202">
        <ele>811.01</ele>
        <time>2014-09-14T11:17:07Z</time>
      </trkpt>
      <trkpt lat="42.90662" lon="1.3723">
        <ele>811.49</ele>
        <time>2014-09-14T11:17:21Z</time>
      </trkpt>
      <trkpt lat="42.90623" lon="1.37277">
        <ele>813.89</ele>
        <time>2014-09-14T11:17:37Z</time>
      </trkpt>
      <trkpt lat="42.9061" lon="1.37343">
        <ele>819.66</ele>
        <time>2014-09-14T11:17:52Z</time>
      </trkpt>
      <trkpt lat="42.90617" lon="1.37428">
        <ele>827.83</ele>
        <time>2014-09-14T11:18:11Z</time>
      </trkpt>
      <trkpt lat="42.90644" lon="1.37455">
        <ele>827.83</ele>
        <time>2014-09-14T11:18:22Z</time>
      </trkpt>
      <trkpt lat="42.90681" lon="1.37468">
        <ele>830.24</ele>
        <time>2014-09-14T11:18:34Z</time>
      </trkpt>
      <trkpt lat="42.90729" lon="1.37484">
        <ele>833.12</ele>
        <time>2014-09-14T11:18:50Z</time>
      </trkpt>
      <trkpt lat="42.90749" lon="1.37507">
        <ele>836.48</ele>
        <time>2014-09-14T11:18:59Z</time>
      </trkpt>
      <trkpt lat="42.90748" lon="1.37512">
        <ele>836.48</ele>
        <time>2014-09-14T11:19:00Z</time>
      </trkpt>
      <trkpt lat="42.90747" lon="1.37515">
        <ele>836.48</ele>
        <time>2014-09-14T11:19:01Z</time>
      </trkpt>
      <trkpt lat="42.90745" lon="1.37519">
        <ele>836.96</ele>
        <time>2014-09-14T11:19:02Z</time>
      </trkpt>
      <trkpt lat="42.90743" lon="1.37523">
        <ele>836.96</ele>
        <time>2014-09-14T11:19:03Z</time>
      </trkpt>
      <trkpt lat="42.90741" lon="1.37526">
        <ele>837.45</ele>
        <time>2014-09-14T11:19:04Z</time>
      </trkpt>
      <trkpt lat="42.9072" lon="1.37579">
        <ele>840.81</ele>
        <time>2014-09-14T11:19:18Z</time>
      </trkpt>
      <trkpt lat="42.90715" lon="1.37643">
        <ele>844.66</ele>
        <time>2014-09-14T11:19:34Z</time>
      </trkpt>
      <trkpt lat="42.90705" lon="1.37702">
        <ele>847.06</ele>
        <time>2014-09-14T11:19:49Z</time>
      </trkpt>
      <trkpt lat="42.90727" lon="1.37736">
        <ele>848.02</ele>
        <time>2014-09-14T11:20:00Z</time>
      </trkpt>
      <trkpt lat="42.9078" lon="1.37775">
        <ele>852.35</ele>
        <time>2014-09-14T11:20:19Z</time>
      </trkpt>
      <trkpt lat="42.90782" lon="1.3781">
        <ele>855.23</ele>
        <time>2014-09-14T11:20:29Z</time>
      </trkpt>
      <trkpt lat="42.90745" lon="1.37862">
        <ele>856.19</ele>
        <time>2014-09-14T11:20:46Z</time>
      </trkpt>
      <trkpt lat="42.90725" lon="1.37923">
        <ele>857.15</ele>
        <time>2014-09-14T11:21:02Z</time>
      </trkpt>
      <trkpt lat="42.90715" lon="1.38013">
        <ele>862.92</ele>
        <time>2014-09-14T11:21:22Z</time>
      </trkpt>
      <trkpt lat="42.90737" lon="1.3806">
        <ele>866.29</ele>
        <time>2014-09-14T11:21:36Z</time>
      </trkpt>
      <trkpt lat="42.9078" lon="1.38082">
        <ele>869.65</ele>
        <time>2014-09-14T11:21:51Z</time>
      </trkpt>
      <trkpt lat="42.90832" lon="1.3809">
        <ele>872.53</ele>
        <time>2014-09-14T11:22:08Z</time>
      </trkpt>
      <trkpt lat="42.90878" lon="1.38104">
        <ele>874.46</ele>
        <time>2014-09-14T11:22:23Z</time>
      </trkpt>
      <trkpt lat="42.90928" lon="1.3811">
        <ele>878.78</ele>
        <time>2014-09-14T11:22:40Z</time>
      </trkpt>
      <trkpt lat="42.90948" lon="1.38143">
        <ele>882.63</ele>
        <time>2014-09-14T11:22:50Z</time>
      </trkpt>
      <trkpt lat="42.90943" lon="1.38207">
        <ele>884.55</ele>
        <time>2014-09-14T11:23:05Z</time>
      </trkpt>
      <trkpt lat="42.90951" lon="1.38272">
        <ele>888.4</ele>
        <time>2014-09-14T11:23:21Z</time>
      </trkpt>
      <trkpt lat="42.90966" lon="1.3832">
        <ele>888.88</ele>
        <time>2014-09-14T11:23:35Z</time>
      </trkpt>
      <trkpt lat="42.90935" lon="1.3836">
        <ele>887.91</ele>
        <time>2014-09-14T11:23:48Z</time>
      </trkpt>
      <trkpt lat="42.909" lon="1.38414">
        <ele>887.91</ele>
        <time>2014-09-14T11:24:05Z</time>
      </trkpt>
      <trkpt lat="42.90863" lon="1.3845">
        <ele>890.8</ele>
        <time>2014-09-14T11:24:20Z</time>
      </trkpt>
      <trkpt lat="42.9085" lon="1.38504">
        <ele>894.16</ele>
        <time>2014-09-14T11:24:34Z</time>
      </trkpt>
      <trkpt lat="42.90871" lon="1.38531">
        <ele>898.97</ele>
        <time>2014-09-14T11:24:44Z</time>
      </trkpt>
      <trkpt lat="42.90907" lon="1.38559">
        <ele>906.18</ele>
        <time>2014-09-14T11:24:58Z</time>
      </trkpt>
      <trkpt lat="42.90904" lon="1.38594">
        <ele>906.18</ele>
        <time>2014-09-14T11:25:08Z</time>
      </trkpt>
      <trkpt lat="42.90864" lon="1.38629">
        <ele>908.58</ele>
        <time>2014-09-14T11:25:23Z</time>
      </trkpt>
      <trkpt lat="42.90858" lon="1.3868">
        <ele>910.03</ele>
        <time>2014-09-14T11:25:36Z</time>
      </trkpt>
      <trkpt lat="42.90877" lon="1.38739">
        <ele>911.95</ele>
        <time>2014-09-14T11:25:51Z</time>
      </trkpt>
      <trkpt lat="42.90869" lon="1.38753">
        <ele>911.95</ele>
        <time>2014-09-14T11:25:56Z</time>
      </trkpt>
      <trkpt lat="42.90867" lon="1.38754">
        <ele>911.47</ele>
        <time>2014-09-14T11:25:57Z</time>
      </trkpt>
      <trkpt lat="42.90865" lon="1.38754">
        <ele>911.47</ele>
        <time>2014-09-14T11:25:58Z</time>
      </trkpt>
      <trkpt lat="42.90862" lon="1.38753">
        <ele>911.47</ele>
        <time>2014-09-14T11:25:59Z</time>
      </trkpt>
      <trkpt lat="42.90859" lon="1.38752">
        <ele>911.47</ele>
        <time>2014-09-14T11:26:00Z</time>
      </trkpt>
      <trkpt lat="42.9081" lon="1.3874">
        <ele>910.99</ele>
        <time>2014-09-14T11:26:17Z</time>
      </trkpt>
      <trkpt lat="42.90773" lon="1.38769">
        <ele>911.47</ele>
        <time>2014-09-14T11:26:31Z</time>
      </trkpt>
      <trkpt lat="42.90743" lon="1.38829">
        <ele>910.99</ele>
        <time>2014-09-14T11:26:49Z</time>
      </trkpt>
      <trkpt lat="42.90717" lon="1.38895">
        <ele>912.43</ele>
        <time>2014-09-14T11:27:07Z</time>
      </trkpt>
      <trkpt lat="42.90695" lon="1.38948">
        <ele>914.83</ele>
        <time>2014-09-14T11:27:22Z</time>
      </trkpt>
      <trkpt lat="42.90665" lon="1.39014">
        <ele>916.75</ele>
        <time>2014-09-14T11:27:40Z</time>
      </trkpt>
      <trkpt lat="42.90653" lon="1.39077">
        <ele>920.6</ele>
        <time>2014-09-14T11:27:56Z</time>
      </trkpt>
      <trkpt lat="42.90664" lon="1.39159">
        <ele>941.27</ele>
        <time>2014-09-14T11:28:16Z</time>
      </trkpt>
      <trkpt lat="42.90684" lon="1.39222">
        <ele>949.92</ele>
        <time>2014-09-14T11:28:32Z</time>
      </trkpt>
      <trkpt lat="42.9072" lon="1.39284">
        <ele>956.17</ele>
        <time>2014-09-14T11:28:49Z</time>
      </trkpt>
      <trkpt lat="42.90719" lon="1.39331">
        <ele>958.09</ele>
        <time>2014-09-14T11:29:00Z</time>
      </trkpt>
      <trkpt lat="42.90709" lon="1.39388">
        <ele>959.53</ele>
        <time>2014-09-14T11:29:13Z</time>
      </trkpt>
      <trkpt lat="42.90726" lon="1.39442">
        <ele>961.94</ele>
        <time>2014-09-14T11:29:27Z</time>
      </trkpt>
      <trkpt lat="42.90756" lon="1.39514">
        <ele>966.26</ele>
        <time>2014-09-14T11:29:47Z</time>
      </trkpt>
      <trkpt lat="42.90745" lon="1.39546">
        <ele>966.26</ele>
        <time>2014-09-14T11:29:57Z</time>
      </trkpt>
      <trkpt lat="42.90721" lon="1.39595">
        <ele>965.3</ele>
        <time>2014-09-14T11:30:11Z</time>
      </trkpt>
      <trkpt lat="42.90729" lon="1.39658">
        <ele>965.3</ele>
        <time>2014-09-14T11:30:25Z</time>
      </trkpt>
      <trkpt lat="42.90737" lon="1.39743">
        <ele>966.26</ele>
        <time>2014-09-14T11:30:45Z</time>
      </trkpt>
      <trkpt lat="42.90719" lon="1.39794">
        <ele>966.26</ele>
        <time>2014-09-14T11:30:59Z</time>
      </trkpt>
      <trkpt lat="42.90694" lon="1.39854">
        <ele>966.74</ele>
        <time>2014-09-14T11:31:15Z</time>
      </trkpt>
      <trkpt lat="42.90684" lon="1.3994">
        <ele>967.7</ele>
        <time>2014-09-14T11:31:35Z</time>
      </trkpt>
      <trkpt lat="42.90683" lon="1.40031">
        <ele>973.47</ele>
        <time>2014-09-14T11:31:57Z</time>
      </trkpt>
      <trkpt lat="42.90699" lon="1.40107">
        <ele>980.68</ele>
        <time>2014-09-14T11:32:16Z</time>
      </trkpt>
      <trkpt lat="42.90717" lon="1.40184">
        <ele>991.74</ele>
        <time>2014-09-14T11:32:35Z</time>
      </trkpt>
      <trkpt lat="42.90742" lon="1.40227">
        <ele>994.14</ele>
        <time>2014-09-14T11:32:48Z</time>
      </trkpt>
      <trkpt lat="42.90757" lon="1.40289">
        <ele>996.06</ele>
        <time>2014-09-14T11:33:03Z</time>
      </trkpt>
      <trkpt lat="42.90761" lon="1.40371">
        <ele>998.47</ele>
        <time>2014-09-14T11:33:22Z</time>
      </trkpt>
      <trkpt lat="42.90741" lon="1.40426">
        <ele>997.99</ele>
        <time>2014-09-14T11:33:37Z</time>
      </trkpt>
      <trkpt lat="42.9071" lon="1.40486">
        <ele>997.99</ele>
        <time>2014-09-14T11:33:54Z</time>
      </trkpt>
      <trkpt lat="42.90707" lon="1.40567">
        <ele>999.43</ele>
        <time>2014-09-14T11:34:12Z</time>
      </trkpt>
      <trkpt lat="42.90706" lon="1.40635">
        <ele>1000.39</ele>
        <time>2014-09-14T11:34:28Z</time>
      </trkpt>
      <trkpt lat="42.90695" lon="1.40706">
        <ele>999.91</ele>
        <time>2014-09-14T11:34:45Z</time>
      </trkpt>
      <trkpt lat="42.9068" lon="1.40773">
        <ele>1005.2</ele>
        <time>2014-09-14T11:35:01Z</time>
      </trkpt>
      <trkpt lat="42.90678" lon="1.40859">
        <ele>1012.41</ele>
        <time>2014-09-14T11:35:21Z</time>
      </trkpt>
      <trkpt lat="42.90701" lon="1.40917">
        <ele>1019.13</ele>
        <time>2014-09-14T11:35:36Z</time>
      </trkpt>
      <trkpt lat="42.90704" lon="1.40965">
        <ele>1021.54</ele>
        <time>2014-09-14T11:35:48Z</time>
      </trkpt>
      <trkpt lat="42.90687" lon="1.41026">
        <ele>1022.5</ele>
        <time>2014-09-14T11:36:03Z</time>
      </trkpt>
      <trkpt lat="42.90694" lon="1.41085">
        <ele>1024.42</ele>
        <time>2014-09-14T11:36:17Z</time>
      </trkpt>
      <trkpt lat="42.90701" lon="1.41152">
        <ele>1025.86</ele>
        <time>2014-09-14T11:36:33Z</time>
      </trkpt>
      <trkpt lat="42.90671" lon="1.41201">
        <ele>1025.86</ele>
        <time>2014-09-14T11:36:49Z</time>
      </trkpt>
      <trkpt lat="42.90651" lon="1.4126">
        <ele>1026.34</ele>
        <time>2014-09-14T11:37:04Z</time>
      </trkpt>
      <trkpt lat="42.90639" lon="1.41344">
        <ele>1029.23</ele>
        <time>2014-09-14T11:37:24Z</time>
      </trkpt>
      <trkpt lat="42.90636" lon="1.4142">
        <ele>1032.59</ele>
        <time>2014-09-14T11:37:42Z</time>
      </trkpt>
      <trkpt lat="42.90663" lon="1.41461">
        <ele>1036.44</ele>
        <time>2014-09-14T11:37:56Z</time>
      </trkpt>
      <trkpt lat="42.90698" lon="1.41515">
        <ele>1045.57</ele>
        <time>2014-09-14T11:38:13Z</time>
      </trkpt>
      <trkpt lat="42.9073" lon="1.41556">
        <ele>1047.97</ele>
        <time>2014-09-14T11:38:27Z</time>
      </trkpt>
      <trkpt lat="42.90776" lon="1.41596">
        <ele>1048.45</ele>
        <time>2014-09-14T11:38:45Z</time>
      </trkpt>
      <trkpt lat="42.90805" lon="1.41641">
        <ele>1050.38</ele>
        <time>2014-09-14T11:38:59Z</time>
      </trkpt>
      <trkpt lat="42.90794" lon="1.41655">
        <ele>1050.86</ele>
        <time>2014-09-14T11:39:06Z</time>
      </trkpt>
      <trkpt lat="42.90744" lon="1.41685">
        <ele>1051.34</ele>
        <time>2014-09-14T11:39:22Z</time>
      </trkpt>
      <trkpt lat="42.90717" lon="1.41741">
        <ele>1051.34</ele>
        <time>2014-09-14T11:39:38Z</time>
      </trkpt>
      <trkpt lat="42.90696" lon="1.41802">
        <ele>1051.82</ele>
        <time>2014-09-14T11:39:54Z</time>
      </trkpt>
      <trkpt lat="42.90677" lon="1.41859">
        <ele>1053.74</ele>
        <time>2014-09-14T11:40:09Z</time>
      </trkpt>
      <trkpt lat="42.90687" lon="1.419">
        <ele>1055.18</ele>
        <time>2014-09-14T11:40:20Z</time>
      </trkpt>
      <trkpt lat="42.90711" lon="1.4195">
        <ele>1055.67</ele>
        <time>2014-09-14T11:40:34Z</time>
      </trkpt>
      <trkpt lat="42.90718" lon="1.4201">
        <ele>1057.11</ele>
        <time>2014-09-14T11:40:49Z</time>
      </trkpt>
      <trkpt lat="42.90712" lon="1.42048">
        <ele>1057.11</ele>
        <time>2014-09-14T11:41:00Z</time>
      </trkpt>
      <trkpt lat="42.90693" lon="1.4209">
        <ele>1057.11</ele>
        <time>2014-09-14T11:41:13Z</time>
      </trkpt>
      <trkpt lat="42.90665" lon="1.42112">
        <ele>1057.59</ele>
        <time>2014-09-14T11:41:25Z</time>
      </trkpt>
      <trkpt lat="42.90651" lon="1.42168">
        <ele>1058.55</ele>
        <time>2014-09-14T11:41:41Z</time>
      </trkpt>
      <trkpt lat="42.90643" lon="1.42231">
        <ele>1059.03</ele>
        <time>2014-09-14T11:41:58Z</time>
      </trkpt>
      <trkpt lat="42.90643" lon="1.42286">
        <ele>1063.36</ele>
        <time>2014-09-14T11:42:12Z</time>
      </trkpt>
      <trkpt lat="42.90672" lon="1.42321">
        <ele>1066.24</ele>
        <time>2014-09-14T11:42:25Z</time>
      </trkpt>
      <trkpt lat="42.90718" lon="1.42329">
        <ele>1069.12</ele>
        <time>2014-09-14T11:42:39Z</time>
      </trkpt>
      <trkpt lat="42.90753" lon="1.42353">
        <ele>1072.01</ele>
        <time>2014-09-14T11:42:52Z</time>
      </trkpt>
      <trkpt lat="42.90782" lon="1.42397">
        <ele>1075.37</ele>
        <time>2014-09-14T11:43:06Z</time>
      </trkpt>
      <trkpt lat="42.90799" lon="1.42459">
        <ele>1078.74</ele>
        <time>2014-09-14T11:43:21Z</time>
      </trkpt>
      <trkpt lat="42.90791" lon="1.42519">
        <ele>1082.58</ele>
        <time>2014-09-14T11:43:36Z</time>
      </trkpt>
      <trkpt lat="42.90759" lon="1.42534">
        <ele>1082.58</ele>
        <time>2014-09-14T11:43:49Z</time>
      </trkpt>
      <trkpt lat="42.90705" lon="1.42562">
        <ele>1083.06</ele>
        <time>2014-09-14T11:44:07Z</time>
      </trkpt>
      <trkpt lat="42.90661" lon="1.42605">
        <ele>1085.47</ele>
        <time>2014-09-14T11:44:24Z</time>
      </trkpt>
      <trkpt lat="42.90623" lon="1.42655">
        <ele>1098.92</ele>
        <time>2014-09-14T11:44:41Z</time>
      </trkpt>
      <trkpt lat="42.90615" lon="1.42715">
        <ele>1109.02</ele>
        <time>2014-09-14T11:44:57Z</time>
      </trkpt>
      <trkpt lat="42.90619" lon="1.42773">
        <ele>1112.38</ele>
        <time>2014-09-14T11:45:12Z</time>
      </trkpt>
      <trkpt lat="42.90642" lon="1.42816">
        <ele>1113.82</ele>
        <time>2014-09-14T11:45:26Z</time>
      </trkpt>
      <trkpt lat="42.90664" lon="1.42852">
        <ele>1116.23</ele>
        <time>2014-09-14T11:45:38Z</time>
      </trkpt>
      <trkpt lat="42.90651" lon="1.42901">
        <ele>1122</ele>
        <time>2014-09-14T11:45:52Z</time>
      </trkpt>
      <trkpt lat="42.90615" lon="1.42923">
        <ele>1127.76</ele>
        <time>2014-09-14T11:46:07Z</time>
      </trkpt>
      <trkpt lat="42.90565" lon="1.42941">
        <ele>1134.97</ele>
        <time>2014-09-14T11:46:21Z</time>
      </trkpt>
      <trkpt lat="42.9052" lon="1.42964">
        <ele>1139.78</ele>
        <time>2014-09-14T11:46:35Z</time>
      </trkpt>
      <trkpt lat="42.90472" lon="1.43019">
        <ele>1143.14</ele>
        <time>2014-09-14T11:46:52Z</time>
      </trkpt>
      <trkpt lat="42.90452" lon="1.43086">
        <ele>1143.63</ele>
        <time>2014-09-14T11:47:07Z</time>
      </trkpt>
      <trkpt lat="42.90462" lon="1.43142">
        <ele>1145.55</ele>
        <time>2014-09-14T11:47:20Z</time>
      </trkpt>
      <trkpt lat="42.90512" lon="1.43191">
        <ele>1146.99</ele>
        <time>2014-09-14T11:47:36Z</time>
      </trkpt>
      <trkpt lat="42.90547" lon="1.43245">
        <ele>1147.95</ele>
        <time>2014-09-14T11:47:51Z</time>
      </trkpt>
      <trkpt lat="42.90552" lon="1.4329">
        <ele>1146.03</ele>
        <time>2014-09-14T11:48:02Z</time>
      </trkpt>
      <trkpt lat="42.9051" lon="1.43305">
        <ele>1148.91</ele>
        <time>2014-09-14T11:48:12Z</time>
      </trkpt>
      <trkpt lat="42.90462" lon="1.43358">
        <ele>1153.72</ele>
        <time>2014-09-14T11:48:27Z</time>
      </trkpt>
      <trkpt lat="42.90416" lon="1.43429">
        <ele>1158.05</ele>
        <time>2014-09-14T11:48:45Z</time>
      </trkpt>
      <trkpt lat="42.90414" lon="1.43435">
        <ele>1158.05</ele>
        <time>2014-09-14T11:48:46Z</time>
      </trkpt>
      <trkpt lat="42.90409" lon="1.43521">
        <ele>1159.97</ele>
        <time>2014-09-14T11:49:02Z</time>
      </trkpt>
      <trkpt lat="42.90439" lon="1.4356">
        <ele>1161.41</ele>
        <time>2014-09-14T11:49:13Z</time>
      </trkpt>
      <trkpt lat="42.90467" lon="1.43595">
        <ele>1162.37</ele>
        <time>2014-09-14T11:49:22Z</time>
      </trkpt>
      <trkpt lat="42.90469" lon="1.436">
        <ele>1162.37</ele>
        <time>2014-09-14T11:49:23Z</time>
      </trkpt>
      <trkpt lat="42.90497" lon="1.43647">
        <ele>1164.29</ele>
        <time>2014-09-14T11:49:35Z</time>
      </trkpt>
      <trkpt lat="42.9052" lon="1.43669">
        <ele>1166.22</ele>
        <time>2014-09-14T11:49:42Z</time>
      </trkpt>
      <trkpt lat="42.90523" lon="1.43675">
        <ele>1166.22</ele>
        <time>2014-09-14T11:49:43Z</time>
      </trkpt>
      <trkpt lat="42.90524" lon="1.4368">
        <ele>1166.7</ele>
        <time>2014-09-14T11:49:44Z</time>
      </trkpt>
      <trkpt lat="42.90526" lon="1.43687">
        <ele>1167.18</ele>
        <time>2014-09-14T11:49:45Z</time>
      </trkpt>
      <trkpt lat="42.90526" lon="1.43691">
        <ele>1167.66</ele>
        <time>2014-09-14T11:49:46Z</time>
      </trkpt>
      <trkpt lat="42.90526" lon="1.43696">
        <ele>1167.66</ele>
        <time>2014-09-14T11:49:47Z</time>
      </trkpt>
      <trkpt lat="42.90525" lon="1.43701">
        <ele>1167.66</ele>
        <time>2014-09-14T11:49:48Z</time>
      </trkpt>
      <trkpt lat="42.90524" lon="1.43706">
        <ele>1168.14</ele>
        <time>2014-09-14T11:49:49Z</time>
      </trkpt>
      <trkpt lat="42.90523" lon="1.4371">
        <ele>1168.14</ele>
        <time>2014-09-14T11:49:50Z</time>
      </trkpt>
      <trkpt lat="42.90523" lon="1.43771">
        <ele>1170.06</ele>
        <time>2014-09-14T11:50:02Z</time>
      </trkpt>
      <trkpt lat="42.90507" lon="1.43817">
        <ele>1171.5</ele>
        <time>2014-09-14T11:50:14Z</time>
      </trkpt>
      <trkpt lat="42.90467" lon="1.43823">
        <ele>1171.98</ele>
        <time>2014-09-14T11:50:27Z</time>
      </trkpt>
      <trkpt lat="42.90409" lon="1.43839">
        <ele>1174.87</ele>
        <time>2014-09-14T11:50:43Z</time>
      </trkpt>
      <trkpt lat="42.90389" lon="1.439">
        <ele>1179.19</ele>
        <time>2014-09-14T11:50:57Z</time>
      </trkpt>
      <trkpt lat="42.90409" lon="1.43978">
        <ele>1181.12</ele>
        <time>2014-09-14T11:51:14Z</time>
      </trkpt>
      <trkpt lat="42.904" lon="1.44049">
        <ele>1182.08</ele>
        <time>2014-09-14T11:51:29Z</time>
      </trkpt>
      <trkpt lat="42.90394" lon="1.44073">
        <ele>1181.6</ele>
        <time>2014-09-14T11:51:36Z</time>
      </trkpt>
      <trkpt lat="42.90391" lon="1.44075">
        <ele>1182.08</ele>
        <time>2014-09-14T11:51:37Z</time>
      </trkpt>
      <trkpt lat="42.90387" lon="1.44076">
        <ele>1182.08</ele>
        <time>2014-09-14T11:51:38Z</time>
      </trkpt>
      <trkpt lat="42.90384" lon="1.44076">
        <ele>1182.08</ele>
        <time>2014-09-14T11:51:39Z</time>
      </trkpt>
      <trkpt lat="42.9038" lon="1.44076">
        <ele>1182.08</ele>
        <time>2014-09-14T11:51:40Z</time>
      </trkpt>
      <trkpt lat="42.90377" lon="1.44076">
        <ele>1182.08</ele>
        <time>2014-09-14T11:51:41Z</time>
      </trkpt>
      <trkpt lat="42.90375" lon="1.44075">
        <ele>1182.08</ele>
        <time>2014-09-14T11:51:42Z</time>
      </trkpt>
      <trkpt lat="42.90373" lon="1.44073">
        <ele>1182.08</ele>
        <time>2014-09-14T11:51:43Z</time>
      </trkpt>
      <trkpt lat="42.90372" lon="1.4407">
        <ele>1182.08</ele>
        <time>2014-09-14T11:51:44Z</time>
      </trkpt>
      <trkpt lat="42.9037" lon="1.44068">
        <ele>1182.08</ele>
        <time>2014-09-14T11:51:45Z</time>
      </trkpt>
      <trkpt lat="42.90369" lon="1.44065">
        <ele>1181.6</ele>
        <time>2014-09-14T11:51:46Z</time>
      </trkpt>
      <trkpt lat="42.90368" lon="1.44062">
        <ele>1181.6</ele>
        <time>2014-09-14T11:51:47Z</time>
      </trkpt>
      <trkpt lat="42.90337" lon="1.44039">
        <ele>1183.04</ele>
        <time>2014-09-14T11:51:58Z</time>
      </trkpt>
      <trkpt lat="42.903" lon="1.44073">
        <ele>1183.52</ele>
        <time>2014-09-14T11:52:11Z</time>
      </trkpt>
      <trkpt lat="42.9028" lon="1.44152">
        <ele>1184.48</ele>
        <time>2014-09-14T11:52:27Z</time>
      </trkpt>
      <trkpt lat="42.90274" lon="1.44247">
        <ele>1189.29</ele>
        <time>2014-09-14T11:52:47Z</time>
      </trkpt>
      <trkpt lat="42.90292" lon="1.44339">
        <ele>1195.54</ele>
        <time>2014-09-14T11:53:08Z</time>
      </trkpt>
      <trkpt lat="42.90329" lon="1.44416">
        <ele>1198.42</ele>
        <time>2014-09-14T11:53:28Z</time>
      </trkpt>
      <trkpt lat="42.90358" lon="1.44489">
        <ele>1201.3</ele>
        <time>2014-09-14T11:53:46Z</time>
      </trkpt>
      <trkpt lat="42.90348" lon="1.44541">
        <ele>1202.75</ele>
        <time>2014-09-14T11:53:59Z</time>
      </trkpt>
      <trkpt lat="42.90345" lon="1.44542">
        <ele>1203.23</ele>
        <time>2014-09-14T11:54:00Z</time>
      </trkpt>
      <trkpt lat="42.90341" lon="1.44542">
        <ele>1203.23</ele>
        <time>2014-09-14T11:54:01Z</time>
      </trkpt>
      <trkpt lat="42.90338" lon="1.44542">
        <ele>1203.71</ele>
        <time>2014-09-14T11:54:02Z</time>
      </trkpt>
      <trkpt lat="42.90335" lon="1.44541">
        <ele>1203.71</ele>
        <time>2014-09-14T11:54:03Z</time>
      </trkpt>
      <trkpt lat="42.90332" lon="1.4454">
        <ele>1203.71</ele>
        <time>2014-09-14T11:54:04Z</time>
      </trkpt>
      <trkpt lat="42.90329" lon="1.44539">
        <ele>1203.71</ele>
        <time>2014-09-14T11:54:05Z</time>
      </trkpt>
      <trkpt lat="42.90326" lon="1.44538">
        <ele>1203.71</ele>
        <time>2014-09-14T11:54:06Z</time>
      </trkpt>
      <trkpt lat="42.90277" lon="1.44526">
        <ele>1209</ele>
        <time>2014-09-14T11:54:21Z</time>
      </trkpt>
      <trkpt lat="42.90232" lon="1.44529">
        <ele>1213.8</ele>
        <time>2014-09-14T11:54:35Z</time>
      </trkpt>
      <trkpt lat="42.90175" lon="1.44541">
        <ele>1217.17</ele>
        <time>2014-09-14T11:54:51Z</time>
      </trkpt>
      <trkpt lat="42.90145" lon="1.44578">
        <ele>1219.57</ele>
        <time>2014-09-14T11:55:04Z</time>
      </trkpt>
      <trkpt lat="42.90117" lon="1.44652">
        <ele>1221.49</ele>
        <time>2014-09-14T11:55:22Z</time>
      </trkpt>
      <trkpt lat="42.90086" lon="1.44721">
        <ele>1228.7</ele>
        <time>2014-09-14T11:55:40Z</time>
      </trkpt>
      <trkpt lat="42.90061" lon="1.4479">
        <ele>1233.03</ele>
        <time>2014-09-14T11:55:57Z</time>
      </trkpt>
      <trkpt lat="42.90056" lon="1.44877">
        <ele>1233.51</ele>
        <time>2014-09-14T11:56:16Z</time>
      </trkpt>
      <trkpt lat="42.9005" lon="1.44952">
        <ele>1234.47</ele>
        <time>2014-09-14T11:56:32Z</time>
      </trkpt>
      <trkpt lat="42.90023" lon="1.45025">
        <ele>1238.32</ele>
        <time>2014-09-14T11:56:49Z</time>
      </trkpt>
      <trkpt lat="42.89998" lon="1.4511">
        <ele>1242.16</ele>
        <time>2014-09-14T11:57:07Z</time>
      </trkpt>
      <trkpt lat="42.89978" lon="1.45205">
        <ele>1243.6</ele>
        <time>2014-09-14T11:57:26Z</time>
      </trkpt>
      <trkpt lat="42.8995" lon="1.45256">
        <ele>1245.04</ele>
        <time>2014-09-14T11:57:39Z</time>
      </trkpt>
      <trkpt lat="42.89906" lon="1.4528">
        <ele>1246.97</ele>
        <time>2014-09-14T11:57:54Z</time>
      </trkpt>
      <trkpt lat="42.89905" lon="1.45282">
        <ele>1246.97</ele>
        <time>2014-09-14T11:58:06Z</time>
      </trkpt>
      <trkpt lat="42.89904" lon="1.45281">
        <ele>1246.49</ele>
        <time>2014-09-14T11:58:31Z</time>
      </trkpt>
      <trkpt lat="42.89902" lon="1.4528">
        <ele>1245.53</ele>
        <time>2014-09-14T11:58:56Z</time>
      </trkpt>
      <trkpt lat="42.89902" lon="1.4528">
        <ele>1246.97</ele>
        <time>2014-09-14T11:59:23Z</time>
      </trkpt>
      <trkpt lat="42.89903" lon="1.45278">
        <ele>1246.97</ele>
        <time>2014-09-14T11:59:58Z</time>
      </trkpt>
      <trkpt lat="42.89902" lon="1.45278">
        <ele>1248.41</ele>
        <time>2014-09-14T12:00:34Z</time>
      </trkpt>
      <trkpt lat="42.89903" lon="1.45277">
        <ele>1247.93</ele>
        <time>2014-09-14T12:01:02Z</time>
      </trkpt>
      <trkpt lat="42.89903" lon="1.45278">
        <ele>1247.93</ele>
        <time>2014-09-14T12:01:33Z</time>
      </trkpt>
      <trkpt lat="42.89905" lon="1.4528">
        <ele>1247.93</ele>
        <time>2014-09-14T12:02:09Z</time>
      </trkpt>
      <trkpt lat="42.89902" lon="1.4528">
        <ele>1247.93</ele>
        <time>2014-09-14T12:02:32Z</time>
      </trkpt>
      <trkpt lat="42.89904" lon="1.4528">
        <ele>1246.97</ele>
        <time>2014-09-14T12:03:01Z</time>
      </trkpt>
      <trkpt lat="42.89905" lon="1.45282">
        <ele>1246.97</ele>
        <time>2014-09-14T12:03:27Z</time>
      </trkpt>
      <trkpt lat="42.89904" lon="1.4528">
        <ele>1246.01</ele>
        <time>2014-09-14T12:03:54Z</time>
      </trkpt>
      <trkpt lat="42.89905" lon="1.4528">
        <ele>1246.97</ele>
        <time>2014-09-14T12:04:17Z</time>
      </trkpt>
      <trkpt lat="42.89902" lon="1.45279">
        <ele>1246.49</ele>
        <time>2014-09-14T12:04:55Z</time>
      </trkpt>
      <trkpt lat="42.89901" lon="1.45282">
        <ele>1245.53</ele>
        <time>2014-09-14T12:05:30Z</time>
      </trkpt>
      <trkpt lat="42.89902" lon="1.45282">
        <ele>1245.53</ele>
        <time>2014-09-14T12:06:04Z</time>
      </trkpt>
      <trkpt lat="42.89902" lon="1.45283">
        <ele>1245.53</ele>
        <time>2014-09-14T12:06:36Z</time>
      </trkpt>
      <trkpt lat="42.89902" lon="1.45279">
        <ele>1246.49</ele>
        <time>2014-09-14T12:07:03Z</time>
      </trkpt>
      <trkpt lat="42.89904" lon="1.45284">
        <ele>1247.93</ele>
        <time>2014-09-14T12:07:12Z</time>
      </trkpt>
      <trkpt lat="42.89904" lon="1.45323">
        <ele>1246.97</ele>
        <time>2014-09-14T12:07:22Z</time>
      </trkpt>
      <trkpt lat="42.89906" lon="1.4533">
        <ele>1246.97</ele>
        <time>2014-09-14T12:07:23Z</time>
      </trkpt>
      <trkpt lat="42.89913" lon="1.45348">
        <ele>1246.49</ele>
        <time>2014-09-14T12:07:26Z</time>
      </trkpt>
      <trkpt lat="42.89924" lon="1.45395">
        <ele>1245.04</ele>
        <time>2014-09-14T12:07:32Z</time>
      </trkpt>
      <trkpt lat="42.89925" lon="1.45404">
        <ele>1245.04</ele>
        <time>2014-09-14T12:07:33Z</time>
      </trkpt>
      <trkpt lat="42.89925" lon="1.45413">
        <ele>1244.56</ele>
        <time>2014-09-14T12:07:34Z</time>
      </trkpt>
      <trkpt lat="42.8992" lon="1.45572">
        <ele>1238.8</ele>
        <time>2014-09-14T12:07:49Z</time>
      </trkpt>
      <trkpt lat="42.89913" lon="1.45636">
        <ele>1236.39</ele>
        <time>2014-09-14T12:07:54Z</time>
      </trkpt>
      <trkpt lat="42.89905" lon="1.45661">
        <ele>1235.43</ele>
        <time>2014-09-14T12:07:56Z</time>
      </trkpt>
      <trkpt lat="42.8986" lon="1.45782">
        <ele>1229.18</ele>
        <time>2014-09-14T12:08:06Z</time>
      </trkpt>
      <trkpt lat="42.89858" lon="1.45793">
        <ele>1228.7</ele>
        <time>2014-09-14T12:08:07Z</time>
      </trkpt>
      <trkpt lat="42.89859" lon="1.45804">
        <ele>1227.74</ele>
        <time>2014-09-14T12:08:08Z</time>
      </trkpt>
      <trkpt lat="42.89863" lon="1.45814">
        <ele>1227.26</ele>
        <time>2014-09-14T12:08:09Z</time>
      </trkpt>
      <trkpt lat="42.89868" lon="1.4582">
        <ele>1226.78</ele>
        <time>2014-09-14T12:08:10Z</time>
      </trkpt>
      <trkpt lat="42.89875" lon="1.45825">
        <ele>1226.3</ele>
        <time>2014-09-14T12:08:11Z</time>
      </trkpt>
      <trkpt lat="42.89883" lon="1.45829">
        <ele>1225.34</ele>
        <time>2014-09-14T12:08:12Z</time>
      </trkpt>
      <trkpt lat="42.89891" lon="1.45833">
        <ele>1224.86</ele>
        <time>2014-09-14T12:08:13Z</time>
      </trkpt>
      <trkpt lat="42.89898" lon="1.45841">
        <ele>1224.86</ele>
        <time>2014-09-14T12:08:14Z</time>
      </trkpt>
      <trkpt lat="42.89903" lon="1.4585">
        <ele>1224.38</ele>
        <time>2014-09-14T12:08:15Z</time>
      </trkpt>
      <trkpt lat="42.89906" lon="1.45862">
        <ele>1223.9</ele>
        <time>2014-09-14T12:08:16Z</time>
      </trkpt>
      <trkpt lat="42.89906" lon="1.45874">
        <ele>1223.42</ele>
        <time>2014-09-14T12:08:17Z</time>
      </trkpt>
      <trkpt lat="42.89904" lon="1.45886">
        <ele>1222.93</ele>
        <time>2014-09-14T12:08:18Z</time>
      </trkpt>
      <trkpt lat="42.89901" lon="1.45897">
        <ele>1222.45</ele>
        <time>2014-09-14T12:08:19Z</time>
      </trkpt>
      <trkpt lat="42.89897" lon="1.45911">
        <ele>1221.97</ele>
        <time>2014-09-14T12:08:20Z</time>
      </trkpt>
      <trkpt lat="42.8989" lon="1.45928">
        <ele>1221.49</ele>
        <time>2014-09-14T12:08:22Z</time>
      </trkpt>
      <trkpt lat="42.89883" lon="1.45933">
        <ele>1221.01</ele>
        <time>2014-09-14T12:08:23Z</time>
      </trkpt>
      <trkpt lat="42.89877" lon="1.45935">
        <ele>1220.53</ele>
        <time>2014-09-14T12:08:24Z</time>
      </trkpt>
      <trkpt lat="42.8987" lon="1.45936">
        <ele>1220.05</ele>
        <time>2014-09-14T12:08:25Z</time>
      </trkpt>
      <trkpt lat="42.8986" lon="1.45936">
        <ele>1219.57</ele>
        <time>2014-09-14T12:08:26Z</time>
      </trkpt>
      <trkpt lat="42.89848" lon="1.45939">
        <ele>1219.09</ele>
        <time>2014-09-14T12:08:27Z</time>
      </trkpt>
      <trkpt lat="42.8984" lon="1.45946">
        <ele>1218.61</ele>
        <time>2014-09-14T12:08:28Z</time>
      </trkpt>
      <trkpt lat="42.89833" lon="1.45957">
        <ele>1218.13</ele>
        <time>2014-09-14T12:08:29Z</time>
      </trkpt>
      <trkpt lat="42.89829" lon="1.45966">
        <ele>1217.65</ele>
        <time>2014-09-14T12:08:30Z</time>
      </trkpt>
      <trkpt lat="42.89826" lon="1.45977">
        <ele>1217.17</ele>
        <time>2014-09-14T12:08:31Z</time>
      </trkpt>
      <trkpt lat="42.89828" lon="1.4599">
        <ele>1216.69</ele>
        <time>2014-09-14T12:08:32Z</time>
      </trkpt>
      <trkpt lat="42.89832" lon="1.46">
        <ele>1216.21</ele>
        <time>2014-09-14T12:08:33Z</time>
      </trkpt>
      <trkpt lat="42.89838" lon="1.46007">
        <ele>1215.72</ele>
        <time>2014-09-14T12:08:34Z</time>
      </trkpt>
      <trkpt lat="42.89844" lon="1.46014">
        <ele>1215.24</ele>
        <time>2014-09-14T12:08:35Z</time>
      </trkpt>
      <trkpt lat="42.89849" lon="1.46022">
        <ele>1214.76</ele>
        <time>2014-09-14T12:08:36Z</time>
      </trkpt>
      <trkpt lat="42.89851" lon="1.46031">
        <ele>1214.76</ele>
        <time>2014-09-14T12:08:37Z</time>
      </trkpt>
      <trkpt lat="42.89853" lon="1.46042">
        <ele>1214.28</ele>
        <time>2014-09-14T12:08:38Z</time>
      </trkpt>
      <trkpt lat="42.89853" lon="1.46071">
        <ele>1212.84</ele>
        <time>2014-09-14T12:08:42Z</time>
      </trkpt>
      <trkpt lat="42.89842" lon="1.46072">
        <ele>1212.36</ele>
        <time>2014-09-14T12:08:43Z</time>
      </trkpt>
      <trkpt lat="42.89831" lon="1.46075">
        <ele>1211.88</ele>
        <time>2014-09-14T12:08:44Z</time>
      </trkpt>
      <trkpt lat="42.89823" lon="1.46081">
        <ele>1211.4</ele>
        <time>2014-09-14T12:08:45Z</time>
      </trkpt>
      <trkpt lat="42.89815" lon="1.4609">
        <ele>1210.92</ele>
        <time>2014-09-14T12:08:46Z</time>
      </trkpt>
      <trkpt lat="42.89812" lon="1.46101">
        <ele>1210.44</ele>
        <time>2014-09-14T12:08:47Z</time>
      </trkpt>
      <trkpt lat="42.8981" lon="1.46112">
        <ele>1209.96</ele>
        <time>2014-09-14T12:08:48Z</time>
      </trkpt>
      <trkpt lat="42.89809" lon="1.46123">
        <ele>1209</ele>
        <time>2014-09-14T12:08:49Z</time>
      </trkpt>
      <trkpt lat="42.89809" lon="1.46135">
        <ele>1208.51</ele>
        <time>2014-09-14T12:08:50Z</time>
      </trkpt>
      <trkpt lat="42.89851" lon="1.46294">
        <ele>1201.3</ele>
        <time>2014-09-14T12:09:02Z</time>
      </trkpt>
      <trkpt lat="42.89858" lon="1.4632">
        <ele>1200.34</ele>
        <time>2014-09-14T12:09:04Z</time>
      </trkpt>
      <trkpt lat="42.8986" lon="1.46334">
        <ele>1199.86</ele>
        <time>2014-09-14T12:09:05Z</time>
      </trkpt>
      <trkpt lat="42.89861" lon="1.46348">
        <ele>1199.38</ele>
        <time>2014-09-14T12:09:06Z</time>
      </trkpt>
      <trkpt lat="42.89859" lon="1.46362">
        <ele>1198.9</ele>
        <time>2014-09-14T12:09:07Z</time>
      </trkpt>
      <trkpt lat="42.89856" lon="1.46375">
        <ele>1198.42</ele>
        <time>2014-09-14T12:09:08Z</time>
      </trkpt>
      <trkpt lat="42.89848" lon="1.46386">
        <ele>1197.94</ele>
        <time>2014-09-14T12:09:09Z</time>
      </trkpt>
      <trkpt lat="42.89841" lon="1.46396">
        <ele>1197.46</ele>
        <time>2014-09-14T12:09:10Z</time>
      </trkpt>
      <trkpt lat="42.89759" lon="1.46545">
        <ele>1190.73</ele>
        <time>2014-09-14T12:09:22Z</time>
      </trkpt>
      <trkpt lat="42.89705" lon="1.467">
        <ele>1184.48</ele>
        <time>2014-09-14T12:09:32Z</time>
      </trkpt>
      <trkpt lat="42.89672" lon="1.46809">
        <ele>1178.71</ele>
        <time>2014-09-14T12:09:40Z</time>
      </trkpt>
      <trkpt lat="42.8967" lon="1.46821">
        <ele>1177.75</ele>
        <time>2014-09-14T12:09:41Z</time>
      </trkpt>
      <trkpt lat="42.89671" lon="1.4683">
        <ele>1177.27</ele>
        <time>2014-09-14T12:09:42Z</time>
      </trkpt>
      <trkpt lat="42.89673" lon="1.46838">
        <ele>1176.79</ele>
        <time>2014-09-14T12:09:43Z</time>
      </trkpt>
      <trkpt lat="42.89677" lon="1.46842">
        <ele>1176.31</ele>
        <time>2014-09-14T12:09:44Z</time>
      </trkpt>
      <trkpt lat="42.89683" lon="1.46843">
        <ele>1175.83</ele>
        <time>2014-09-14T12:09:45Z</time>
      </trkpt>
      <trkpt lat="42.89689" lon="1.46843">
        <ele>1174.87</ele>
        <time>2014-09-14T12:09:46Z</time>
      </trkpt>
      <trkpt lat="42.89695" lon="1.46844">
        <ele>1173.91</ele>
        <time>2014-09-14T12:09:47Z</time>
      </trkpt>
      <trkpt lat="42.89702" lon="1.46847">
        <ele>1173.43</ele>
        <time>2014-09-14T12:09:48Z</time>
      </trkpt>
      <trkpt lat="42.89708" lon="1.46851">
        <ele>1172.95</ele>
        <time>2014-09-14T12:09:49Z</time>
      </trkpt>
      <trkpt lat="42.89713" lon="1.46856">
        <ele>1172.95</ele>
        <time>2014-09-14T12:09:50Z</time>
      </trkpt>
      <trkpt lat="42.89719" lon="1.46865">
        <ele>1173.43</ele>
        <time>2014-09-14T12:09:51Z</time>
      </trkpt>
      <trkpt lat="42.89724" lon="1.46874">
        <ele>1173.43</ele>
        <time>2014-09-14T12:09:52Z</time>
      </trkpt>
      <trkpt lat="42.89727" lon="1.46885">
        <ele>1173.43</ele>
        <time>2014-09-14T12:09:53Z</time>
      </trkpt>
      <trkpt lat="42.89727" lon="1.46894">
        <ele>1173.43</ele>
        <time>2014-09-14T12:09:54Z</time>
      </trkpt>
      <trkpt lat="42.89724" lon="1.46903">
        <ele>1172.95</ele>
        <time>2014-09-14T12:09:55Z</time>
      </trkpt>
      <trkpt lat="42.89719" lon="1.46909">
        <ele>1172.95</ele>
        <time>2014-09-14T12:09:56Z</time>
      </trkpt>
      <trkpt lat="42.89714" lon="1.46915">
        <ele>1172.95</ele>
        <time>2014-09-14T12:09:57Z</time>
      </trkpt>
      <trkpt lat="42.89707" lon="1.46919">
        <ele>1172.95</ele>
        <time>2014-09-14T12:09:58Z</time>
      </trkpt>
      <trkpt lat="42.897" lon="1.46921">
        <ele>1172.47</ele>
        <time>2014-09-14T12:09:59Z</time>
      </trkpt>
      <trkpt lat="42.89693" lon="1.46919">
        <ele>1172.47</ele>
        <time>2014-09-14T12:10:00Z</time>
      </trkpt>
      <trkpt lat="42.89686" lon="1.46914">
        <ele>1172.47</ele>
        <time>2014-09-14T12:10:01Z</time>
      </trkpt>
      <trkpt lat="42.8968" lon="1.46905">
        <ele>1171.98</ele>
        <time>2014-09-14T12:10:02Z</time>
      </trkpt>
      <trkpt lat="42.89675" lon="1.46894">
        <ele>1171.98</ele>
        <time>2014-09-14T12:10:03Z</time>
      </trkpt>
      <trkpt lat="42.89672" lon="1.46886">
        <ele>1171.5</ele>
        <time>2014-09-14T12:10:04Z</time>
      </trkpt>
      <trkpt lat="42.89665" lon="1.46867">
        <ele>1171.02</ele>
        <time>2014-09-14T12:10:06Z</time>
      </trkpt>
      <trkpt lat="42.89661" lon="1.46859">
        <ele>1171.02</ele>
        <time>2014-09-14T12:10:07Z</time>
      </trkpt>
      <trkpt lat="42.89652" lon="1.46843">
        <ele>1170.06</ele>
        <time>2014-09-14T12:10:10Z</time>
      </trkpt>
      <trkpt lat="42.8965" lon="1.46836">
        <ele>1169.58</ele>
        <time>2014-09-14T12:10:11Z</time>
      </trkpt>
      <trkpt lat="42.8965" lon="1.46829">
        <ele>1169.58</ele>
        <time>2014-09-14T12:10:12Z</time>
      </trkpt>
      <trkpt lat="42.8965" lon="1.46821">
        <ele>1169.58</ele>
        <time>2014-09-14T12:10:13Z</time>
      </trkpt>
      <trkpt lat="42.89652" lon="1.46813">
        <ele>1169.1</ele>
        <time>2014-09-14T12:10:14Z</time>
      </trkpt>
      <trkpt lat="42.89653" lon="1.46806">
        <ele>1169.1</ele>
        <time>2014-09-14T12:10:15Z</time>
      </trkpt>
      <trkpt lat="42.89655" lon="1.46798">
        <ele>1169.1</ele>
        <time>2014-09-14T12:10:16Z</time>
      </trkpt>
      <trkpt lat="42.89657" lon="1.46789">
        <ele>1169.1</ele>
        <time>2014-09-14T12:10:17Z</time>
      </trkpt>
      <trkpt lat="42.89659" lon="1.46782">
        <ele>1168.62</ele>
        <time>2014-09-14T12:10:18Z</time>
      </trkpt>
      <trkpt lat="42.89679" lon="1.46632">
        <ele>1164.77</ele>
        <time>2014-09-14T12:10:34Z</time>
      </trkpt>
      <trkpt lat="42.89688" lon="1.46479">
        <ele>1159.01</ele>
        <time>2014-09-14T12:10:47Z</time>
      </trkpt>
      <trkpt lat="42.89722" lon="1.46337">
        <ele>1156.12</ele>
        <time>2014-09-14T12:11:00Z</time>
      </trkpt>
      <trkpt lat="42.89716" lon="1.46213">
        <ele>1152.28</ele>
        <time>2014-09-14T12:11:11Z</time>
      </trkpt>
      <trkpt lat="42.89713" lon="1.4619">
        <ele>1152.28</ele>
        <time>2014-09-14T12:11:13Z</time>
      </trkpt>
      <trkpt lat="42.8971" lon="1.46183">
        <ele>1151.8</ele>
        <time>2014-09-14T12:11:14Z</time>
      </trkpt>
      <trkpt lat="42.89704" lon="1.46175">
        <ele>1151.8</ele>
        <time>2014-09-14T12:11:15Z</time>
      </trkpt>
      <trkpt lat="42.89698" lon="1.46172">
        <ele>1151.32</ele>
        <time>2014-09-14T12:11:16Z</time>
      </trkpt>
      <trkpt lat="42.89691" lon="1.46171">
        <ele>1151.32</ele>
        <time>2014-09-14T12:11:17Z</time>
      </trkpt>
      <trkpt lat="42.89683" lon="1.46174">
        <ele>1150.84</ele>
        <time>2014-09-14T12:11:18Z</time>
      </trkpt>
      <trkpt lat="42.89677" lon="1.46183">
        <ele>1150.84</ele>
        <time>2014-09-14T12:11:19Z</time>
      </trkpt>
      <trkpt lat="42.89675" lon="1.46194">
        <ele>1150.35</ele>
        <time>2014-09-14T12:11:20Z</time>
      </trkpt>
      <trkpt lat="42.89676" lon="1.46203">
        <ele>1150.35</ele>
        <time>2014-09-14T12:11:21Z</time>
      </trkpt>
      <trkpt lat="42.8968" lon="1.46214">
        <ele>1149.87</ele>
        <time>2014-09-14T12:11:22Z</time>
      </trkpt>
      <trkpt lat="42.89685" lon="1.46223">
        <ele>1149.87</ele>
        <time>2014-09-14T12:11:23Z</time>
      </trkpt>
      <trkpt lat="42.89703" lon="1.46263">
        <ele>1148.43</ele>
        <time>2014-09-14T12:11:27Z</time>
      </trkpt>
      <trkpt lat="42.89705" lon="1.46275">
        <ele>1148.43</ele>
        <time>2014-09-14T12:11:28Z</time>
      </trkpt>
      <trkpt lat="42.89707" lon="1.46285">
        <ele>1147.95</ele>
        <time>2014-09-14T12:11:29Z</time>
      </trkpt>
      <trkpt lat="42.89708" lon="1.46298">
        <ele>1147.95</ele>
        <time>2014-09-14T12:11:30Z</time>
      </trkpt>
      <trkpt lat="42.89706" lon="1.4631">
        <ele>1147.47</ele>
        <time>2014-09-14T12:11:31Z</time>
      </trkpt>
      <trkpt lat="42.89705" lon="1.46321">
        <ele>1147.47</ele>
        <time>2014-09-14T12:11:32Z</time>
      </trkpt>
      <trkpt lat="42.897" lon="1.46343">
        <ele>1146.99</ele>
        <time>2014-09-14T12:11:34Z</time>
      </trkpt>
      <trkpt lat="42.89674" lon="1.46424">
        <ele>1144.59</ele>
        <time>2014-09-14T12:11:41Z</time>
      </trkpt>
      <trkpt lat="42.89667" lon="1.46433">
        <ele>1144.59</ele>
        <time>2014-09-14T12:11:42Z</time>
      </trkpt>
      <trkpt lat="42.89646" lon="1.46465">
        <ele>1143.63</ele>
        <time>2014-09-14T12:11:45Z</time>
      </trkpt>
      <trkpt lat="42.89641" lon="1.46478">
        <ele>1143.14</ele>
        <time>2014-09-14T12:11:46Z</time>
      </trkpt>
      <trkpt lat="42.89636" lon="1.4649">
        <ele>1142.66</ele>
        <time>2014-09-14T12:11:47Z</time>
      </trkpt>
      <trkpt lat="42.896" lon="1.46668">
        <ele>1134.97</ele>
        <time>2014-09-14T12:11:59Z</time>
      </trkpt>
      <trkpt lat="42.89596" lon="1.46732">
        <ele>1132.09</ele>
        <time>2014-09-14T12:12:03Z</time>
      </trkpt>
      <trkpt lat="42.89593" lon="1.46746">
        <ele>1131.61</ele>
        <time>2014-09-14T12:12:04Z</time>
      </trkpt>
      <trkpt lat="42.89589" lon="1.46761">
        <ele>1131.13</ele>
        <time>2014-09-14T12:12:05Z</time>
      </trkpt>
      <trkpt lat="42.89582" lon="1.46775">
        <ele>1130.17</ele>
        <time>2014-09-14T12:12:06Z</time>
      </trkpt>
      <trkpt lat="42.89576" lon="1.46788">
        <ele>1129.69</ele>
        <time>2014-09-14T12:12:07Z</time>
      </trkpt>
      <trkpt lat="42.8956" lon="1.4683">
        <ele>1127.76</ele>
        <time>2014-09-14T12:12:10Z</time>
      </trkpt>
      <trkpt lat="42.89557" lon="1.46846">
        <ele>1126.8</ele>
        <time>2014-09-14T12:12:11Z</time>
      </trkpt>
      <trkpt lat="42.89556" lon="1.46864">
        <ele>1126.32</ele>
        <time>2014-09-14T12:12:12Z</time>
      </trkpt>
      <trkpt lat="42.89555" lon="1.4688">
        <ele>1125.84</ele>
        <time>2014-09-14T12:12:13Z</time>
      </trkpt>
      <trkpt lat="42.89555" lon="1.46897">
        <ele>1124.88</ele>
        <time>2014-09-14T12:12:14Z</time>
      </trkpt>
      <trkpt lat="42.89567" lon="1.47066">
        <ele>1117.19</ele>
        <time>2014-09-14T12:12:24Z</time>
      </trkpt>
      <trkpt lat="42.89568" lon="1.47125">
        <ele>1114.31</ele>
        <time>2014-09-14T12:12:28Z</time>
      </trkpt>
      <trkpt lat="42.89564" lon="1.47138">
        <ele>1113.34</ele>
        <time>2014-09-14T12:12:29Z</time>
      </trkpt>
      <trkpt lat="42.89554" lon="1.47164">
        <ele>1111.9</ele>
        <time>2014-09-14T12:12:31Z</time>
      </trkpt>
      <trkpt lat="42.89499" lon="1.4728">
        <ele>1105.17</ele>
        <time>2014-09-14T12:12:40Z</time>
      </trkpt>
      <trkpt lat="42.89495" lon="1.47298">
        <ele>1104.69</ele>
        <time>2014-09-14T12:12:41Z</time>
      </trkpt>
      <trkpt lat="42.89493" lon="1.47312">
        <ele>1103.73</ele>
        <time>2014-09-14T12:12:42Z</time>
      </trkpt>
      <trkpt lat="42.89492" lon="1.47329">
        <ele>1103.25</ele>
        <time>2014-09-14T12:12:43Z</time>
      </trkpt>
      <trkpt lat="42.89491" lon="1.47349">
        <ele>1102.29</ele>
        <time>2014-09-14T12:12:44Z</time>
      </trkpt>
      <trkpt lat="42.89488" lon="1.47469">
        <ele>1097</ele>
        <time>2014-09-14T12:12:51Z</time>
      </trkpt>
      <trkpt lat="42.89485" lon="1.47482">
        <ele>1096.04</ele>
        <time>2014-09-14T12:12:52Z</time>
      </trkpt>
      <trkpt lat="42.89475" lon="1.47522">
        <ele>1093.64</ele>
        <time>2014-09-14T12:12:55Z</time>
      </trkpt>
      <trkpt lat="42.89461" lon="1.47561">
        <ele>1090.27</ele>
        <time>2014-09-14T12:12:59Z</time>
      </trkpt>
      <trkpt lat="42.89453" lon="1.4757">
        <ele>1088.83</ele>
        <time>2014-09-14T12:13:00Z</time>
      </trkpt>
      <trkpt lat="42.89444" lon="1.47574">
        <ele>1087.39</ele>
        <time>2014-09-14T12:13:01Z</time>
      </trkpt>
      <trkpt lat="42.89406" lon="1.47593">
        <ele>1083.54</ele>
        <time>2014-09-14T12:13:04Z</time>
      </trkpt>
      <trkpt lat="42.89396" lon="1.47603">
        <ele>1082.58</ele>
        <time>2014-09-14T12:13:05Z</time>
      </trkpt>
      <trkpt lat="42.89389" lon="1.47614">
        <ele>1082.1</ele>
        <time>2014-09-14T12:13:06Z</time>
      </trkpt>
      <trkpt lat="42.89384" lon="1.47628">
        <ele>1081.14</ele>
        <time>2014-09-14T12:13:07Z</time>
      </trkpt>
      <trkpt lat="42.8938" lon="1.47642">
        <ele>1080.18</ele>
        <time>2014-09-14T12:13:08Z</time>
      </trkpt>
      <trkpt lat="42.89377" lon="1.47657">
        <ele>1079.22</ele>
        <time>2014-09-14T12:13:09Z</time>
      </trkpt>
      <trkpt lat="42.89376" lon="1.47673">
        <ele>1078.26</ele>
        <time>2014-09-14T12:13:10Z</time>
      </trkpt>
      <trkpt lat="42.89353" lon="1.47823">
        <ele>1068.64</ele>
        <time>2014-09-14T12:13:19Z</time>
      </trkpt>
      <trkpt lat="42.89353" lon="1.4784">
        <ele>1067.68</ele>
        <time>2014-09-14T12:13:20Z</time>
      </trkpt>
      <trkpt lat="42.89356" lon="1.47962">
        <ele>1059.51</ele>
        <time>2014-09-14T12:13:28Z</time>
      </trkpt>
      <trkpt lat="42.89339" lon="1.48032">
        <ele>1053.26</ele>
        <time>2014-09-14T12:13:36Z</time>
      </trkpt>
      <trkpt lat="42.89328" lon="1.48048">
        <ele>1052.78</ele>
        <time>2014-09-14T12:13:38Z</time>
      </trkpt>
      <trkpt lat="42.89244" lon="1.48131">
        <ele>1051.34</ele>
        <time>2014-09-14T12:13:45Z</time>
      </trkpt>
      <trkpt lat="42.89198" lon="1.48167">
        <ele>1049.42</ele>
        <time>2014-09-14T12:13:49Z</time>
      </trkpt>
      <trkpt lat="42.89189" lon="1.48169">
        <ele>1048.94</ele>
        <time>2014-09-14T12:13:50Z</time>
      </trkpt>
      <trkpt lat="42.89178" lon="1.4817">
        <ele>1048.45</ele>
        <time>2014-09-14T12:13:51Z</time>
      </trkpt>
      <trkpt lat="42.89143" lon="1.48176">
        <ele>1046.53</ele>
        <time>2014-09-14T12:13:54Z</time>
      </trkpt>
      <trkpt lat="42.89131" lon="1.48181">
        <ele>1045.57</ele>
        <time>2014-09-14T12:13:55Z</time>
      </trkpt>
      <trkpt lat="42.8912" lon="1.48189">
        <ele>1044.61</ele>
        <time>2014-09-14T12:13:56Z</time>
      </trkpt>
      <trkpt lat="42.89111" lon="1.48199">
        <ele>1044.13</ele>
        <time>2014-09-14T12:13:57Z</time>
      </trkpt>
      <trkpt lat="42.89103" lon="1.4821">
        <ele>1043.17</ele>
        <time>2014-09-14T12:13:58Z</time>
      </trkpt>
      <trkpt lat="42.89096" lon="1.48222">
        <ele>1042.21</ele>
        <time>2014-09-14T12:13:59Z</time>
      </trkpt>
      <trkpt lat="42.89089" lon="1.48235">
        <ele>1040.76</ele>
        <time>2014-09-14T12:14:00Z</time>
      </trkpt>
      <trkpt lat="42.89072" lon="1.48277">
        <ele>1038.36</ele>
        <time>2014-09-14T12:14:03Z</time>
      </trkpt>
      <trkpt lat="42.89068" lon="1.48292">
        <ele>1037.4</ele>
        <time>2014-09-14T12:14:04Z</time>
      </trkpt>
      <trkpt lat="42.89064" lon="1.48308">
        <ele>1036.44</ele>
        <time>2014-09-14T12:14:05Z</time>
      </trkpt>
      <trkpt lat="42.89063" lon="1.48325">
        <ele>1035.48</ele>
        <time>2014-09-14T12:14:06Z</time>
      </trkpt>
      <trkpt lat="42.89062" lon="1.48344">
        <ele>1034.52</ele>
        <time>2014-09-14T12:14:07Z</time>
      </trkpt>
      <trkpt lat="42.89061" lon="1.48362">
        <ele>1033.07</ele>
        <time>2014-09-14T12:14:08Z</time>
      </trkpt>
      <trkpt lat="42.8906" lon="1.48398">
        <ele>1030.67</ele>
        <time>2014-09-14T12:14:10Z</time>
      </trkpt>
      <trkpt lat="42.89044" lon="1.485">
        <ele>1022.5</ele>
        <time>2014-09-14T12:14:17Z</time>
      </trkpt>
      <trkpt lat="42.8904" lon="1.48509">
        <ele>1021.54</ele>
        <time>2014-09-14T12:14:18Z</time>
      </trkpt>
      <trkpt lat="42.89037" lon="1.48517">
        <ele>1020.1</ele>
        <time>2014-09-14T12:14:19Z</time>
      </trkpt>
      <trkpt lat="42.89031" lon="1.4852">
        <ele>1018.65</ele>
        <time>2014-09-14T12:14:20Z</time>
      </trkpt>
      <trkpt lat="42.89024" lon="1.48518">
        <ele>1016.25</ele>
        <time>2014-09-14T12:14:21Z</time>
      </trkpt>
      <trkpt lat="42.89014" lon="1.48517">
        <ele>1014.81</ele>
        <time>2014-09-14T12:14:22Z</time>
      </trkpt>
      <trkpt lat="42.89005" lon="1.48521">
        <ele>1013.37</ele>
        <time>2014-09-14T12:14:23Z</time>
      </trkpt>
      <trkpt lat="42.88996" lon="1.48527">
        <ele>1011.93</ele>
        <time>2014-09-14T12:14:24Z</time>
      </trkpt>
      <trkpt lat="42.88989" lon="1.48536">
        <ele>1010.96</ele>
        <time>2014-09-14T12:14:25Z</time>
      </trkpt>
      <trkpt lat="42.88981" lon="1.48546">
        <ele>1010</ele>
        <time>2014-09-14T12:14:26Z</time>
      </trkpt>
      <trkpt lat="42.88973" lon="1.48558">
        <ele>1009.04</ele>
        <time>2014-09-14T12:14:27Z</time>
      </trkpt>
      <trkpt lat="42.88966" lon="1.48568">
        <ele>1008.08</ele>
        <time>2014-09-14T12:14:28Z</time>
      </trkpt>
      <trkpt lat="42.88958" lon="1.48581">
        <ele>1007.12</ele>
        <time>2014-09-14T12:14:29Z</time>
      </trkpt>
      <trkpt lat="42.88951" lon="1.4859">
        <ele>1006.16</ele>
        <time>2014-09-14T12:14:30Z</time>
      </trkpt>
      <trkpt lat="42.8894" lon="1.48601">
        <ele>1005.2</ele>
        <time>2014-09-14T12:14:31Z</time>
      </trkpt>
      <trkpt lat="42.88931" lon="1.48609">
        <ele>1004.23</ele>
        <time>2014-09-14T12:14:32Z</time>
      </trkpt>
      <trkpt lat="42.88916" lon="1.48629">
        <ele>1001.83</ele>
        <time>2014-09-14T12:14:34Z</time>
      </trkpt>
      <trkpt lat="42.88911" lon="1.48644">
        <ele>1000.87</ele>
        <time>2014-09-14T12:14:35Z</time>
      </trkpt>
      <trkpt lat="42.8891" lon="1.48657">
        <ele>999.91</ele>
        <time>2014-09-14T12:14:36Z</time>
      </trkpt>
      <trkpt lat="42.8891" lon="1.48675">
        <ele>998.95</ele>
        <time>2014-09-14T12:14:37Z</time>
      </trkpt>
      <trkpt lat="42.8891" lon="1.48686">
        <ele>997.99</ele>
        <time>2014-09-14T12:14:38Z</time>
      </trkpt>
      <trkpt lat="42.88908" lon="1.48715">
        <ele>996.06</ele>
        <time>2014-09-14T12:14:40Z</time>
      </trkpt>
      <trkpt lat="42.88904" lon="1.48728">
        <ele>995.1</ele>
        <time>2014-09-14T12:14:41Z</time>
      </trkpt>
      <trkpt lat="42.88893" lon="1.48738">
        <ele>994.14</ele>
        <time>2014-09-14T12:14:42Z</time>
      </trkpt>
      <trkpt lat="42.88832" lon="1.48818">
        <ele>986.45</ele>
        <time>2014-09-14T12:14:49Z</time>
      </trkpt>
      <trkpt lat="42.88822" lon="1.48828">
        <ele>985.01</ele>
        <time>2014-09-14T12:14:50Z</time>
      </trkpt>
      <trkpt lat="42.88769" lon="1.48881">
        <ele>978.28</ele>
        <time>2014-09-14T12:14:56Z</time>
      </trkpt>
      <trkpt lat="42.88764" lon="1.48889">
        <ele>977.32</ele>
        <time>2014-09-14T12:14:57Z</time>
      </trkpt>
      <trkpt lat="42.88758" lon="1.48901">
        <ele>976.36</ele>
        <time>2014-09-14T12:14:58Z</time>
      </trkpt>
      <trkpt lat="42.88757" lon="1.48914">
        <ele>975.39</ele>
        <time>2014-09-14T12:14:59Z</time>
      </trkpt>
      <trkpt lat="42.88754" lon="1.48931">
        <ele>973.95</ele>
        <time>2014-09-14T12:15:00Z</time>
      </trkpt>
      <trkpt lat="42.88739" lon="1.49003">
        <ele>968.67</ele>
        <time>2014-09-14T12:15:05Z</time>
      </trkpt>
      <trkpt lat="42.88738" lon="1.49019">
        <ele>967.22</ele>
        <time>2014-09-14T12:15:06Z</time>
      </trkpt>
      <trkpt lat="42.88738" lon="1.49035">
        <ele>966.26</ele>
        <time>2014-09-14T12:15:07Z</time>
      </trkpt>
      <trkpt lat="42.8874" lon="1.49052">
        <ele>965.3</ele>
        <time>2014-09-14T12:15:08Z</time>
      </trkpt>
      <trkpt lat="42.88744" lon="1.49069">
        <ele>964.34</ele>
        <time>2014-09-14T12:15:09Z</time>
      </trkpt>
      <trkpt lat="42.88748" lon="1.49087">
        <ele>963.38</ele>
        <time>2014-09-14T12:15:10Z</time>
      </trkpt>
      <trkpt lat="42.8875" lon="1.49122">
        <ele>961.46</ele>
        <time>2014-09-14T12:15:12Z</time>
      </trkpt>
      <trkpt lat="42.88749" lon="1.49141">
        <ele>960.49</ele>
        <time>2014-09-14T12:15:13Z</time>
      </trkpt>
      <trkpt lat="42.88746" lon="1.49161">
        <ele>959.05</ele>
        <time>2014-09-14T12:15:14Z</time>
      </trkpt>
      <trkpt lat="42.88744" lon="1.49175">
        <ele>958.09</ele>
        <time>2014-09-14T12:15:15Z</time>
      </trkpt>
      <trkpt lat="42.88744" lon="1.49196">
        <ele>957.13</ele>
        <time>2014-09-14T12:15:16Z</time>
      </trkpt>
      <trkpt lat="42.88744" lon="1.49211">
        <ele>956.17</ele>
        <time>2014-09-14T12:15:17Z</time>
      </trkpt>
      <trkpt lat="42.88745" lon="1.49228">
        <ele>954.73</ele>
        <time>2014-09-14T12:15:18Z</time>
      </trkpt>
      <trkpt lat="42.88744" lon="1.49247">
        <ele>953.77</ele>
        <time>2014-09-14T12:15:19Z</time>
      </trkpt>
      <trkpt lat="42.88741" lon="1.49261">
        <ele>952.8</ele>
        <time>2014-09-14T12:15:20Z</time>
      </trkpt>
      <trkpt lat="42.88734" lon="1.49276">
        <ele>951.84</ele>
        <time>2014-09-14T12:15:21Z</time>
      </trkpt>
      <trkpt lat="42.88725" lon="1.49291">
        <ele>950.4</ele>
        <time>2014-09-14T12:15:22Z</time>
      </trkpt>
      <trkpt lat="42.88701" lon="1.49345">
        <ele>946.07</ele>
        <time>2014-09-14T12:15:26Z</time>
      </trkpt>
      <trkpt lat="42.88699" lon="1.49361">
        <ele>945.11</ele>
        <time>2014-09-14T12:15:27Z</time>
      </trkpt>
      <trkpt lat="42.88693" lon="1.49407">
        <ele>941.75</ele>
        <time>2014-09-14T12:15:30Z</time>
      </trkpt>
      <trkpt lat="42.88689" lon="1.49422">
        <ele>940.79</ele>
        <time>2014-09-14T12:15:31Z</time>
      </trkpt>
      <trkpt lat="42.88681" lon="1.49436">
        <ele>939.83</ele>
        <time>2014-09-14T12:15:32Z</time>
      </trkpt>
      <trkpt lat="42.88658" lon="1.49475">
        <ele>936.46</ele>
        <time>2014-09-14T12:15:35Z</time>
      </trkpt>
      <trkpt lat="42.88649" lon="1.49485">
        <ele>935.5</ele>
        <time>2014-09-14T12:15:36Z</time>
      </trkpt>
      <trkpt lat="42.88639" lon="1.49493">
        <ele>934.54</ele>
        <time>2014-09-14T12:15:37Z</time>
      </trkpt>
      <trkpt lat="42.88618" lon="1.4951">
        <ele>932.14</ele>
        <time>2014-09-14T12:15:39Z</time>
      </trkpt>
      <trkpt lat="42.88612" lon="1.49517">
        <ele>931.65</ele>
        <time>2014-09-14T12:15:40Z</time>
      </trkpt>
      <trkpt lat="42.88605" lon="1.49529">
        <ele>930.69</ele>
        <time>2014-09-14T12:15:41Z</time>
      </trkpt>
      <trkpt lat="42.88581" lon="1.49586">
        <ele>926.37</ele>
        <time>2014-09-14T12:15:46Z</time>
      </trkpt>
      <trkpt lat="42.88575" lon="1.49593">
        <ele>925.41</ele>
        <time>2014-09-14T12:15:47Z</time>
      </trkpt>
      <trkpt lat="42.88568" lon="1.49596">
        <ele>924.45</ele>
        <time>2014-09-14T12:15:48Z</time>
      </trkpt>
      <trkpt lat="42.8856" lon="1.49594">
        <ele>923.96</ele>
        <time>2014-09-14T12:15:49Z</time>
      </trkpt>
      <trkpt lat="42.88552" lon="1.49588">
        <ele>923</ele>
        <time>2014-09-14T12:15:50Z</time>
      </trkpt>
      <trkpt lat="42.88546" lon="1.49581">
        <ele>922.04</ele>
        <time>2014-09-14T12:15:51Z</time>
      </trkpt>
      <trkpt lat="42.8854" lon="1.49573">
        <ele>921.56</ele>
        <time>2014-09-14T12:15:52Z</time>
      </trkpt>
      <trkpt lat="42.88525" lon="1.49559">
        <ele>919.64</ele>
        <time>2014-09-14T12:15:54Z</time>
      </trkpt>
      <trkpt lat="42.88516" lon="1.49554">
        <ele>918.68</ele>
        <time>2014-09-14T12:15:55Z</time>
      </trkpt>
      <trkpt lat="42.88507" lon="1.49552">
        <ele>917.72</ele>
        <time>2014-09-14T12:15:56Z</time>
      </trkpt>
      <trkpt lat="42.88496" lon="1.49552">
        <ele>916.75</ele>
        <time>2014-09-14T12:15:57Z</time>
      </trkpt>
      <trkpt lat="42.88486" lon="1.49553">
        <ele>915.79</ele>
        <time>2014-09-14T12:15:58Z</time>
      </trkpt>
      <trkpt lat="42.88396" lon="1.49564">
        <ele>908.1</ele>
        <time>2014-09-14T12:16:06Z</time>
      </trkpt>
      <trkpt lat="42.88368" lon="1.49566">
        <ele>905.7</ele>
        <time>2014-09-14T12:16:09Z</time>
      </trkpt>
      <trkpt lat="42.88361" lon="1.49571">
        <ele>905.22</ele>
        <time>2014-09-14T12:16:10Z</time>
      </trkpt>
      <trkpt lat="42.88355" lon="1.49578">
        <ele>904.74</ele>
        <time>2014-09-14T12:16:11Z</time>
      </trkpt>
      <trkpt lat="42.88342" lon="1.49609">
        <ele>902.82</ele>
        <time>2014-09-14T12:16:15Z</time>
      </trkpt>
      <trkpt lat="42.88347" lon="1.49616">
        <ele>901.85</ele>
        <time>2014-09-14T12:16:16Z</time>
      </trkpt>
      <trkpt lat="42.88366" lon="1.49644">
        <ele>899.93</ele>
        <time>2014-09-14T12:16:19Z</time>
      </trkpt>
      <trkpt lat="42.88381" lon="1.49673">
        <ele>898.49</ele>
        <time>2014-09-14T12:16:21Z</time>
      </trkpt>
      <trkpt lat="42.88385" lon="1.49689">
        <ele>898.01</ele>
        <time>2014-09-14T12:16:22Z</time>
      </trkpt>
      <trkpt lat="42.88387" lon="1.49704">
        <ele>897.53</ele>
        <time>2014-09-14T12:16:23Z</time>
      </trkpt>
      <trkpt lat="42.88387" lon="1.49736">
        <ele>896.09</ele>
        <time>2014-09-14T12:16:25Z</time>
      </trkpt>
      <trkpt lat="42.88385" lon="1.49755">
        <ele>895.12</ele>
        <time>2014-09-14T12:16:26Z</time>
      </trkpt>
      <trkpt lat="42.88382" lon="1.49771">
        <ele>894.16</ele>
        <time>2014-09-14T12:16:27Z</time>
      </trkpt>
      <trkpt lat="42.88378" lon="1.4979">
        <ele>893.2</ele>
        <time>2014-09-14T12:16:28Z</time>
      </trkpt>
      <trkpt lat="42.88372" lon="1.4981">
        <ele>892.24</ele>
        <time>2014-09-14T12:16:29Z</time>
      </trkpt>
      <trkpt lat="42.88355" lon="1.49856">
        <ele>889.36</ele>
        <time>2014-09-14T12:16:32Z</time>
      </trkpt>
      <trkpt lat="42.88308" lon="1.49943">
        <ele>884.07</ele>
        <time>2014-09-14T12:16:38Z</time>
      </trkpt>
      <trkpt lat="42.88298" lon="1.49953">
        <ele>883.11</ele>
        <time>2014-09-14T12:16:39Z</time>
      </trkpt>
      <trkpt lat="42.88287" lon="1.49962">
        <ele>882.15</ele>
        <time>2014-09-14T12:16:40Z</time>
      </trkpt>
      <trkpt lat="42.88276" lon="1.49969">
        <ele>881.19</ele>
        <time>2014-09-14T12:16:41Z</time>
      </trkpt>
      <trkpt lat="42.88264" lon="1.49974">
        <ele>880.22</ele>
        <time>2014-09-14T12:16:42Z</time>
      </trkpt>
      <trkpt lat="42.88251" lon="1.49978">
        <ele>879.26</ele>
        <time>2014-09-14T12:16:43Z</time>
      </trkpt>
      <trkpt lat="42.88239" lon="1.4998">
        <ele>878.3</ele>
        <time>2014-09-14T12:16:44Z</time>
      </trkpt>
      <trkpt lat="42.88212" lon="1.49986">
        <ele>876.38</ele>
        <time>2014-09-14T12:16:46Z</time>
      </trkpt>
      <trkpt lat="42.882" lon="1.49991">
        <ele>875.42</ele>
        <time>2014-09-14T12:16:47Z</time>
      </trkpt>
      <trkpt lat="42.88186" lon="1.49999">
        <ele>873.98</ele>
        <time>2014-09-14T12:16:48Z</time>
      </trkpt>
      <trkpt lat="42.88173" lon="1.50009">
        <ele>873.01</ele>
        <time>2014-09-14T12:16:49Z</time>
      </trkpt>
      <trkpt lat="42.88163" lon="1.50018">
        <ele>872.05</ele>
        <time>2014-09-14T12:16:50Z</time>
      </trkpt>
      <trkpt lat="42.88114" lon="1.50057">
        <ele>866.77</ele>
        <time>2014-09-14T12:16:55Z</time>
      </trkpt>
      <trkpt lat="42.88104" lon="1.5006">
        <ele>865.8</ele>
        <time>2014-09-14T12:16:56Z</time>
      </trkpt>
      <trkpt lat="42.88094" lon="1.50061">
        <ele>864.84</ele>
        <time>2014-09-14T12:16:57Z</time>
      </trkpt>
      <trkpt lat="42.88084" lon="1.50061">
        <ele>863.88</ele>
        <time>2014-09-14T12:16:58Z</time>
      </trkpt>
      <trkpt lat="42.88074" lon="1.50058">
        <ele>862.92</ele>
        <time>2014-09-14T12:16:59Z</time>
      </trkpt>
      <trkpt lat="42.88065" lon="1.50052">
        <ele>861.96</ele>
        <time>2014-09-14T12:17:00Z</time>
      </trkpt>
      <trkpt lat="42.88057" lon="1.50044">
        <ele>861</ele>
        <time>2014-09-14T12:17:01Z</time>
      </trkpt>
      <trkpt lat="42.88049" lon="1.50035">
        <ele>860.04</ele>
        <time>2014-09-14T12:17:02Z</time>
      </trkpt>
      <trkpt lat="42.87993" lon="1.49975">
        <ele>854.27</ele>
        <time>2014-09-14T12:17:09Z</time>
      </trkpt>
      <trkpt lat="42.87986" lon="1.49972">
        <ele>853.79</ele>
        <time>2014-09-14T12:17:10Z</time>
      </trkpt>
      <trkpt lat="42.87978" lon="1.4997">
        <ele>853.31</ele>
        <time>2014-09-14T12:17:11Z</time>
      </trkpt>
      <trkpt lat="42.87961" lon="1.49969">
        <ele>851.87</ele>
        <time>2014-09-14T12:17:13Z</time>
      </trkpt>
      <trkpt lat="42.87953" lon="1.49978">
        <ele>850.9</ele>
        <time>2014-09-14T12:17:16Z</time>
      </trkpt>
      <trkpt lat="42.87958" lon="1.49994">
        <ele>850.42</ele>
        <time>2014-09-14T12:17:18Z</time>
      </trkpt>
      <trkpt lat="42.87964" lon="1.50007">
        <ele>849.94</ele>
        <time>2014-09-14T12:17:19Z</time>
      </trkpt>
      <trkpt lat="42.87971" lon="1.5002">
        <ele>849.46</ele>
        <time>2014-09-14T12:17:20Z</time>
      </trkpt>
      <trkpt lat="42.8798" lon="1.50035">
        <ele>848.98</ele>
        <time>2014-09-14T12:17:21Z</time>
      </trkpt>
      <trkpt lat="42.88017" lon="1.50089">
        <ele>845.14</ele>
        <time>2014-09-14T12:17:25Z</time>
      </trkpt>
      <trkpt lat="42.88027" lon="1.50099">
        <ele>844.66</ele>
        <time>2014-09-14T12:17:26Z</time>
      </trkpt>
      <trkpt lat="42.88037" lon="1.50106">
        <ele>843.69</ele>
        <time>2014-09-14T12:17:27Z</time>
      </trkpt>
      <trkpt lat="42.88048" lon="1.50111">
        <ele>842.25</ele>
        <time>2014-09-14T12:17:28Z</time>
      </trkpt>
      <trkpt lat="42.88056" lon="1.50114">
        <ele>841.77</ele>
        <time>2014-09-14T12:17:29Z</time>
      </trkpt>
      <trkpt lat="42.88086" lon="1.50129">
        <ele>838.41</ele>
        <time>2014-09-14T12:17:32Z</time>
      </trkpt>
      <trkpt lat="42.88175" lon="1.5019">
        <ele>829.76</ele>
        <time>2014-09-14T12:17:41Z</time>
      </trkpt>
      <trkpt lat="42.88185" lon="1.5019">
        <ele>828.79</ele>
        <time>2014-09-14T12:17:42Z</time>
      </trkpt>
      <trkpt lat="42.88195" lon="1.50188">
        <ele>828.31</ele>
        <time>2014-09-14T12:17:43Z</time>
      </trkpt>
      <trkpt lat="42.88239" lon="1.50172">
        <ele>824.95</ele>
        <time>2014-09-14T12:17:49Z</time>
      </trkpt>
      <trkpt lat="42.88246" lon="1.50173">
        <ele>823.99</ele>
        <time>2014-09-14T12:17:50Z</time>
      </trkpt>
      <trkpt lat="42.88251" lon="1.50176">
        <ele>823.51</ele>
        <time>2014-09-14T12:17:51Z</time>
      </trkpt>
      <trkpt lat="42.88256" lon="1.50181">
        <ele>823.03</ele>
        <time>2014-09-14T12:17:52Z</time>
      </trkpt>
      <trkpt lat="42.88259" lon="1.50189">
        <ele>822.55</ele>
        <time>2014-09-14T12:17:53Z</time>
      </trkpt>
      <trkpt lat="42.8826" lon="1.50197">
        <ele>822.06</ele>
        <time>2014-09-14T12:17:54Z</time>
      </trkpt>
      <trkpt lat="42.88259" lon="1.50206">
        <ele>822.06</ele>
        <time>2014-09-14T12:17:55Z</time>
      </trkpt>
      <trkpt lat="42.88256" lon="1.50214">
        <ele>821.58</ele>
        <time>2014-09-14T12:17:56Z</time>
      </trkpt>
      <trkpt lat="42.88253" lon="1.50222">
        <ele>821.58</ele>
        <time>2014-09-14T12:17:57Z</time>
      </trkpt>
      <trkpt lat="42.88216" lon="1.5029">
        <ele>817.74</ele>
        <time>2014-09-14T12:18:04Z</time>
      </trkpt>
      <trkpt lat="42.88209" lon="1.50299">
        <ele>817.26</ele>
        <time>2014-09-14T12:18:05Z</time>
      </trkpt>
      <trkpt lat="42.88114" lon="1.50376">
        <ele>808.61</ele>
        <time>2014-09-14T12:18:15Z</time>
      </trkpt>
      <trkpt lat="42.88076" lon="1.5041">
        <ele>805.24</ele>
        <time>2014-09-14T12:18:19Z</time>
      </trkpt>
      <trkpt lat="42.8807" lon="1.50422">
        <ele>804.28</ele>
        <time>2014-09-14T12:18:20Z</time>
      </trkpt>
      <trkpt lat="42.88064" lon="1.50438">
        <ele>803.32</ele>
        <time>2014-09-14T12:18:21Z</time>
      </trkpt>
      <trkpt lat="42.8804" lon="1.50514">
        <ele>798.03</ele>
        <time>2014-09-14T12:18:27Z</time>
      </trkpt>
      <trkpt lat="42.8804" lon="1.50527">
        <ele>797.07</ele>
        <time>2014-09-14T12:18:28Z</time>
      </trkpt>
      <trkpt lat="42.88043" lon="1.50538">
        <ele>796.11</ele>
        <time>2014-09-14T12:18:29Z</time>
      </trkpt>
      <trkpt lat="42.88048" lon="1.50548">
        <ele>795.63</ele>
        <time>2014-09-14T12:18:30Z</time>
      </trkpt>
      <trkpt lat="42.88054" lon="1.50557">
        <ele>794.67</ele>
        <time>2014-09-14T12:18:31Z</time>
      </trkpt>
      <trkpt lat="42.88059" lon="1.50569">
        <ele>793.71</ele>
        <time>2014-09-14T12:18:32Z</time>
      </trkpt>
      <trkpt lat="42.88063" lon="1.5058">
        <ele>793.22</ele>
        <time>2014-09-14T12:18:33Z</time>
      </trkpt>
      <trkpt lat="42.88066" lon="1.50593">
        <ele>792.26</ele>
        <time>2014-09-14T12:18:34Z</time>
      </trkpt>
      <trkpt lat="42.88066" lon="1.50608">
        <ele>791.78</ele>
        <time>2014-09-14T12:18:35Z</time>
      </trkpt>
      <trkpt lat="42.88065" lon="1.5062">
        <ele>790.82</ele>
        <time>2014-09-14T12:18:36Z</time>
      </trkpt>
      <trkpt lat="42.88068" lon="1.50796">
        <ele>783.13</ele>
        <time>2014-09-14T12:18:47Z</time>
      </trkpt>
      <trkpt lat="42.8809" lon="1.509">
        <ele>777.84</ele>
        <time>2014-09-14T12:18:53Z</time>
      </trkpt>
      <trkpt lat="42.88091" lon="1.50918">
        <ele>776.88</ele>
        <time>2014-09-14T12:18:54Z</time>
      </trkpt>
      <trkpt lat="42.88091" lon="1.50936">
        <ele>775.92</ele>
        <time>2014-09-14T12:18:55Z</time>
      </trkpt>
      <trkpt lat="42.88089" lon="1.50955">
        <ele>774.96</ele>
        <time>2014-09-14T12:18:56Z</time>
      </trkpt>
      <trkpt lat="42.88087" lon="1.50974">
        <ele>774</ele>
        <time>2014-09-14T12:18:57Z</time>
      </trkpt>
      <trkpt lat="42.88081" lon="1.51032">
        <ele>771.11</ele>
        <time>2014-09-14T12:19:00Z</time>
      </trkpt>
      <trkpt lat="42.88081" lon="1.5105">
        <ele>770.15</ele>
        <time>2014-09-14T12:19:01Z</time>
      </trkpt>
      <trkpt lat="42.88082" lon="1.51131">
        <ele>765.35</ele>
        <time>2014-09-14T12:19:05Z</time>
      </trkpt>
      <trkpt lat="42.8808" lon="1.51147">
        <ele>764.39</ele>
        <time>2014-09-14T12:19:06Z</time>
      </trkpt>
      <trkpt lat="42.88071" lon="1.51199">
        <ele>760.54</ele>
        <time>2014-09-14T12:19:09Z</time>
      </trkpt>
      <trkpt lat="42.88069" lon="1.51216">
        <ele>759.58</ele>
        <time>2014-09-14T12:19:10Z</time>
      </trkpt>
      <trkpt lat="42.8806" lon="1.51321">
        <ele>751.89</ele>
        <time>2014-09-14T12:19:17Z</time>
      </trkpt>
      <trkpt lat="42.88056" lon="1.51335">
        <ele>750.93</ele>
        <time>2014-09-14T12:19:18Z</time>
      </trkpt>
      <trkpt lat="42.88021" lon="1.51432">
        <ele>743.72</ele>
        <time>2014-09-14T12:19:25Z</time>
      </trkpt>
      <trkpt lat="42.8801" lon="1.51457">
        <ele>741.79</ele>
        <time>2014-09-14T12:19:27Z</time>
      </trkpt>
      <trkpt lat="42.88007" lon="1.51471">
        <ele>740.83</ele>
        <time>2014-09-14T12:19:28Z</time>
      </trkpt>
      <trkpt lat="42.88005" lon="1.51483">
        <ele>740.35</ele>
        <time>2014-09-14T12:19:29Z</time>
      </trkpt>
      <trkpt lat="42.88004" lon="1.51498">
        <ele>739.39</ele>
        <time>2014-09-14T12:19:30Z</time>
      </trkpt>
      <trkpt lat="42.88004" lon="1.51516">
        <ele>737.95</ele>
        <time>2014-09-14T12:19:31Z</time>
      </trkpt>
      <trkpt lat="42.88004" lon="1.51529">
        <ele>737.47</ele>
        <time>2014-09-14T12:19:32Z</time>
      </trkpt>
      <trkpt lat="42.88007" lon="1.51594">
        <ele>734.1</ele>
        <time>2014-09-14T12:19:36Z</time>
      </trkpt>
      <trkpt lat="42.8801" lon="1.51612">
        <ele>733.14</ele>
        <time>2014-09-14T12:19:37Z</time>
      </trkpt>
      <trkpt lat="42.88013" lon="1.51628">
        <ele>732.18</ele>
        <time>2014-09-14T12:19:38Z</time>
      </trkpt>
      <trkpt lat="42.88017" lon="1.51644">
        <ele>730.74</ele>
        <time>2014-09-14T12:19:39Z</time>
      </trkpt>
      <trkpt lat="42.88022" lon="1.51659">
        <ele>729.78</ele>
        <time>2014-09-14T12:19:40Z</time>
      </trkpt>
      <trkpt lat="42.88029" lon="1.51674">
        <ele>728.34</ele>
        <time>2014-09-14T12:19:41Z</time>
      </trkpt>
      <trkpt lat="42.88035" lon="1.5169">
        <ele>727.37</ele>
        <time>2014-09-14T12:19:42Z</time>
      </trkpt>
      <trkpt lat="42.88039" lon="1.51703">
        <ele>725.93</ele>
        <time>2014-09-14T12:19:43Z</time>
      </trkpt>
      <trkpt lat="42.88042" lon="1.51719">
        <ele>724.97</ele>
        <time>2014-09-14T12:19:44Z</time>
      </trkpt>
      <trkpt lat="42.88043" lon="1.51733">
        <ele>723.53</ele>
        <time>2014-09-14T12:19:45Z</time>
      </trkpt>
      <trkpt lat="42.88042" lon="1.51747">
        <ele>722.57</ele>
        <time>2014-09-14T12:19:46Z</time>
      </trkpt>
      <trkpt lat="42.88038" lon="1.51759">
        <ele>721.61</ele>
        <time>2014-09-14T12:19:47Z</time>
      </trkpt>
      <trkpt lat="42.88032" lon="1.5177">
        <ele>720.65</ele>
        <time>2014-09-14T12:19:48Z</time>
      </trkpt>
      <trkpt lat="42.88025" lon="1.51781">
        <ele>719.68</ele>
        <time>2014-09-14T12:19:49Z</time>
      </trkpt>
      <trkpt lat="42.88017" lon="1.51791">
        <ele>718.72</ele>
        <time>2014-09-14T12:19:50Z</time>
      </trkpt>
      <trkpt lat="42.87988" lon="1.51834">
        <ele>714.88</ele>
        <time>2014-09-14T12:19:54Z</time>
      </trkpt>
      <trkpt lat="42.87984" lon="1.51847">
        <ele>714.4</ele>
        <time>2014-09-14T12:19:55Z</time>
      </trkpt>
      <trkpt lat="42.87981" lon="1.5186">
        <ele>713.44</ele>
        <time>2014-09-14T12:19:56Z</time>
      </trkpt>
      <trkpt lat="42.87979" lon="1.51876">
        <ele>712.47</ele>
        <time>2014-09-14T12:19:57Z</time>
      </trkpt>
      <trkpt lat="42.87978" lon="1.51891">
        <ele>711.51</ele>
        <time>2014-09-14T12:19:58Z</time>
      </trkpt>
      <trkpt lat="42.87949" lon="1.52103">
        <ele>701.9</ele>
        <time>2014-09-14T12:20:11Z</time>
      </trkpt>
      <trkpt lat="42.87901" lon="1.52349">
        <ele>692.77</ele>
        <time>2014-09-14T12:20:26Z</time>
      </trkpt>
      <trkpt lat="42.87898" lon="1.52367">
        <ele>692.29</ele>
        <time>2014-09-14T12:20:27Z</time>
      </trkpt>
      <trkpt lat="42.87855" lon="1.52581">
        <ele>687</ele>
        <time>2014-09-14T12:20:41Z</time>
      </trkpt>
      <trkpt lat="42.87821" lon="1.52754">
        <ele>682.67</ele>
        <time>2014-09-14T12:20:54Z</time>
      </trkpt>
      <trkpt lat="42.87803" lon="1.52856">
        <ele>680.75</ele>
        <time>2014-09-14T12:21:02Z</time>
      </trkpt>
      <trkpt lat="42.87802" lon="1.5287">
        <ele>680.27</ele>
        <time>2014-09-14T12:21:03Z</time>
      </trkpt>
      <trkpt lat="42.87824" lon="1.53013">
        <ele>679.79</ele>
        <time>2014-09-14T12:21:15Z</time>
      </trkpt>
      <trkpt lat="42.87859" lon="1.53205">
        <ele>679.31</ele>
        <time>2014-09-14T12:21:32Z</time>
      </trkpt>
      <trkpt lat="42.87845" lon="1.53351">
        <ele>678.35</ele>
        <time>2014-09-14T12:21:45Z</time>
      </trkpt>
      <trkpt lat="42.87825" lon="1.53553">
        <ele>675.46</ele>
        <time>2014-09-14T12:22:02Z</time>
      </trkpt>
      <trkpt lat="42.8782" lon="1.53766">
        <ele>671.62</ele>
        <time>2014-09-14T12:22:20Z</time>
      </trkpt>
      <trkpt lat="42.87835" lon="1.53927">
        <ele>670.66</ele>
        <time>2014-09-14T12:22:35Z</time>
      </trkpt>
      <trkpt lat="42.87874" lon="1.54126">
        <ele>670.18</ele>
        <time>2014-09-14T12:22:55Z</time>
      </trkpt>
      <trkpt lat="42.87921" lon="1.5426">
        <ele>670.18</ele>
        <time>2014-09-14T12:23:09Z</time>
      </trkpt>
      <trkpt lat="42.8799" lon="1.54377">
        <ele>668.73</ele>
        <time>2014-09-14T12:23:22Z</time>
      </trkpt>
      <trkpt lat="42.87994" lon="1.54391">
        <ele>668.25</ele>
        <time>2014-09-14T12:23:23Z</time>
      </trkpt>
      <trkpt lat="42.88006" lon="1.54511">
        <ele>663.45</ele>
        <time>2014-09-14T12:23:31Z</time>
      </trkpt>
      <trkpt lat="42.87999" lon="1.54577">
        <ele>660.56</ele>
        <time>2014-09-14T12:23:35Z</time>
      </trkpt>
      <trkpt lat="42.87995" lon="1.5459">
        <ele>660.08</ele>
        <time>2014-09-14T12:23:36Z</time>
      </trkpt>
      <trkpt lat="42.8799" lon="1.54604">
        <ele>659.6</ele>
        <time>2014-09-14T12:23:37Z</time>
      </trkpt>
      <trkpt lat="42.87983" lon="1.54618">
        <ele>658.64</ele>
        <time>2014-09-14T12:23:38Z</time>
      </trkpt>
      <trkpt lat="42.87974" lon="1.54631">
        <ele>658.16</ele>
        <time>2014-09-14T12:23:39Z</time>
      </trkpt>
      <trkpt lat="42.87966" lon="1.54642">
        <ele>657.2</ele>
        <time>2014-09-14T12:23:40Z</time>
      </trkpt>
      <trkpt lat="42.87957" lon="1.54651">
        <ele>656.72</ele>
        <time>2014-09-14T12:23:41Z</time>
      </trkpt>
      <trkpt lat="42.87947" lon="1.54658">
        <ele>656.24</ele>
        <time>2014-09-14T12:23:42Z</time>
      </trkpt>
      <trkpt lat="42.87935" lon="1.54665">
        <ele>655.28</ele>
        <time>2014-09-14T12:23:43Z</time>
      </trkpt>
      <trkpt lat="42.87887" lon="1.54692">
        <ele>652.39</ele>
        <time>2014-09-14T12:23:47Z</time>
      </trkpt>
      <trkpt lat="42.87877" lon="1.54701">
        <ele>651.43</ele>
        <time>2014-09-14T12:23:48Z</time>
      </trkpt>
      <trkpt lat="42.87868" lon="1.54712">
        <ele>650.47</ele>
        <time>2014-09-14T12:23:49Z</time>
      </trkpt>
      <trkpt lat="42.87797" lon="1.54798">
        <ele>644.7</ele>
        <time>2014-09-14T12:23:56Z</time>
      </trkpt>
      <trkpt lat="42.8779" lon="1.5481">
        <ele>643.74</ele>
        <time>2014-09-14T12:23:57Z</time>
      </trkpt>
      <trkpt lat="42.87766" lon="1.54858">
        <ele>641.34</ele>
        <time>2014-09-14T12:24:00Z</time>
      </trkpt>
      <trkpt lat="42.87756" lon="1.54873">
        <ele>640.38</ele>
        <time>2014-09-14T12:24:01Z</time>
      </trkpt>
      <trkpt lat="42.8769" lon="1.54948">
        <ele>635.09</ele>
        <time>2014-09-14T12:24:07Z</time>
      </trkpt>
      <trkpt lat="42.87575" lon="1.55021">
        <ele>627.4</ele>
        <time>2014-09-14T12:24:16Z</time>
      </trkpt>
      <trkpt lat="42.87566" lon="1.5503">
        <ele>626.92</ele>
        <time>2014-09-14T12:24:17Z</time>
      </trkpt>
      <trkpt lat="42.87558" lon="1.55039">
        <ele>625.96</ele>
        <time>2014-09-14T12:24:18Z</time>
      </trkpt>
      <trkpt lat="42.87552" lon="1.5505">
        <ele>625.47</ele>
        <time>2014-09-14T12:24:19Z</time>
      </trkpt>
      <trkpt lat="42.87547" lon="1.55061">
        <ele>624.51</ele>
        <time>2014-09-14T12:24:20Z</time>
      </trkpt>
      <trkpt lat="42.87544" lon="1.55072">
        <ele>624.03</ele>
        <time>2014-09-14T12:24:21Z</time>
      </trkpt>
      <trkpt lat="42.87541" lon="1.55084">
        <ele>624.03</ele>
        <time>2014-09-14T12:24:22Z</time>
      </trkpt>
      <trkpt lat="42.87535" lon="1.55126">
        <ele>623.55</ele>
        <time>2014-09-14T12:24:26Z</time>
      </trkpt>
      <trkpt lat="42.87527" lon="1.55223">
        <ele>626.92</ele>
        <time>2014-09-14T12:24:38Z</time>
      </trkpt>
      <trkpt lat="42.87516" lon="1.55323">
        <ele>633.65</ele>
        <time>2014-09-14T12:24:54Z</time>
      </trkpt>
      <trkpt lat="42.87516" lon="1.55329">
        <ele>634.13</ele>
        <time>2014-09-14T12:24:55Z</time>
      </trkpt>
      <trkpt lat="42.87516" lon="1.55335">
        <ele>634.13</ele>
        <time>2014-09-14T12:24:56Z</time>
      </trkpt>
      <trkpt lat="42.87518" lon="1.5536">
        <ele>635.09</ele>
        <time>2014-09-14T12:25:00Z</time>
      </trkpt>
      <trkpt lat="42.87519" lon="1.55366">
        <ele>635.57</ele>
        <time>2014-09-14T12:25:01Z</time>
      </trkpt>
      <trkpt lat="42.87525" lon="1.55441">
        <ele>640.86</ele>
        <time>2014-09-14T12:25:15Z</time>
      </trkpt>
      <trkpt lat="42.87513" lon="1.55509">
        <ele>642.78</ele>
        <time>2014-09-14T12:25:29Z</time>
      </trkpt>
      <trkpt lat="42.87504" lon="1.55578">
        <ele>647.1</ele>
        <time>2014-09-14T12:25:42Z</time>
      </trkpt>
      <trkpt lat="42.87494" lon="1.55662">
        <ele>649.51</ele>
        <time>2014-09-14T12:25:58Z</time>
      </trkpt>
      <trkpt lat="42.87493" lon="1.55728">
        <ele>652.39</ele>
        <time>2014-09-14T12:26:11Z</time>
      </trkpt>
      <trkpt lat="42.87498" lon="1.55818">
        <ele>658.16</ele>
        <time>2014-09-14T12:26:29Z</time>
      </trkpt>
      <trkpt lat="42.875" lon="1.55909">
        <ele>662.01</ele>
        <time>2014-09-14T12:26:47Z</time>
      </trkpt>
      <trkpt lat="42.87487" lon="1.55979">
        <ele>662.49</ele>
        <time>2014-09-14T12:27:00Z</time>
      </trkpt>
      <trkpt lat="42.87464" lon="1.56084">
        <ele>661.52</ele>
        <time>2014-09-14T12:27:13Z</time>
      </trkpt>
      <trkpt lat="42.87407" lon="1.56182">
        <ele>655.76</ele>
        <time>2014-09-14T12:27:22Z</time>
      </trkpt>
      <trkpt lat="42.87361" lon="1.56302">
        <ele>651.43</ele>
        <time>2014-09-14T12:27:32Z</time>
      </trkpt>
      <trkpt lat="42.87324" lon="1.5639">
        <ele>648.55</ele>
        <time>2014-09-14T12:27:40Z</time>
      </trkpt>
      <trkpt lat="42.87315" lon="1.564">
        <ele>648.07</ele>
        <time>2014-09-14T12:27:41Z</time>
      </trkpt>
      <trkpt lat="42.87305" lon="1.56409">
        <ele>647.1</ele>
        <time>2014-09-14T12:27:42Z</time>
      </trkpt>
      <trkpt lat="42.87179" lon="1.56499">
        <ele>640.86</ele>
        <time>2014-09-14T12:27:56Z</time>
      </trkpt>
      <trkpt lat="42.87163" lon="1.56515">
        <ele>640.38</ele>
        <time>2014-09-14T12:27:58Z</time>
      </trkpt>
      <trkpt lat="42.87156" lon="1.56527">
        <ele>639.89</ele>
        <time>2014-09-14T12:27:59Z</time>
      </trkpt>
      <trkpt lat="42.87152" lon="1.56537">
        <ele>639.41</ele>
        <time>2014-09-14T12:28:00Z</time>
      </trkpt>
      <trkpt lat="42.87148" lon="1.56551">
        <ele>638.93</ele>
        <time>2014-09-14T12:28:01Z</time>
      </trkpt>
      <trkpt lat="42.87144" lon="1.56567">
        <ele>638.45</ele>
        <time>2014-09-14T12:28:02Z</time>
      </trkpt>
      <trkpt lat="42.8711" lon="1.56714">
        <ele>631.24</ele>
        <time>2014-09-14T12:28:12Z</time>
      </trkpt>
      <trkpt lat="42.87105" lon="1.56726">
        <ele>630.28</ele>
        <time>2014-09-14T12:28:13Z</time>
      </trkpt>
      <trkpt lat="42.87096" lon="1.56739">
        <ele>629.8</ele>
        <time>2014-09-14T12:28:14Z</time>
      </trkpt>
      <trkpt lat="42.87088" lon="1.56748">
        <ele>629.32</ele>
        <time>2014-09-14T12:28:15Z</time>
      </trkpt>
      <trkpt lat="42.87078" lon="1.56756">
        <ele>628.36</ele>
        <time>2014-09-14T12:28:16Z</time>
      </trkpt>
      <trkpt lat="42.87066" lon="1.56761">
        <ele>627.4</ele>
        <time>2014-09-14T12:28:17Z</time>
      </trkpt>
      <trkpt lat="42.87054" lon="1.56764">
        <ele>626.92</ele>
        <time>2014-09-14T12:28:18Z</time>
      </trkpt>
      <trkpt lat="42.87042" lon="1.56766">
        <ele>625.96</ele>
        <time>2014-09-14T12:28:19Z</time>
      </trkpt>
      <trkpt lat="42.87018" lon="1.56773">
        <ele>624.51</ele>
        <time>2014-09-14T12:28:21Z</time>
      </trkpt>
      <trkpt lat="42.87007" lon="1.56779">
        <ele>623.55</ele>
        <time>2014-09-14T12:28:22Z</time>
      </trkpt>
      <trkpt lat="42.86972" lon="1.568">
        <ele>621.15</ele>
        <time>2014-09-14T12:28:25Z</time>
      </trkpt>
      <trkpt lat="42.8684" lon="1.56828">
        <ele>612.98</ele>
        <time>2014-09-14T12:28:35Z</time>
      </trkpt>
      <trkpt lat="42.86786" lon="1.56827">
        <ele>610.09</ele>
        <time>2014-09-14T12:28:39Z</time>
      </trkpt>
      <trkpt lat="42.86772" lon="1.56831">
        <ele>609.13</ele>
        <time>2014-09-14T12:28:40Z</time>
      </trkpt>
      <trkpt lat="42.86745" lon="1.56842">
        <ele>607.69</ele>
        <time>2014-09-14T12:28:42Z</time>
      </trkpt>
      <trkpt lat="42.86734" lon="1.5685">
        <ele>606.73</ele>
        <time>2014-09-14T12:28:43Z</time>
      </trkpt>
      <trkpt lat="42.8657" lon="1.56957">
        <ele>596.15</ele>
        <time>2014-09-14T12:28:56Z</time>
      </trkpt>
      <trkpt lat="42.86458" lon="1.57009">
        <ele>588.95</ele>
        <time>2014-09-14T12:29:05Z</time>
      </trkpt>
      <trkpt lat="42.86361" lon="1.5708">
        <ele>581.73</ele>
        <time>2014-09-14T12:29:13Z</time>
      </trkpt>
      <trkpt lat="42.86353" lon="1.57091">
        <ele>580.77</ele>
        <time>2014-09-14T12:29:14Z</time>
      </trkpt>
      <trkpt lat="42.86234" lon="1.57245">
        <ele>570.2</ele>
        <time>2014-09-14T12:29:26Z</time>
      </trkpt>
      <trkpt lat="42.86213" lon="1.57264">
        <ele>568.28</ele>
        <time>2014-09-14T12:29:28Z</time>
      </trkpt>
      <trkpt lat="42.86203" lon="1.57277">
        <ele>567.8</ele>
        <time>2014-09-14T12:29:29Z</time>
      </trkpt>
      <trkpt lat="42.86195" lon="1.57291">
        <ele>566.83</ele>
        <time>2014-09-14T12:29:30Z</time>
      </trkpt>
      <trkpt lat="42.86188" lon="1.57306">
        <ele>566.35</ele>
        <time>2014-09-14T12:29:31Z</time>
      </trkpt>
      <trkpt lat="42.86182" lon="1.57322">
        <ele>565.39</ele>
        <time>2014-09-14T12:29:32Z</time>
      </trkpt>
      <trkpt lat="42.86176" lon="1.57339">
        <ele>564.43</ele>
        <time>2014-09-14T12:29:33Z</time>
      </trkpt>
      <trkpt lat="42.86101" lon="1.57482">
        <ele>557.22</ele>
        <time>2014-09-14T12:29:43Z</time>
      </trkpt>
      <trkpt lat="42.86013" lon="1.57582">
        <ele>550.49</ele>
        <time>2014-09-14T12:29:52Z</time>
      </trkpt>
      <trkpt lat="42.86" lon="1.57589">
        <ele>549.53</ele>
        <time>2014-09-14T12:29:53Z</time>
      </trkpt>
      <trkpt lat="42.85905" lon="1.57634">
        <ele>545.2</ele>
        <time>2014-09-14T12:30:01Z</time>
      </trkpt>
      <trkpt lat="42.85899" lon="1.57642">
        <ele>545.2</ele>
        <time>2014-09-14T12:30:02Z</time>
      </trkpt>
      <trkpt lat="42.85889" lon="1.57657">
        <ele>544.24</ele>
        <time>2014-09-14T12:30:03Z</time>
      </trkpt>
      <trkpt lat="42.85856" lon="1.57722">
        <ele>540.88</ele>
        <time>2014-09-14T12:30:08Z</time>
      </trkpt>
      <trkpt lat="42.85853" lon="1.57739">
        <ele>539.92</ele>
        <time>2014-09-14T12:30:09Z</time>
      </trkpt>
      <trkpt lat="42.85853" lon="1.57752">
        <ele>539.44</ele>
        <time>2014-09-14T12:30:10Z</time>
      </trkpt>
      <trkpt lat="42.85855" lon="1.57768">
        <ele>538.96</ele>
        <time>2014-09-14T12:30:11Z</time>
      </trkpt>
      <trkpt lat="42.8586" lon="1.57783">
        <ele>538.48</ele>
        <time>2014-09-14T12:30:12Z</time>
      </trkpt>
      <trkpt lat="42.85866" lon="1.57798">
        <ele>537.51</ele>
        <time>2014-09-14T12:30:13Z</time>
      </trkpt>
      <trkpt lat="42.85873" lon="1.57828">
        <ele>536.07</ele>
        <time>2014-09-14T12:30:15Z</time>
      </trkpt>
      <trkpt lat="42.85874" lon="1.57844">
        <ele>535.11</ele>
        <time>2014-09-14T12:30:16Z</time>
      </trkpt>
      <trkpt lat="42.85873" lon="1.57861">
        <ele>534.63</ele>
        <time>2014-09-14T12:30:17Z</time>
      </trkpt>
      <trkpt lat="42.85859" lon="1.58032">
        <ele>526.46</ele>
        <time>2014-09-14T12:30:27Z</time>
      </trkpt>
      <trkpt lat="42.85855" lon="1.58049">
        <ele>525.98</ele>
        <time>2014-09-14T12:30:28Z</time>
      </trkpt>
      <trkpt lat="42.8585" lon="1.58065">
        <ele>525.02</ele>
        <time>2014-09-14T12:30:29Z</time>
      </trkpt>
      <trkpt lat="42.85773" lon="1.58262">
        <ele>514.44</ele>
        <time>2014-09-14T12:30:41Z</time>
      </trkpt>
      <trkpt lat="42.85766" lon="1.58278">
        <ele>513.48</ele>
        <time>2014-09-14T12:30:42Z</time>
      </trkpt>
      <trkpt lat="42.8576" lon="1.58289">
        <ele>512.52</ele>
        <time>2014-09-14T12:30:43Z</time>
      </trkpt>
      <trkpt lat="42.8575" lon="1.58301">
        <ele>512.04</ele>
        <time>2014-09-14T12:30:44Z</time>
      </trkpt>
      <trkpt lat="42.85741" lon="1.58307">
        <ele>511.08</ele>
        <time>2014-09-14T12:30:45Z</time>
      </trkpt>
      <trkpt lat="42.85729" lon="1.5831">
        <ele>510.6</ele>
        <time>2014-09-14T12:30:46Z</time>
      </trkpt>
      <trkpt lat="42.85717" lon="1.58311">
        <ele>509.64</ele>
        <time>2014-09-14T12:30:47Z</time>
      </trkpt>
      <trkpt lat="42.85705" lon="1.58313">
        <ele>508.67</ele>
        <time>2014-09-14T12:30:48Z</time>
      </trkpt>
      <trkpt lat="42.85693" lon="1.58317">
        <ele>508.19</ele>
        <time>2014-09-14T12:30:49Z</time>
      </trkpt>
      <trkpt lat="42.85682" lon="1.58325">
        <ele>507.23</ele>
        <time>2014-09-14T12:30:50Z</time>
      </trkpt>
      <trkpt lat="42.85673" lon="1.58335">
        <ele>506.27</ele>
        <time>2014-09-14T12:30:51Z</time>
      </trkpt>
      <trkpt lat="42.85664" lon="1.58349">
        <ele>505.31</ele>
        <time>2014-09-14T12:30:52Z</time>
      </trkpt>
      <trkpt lat="42.85658" lon="1.58363">
        <ele>504.35</ele>
        <time>2014-09-14T12:30:53Z</time>
      </trkpt>
      <trkpt lat="42.8565" lon="1.58377">
        <ele>503.39</ele>
        <time>2014-09-14T12:30:54Z</time>
      </trkpt>
      <trkpt lat="42.85634" lon="1.58405">
        <ele>500.98</ele>
        <time>2014-09-14T12:30:56Z</time>
      </trkpt>
      <trkpt lat="42.85624" lon="1.58414">
        <ele>500.5</ele>
        <time>2014-09-14T12:30:57Z</time>
      </trkpt>
      <trkpt lat="42.85613" lon="1.5842">
        <ele>500.02</ele>
        <time>2014-09-14T12:30:58Z</time>
      </trkpt>
      <trkpt lat="42.85592" lon="1.58429">
        <ele>498.58</ele>
        <time>2014-09-14T12:31:00Z</time>
      </trkpt>
      <trkpt lat="42.85581" lon="1.58437">
        <ele>498.1</ele>
        <time>2014-09-14T12:31:01Z</time>
      </trkpt>
      <trkpt lat="42.85572" lon="1.58446">
        <ele>497.14</ele>
        <time>2014-09-14T12:31:02Z</time>
      </trkpt>
      <trkpt lat="42.85562" lon="1.5846">
        <ele>496.66</ele>
        <time>2014-09-14T12:31:03Z</time>
      </trkpt>
      <trkpt lat="42.85555" lon="1.58469">
        <ele>496.18</ele>
        <time>2014-09-14T12:31:04Z</time>
      </trkpt>
      <trkpt lat="42.85462" lon="1.58601">
        <ele>493.29</ele>
        <time>2014-09-14T12:31:17Z</time>
      </trkpt>
      <trkpt lat="42.85406" lon="1.5873">
        <ele>492.81</ele>
        <time>2014-09-14T12:31:29Z</time>
      </trkpt>
      <trkpt lat="42.85348" lon="1.58911">
        <ele>491.37</ele>
        <time>2014-09-14T12:31:46Z</time>
      </trkpt>
      <trkpt lat="42.85295" lon="1.59022">
        <ele>490.89</ele>
        <time>2014-09-14T12:31:59Z</time>
      </trkpt>
      <trkpt lat="42.85289" lon="1.59028">
        <ele>490.89</ele>
        <time>2014-09-14T12:32:00Z</time>
      </trkpt>
      <trkpt lat="42.85284" lon="1.59032">
        <ele>490.89</ele>
        <time>2014-09-14T12:32:01Z</time>
      </trkpt>
      <trkpt lat="42.85277" lon="1.59035">
        <ele>490.89</ele>
        <time>2014-09-14T12:32:02Z</time>
      </trkpt>
      <trkpt lat="42.85271" lon="1.59036">
        <ele>491.37</ele>
        <time>2014-09-14T12:32:03Z</time>
      </trkpt>
      <trkpt lat="42.85266" lon="1.59037">
        <ele>491.37</ele>
        <time>2014-09-14T12:32:04Z</time>
      </trkpt>
      <trkpt lat="42.8526" lon="1.59039">
        <ele>491.37</ele>
        <time>2014-09-14T12:32:05Z</time>
      </trkpt>
      <trkpt lat="42.85256" lon="1.59042">
        <ele>491.37</ele>
        <time>2014-09-14T12:32:06Z</time>
      </trkpt>
      <trkpt lat="42.85249" lon="1.59048">
        <ele>491.37</ele>
        <time>2014-09-14T12:32:07Z</time>
      </trkpt>
      <trkpt lat="42.85241" lon="1.59059">
        <ele>491.37</ele>
        <time>2014-09-14T12:32:09Z</time>
      </trkpt>
      <trkpt lat="42.85238" lon="1.59065">
        <ele>491.37</ele>
        <time>2014-09-14T12:32:10Z</time>
      </trkpt>
      <trkpt lat="42.85234" lon="1.59074">
        <ele>491.85</ele>
        <time>2014-09-14T12:32:11Z</time>
      </trkpt>
      <trkpt lat="42.85233" lon="1.59081">
        <ele>491.85</ele>
        <time>2014-09-14T12:32:12Z</time>
      </trkpt>
      <trkpt lat="42.85231" lon="1.59089">
        <ele>491.85</ele>
        <time>2014-09-14T12:32:13Z</time>
      </trkpt>
      <trkpt lat="42.8523" lon="1.59098">
        <ele>491.85</ele>
        <time>2014-09-14T12:32:14Z</time>
      </trkpt>
      <trkpt lat="42.8523" lon="1.59108">
        <ele>492.33</ele>
        <time>2014-09-14T12:32:15Z</time>
      </trkpt>
      <trkpt lat="42.85232" lon="1.59117">
        <ele>492.33</ele>
        <time>2014-09-14T12:32:16Z</time>
      </trkpt>
      <trkpt lat="42.85234" lon="1.59126">
        <ele>492.33</ele>
        <time>2014-09-14T12:32:17Z</time>
      </trkpt>
      <trkpt lat="42.85237" lon="1.59134">
        <ele>492.33</ele>
        <time>2014-09-14T12:32:18Z</time>
      </trkpt>
      <trkpt lat="42.85241" lon="1.59143">
        <ele>492.81</ele>
        <time>2014-09-14T12:32:19Z</time>
      </trkpt>
      <trkpt lat="42.85245" lon="1.5915">
        <ele>492.81</ele>
        <time>2014-09-14T12:32:20Z</time>
      </trkpt>
      <trkpt lat="42.85251" lon="1.59159">
        <ele>492.81</ele>
        <time>2014-09-14T12:32:21Z</time>
      </trkpt>
      <trkpt lat="42.85254" lon="1.5917">
        <ele>492.33</ele>
        <time>2014-09-14T12:32:22Z</time>
      </trkpt>
      <trkpt lat="42.85255" lon="1.59184">
        <ele>492.33</ele>
        <time>2014-09-14T12:32:23Z</time>
      </trkpt>
      <trkpt lat="42.85253" lon="1.59194">
        <ele>492.33</ele>
        <time>2014-09-14T12:32:24Z</time>
      </trkpt>
      <trkpt lat="42.85251" lon="1.59203">
        <ele>491.85</ele>
        <time>2014-09-14T12:32:25Z</time>
      </trkpt>
      <trkpt lat="42.85248" lon="1.59214">
        <ele>491.85</ele>
        <time>2014-09-14T12:32:26Z</time>
      </trkpt>
      <trkpt lat="42.85244" lon="1.59227">
        <ele>491.37</ele>
        <time>2014-09-14T12:32:27Z</time>
      </trkpt>
      <trkpt lat="42.8517" lon="1.59426">
        <ele>486.08</ele>
        <time>2014-09-14T12:32:45Z</time>
      </trkpt>
      <trkpt lat="42.8508" lon="1.59683">
        <ele>478.39</ele>
        <time>2014-09-14T12:33:05Z</time>
      </trkpt>
      <trkpt lat="42.8501" lon="1.59888">
        <ele>473.11</ele>
        <time>2014-09-14T12:33:21Z</time>
      </trkpt>
      <trkpt lat="42.85002" lon="1.59907">
        <ele>472.63</ele>
        <time>2014-09-14T12:33:23Z</time>
      </trkpt>
      <trkpt lat="42.84996" lon="1.59918">
        <ele>472.14</ele>
        <time>2014-09-14T12:33:24Z</time>
      </trkpt>
      <trkpt lat="42.84988" lon="1.59929">
        <ele>471.66</ele>
        <time>2014-09-14T12:33:25Z</time>
      </trkpt>
      <trkpt lat="42.8498" lon="1.59937">
        <ele>471.18</ele>
        <time>2014-09-14T12:33:26Z</time>
      </trkpt>
      <trkpt lat="42.84972" lon="1.59942">
        <ele>470.7</ele>
        <time>2014-09-14T12:33:27Z</time>
      </trkpt>
      <trkpt lat="42.84964" lon="1.59945">
        <ele>470.7</ele>
        <time>2014-09-14T12:33:28Z</time>
      </trkpt>
      <trkpt lat="42.84954" lon="1.59948">
        <ele>470.7</ele>
        <time>2014-09-14T12:33:29Z</time>
      </trkpt>
      <trkpt lat="42.84945" lon="1.5995">
        <ele>470.22</ele>
        <time>2014-09-14T12:33:30Z</time>
      </trkpt>
      <trkpt lat="42.84826" lon="1.59967">
        <ele>471.18</ele>
        <time>2014-09-14T12:33:44Z</time>
      </trkpt>
      <trkpt lat="42.84694" lon="1.59989">
        <ele>473.59</ele>
        <time>2014-09-14T12:34:01Z</time>
      </trkpt>
      <trkpt lat="42.8465" lon="1.60007">
        <ele>474.55</ele>
        <time>2014-09-14T12:34:08Z</time>
      </trkpt>
      <trkpt lat="42.84588" lon="1.60051">
        <ele>477.43</ele>
        <time>2014-09-14T12:34:21Z</time>
      </trkpt>
      <trkpt lat="42.8457" lon="1.60066">
        <ele>478.39</ele>
        <time>2014-09-14T12:34:25Z</time>
      </trkpt>
      <trkpt lat="42.84566" lon="1.6007">
        <ele>478.39</ele>
        <time>2014-09-14T12:34:26Z</time>
      </trkpt>
      <trkpt lat="42.84551" lon="1.60079">
        <ele>479.84</ele>
        <time>2014-09-14T12:34:29Z</time>
      </trkpt>
      <trkpt lat="42.84546" lon="1.60081">
        <ele>480.32</ele>
        <time>2014-09-14T12:34:30Z</time>
      </trkpt>
      <trkpt lat="42.84542" lon="1.60082">
        <ele>480.8</ele>
        <time>2014-09-14T12:34:31Z</time>
      </trkpt>
      <trkpt lat="42.84538" lon="1.60082">
        <ele>481.28</ele>
        <time>2014-09-14T12:34:32Z</time>
      </trkpt>
      <trkpt lat="42.84534" lon="1.60081">
        <ele>481.76</ele>
        <time>2014-09-14T12:34:33Z</time>
      </trkpt>
      <trkpt lat="42.8453" lon="1.60078">
        <ele>482.24</ele>
        <time>2014-09-14T12:34:34Z</time>
      </trkpt>
      <trkpt lat="42.84527" lon="1.60076">
        <ele>482.24</ele>
        <time>2014-09-14T12:34:35Z</time>
      </trkpt>
      <trkpt lat="42.8452" lon="1.60076">
        <ele>482.72</ele>
        <time>2014-09-14T12:34:37Z</time>
      </trkpt>
      <trkpt lat="42.84517" lon="1.60078">
        <ele>482.72</ele>
        <time>2014-09-14T12:34:38Z</time>
      </trkpt>
      <trkpt lat="42.84514" lon="1.60082">
        <ele>483.2</ele>
        <time>2014-09-14T12:34:39Z</time>
      </trkpt>
      <trkpt lat="42.84512" lon="1.60086">
        <ele>483.2</ele>
        <time>2014-09-14T12:34:40Z</time>
      </trkpt>
      <trkpt lat="42.8451" lon="1.60092">
        <ele>483.2</ele>
        <time>2014-09-14T12:34:41Z</time>
      </trkpt>
      <trkpt lat="42.84511" lon="1.60099">
        <ele>483.2</ele>
        <time>2014-09-14T12:34:42Z</time>
      </trkpt>
      <trkpt lat="42.84513" lon="1.60103">
        <ele>482.72</ele>
        <time>2014-09-14T12:34:43Z</time>
      </trkpt>
      <trkpt lat="42.84516" lon="1.60107">
        <ele>482.72</ele>
        <time>2014-09-14T12:34:44Z</time>
      </trkpt>
      <trkpt lat="42.8452" lon="1.60111">
        <ele>482.72</ele>
        <time>2014-09-14T12:34:45Z</time>
      </trkpt>
      <trkpt lat="42.84524" lon="1.60116">
        <ele>482.72</ele>
        <time>2014-09-14T12:34:46Z</time>
      </trkpt>
      <trkpt lat="42.84527" lon="1.60121">
        <ele>482.72</ele>
        <time>2014-09-14T12:34:47Z</time>
      </trkpt>
      <trkpt lat="42.8453" lon="1.60126">
        <ele>482.24</ele>
        <time>2014-09-14T12:34:48Z</time>
      </trkpt>
      <trkpt lat="42.84533" lon="1.60132">
        <ele>482.24</ele>
        <time>2014-09-14T12:34:49Z</time>
      </trkpt>
      <trkpt lat="42.84577" lon="1.60234">
        <ele>480.8</ele>
        <time>2014-09-14T12:35:04Z</time>
      </trkpt>
      <trkpt lat="42.84594" lon="1.6028">
        <ele>478.87</ele>
        <time>2014-09-14T12:35:09Z</time>
      </trkpt>
      <trkpt lat="42.84595" lon="1.6029">
        <ele>478.39</ele>
        <time>2014-09-14T12:35:10Z</time>
      </trkpt>
      <trkpt lat="42.84594" lon="1.60299">
        <ele>477.91</ele>
        <time>2014-09-14T12:35:11Z</time>
      </trkpt>
      <trkpt lat="42.84592" lon="1.60345">
        <ele>475.51</ele>
        <time>2014-09-14T12:35:16Z</time>
      </trkpt>
      <trkpt lat="42.84593" lon="1.60353">
        <ele>475.51</ele>
        <time>2014-09-14T12:35:17Z</time>
      </trkpt>
      <trkpt lat="42.84596" lon="1.60359">
        <ele>475.03</ele>
        <time>2014-09-14T12:35:18Z</time>
      </trkpt>
      <trkpt lat="42.84602" lon="1.60365">
        <ele>475.03</ele>
        <time>2014-09-14T12:35:19Z</time>
      </trkpt>
      <trkpt lat="42.84608" lon="1.60367">
        <ele>474.55</ele>
        <time>2014-09-14T12:35:20Z</time>
      </trkpt>
      <trkpt lat="42.84614" lon="1.6037">
        <ele>474.55</ele>
        <time>2014-09-14T12:35:21Z</time>
      </trkpt>
      <trkpt lat="42.84621" lon="1.60372">
        <ele>474.07</ele>
        <time>2014-09-14T12:35:22Z</time>
      </trkpt>
      <trkpt lat="42.84627" lon="1.60375">
        <ele>474.07</ele>
        <time>2014-09-14T12:35:23Z</time>
      </trkpt>
      <trkpt lat="42.84633" lon="1.60379">
        <ele>474.07</ele>
        <time>2014-09-14T12:35:24Z</time>
      </trkpt>
      <trkpt lat="42.84638" lon="1.60384">
        <ele>474.07</ele>
        <time>2014-09-14T12:35:25Z</time>
      </trkpt>
      <trkpt lat="42.84644" lon="1.60392">
        <ele>473.59</ele>
        <time>2014-09-14T12:35:26Z</time>
      </trkpt>
      <trkpt lat="42.84647" lon="1.60398">
        <ele>473.59</ele>
        <time>2014-09-14T12:35:27Z</time>
      </trkpt>
      <trkpt lat="42.8465" lon="1.60407">
        <ele>473.59</ele>
        <time>2014-09-14T12:35:28Z</time>
      </trkpt>
      <trkpt lat="42.84653" lon="1.60414">
        <ele>473.59</ele>
        <time>2014-09-14T12:35:29Z</time>
      </trkpt>
      <trkpt lat="42.84664" lon="1.60443">
        <ele>474.07</ele>
        <time>2014-09-14T12:35:33Z</time>
      </trkpt>
      <trkpt lat="42.84702" lon="1.60539">
        <ele>476.95</ele>
        <time>2014-09-14T12:35:48Z</time>
      </trkpt>
      <trkpt lat="42.84717" lon="1.60572">
        <ele>477.91</ele>
        <time>2014-09-14T12:35:58Z</time>
      </trkpt>
      <trkpt lat="42.84716" lon="1.60568">
        <ele>479.84</ele>
        <time>2014-09-14T12:36:11Z</time>
      </trkpt>
      <trkpt lat="42.84715" lon="1.60569">
        <ele>480.8</ele>
        <time>2014-09-14T12:36:25Z</time>
      </trkpt>
      <trkpt lat="42.84714" lon="1.60571">
        <ele>486.56</ele>
        <time>2014-09-14T12:36:51Z</time>
      </trkpt>
      <trkpt lat="42.84715" lon="1.60573">
        <ele>489.45</ele>
        <time>2014-09-14T12:37:22Z</time>
      </trkpt>
      <trkpt lat="42.84715" lon="1.60578">
        <ele>496.18</ele>
        <time>2014-09-14T12:37:52Z</time>
      </trkpt>
      <trkpt lat="42.84715" lon="1.60578">
        <ele>504.35</ele>
        <time>2014-09-14T12:38:31Z</time>
      </trkpt>
      <trkpt lat="42.84715" lon="1.60575">
        <ele>501.46</ele>
        <time>2014-09-14T12:38:59Z</time>
      </trkpt>
      <trkpt lat="42.84716" lon="1.60572">
        <ele>500.98</ele>
        <time>2014-09-14T12:39:34Z</time>
      </trkpt>
      <trkpt lat="42.84715" lon="1.60574">
        <ele>501.46</ele>
        <time>2014-09-14T12:39:53Z</time>
      </trkpt>
      <trkpt lat="42.84715" lon="1.60579">
        <ele>506.27</ele>
        <time>2014-09-14T12:40:20Z</time>
      </trkpt>
      <trkpt lat="42.84716" lon="1.60588">
        <ele>509.16</ele>
        <time>2014-09-14T12:40:59Z</time>
      </trkpt>
      <trkpt lat="42.84716" lon="1.60588">
        <ele>510.6</ele>
        <time>2014-09-14T12:41:30Z</time>
      </trkpt>
      <trkpt lat="42.84714" lon="1.60581">
        <ele>509.64</ele>
        <time>2014-09-14T12:42:00Z</time>
      </trkpt>
      <trkpt lat="42.84716" lon="1.60585">
        <ele>511.08</ele>
        <time>2014-09-14T12:42:29Z</time>
      </trkpt>
      <trkpt lat="42.84713" lon="1.60585">
        <ele>513.48</ele>
        <time>2014-09-14T12:43:10Z</time>
      </trkpt>
      <trkpt lat="42.84714" lon="1.60581">
        <ele>511.08</ele>
        <time>2014-09-14T12:43:52Z</time>
      </trkpt>
      <trkpt lat="42.84713" lon="1.60582">
        <ele>511.08</ele>
        <time>2014-09-14T12:44:29Z</time>
      </trkpt>
      <trkpt lat="42.84712" lon="1.60578">
        <ele>507.71</ele>
        <time>2014-09-14T12:45:08Z</time>
      </trkpt>
      <trkpt lat="42.84713" lon="1.60581">
        <ele>513</ele>
        <time>2014-09-14T12:45:38Z</time>
      </trkpt>
      <trkpt lat="42.84714" lon="1.60577">
        <ele>513.96</ele>
        <time>2014-09-14T12:46:07Z</time>
      </trkpt>
      <trkpt lat="42.84714" lon="1.60575">
        <ele>511.56</ele>
        <time>2014-09-14T12:46:35Z</time>
      </trkpt>
      <trkpt lat="42.84715" lon="1.60576">
        <ele>507.23</ele>
        <time>2014-09-14T12:47:03Z</time>
      </trkpt>
      <trkpt lat="42.84714" lon="1.60573">
        <ele>500.98</ele>
        <time>2014-09-14T12:47:32Z</time>
      </trkpt>
      <trkpt lat="42.84715" lon="1.60578">
        <ele>502.91</ele>
        <time>2014-09-14T12:48:06Z</time>
      </trkpt>
      <trkpt lat="42.84716" lon="1.60585">
        <ele>508.67</ele>
        <time>2014-09-14T12:48:37Z</time>
      </trkpt>
      <trkpt lat="42.84716" lon="1.60584">
        <ele>511.08</ele>
        <time>2014-09-14T12:49:12Z</time>
      </trkpt>
      <trkpt lat="42.84716" lon="1.60587">
        <ele>508.67</ele>
        <time>2014-09-14T12:49:48Z</time>
      </trkpt>
      <trkpt lat="42.84718" lon="1.60587">
        <ele>513</ele>
        <time>2014-09-14T12:50:18Z</time>
      </trkpt>
      <trkpt lat="42.84717" lon="1.60584">
        <ele>510.12</ele>
        <time>2014-09-14T12:50:54Z</time>
      </trkpt>
      <trkpt lat="42.84717" lon="1.60579">
        <ele>508.19</ele>
        <time>2014-09-14T12:51:26Z</time>
      </trkpt>
      <trkpt lat="42.84719" lon="1.60579">
        <ele>510.6</ele>
        <time>2014-09-14T12:52:01Z</time>
      </trkpt>
      <trkpt lat="42.84719" lon="1.60577">
        <ele>510.12</ele>
        <time>2014-09-14T12:52:33Z</time>
      </trkpt>
      <trkpt lat="42.84719" lon="1.60578">
        <ele>510.6</ele>
        <time>2014-09-14T12:53:08Z</time>
      </trkpt>
      <trkpt lat="42.84721" lon="1.6058">
        <ele>513</ele>
        <time>2014-09-14T12:53:35Z</time>
      </trkpt>
      <trkpt lat="42.84722" lon="1.60579">
        <ele>514.44</ele>
        <time>2014-09-14T12:54:05Z</time>
      </trkpt>
      <trkpt lat="42.84722" lon="1.60582">
        <ele>518.77</ele>
        <time>2014-09-14T12:54:32Z</time>
      </trkpt>
      <trkpt lat="42.84722" lon="1.60582">
        <ele>520.21</ele>
        <time>2014-09-14T12:54:57Z</time>
      </trkpt>
      <trkpt lat="42.8472" lon="1.60578">
        <ele>511.08</ele>
        <time>2014-09-14T12:55:34Z</time>
      </trkpt>
      <trkpt lat="42.84719" lon="1.60577">
        <ele>509.16</ele>
        <time>2014-09-14T12:55:57Z</time>
      </trkpt>
      <trkpt lat="42.84717" lon="1.60575">
        <ele>506.75</ele>
        <time>2014-09-14T12:56:21Z</time>
      </trkpt>
      <trkpt lat="42.84718" lon="1.60575">
        <ele>505.79</ele>
        <time>2014-09-14T12:56:43Z</time>
      </trkpt>
      <trkpt lat="42.84719" lon="1.60574">
        <ele>506.75</ele>
        <time>2014-09-14T12:57:13Z</time>
      </trkpt>
      <trkpt lat="42.8472" lon="1.60574">
        <ele>511.08</ele>
        <time>2014-09-14T12:57:52Z</time>
      </trkpt>
      <trkpt lat="42.84721" lon="1.60575">
        <ele>511.56</ele>
        <time>2014-09-14T12:58:21Z</time>
      </trkpt>
      <trkpt lat="42.84722" lon="1.60577">
        <ele>513.48</ele>
        <time>2014-09-14T12:58:43Z</time>
      </trkpt>
      <trkpt lat="42.84721" lon="1.6058">
        <ele>517.81</ele>
        <time>2014-09-14T12:59:19Z</time>
      </trkpt>
      <trkpt lat="42.84724" lon="1.60581">
        <ele>519.73</ele>
        <time>2014-09-14T12:59:52Z</time>
      </trkpt>
      <trkpt lat="42.84727" lon="1.60581">
        <ele>520.21</ele>
        <time>2014-09-14T13:00:23Z</time>
      </trkpt>
      <trkpt lat="42.84727" lon="1.60579">
        <ele>524.06</ele>
        <time>2014-09-14T13:00:48Z</time>
      </trkpt>
      <trkpt lat="42.84723" lon="1.60582">
        <ele>522.13</ele>
        <time>2014-09-14T13:01:25Z</time>
      </trkpt>
      <trkpt lat="42.84722" lon="1.60583">
        <ele>519.73</ele>
        <time>2014-09-14T13:01:56Z</time>
      </trkpt>
      <trkpt lat="42.84721" lon="1.6058">
        <ele>516.85</ele>
        <time>2014-09-14T13:02:35Z</time>
      </trkpt>
      <trkpt lat="42.84722" lon="1.60574">
        <ele>516.37</ele>
        <time>2014-09-14T13:03:08Z</time>
      </trkpt>
      <trkpt lat="42.84721" lon="1.60572">
        <ele>513.48</ele>
        <time>2014-09-14T13:03:35Z</time>
      </trkpt>
      <trkpt lat="42.84721" lon="1.60573">
        <ele>509.16</ele>
        <time>2014-09-14T13:03:57Z</time>
      </trkpt>
      <trkpt lat="42.84719" lon="1.60575">
        <ele>507.71</ele>
        <time>2014-09-14T13:04:22Z</time>
      </trkpt>
      <trkpt lat="42.8472" lon="1.60575">
        <ele>509.16</ele>
        <time>2014-09-14T13:04:50Z</time>
      </trkpt>
      <trkpt lat="42.84721" lon="1.60574">
        <ele>510.6</ele>
        <time>2014-09-14T13:05:07Z</time>
      </trkpt>
      <trkpt lat="42.84724" lon="1.60575">
        <ele>517.81</ele>
        <time>2014-09-14T13:05:33Z</time>
      </trkpt>
      <trkpt lat="42.84725" lon="1.60577">
        <ele>521.65</ele>
        <time>2014-09-14T13:05:59Z</time>
      </trkpt>
      <trkpt lat="42.84726" lon="1.60575">
        <ele>525.98</ele>
        <time>2014-09-14T13:06:23Z</time>
      </trkpt>
      <trkpt lat="42.84726" lon="1.60575">
        <ele>527.42</ele>
        <time>2014-09-14T13:06:49Z</time>
      </trkpt>
      <trkpt lat="42.84721" lon="1.60574">
        <ele>523.58</ele>
        <time>2014-09-14T13:07:12Z</time>
      </trkpt>
      <trkpt lat="42.84719" lon="1.60575">
        <ele>521.17</ele>
        <time>2014-09-14T13:07:39Z</time>
      </trkpt>
      <trkpt lat="42.84717" lon="1.60575">
        <ele>517.81</ele>
        <time>2014-09-14T13:08:10Z</time>
      </trkpt>
      <trkpt lat="42.8472" lon="1.60571">
        <ele>517.81</ele>
        <time>2014-09-14T13:08:41Z</time>
      </trkpt>
      <trkpt lat="42.8472" lon="1.60571">
        <ele>520.69</ele>
        <time>2014-09-14T13:09:11Z</time>
      </trkpt>
      <trkpt lat="42.8472" lon="1.6057">
        <ele>520.69</ele>
        <time>2014-09-14T13:09:31Z</time>
      </trkpt>
      <trkpt lat="42.8472" lon="1.60571">
        <ele>522.61</ele>
        <time>2014-09-14T13:09:56Z</time>
      </trkpt>
      <trkpt lat="42.84721" lon="1.60569">
        <ele>521.17</ele>
        <time>2014-09-14T13:10:20Z</time>
      </trkpt>
      <trkpt lat="42.84723" lon="1.60567">
        <ele>519.73</ele>
        <time>2014-09-14T13:10:46Z</time>
      </trkpt>
      <trkpt lat="42.84724" lon="1.60567">
        <ele>521.17</ele>
        <time>2014-09-14T13:11:13Z</time>
      </trkpt>
      <trkpt lat="42.84725" lon="1.60566">
        <ele>521.65</ele>
        <time>2014-09-14T13:11:36Z</time>
      </trkpt>
      <trkpt lat="42.84725" lon="1.60566">
        <ele>522.13</ele>
        <time>2014-09-14T13:11:58Z</time>
      </trkpt>
      <trkpt lat="42.84726" lon="1.60566">
        <ele>522.13</ele>
        <time>2014-09-14T13:12:23Z</time>
      </trkpt>
      <trkpt lat="42.84723" lon="1.60567">
        <ele>518.29</ele>
        <time>2014-09-14T13:12:40Z</time>
      </trkpt>
      <trkpt lat="42.8472" lon="1.6057">
        <ele>513</ele>
        <time>2014-09-14T13:13:06Z</time>
      </trkpt>
      <trkpt lat="42.8472" lon="1.6057">
        <ele>515.88</ele>
        <time>2014-09-14T13:13:35Z</time>
      </trkpt>
      <trkpt lat="42.8472" lon="1.60568">
        <ele>512.52</ele>
        <time>2014-09-14T13:13:57Z</time>
      </trkpt>
      <trkpt lat="42.84719" lon="1.60571">
        <ele>507.71</ele>
        <time>2014-09-14T13:14:16Z</time>
      </trkpt>
      <trkpt lat="42.84713" lon="1.60577">
        <ele>498.1</ele>
        <time>2014-09-14T13:14:42Z</time>
      </trkpt>
      <trkpt lat="42.84714" lon="1.60575">
        <ele>496.66</ele>
        <time>2014-09-14T13:15:00Z</time>
      </trkpt>
      <trkpt lat="42.84715" lon="1.60574">
        <ele>492.33</ele>
        <time>2014-09-14T13:15:25Z</time>
      </trkpt>
      <trkpt lat="42.84714" lon="1.60575">
        <ele>491.37</ele>
        <time>2014-09-14T13:15:46Z</time>
      </trkpt>
      <trkpt lat="42.84712" lon="1.60572">
        <ele>488.49</ele>
        <time>2014-09-14T13:16:06Z</time>
      </trkpt>
      <trkpt lat="42.84714" lon="1.60572">
        <ele>488.49</ele>
        <time>2014-09-14T13:16:28Z</time>
      </trkpt>
      <trkpt lat="42.84714" lon="1.60573">
        <ele>488.97</ele>
        <time>2014-09-14T13:16:50Z</time>
      </trkpt>
      <trkpt lat="42.84714" lon="1.60577">
        <ele>488.01</ele>
        <time>2014-09-14T13:17:00Z</time>
      </trkpt>
      <trkpt lat="42.84715" lon="1.60579">
        <ele>487.53</ele>
        <time>2014-09-14T13:17:01Z</time>
      </trkpt>
      <trkpt lat="42.84716" lon="1.6058">
        <ele>487.53</ele>
        <time>2014-09-14T13:17:02Z</time>
      </trkpt>
      <trkpt lat="42.84718" lon="1.60582">
        <ele>487.53</ele>
        <time>2014-09-14T13:17:03Z</time>
      </trkpt>
      <trkpt lat="42.8472" lon="1.60585">
        <ele>487.53</ele>
        <time>2014-09-14T13:17:04Z</time>
      </trkpt>
      <trkpt lat="42.84722" lon="1.60586">
        <ele>487.53</ele>
        <time>2014-09-14T13:17:05Z</time>
      </trkpt>
      <trkpt lat="42.84726" lon="1.60587">
        <ele>487.53</ele>
        <time>2014-09-14T13:17:06Z</time>
      </trkpt>
      <trkpt lat="42.8473" lon="1.60588">
        <ele>487.53</ele>
        <time>2014-09-14T13:17:07Z</time>
      </trkpt>
      <trkpt lat="42.84734" lon="1.60587">
        <ele>487.53</ele>
        <time>2014-09-14T13:17:08Z</time>
      </trkpt>
      <trkpt lat="42.84736" lon="1.60586">
        <ele>488.01</ele>
        <time>2014-09-14T13:17:09Z</time>
      </trkpt>
      <trkpt lat="42.84757" lon="1.60576">
        <ele>488.49</ele>
        <time>2014-09-14T13:17:14Z</time>
      </trkpt>
      <trkpt lat="42.84812" lon="1.60547">
        <ele>491.37</ele>
        <time>2014-09-14T13:17:26Z</time>
      </trkpt>
      <trkpt lat="42.84887" lon="1.60506">
        <ele>492.33</ele>
        <time>2014-09-14T13:17:41Z</time>
      </trkpt>
      <trkpt lat="42.84994" lon="1.60446">
        <ele>488.49</ele>
        <time>2014-09-14T13:18:01Z</time>
      </trkpt>
      <trkpt lat="42.8509" lon="1.60398">
        <ele>488.49</ele>
        <time>2014-09-14T13:18:18Z</time>
      </trkpt>
      <trkpt lat="42.85196" lon="1.60343">
        <ele>485.6</ele>
        <time>2014-09-14T13:18:36Z</time>
      </trkpt>
      <trkpt lat="42.85313" lon="1.60282">
        <ele>482.24</ele>
        <time>2014-09-14T13:18:56Z</time>
      </trkpt>
      <trkpt lat="42.85406" lon="1.60236">
        <ele>479.84</ele>
        <time>2014-09-14T13:19:12Z</time>
      </trkpt>
      <trkpt lat="42.85515" lon="1.60177">
        <ele>479.35</ele>
        <time>2014-09-14T13:19:31Z</time>
      </trkpt>
      <trkpt lat="42.8561" lon="1.60127">
        <ele>479.35</ele>
        <time>2014-09-14T13:19:47Z</time>
      </trkpt>
      <trkpt lat="42.85666" lon="1.60125">
        <ele>476.47</ele>
        <time>2014-09-14T13:19:56Z</time>
      </trkpt>
      <trkpt lat="42.85793" lon="1.60171">
        <ele>472.14</ele>
        <time>2014-09-14T13:20:16Z</time>
      </trkpt>
      <trkpt lat="42.85895" lon="1.60209">
        <ele>469.26</ele>
        <time>2014-09-14T13:20:32Z</time>
      </trkpt>
      <trkpt lat="42.85983" lon="1.60275">
        <ele>470.22</ele>
        <time>2014-09-14T13:20:49Z</time>
      </trkpt>
      <trkpt lat="42.86044" lon="1.6034">
        <ele>473.11</ele>
        <time>2014-09-14T13:21:04Z</time>
      </trkpt>
      <trkpt lat="42.86111" lon="1.60409">
        <ele>475.99</ele>
        <time>2014-09-14T13:21:20Z</time>
      </trkpt>
      <trkpt lat="42.86143" lon="1.60435">
        <ele>475.99</ele>
        <time>2014-09-14T13:21:27Z</time>
      </trkpt>
      <trkpt lat="42.8624" lon="1.60491">
        <ele>478.39</ele>
        <time>2014-09-14T13:21:46Z</time>
      </trkpt>
      <trkpt lat="42.86312" lon="1.60559">
        <ele>477.43</ele>
        <time>2014-09-14T13:22:00Z</time>
      </trkpt>
      <trkpt lat="42.8633" lon="1.60584">
        <ele>476.95</ele>
        <time>2014-09-14T13:22:04Z</time>
      </trkpt>
      <trkpt lat="42.86393" lon="1.60707">
        <ele>475.03</ele>
        <time>2014-09-14T13:22:20Z</time>
      </trkpt>
      <trkpt lat="42.86436" lon="1.60854">
        <ele>470.7</ele>
        <time>2014-09-14T13:22:34Z</time>
      </trkpt>
      <trkpt lat="42.86493" lon="1.61095">
        <ele>468.3</ele>
        <time>2014-09-14T13:22:56Z</time>
      </trkpt>
      <trkpt lat="42.86549" lon="1.61297">
        <ele>466.86</ele>
        <time>2014-09-14T13:23:15Z</time>
      </trkpt>
      <trkpt lat="42.86608" lon="1.61443">
        <ele>468.3</ele>
        <time>2014-09-14T13:23:32Z</time>
      </trkpt>
      <trkpt lat="42.86648" lon="1.61518">
        <ele>470.22</ele>
        <time>2014-09-14T13:23:43Z</time>
      </trkpt>
      <trkpt lat="42.86654" lon="1.61525">
        <ele>470.22</ele>
        <time>2014-09-14T13:23:44Z</time>
      </trkpt>
      <trkpt lat="42.86658" lon="1.61529">
        <ele>470.7</ele>
        <time>2014-09-14T13:23:45Z</time>
      </trkpt>
      <trkpt lat="42.86665" lon="1.61533">
        <ele>470.7</ele>
        <time>2014-09-14T13:23:46Z</time>
      </trkpt>
      <trkpt lat="42.86671" lon="1.61538">
        <ele>471.18</ele>
        <time>2014-09-14T13:23:48Z</time>
      </trkpt>
      <trkpt lat="42.86684" lon="1.61547">
        <ele>471.66</ele>
        <time>2014-09-14T13:23:50Z</time>
      </trkpt>
      <trkpt lat="42.86689" lon="1.61552">
        <ele>472.14</ele>
        <time>2014-09-14T13:23:51Z</time>
      </trkpt>
      <trkpt lat="42.86694" lon="1.61557">
        <ele>472.14</ele>
        <time>2014-09-14T13:23:52Z</time>
      </trkpt>
      <trkpt lat="42.86702" lon="1.61567">
        <ele>473.11</ele>
        <time>2014-09-14T13:23:54Z</time>
      </trkpt>
      <trkpt lat="42.86733" lon="1.61619">
        <ele>474.55</ele>
        <time>2014-09-14T13:24:03Z</time>
      </trkpt>
      <trkpt lat="42.86736" lon="1.61624">
        <ele>474.55</ele>
        <time>2014-09-14T13:24:04Z</time>
      </trkpt>
      <trkpt lat="42.86785" lon="1.61734">
        <ele>477.91</ele>
        <time>2014-09-14T13:24:22Z</time>
      </trkpt>
      <trkpt lat="42.86836" lon="1.6183">
        <ele>479.84</ele>
        <time>2014-09-14T13:24:39Z</time>
      </trkpt>
      <trkpt lat="42.86912" lon="1.61948">
        <ele>483.2</ele>
        <time>2014-09-14T13:25:02Z</time>
      </trkpt>
      <trkpt lat="42.86968" lon="1.62068">
        <ele>484.16</ele>
        <time>2014-09-14T13:25:21Z</time>
      </trkpt>
      <trkpt lat="42.87027" lon="1.62172">
        <ele>483.68</ele>
        <time>2014-09-14T13:25:36Z</time>
      </trkpt>
      <trkpt lat="42.87126" lon="1.62276">
        <ele>481.76</ele>
        <time>2014-09-14T13:25:53Z</time>
      </trkpt>
      <trkpt lat="42.87241" lon="1.62393">
        <ele>479.35</ele>
        <time>2014-09-14T13:26:12Z</time>
      </trkpt>
      <trkpt lat="42.87367" lon="1.62512">
        <ele>478.39</ele>
        <time>2014-09-14T13:26:33Z</time>
      </trkpt>
      <trkpt lat="42.87473" lon="1.62602">
        <ele>478.39</ele>
        <time>2014-09-14T13:26:50Z</time>
      </trkpt>
      <trkpt lat="42.87562" lon="1.62676">
        <ele>478.39</ele>
        <time>2014-09-14T13:27:05Z</time>
      </trkpt>
      <trkpt lat="42.87696" lon="1.62789">
        <ele>476.95</ele>
        <time>2014-09-14T13:27:27Z</time>
      </trkpt>
      <trkpt lat="42.878" lon="1.62875">
        <ele>478.39</ele>
        <time>2014-09-14T13:27:44Z</time>
      </trkpt>
      <trkpt lat="42.87838" lon="1.62905">
        <ele>479.35</ele>
        <time>2014-09-14T13:27:51Z</time>
      </trkpt>
      <trkpt lat="42.87845" lon="1.62907">
        <ele>479.84</ele>
        <time>2014-09-14T13:27:52Z</time>
      </trkpt>
      <trkpt lat="42.8791" lon="1.62912">
        <ele>484.16</ele>
        <time>2014-09-14T13:28:04Z</time>
      </trkpt>
      <trkpt lat="42.87916" lon="1.62914">
        <ele>484.64</ele>
        <time>2014-09-14T13:28:05Z</time>
      </trkpt>
      <trkpt lat="42.87929" lon="1.62917">
        <ele>484.64</ele>
        <time>2014-09-14T13:28:07Z</time>
      </trkpt>
      <trkpt lat="42.87993" lon="1.62915">
        <ele>487.53</ele>
        <time>2014-09-14T13:28:17Z</time>
      </trkpt>
      <trkpt lat="42.88104" lon="1.62925">
        <ele>489.93</ele>
        <time>2014-09-14T13:28:32Z</time>
      </trkpt>
      <trkpt lat="42.88198" lon="1.62932">
        <ele>485.6</ele>
        <time>2014-09-14T13:28:43Z</time>
      </trkpt>
      <trkpt lat="42.88207" lon="1.62935">
        <ele>485.6</ele>
        <time>2014-09-14T13:28:44Z</time>
      </trkpt>
      <trkpt lat="42.88217" lon="1.62939">
        <ele>485.12</ele>
        <time>2014-09-14T13:28:45Z</time>
      </trkpt>
      <trkpt lat="42.88223" lon="1.62943">
        <ele>485.12</ele>
        <time>2014-09-14T13:28:46Z</time>
      </trkpt>
      <trkpt lat="42.88232" lon="1.62949">
        <ele>485.12</ele>
        <time>2014-09-14T13:28:47Z</time>
      </trkpt>
      <trkpt lat="42.88341" lon="1.63019">
        <ele>481.28</ele>
        <time>2014-09-14T13:29:03Z</time>
      </trkpt>
      <trkpt lat="42.88479" lon="1.6311">
        <ele>482.24</ele>
        <time>2014-09-14T13:29:26Z</time>
      </trkpt>
      <trkpt lat="42.88599" lon="1.63193">
        <ele>482.24</ele>
        <time>2014-09-14T13:29:47Z</time>
      </trkpt>
      <trkpt lat="42.88721" lon="1.63287">
        <ele>483.68</ele>
        <time>2014-09-14T13:30:10Z</time>
      </trkpt>
      <trkpt lat="42.88751" lon="1.63297">
        <ele>486.56</ele>
        <time>2014-09-14T13:30:16Z</time>
      </trkpt>
      <trkpt lat="42.88756" lon="1.63298">
        <ele>487.05</ele>
        <time>2014-09-14T13:30:17Z</time>
      </trkpt>
      <trkpt lat="42.88833" lon="1.63303">
        <ele>492.81</ele>
        <time>2014-09-14T13:30:33Z</time>
      </trkpt>
      <trkpt lat="42.88905" lon="1.63312">
        <ele>498.1</ele>
        <time>2014-09-14T13:30:49Z</time>
      </trkpt>
      <trkpt lat="42.88909" lon="1.63314">
        <ele>498.58</ele>
        <time>2014-09-14T13:30:50Z</time>
      </trkpt>
      <trkpt lat="42.88917" lon="1.63317">
        <ele>499.54</ele>
        <time>2014-09-14T13:30:52Z</time>
      </trkpt>
      <trkpt lat="42.88934" lon="1.63323">
        <ele>500.5</ele>
        <time>2014-09-14T13:30:56Z</time>
      </trkpt>
      <trkpt lat="42.89" lon="1.63367">
        <ele>499.54</ele>
        <time>2014-09-14T13:31:11Z</time>
      </trkpt>
      <trkpt lat="42.89095" lon="1.63443">
        <ele>498.1</ele>
        <time>2014-09-14T13:31:31Z</time>
      </trkpt>
      <trkpt lat="42.89193" lon="1.63515">
        <ele>498.1</ele>
        <time>2014-09-14T13:31:49Z</time>
      </trkpt>
      <trkpt lat="42.8927" lon="1.6357">
        <ele>500.5</ele>
        <time>2014-09-14T13:32:04Z</time>
      </trkpt>
      <trkpt lat="42.8936" lon="1.63632">
        <ele>501.46</ele>
        <time>2014-09-14T13:32:19Z</time>
      </trkpt>
      <trkpt lat="42.89458" lon="1.63681">
        <ele>500.98</ele>
        <time>2014-09-14T13:32:34Z</time>
      </trkpt>
      <trkpt lat="42.89584" lon="1.63735">
        <ele>496.18</ele>
        <time>2014-09-14T13:32:49Z</time>
      </trkpt>
      <trkpt lat="42.89746" lon="1.63805">
        <ele>492.33</ele>
        <time>2014-09-14T13:33:07Z</time>
      </trkpt>
      <trkpt lat="42.89882" lon="1.63863">
        <ele>492.33</ele>
        <time>2014-09-14T13:33:23Z</time>
      </trkpt>
      <trkpt lat="42.90035" lon="1.63944">
        <ele>487.53</ele>
        <time>2014-09-14T13:33:40Z</time>
      </trkpt>
      <trkpt lat="42.90243" lon="1.64058">
        <ele>481.28</ele>
        <time>2014-09-14T13:34:02Z</time>
      </trkpt>
      <trkpt lat="42.90393" lon="1.6416">
        <ele>478.87</ele>
        <time>2014-09-14T13:34:20Z</time>
      </trkpt>
      <trkpt lat="42.9052" lon="1.64223">
        <ele>477.43</ele>
        <time>2014-09-14T13:34:35Z</time>
      </trkpt>
      <trkpt lat="42.90643" lon="1.64256">
        <ele>477.91</ele>
        <time>2014-09-14T13:34:50Z</time>
      </trkpt>
      <trkpt lat="42.90762" lon="1.64238">
        <ele>475.51</ele>
        <time>2014-09-14T13:35:04Z</time>
      </trkpt>
      <trkpt lat="42.90866" lon="1.64254">
        <ele>474.07</ele>
        <time>2014-09-14T13:35:16Z</time>
      </trkpt>
      <trkpt lat="42.9098" lon="1.64309">
        <ele>470.7</ele>
        <time>2014-09-14T13:35:30Z</time>
      </trkpt>
      <trkpt lat="42.91132" lon="1.64338">
        <ele>468.3</ele>
        <time>2014-09-14T13:35:48Z</time>
      </trkpt>
      <trkpt lat="42.9127" lon="1.64344">
        <ele>465.42</ele>
        <time>2014-09-14T13:36:04Z</time>
      </trkpt>
      <trkpt lat="42.91376" lon="1.64296">
        <ele>464.45</ele>
        <time>2014-09-14T13:36:17Z</time>
      </trkpt>
      <trkpt lat="42.91422" lon="1.6428">
        <ele>464.45</ele>
        <time>2014-09-14T13:36:23Z</time>
      </trkpt>
      <trkpt lat="42.91428" lon="1.64276">
        <ele>464.45</ele>
        <time>2014-09-14T13:36:24Z</time>
      </trkpt>
      <trkpt lat="42.91434" lon="1.64271">
        <ele>464.45</ele>
        <time>2014-09-14T13:36:25Z</time>
      </trkpt>
      <trkpt lat="42.9144" lon="1.64264">
        <ele>464.45</ele>
        <time>2014-09-14T13:36:26Z</time>
      </trkpt>
      <trkpt lat="42.91445" lon="1.64257">
        <ele>463.97</ele>
        <time>2014-09-14T13:36:27Z</time>
      </trkpt>
      <trkpt lat="42.91449" lon="1.64248">
        <ele>463.97</ele>
        <time>2014-09-14T13:36:28Z</time>
      </trkpt>
      <trkpt lat="42.91452" lon="1.6424">
        <ele>463.49</ele>
        <time>2014-09-14T13:36:29Z</time>
      </trkpt>
      <trkpt lat="42.91454" lon="1.6423">
        <ele>463.49</ele>
        <time>2014-09-14T13:36:30Z</time>
      </trkpt>
      <trkpt lat="42.91479" lon="1.64159">
        <ele>461.09</ele>
        <time>2014-09-14T13:36:37Z</time>
      </trkpt>
      <trkpt lat="42.91485" lon="1.64149">
        <ele>460.61</ele>
        <time>2014-09-14T13:36:38Z</time>
      </trkpt>
      <trkpt lat="42.91492" lon="1.64141">
        <ele>460.61</ele>
        <time>2014-09-14T13:36:39Z</time>
      </trkpt>
      <trkpt lat="42.915" lon="1.64133">
        <ele>460.61</ele>
        <time>2014-09-14T13:36:40Z</time>
      </trkpt>
      <trkpt lat="42.91507" lon="1.64128">
        <ele>460.61</ele>
        <time>2014-09-14T13:36:41Z</time>
      </trkpt>
      <trkpt lat="42.91516" lon="1.64124">
        <ele>460.61</ele>
        <time>2014-09-14T13:36:42Z</time>
      </trkpt>
      <trkpt lat="42.91524" lon="1.64121">
        <ele>460.13</ele>
        <time>2014-09-14T13:36:43Z</time>
      </trkpt>
      <trkpt lat="42.91648" lon="1.64091">
        <ele>462.53</ele>
        <time>2014-09-14T13:36:58Z</time>
      </trkpt>
      <trkpt lat="42.91786" lon="1.64057">
        <ele>463.01</ele>
        <time>2014-09-14T13:37:15Z</time>
      </trkpt>
      <trkpt lat="42.91812" lon="1.6405">
        <ele>463.01</ele>
        <time>2014-09-14T13:37:19Z</time>
      </trkpt>
      <trkpt lat="42.91819" lon="1.64055">
        <ele>463.01</ele>
        <time>2014-09-14T13:37:20Z</time>
      </trkpt>
      <trkpt lat="42.91823" lon="1.64064">
        <ele>463.01</ele>
        <time>2014-09-14T13:37:22Z</time>
      </trkpt>
      <trkpt lat="42.9182" lon="1.64075">
        <ele>463.01</ele>
        <time>2014-09-14T13:37:23Z</time>
      </trkpt>
      <trkpt lat="42.91818" lon="1.64082">
        <ele>462.53</ele>
        <time>2014-09-14T13:37:24Z</time>
      </trkpt>
      <trkpt lat="42.91811" lon="1.641">
        <ele>462.53</ele>
        <time>2014-09-14T13:37:32Z</time>
      </trkpt>
      <trkpt lat="42.91811" lon="1.64101">
        <ele>461.09</ele>
        <time>2014-09-14T13:37:50Z</time>
      </trkpt>
      <trkpt lat="42.91809" lon="1.64106">
        <ele>460.13</ele>
        <time>2014-09-14T13:38:18Z</time>
      </trkpt>
      <trkpt lat="42.91798" lon="1.64152">
        <ele>460.13</ele>
        <time>2014-09-14T13:38:30Z</time>
      </trkpt>
      <trkpt lat="42.91771" lon="1.6426">
        <ele>459.65</ele>
        <time>2014-09-14T13:38:44Z</time>
      </trkpt>
      <trkpt lat="42.91732" lon="1.64419">
        <ele>461.57</ele>
        <time>2014-09-14T13:39:03Z</time>
      </trkpt>
      <trkpt lat="42.91702" lon="1.64542">
        <ele>462.05</ele>
        <time>2014-09-14T13:39:18Z</time>
      </trkpt>
      <trkpt lat="42.91668" lon="1.64687">
        <ele>461.09</ele>
        <time>2014-09-14T13:39:34Z</time>
      </trkpt>
      <trkpt lat="42.91664" lon="1.64698">
        <ele>460.61</ele>
        <time>2014-09-14T13:39:35Z</time>
      </trkpt>
      <trkpt lat="42.91661" lon="1.64705">
        <ele>460.61</ele>
        <time>2014-09-14T13:39:36Z</time>
      </trkpt>
      <trkpt lat="42.91657" lon="1.64711">
        <ele>460.61</ele>
        <time>2014-09-14T13:39:37Z</time>
      </trkpt>
      <trkpt lat="42.91652" lon="1.64717">
        <ele>460.61</ele>
        <time>2014-09-14T13:39:38Z</time>
      </trkpt>
      <trkpt lat="42.91647" lon="1.64725">
        <ele>460.61</ele>
        <time>2014-09-14T13:39:39Z</time>
      </trkpt>
      <trkpt lat="42.91644" lon="1.64732">
        <ele>460.61</ele>
        <time>2014-09-14T13:39:40Z</time>
      </trkpt>
      <trkpt lat="42.91641" lon="1.64742">
        <ele>460.61</ele>
        <time>2014-09-14T13:39:41Z</time>
      </trkpt>
      <trkpt lat="42.91638" lon="1.64749">
        <ele>460.61</ele>
        <time>2014-09-14T13:39:42Z</time>
      </trkpt>
      <trkpt lat="42.91635" lon="1.64757">
        <ele>460.61</ele>
        <time>2014-09-14T13:39:43Z</time>
      </trkpt>
      <trkpt lat="42.9163" lon="1.64765">
        <ele>460.61</ele>
        <time>2014-09-14T13:39:44Z</time>
      </trkpt>
      <trkpt lat="42.91625" lon="1.64774">
        <ele>460.13</ele>
        <time>2014-09-14T13:39:45Z</time>
      </trkpt>
      <trkpt lat="42.91622" lon="1.64782">
        <ele>460.13</ele>
        <time>2014-09-14T13:39:46Z</time>
      </trkpt>
      <trkpt lat="42.91618" lon="1.64792">
        <ele>459.65</ele>
        <time>2014-09-14T13:39:47Z</time>
      </trkpt>
      <trkpt lat="42.91617" lon="1.64801">
        <ele>459.65</ele>
        <time>2014-09-14T13:39:48Z</time>
      </trkpt>
      <trkpt lat="42.91617" lon="1.64809">
        <ele>459.65</ele>
        <time>2014-09-14T13:39:49Z</time>
      </trkpt>
      <trkpt lat="42.91617" lon="1.64819">
        <ele>459.65</ele>
        <time>2014-09-14T13:39:50Z</time>
      </trkpt>
      <trkpt lat="42.91618" lon="1.64831">
        <ele>459.17</ele>
        <time>2014-09-14T13:39:51Z</time>
      </trkpt>
      <trkpt lat="42.91619" lon="1.64881">
        <ele>458.69</ele>
        <time>2014-09-14T13:39:56Z</time>
      </trkpt>
      <trkpt lat="42.91618" lon="1.64891">
        <ele>458.21</ele>
        <time>2014-09-14T13:39:57Z</time>
      </trkpt>
      <trkpt lat="42.91616" lon="1.64901">
        <ele>458.21</ele>
        <time>2014-09-14T13:39:58Z</time>
      </trkpt>
      <trkpt lat="42.91571" lon="1.65085">
        <ele>456.76</ele>
        <time>2014-09-14T13:40:17Z</time>
      </trkpt>
      <trkpt lat="42.91532" lon="1.6524">
        <ele>457.72</ele>
        <time>2014-09-14T13:40:34Z</time>
      </trkpt>
      <trkpt lat="42.9149" lon="1.6541">
        <ele>459.17</ele>
        <time>2014-09-14T13:40:54Z</time>
      </trkpt>
      <trkpt lat="42.9145" lon="1.65573">
        <ele>460.61</ele>
        <time>2014-09-14T13:41:14Z</time>
      </trkpt>
      <trkpt lat="42.91412" lon="1.65735">
        <ele>462.53</ele>
        <time>2014-09-14T13:41:34Z</time>
      </trkpt>
      <trkpt lat="42.91378" lon="1.65867">
        <ele>463.01</ele>
        <time>2014-09-14T13:41:51Z</time>
      </trkpt>
      <trkpt lat="42.91354" lon="1.65982">
        <ele>465.9</ele>
        <time>2014-09-14T13:42:07Z</time>
      </trkpt>
      <trkpt lat="42.91332" lon="1.66108">
        <ele>469.74</ele>
        <time>2014-09-14T13:42:25Z</time>
      </trkpt>
      <trkpt lat="42.9133" lon="1.66122">
        <ele>469.74</ele>
        <time>2014-09-14T13:42:27Z</time>
      </trkpt>
      <trkpt lat="42.9133" lon="1.66129">
        <ele>469.74</ele>
        <time>2014-09-14T13:42:28Z</time>
      </trkpt>
      <trkpt lat="42.91338" lon="1.6625">
        <ele>469.74</ele>
        <time>2014-09-14T13:42:44Z</time>
      </trkpt>
      <trkpt lat="42.91339" lon="1.66258">
        <ele>469.74</ele>
        <time>2014-09-14T13:42:45Z</time>
      </trkpt>
      <trkpt lat="42.91349" lon="1.66368">
        <ele>473.11</ele>
        <time>2014-09-14T13:43:00Z</time>
      </trkpt>
      <trkpt lat="42.91356" lon="1.66512">
        <ele>473.59</ele>
        <time>2014-09-14T13:43:18Z</time>
      </trkpt>
      <trkpt lat="42.91367" lon="1.66696">
        <ele>470.22</ele>
        <time>2014-09-14T13:43:37Z</time>
      </trkpt>
      <trkpt lat="42.91375" lon="1.66851">
        <ele>471.18</ele>
        <time>2014-09-14T13:43:54Z</time>
      </trkpt>
      <trkpt lat="42.91379" lon="1.6695">
        <ele>474.07</ele>
        <time>2014-09-14T13:44:06Z</time>
      </trkpt>
      <trkpt lat="42.91379" lon="1.66959">
        <ele>474.55</ele>
        <time>2014-09-14T13:44:07Z</time>
      </trkpt>
      <trkpt lat="42.91387" lon="1.67102">
        <ele>475.51</ele>
        <time>2014-09-14T13:44:23Z</time>
      </trkpt>
      <trkpt lat="42.91392" lon="1.67125">
        <ele>475.51</ele>
        <time>2014-09-14T13:44:26Z</time>
      </trkpt>
      <trkpt lat="42.91395" lon="1.67132">
        <ele>475.99</ele>
        <time>2014-09-14T13:44:27Z</time>
      </trkpt>
      <trkpt lat="42.91399" lon="1.67138">
        <ele>475.99</ele>
        <time>2014-09-14T13:44:28Z</time>
      </trkpt>
      <trkpt lat="42.91415" lon="1.67159">
        <ele>475.99</ele>
        <time>2014-09-14T13:44:32Z</time>
      </trkpt>
      <trkpt lat="42.91419" lon="1.67162">
        <ele>475.99</ele>
        <time>2014-09-14T13:44:33Z</time>
      </trkpt>
      <trkpt lat="42.9143" lon="1.67171">
        <ele>475.99</ele>
        <time>2014-09-14T13:44:35Z</time>
      </trkpt>
      <trkpt lat="42.91437" lon="1.67178">
        <ele>475.51</ele>
        <time>2014-09-14T13:44:37Z</time>
      </trkpt>
      <trkpt lat="42.91441" lon="1.67182">
        <ele>475.51</ele>
        <time>2014-09-14T13:44:38Z</time>
      </trkpt>
      <trkpt lat="42.91443" lon="1.67186">
        <ele>475.51</ele>
        <time>2014-09-14T13:44:39Z</time>
      </trkpt>
      <trkpt lat="42.91445" lon="1.67189">
        <ele>475.99</ele>
        <time>2014-09-14T13:44:40Z</time>
      </trkpt>
      <trkpt lat="42.91446" lon="1.67193">
        <ele>475.99</ele>
        <time>2014-09-14T13:44:41Z</time>
      </trkpt>
      <trkpt lat="42.91447" lon="1.67197">
        <ele>475.99</ele>
        <time>2014-09-14T13:44:42Z</time>
      </trkpt>
      <trkpt lat="42.91458" lon="1.67223">
        <ele>475.99</ele>
        <time>2014-09-14T13:44:49Z</time>
      </trkpt>
      <trkpt lat="42.9146" lon="1.67228">
        <ele>475.99</ele>
        <time>2014-09-14T13:44:50Z</time>
      </trkpt>
      <trkpt lat="42.91462" lon="1.67235">
        <ele>475.99</ele>
        <time>2014-09-14T13:44:51Z</time>
      </trkpt>
      <trkpt lat="42.91462" lon="1.67242">
        <ele>475.99</ele>
        <time>2014-09-14T13:44:52Z</time>
      </trkpt>
      <trkpt lat="42.91462" lon="1.67249">
        <ele>475.99</ele>
        <time>2014-09-14T13:44:53Z</time>
      </trkpt>
      <trkpt lat="42.91462" lon="1.67258">
        <ele>475.51</ele>
        <time>2014-09-14T13:44:54Z</time>
      </trkpt>
      <trkpt lat="42.91453" lon="1.67425">
        <ele>476.47</ele>
        <time>2014-09-14T13:45:14Z</time>
      </trkpt>
      <trkpt lat="42.9143" lon="1.67621">
        <ele>477.91</ele>
        <time>2014-09-14T13:45:37Z</time>
      </trkpt>
      <trkpt lat="42.91432" lon="1.67798">
        <ele>479.84</ele>
        <time>2014-09-14T13:45:58Z</time>
      </trkpt>
      <trkpt lat="42.9147" lon="1.67959">
        <ele>480.8</ele>
        <time>2014-09-14T13:46:18Z</time>
      </trkpt>
      <trkpt lat="42.91531" lon="1.68089">
        <ele>481.28</ele>
        <time>2014-09-14T13:46:36Z</time>
      </trkpt>
      <trkpt lat="42.91606" lon="1.68193">
        <ele>482.24</ele>
        <time>2014-09-14T13:46:53Z</time>
      </trkpt>
      <trkpt lat="42.91685" lon="1.68297">
        <ele>483.2</ele>
        <time>2014-09-14T13:47:11Z</time>
      </trkpt>
      <trkpt lat="42.91736" lon="1.68409">
        <ele>485.6</ele>
        <time>2014-09-14T13:47:27Z</time>
      </trkpt>
      <trkpt lat="42.91784" lon="1.68557">
        <ele>488.01</ele>
        <time>2014-09-14T13:47:47Z</time>
      </trkpt>
      <trkpt lat="42.91847" lon="1.6868">
        <ele>488.01</ele>
        <time>2014-09-14T13:48:05Z</time>
      </trkpt>
      <trkpt lat="42.91928" lon="1.68835">
        <ele>488.97</ele>
        <time>2014-09-14T13:48:27Z</time>
      </trkpt>
      <trkpt lat="42.91989" lon="1.68949">
        <ele>489.93</ele>
        <time>2014-09-14T13:48:43Z</time>
      </trkpt>
      <trkpt lat="42.92064" lon="1.69061">
        <ele>491.37</ele>
        <time>2014-09-14T13:49:01Z</time>
      </trkpt>
      <trkpt lat="42.92167" lon="1.69183">
        <ele>494.26</ele>
        <time>2014-09-14T13:49:23Z</time>
      </trkpt>
      <trkpt lat="42.92257" lon="1.69242">
        <ele>495.7</ele>
        <time>2014-09-14T13:49:39Z</time>
      </trkpt>
      <trkpt lat="42.92358" lon="1.69304">
        <ele>497.14</ele>
        <time>2014-09-14T13:49:56Z</time>
      </trkpt>
      <trkpt lat="42.92432" lon="1.69394">
        <ele>498.1</ele>
        <time>2014-09-14T13:50:12Z</time>
      </trkpt>
      <trkpt lat="42.92479" lon="1.69513">
        <ele>500.5</ele>
        <time>2014-09-14T13:50:28Z</time>
      </trkpt>
      <trkpt lat="42.92481" lon="1.69521">
        <ele>500.98</ele>
        <time>2014-09-14T13:50:29Z</time>
      </trkpt>
      <trkpt lat="42.92524" lon="1.69656">
        <ele>503.39</ele>
        <time>2014-09-14T13:50:46Z</time>
      </trkpt>
      <trkpt lat="42.92565" lon="1.69787">
        <ele>505.31</ele>
        <time>2014-09-14T13:51:02Z</time>
      </trkpt>
      <trkpt lat="42.92617" lon="1.69946">
        <ele>503.87</ele>
        <time>2014-09-14T13:51:22Z</time>
      </trkpt>
      <trkpt lat="42.92668" lon="1.70077">
        <ele>504.83</ele>
        <time>2014-09-14T13:51:39Z</time>
      </trkpt>
      <trkpt lat="42.92711" lon="1.70187">
        <ele>505.31</ele>
        <time>2014-09-14T13:51:53Z</time>
      </trkpt>
      <trkpt lat="42.92758" lon="1.70308">
        <ele>506.27</ele>
        <time>2014-09-14T13:52:09Z</time>
      </trkpt>
      <trkpt lat="42.92821" lon="1.70419">
        <ele>507.71</ele>
        <time>2014-09-14T13:52:25Z</time>
      </trkpt>
      <trkpt lat="42.92918" lon="1.7051">
        <ele>508.19</ele>
        <time>2014-09-14T13:52:43Z</time>
      </trkpt>
      <trkpt lat="42.93034" lon="1.70604">
        <ele>506.27</ele>
        <time>2014-09-14T13:53:04Z</time>
      </trkpt>
      <trkpt lat="42.93117" lon="1.70684">
        <ele>505.79</ele>
        <time>2014-09-14T13:53:19Z</time>
      </trkpt>
      <trkpt lat="42.93188" lon="1.70798">
        <ele>506.27</ele>
        <time>2014-09-14T13:53:36Z</time>
      </trkpt>
      <trkpt lat="42.93253" lon="1.70925">
        <ele>506.75</ele>
        <time>2014-09-14T13:53:53Z</time>
      </trkpt>
      <trkpt lat="42.9332" lon="1.71077">
        <ele>507.71</ele>
        <time>2014-09-14T13:54:13Z</time>
      </trkpt>
      <trkpt lat="42.93359" lon="1.71229">
        <ele>510.6</ele>
        <time>2014-09-14T13:54:32Z</time>
      </trkpt>
      <trkpt lat="42.93371" lon="1.71396">
        <ele>512.04</ele>
        <time>2014-09-14T13:54:52Z</time>
      </trkpt>
      <trkpt lat="42.93357" lon="1.71582">
        <ele>514.92</ele>
        <time>2014-09-14T13:55:14Z</time>
      </trkpt>
      <trkpt lat="42.93334" lon="1.71806">
        <ele>515.88</ele>
        <time>2014-09-14T13:55:40Z</time>
      </trkpt>
      <trkpt lat="42.93317" lon="1.71972">
        <ele>516.85</ele>
        <time>2014-09-14T13:55:59Z</time>
      </trkpt>
      <trkpt lat="42.93297" lon="1.72192">
        <ele>516.85</ele>
        <time>2014-09-14T13:56:24Z</time>
      </trkpt>
      <trkpt lat="42.93275" lon="1.72418">
        <ele>518.29</ele>
        <time>2014-09-14T13:56:50Z</time>
      </trkpt>
      <trkpt lat="42.93255" lon="1.72609">
        <ele>518.77</ele>
        <time>2014-09-14T13:57:12Z</time>
      </trkpt>
      <trkpt lat="42.93235" lon="1.72825">
        <ele>520.69</ele>
        <time>2014-09-14T13:57:37Z</time>
      </trkpt>
      <trkpt lat="42.93212" lon="1.73033">
        <ele>522.61</ele>
        <time>2014-09-14T13:58:02Z</time>
      </trkpt>
      <trkpt lat="42.93169" lon="1.73168">
        <ele>524.06</ele>
        <time>2014-09-14T13:58:20Z</time>
      </trkpt>
      <trkpt lat="42.93105" lon="1.73296">
        <ele>525.98</ele>
        <time>2014-09-14T13:58:39Z</time>
      </trkpt>
      <trkpt lat="42.93014" lon="1.73476">
        <ele>527.42</ele>
        <time>2014-09-14T13:59:06Z</time>
      </trkpt>
      <trkpt lat="42.92934" lon="1.73635">
        <ele>530.3</ele>
        <time>2014-09-14T13:59:30Z</time>
      </trkpt>
      <trkpt lat="42.92843" lon="1.73816">
        <ele>532.71</ele>
        <time>2014-09-14T13:59:57Z</time>
      </trkpt>
      <trkpt lat="42.92774" lon="1.73981">
        <ele>535.59</ele>
        <time>2014-09-14T14:00:21Z</time>
      </trkpt>
      <trkpt lat="42.92722" lon="1.74156">
        <ele>537.03</ele>
        <time>2014-09-14T14:00:45Z</time>
      </trkpt>
      <trkpt lat="42.92666" lon="1.74329">
        <ele>539.92</ele>
        <time>2014-09-14T14:01:09Z</time>
      </trkpt>
      <trkpt lat="42.92615" lon="1.74424">
        <ele>543.76</ele>
        <time>2014-09-14T14:01:26Z</time>
      </trkpt>
      <trkpt lat="42.9257" lon="1.74516">
        <ele>547.61</ele>
        <time>2014-09-14T14:01:42Z</time>
      </trkpt>
      <trkpt lat="42.92532" lon="1.74631">
        <ele>550.49</ele>
        <time>2014-09-14T14:02:01Z</time>
      </trkpt>
      <trkpt lat="42.92504" lon="1.74721">
        <ele>553.38</ele>
        <time>2014-09-14T14:02:17Z</time>
      </trkpt>
      <trkpt lat="42.92469" lon="1.74828">
        <ele>557.22</ele>
        <time>2014-09-14T14:02:35Z</time>
      </trkpt>
      <trkpt lat="42.9243" lon="1.74952">
        <ele>562.03</ele>
        <time>2014-09-14T14:02:56Z</time>
      </trkpt>
      <trkpt lat="42.92381" lon="1.75068">
        <ele>564.43</ele>
        <time>2014-09-14T14:03:16Z</time>
      </trkpt>
      <trkpt lat="42.92322" lon="1.75124">
        <ele>567.32</ele>
        <time>2014-09-14T14:03:32Z</time>
      </trkpt>
      <trkpt lat="42.92271" lon="1.75149">
        <ele>570.68</ele>
        <time>2014-09-14T14:03:47Z</time>
      </trkpt>
      <trkpt lat="42.92223" lon="1.75167">
        <ele>573.56</ele>
        <time>2014-09-14T14:04:02Z</time>
      </trkpt>
      <trkpt lat="42.92181" lon="1.75184">
        <ele>576.93</ele>
        <time>2014-09-14T14:04:17Z</time>
      </trkpt>
      <trkpt lat="42.92132" lon="1.75201">
        <ele>580.29</ele>
        <time>2014-09-14T14:04:34Z</time>
      </trkpt>
      <trkpt lat="42.92088" lon="1.7523">
        <ele>584.14</ele>
        <time>2014-09-14T14:04:51Z</time>
      </trkpt>
      <trkpt lat="42.92054" lon="1.75283">
        <ele>587.98</ele>
        <time>2014-09-14T14:05:09Z</time>
      </trkpt>
      <trkpt lat="42.92032" lon="1.7536">
        <ele>594.23</ele>
        <time>2014-09-14T14:05:30Z</time>
      </trkpt>
      <trkpt lat="42.92021" lon="1.7542">
        <ele>597.12</ele>
        <time>2014-09-14T14:05:46Z</time>
      </trkpt>
      <trkpt lat="42.92006" lon="1.75497">
        <ele>603.85</ele>
        <time>2014-09-14T14:06:07Z</time>
      </trkpt>
      <trkpt lat="42.91982" lon="1.75563">
        <ele>608.65</ele>
        <time>2014-09-14T14:06:26Z</time>
      </trkpt>
      <trkpt lat="42.91957" lon="1.75603">
        <ele>612.5</ele>
        <time>2014-09-14T14:06:41Z</time>
      </trkpt>
      <trkpt lat="42.91925" lon="1.75639">
        <ele>615.86</ele>
        <time>2014-09-14T14:06:56Z</time>
      </trkpt>
      <trkpt lat="42.91897" lon="1.75665">
        <ele>618.26</ele>
        <time>2014-09-14T14:07:10Z</time>
      </trkpt>
      <trkpt lat="42.91857" lon="1.75696">
        <ele>625.47</ele>
        <time>2014-09-14T14:07:25Z</time>
      </trkpt>
      <trkpt lat="42.9181" lon="1.75731">
        <ele>628.36</ele>
        <time>2014-09-14T14:07:46Z</time>
      </trkpt>
      <trkpt lat="42.91768" lon="1.75764">
        <ele>633.65</ele>
        <time>2014-09-14T14:08:04Z</time>
      </trkpt>
      <trkpt lat="42.91726" lon="1.75792">
        <ele>636.53</ele>
        <time>2014-09-14T14:08:20Z</time>
      </trkpt>
      <trkpt lat="42.91691" lon="1.75816">
        <ele>639.41</ele>
        <time>2014-09-14T14:08:31Z</time>
      </trkpt>
      <trkpt lat="42.91686" lon="1.75818">
        <ele>639.41</ele>
        <time>2014-09-14T14:08:32Z</time>
      </trkpt>
      <trkpt lat="42.91677" lon="1.75819">
        <ele>639.89</ele>
        <time>2014-09-14T14:08:34Z</time>
      </trkpt>
      <trkpt lat="42.91636" lon="1.7581">
        <ele>639.41</ele>
        <time>2014-09-14T14:08:41Z</time>
      </trkpt>
      <trkpt lat="42.9163" lon="1.7581">
        <ele>638.45</ele>
        <time>2014-09-14T14:08:42Z</time>
      </trkpt>
      <trkpt lat="42.91623" lon="1.75812">
        <ele>637.49</ele>
        <time>2014-09-14T14:08:43Z</time>
      </trkpt>
      <trkpt lat="42.91616" lon="1.75815">
        <ele>637.01</ele>
        <time>2014-09-14T14:08:44Z</time>
      </trkpt>
      <trkpt lat="42.9161" lon="1.7582">
        <ele>636.53</ele>
        <time>2014-09-14T14:08:45Z</time>
      </trkpt>
      <trkpt lat="42.91604" lon="1.75825">
        <ele>636.05</ele>
        <time>2014-09-14T14:08:46Z</time>
      </trkpt>
      <trkpt lat="42.91599" lon="1.7583">
        <ele>636.05</ele>
        <time>2014-09-14T14:08:47Z</time>
      </trkpt>
      <trkpt lat="42.91593" lon="1.75838">
        <ele>635.57</ele>
        <time>2014-09-14T14:08:48Z</time>
      </trkpt>
      <trkpt lat="42.91532" lon="1.7594">
        <ele>629.8</ele>
        <time>2014-09-14T14:09:00Z</time>
      </trkpt>
      <trkpt lat="42.91529" lon="1.75952">
        <ele>628.84</ele>
        <time>2014-09-14T14:09:01Z</time>
      </trkpt>
      <trkpt lat="42.91526" lon="1.75964">
        <ele>628.36</ele>
        <time>2014-09-14T14:09:02Z</time>
      </trkpt>
      <trkpt lat="42.91502" lon="1.76145">
        <ele>619.23</ele>
        <time>2014-09-14T14:09:15Z</time>
      </trkpt>
      <trkpt lat="42.91499" lon="1.7636">
        <ele>610.57</ele>
        <time>2014-09-14T14:09:28Z</time>
      </trkpt>
      <trkpt lat="42.91498" lon="1.76646">
        <ele>602.4</ele>
        <time>2014-09-14T14:09:45Z</time>
      </trkpt>
      <trkpt lat="42.91502" lon="1.76884">
        <ele>596.15</ele>
        <time>2014-09-14T14:10:00Z</time>
      </trkpt>
      <trkpt lat="42.91464" lon="1.77011">
        <ele>594.71</ele>
        <time>2014-09-14T14:10:10Z</time>
      </trkpt>
      <trkpt lat="42.91402" lon="1.77167">
        <ele>592.79</ele>
        <time>2014-09-14T14:10:26Z</time>
      </trkpt>
      <trkpt lat="42.91376" lon="1.77304">
        <ele>591.83</ele>
        <time>2014-09-14T14:10:40Z</time>
      </trkpt>
      <trkpt lat="42.91353" lon="1.77477">
        <ele>591.83</ele>
        <time>2014-09-14T14:10:57Z</time>
      </trkpt>
      <trkpt lat="42.91307" lon="1.77605">
        <ele>587.5</ele>
        <time>2014-09-14T14:11:09Z</time>
      </trkpt>
      <trkpt lat="42.91254" lon="1.77786">
        <ele>581.73</ele>
        <time>2014-09-14T14:11:23Z</time>
      </trkpt>
      <trkpt lat="42.91249" lon="1.77814">
        <ele>581.25</ele>
        <time>2014-09-14T14:11:25Z</time>
      </trkpt>
      <trkpt lat="42.91258" lon="1.7793">
        <ele>578.85</ele>
        <time>2014-09-14T14:11:34Z</time>
      </trkpt>
      <trkpt lat="42.91296" lon="1.78083">
        <ele>577.41</ele>
        <time>2014-09-14T14:11:47Z</time>
      </trkpt>
      <trkpt lat="42.91289" lon="1.78145">
        <ele>576.45</ele>
        <time>2014-09-14T14:11:52Z</time>
      </trkpt>
      <trkpt lat="42.91233" lon="1.78305">
        <ele>574.53</ele>
        <time>2014-09-14T14:12:06Z</time>
      </trkpt>
      <trkpt lat="42.91204" lon="1.78455">
        <ele>572.6</ele>
        <time>2014-09-14T14:12:19Z</time>
      </trkpt>
      <trkpt lat="42.91234" lon="1.78652">
        <ele>569.24</ele>
        <time>2014-09-14T14:12:35Z</time>
      </trkpt>
      <trkpt lat="42.91275" lon="1.78883">
        <ele>566.83</ele>
        <time>2014-09-14T14:12:54Z</time>
      </trkpt>
      <trkpt lat="42.9132" lon="1.79119">
        <ele>564.91</ele>
        <time>2014-09-14T14:13:14Z</time>
      </trkpt>
      <trkpt lat="42.91376" lon="1.79253">
        <ele>562.99</ele>
        <time>2014-09-14T14:13:27Z</time>
      </trkpt>
      <trkpt lat="42.9149" lon="1.79463">
        <ele>559.62</ele>
        <time>2014-09-14T14:13:48Z</time>
      </trkpt>
      <trkpt lat="42.91541" lon="1.79618">
        <ele>559.14</ele>
        <time>2014-09-14T14:14:02Z</time>
      </trkpt>
      <trkpt lat="42.9157" lon="1.79809">
        <ele>559.14</ele>
        <time>2014-09-14T14:14:20Z</time>
      </trkpt>
      <trkpt lat="42.91584" lon="1.79997">
        <ele>560.59</ele>
        <time>2014-09-14T14:14:39Z</time>
      </trkpt>
      <trkpt lat="42.9158" lon="1.80158">
        <ele>563.47</ele>
        <time>2014-09-14T14:14:56Z</time>
      </trkpt>
      <trkpt lat="42.91576" lon="1.80256">
        <ele>564.43</ele>
        <time>2014-09-14T14:15:07Z</time>
      </trkpt>
      <trkpt lat="42.91569" lon="1.80439">
        <ele>565.39</ele>
        <time>2014-09-14T14:15:27Z</time>
      </trkpt>
      <trkpt lat="42.91563" lon="1.80619">
        <ele>566.35</ele>
        <time>2014-09-14T14:15:46Z</time>
      </trkpt>
      <trkpt lat="42.91556" lon="1.80818">
        <ele>566.83</ele>
        <time>2014-09-14T14:16:07Z</time>
      </trkpt>
      <trkpt lat="42.91549" lon="1.81042">
        <ele>563.95</ele>
        <time>2014-09-14T14:16:29Z</time>
      </trkpt>
      <trkpt lat="42.91539" lon="1.8129">
        <ele>562.03</ele>
        <time>2014-09-14T14:16:52Z</time>
      </trkpt>
      <trkpt lat="42.91533" lon="1.81489">
        <ele>562.03</ele>
        <time>2014-09-14T14:17:12Z</time>
      </trkpt>
      <trkpt lat="42.91549" lon="1.81612">
        <ele>565.87</ele>
        <time>2014-09-14T14:17:27Z</time>
      </trkpt>
      <trkpt lat="42.91568" lon="1.81712">
        <ele>569.72</ele>
        <time>2014-09-14T14:17:41Z</time>
      </trkpt>
      <trkpt lat="42.91583" lon="1.81835">
        <ele>570.68</ele>
        <time>2014-09-14T14:17:57Z</time>
      </trkpt>
      <trkpt lat="42.91587" lon="1.81997">
        <ele>573.56</ele>
        <time>2014-09-14T14:18:18Z</time>
      </trkpt>
      <trkpt lat="42.9159" lon="1.82157">
        <ele>576.93</ele>
        <time>2014-09-14T14:18:39Z</time>
      </trkpt>
      <trkpt lat="42.91591" lon="1.82304">
        <ele>581.25</ele>
        <time>2014-09-14T14:18:59Z</time>
      </trkpt>
      <trkpt lat="42.91598" lon="1.82443">
        <ele>581.25</ele>
        <time>2014-09-14T14:19:18Z</time>
      </trkpt>
      <trkpt lat="42.91629" lon="1.82591">
        <ele>575.97</ele>
        <time>2014-09-14T14:19:33Z</time>
      </trkpt>
      <trkpt lat="42.917" lon="1.8276">
        <ele>568.76</ele>
        <time>2014-09-14T14:19:47Z</time>
      </trkpt>
      <trkpt lat="42.91776" lon="1.82874">
        <ele>568.76</ele>
        <time>2014-09-14T14:19:59Z</time>
      </trkpt>
      <trkpt lat="42.91849" lon="1.8295">
        <ele>573.08</ele>
        <time>2014-09-14T14:20:12Z</time>
      </trkpt>
      <trkpt lat="42.91936" lon="1.83047">
        <ele>575.97</ele>
        <time>2014-09-14T14:20:29Z</time>
      </trkpt>
      <trkpt lat="42.91998" lon="1.83148">
        <ele>576.45</ele>
        <time>2014-09-14T14:20:44Z</time>
      </trkpt>
      <trkpt lat="42.92095" lon="1.83278">
        <ele>573.56</ele>
        <time>2014-09-14T14:21:02Z</time>
      </trkpt>
      <trkpt lat="42.92217" lon="1.83436">
        <ele>569.72</ele>
        <time>2014-09-14T14:21:22Z</time>
      </trkpt>
      <trkpt lat="42.92335" lon="1.83585">
        <ele>562.51</ele>
        <time>2014-09-14T14:21:40Z</time>
      </trkpt>
      <trkpt lat="42.92414" lon="1.83696">
        <ele>556.26</ele>
        <time>2014-09-14T14:21:51Z</time>
      </trkpt>
      <trkpt lat="42.92419" lon="1.8371">
        <ele>555.78</ele>
        <time>2014-09-14T14:21:52Z</time>
      </trkpt>
      <trkpt lat="42.92426" lon="1.83722">
        <ele>554.82</ele>
        <time>2014-09-14T14:21:53Z</time>
      </trkpt>
      <trkpt lat="42.92434" lon="1.83729">
        <ele>554.34</ele>
        <time>2014-09-14T14:21:54Z</time>
      </trkpt>
      <trkpt lat="42.92444" lon="1.83735">
        <ele>553.86</ele>
        <time>2014-09-14T14:21:55Z</time>
      </trkpt>
      <trkpt lat="42.92455" lon="1.83744">
        <ele>553.38</ele>
        <time>2014-09-14T14:21:56Z</time>
      </trkpt>
      <trkpt lat="42.9246" lon="1.8375">
        <ele>552.9</ele>
        <time>2014-09-14T14:21:57Z</time>
      </trkpt>
      <trkpt lat="42.92561" lon="1.83873">
        <ele>549.05</ele>
        <time>2014-09-14T14:22:10Z</time>
      </trkpt>
      <trkpt lat="42.92654" lon="1.83996">
        <ele>545.69</ele>
        <time>2014-09-14T14:22:23Z</time>
      </trkpt>
      <trkpt lat="42.9278" lon="1.84157">
        <ele>538.48</ele>
        <time>2014-09-14T14:22:39Z</time>
      </trkpt>
      <trkpt lat="42.92902" lon="1.84316">
        <ele>533.67</ele>
        <time>2014-09-14T14:22:56Z</time>
      </trkpt>
      <trkpt lat="42.93009" lon="1.84456">
        <ele>528.86</ele>
        <time>2014-09-14T14:23:12Z</time>
      </trkpt>
      <trkpt lat="42.93126" lon="1.84609">
        <ele>525.5</ele>
        <time>2014-09-14T14:23:30Z</time>
      </trkpt>
      <trkpt lat="42.9322" lon="1.84728">
        <ele>524.06</ele>
        <time>2014-09-14T14:23:44Z</time>
      </trkpt>
      <trkpt lat="42.93244" lon="1.84764">
        <ele>524.06</ele>
        <time>2014-09-14T14:23:48Z</time>
      </trkpt>
      <trkpt lat="42.93248" lon="1.84774">
        <ele>524.06</ele>
        <time>2014-09-14T14:23:49Z</time>
      </trkpt>
      <trkpt lat="42.93251" lon="1.84783">
        <ele>523.58</ele>
        <time>2014-09-14T14:23:50Z</time>
      </trkpt>
      <trkpt lat="42.93254" lon="1.84793">
        <ele>523.58</ele>
        <time>2014-09-14T14:23:51Z</time>
      </trkpt>
      <trkpt lat="42.93257" lon="1.84804">
        <ele>523.58</ele>
        <time>2014-09-14T14:23:52Z</time>
      </trkpt>
      <trkpt lat="42.93259" lon="1.84822">
        <ele>523.58</ele>
        <time>2014-09-14T14:23:54Z</time>
      </trkpt>
      <trkpt lat="42.93259" lon="1.8484">
        <ele>523.09</ele>
        <time>2014-09-14T14:23:55Z</time>
      </trkpt>
      <trkpt lat="42.93257" lon="1.84851">
        <ele>523.09</ele>
        <time>2014-09-14T14:23:56Z</time>
      </trkpt>
      <trkpt lat="42.93256" lon="1.84862">
        <ele>523.09</ele>
        <time>2014-09-14T14:23:57Z</time>
      </trkpt>
      <trkpt lat="42.93256" lon="1.84873">
        <ele>523.09</ele>
        <time>2014-09-14T14:23:58Z</time>
      </trkpt>
      <trkpt lat="42.93258" lon="1.84883">
        <ele>523.09</ele>
        <time>2014-09-14T14:23:59Z</time>
      </trkpt>
      <trkpt lat="42.93261" lon="1.84893">
        <ele>523.09</ele>
        <time>2014-09-14T14:24:00Z</time>
      </trkpt>
      <trkpt lat="42.93263" lon="1.84904">
        <ele>522.61</ele>
        <time>2014-09-14T14:24:01Z</time>
      </trkpt>
      <trkpt lat="42.93263" lon="1.84913">
        <ele>522.61</ele>
        <time>2014-09-14T14:24:02Z</time>
      </trkpt>
      <trkpt lat="42.93263" lon="1.84924">
        <ele>522.61</ele>
        <time>2014-09-14T14:24:03Z</time>
      </trkpt>
      <trkpt lat="42.93261" lon="1.84933">
        <ele>522.61</ele>
        <time>2014-09-14T14:24:04Z</time>
      </trkpt>
      <trkpt lat="42.93259" lon="1.84942">
        <ele>522.61</ele>
        <time>2014-09-14T14:24:05Z</time>
      </trkpt>
      <trkpt lat="42.93256" lon="1.84951">
        <ele>522.61</ele>
        <time>2014-09-14T14:24:06Z</time>
      </trkpt>
      <trkpt lat="42.93238" lon="1.85003">
        <ele>523.09</ele>
        <time>2014-09-14T14:24:12Z</time>
      </trkpt>
      <trkpt lat="42.93173" lon="1.85149">
        <ele>525.5</ele>
        <time>2014-09-14T14:24:30Z</time>
      </trkpt>
      <trkpt lat="42.93122" lon="1.85261">
        <ele>526.94</ele>
        <time>2014-09-14T14:24:44Z</time>
      </trkpt>
      <trkpt lat="42.93071" lon="1.85377">
        <ele>527.42</ele>
        <time>2014-09-14T14:25:00Z</time>
      </trkpt>
      <trkpt lat="42.93019" lon="1.85496">
        <ele>530.79</ele>
        <time>2014-09-14T14:25:16Z</time>
      </trkpt>
      <trkpt lat="42.92966" lon="1.85644">
        <ele>530.3</ele>
        <time>2014-09-14T14:25:34Z</time>
      </trkpt>
      <trkpt lat="42.929" lon="1.85752">
        <ele>528.86</ele>
        <time>2014-09-14T14:25:50Z</time>
      </trkpt>
      <trkpt lat="42.92835" lon="1.85857">
        <ele>529.82</ele>
        <time>2014-09-14T14:26:05Z</time>
      </trkpt>
      <trkpt lat="42.92759" lon="1.85979">
        <ele>531.27</ele>
        <time>2014-09-14T14:26:23Z</time>
      </trkpt>
      <trkpt lat="42.92693" lon="1.86089">
        <ele>534.63</ele>
        <time>2014-09-14T14:26:41Z</time>
      </trkpt>
      <trkpt lat="42.92636" lon="1.86219">
        <ele>536.55</ele>
        <time>2014-09-14T14:27:00Z</time>
      </trkpt>
      <trkpt lat="42.92576" lon="1.86354">
        <ele>539.44</ele>
        <time>2014-09-14T14:27:20Z</time>
      </trkpt>
      <trkpt lat="42.92516" lon="1.86492">
        <ele>538.96</ele>
        <time>2014-09-14T14:27:39Z</time>
      </trkpt>
      <trkpt lat="42.92454" lon="1.86637">
        <ele>538.48</ele>
        <time>2014-09-14T14:27:57Z</time>
      </trkpt>
      <trkpt lat="42.92386" lon="1.86791">
        <ele>540.88</ele>
        <time>2014-09-14T14:28:17Z</time>
      </trkpt>
      <trkpt lat="42.92378" lon="1.86812">
        <ele>541.36</ele>
        <time>2014-09-14T14:28:20Z</time>
      </trkpt>
      <trkpt lat="42.92314" lon="1.86955">
        <ele>544.72</ele>
        <time>2014-09-14T14:28:40Z</time>
      </trkpt>
      <trkpt lat="42.923" lon="1.87004">
        <ele>546.17</ele>
        <time>2014-09-14T14:28:47Z</time>
      </trkpt>
      <trkpt lat="42.92292" lon="1.87137">
        <ele>543.28</ele>
        <time>2014-09-14T14:29:01Z</time>
      </trkpt>
      <trkpt lat="42.92287" lon="1.87313">
        <ele>539.92</ele>
        <time>2014-09-14T14:29:19Z</time>
      </trkpt>
      <trkpt lat="42.92285" lon="1.874">
        <ele>538.96</ele>
        <time>2014-09-14T14:29:28Z</time>
      </trkpt>
      <trkpt lat="42.92287" lon="1.8741">
        <ele>538.48</ele>
        <time>2014-09-14T14:29:29Z</time>
      </trkpt>
      <trkpt lat="42.92308" lon="1.87554">
        <ele>534.15</ele>
        <time>2014-09-14T14:29:42Z</time>
      </trkpt>
      <trkpt lat="42.92306" lon="1.87567">
        <ele>533.67</ele>
        <time>2014-09-14T14:29:43Z</time>
      </trkpt>
      <trkpt lat="42.92304" lon="1.87579">
        <ele>533.19</ele>
        <time>2014-09-14T14:29:44Z</time>
      </trkpt>
      <trkpt lat="42.92301" lon="1.87591">
        <ele>532.71</ele>
        <time>2014-09-14T14:29:45Z</time>
      </trkpt>
      <trkpt lat="42.92297" lon="1.87602">
        <ele>532.23</ele>
        <time>2014-09-14T14:29:46Z</time>
      </trkpt>
      <trkpt lat="42.92257" lon="1.87763">
        <ele>527.42</ele>
        <time>2014-09-14T14:29:59Z</time>
      </trkpt>
      <trkpt lat="42.92209" lon="1.87968">
        <ele>520.21</ele>
        <time>2014-09-14T14:30:14Z</time>
      </trkpt>
      <trkpt lat="42.92172" lon="1.88105">
        <ele>517.33</ele>
        <time>2014-09-14T14:30:24Z</time>
      </trkpt>
      <trkpt lat="42.92171" lon="1.88119">
        <ele>517.33</ele>
        <time>2014-09-14T14:30:25Z</time>
      </trkpt>
      <trkpt lat="42.92168" lon="1.88191">
        <ele>515.4</ele>
        <time>2014-09-14T14:30:30Z</time>
      </trkpt>
      <trkpt lat="42.92165" lon="1.88209">
        <ele>514.92</ele>
        <time>2014-09-14T14:30:31Z</time>
      </trkpt>
      <trkpt lat="42.92162" lon="1.8822">
        <ele>514.44</ele>
        <time>2014-09-14T14:30:32Z</time>
      </trkpt>
      <trkpt lat="42.92157" lon="1.88233">
        <ele>513.96</ele>
        <time>2014-09-14T14:30:33Z</time>
      </trkpt>
      <trkpt lat="42.92151" lon="1.88245">
        <ele>513.48</ele>
        <time>2014-09-14T14:30:34Z</time>
      </trkpt>
      <trkpt lat="42.92144" lon="1.88257">
        <ele>513</ele>
        <time>2014-09-14T14:30:35Z</time>
      </trkpt>
      <trkpt lat="42.92081" lon="1.88415">
        <ele>507.23</ele>
        <time>2014-09-14T14:30:47Z</time>
      </trkpt>
      <trkpt lat="42.92017" lon="1.88687">
        <ele>499.06</ele>
        <time>2014-09-14T14:31:05Z</time>
      </trkpt>
      <trkpt lat="42.91971" lon="1.88867">
        <ele>493.77</ele>
        <time>2014-09-14T14:31:17Z</time>
      </trkpt>
      <trkpt lat="42.91937" lon="1.89086">
        <ele>487.05</ele>
        <time>2014-09-14T14:31:31Z</time>
      </trkpt>
      <trkpt lat="42.91918" lon="1.89162">
        <ele>484.64</ele>
        <time>2014-09-14T14:31:36Z</time>
      </trkpt>
      <trkpt lat="42.91912" lon="1.89176">
        <ele>484.16</ele>
        <time>2014-09-14T14:31:37Z</time>
      </trkpt>
      <trkpt lat="42.91904" lon="1.89189">
        <ele>483.68</ele>
        <time>2014-09-14T14:31:38Z</time>
      </trkpt>
      <trkpt lat="42.91888" lon="1.89213">
        <ele>483.2</ele>
        <time>2014-09-14T14:31:40Z</time>
      </trkpt>
      <trkpt lat="42.91882" lon="1.89227">
        <ele>482.72</ele>
        <time>2014-09-14T14:31:41Z</time>
      </trkpt>
      <trkpt lat="42.91876" lon="1.8924">
        <ele>482.24</ele>
        <time>2014-09-14T14:31:42Z</time>
      </trkpt>
      <trkpt lat="42.91871" lon="1.89254">
        <ele>481.76</ele>
        <time>2014-09-14T14:31:43Z</time>
      </trkpt>
      <trkpt lat="42.91868" lon="1.89271">
        <ele>481.28</ele>
        <time>2014-09-14T14:31:44Z</time>
      </trkpt>
      <trkpt lat="42.91865" lon="1.89285">
        <ele>480.8</ele>
        <time>2014-09-14T14:31:45Z</time>
      </trkpt>
      <trkpt lat="42.91864" lon="1.89302">
        <ele>480.32</ele>
        <time>2014-09-14T14:31:46Z</time>
      </trkpt>
      <trkpt lat="42.91863" lon="1.89318">
        <ele>479.35</ele>
        <time>2014-09-14T14:31:47Z</time>
      </trkpt>
      <trkpt lat="42.9186" lon="1.89352">
        <ele>478.39</ele>
        <time>2014-09-14T14:31:49Z</time>
      </trkpt>
      <trkpt lat="42.91858" lon="1.89365">
        <ele>477.91</ele>
        <time>2014-09-14T14:31:50Z</time>
      </trkpt>
      <trkpt lat="42.91854" lon="1.8938">
        <ele>477.43</ele>
        <time>2014-09-14T14:31:51Z</time>
      </trkpt>
      <trkpt lat="42.91849" lon="1.89395">
        <ele>476.95</ele>
        <time>2014-09-14T14:31:52Z</time>
      </trkpt>
      <trkpt lat="42.91843" lon="1.89411">
        <ele>476.47</ele>
        <time>2014-09-14T14:31:53Z</time>
      </trkpt>
      <trkpt lat="42.91837" lon="1.89422">
        <ele>475.99</ele>
        <time>2014-09-14T14:31:54Z</time>
      </trkpt>
      <trkpt lat="42.91829" lon="1.89438">
        <ele>475.51</ele>
        <time>2014-09-14T14:31:55Z</time>
      </trkpt>
      <trkpt lat="42.91737" lon="1.89634">
        <ele>470.7</ele>
        <time>2014-09-14T14:32:10Z</time>
      </trkpt>
      <trkpt lat="42.91704" lon="1.89835">
        <ele>466.38</ele>
        <time>2014-09-14T14:32:23Z</time>
      </trkpt>
      <trkpt lat="42.91704" lon="1.90081">
        <ele>460.13</ele>
        <time>2014-09-14T14:32:39Z</time>
      </trkpt>
      <trkpt lat="42.91707" lon="1.90174">
        <ele>458.21</ele>
        <time>2014-09-14T14:32:46Z</time>
      </trkpt>
      <trkpt lat="42.91705" lon="1.90186">
        <ele>458.21</ele>
        <time>2014-09-14T14:32:47Z</time>
      </trkpt>
      <trkpt lat="42.91698" lon="1.90209">
        <ele>458.69</ele>
        <time>2014-09-14T14:32:49Z</time>
      </trkpt>
      <trkpt lat="42.91689" lon="1.90228">
        <ele>459.17</ele>
        <time>2014-09-14T14:32:51Z</time>
      </trkpt>
      <trkpt lat="42.91614" lon="1.90344">
        <ele>463.97</ele>
        <time>2014-09-14T14:33:06Z</time>
      </trkpt>
      <trkpt lat="42.91562" lon="1.90464">
        <ele>468.78</ele>
        <time>2014-09-14T14:33:21Z</time>
      </trkpt>
      <trkpt lat="42.91523" lon="1.90618">
        <ele>473.59</ele>
        <time>2014-09-14T14:33:39Z</time>
      </trkpt>
      <trkpt lat="42.91489" lon="1.90759">
        <ele>476.47</ele>
        <time>2014-09-14T14:33:55Z</time>
      </trkpt>
      <trkpt lat="42.91442" lon="1.9095">
        <ele>479.35</ele>
        <time>2014-09-14T14:34:17Z</time>
      </trkpt>
      <trkpt lat="42.91394" lon="1.91148">
        <ele>481.28</ele>
        <time>2014-09-14T14:34:40Z</time>
      </trkpt>
      <trkpt lat="42.91344" lon="1.91352">
        <ele>482.72</ele>
        <time>2014-09-14T14:35:04Z</time>
      </trkpt>
      <trkpt lat="42.913" lon="1.91537">
        <ele>484.16</ele>
        <time>2014-09-14T14:35:25Z</time>
      </trkpt>
      <trkpt lat="42.91258" lon="1.91709">
        <ele>486.08</ele>
        <time>2014-09-14T14:35:45Z</time>
      </trkpt>
      <trkpt lat="42.91202" lon="1.91935">
        <ele>487.53</ele>
        <time>2014-09-14T14:36:11Z</time>
      </trkpt>
      <trkpt lat="42.9116" lon="1.92109">
        <ele>489.93</ele>
        <time>2014-09-14T14:36:31Z</time>
      </trkpt>
      <trkpt lat="42.91108" lon="1.92299">
        <ele>489.93</ele>
        <time>2014-09-14T14:36:53Z</time>
      </trkpt>
      <trkpt lat="42.91043" lon="1.92409">
        <ele>487.53</ele>
        <time>2014-09-14T14:37:09Z</time>
      </trkpt>
      <trkpt lat="42.90947" lon="1.9254">
        <ele>487.05</ele>
        <time>2014-09-14T14:37:30Z</time>
      </trkpt>
      <trkpt lat="42.90863" lon="1.92656">
        <ele>487.53</ele>
        <time>2014-09-14T14:37:48Z</time>
      </trkpt>
      <trkpt lat="42.90788" lon="1.92758">
        <ele>488.01</ele>
        <time>2014-09-14T14:38:04Z</time>
      </trkpt>
      <trkpt lat="42.90703" lon="1.92875">
        <ele>488.97</ele>
        <time>2014-09-14T14:38:23Z</time>
      </trkpt>
      <trkpt lat="42.90627" lon="1.92978">
        <ele>488.97</ele>
        <time>2014-09-14T14:38:40Z</time>
      </trkpt>
      <trkpt lat="42.90543" lon="1.9309">
        <ele>490.41</ele>
        <time>2014-09-14T14:38:59Z</time>
      </trkpt>
      <trkpt lat="42.90447" lon="1.93221">
        <ele>493.29</ele>
        <time>2014-09-14T14:39:21Z</time>
      </trkpt>
      <trkpt lat="42.90428" lon="1.93248">
        <ele>493.77</ele>
        <time>2014-09-14T14:39:26Z</time>
      </trkpt>
      <trkpt lat="42.90377" lon="1.93319">
        <ele>496.18</ele>
        <time>2014-09-14T14:39:40Z</time>
      </trkpt>
      <trkpt lat="42.90339" lon="1.93376">
        <ele>497.14</ele>
        <time>2014-09-14T14:39:51Z</time>
      </trkpt>
      <trkpt lat="42.90325" lon="1.93386">
        <ele>498.1</ele>
        <time>2014-09-14T14:39:55Z</time>
      </trkpt>
      <trkpt lat="42.90322" lon="1.93385">
        <ele>498.1</ele>
        <time>2014-09-14T14:39:56Z</time>
      </trkpt>
      <trkpt lat="42.9032" lon="1.93383">
        <ele>498.58</ele>
        <time>2014-09-14T14:39:57Z</time>
      </trkpt>
      <trkpt lat="42.90318" lon="1.93381">
        <ele>499.06</ele>
        <time>2014-09-14T14:39:58Z</time>
      </trkpt>
      <trkpt lat="42.90317" lon="1.93379">
        <ele>499.54</ele>
        <time>2014-09-14T14:39:59Z</time>
      </trkpt>
      <trkpt lat="42.90316" lon="1.93377">
        <ele>500.02</ele>
        <time>2014-09-14T14:40:00Z</time>
      </trkpt>
      <trkpt lat="42.90314" lon="1.93374">
        <ele>500.98</ele>
        <time>2014-09-14T14:40:01Z</time>
      </trkpt>
      <trkpt lat="42.90313" lon="1.93369">
        <ele>502.43</ele>
        <time>2014-09-14T14:40:04Z</time>
      </trkpt>
      <trkpt lat="42.90314" lon="1.93366">
        <ele>502.91</ele>
        <time>2014-09-14T14:40:06Z</time>
      </trkpt>
      <trkpt lat="42.90315" lon="1.93365">
        <ele>502.91</ele>
        <time>2014-09-14T14:40:07Z</time>
      </trkpt>
      <trkpt lat="42.90317" lon="1.93363">
        <ele>503.87</ele>
        <time>2014-09-14T14:40:15Z</time>
      </trkpt>
      <trkpt lat="42.90317" lon="1.93363">
        <ele>503.87</ele>
        <time>2014-09-14T14:40:16Z</time>
      </trkpt>
      <trkpt lat="42.90316" lon="1.93364">
        <ele>504.35</ele>
        <time>2014-09-14T14:40:17Z</time>
      </trkpt>
      <trkpt lat="42.90315" lon="1.93364">
        <ele>504.35</ele>
        <time>2014-09-14T14:40:18Z</time>
      </trkpt>
      <trkpt lat="42.90314" lon="1.93364">
        <ele>504.83</ele>
        <time>2014-09-14T14:40:19Z</time>
      </trkpt>
      <trkpt lat="42.90312" lon="1.93364">
        <ele>504.83</ele>
        <time>2014-09-14T14:40:20Z</time>
      </trkpt>
      <trkpt lat="42.90311" lon="1.93364">
        <ele>505.31</ele>
        <time>2014-09-14T14:40:21Z</time>
      </trkpt>
      <trkpt lat="42.90309" lon="1.93364">
        <ele>505.31</ele>
        <time>2014-09-14T14:40:22Z</time>
      </trkpt>
      <trkpt lat="42.90308" lon="1.93364">
        <ele>505.79</ele>
        <time>2014-09-14T14:40:23Z</time>
      </trkpt>
      <trkpt lat="42.90307" lon="1.93365">
        <ele>505.79</ele>
        <time>2014-09-14T14:40:24Z</time>
      </trkpt>
      <trkpt lat="42.90305" lon="1.93367">
        <ele>505.79</ele>
        <time>2014-09-14T14:40:25Z</time>
      </trkpt>
      <trkpt lat="42.90304" lon="1.93368">
        <ele>506.27</ele>
        <time>2014-09-14T14:40:26Z</time>
      </trkpt>
      <trkpt lat="42.90295" lon="1.9337">
        <ele>502.43</ele>
        <time>2014-09-14T14:40:40Z</time>
      </trkpt>
      <trkpt lat="42.90294" lon="1.93369">
        <ele>501.46</ele>
        <time>2014-09-14T14:40:57Z</time>
      </trkpt>
      <trkpt lat="42.90295" lon="1.93365">
        <ele>501.46</ele>
        <time>2014-09-14T14:41:12Z</time>
      </trkpt>
      <trkpt lat="42.90299" lon="1.93365">
        <ele>501.46</ele>
        <time>2014-09-14T14:41:38Z</time>
      </trkpt>
      <trkpt lat="42.90303" lon="1.93368">
        <ele>504.83</ele>
        <time>2014-09-14T14:42:09Z</time>
      </trkpt>
      <trkpt lat="42.90305" lon="1.93364">
        <ele>506.27</ele>
        <time>2014-09-14T14:42:33Z</time>
      </trkpt>
      <trkpt lat="42.90306" lon="1.93365">
        <ele>513.48</ele>
        <time>2014-09-14T14:43:03Z</time>
      </trkpt>
      <trkpt lat="42.903" lon="1.93368">
        <ele>513.48</ele>
        <time>2014-09-14T14:43:35Z</time>
      </trkpt>
      <trkpt lat="42.90298" lon="1.93373">
        <ele>520.21</ele>
        <time>2014-09-14T14:44:06Z</time>
      </trkpt>
      <trkpt lat="42.90302" lon="1.93371">
        <ele>521.17</ele>
        <time>2014-09-14T14:44:33Z</time>
      </trkpt>
      <trkpt lat="42.90299" lon="1.93373">
        <ele>522.61</ele>
        <time>2014-09-14T14:44:58Z</time>
      </trkpt>
      <trkpt lat="42.90301" lon="1.93374">
        <ele>524.54</ele>
        <time>2014-09-14T14:45:20Z</time>
      </trkpt>
      <trkpt lat="42.90303" lon="1.93374">
        <ele>522.61</ele>
        <time>2014-09-14T14:45:50Z</time>
      </trkpt>
      <trkpt lat="42.90301" lon="1.93377">
        <ele>523.09</ele>
        <time>2014-09-14T14:46:13Z</time>
      </trkpt>
      <trkpt lat="42.90293" lon="1.93373">
        <ele>518.29</ele>
        <time>2014-09-14T14:46:30Z</time>
      </trkpt>
      <trkpt lat="42.90293" lon="1.93371">
        <ele>513</ele>
        <time>2014-09-14T14:46:51Z</time>
      </trkpt>
      <trkpt lat="42.90295" lon="1.93369">
        <ele>511.08</ele>
        <time>2014-09-14T14:47:10Z</time>
      </trkpt>
      <trkpt lat="42.90296" lon="1.93368">
        <ele>511.08</ele>
        <time>2014-09-14T14:47:12Z</time>
      </trkpt>
      <trkpt lat="42.90298" lon="1.93368">
        <ele>511.08</ele>
        <time>2014-09-14T14:47:13Z</time>
      </trkpt>
      <trkpt lat="42.90299" lon="1.93369">
        <ele>511.08</ele>
        <time>2014-09-14T14:47:14Z</time>
      </trkpt>
      <trkpt lat="42.90301" lon="1.93371">
        <ele>511.08</ele>
        <time>2014-09-14T14:47:15Z</time>
      </trkpt>
      <trkpt lat="42.90302" lon="1.93373">
        <ele>511.08</ele>
        <time>2014-09-14T14:47:16Z</time>
      </trkpt>
      <trkpt lat="42.90304" lon="1.93376">
        <ele>511.56</ele>
        <time>2014-09-14T14:47:17Z</time>
      </trkpt>
      <trkpt lat="42.90316" lon="1.93398">
        <ele>512.04</ele>
        <time>2014-09-14T14:47:25Z</time>
      </trkpt>
      <trkpt lat="42.90317" lon="1.93403">
        <ele>512.04</ele>
        <time>2014-09-14T14:47:26Z</time>
      </trkpt>
      <trkpt lat="42.90318" lon="1.93407">
        <ele>512.04</ele>
        <time>2014-09-14T14:47:27Z</time>
      </trkpt>
      <trkpt lat="42.9032" lon="1.93413">
        <ele>512.04</ele>
        <time>2014-09-14T14:47:28Z</time>
      </trkpt>
      <trkpt lat="42.90322" lon="1.93419">
        <ele>511.56</ele>
        <time>2014-09-14T14:47:29Z</time>
      </trkpt>
      <trkpt lat="42.90324" lon="1.93425">
        <ele>511.08</ele>
        <time>2014-09-14T14:47:30Z</time>
      </trkpt>
      <trkpt lat="42.90365" lon="1.93488">
        <ele>506.75</ele>
        <time>2014-09-14T14:47:41Z</time>
      </trkpt>
      <trkpt lat="42.90434" lon="1.9359">
        <ele>499.06</ele>
        <time>2014-09-14T14:47:58Z</time>
      </trkpt>
      <trkpt lat="42.90467" lon="1.93638">
        <ele>497.62</ele>
        <time>2014-09-14T14:48:06Z</time>
      </trkpt>
      <trkpt lat="42.9047" lon="1.93644">
        <ele>497.14</ele>
        <time>2014-09-14T14:48:07Z</time>
      </trkpt>
      <trkpt lat="42.90536" lon="1.9374">
        <ele>495.7</ele>
        <time>2014-09-14T14:48:23Z</time>
      </trkpt>
      <trkpt lat="42.90607" lon="1.93801">
        <ele>496.18</ele>
        <time>2014-09-14T14:48:38Z</time>
      </trkpt>
      <trkpt lat="42.90692" lon="1.93866">
        <ele>497.62</ele>
        <time>2014-09-14T14:48:56Z</time>
      </trkpt>
      <trkpt lat="42.90768" lon="1.93927">
        <ele>499.06</ele>
        <time>2014-09-14T14:49:12Z</time>
      </trkpt>
      <trkpt lat="42.90851" lon="1.93993">
        <ele>499.54</ele>
        <time>2014-09-14T14:49:29Z</time>
      </trkpt>
      <trkpt lat="42.9087" lon="1.94012">
        <ele>499.54</ele>
        <time>2014-09-14T14:49:33Z</time>
      </trkpt>
      <trkpt lat="42.90874" lon="1.94019">
        <ele>499.54</ele>
        <time>2014-09-14T14:49:34Z</time>
      </trkpt>
      <trkpt lat="42.90933" lon="1.94147">
        <ele>499.54</ele>
        <time>2014-09-14T14:49:55Z</time>
      </trkpt>
      <trkpt lat="42.90991" lon="1.9427">
        <ele>502.43</ele>
        <time>2014-09-14T14:50:17Z</time>
      </trkpt>
      <trkpt lat="42.90994" lon="1.94275">
        <ele>502.91</ele>
        <time>2014-09-14T14:50:18Z</time>
      </trkpt>
      <trkpt lat="42.9101" lon="1.94311">
        <ele>503.39</ele>
        <time>2014-09-14T14:50:25Z</time>
      </trkpt>
      <trkpt lat="42.91016" lon="1.94326">
        <ele>503.39</ele>
        <time>2014-09-14T14:50:28Z</time>
      </trkpt>
      <trkpt lat="42.91018" lon="1.94331">
        <ele>503.39</ele>
        <time>2014-09-14T14:50:29Z</time>
      </trkpt>
      <trkpt lat="42.91026" lon="1.94345">
        <ele>503.39</ele>
        <time>2014-09-14T14:50:32Z</time>
      </trkpt>
      <trkpt lat="42.91028" lon="1.9435">
        <ele>502.91</ele>
        <time>2014-09-14T14:50:33Z</time>
      </trkpt>
      <trkpt lat="42.9103" lon="1.94356">
        <ele>502.91</ele>
        <time>2014-09-14T14:50:34Z</time>
      </trkpt>
      <trkpt lat="42.91056" lon="1.94444">
        <ele>507.23</ele>
        <time>2014-09-14T14:50:50Z</time>
      </trkpt>
      <trkpt lat="42.91057" lon="1.94472">
        <ele>508.67</ele>
        <time>2014-09-14T14:50:55Z</time>
      </trkpt>
      <trkpt lat="42.91066" lon="1.94532">
        <ele>512.52</ele>
        <time>2014-09-14T14:51:07Z</time>
      </trkpt>
      <trkpt lat="42.91075" lon="1.94552">
        <ele>513</ele>
        <time>2014-09-14T14:51:11Z</time>
      </trkpt>
      <trkpt lat="42.91081" lon="1.94579">
        <ele>513.96</ele>
        <time>2014-09-14T14:51:16Z</time>
      </trkpt>
      <trkpt lat="42.91081" lon="1.94585">
        <ele>514.44</ele>
        <time>2014-09-14T14:51:17Z</time>
      </trkpt>
      <trkpt lat="42.91077" lon="1.94663">
        <ele>517.81</ele>
        <time>2014-09-14T14:51:32Z</time>
      </trkpt>
      <trkpt lat="42.91072" lon="1.94753">
        <ele>522.61</ele>
        <time>2014-09-14T14:51:48Z</time>
      </trkpt>
      <trkpt lat="42.91082" lon="1.94862">
        <ele>525.5</ele>
        <time>2014-09-14T14:52:06Z</time>
      </trkpt>
      <trkpt lat="42.91094" lon="1.94973">
        <ele>527.42</ele>
        <time>2014-09-14T14:52:24Z</time>
      </trkpt>
      <trkpt lat="42.91106" lon="1.95102">
        <ele>529.34</ele>
        <time>2014-09-14T14:52:44Z</time>
      </trkpt>
      <trkpt lat="42.91101" lon="1.95209">
        <ele>532.23</ele>
        <time>2014-09-14T14:53:00Z</time>
      </trkpt>
      <trkpt lat="42.9109" lon="1.95335">
        <ele>537.03</ele>
        <time>2014-09-14T14:53:21Z</time>
      </trkpt>
      <trkpt lat="42.91079" lon="1.95459">
        <ele>541.36</ele>
        <time>2014-09-14T14:53:42Z</time>
      </trkpt>
      <trkpt lat="42.9107" lon="1.95575">
        <ele>544.24</ele>
        <time>2014-09-14T14:54:02Z</time>
      </trkpt>
      <trkpt lat="42.91072" lon="1.95608">
        <ele>544.72</ele>
        <time>2014-09-14T14:54:08Z</time>
      </trkpt>
      <trkpt lat="42.91079" lon="1.95648">
        <ele>544.72</ele>
        <time>2014-09-14T14:54:15Z</time>
      </trkpt>
      <trkpt lat="42.91079" lon="1.95654">
        <ele>544.72</ele>
        <time>2014-09-14T14:54:16Z</time>
      </trkpt>
      <trkpt lat="42.9108" lon="1.95747">
        <ele>547.13</ele>
        <time>2014-09-14T14:54:33Z</time>
      </trkpt>
      <trkpt lat="42.91094" lon="1.95855">
        <ele>549.05</ele>
        <time>2014-09-14T14:54:52Z</time>
      </trkpt>
      <trkpt lat="42.91112" lon="1.95958">
        <ele>551.93</ele>
        <time>2014-09-14T14:55:12Z</time>
      </trkpt>
      <trkpt lat="42.91115" lon="1.96057">
        <ele>556.26</ele>
        <time>2014-09-14T14:55:31Z</time>
      </trkpt>
      <trkpt lat="42.91107" lon="1.96149">
        <ele>558.18</ele>
        <time>2014-09-14T14:55:49Z</time>
      </trkpt>
      <trkpt lat="42.911" lon="1.96214">
        <ele>560.11</ele>
        <time>2014-09-14T14:56:02Z</time>
      </trkpt>
      <trkpt lat="42.91105" lon="1.96294">
        <ele>562.03</ele>
        <time>2014-09-14T14:56:17Z</time>
      </trkpt>
      <trkpt lat="42.91114" lon="1.96401">
        <ele>566.83</ele>
        <time>2014-09-14T14:56:37Z</time>
      </trkpt>
      <trkpt lat="42.91127" lon="1.96504">
        <ele>569.72</ele>
        <time>2014-09-14T14:56:56Z</time>
      </trkpt>
      <trkpt lat="42.91138" lon="1.96608">
        <ele>573.56</ele>
        <time>2014-09-14T14:57:16Z</time>
      </trkpt>
      <trkpt lat="42.91129" lon="1.96723">
        <ele>577.89</ele>
        <time>2014-09-14T14:57:38Z</time>
      </trkpt>
      <trkpt lat="42.9112" lon="1.96826">
        <ele>580.77</ele>
        <time>2014-09-14T14:57:58Z</time>
      </trkpt>
      <trkpt lat="42.9112" lon="1.96928">
        <ele>583.66</ele>
        <time>2014-09-14T14:58:17Z</time>
      </trkpt>
      <trkpt lat="42.91112" lon="1.97035">
        <ele>586.54</ele>
        <time>2014-09-14T14:58:37Z</time>
      </trkpt>
      <trkpt lat="42.91098" lon="1.97153">
        <ele>587.5</ele>
        <time>2014-09-14T14:58:59Z</time>
      </trkpt>
      <trkpt lat="42.91066" lon="1.97293">
        <ele>591.83</ele>
        <time>2014-09-14T14:59:22Z</time>
      </trkpt>
      <trkpt lat="42.91042" lon="1.97435">
        <ele>591.35</ele>
        <time>2014-09-14T14:59:42Z</time>
      </trkpt>
      <trkpt lat="42.91045" lon="1.97577">
        <ele>593.75</ele>
        <time>2014-09-14T15:00:00Z</time>
      </trkpt>
      <trkpt lat="42.91044" lon="1.97612">
        <ele>595.67</ele>
        <time>2014-09-14T15:00:05Z</time>
      </trkpt>
      <trkpt lat="42.91044" lon="1.97618">
        <ele>596.15</ele>
        <time>2014-09-14T15:00:06Z</time>
      </trkpt>
      <trkpt lat="42.91045" lon="1.97625">
        <ele>596.15</ele>
        <time>2014-09-14T15:00:07Z</time>
      </trkpt>
      <trkpt lat="42.91047" lon="1.97633">
        <ele>596.64</ele>
        <time>2014-09-14T15:00:08Z</time>
      </trkpt>
      <trkpt lat="42.91049" lon="1.97638">
        <ele>596.64</ele>
        <time>2014-09-14T15:00:09Z</time>
      </trkpt>
      <trkpt lat="42.91051" lon="1.97644">
        <ele>597.12</ele>
        <time>2014-09-14T15:00:10Z</time>
      </trkpt>
      <trkpt lat="42.91055" lon="1.97649">
        <ele>597.12</ele>
        <time>2014-09-14T15:00:11Z</time>
      </trkpt>
      <trkpt lat="42.91059" lon="1.97654">
        <ele>597.6</ele>
        <time>2014-09-14T15:00:12Z</time>
      </trkpt>
      <trkpt lat="42.91064" lon="1.97659">
        <ele>597.6</ele>
        <time>2014-09-14T15:00:13Z</time>
      </trkpt>
      <trkpt lat="42.91068" lon="1.97661">
        <ele>597.6</ele>
        <time>2014-09-14T15:00:14Z</time>
      </trkpt>
      <trkpt lat="42.91073" lon="1.97665">
        <ele>598.08</ele>
        <time>2014-09-14T15:00:15Z</time>
      </trkpt>
      <trkpt lat="42.91081" lon="1.97672">
        <ele>598.08</ele>
        <time>2014-09-14T15:00:17Z</time>
      </trkpt>
      <trkpt lat="42.91085" lon="1.97676">
        <ele>598.56</ele>
        <time>2014-09-14T15:00:18Z</time>
      </trkpt>
      <trkpt lat="42.91088" lon="1.97681">
        <ele>598.56</ele>
        <time>2014-09-14T15:00:19Z</time>
      </trkpt>
      <trkpt lat="42.91091" lon="1.97686">
        <ele>599.04</ele>
        <time>2014-09-14T15:00:20Z</time>
      </trkpt>
      <trkpt lat="42.91094" lon="1.97691">
        <ele>599.04</ele>
        <time>2014-09-14T15:00:21Z</time>
      </trkpt>
      <trkpt lat="42.91095" lon="1.97697">
        <ele>599.52</ele>
        <time>2014-09-14T15:00:22Z</time>
      </trkpt>
      <trkpt lat="42.91097" lon="1.97703">
        <ele>599.52</ele>
        <time>2014-09-14T15:00:23Z</time>
      </trkpt>
      <trkpt lat="42.911" lon="1.97729">
        <ele>600.96</ele>
        <time>2014-09-14T15:00:27Z</time>
      </trkpt>
      <trkpt lat="42.91101" lon="1.97738">
        <ele>600.96</ele>
        <time>2014-09-14T15:00:28Z</time>
      </trkpt>
      <trkpt lat="42.91096" lon="1.9785">
        <ele>603.85</ele>
        <time>2014-09-14T15:00:45Z</time>
      </trkpt>
      <trkpt lat="42.91095" lon="1.97878">
        <ele>604.81</ele>
        <time>2014-09-14T15:00:49Z</time>
      </trkpt>
      <trkpt lat="42.91095" lon="1.97884">
        <ele>604.81</ele>
        <time>2014-09-14T15:00:50Z</time>
      </trkpt>
      <trkpt lat="42.9109" lon="1.97966">
        <ele>607.21</ele>
        <time>2014-09-14T15:01:02Z</time>
      </trkpt>
      <trkpt lat="42.91089" lon="1.97972">
        <ele>607.21</ele>
        <time>2014-09-14T15:01:03Z</time>
      </trkpt>
      <trkpt lat="42.91086" lon="1.97979">
        <ele>607.21</ele>
        <time>2014-09-14T15:01:04Z</time>
      </trkpt>
      <trkpt lat="42.91084" lon="1.97984">
        <ele>607.69</ele>
        <time>2014-09-14T15:01:05Z</time>
      </trkpt>
      <trkpt lat="42.91082" lon="1.97989">
        <ele>607.69</ele>
        <time>2014-09-14T15:01:06Z</time>
      </trkpt>
      <trkpt lat="42.91079" lon="1.97995">
        <ele>608.17</ele>
        <time>2014-09-14T15:01:07Z</time>
      </trkpt>
      <trkpt lat="42.91076" lon="1.97999">
        <ele>608.65</ele>
        <time>2014-09-14T15:01:08Z</time>
      </trkpt>
      <trkpt lat="42.91073" lon="1.98004">
        <ele>608.65</ele>
        <time>2014-09-14T15:01:09Z</time>
      </trkpt>
      <trkpt lat="42.91059" lon="1.98034">
        <ele>610.57</ele>
        <time>2014-09-14T15:01:15Z</time>
      </trkpt>
      <trkpt lat="42.91059" lon="1.9804">
        <ele>611.06</ele>
        <time>2014-09-14T15:01:16Z</time>
      </trkpt>
      <trkpt lat="42.91058" lon="1.98048">
        <ele>611.54</ele>
        <time>2014-09-14T15:01:17Z</time>
      </trkpt>
      <trkpt lat="42.91059" lon="1.98067">
        <ele>612.02</ele>
        <time>2014-09-14T15:01:20Z</time>
      </trkpt>
      <trkpt lat="42.91063" lon="1.98086">
        <ele>612.5</ele>
        <time>2014-09-14T15:01:23Z</time>
      </trkpt>
      <trkpt lat="42.91078" lon="1.98112">
        <ele>613.46</ele>
        <time>2014-09-14T15:01:28Z</time>
      </trkpt>
      <trkpt lat="42.91096" lon="1.98159">
        <ele>614.9</ele>
        <time>2014-09-14T15:01:35Z</time>
      </trkpt>
      <trkpt lat="42.91104" lon="1.98285">
        <ele>618.26</ele>
        <time>2014-09-14T15:01:52Z</time>
      </trkpt>
      <trkpt lat="42.91112" lon="1.98397">
        <ele>620.67</ele>
        <time>2014-09-14T15:02:06Z</time>
      </trkpt>
      <trkpt lat="42.91121" lon="1.98519">
        <ele>621.15</ele>
        <time>2014-09-14T15:02:21Z</time>
      </trkpt>
      <trkpt lat="42.91122" lon="1.98535">
        <ele>621.15</ele>
        <time>2014-09-14T15:02:23Z</time>
      </trkpt>
      <trkpt lat="42.91127" lon="1.98595">
        <ele>622.11</ele>
        <time>2014-09-14T15:02:31Z</time>
      </trkpt>
      <trkpt lat="42.91138" lon="1.98716">
        <ele>624.03</ele>
        <time>2014-09-14T15:02:48Z</time>
      </trkpt>
      <trkpt lat="42.91147" lon="1.98852">
        <ele>623.55</ele>
        <time>2014-09-14T15:03:05Z</time>
      </trkpt>
      <trkpt lat="42.91151" lon="1.98908">
        <ele>624.99</ele>
        <time>2014-09-14T15:03:12Z</time>
      </trkpt>
      <trkpt lat="42.91153" lon="1.98922">
        <ele>625.47</ele>
        <time>2014-09-14T15:03:14Z</time>
      </trkpt>
      <trkpt lat="42.91161" lon="1.9905">
        <ele>625.47</ele>
        <time>2014-09-14T15:03:30Z</time>
      </trkpt>
      <trkpt lat="42.91171" lon="1.99135">
        <ele>626.92</ele>
        <time>2014-09-14T15:03:41Z</time>
      </trkpt>
      <trkpt lat="42.91172" lon="1.99142">
        <ele>626.92</ele>
        <time>2014-09-14T15:03:42Z</time>
      </trkpt>
      <trkpt lat="42.91181" lon="1.99227">
        <ele>627.88</ele>
        <time>2014-09-14T15:03:53Z</time>
      </trkpt>
      <trkpt lat="42.91175" lon="1.99295">
        <ele>628.36</ele>
        <time>2014-09-14T15:04:02Z</time>
      </trkpt>
      <trkpt lat="42.91174" lon="1.99303">
        <ele>628.36</ele>
        <time>2014-09-14T15:04:03Z</time>
      </trkpt>
      <trkpt lat="42.91168" lon="1.99414">
        <ele>629.8</ele>
        <time>2014-09-14T15:04:18Z</time>
      </trkpt>
      <trkpt lat="42.91151" lon="1.99527">
        <ele>630.28</ele>
        <time>2014-09-14T15:04:33Z</time>
      </trkpt>
      <trkpt lat="42.91146" lon="1.99563">
        <ele>630.76</ele>
        <time>2014-09-14T15:04:38Z</time>
      </trkpt>
      <trkpt lat="42.91105" lon="1.99675">
        <ele>629.8</ele>
        <time>2014-09-14T15:04:55Z</time>
      </trkpt>
      <trkpt lat="42.91076" lon="1.9973">
        <ele>630.28</ele>
        <time>2014-09-14T15:05:04Z</time>
      </trkpt>
      <trkpt lat="42.91074" lon="1.99737">
        <ele>630.28</ele>
        <time>2014-09-14T15:05:05Z</time>
      </trkpt>
      <trkpt lat="42.91072" lon="1.99745">
        <ele>630.28</ele>
        <time>2014-09-14T15:05:06Z</time>
      </trkpt>
      <trkpt lat="42.91071" lon="1.99752">
        <ele>630.28</ele>
        <time>2014-09-14T15:05:07Z</time>
      </trkpt>
      <trkpt lat="42.9107" lon="1.99759">
        <ele>630.28</ele>
        <time>2014-09-14T15:05:08Z</time>
      </trkpt>
      <trkpt lat="42.91069" lon="1.99767">
        <ele>630.76</ele>
        <time>2014-09-14T15:05:09Z</time>
      </trkpt>
      <trkpt lat="42.91069" lon="1.99776">
        <ele>630.76</ele>
        <time>2014-09-14T15:05:10Z</time>
      </trkpt>
      <trkpt lat="42.91069" lon="1.99891">
        <ele>633.17</ele>
        <time>2014-09-14T15:05:25Z</time>
      </trkpt>
      <trkpt lat="42.91061" lon="2.00046">
        <ele>635.09</ele>
        <time>2014-09-14T15:05:45Z</time>
      </trkpt>
      <trkpt lat="42.91063" lon="2.00084">
        <ele>635.09</ele>
        <time>2014-09-14T15:05:50Z</time>
      </trkpt>
      <trkpt lat="42.91063" lon="2.00092">
        <ele>634.61</ele>
        <time>2014-09-14T15:05:51Z</time>
      </trkpt>
      <trkpt lat="42.91061" lon="2.00099">
        <ele>634.13</ele>
        <time>2014-09-14T15:05:52Z</time>
      </trkpt>
      <trkpt lat="42.91059" lon="2.00107">
        <ele>634.13</ele>
        <time>2014-09-14T15:05:53Z</time>
      </trkpt>
      <trkpt lat="42.91056" lon="2.00114">
        <ele>634.13</ele>
        <time>2014-09-14T15:05:54Z</time>
      </trkpt>
      <trkpt lat="42.91053" lon="2.0012">
        <ele>633.65</ele>
        <time>2014-09-14T15:05:55Z</time>
      </trkpt>
      <trkpt lat="42.91049" lon="2.00124">
        <ele>633.65</ele>
        <time>2014-09-14T15:05:56Z</time>
      </trkpt>
      <trkpt lat="42.91045" lon="2.00128">
        <ele>633.65</ele>
        <time>2014-09-14T15:05:57Z</time>
      </trkpt>
      <trkpt lat="42.91041" lon="2.00131">
        <ele>633.65</ele>
        <time>2014-09-14T15:05:58Z</time>
      </trkpt>
      <trkpt lat="42.91036" lon="2.00133">
        <ele>633.17</ele>
        <time>2014-09-14T15:05:59Z</time>
      </trkpt>
      <trkpt lat="42.91027" lon="2.00139">
        <ele>633.17</ele>
        <time>2014-09-14T15:06:01Z</time>
      </trkpt>
      <trkpt lat="42.91023" lon="2.00142">
        <ele>633.17</ele>
        <time>2014-09-14T15:06:02Z</time>
      </trkpt>
      <trkpt lat="42.91018" lon="2.00148">
        <ele>633.17</ele>
        <time>2014-09-14T15:06:03Z</time>
      </trkpt>
      <trkpt lat="42.91016" lon="2.00153">
        <ele>632.68</ele>
        <time>2014-09-14T15:06:04Z</time>
      </trkpt>
      <trkpt lat="42.91014" lon="2.0016">
        <ele>633.17</ele>
        <time>2014-09-14T15:06:05Z</time>
      </trkpt>
      <trkpt lat="42.91012" lon="2.00168">
        <ele>633.17</ele>
        <time>2014-09-14T15:06:06Z</time>
      </trkpt>
      <trkpt lat="42.91013" lon="2.00175">
        <ele>633.17</ele>
        <time>2014-09-14T15:06:07Z</time>
      </trkpt>
      <trkpt lat="42.91013" lon="2.00183">
        <ele>633.17</ele>
        <time>2014-09-14T15:06:08Z</time>
      </trkpt>
      <trkpt lat="42.91015" lon="2.0019">
        <ele>633.17</ele>
        <time>2014-09-14T15:06:09Z</time>
      </trkpt>
      <trkpt lat="42.91016" lon="2.00197">
        <ele>633.17</ele>
        <time>2014-09-14T15:06:10Z</time>
      </trkpt>
      <trkpt lat="42.91019" lon="2.00204">
        <ele>633.17</ele>
        <time>2014-09-14T15:06:11Z</time>
      </trkpt>
      <trkpt lat="42.91027" lon="2.00232">
        <ele>633.65</ele>
        <time>2014-09-14T15:06:15Z</time>
      </trkpt>
      <trkpt lat="42.91028" lon="2.00241">
        <ele>634.13</ele>
        <time>2014-09-14T15:06:16Z</time>
      </trkpt>
      <trkpt lat="42.91028" lon="2.00248">
        <ele>634.13</ele>
        <time>2014-09-14T15:06:17Z</time>
      </trkpt>
      <trkpt lat="42.91027" lon="2.00255">
        <ele>634.61</ele>
        <time>2014-09-14T15:06:18Z</time>
      </trkpt>
      <trkpt lat="42.91026" lon="2.00262">
        <ele>634.61</ele>
        <time>2014-09-14T15:06:19Z</time>
      </trkpt>
      <trkpt lat="42.91025" lon="2.0027">
        <ele>634.61</ele>
        <time>2014-09-14T15:06:20Z</time>
      </trkpt>
      <trkpt lat="42.91023" lon="2.00276">
        <ele>635.09</ele>
        <time>2014-09-14T15:06:21Z</time>
      </trkpt>
      <trkpt lat="42.91007" lon="2.00356">
        <ele>636.53</ele>
        <time>2014-09-14T15:06:32Z</time>
      </trkpt>
      <trkpt lat="42.91007" lon="2.00363">
        <ele>636.53</ele>
        <time>2014-09-14T15:06:33Z</time>
      </trkpt>
      <trkpt lat="42.90998" lon="2.00467">
        <ele>637.49</ele>
        <time>2014-09-14T15:06:47Z</time>
      </trkpt>
      <trkpt lat="42.9099" lon="2.00518">
        <ele>637.97</ele>
        <time>2014-09-14T15:06:54Z</time>
      </trkpt>
      <trkpt lat="42.90985" lon="2.00636">
        <ele>638.93</ele>
        <time>2014-09-14T15:07:10Z</time>
      </trkpt>
      <trkpt lat="42.90962" lon="2.00741">
        <ele>638.93</ele>
        <time>2014-09-14T15:07:25Z</time>
      </trkpt>
      <trkpt lat="42.9096" lon="2.00747">
        <ele>638.93</ele>
        <time>2014-09-14T15:07:26Z</time>
      </trkpt>
      <trkpt lat="42.90942" lon="2.00778">
        <ele>638.93</ele>
        <time>2014-09-14T15:07:32Z</time>
      </trkpt>
      <trkpt lat="42.90925" lon="2.00831">
        <ele>639.41</ele>
        <time>2014-09-14T15:07:44Z</time>
      </trkpt>
      <trkpt lat="42.90921" lon="2.00887">
        <ele>640.86</ele>
        <time>2014-09-14T15:07:55Z</time>
      </trkpt>
      <trkpt lat="42.90922" lon="2.00894">
        <ele>640.86</ele>
        <time>2014-09-14T15:07:56Z</time>
      </trkpt>
      <trkpt lat="42.90924" lon="2.00898">
        <ele>640.86</ele>
        <time>2014-09-14T15:07:57Z</time>
      </trkpt>
      <trkpt lat="42.90926" lon="2.00903">
        <ele>640.86</ele>
        <time>2014-09-14T15:07:58Z</time>
      </trkpt>
      <trkpt lat="42.90928" lon="2.00908">
        <ele>641.34</ele>
        <time>2014-09-14T15:07:59Z</time>
      </trkpt>
      <trkpt lat="42.9093" lon="2.00913">
        <ele>641.34</ele>
        <time>2014-09-14T15:08:00Z</time>
      </trkpt>
      <trkpt lat="42.90967" lon="2.00981">
        <ele>642.3</ele>
        <time>2014-09-14T15:08:14Z</time>
      </trkpt>
      <trkpt lat="42.90984" lon="2.01015">
        <ele>642.3</ele>
        <time>2014-09-14T15:08:21Z</time>
      </trkpt>
      <trkpt lat="42.9099" lon="2.01033">
        <ele>642.3</ele>
        <time>2014-09-14T15:08:24Z</time>
      </trkpt>
      <trkpt lat="42.90991" lon="2.0104">
        <ele>642.3</ele>
        <time>2014-09-14T15:08:25Z</time>
      </trkpt>
      <trkpt lat="42.90991" lon="2.01047">
        <ele>642.3</ele>
        <time>2014-09-14T15:08:26Z</time>
      </trkpt>
      <trkpt lat="42.90991" lon="2.01052">
        <ele>642.3</ele>
        <time>2014-09-14T15:08:27Z</time>
      </trkpt>
      <trkpt lat="42.90991" lon="2.01059">
        <ele>642.3</ele>
        <time>2014-09-14T15:08:28Z</time>
      </trkpt>
      <trkpt lat="42.90992" lon="2.01084">
        <ele>642.78</ele>
        <time>2014-09-14T15:08:32Z</time>
      </trkpt>
      <trkpt lat="42.90993" lon="2.0109">
        <ele>642.78</ele>
        <time>2014-09-14T15:08:33Z</time>
      </trkpt>
      <trkpt lat="42.90995" lon="2.01103">
        <ele>643.26</ele>
        <time>2014-09-14T15:08:35Z</time>
      </trkpt>
      <trkpt lat="42.90997" lon="2.01109">
        <ele>643.26</ele>
        <time>2014-09-14T15:08:36Z</time>
      </trkpt>
      <trkpt lat="42.91003" lon="2.0114">
        <ele>644.7</ele>
        <time>2014-09-14T15:08:41Z</time>
      </trkpt>
      <trkpt lat="42.91005" lon="2.0116">
        <ele>645.18</ele>
        <time>2014-09-14T15:08:44Z</time>
      </trkpt>
      <trkpt lat="42.91005" lon="2.01166">
        <ele>645.18</ele>
        <time>2014-09-14T15:08:45Z</time>
      </trkpt>
      <trkpt lat="42.90994" lon="2.01263">
        <ele>645.66</ele>
        <time>2014-09-14T15:09:00Z</time>
      </trkpt>
      <trkpt lat="42.90986" lon="2.01359">
        <ele>646.14</ele>
        <time>2014-09-14T15:09:15Z</time>
      </trkpt>
      <trkpt lat="42.9098" lon="2.01409">
        <ele>647.1</ele>
        <time>2014-09-14T15:09:23Z</time>
      </trkpt>
      <trkpt lat="42.9097" lon="2.01504">
        <ele>649.03</ele>
        <time>2014-09-14T15:09:38Z</time>
      </trkpt>
      <trkpt lat="42.90968" lon="2.01556">
        <ele>650.47</ele>
        <time>2014-09-14T15:09:46Z</time>
      </trkpt>
      <trkpt lat="42.90966" lon="2.01676">
        <ele>652.39</ele>
        <time>2014-09-14T15:10:04Z</time>
      </trkpt>
      <trkpt lat="42.90971" lon="2.01717">
        <ele>652.39</ele>
        <time>2014-09-14T15:10:10Z</time>
      </trkpt>
      <trkpt lat="42.90971" lon="2.01722">
        <ele>652.39</ele>
        <time>2014-09-14T15:10:11Z</time>
      </trkpt>
      <trkpt lat="42.9097" lon="2.01729">
        <ele>652.39</ele>
        <time>2014-09-14T15:10:12Z</time>
      </trkpt>
      <trkpt lat="42.90968" lon="2.01735">
        <ele>652.39</ele>
        <time>2014-09-14T15:10:13Z</time>
      </trkpt>
      <trkpt lat="42.90967" lon="2.01741">
        <ele>652.39</ele>
        <time>2014-09-14T15:10:14Z</time>
      </trkpt>
      <trkpt lat="42.90964" lon="2.01746">
        <ele>652.39</ele>
        <time>2014-09-14T15:10:15Z</time>
      </trkpt>
      <trkpt lat="42.90961" lon="2.01751">
        <ele>651.91</ele>
        <time>2014-09-14T15:10:16Z</time>
      </trkpt>
      <trkpt lat="42.90958" lon="2.01756">
        <ele>651.91</ele>
        <time>2014-09-14T15:10:17Z</time>
      </trkpt>
      <trkpt lat="42.90938" lon="2.01783">
        <ele>652.87</ele>
        <time>2014-09-14T15:10:23Z</time>
      </trkpt>
      <trkpt lat="42.90935" lon="2.01788">
        <ele>652.87</ele>
        <time>2014-09-14T15:10:24Z</time>
      </trkpt>
      <trkpt lat="42.90922" lon="2.01833">
        <ele>653.35</ele>
        <time>2014-09-14T15:10:31Z</time>
      </trkpt>
      <trkpt lat="42.90922" lon="2.01839">
        <ele>653.83</ele>
        <time>2014-09-14T15:10:32Z</time>
      </trkpt>
      <trkpt lat="42.90923" lon="2.01846">
        <ele>653.83</ele>
        <time>2014-09-14T15:10:33Z</time>
      </trkpt>
      <trkpt lat="42.90932" lon="2.01898">
        <ele>655.28</ele>
        <time>2014-09-14T15:10:42Z</time>
      </trkpt>
      <trkpt lat="42.90932" lon="2.01905">
        <ele>655.28</ele>
        <time>2014-09-14T15:10:43Z</time>
      </trkpt>
      <trkpt lat="42.90931" lon="2.01912">
        <ele>655.76</ele>
        <time>2014-09-14T15:10:44Z</time>
      </trkpt>
      <trkpt lat="42.9093" lon="2.01917">
        <ele>655.76</ele>
        <time>2014-09-14T15:10:45Z</time>
      </trkpt>
      <trkpt lat="42.90929" lon="2.01924">
        <ele>655.76</ele>
        <time>2014-09-14T15:10:46Z</time>
      </trkpt>
      <trkpt lat="42.90927" lon="2.01931">
        <ele>655.76</ele>
        <time>2014-09-14T15:10:47Z</time>
      </trkpt>
      <trkpt lat="42.90913" lon="2.01966">
        <ele>655.28</ele>
        <time>2014-09-14T15:10:53Z</time>
      </trkpt>
      <trkpt lat="42.90912" lon="2.01974">
        <ele>655.28</ele>
        <time>2014-09-14T15:10:54Z</time>
      </trkpt>
      <trkpt lat="42.90911" lon="2.01985">
        <ele>654.8</ele>
        <time>2014-09-14T15:10:55Z</time>
      </trkpt>
      <trkpt lat="42.90911" lon="2.0199">
        <ele>654.8</ele>
        <time>2014-09-14T15:10:56Z</time>
      </trkpt>
      <trkpt lat="42.90913" lon="2.01998">
        <ele>654.31</ele>
        <time>2014-09-14T15:10:57Z</time>
      </trkpt>
      <trkpt lat="42.90915" lon="2.02007">
        <ele>653.83</ele>
        <time>2014-09-14T15:10:58Z</time>
      </trkpt>
      <trkpt lat="42.90918" lon="2.02015">
        <ele>653.35</ele>
        <time>2014-09-14T15:10:59Z</time>
      </trkpt>
      <trkpt lat="42.90922" lon="2.02023">
        <ele>653.35</ele>
        <time>2014-09-14T15:11:00Z</time>
      </trkpt>
      <trkpt lat="42.90926" lon="2.02031">
        <ele>652.87</ele>
        <time>2014-09-14T15:11:01Z</time>
      </trkpt>
      <trkpt lat="42.90996" lon="2.02128">
        <ele>648.55</ele>
        <time>2014-09-14T15:11:12Z</time>
      </trkpt>
      <trkpt lat="42.91064" lon="2.02227">
        <ele>643.26</ele>
        <time>2014-09-14T15:11:22Z</time>
      </trkpt>
      <trkpt lat="42.91083" lon="2.02262">
        <ele>641.82</ele>
        <time>2014-09-14T15:11:25Z</time>
      </trkpt>
      <trkpt lat="42.91145" lon="2.02444">
        <ele>632.68</ele>
        <time>2014-09-14T15:11:38Z</time>
      </trkpt>
      <trkpt lat="42.91151" lon="2.02458">
        <ele>631.72</ele>
        <time>2014-09-14T15:11:39Z</time>
      </trkpt>
      <trkpt lat="42.91161" lon="2.02467">
        <ele>631.24</ele>
        <time>2014-09-14T15:11:40Z</time>
      </trkpt>
      <trkpt lat="42.91173" lon="2.02471">
        <ele>630.76</ele>
        <time>2014-09-14T15:11:41Z</time>
      </trkpt>
      <trkpt lat="42.91183" lon="2.0247">
        <ele>629.8</ele>
        <time>2014-09-14T15:11:42Z</time>
      </trkpt>
      <trkpt lat="42.91196" lon="2.02471">
        <ele>628.84</ele>
        <time>2014-09-14T15:11:43Z</time>
      </trkpt>
      <trkpt lat="42.91207" lon="2.02476">
        <ele>628.36</ele>
        <time>2014-09-14T15:11:44Z</time>
      </trkpt>
      <trkpt lat="42.91218" lon="2.02489">
        <ele>627.4</ele>
        <time>2014-09-14T15:11:45Z</time>
      </trkpt>
      <trkpt lat="42.91223" lon="2.02499">
        <ele>626.92</ele>
        <time>2014-09-14T15:11:46Z</time>
      </trkpt>
      <trkpt lat="42.91229" lon="2.02513">
        <ele>625.96</ele>
        <time>2014-09-14T15:11:47Z</time>
      </trkpt>
      <trkpt lat="42.91297" lon="2.02622">
        <ele>620.19</ele>
        <time>2014-09-14T15:11:56Z</time>
      </trkpt>
      <trkpt lat="42.91327" lon="2.02689">
        <ele>616.34</ele>
        <time>2014-09-14T15:12:01Z</time>
      </trkpt>
      <trkpt lat="42.9133" lon="2.02704">
        <ele>615.86</ele>
        <time>2014-09-14T15:12:02Z</time>
      </trkpt>
      <trkpt lat="42.91329" lon="2.02722">
        <ele>614.9</ele>
        <time>2014-09-14T15:12:03Z</time>
      </trkpt>
      <trkpt lat="42.91324" lon="2.02739">
        <ele>614.42</ele>
        <time>2014-09-14T15:12:04Z</time>
      </trkpt>
      <trkpt lat="42.9132" lon="2.02754">
        <ele>613.94</ele>
        <time>2014-09-14T15:12:05Z</time>
      </trkpt>
      <trkpt lat="42.91319" lon="2.02768">
        <ele>613.46</ele>
        <time>2014-09-14T15:12:06Z</time>
      </trkpt>
      <trkpt lat="42.91321" lon="2.02782">
        <ele>612.98</ele>
        <time>2014-09-14T15:12:07Z</time>
      </trkpt>
      <trkpt lat="42.91325" lon="2.02796">
        <ele>612.02</ele>
        <time>2014-09-14T15:12:08Z</time>
      </trkpt>
      <trkpt lat="42.91332" lon="2.02809">
        <ele>611.54</ele>
        <time>2014-09-14T15:12:09Z</time>
      </trkpt>
      <trkpt lat="42.91339" lon="2.02823">
        <ele>611.06</ele>
        <time>2014-09-14T15:12:10Z</time>
      </trkpt>
      <trkpt lat="42.91351" lon="2.02849">
        <ele>610.09</ele>
        <time>2014-09-14T15:12:12Z</time>
      </trkpt>
      <trkpt lat="42.91356" lon="2.02865">
        <ele>609.13</ele>
        <time>2014-09-14T15:12:13Z</time>
      </trkpt>
      <trkpt lat="42.91359" lon="2.02881">
        <ele>608.65</ele>
        <time>2014-09-14T15:12:14Z</time>
      </trkpt>
      <trkpt lat="42.91366" lon="2.02912">
        <ele>607.69</ele>
        <time>2014-09-14T15:12:16Z</time>
      </trkpt>
      <trkpt lat="42.91371" lon="2.02926">
        <ele>606.73</ele>
        <time>2014-09-14T15:12:17Z</time>
      </trkpt>
      <trkpt lat="42.91378" lon="2.02939">
        <ele>606.25</ele>
        <time>2014-09-14T15:12:18Z</time>
      </trkpt>
      <trkpt lat="42.91387" lon="2.0295">
        <ele>605.77</ele>
        <time>2014-09-14T15:12:19Z</time>
      </trkpt>
      <trkpt lat="42.91396" lon="2.02959">
        <ele>605.29</ele>
        <time>2014-09-14T15:12:20Z</time>
      </trkpt>
      <trkpt lat="42.91406" lon="2.0297">
        <ele>604.33</ele>
        <time>2014-09-14T15:12:21Z</time>
      </trkpt>
      <trkpt lat="42.91423" lon="2.0299">
        <ele>603.36</ele>
        <time>2014-09-14T15:12:23Z</time>
      </trkpt>
      <trkpt lat="42.9143" lon="2.03005">
        <ele>602.4</ele>
        <time>2014-09-14T15:12:24Z</time>
      </trkpt>
      <trkpt lat="42.91435" lon="2.03019">
        <ele>601.92</ele>
        <time>2014-09-14T15:12:25Z</time>
      </trkpt>
      <trkpt lat="42.91437" lon="2.03035">
        <ele>600.96</ele>
        <time>2014-09-14T15:12:26Z</time>
      </trkpt>
      <trkpt lat="42.91437" lon="2.0305">
        <ele>600.48</ele>
        <time>2014-09-14T15:12:27Z</time>
      </trkpt>
      <trkpt lat="42.91436" lon="2.03067">
        <ele>600</ele>
        <time>2014-09-14T15:12:28Z</time>
      </trkpt>
      <trkpt lat="42.91434" lon="2.03082">
        <ele>599.04</ele>
        <time>2014-09-14T15:12:29Z</time>
      </trkpt>
      <trkpt lat="42.91433" lon="2.03098">
        <ele>598.56</ele>
        <time>2014-09-14T15:12:30Z</time>
      </trkpt>
      <trkpt lat="42.91434" lon="2.03114">
        <ele>597.6</ele>
        <time>2014-09-14T15:12:31Z</time>
      </trkpt>
      <trkpt lat="42.91437" lon="2.03129">
        <ele>597.12</ele>
        <time>2014-09-14T15:12:32Z</time>
      </trkpt>
      <trkpt lat="42.91442" lon="2.03145">
        <ele>596.15</ele>
        <time>2014-09-14T15:12:33Z</time>
      </trkpt>
      <trkpt lat="42.91446" lon="2.03159">
        <ele>595.67</ele>
        <time>2014-09-14T15:12:34Z</time>
      </trkpt>
      <trkpt lat="42.91472" lon="2.03229">
        <ele>591.83</ele>
        <time>2014-09-14T15:12:39Z</time>
      </trkpt>
      <trkpt lat="42.91479" lon="2.03241">
        <ele>591.35</ele>
        <time>2014-09-14T15:12:40Z</time>
      </trkpt>
      <trkpt lat="42.91486" lon="2.03252">
        <ele>590.87</ele>
        <time>2014-09-14T15:12:41Z</time>
      </trkpt>
      <trkpt lat="42.91518" lon="2.03296">
        <ele>588.46</ele>
        <time>2014-09-14T15:12:45Z</time>
      </trkpt>
      <trkpt lat="42.91525" lon="2.03312">
        <ele>587.5</ele>
        <time>2014-09-14T15:12:46Z</time>
      </trkpt>
      <trkpt lat="42.91529" lon="2.03323">
        <ele>587.02</ele>
        <time>2014-09-14T15:12:47Z</time>
      </trkpt>
      <trkpt lat="42.91542" lon="2.03353">
        <ele>585.58</ele>
        <time>2014-09-14T15:12:49Z</time>
      </trkpt>
      <trkpt lat="42.91548" lon="2.03362">
        <ele>585.58</ele>
        <time>2014-09-14T15:12:50Z</time>
      </trkpt>
      <trkpt lat="42.91558" lon="2.03374">
        <ele>584.62</ele>
        <time>2014-09-14T15:12:51Z</time>
      </trkpt>
      <trkpt lat="42.91566" lon="2.03381">
        <ele>584.14</ele>
        <time>2014-09-14T15:12:52Z</time>
      </trkpt>
      <trkpt lat="42.91576" lon="2.03388">
        <ele>583.66</ele>
        <time>2014-09-14T15:12:53Z</time>
      </trkpt>
      <trkpt lat="42.91596" lon="2.03405">
        <ele>582.7</ele>
        <time>2014-09-14T15:12:55Z</time>
      </trkpt>
      <trkpt lat="42.91604" lon="2.03415">
        <ele>581.73</ele>
        <time>2014-09-14T15:12:56Z</time>
      </trkpt>
      <trkpt lat="42.91677" lon="2.03521">
        <ele>575.97</ele>
        <time>2014-09-14T15:13:05Z</time>
      </trkpt>
      <trkpt lat="42.91685" lon="2.03537">
        <ele>575.01</ele>
        <time>2014-09-14T15:13:06Z</time>
      </trkpt>
      <trkpt lat="42.91689" lon="2.0355">
        <ele>574.53</ele>
        <time>2014-09-14T15:13:07Z</time>
      </trkpt>
      <trkpt lat="42.91747" lon="2.03728">
        <ele>567.32</ele>
        <time>2014-09-14T15:13:18Z</time>
      </trkpt>
      <trkpt lat="42.91795" lon="2.03819">
        <ele>562.99</ele>
        <time>2014-09-14T15:13:24Z</time>
      </trkpt>
      <trkpt lat="42.91815" lon="2.03846">
        <ele>561.55</ele>
        <time>2014-09-14T15:13:26Z</time>
      </trkpt>
      <trkpt lat="42.91822" lon="2.03863">
        <ele>560.59</ele>
        <time>2014-09-14T15:13:27Z</time>
      </trkpt>
      <trkpt lat="42.91825" lon="2.03876">
        <ele>560.11</ele>
        <time>2014-09-14T15:13:28Z</time>
      </trkpt>
      <trkpt lat="42.91827" lon="2.03894">
        <ele>559.14</ele>
        <time>2014-09-14T15:13:29Z</time>
      </trkpt>
      <trkpt lat="42.91826" lon="2.03913">
        <ele>558.66</ele>
        <time>2014-09-14T15:13:30Z</time>
      </trkpt>
      <trkpt lat="42.91825" lon="2.0393">
        <ele>557.7</ele>
        <time>2014-09-14T15:13:31Z</time>
      </trkpt>
      <trkpt lat="42.91805" lon="2.04146">
        <ele>549.05</ele>
        <time>2014-09-14T15:13:43Z</time>
      </trkpt>
      <trkpt lat="42.91808" lon="2.04162">
        <ele>548.09</ele>
        <time>2014-09-14T15:13:44Z</time>
      </trkpt>
      <trkpt lat="42.91814" lon="2.04177">
        <ele>547.61</ele>
        <time>2014-09-14T15:13:45Z</time>
      </trkpt>
      <trkpt lat="42.91822" lon="2.04189">
        <ele>546.65</ele>
        <time>2014-09-14T15:13:46Z</time>
      </trkpt>
      <trkpt lat="42.91833" lon="2.04198">
        <ele>546.17</ele>
        <time>2014-09-14T15:13:47Z</time>
      </trkpt>
      <trkpt lat="42.91846" lon="2.04202">
        <ele>545.2</ele>
        <time>2014-09-14T15:13:48Z</time>
      </trkpt>
      <trkpt lat="42.91856" lon="2.04202">
        <ele>544.72</ele>
        <time>2014-09-14T15:13:49Z</time>
      </trkpt>
      <trkpt lat="42.91868" lon="2.042">
        <ele>544.24</ele>
        <time>2014-09-14T15:13:50Z</time>
      </trkpt>
      <trkpt lat="42.9188" lon="2.04194">
        <ele>543.76</ele>
        <time>2014-09-14T15:13:51Z</time>
      </trkpt>
      <trkpt lat="42.91892" lon="2.04186">
        <ele>542.8</ele>
        <time>2014-09-14T15:13:52Z</time>
      </trkpt>
      <trkpt lat="42.91902" lon="2.04179">
        <ele>542.32</ele>
        <time>2014-09-14T15:13:53Z</time>
      </trkpt>
      <trkpt lat="42.91913" lon="2.04172">
        <ele>541.84</ele>
        <time>2014-09-14T15:13:54Z</time>
      </trkpt>
      <trkpt lat="42.91925" lon="2.04167">
        <ele>541.36</ele>
        <time>2014-09-14T15:13:55Z</time>
      </trkpt>
      <trkpt lat="42.91936" lon="2.04165">
        <ele>540.88</ele>
        <time>2014-09-14T15:13:56Z</time>
      </trkpt>
      <trkpt lat="42.9195" lon="2.04166">
        <ele>540.4</ele>
        <time>2014-09-14T15:13:57Z</time>
      </trkpt>
      <trkpt lat="42.9196" lon="2.04167">
        <ele>540.4</ele>
        <time>2014-09-14T15:13:58Z</time>
      </trkpt>
      <trkpt lat="42.92068" lon="2.04161">
        <ele>536.07</ele>
        <time>2014-09-14T15:14:07Z</time>
      </trkpt>
      <trkpt lat="42.92185" lon="2.04206">
        <ele>529.82</ele>
        <time>2014-09-14T15:14:17Z</time>
      </trkpt>
      <trkpt lat="42.92231" lon="2.04229">
        <ele>527.42</ele>
        <time>2014-09-14T15:14:21Z</time>
      </trkpt>
      <trkpt lat="42.92244" lon="2.04231">
        <ele>526.94</ele>
        <time>2014-09-14T15:14:22Z</time>
      </trkpt>
      <trkpt lat="42.92297" lon="2.04236">
        <ele>523.58</ele>
        <time>2014-09-14T15:14:26Z</time>
      </trkpt>
      <trkpt lat="42.92307" lon="2.04242">
        <ele>522.61</ele>
        <time>2014-09-14T15:14:27Z</time>
      </trkpt>
      <trkpt lat="42.92316" lon="2.0425">
        <ele>522.13</ele>
        <time>2014-09-14T15:14:28Z</time>
      </trkpt>
      <trkpt lat="42.92325" lon="2.04262">
        <ele>521.65</ele>
        <time>2014-09-14T15:14:29Z</time>
      </trkpt>
      <trkpt lat="42.92332" lon="2.04275">
        <ele>520.69</ele>
        <time>2014-09-14T15:14:30Z</time>
      </trkpt>
      <trkpt lat="42.92338" lon="2.04291">
        <ele>519.73</ele>
        <time>2014-09-14T15:14:31Z</time>
      </trkpt>
      <trkpt lat="42.92341" lon="2.04308">
        <ele>519.25</ele>
        <time>2014-09-14T15:14:32Z</time>
      </trkpt>
      <trkpt lat="42.92342" lon="2.04326">
        <ele>518.29</ele>
        <time>2014-09-14T15:14:33Z</time>
      </trkpt>
      <trkpt lat="42.92343" lon="2.04342">
        <ele>517.33</ele>
        <time>2014-09-14T15:14:34Z</time>
      </trkpt>
      <trkpt lat="42.92343" lon="2.0436">
        <ele>516.85</ele>
        <time>2014-09-14T15:14:35Z</time>
      </trkpt>
      <trkpt lat="42.92339" lon="2.04406">
        <ele>514.44</ele>
        <time>2014-09-14T15:14:38Z</time>
      </trkpt>
      <trkpt lat="42.92336" lon="2.04421">
        <ele>513.96</ele>
        <time>2014-09-14T15:14:39Z</time>
      </trkpt>
      <trkpt lat="42.92331" lon="2.04436">
        <ele>513</ele>
        <time>2014-09-14T15:14:40Z</time>
      </trkpt>
      <trkpt lat="42.92325" lon="2.04451">
        <ele>512.52</ele>
        <time>2014-09-14T15:14:41Z</time>
      </trkpt>
      <trkpt lat="42.92319" lon="2.04465">
        <ele>511.56</ele>
        <time>2014-09-14T15:14:42Z</time>
      </trkpt>
      <trkpt lat="42.92243" lon="2.04567">
        <ele>505.31</ele>
        <time>2014-09-14T15:14:51Z</time>
      </trkpt>
      <trkpt lat="42.92221" lon="2.04581">
        <ele>503.87</ele>
        <time>2014-09-14T15:14:53Z</time>
      </trkpt>
      <trkpt lat="42.9221" lon="2.04586">
        <ele>502.91</ele>
        <time>2014-09-14T15:14:54Z</time>
      </trkpt>
      <trkpt lat="42.92197" lon="2.04587">
        <ele>502.43</ele>
        <time>2014-09-14T15:14:55Z</time>
      </trkpt>
      <trkpt lat="42.92187" lon="2.04585">
        <ele>501.95</ele>
        <time>2014-09-14T15:14:56Z</time>
      </trkpt>
      <trkpt lat="42.92174" lon="2.04578">
        <ele>500.98</ele>
        <time>2014-09-14T15:14:57Z</time>
      </trkpt>
      <trkpt lat="42.92165" lon="2.04567">
        <ele>500.98</ele>
        <time>2014-09-14T15:14:58Z</time>
      </trkpt>
      <trkpt lat="42.9216" lon="2.04555">
        <ele>500.5</ele>
        <time>2014-09-14T15:14:59Z</time>
      </trkpt>
      <trkpt lat="42.92156" lon="2.0454">
        <ele>500.5</ele>
        <time>2014-09-14T15:15:00Z</time>
      </trkpt>
      <trkpt lat="42.92153" lon="2.04526">
        <ele>500.02</ele>
        <time>2014-09-14T15:15:01Z</time>
      </trkpt>
      <trkpt lat="42.92138" lon="2.0446">
        <ele>498.1</ele>
        <time>2014-09-14T15:15:06Z</time>
      </trkpt>
      <trkpt lat="42.9213" lon="2.04445">
        <ele>497.14</ele>
        <time>2014-09-14T15:15:07Z</time>
      </trkpt>
      <trkpt lat="42.92122" lon="2.04434">
        <ele>496.66</ele>
        <time>2014-09-14T15:15:08Z</time>
      </trkpt>
      <trkpt lat="42.92113" lon="2.04427">
        <ele>496.18</ele>
        <time>2014-09-14T15:15:09Z</time>
      </trkpt>
      <trkpt lat="42.92102" lon="2.04423">
        <ele>495.22</ele>
        <time>2014-09-14T15:15:10Z</time>
      </trkpt>
      <trkpt lat="42.92091" lon="2.04422">
        <ele>494.74</ele>
        <time>2014-09-14T15:15:11Z</time>
      </trkpt>
      <trkpt lat="42.92081" lon="2.04424">
        <ele>494.26</ele>
        <time>2014-09-14T15:15:12Z</time>
      </trkpt>
      <trkpt lat="42.92072" lon="2.04431">
        <ele>493.29</ele>
        <time>2014-09-14T15:15:13Z</time>
      </trkpt>
      <trkpt lat="42.92063" lon="2.04441">
        <ele>492.81</ele>
        <time>2014-09-14T15:15:14Z</time>
      </trkpt>
      <trkpt lat="42.92057" lon="2.04453">
        <ele>491.85</ele>
        <time>2014-09-14T15:15:15Z</time>
      </trkpt>
      <trkpt lat="42.92052" lon="2.0447">
        <ele>490.89</ele>
        <time>2014-09-14T15:15:16Z</time>
      </trkpt>
      <trkpt lat="42.92051" lon="2.04483">
        <ele>490.41</ele>
        <time>2014-09-14T15:15:17Z</time>
      </trkpt>
      <trkpt lat="42.92053" lon="2.04504">
        <ele>489.45</ele>
        <time>2014-09-14T15:15:18Z</time>
      </trkpt>
      <trkpt lat="42.92055" lon="2.04516">
        <ele>488.97</ele>
        <time>2014-09-14T15:15:19Z</time>
      </trkpt>
      <trkpt lat="42.92058" lon="2.04526">
        <ele>488.49</ele>
        <time>2014-09-14T15:15:20Z</time>
      </trkpt>
      <trkpt lat="42.92062" lon="2.04543">
        <ele>487.53</ele>
        <time>2014-09-14T15:15:21Z</time>
      </trkpt>
      <trkpt lat="42.92083" lon="2.04645">
        <ele>482.72</ele>
        <time>2014-09-14T15:15:28Z</time>
      </trkpt>
      <trkpt lat="42.92082" lon="2.04663">
        <ele>482.24</ele>
        <time>2014-09-14T15:15:29Z</time>
      </trkpt>
      <trkpt lat="42.92079" lon="2.04677">
        <ele>481.76</ele>
        <time>2014-09-14T15:15:30Z</time>
      </trkpt>
      <trkpt lat="42.92041" lon="2.04812">
        <ele>480.32</ele>
        <time>2014-09-14T15:15:42Z</time>
      </trkpt>
      <trkpt lat="42.92029" lon="2.04837">
        <ele>480.32</ele>
        <time>2014-09-14T15:15:49Z</time>
      </trkpt>
      <trkpt lat="42.92029" lon="2.04839">
        <ele>480.8</ele>
        <time>2014-09-14T15:15:56Z</time>
      </trkpt>
      <trkpt lat="42.9203" lon="2.04841">
        <ele>480.8</ele>
        <time>2014-09-14T15:15:57Z</time>
      </trkpt>
      <trkpt lat="42.9203" lon="2.04842">
        <ele>480.8</ele>
        <time>2014-09-14T15:15:58Z</time>
      </trkpt>
      <trkpt lat="42.92034" lon="2.04843">
        <ele>481.76</ele>
        <time>2014-09-14T15:16:04Z</time>
      </trkpt>
      <trkpt lat="42.92035" lon="2.04842">
        <ele>482.24</ele>
        <time>2014-09-14T15:16:06Z</time>
      </trkpt>
      <trkpt lat="42.92036" lon="2.04843">
        <ele>483.68</ele>
        <time>2014-09-14T15:16:20Z</time>
      </trkpt>
      <trkpt lat="42.92034" lon="2.04842">
        <ele>482.24</ele>
        <time>2014-09-14T15:16:50Z</time>
      </trkpt>
      <trkpt lat="42.92037" lon="2.04844">
        <ele>482.24</ele>
        <time>2014-09-14T15:17:15Z</time>
      </trkpt>
      <trkpt lat="42.92038" lon="2.04843">
        <ele>482.72</ele>
        <time>2014-09-14T15:17:41Z</time>
      </trkpt>
      <trkpt lat="42.92039" lon="2.04843">
        <ele>481.76</ele>
        <time>2014-09-14T15:18:10Z</time>
      </trkpt>
      <trkpt lat="42.92038" lon="2.04844">
        <ele>482.24</ele>
        <time>2014-09-14T15:18:37Z</time>
      </trkpt>
      <trkpt lat="42.92037" lon="2.04844">
        <ele>485.12</ele>
        <time>2014-09-14T15:19:07Z</time>
      </trkpt>
      <trkpt lat="42.92035" lon="2.04841">
        <ele>489.45</ele>
        <time>2014-09-14T15:19:48Z</time>
      </trkpt>
      <trkpt lat="42.92038" lon="2.04843">
        <ele>488.01</ele>
        <time>2014-09-14T15:20:19Z</time>
      </trkpt>
      <trkpt lat="42.92038" lon="2.04842">
        <ele>486.08</ele>
        <time>2014-09-14T15:20:51Z</time>
      </trkpt>
      <trkpt lat="42.92038" lon="2.04842">
        <ele>486.08</ele>
        <time>2014-09-14T15:21:23Z</time>
      </trkpt>
      <trkpt lat="42.9204" lon="2.04844">
        <ele>485.12</ele>
        <time>2014-09-14T15:21:57Z</time>
      </trkpt>
      <trkpt lat="42.92038" lon="2.04843">
        <ele>485.6</ele>
        <time>2014-09-14T15:22:26Z</time>
      </trkpt>
      <trkpt lat="42.92038" lon="2.04838">
        <ele>487.05</ele>
        <time>2014-09-14T15:22:41Z</time>
      </trkpt>
      <trkpt lat="42.92039" lon="2.04836">
        <ele>487.05</ele>
        <time>2014-09-14T15:22:43Z</time>
      </trkpt>
      <trkpt lat="42.92039" lon="2.04834">
        <ele>487.53</ele>
        <time>2014-09-14T15:22:44Z</time>
      </trkpt>
      <trkpt lat="42.9204" lon="2.04832">
        <ele>487.53</ele>
        <time>2014-09-14T15:22:45Z</time>
      </trkpt>
      <trkpt lat="42.9204" lon="2.0483">
        <ele>487.53</ele>
        <time>2014-09-14T15:22:46Z</time>
      </trkpt>
      <trkpt lat="42.92063" lon="2.04798">
        <ele>489.93</ele>
        <time>2014-09-14T15:23:00Z</time>
      </trkpt>
      <trkpt lat="42.9209" lon="2.04776">
        <ele>491.37</ele>
        <time>2014-09-14T15:23:13Z</time>
      </trkpt>
      <trkpt lat="42.92121" lon="2.04763">
        <ele>492.33</ele>
        <time>2014-09-14T15:23:26Z</time>
      </trkpt>
      <trkpt lat="42.92157" lon="2.04794">
        <ele>492.33</ele>
        <time>2014-09-14T15:23:40Z</time>
      </trkpt>
      <trkpt lat="42.92186" lon="2.04835">
        <ele>494.26</ele>
        <time>2014-09-14T15:23:55Z</time>
      </trkpt>
      <trkpt lat="42.922" lon="2.04894">
        <ele>496.18</ele>
        <time>2014-09-14T15:24:12Z</time>
      </trkpt>
      <trkpt lat="42.92232" lon="2.04924">
        <ele>499.06</ele>
        <time>2014-09-14T15:24:26Z</time>
      </trkpt>
      <trkpt lat="42.92262" lon="2.04956">
        <ele>500.5</ele>
        <time>2014-09-14T15:24:40Z</time>
      </trkpt>
      <trkpt lat="42.92297" lon="2.04953">
        <ele>503.87</ele>
        <time>2014-09-14T15:24:54Z</time>
      </trkpt>
      <trkpt lat="42.92336" lon="2.04935">
        <ele>506.27</ele>
        <time>2014-09-14T15:25:09Z</time>
      </trkpt>
      <trkpt lat="42.92381" lon="2.04948">
        <ele>509.64</ele>
        <time>2014-09-14T15:25:26Z</time>
      </trkpt>
      <trkpt lat="42.92419" lon="2.04947">
        <ele>512.04</ele>
        <time>2014-09-14T15:25:40Z</time>
      </trkpt>
      <trkpt lat="42.92414" lon="2.04989">
        <ele>514.92</ele>
        <time>2014-09-14T15:25:51Z</time>
      </trkpt>
      <trkpt lat="42.92404" lon="2.05044">
        <ele>516.37</ele>
        <time>2014-09-14T15:26:06Z</time>
      </trkpt>
      <trkpt lat="42.92405" lon="2.05132">
        <ele>519.73</ele>
        <time>2014-09-14T15:26:28Z</time>
      </trkpt>
      <trkpt lat="42.92421" lon="2.0517">
        <ele>522.61</ele>
        <time>2014-09-14T15:26:42Z</time>
      </trkpt>
      <trkpt lat="42.92451" lon="2.0514">
        <ele>525.02</ele>
        <time>2014-09-14T15:26:55Z</time>
      </trkpt>
      <trkpt lat="42.92489" lon="2.05098">
        <ele>527.9</ele>
        <time>2014-09-14T15:27:12Z</time>
      </trkpt>
      <trkpt lat="42.92542" lon="2.05062">
        <ele>530.3</ele>
        <time>2014-09-14T15:27:32Z</time>
      </trkpt>
      <trkpt lat="42.92599" lon="2.05057">
        <ele>532.23</ele>
        <time>2014-09-14T15:27:51Z</time>
      </trkpt>
      <trkpt lat="42.9265" lon="2.05089">
        <ele>532.71</ele>
        <time>2014-09-14T15:28:07Z</time>
      </trkpt>
      <trkpt lat="42.92698" lon="2.05143">
        <ele>533.67</ele>
        <time>2014-09-14T15:28:24Z</time>
      </trkpt>
      <trkpt lat="42.92702" lon="2.05185">
        <ele>533.67</ele>
        <time>2014-09-14T15:28:32Z</time>
      </trkpt>
      <trkpt lat="42.92704" lon="2.05195">
        <ele>533.67</ele>
        <time>2014-09-14T15:28:34Z</time>
      </trkpt>
      <trkpt lat="42.92706" lon="2.052">
        <ele>533.67</ele>
        <time>2014-09-14T15:28:35Z</time>
      </trkpt>
      <trkpt lat="42.92708" lon="2.05204">
        <ele>533.67</ele>
        <time>2014-09-14T15:28:36Z</time>
      </trkpt>
      <trkpt lat="42.92711" lon="2.05209">
        <ele>533.67</ele>
        <time>2014-09-14T15:28:37Z</time>
      </trkpt>
      <trkpt lat="42.92713" lon="2.05213">
        <ele>533.67</ele>
        <time>2014-09-14T15:28:38Z</time>
      </trkpt>
      <trkpt lat="42.92716" lon="2.05217">
        <ele>533.67</ele>
        <time>2014-09-14T15:28:39Z</time>
      </trkpt>
      <trkpt lat="42.92719" lon="2.0522">
        <ele>533.67</ele>
        <time>2014-09-14T15:28:40Z</time>
      </trkpt>
      <trkpt lat="42.92759" lon="2.05274">
        <ele>534.15</ele>
        <time>2014-09-14T15:28:54Z</time>
      </trkpt>
      <trkpt lat="42.92763" lon="2.05283">
        <ele>534.15</ele>
        <time>2014-09-14T15:28:56Z</time>
      </trkpt>
      <trkpt lat="42.9279" lon="2.05368">
        <ele>534.15</ele>
        <time>2014-09-14T15:29:12Z</time>
      </trkpt>
      <trkpt lat="42.92793" lon="2.05374">
        <ele>534.15</ele>
        <time>2014-09-14T15:29:13Z</time>
      </trkpt>
      <trkpt lat="42.92796" lon="2.05378">
        <ele>534.15</ele>
        <time>2014-09-14T15:29:14Z</time>
      </trkpt>
      <trkpt lat="42.928" lon="2.05382">
        <ele>534.15</ele>
        <time>2014-09-14T15:29:15Z</time>
      </trkpt>
      <trkpt lat="42.92804" lon="2.05385">
        <ele>534.15</ele>
        <time>2014-09-14T15:29:16Z</time>
      </trkpt>
      <trkpt lat="42.92809" lon="2.05387">
        <ele>534.15</ele>
        <time>2014-09-14T15:29:17Z</time>
      </trkpt>
      <trkpt lat="42.92812" lon="2.05388">
        <ele>534.15</ele>
        <time>2014-09-14T15:29:18Z</time>
      </trkpt>
      <trkpt lat="42.92817" lon="2.05389">
        <ele>534.15</ele>
        <time>2014-09-14T15:29:19Z</time>
      </trkpt>
      <trkpt lat="42.92821" lon="2.0539">
        <ele>534.15</ele>
        <time>2014-09-14T15:29:20Z</time>
      </trkpt>
      <trkpt lat="42.9285" lon="2.05397">
        <ele>534.63</ele>
        <time>2014-09-14T15:29:27Z</time>
      </trkpt>
      <trkpt lat="42.92854" lon="2.05399">
        <ele>535.11</ele>
        <time>2014-09-14T15:29:28Z</time>
      </trkpt>
      <trkpt lat="42.92871" lon="2.05411">
        <ele>535.11</ele>
        <time>2014-09-14T15:29:32Z</time>
      </trkpt>
      <trkpt lat="42.92876" lon="2.05413">
        <ele>535.11</ele>
        <time>2014-09-14T15:29:33Z</time>
      </trkpt>
      <trkpt lat="42.9288" lon="2.05415">
        <ele>535.59</ele>
        <time>2014-09-14T15:29:34Z</time>
      </trkpt>
      <trkpt lat="42.92885" lon="2.05416">
        <ele>535.59</ele>
        <time>2014-09-14T15:29:35Z</time>
      </trkpt>
      <trkpt lat="42.92889" lon="2.05416">
        <ele>535.59</ele>
        <time>2014-09-14T15:29:36Z</time>
      </trkpt>
      <trkpt lat="42.92894" lon="2.05415">
        <ele>535.59</ele>
        <time>2014-09-14T15:29:37Z</time>
      </trkpt>
      <trkpt lat="42.92898" lon="2.05413">
        <ele>535.59</ele>
        <time>2014-09-14T15:29:38Z</time>
      </trkpt>
      <trkpt lat="42.92902" lon="2.0541">
        <ele>535.59</ele>
        <time>2014-09-14T15:29:39Z</time>
      </trkpt>
      <trkpt lat="42.92907" lon="2.05407">
        <ele>535.59</ele>
        <time>2014-09-14T15:29:40Z</time>
      </trkpt>
      <trkpt lat="42.92984" lon="2.05323">
        <ele>537.99</ele>
        <time>2014-09-14T15:30:01Z</time>
      </trkpt>
      <trkpt lat="42.93012" lon="2.05288">
        <ele>538.96</ele>
        <time>2014-09-14T15:30:09Z</time>
      </trkpt>
      <trkpt lat="42.93016" lon="2.05285">
        <ele>538.96</ele>
        <time>2014-09-14T15:30:10Z</time>
      </trkpt>
      <trkpt lat="42.93021" lon="2.05282">
        <ele>538.96</ele>
        <time>2014-09-14T15:30:11Z</time>
      </trkpt>
      <trkpt lat="42.93025" lon="2.0528">
        <ele>538.96</ele>
        <time>2014-09-14T15:30:12Z</time>
      </trkpt>
      <trkpt lat="42.9303" lon="2.05279">
        <ele>538.96</ele>
        <time>2014-09-14T15:30:13Z</time>
      </trkpt>
      <trkpt lat="42.93034" lon="2.05279">
        <ele>538.96</ele>
        <time>2014-09-14T15:30:14Z</time>
      </trkpt>
      <trkpt lat="42.93039" lon="2.05278">
        <ele>538.96</ele>
        <time>2014-09-14T15:30:15Z</time>
      </trkpt>
      <trkpt lat="42.93102" lon="2.05264">
        <ele>539.44</ele>
        <time>2014-09-14T15:30:29Z</time>
      </trkpt>
      <trkpt lat="42.93107" lon="2.05264">
        <ele>539.44</ele>
        <time>2014-09-14T15:30:30Z</time>
      </trkpt>
      <trkpt lat="42.93112" lon="2.05266">
        <ele>539.44</ele>
        <time>2014-09-14T15:30:31Z</time>
      </trkpt>
      <trkpt lat="42.93117" lon="2.05269">
        <ele>539.44</ele>
        <time>2014-09-14T15:30:32Z</time>
      </trkpt>
      <trkpt lat="42.93121" lon="2.05274">
        <ele>539.44</ele>
        <time>2014-09-14T15:30:33Z</time>
      </trkpt>
      <trkpt lat="42.93124" lon="2.05279">
        <ele>539.44</ele>
        <time>2014-09-14T15:30:34Z</time>
      </trkpt>
      <trkpt lat="42.93126" lon="2.05285">
        <ele>539.44</ele>
        <time>2014-09-14T15:30:35Z</time>
      </trkpt>
      <trkpt lat="42.93128" lon="2.05291">
        <ele>539.92</ele>
        <time>2014-09-14T15:30:36Z</time>
      </trkpt>
      <trkpt lat="42.93129" lon="2.05297">
        <ele>539.92</ele>
        <time>2014-09-14T15:30:37Z</time>
      </trkpt>
      <trkpt lat="42.93151" lon="2.05386">
        <ele>541.36</ele>
        <time>2014-09-14T15:30:52Z</time>
      </trkpt>
      <trkpt lat="42.93166" lon="2.0548">
        <ele>540.88</ele>
        <time>2014-09-14T15:31:07Z</time>
      </trkpt>
      <trkpt lat="42.93168" lon="2.05588">
        <ele>537.99</ele>
        <time>2014-09-14T15:31:24Z</time>
      </trkpt>
      <trkpt lat="42.93165" lon="2.05726">
        <ele>539.44</ele>
        <time>2014-09-14T15:31:45Z</time>
      </trkpt>
      <trkpt lat="42.93159" lon="2.05837">
        <ele>540.4</ele>
        <time>2014-09-14T15:32:02Z</time>
      </trkpt>
      <trkpt lat="42.9315" lon="2.05956">
        <ele>542.32</ele>
        <time>2014-09-14T15:32:20Z</time>
      </trkpt>
      <trkpt lat="42.93145" lon="2.06014">
        <ele>542.32</ele>
        <time>2014-09-14T15:32:29Z</time>
      </trkpt>
      <trkpt lat="42.93145" lon="2.0602">
        <ele>542.32</ele>
        <time>2014-09-14T15:32:30Z</time>
      </trkpt>
      <trkpt lat="42.93133" lon="2.06118">
        <ele>543.76</ele>
        <time>2014-09-14T15:32:45Z</time>
      </trkpt>
      <trkpt lat="42.93127" lon="2.06221">
        <ele>543.76</ele>
        <time>2014-09-14T15:33:01Z</time>
      </trkpt>
      <trkpt lat="42.93127" lon="2.06339">
        <ele>543.76</ele>
        <time>2014-09-14T15:33:19Z</time>
      </trkpt>
      <trkpt lat="42.93124" lon="2.06448">
        <ele>543.28</ele>
        <time>2014-09-14T15:33:36Z</time>
      </trkpt>
      <trkpt lat="42.93121" lon="2.06543">
        <ele>544.24</ele>
        <time>2014-09-14T15:33:51Z</time>
      </trkpt>
      <trkpt lat="42.93118" lon="2.06606">
        <ele>546.17</ele>
        <time>2014-09-14T15:34:01Z</time>
      </trkpt>
      <trkpt lat="42.93118" lon="2.06625">
        <ele>547.61</ele>
        <time>2014-09-14T15:34:04Z</time>
      </trkpt>
      <trkpt lat="42.93113" lon="2.06688">
        <ele>549.53</ele>
        <time>2014-09-14T15:34:14Z</time>
      </trkpt>
      <trkpt lat="42.9311" lon="2.06796">
        <ele>550.49</ele>
        <time>2014-09-14T15:34:31Z</time>
      </trkpt>
      <trkpt lat="42.93109" lon="2.06827">
        <ele>550.97</ele>
        <time>2014-09-14T15:34:36Z</time>
      </trkpt>
      <trkpt lat="42.93108" lon="2.06834">
        <ele>550.97</ele>
        <time>2014-09-14T15:34:37Z</time>
      </trkpt>
      <trkpt lat="42.93102" lon="2.06908">
        <ele>554.34</ele>
        <time>2014-09-14T15:34:49Z</time>
      </trkpt>
      <trkpt lat="42.93094" lon="2.0701">
        <ele>555.3</ele>
        <time>2014-09-14T15:35:05Z</time>
      </trkpt>
      <trkpt lat="42.9309" lon="2.0707">
        <ele>553.86</ele>
        <time>2014-09-14T15:35:14Z</time>
      </trkpt>
      <trkpt lat="42.93091" lon="2.07076">
        <ele>553.86</ele>
        <time>2014-09-14T15:35:15Z</time>
      </trkpt>
      <trkpt lat="42.93092" lon="2.07083">
        <ele>553.86</ele>
        <time>2014-09-14T15:35:16Z</time>
      </trkpt>
      <trkpt lat="42.93112" lon="2.07177">
        <ele>552.9</ele>
        <time>2014-09-14T15:35:31Z</time>
      </trkpt>
      <trkpt lat="42.93115" lon="2.07183">
        <ele>552.9</ele>
        <time>2014-09-14T15:35:32Z</time>
      </trkpt>
      <trkpt lat="42.93119" lon="2.07188">
        <ele>552.41</ele>
        <time>2014-09-14T15:35:33Z</time>
      </trkpt>
      <trkpt lat="42.93122" lon="2.07192">
        <ele>552.9</ele>
        <time>2014-09-14T15:35:34Z</time>
      </trkpt>
      <trkpt lat="42.93126" lon="2.07196">
        <ele>552.9</ele>
        <time>2014-09-14T15:35:35Z</time>
      </trkpt>
      <trkpt lat="42.9313" lon="2.07199">
        <ele>553.38</ele>
        <time>2014-09-14T15:35:36Z</time>
      </trkpt>
      <trkpt lat="42.93135" lon="2.07202">
        <ele>552.9</ele>
        <time>2014-09-14T15:35:37Z</time>
      </trkpt>
      <trkpt lat="42.93139" lon="2.07205">
        <ele>552.9</ele>
        <time>2014-09-14T15:35:38Z</time>
      </trkpt>
      <trkpt lat="42.93144" lon="2.07207">
        <ele>552.9</ele>
        <time>2014-09-14T15:35:39Z</time>
      </trkpt>
      <trkpt lat="42.93148" lon="2.07209">
        <ele>552.9</ele>
        <time>2014-09-14T15:35:40Z</time>
      </trkpt>
      <trkpt lat="42.9318" lon="2.07227">
        <ele>553.38</ele>
        <time>2014-09-14T15:35:47Z</time>
      </trkpt>
      <trkpt lat="42.93184" lon="2.0723">
        <ele>553.38</ele>
        <time>2014-09-14T15:35:48Z</time>
      </trkpt>
      <trkpt lat="42.93187" lon="2.07235">
        <ele>553.38</ele>
        <time>2014-09-14T15:35:49Z</time>
      </trkpt>
      <trkpt lat="42.9319" lon="2.0724">
        <ele>553.38</ele>
        <time>2014-09-14T15:35:50Z</time>
      </trkpt>
      <trkpt lat="42.93193" lon="2.07247">
        <ele>553.38</ele>
        <time>2014-09-14T15:35:51Z</time>
      </trkpt>
      <trkpt lat="42.93194" lon="2.07253">
        <ele>553.38</ele>
        <time>2014-09-14T15:35:52Z</time>
      </trkpt>
      <trkpt lat="42.93195" lon="2.0726">
        <ele>553.86</ele>
        <time>2014-09-14T15:35:53Z</time>
      </trkpt>
      <trkpt lat="42.93195" lon="2.07266">
        <ele>553.38</ele>
        <time>2014-09-14T15:35:54Z</time>
      </trkpt>
      <trkpt lat="42.93194" lon="2.07273">
        <ele>553.38</ele>
        <time>2014-09-14T15:35:55Z</time>
      </trkpt>
      <trkpt lat="42.93193" lon="2.07279">
        <ele>553.38</ele>
        <time>2014-09-14T15:35:56Z</time>
      </trkpt>
      <trkpt lat="42.93192" lon="2.07285">
        <ele>553.38</ele>
        <time>2014-09-14T15:35:57Z</time>
      </trkpt>
      <trkpt lat="42.9319" lon="2.07291">
        <ele>553.86</ele>
        <time>2014-09-14T15:35:58Z</time>
      </trkpt>
      <trkpt lat="42.93188" lon="2.07297">
        <ele>553.86</ele>
        <time>2014-09-14T15:35:59Z</time>
      </trkpt>
      <trkpt lat="42.93173" lon="2.07342">
        <ele>555.3</ele>
        <time>2014-09-14T15:36:07Z</time>
      </trkpt>
      <trkpt lat="42.93171" lon="2.07348">
        <ele>555.3</ele>
        <time>2014-09-14T15:36:08Z</time>
      </trkpt>
      <trkpt lat="42.93168" lon="2.07377">
        <ele>555.78</ele>
        <time>2014-09-14T15:36:13Z</time>
      </trkpt>
      <trkpt lat="42.93169" lon="2.07383">
        <ele>555.78</ele>
        <time>2014-09-14T15:36:14Z</time>
      </trkpt>
      <trkpt lat="42.93172" lon="2.07401">
        <ele>555.78</ele>
        <time>2014-09-14T15:36:17Z</time>
      </trkpt>
      <trkpt lat="42.93194" lon="2.07471">
        <ele>556.26</ele>
        <time>2014-09-14T15:36:29Z</time>
      </trkpt>
      <trkpt lat="42.93199" lon="2.07481">
        <ele>555.78</ele>
        <time>2014-09-14T15:36:31Z</time>
      </trkpt>
      <trkpt lat="42.93202" lon="2.07486">
        <ele>556.26</ele>
        <time>2014-09-14T15:36:32Z</time>
      </trkpt>
      <trkpt lat="42.93205" lon="2.07491">
        <ele>556.26</ele>
        <time>2014-09-14T15:36:33Z</time>
      </trkpt>
      <trkpt lat="42.93209" lon="2.07494">
        <ele>556.26</ele>
        <time>2014-09-14T15:36:34Z</time>
      </trkpt>
      <trkpt lat="42.93212" lon="2.07498">
        <ele>556.26</ele>
        <time>2014-09-14T15:36:35Z</time>
      </trkpt>
      <trkpt lat="42.93221" lon="2.07503">
        <ele>556.26</ele>
        <time>2014-09-14T15:36:37Z</time>
      </trkpt>
      <trkpt lat="42.93225" lon="2.07505">
        <ele>556.26</ele>
        <time>2014-09-14T15:36:38Z</time>
      </trkpt>
      <trkpt lat="42.93278" lon="2.07531">
        <ele>558.66</ele>
        <time>2014-09-14T15:36:53Z</time>
      </trkpt>
      <trkpt lat="42.9332" lon="2.07573">
        <ele>561.55</ele>
        <time>2014-09-14T15:37:08Z</time>
      </trkpt>
      <trkpt lat="42.93346" lon="2.07639">
        <ele>564.43</ele>
        <time>2014-09-14T15:37:25Z</time>
      </trkpt>
      <trkpt lat="42.93357" lon="2.077">
        <ele>565.87</ele>
        <time>2014-09-14T15:37:40Z</time>
      </trkpt>
      <trkpt lat="42.93386" lon="2.07771">
        <ele>567.32</ele>
        <time>2014-09-14T15:37:59Z</time>
      </trkpt>
      <trkpt lat="42.93417" lon="2.07802">
        <ele>569.72</ele>
        <time>2014-09-14T15:38:12Z</time>
      </trkpt>
      <trkpt lat="42.93421" lon="2.07775">
        <ele>572.12</ele>
        <time>2014-09-14T15:38:20Z</time>
      </trkpt>
      <trkpt lat="42.93392" lon="2.0773">
        <ele>575.49</ele>
        <time>2014-09-14T15:38:34Z</time>
      </trkpt>
      <trkpt lat="42.9339" lon="2.07667">
        <ele>579.33</ele>
        <time>2014-09-14T15:38:49Z</time>
      </trkpt>
      <trkpt lat="42.93423" lon="2.07606">
        <ele>583.18</ele>
        <time>2014-09-14T15:39:07Z</time>
      </trkpt>
      <trkpt lat="42.9347" lon="2.0753">
        <ele>588.95</ele>
        <time>2014-09-14T15:39:31Z</time>
      </trkpt>
      <trkpt lat="42.93493" lon="2.07457">
        <ele>596.15</ele>
        <time>2014-09-14T15:39:50Z</time>
      </trkpt>
      <trkpt lat="42.93507" lon="2.07383">
        <ele>598.08</ele>
        <time>2014-09-14T15:40:08Z</time>
      </trkpt>
      <trkpt lat="42.93533" lon="2.07317">
        <ele>599.52</ele>
        <time>2014-09-14T15:40:26Z</time>
      </trkpt>
      <trkpt lat="42.93561" lon="2.07261">
        <ele>601.92</ele>
        <time>2014-09-14T15:40:42Z</time>
      </trkpt>
      <trkpt lat="42.93579" lon="2.07189">
        <ele>605.29</ele>
        <time>2014-09-14T15:41:00Z</time>
      </trkpt>
      <trkpt lat="42.93587" lon="2.07117">
        <ele>610.57</ele>
        <time>2014-09-14T15:41:17Z</time>
      </trkpt>
      <trkpt lat="42.93601" lon="2.07052">
        <ele>613.94</ele>
        <time>2014-09-14T15:41:33Z</time>
      </trkpt>
      <trkpt lat="42.93624" lon="2.07023">
        <ele>614.42</ele>
        <time>2014-09-14T15:41:45Z</time>
      </trkpt>
      <trkpt lat="42.93626" lon="2.07026">
        <ele>614.9</ele>
        <time>2014-09-14T15:41:46Z</time>
      </trkpt>
      <trkpt lat="42.93628" lon="2.07029">
        <ele>614.9</ele>
        <time>2014-09-14T15:41:47Z</time>
      </trkpt>
      <trkpt lat="42.93628" lon="2.07033">
        <ele>614.9</ele>
        <time>2014-09-14T15:41:48Z</time>
      </trkpt>
      <trkpt lat="42.93628" lon="2.07037">
        <ele>615.38</ele>
        <time>2014-09-14T15:41:49Z</time>
      </trkpt>
      <trkpt lat="42.93627" lon="2.07041">
        <ele>615.38</ele>
        <time>2014-09-14T15:41:50Z</time>
      </trkpt>
      <trkpt lat="42.93625" lon="2.07044">
        <ele>615.86</ele>
        <time>2014-09-14T15:41:51Z</time>
      </trkpt>
      <trkpt lat="42.93623" lon="2.07047">
        <ele>616.34</ele>
        <time>2014-09-14T15:41:52Z</time>
      </trkpt>
      <trkpt lat="42.93621" lon="2.07049">
        <ele>616.34</ele>
        <time>2014-09-14T15:41:53Z</time>
      </trkpt>
      <trkpt lat="42.93601" lon="2.07093">
        <ele>616.82</ele>
        <time>2014-09-14T15:42:05Z</time>
      </trkpt>
      <trkpt lat="42.93598" lon="2.07166">
        <ele>618.75</ele>
        <time>2014-09-14T15:42:22Z</time>
      </trkpt>
      <trkpt lat="42.93596" lon="2.07242">
        <ele>621.15</ele>
        <time>2014-09-14T15:42:40Z</time>
      </trkpt>
      <trkpt lat="42.93585" lon="2.07322">
        <ele>624.03</ele>
        <time>2014-09-14T15:42:59Z</time>
      </trkpt>
      <trkpt lat="42.93565" lon="2.07383">
        <ele>629.32</ele>
        <time>2014-09-14T15:43:15Z</time>
      </trkpt>
      <trkpt lat="42.93578" lon="2.07413">
        <ele>631.24</ele>
        <time>2014-09-14T15:43:25Z</time>
      </trkpt>
      <trkpt lat="42.93581" lon="2.07413">
        <ele>631.72</ele>
        <time>2014-09-14T15:43:26Z</time>
      </trkpt>
      <trkpt lat="42.93584" lon="2.07412">
        <ele>631.72</ele>
        <time>2014-09-14T15:43:27Z</time>
      </trkpt>
      <trkpt lat="42.93586" lon="2.0741">
        <ele>632.2</ele>
        <time>2014-09-14T15:43:28Z</time>
      </trkpt>
      <trkpt lat="42.93589" lon="2.07407">
        <ele>632.68</ele>
        <time>2014-09-14T15:43:29Z</time>
      </trkpt>
      <trkpt lat="42.93591" lon="2.07404">
        <ele>632.68</ele>
        <time>2014-09-14T15:43:30Z</time>
      </trkpt>
      <trkpt lat="42.93592" lon="2.074">
        <ele>632.68</ele>
        <time>2014-09-14T15:43:31Z</time>
      </trkpt>
      <trkpt lat="42.93593" lon="2.07396">
        <ele>633.17</ele>
        <time>2014-09-14T15:43:32Z</time>
      </trkpt>
      <trkpt lat="42.93594" lon="2.07391">
        <ele>633.17</ele>
        <time>2014-09-14T15:43:33Z</time>
      </trkpt>
      <trkpt lat="42.93594" lon="2.07386">
        <ele>633.65</ele>
        <time>2014-09-14T15:43:34Z</time>
      </trkpt>
      <trkpt lat="42.93595" lon="2.07382">
        <ele>633.65</ele>
        <time>2014-09-14T15:43:35Z</time>
      </trkpt>
      <trkpt lat="42.93612" lon="2.07315">
        <ele>637.01</ele>
        <time>2014-09-14T15:43:52Z</time>
      </trkpt>
      <trkpt lat="42.93643" lon="2.07246">
        <ele>641.82</ele>
        <time>2014-09-14T15:44:11Z</time>
      </trkpt>
      <trkpt lat="42.93672" lon="2.07255">
        <ele>641.34</ele>
        <time>2014-09-14T15:44:21Z</time>
      </trkpt>
      <trkpt lat="42.93711" lon="2.07279">
        <ele>643.74</ele>
        <time>2014-09-14T15:44:34Z</time>
      </trkpt>
      <trkpt lat="42.9376" lon="2.07279">
        <ele>648.55</ele>
        <time>2014-09-14T15:44:48Z</time>
      </trkpt>
      <trkpt lat="42.93808" lon="2.07273">
        <ele>653.35</ele>
        <time>2014-09-14T15:45:01Z</time>
      </trkpt>
      <trkpt lat="42.93868" lon="2.07283">
        <ele>656.72</ele>
        <time>2014-09-14T15:45:17Z</time>
      </trkpt>
      <trkpt lat="42.93907" lon="2.07299">
        <ele>653.35</ele>
        <time>2014-09-14T15:45:26Z</time>
      </trkpt>
      <trkpt lat="42.9391" lon="2.07304">
        <ele>652.39</ele>
        <time>2014-09-14T15:45:27Z</time>
      </trkpt>
      <trkpt lat="42.93914" lon="2.0731">
        <ele>651.91</ele>
        <time>2014-09-14T15:45:28Z</time>
      </trkpt>
      <trkpt lat="42.93917" lon="2.07316">
        <ele>651.43</ele>
        <time>2014-09-14T15:45:29Z</time>
      </trkpt>
      <trkpt lat="42.93918" lon="2.07321">
        <ele>650.95</ele>
        <time>2014-09-14T15:45:30Z</time>
      </trkpt>
      <trkpt lat="42.9392" lon="2.07326">
        <ele>650.47</ele>
        <time>2014-09-14T15:45:31Z</time>
      </trkpt>
      <trkpt lat="42.93921" lon="2.07332">
        <ele>650.47</ele>
        <time>2014-09-14T15:45:32Z</time>
      </trkpt>
      <trkpt lat="42.93921" lon="2.07337">
        <ele>650.47</ele>
        <time>2014-09-14T15:45:33Z</time>
      </trkpt>
      <trkpt lat="42.93921" lon="2.07343">
        <ele>650.47</ele>
        <time>2014-09-14T15:45:34Z</time>
      </trkpt>
      <trkpt lat="42.93922" lon="2.07349">
        <ele>650.47</ele>
        <time>2014-09-14T15:45:35Z</time>
      </trkpt>
      <trkpt lat="42.93921" lon="2.07354">
        <ele>650.47</ele>
        <time>2014-09-14T15:45:36Z</time>
      </trkpt>
      <trkpt lat="42.93923" lon="2.07426">
        <ele>650.47</ele>
        <time>2014-09-14T15:45:50Z</time>
      </trkpt>
      <trkpt lat="42.93941" lon="2.07495">
        <ele>650.47</ele>
        <time>2014-09-14T15:46:04Z</time>
      </trkpt>
      <trkpt lat="42.93982" lon="2.07531">
        <ele>655.28</ele>
        <time>2014-09-14T15:46:18Z</time>
      </trkpt>
      <trkpt lat="42.94016" lon="2.07584">
        <ele>655.76</ele>
        <time>2014-09-14T15:46:30Z</time>
      </trkpt>
      <trkpt lat="42.94039" lon="2.07647">
        <ele>653.83</ele>
        <time>2014-09-14T15:46:43Z</time>
      </trkpt>
      <trkpt lat="42.94045" lon="2.07676">
        <ele>653.83</ele>
        <time>2014-09-14T15:46:49Z</time>
      </trkpt>
      <trkpt lat="42.94048" lon="2.07679">
        <ele>654.31</ele>
        <time>2014-09-14T15:46:50Z</time>
      </trkpt>
      <trkpt lat="42.94052" lon="2.07682">
        <ele>654.8</ele>
        <time>2014-09-14T15:46:51Z</time>
      </trkpt>
      <trkpt lat="42.94056" lon="2.07684">
        <ele>655.28</ele>
        <time>2014-09-14T15:46:52Z</time>
      </trkpt>
      <trkpt lat="42.94061" lon="2.07685">
        <ele>655.76</ele>
        <time>2014-09-14T15:46:53Z</time>
      </trkpt>
      <trkpt lat="42.94065" lon="2.07686">
        <ele>656.72</ele>
        <time>2014-09-14T15:46:54Z</time>
      </trkpt>
      <trkpt lat="42.9407" lon="2.07686">
        <ele>657.2</ele>
        <time>2014-09-14T15:46:55Z</time>
      </trkpt>
      <trkpt lat="42.94074" lon="2.07686">
        <ele>657.2</ele>
        <time>2014-09-14T15:46:56Z</time>
      </trkpt>
      <trkpt lat="42.94095" lon="2.0769">
        <ele>659.12</ele>
        <time>2014-09-14T15:47:01Z</time>
      </trkpt>
      <trkpt lat="42.94143" lon="2.07742">
        <ele>658.64</ele>
        <time>2014-09-14T15:47:16Z</time>
      </trkpt>
      <trkpt lat="42.94143" lon="2.07803">
        <ele>658.16</ele>
        <time>2014-09-14T15:47:27Z</time>
      </trkpt>
      <trkpt lat="42.94147" lon="2.07819">
        <ele>658.64</ele>
        <time>2014-09-14T15:47:30Z</time>
      </trkpt>
      <trkpt lat="42.9415" lon="2.07824">
        <ele>658.64</ele>
        <time>2014-09-14T15:47:31Z</time>
      </trkpt>
      <trkpt lat="42.94153" lon="2.07826">
        <ele>659.12</ele>
        <time>2014-09-14T15:47:32Z</time>
      </trkpt>
      <trkpt lat="42.94158" lon="2.07829">
        <ele>659.12</ele>
        <time>2014-09-14T15:47:33Z</time>
      </trkpt>
      <trkpt lat="42.94161" lon="2.0783">
        <ele>659.6</ele>
        <time>2014-09-14T15:47:34Z</time>
      </trkpt>
      <trkpt lat="42.94166" lon="2.07831">
        <ele>659.6</ele>
        <time>2014-09-14T15:47:35Z</time>
      </trkpt>
      <trkpt lat="42.94169" lon="2.07831">
        <ele>660.08</ele>
        <time>2014-09-14T15:47:36Z</time>
      </trkpt>
      <trkpt lat="42.94173" lon="2.07831">
        <ele>660.08</ele>
        <time>2014-09-14T15:47:37Z</time>
      </trkpt>
      <trkpt lat="42.94213" lon="2.07842">
        <ele>660.56</ele>
        <time>2014-09-14T15:47:48Z</time>
      </trkpt>
      <trkpt lat="42.94253" lon="2.07882">
        <ele>661.04</ele>
        <time>2014-09-14T15:48:00Z</time>
      </trkpt>
      <trkpt lat="42.94256" lon="2.07886">
        <ele>661.04</ele>
        <time>2014-09-14T15:48:01Z</time>
      </trkpt>
      <trkpt lat="42.9426" lon="2.0789">
        <ele>661.52</ele>
        <time>2014-09-14T15:48:02Z</time>
      </trkpt>
      <trkpt lat="42.94262" lon="2.07895">
        <ele>661.52</ele>
        <time>2014-09-14T15:48:03Z</time>
      </trkpt>
      <trkpt lat="42.94264" lon="2.079">
        <ele>661.52</ele>
        <time>2014-09-14T15:48:04Z</time>
      </trkpt>
      <trkpt lat="42.94265" lon="2.07905">
        <ele>662.01</ele>
        <time>2014-09-14T15:48:05Z</time>
      </trkpt>
      <trkpt lat="42.94265" lon="2.07911">
        <ele>662.01</ele>
        <time>2014-09-14T15:48:06Z</time>
      </trkpt>
      <trkpt lat="42.94264" lon="2.07917">
        <ele>662.01</ele>
        <time>2014-09-14T15:48:07Z</time>
      </trkpt>
      <trkpt lat="42.94263" lon="2.07922">
        <ele>662.01</ele>
        <time>2014-09-14T15:48:08Z</time>
      </trkpt>
      <trkpt lat="42.94262" lon="2.07927">
        <ele>662.49</ele>
        <time>2014-09-14T15:48:09Z</time>
      </trkpt>
      <trkpt lat="42.94271" lon="2.07978">
        <ele>663.93</ele>
        <time>2014-09-14T15:48:21Z</time>
      </trkpt>
      <trkpt lat="42.9428" lon="2.0802">
        <ele>666.81</ele>
        <time>2014-09-14T15:48:31Z</time>
      </trkpt>
      <trkpt lat="42.94281" lon="2.08023">
        <ele>667.29</ele>
        <time>2014-09-14T15:48:32Z</time>
      </trkpt>
      <trkpt lat="42.94283" lon="2.08025">
        <ele>667.77</ele>
        <time>2014-09-14T15:48:33Z</time>
      </trkpt>
      <trkpt lat="42.94287" lon="2.08027">
        <ele>668.25</ele>
        <time>2014-09-14T15:48:34Z</time>
      </trkpt>
      <trkpt lat="42.94292" lon="2.08029">
        <ele>668.73</ele>
        <time>2014-09-14T15:48:35Z</time>
      </trkpt>
      <trkpt lat="42.94296" lon="2.0803">
        <ele>669.22</ele>
        <time>2014-09-14T15:48:36Z</time>
      </trkpt>
      <trkpt lat="42.94302" lon="2.08028">
        <ele>670.18</ele>
        <time>2014-09-14T15:48:38Z</time>
      </trkpt>
      <trkpt lat="42.94374" lon="2.07993">
        <ele>676.91</ele>
        <time>2014-09-14T15:48:54Z</time>
      </trkpt>
      <trkpt lat="42.94426" lon="2.07972">
        <ele>677.87</ele>
        <time>2014-09-14T15:49:07Z</time>
      </trkpt>
      <trkpt lat="42.9443" lon="2.07974">
        <ele>677.87</ele>
        <time>2014-09-14T15:49:08Z</time>
      </trkpt>
      <trkpt lat="42.94434" lon="2.07978">
        <ele>677.87</ele>
        <time>2014-09-14T15:49:09Z</time>
      </trkpt>
      <trkpt lat="42.94437" lon="2.07981">
        <ele>677.87</ele>
        <time>2014-09-14T15:49:10Z</time>
      </trkpt>
      <trkpt lat="42.9444" lon="2.07985">
        <ele>678.35</ele>
        <time>2014-09-14T15:49:11Z</time>
      </trkpt>
      <trkpt lat="42.94452" lon="2.07997">
        <ele>678.35</ele>
        <time>2014-09-14T15:49:15Z</time>
      </trkpt>
      <trkpt lat="42.94495" lon="2.08017">
        <ele>681.23</ele>
        <time>2014-09-14T15:49:26Z</time>
      </trkpt>
      <trkpt lat="42.94527" lon="2.08074">
        <ele>679.79</ele>
        <time>2014-09-14T15:49:37Z</time>
      </trkpt>
      <trkpt lat="42.94544" lon="2.08113">
        <ele>677.87</ele>
        <time>2014-09-14T15:49:45Z</time>
      </trkpt>
      <trkpt lat="42.94548" lon="2.08117">
        <ele>677.87</ele>
        <time>2014-09-14T15:49:46Z</time>
      </trkpt>
      <trkpt lat="42.94551" lon="2.08121">
        <ele>677.39</ele>
        <time>2014-09-14T15:49:47Z</time>
      </trkpt>
      <trkpt lat="42.94554" lon="2.08124">
        <ele>676.91</ele>
        <time>2014-09-14T15:49:48Z</time>
      </trkpt>
      <trkpt lat="42.94559" lon="2.08127">
        <ele>676.91</ele>
        <time>2014-09-14T15:49:49Z</time>
      </trkpt>
      <trkpt lat="42.94563" lon="2.08129">
        <ele>676.42</ele>
        <time>2014-09-14T15:49:50Z</time>
      </trkpt>
      <trkpt lat="42.94567" lon="2.0813">
        <ele>676.42</ele>
        <time>2014-09-14T15:49:51Z</time>
      </trkpt>
      <trkpt lat="42.94571" lon="2.08131">
        <ele>676.42</ele>
        <time>2014-09-14T15:49:52Z</time>
      </trkpt>
      <trkpt lat="42.94575" lon="2.08132">
        <ele>676.42</ele>
        <time>2014-09-14T15:49:53Z</time>
      </trkpt>
      <trkpt lat="42.94579" lon="2.08131">
        <ele>676.42</ele>
        <time>2014-09-14T15:49:54Z</time>
      </trkpt>
      <trkpt lat="42.9461" lon="2.0813">
        <ele>676.91</ele>
        <time>2014-09-14T15:50:06Z</time>
      </trkpt>
      <trkpt lat="42.94612" lon="2.0813">
        <ele>676.91</ele>
        <time>2014-09-14T15:50:22Z</time>
      </trkpt>
      <trkpt lat="42.94613" lon="2.08128">
        <ele>675.94</ele>
        <time>2014-09-14T15:50:54Z</time>
      </trkpt>
      <trkpt lat="42.94613" lon="2.08129">
        <ele>676.42</ele>
        <time>2014-09-14T15:51:22Z</time>
      </trkpt>
      <trkpt lat="42.94611" lon="2.0813">
        <ele>675.94</ele>
        <time>2014-09-14T15:51:48Z</time>
      </trkpt>
      <trkpt lat="42.94611" lon="2.08127">
        <ele>677.87</ele>
        <time>2014-09-14T15:52:07Z</time>
      </trkpt>
      <trkpt lat="42.94613" lon="2.08128">
        <ele>678.83</ele>
        <time>2014-09-14T15:52:30Z</time>
      </trkpt>
      <trkpt lat="42.94616" lon="2.08128">
        <ele>678.35</ele>
        <time>2014-09-14T15:52:33Z</time>
      </trkpt>
      <trkpt lat="42.94618" lon="2.08128">
        <ele>678.35</ele>
        <time>2014-09-14T15:52:34Z</time>
      </trkpt>
      <trkpt lat="42.9462" lon="2.08128">
        <ele>677.87</ele>
        <time>2014-09-14T15:52:35Z</time>
      </trkpt>
      <trkpt lat="42.94623" lon="2.08128">
        <ele>677.87</ele>
        <time>2014-09-14T15:52:36Z</time>
      </trkpt>
      <trkpt lat="42.94626" lon="2.08128">
        <ele>677.39</ele>
        <time>2014-09-14T15:52:37Z</time>
      </trkpt>
      <trkpt lat="42.9463" lon="2.08129">
        <ele>677.39</ele>
        <time>2014-09-14T15:52:38Z</time>
      </trkpt>
      <trkpt lat="42.94646" lon="2.08133">
        <ele>676.42</ele>
        <time>2014-09-14T15:52:42Z</time>
      </trkpt>
      <trkpt lat="42.9465" lon="2.08135">
        <ele>675.94</ele>
        <time>2014-09-14T15:52:43Z</time>
      </trkpt>
      <trkpt lat="42.94655" lon="2.08138">
        <ele>675.94</ele>
        <time>2014-09-14T15:52:44Z</time>
      </trkpt>
      <trkpt lat="42.94659" lon="2.08142">
        <ele>675.46</ele>
        <time>2014-09-14T15:52:45Z</time>
      </trkpt>
      <trkpt lat="42.94663" lon="2.08147">
        <ele>674.98</ele>
        <time>2014-09-14T15:52:46Z</time>
      </trkpt>
      <trkpt lat="42.94667" lon="2.08153">
        <ele>674.98</ele>
        <time>2014-09-14T15:52:47Z</time>
      </trkpt>
      <trkpt lat="42.94671" lon="2.08159">
        <ele>674.5</ele>
        <time>2014-09-14T15:52:48Z</time>
      </trkpt>
      <trkpt lat="42.94675" lon="2.08164">
        <ele>674.02</ele>
        <time>2014-09-14T15:52:49Z</time>
      </trkpt>
      <trkpt lat="42.94679" lon="2.08169">
        <ele>674.02</ele>
        <time>2014-09-14T15:52:50Z</time>
      </trkpt>
      <trkpt lat="42.94683" lon="2.08172">
        <ele>673.54</ele>
        <time>2014-09-14T15:52:51Z</time>
      </trkpt>
      <trkpt lat="42.94688" lon="2.08174">
        <ele>673.54</ele>
        <time>2014-09-14T15:52:52Z</time>
      </trkpt>
      <trkpt lat="42.94693" lon="2.08173">
        <ele>673.06</ele>
        <time>2014-09-14T15:52:53Z</time>
      </trkpt>
      <trkpt lat="42.94698" lon="2.08171">
        <ele>673.06</ele>
        <time>2014-09-14T15:52:54Z</time>
      </trkpt>
      <trkpt lat="42.94702" lon="2.08168">
        <ele>672.58</ele>
        <time>2014-09-14T15:52:55Z</time>
      </trkpt>
      <trkpt lat="42.94706" lon="2.08164">
        <ele>672.1</ele>
        <time>2014-09-14T15:52:56Z</time>
      </trkpt>
      <trkpt lat="42.9471" lon="2.08161">
        <ele>672.1</ele>
        <time>2014-09-14T15:52:57Z</time>
      </trkpt>
      <trkpt lat="42.94714" lon="2.08156">
        <ele>671.62</ele>
        <time>2014-09-14T15:52:58Z</time>
      </trkpt>
      <trkpt lat="42.94722" lon="2.08145">
        <ele>671.14</ele>
        <time>2014-09-14T15:53:00Z</time>
      </trkpt>
      <trkpt lat="42.94727" lon="2.0814">
        <ele>670.66</ele>
        <time>2014-09-14T15:53:01Z</time>
      </trkpt>
      <trkpt lat="42.94743" lon="2.08122">
        <ele>670.18</ele>
        <time>2014-09-14T15:53:04Z</time>
      </trkpt>
      <trkpt lat="42.94754" lon="2.08106">
        <ele>669.7</ele>
        <time>2014-09-14T15:53:06Z</time>
      </trkpt>
      <trkpt lat="42.9476" lon="2.08101">
        <ele>669.22</ele>
        <time>2014-09-14T15:53:07Z</time>
      </trkpt>
      <trkpt lat="42.94767" lon="2.08098">
        <ele>668.73</ele>
        <time>2014-09-14T15:53:08Z</time>
      </trkpt>
      <trkpt lat="42.94774" lon="2.08097">
        <ele>668.25</ele>
        <time>2014-09-14T15:53:09Z</time>
      </trkpt>
      <trkpt lat="42.94781" lon="2.081">
        <ele>667.77</ele>
        <time>2014-09-14T15:53:10Z</time>
      </trkpt>
      <trkpt lat="42.94788" lon="2.08107">
        <ele>667.29</ele>
        <time>2014-09-14T15:53:11Z</time>
      </trkpt>
      <trkpt lat="42.94795" lon="2.08114">
        <ele>666.81</ele>
        <time>2014-09-14T15:53:12Z</time>
      </trkpt>
      <trkpt lat="42.94817" lon="2.08134">
        <ele>665.37</ele>
        <time>2014-09-14T15:53:15Z</time>
      </trkpt>
      <trkpt lat="42.94826" lon="2.08138">
        <ele>664.89</ele>
        <time>2014-09-14T15:53:16Z</time>
      </trkpt>
      <trkpt lat="42.94836" lon="2.0814">
        <ele>664.41</ele>
        <time>2014-09-14T15:53:17Z</time>
      </trkpt>
      <trkpt lat="42.94862" lon="2.08145">
        <ele>663.45</ele>
        <time>2014-09-14T15:53:20Z</time>
      </trkpt>
      <trkpt lat="42.94871" lon="2.08151">
        <ele>662.97</ele>
        <time>2014-09-14T15:53:21Z</time>
      </trkpt>
      <trkpt lat="42.9488" lon="2.08158">
        <ele>662.49</ele>
        <time>2014-09-14T15:53:22Z</time>
      </trkpt>
      <trkpt lat="42.94925" lon="2.0819">
        <ele>660.56</ele>
        <time>2014-09-14T15:53:27Z</time>
      </trkpt>
      <trkpt lat="42.94935" lon="2.08193">
        <ele>660.08</ele>
        <time>2014-09-14T15:53:28Z</time>
      </trkpt>
      <trkpt lat="42.94946" lon="2.08194">
        <ele>659.6</ele>
        <time>2014-09-14T15:53:29Z</time>
      </trkpt>
      <trkpt lat="42.94956" lon="2.08193">
        <ele>659.12</ele>
        <time>2014-09-14T15:53:30Z</time>
      </trkpt>
      <trkpt lat="42.94965" lon="2.08189">
        <ele>658.64</ele>
        <time>2014-09-14T15:53:31Z</time>
      </trkpt>
      <trkpt lat="42.94975" lon="2.08181">
        <ele>658.16</ele>
        <time>2014-09-14T15:53:32Z</time>
      </trkpt>
      <trkpt lat="42.94982" lon="2.08173">
        <ele>657.68</ele>
        <time>2014-09-14T15:53:33Z</time>
      </trkpt>
      <trkpt lat="42.94999" lon="2.08155">
        <ele>656.24</ele>
        <time>2014-09-14T15:53:35Z</time>
      </trkpt>
      <trkpt lat="42.95008" lon="2.08149">
        <ele>655.76</ele>
        <time>2014-09-14T15:53:36Z</time>
      </trkpt>
      <trkpt lat="42.95018" lon="2.08146">
        <ele>655.28</ele>
        <time>2014-09-14T15:53:37Z</time>
      </trkpt>
      <trkpt lat="42.95028" lon="2.08146">
        <ele>654.8</ele>
        <time>2014-09-14T15:53:38Z</time>
      </trkpt>
      <trkpt lat="42.95039" lon="2.08149">
        <ele>654.31</ele>
        <time>2014-09-14T15:53:39Z</time>
      </trkpt>
      <trkpt lat="42.9505" lon="2.08154">
        <ele>653.35</ele>
        <time>2014-09-14T15:53:40Z</time>
      </trkpt>
      <trkpt lat="42.95061" lon="2.08156">
        <ele>652.87</ele>
        <time>2014-09-14T15:53:41Z</time>
      </trkpt>
      <trkpt lat="42.95069" lon="2.08155">
        <ele>652.39</ele>
        <time>2014-09-14T15:53:42Z</time>
      </trkpt>
      <trkpt lat="42.95082" lon="2.08152">
        <ele>651.91</ele>
        <time>2014-09-14T15:53:43Z</time>
      </trkpt>
      <trkpt lat="42.9509" lon="2.0815">
        <ele>651.43</ele>
        <time>2014-09-14T15:53:44Z</time>
      </trkpt>
      <trkpt lat="42.95101" lon="2.08149">
        <ele>650.47</ele>
        <time>2014-09-14T15:53:45Z</time>
      </trkpt>
      <trkpt lat="42.95112" lon="2.08149">
        <ele>649.99</ele>
        <time>2014-09-14T15:53:46Z</time>
      </trkpt>
      <trkpt lat="42.95127" lon="2.0815">
        <ele>648.55</ele>
        <time>2014-09-14T15:53:47Z</time>
      </trkpt>
      <trkpt lat="42.95136" lon="2.08149">
        <ele>648.07</ele>
        <time>2014-09-14T15:53:48Z</time>
      </trkpt>
      <trkpt lat="42.95146" lon="2.08147">
        <ele>647.59</ele>
        <time>2014-09-14T15:53:49Z</time>
      </trkpt>
      <trkpt lat="42.95157" lon="2.08148">
        <ele>647.1</ele>
        <time>2014-09-14T15:53:50Z</time>
      </trkpt>
      <trkpt lat="42.95166" lon="2.08154">
        <ele>646.14</ele>
        <time>2014-09-14T15:53:51Z</time>
      </trkpt>
      <trkpt lat="42.95174" lon="2.08164">
        <ele>645.66</ele>
        <time>2014-09-14T15:53:52Z</time>
      </trkpt>
      <trkpt lat="42.9518" lon="2.08175">
        <ele>645.18</ele>
        <time>2014-09-14T15:53:53Z</time>
      </trkpt>
      <trkpt lat="42.95185" lon="2.08189">
        <ele>644.7</ele>
        <time>2014-09-14T15:53:54Z</time>
      </trkpt>
      <trkpt lat="42.95209" lon="2.0824">
        <ele>642.3</ele>
        <time>2014-09-14T15:53:58Z</time>
      </trkpt>
      <trkpt lat="42.95222" lon="2.08264">
        <ele>640.86</ele>
        <time>2014-09-14T15:54:00Z</time>
      </trkpt>
      <trkpt lat="42.95255" lon="2.08358">
        <ele>636.53</ele>
        <time>2014-09-14T15:54:07Z</time>
      </trkpt>
      <trkpt lat="42.95262" lon="2.08366">
        <ele>635.57</ele>
        <time>2014-09-14T15:54:08Z</time>
      </trkpt>
      <trkpt lat="42.95269" lon="2.0837">
        <ele>635.09</ele>
        <time>2014-09-14T15:54:09Z</time>
      </trkpt>
      <trkpt lat="42.95279" lon="2.08369">
        <ele>634.61</ele>
        <time>2014-09-14T15:54:10Z</time>
      </trkpt>
      <trkpt lat="42.95287" lon="2.08361">
        <ele>633.65</ele>
        <time>2014-09-14T15:54:11Z</time>
      </trkpt>
      <trkpt lat="42.95295" lon="2.0835">
        <ele>632.68</ele>
        <time>2014-09-14T15:54:12Z</time>
      </trkpt>
      <trkpt lat="42.95301" lon="2.08339">
        <ele>631.72</ele>
        <time>2014-09-14T15:54:13Z</time>
      </trkpt>
      <trkpt lat="42.95306" lon="2.08327">
        <ele>630.76</ele>
        <time>2014-09-14T15:54:14Z</time>
      </trkpt>
      <trkpt lat="42.95336" lon="2.08267">
        <ele>626.44</ele>
        <time>2014-09-14T15:54:19Z</time>
      </trkpt>
      <trkpt lat="42.95342" lon="2.08259">
        <ele>626.44</ele>
        <time>2014-09-14T15:54:20Z</time>
      </trkpt>
      <trkpt lat="42.95349" lon="2.0825">
        <ele>625.96</ele>
        <time>2014-09-14T15:54:21Z</time>
      </trkpt>
      <trkpt lat="42.95356" lon="2.08243">
        <ele>625.47</ele>
        <time>2014-09-14T15:54:22Z</time>
      </trkpt>
      <trkpt lat="42.95364" lon="2.08239">
        <ele>624.99</ele>
        <time>2014-09-14T15:54:23Z</time>
      </trkpt>
      <trkpt lat="42.95373" lon="2.08239">
        <ele>624.99</ele>
        <time>2014-09-14T15:54:24Z</time>
      </trkpt>
      <trkpt lat="42.9538" lon="2.08241">
        <ele>624.51</ele>
        <time>2014-09-14T15:54:25Z</time>
      </trkpt>
      <trkpt lat="42.95388" lon="2.08252">
        <ele>624.03</ele>
        <time>2014-09-14T15:54:26Z</time>
      </trkpt>
      <trkpt lat="42.95395" lon="2.08267">
        <ele>623.55</ele>
        <time>2014-09-14T15:54:27Z</time>
      </trkpt>
      <trkpt lat="42.95404" lon="2.08278">
        <ele>622.59</ele>
        <time>2014-09-14T15:54:28Z</time>
      </trkpt>
      <trkpt lat="42.95413" lon="2.08285">
        <ele>622.59</ele>
        <time>2014-09-14T15:54:29Z</time>
      </trkpt>
      <trkpt lat="42.95431" lon="2.08279">
        <ele>621.15</ele>
        <time>2014-09-14T15:54:31Z</time>
      </trkpt>
      <trkpt lat="42.9544" lon="2.08266">
        <ele>619.71</ele>
        <time>2014-09-14T15:54:32Z</time>
      </trkpt>
      <trkpt lat="42.95444" lon="2.0826">
        <ele>619.23</ele>
        <time>2014-09-14T15:54:33Z</time>
      </trkpt>
      <trkpt lat="42.95458" lon="2.08242">
        <ele>617.78</ele>
        <time>2014-09-14T15:54:35Z</time>
      </trkpt>
      <trkpt lat="42.95466" lon="2.08236">
        <ele>616.82</ele>
        <time>2014-09-14T15:54:36Z</time>
      </trkpt>
      <trkpt lat="42.95474" lon="2.08234">
        <ele>615.86</ele>
        <time>2014-09-14T15:54:37Z</time>
      </trkpt>
      <trkpt lat="42.95486" lon="2.08232">
        <ele>614.42</ele>
        <time>2014-09-14T15:54:39Z</time>
      </trkpt>
      <trkpt lat="42.9549" lon="2.08244">
        <ele>614.42</ele>
        <time>2014-09-14T15:54:40Z</time>
      </trkpt>
      <trkpt lat="42.95498" lon="2.08256">
        <ele>613.46</ele>
        <time>2014-09-14T15:54:41Z</time>
      </trkpt>
      <trkpt lat="42.95534" lon="2.08256">
        <ele>610.09</ele>
        <time>2014-09-14T15:54:45Z</time>
      </trkpt>
      <trkpt lat="42.95564" lon="2.08259">
        <ele>605.29</ele>
        <time>2014-09-14T15:54:49Z</time>
      </trkpt>
      <trkpt lat="42.95568" lon="2.08268">
        <ele>604.81</ele>
        <time>2014-09-14T15:54:50Z</time>
      </trkpt>
      <trkpt lat="42.95571" lon="2.08273">
        <ele>603.85</ele>
        <time>2014-09-14T15:54:51Z</time>
      </trkpt>
      <trkpt lat="42.95576" lon="2.08281">
        <ele>602.88</ele>
        <time>2014-09-14T15:54:52Z</time>
      </trkpt>
      <trkpt lat="42.95585" lon="2.08286">
        <ele>602.88</ele>
        <time>2014-09-14T15:54:53Z</time>
      </trkpt>
      <trkpt lat="42.95594" lon="2.0829">
        <ele>602.88</ele>
        <time>2014-09-14T15:54:54Z</time>
      </trkpt>
      <trkpt lat="42.9564" lon="2.08342">
        <ele>600.48</ele>
        <time>2014-09-14T15:54:58Z</time>
      </trkpt>
      <trkpt lat="42.9565" lon="2.0835">
        <ele>600</ele>
        <time>2014-09-14T15:54:59Z</time>
      </trkpt>
      <trkpt lat="42.95672" lon="2.08371">
        <ele>599.04</ele>
        <time>2014-09-14T15:55:01Z</time>
      </trkpt>
      <trkpt lat="42.95685" lon="2.08387">
        <ele>598.08</ele>
        <time>2014-09-14T15:55:02Z</time>
      </trkpt>
      <trkpt lat="42.95691" lon="2.08401">
        <ele>597.6</ele>
        <time>2014-09-14T15:55:03Z</time>
      </trkpt>
      <trkpt lat="42.95693" lon="2.08423">
        <ele>597.12</ele>
        <time>2014-09-14T15:55:04Z</time>
      </trkpt>
      <trkpt lat="42.9569" lon="2.08433">
        <ele>597.12</ele>
        <time>2014-09-14T15:55:05Z</time>
      </trkpt>
      <trkpt lat="42.9568" lon="2.0845">
        <ele>596.64</ele>
        <time>2014-09-14T15:55:06Z</time>
      </trkpt>
      <trkpt lat="42.95672" lon="2.08458">
        <ele>596.15</ele>
        <time>2014-09-14T15:55:07Z</time>
      </trkpt>
      <trkpt lat="42.95664" lon="2.08464">
        <ele>596.15</ele>
        <time>2014-09-14T15:55:08Z</time>
      </trkpt>
      <trkpt lat="42.95654" lon="2.08473">
        <ele>596.15</ele>
        <time>2014-09-14T15:55:09Z</time>
      </trkpt>
      <trkpt lat="42.95544" lon="2.08583">
        <ele>588.95</ele>
        <time>2014-09-14T15:55:20Z</time>
      </trkpt>
      <trkpt lat="42.95509" lon="2.0861">
        <ele>586.54</ele>
        <time>2014-09-14T15:55:23Z</time>
      </trkpt>
      <trkpt lat="42.95499" lon="2.08621">
        <ele>586.06</ele>
        <time>2014-09-14T15:55:24Z</time>
      </trkpt>
      <trkpt lat="42.95479" lon="2.08645">
        <ele>584.14</ele>
        <time>2014-09-14T15:55:26Z</time>
      </trkpt>
      <trkpt lat="42.95468" lon="2.08653">
        <ele>583.66</ele>
        <time>2014-09-14T15:55:27Z</time>
      </trkpt>
      <trkpt lat="42.95455" lon="2.08661">
        <ele>583.18</ele>
        <time>2014-09-14T15:55:28Z</time>
      </trkpt>
      <trkpt lat="42.9541" lon="2.08685">
        <ele>580.29</ele>
        <time>2014-09-14T15:55:32Z</time>
      </trkpt>
      <trkpt lat="42.95404" lon="2.08692">
        <ele>579.33</ele>
        <time>2014-09-14T15:55:33Z</time>
      </trkpt>
      <trkpt lat="42.954" lon="2.08705">
        <ele>578.37</ele>
        <time>2014-09-14T15:55:34Z</time>
      </trkpt>
      <trkpt lat="42.95401" lon="2.08718">
        <ele>577.89</ele>
        <time>2014-09-14T15:55:35Z</time>
      </trkpt>
      <trkpt lat="42.95405" lon="2.08732">
        <ele>577.41</ele>
        <time>2014-09-14T15:55:36Z</time>
      </trkpt>
      <trkpt lat="42.95411" lon="2.08745">
        <ele>576.45</ele>
        <time>2014-09-14T15:55:37Z</time>
      </trkpt>
      <trkpt lat="42.95426" lon="2.08786">
        <ele>574.53</ele>
        <time>2014-09-14T15:55:40Z</time>
      </trkpt>
      <trkpt lat="42.95433" lon="2.08798">
        <ele>574.04</ele>
        <time>2014-09-14T15:55:41Z</time>
      </trkpt>
      <trkpt lat="42.95442" lon="2.08807">
        <ele>573.56</ele>
        <time>2014-09-14T15:55:42Z</time>
      </trkpt>
      <trkpt lat="42.95455" lon="2.08811">
        <ele>573.08</ele>
        <time>2014-09-14T15:55:43Z</time>
      </trkpt>
      <trkpt lat="42.95464" lon="2.08812">
        <ele>572.6</ele>
        <time>2014-09-14T15:55:44Z</time>
      </trkpt>
      <trkpt lat="42.95478" lon="2.08811">
        <ele>572.12</ele>
        <time>2014-09-14T15:55:45Z</time>
      </trkpt>
      <trkpt lat="42.9551" lon="2.08812">
        <ele>570.68</ele>
        <time>2014-09-14T15:55:48Z</time>
      </trkpt>
      <trkpt lat="42.95521" lon="2.08816">
        <ele>570.2</ele>
        <time>2014-09-14T15:55:49Z</time>
      </trkpt>
      <trkpt lat="42.95528" lon="2.08825">
        <ele>569.72</ele>
        <time>2014-09-14T15:55:50Z</time>
      </trkpt>
      <trkpt lat="42.95533" lon="2.08839">
        <ele>569.24</ele>
        <time>2014-09-14T15:55:51Z</time>
      </trkpt>
      <trkpt lat="42.95531" lon="2.08856">
        <ele>568.76</ele>
        <time>2014-09-14T15:55:52Z</time>
      </trkpt>
      <trkpt lat="42.95526" lon="2.08867">
        <ele>567.8</ele>
        <time>2014-09-14T15:55:53Z</time>
      </trkpt>
      <trkpt lat="42.95516" lon="2.08881">
        <ele>567.32</ele>
        <time>2014-09-14T15:55:54Z</time>
      </trkpt>
      <trkpt lat="42.9551" lon="2.08889">
        <ele>566.83</ele>
        <time>2014-09-14T15:55:55Z</time>
      </trkpt>
      <trkpt lat="42.95502" lon="2.089">
        <ele>566.35</ele>
        <time>2014-09-14T15:55:56Z</time>
      </trkpt>
      <trkpt lat="42.95496" lon="2.08912">
        <ele>565.39</ele>
        <time>2014-09-14T15:55:57Z</time>
      </trkpt>
      <trkpt lat="42.95494" lon="2.08926">
        <ele>564.91</ele>
        <time>2014-09-14T15:55:58Z</time>
      </trkpt>
      <trkpt lat="42.95497" lon="2.0894">
        <ele>563.95</ele>
        <time>2014-09-14T15:55:59Z</time>
      </trkpt>
      <trkpt lat="42.95504" lon="2.08952">
        <ele>563.47</ele>
        <time>2014-09-14T15:56:00Z</time>
      </trkpt>
      <trkpt lat="42.95514" lon="2.08961">
        <ele>562.99</ele>
        <time>2014-09-14T15:56:01Z</time>
      </trkpt>
      <trkpt lat="42.95524" lon="2.08967">
        <ele>562.51</ele>
        <time>2014-09-14T15:56:02Z</time>
      </trkpt>
      <trkpt lat="42.95563" lon="2.08998">
        <ele>560.11</ele>
        <time>2014-09-14T15:56:06Z</time>
      </trkpt>
      <trkpt lat="42.95571" lon="2.0901">
        <ele>559.14</ele>
        <time>2014-09-14T15:56:07Z</time>
      </trkpt>
      <trkpt lat="42.95575" lon="2.09024">
        <ele>558.66</ele>
        <time>2014-09-14T15:56:08Z</time>
      </trkpt>
      <trkpt lat="42.95576" lon="2.09039">
        <ele>557.7</ele>
        <time>2014-09-14T15:56:09Z</time>
      </trkpt>
      <trkpt lat="42.95572" lon="2.09055">
        <ele>557.22</ele>
        <time>2014-09-14T15:56:10Z</time>
      </trkpt>
      <trkpt lat="42.95567" lon="2.0907">
        <ele>556.26</ele>
        <time>2014-09-14T15:56:11Z</time>
      </trkpt>
      <trkpt lat="42.95563" lon="2.09084">
        <ele>555.3</ele>
        <time>2014-09-14T15:56:12Z</time>
      </trkpt>
      <trkpt lat="42.95562" lon="2.091">
        <ele>554.34</ele>
        <time>2014-09-14T15:56:13Z</time>
      </trkpt>
      <trkpt lat="42.95563" lon="2.09116">
        <ele>553.86</ele>
        <time>2014-09-14T15:56:14Z</time>
      </trkpt>
      <trkpt lat="42.95563" lon="2.09132">
        <ele>552.9</ele>
        <time>2014-09-14T15:56:15Z</time>
      </trkpt>
      <trkpt lat="42.9556" lon="2.09148">
        <ele>551.93</ele>
        <time>2014-09-14T15:56:16Z</time>
      </trkpt>
      <trkpt lat="42.95554" lon="2.0916">
        <ele>551.45</ele>
        <time>2014-09-14T15:56:17Z</time>
      </trkpt>
      <trkpt lat="42.95543" lon="2.09167">
        <ele>550.97</ele>
        <time>2014-09-14T15:56:18Z</time>
      </trkpt>
      <trkpt lat="42.95532" lon="2.09169">
        <ele>550.49</ele>
        <time>2014-09-14T15:56:19Z</time>
      </trkpt>
      <trkpt lat="42.95519" lon="2.09171">
        <ele>549.53</ele>
        <time>2014-09-14T15:56:20Z</time>
      </trkpt>
      <trkpt lat="42.95509" lon="2.09173">
        <ele>549.05</ele>
        <time>2014-09-14T15:56:21Z</time>
      </trkpt>
      <trkpt lat="42.95498" lon="2.09177">
        <ele>548.57</ele>
        <time>2014-09-14T15:56:22Z</time>
      </trkpt>
      <trkpt lat="42.95485" lon="2.09184">
        <ele>547.61</ele>
        <time>2014-09-14T15:56:23Z</time>
      </trkpt>
      <trkpt lat="42.95476" lon="2.09192">
        <ele>547.13</ele>
        <time>2014-09-14T15:56:24Z</time>
      </trkpt>
      <trkpt lat="42.95469" lon="2.09202">
        <ele>546.65</ele>
        <time>2014-09-14T15:56:25Z</time>
      </trkpt>
      <trkpt lat="42.95463" lon="2.09218">
        <ele>545.69</ele>
        <time>2014-09-14T15:56:26Z</time>
      </trkpt>
      <trkpt lat="42.95463" lon="2.09231">
        <ele>544.72</ele>
        <time>2014-09-14T15:56:27Z</time>
      </trkpt>
      <trkpt lat="42.95464" lon="2.09246">
        <ele>544.24</ele>
        <time>2014-09-14T15:56:28Z</time>
      </trkpt>
      <trkpt lat="42.95465" lon="2.09262">
        <ele>543.28</ele>
        <time>2014-09-14T15:56:29Z</time>
      </trkpt>
      <trkpt lat="42.95465" lon="2.09279">
        <ele>542.8</ele>
        <time>2014-09-14T15:56:30Z</time>
      </trkpt>
      <trkpt lat="42.95463" lon="2.09295">
        <ele>542.32</ele>
        <time>2014-09-14T15:56:31Z</time>
      </trkpt>
      <trkpt lat="42.9546" lon="2.09327">
        <ele>540.4</ele>
        <time>2014-09-14T15:56:33Z</time>
      </trkpt>
      <trkpt lat="42.95457" lon="2.09376">
        <ele>538.48</ele>
        <time>2014-09-14T15:56:36Z</time>
      </trkpt>
      <trkpt lat="42.95451" lon="2.09391">
        <ele>537.51</ele>
        <time>2014-09-14T15:56:37Z</time>
      </trkpt>
      <trkpt lat="42.95442" lon="2.09405">
        <ele>536.55</ele>
        <time>2014-09-14T15:56:38Z</time>
      </trkpt>
      <trkpt lat="42.95437" lon="2.09416">
        <ele>536.07</ele>
        <time>2014-09-14T15:56:39Z</time>
      </trkpt>
      <trkpt lat="42.95433" lon="2.0943">
        <ele>535.11</ele>
        <time>2014-09-14T15:56:40Z</time>
      </trkpt>
      <trkpt lat="42.95434" lon="2.09445">
        <ele>534.63</ele>
        <time>2014-09-14T15:56:41Z</time>
      </trkpt>
      <trkpt lat="42.95435" lon="2.09461">
        <ele>533.67</ele>
        <time>2014-09-14T15:56:42Z</time>
      </trkpt>
      <trkpt lat="42.95433" lon="2.09477">
        <ele>532.71</ele>
        <time>2014-09-14T15:56:43Z</time>
      </trkpt>
      <trkpt lat="42.95426" lon="2.09495">
        <ele>531.75</ele>
        <time>2014-09-14T15:56:44Z</time>
      </trkpt>
      <trkpt lat="42.95421" lon="2.09506">
        <ele>531.27</ele>
        <time>2014-09-14T15:56:45Z</time>
      </trkpt>
      <trkpt lat="42.95417" lon="2.09521">
        <ele>530.3</ele>
        <time>2014-09-14T15:56:46Z</time>
      </trkpt>
      <trkpt lat="42.95415" lon="2.09537">
        <ele>529.34</ele>
        <time>2014-09-14T15:56:47Z</time>
      </trkpt>
      <trkpt lat="42.95416" lon="2.09554">
        <ele>528.38</ele>
        <time>2014-09-14T15:56:48Z</time>
      </trkpt>
      <trkpt lat="42.95419" lon="2.0957">
        <ele>527.9</ele>
        <time>2014-09-14T15:56:49Z</time>
      </trkpt>
      <trkpt lat="42.95422" lon="2.09586">
        <ele>526.94</ele>
        <time>2014-09-14T15:56:50Z</time>
      </trkpt>
      <trkpt lat="42.95434" lon="2.0967">
        <ele>522.61</ele>
        <time>2014-09-14T15:56:55Z</time>
      </trkpt>
      <trkpt lat="42.95434" lon="2.09687">
        <ele>521.65</ele>
        <time>2014-09-14T15:56:56Z</time>
      </trkpt>
      <trkpt lat="42.95434" lon="2.09733">
        <ele>519.25</ele>
        <time>2014-09-14T15:56:59Z</time>
      </trkpt>
      <trkpt lat="42.95438" lon="2.09744">
        <ele>518.77</ele>
        <time>2014-09-14T15:57:00Z</time>
      </trkpt>
      <trkpt lat="42.95447" lon="2.09751">
        <ele>517.81</ele>
        <time>2014-09-14T15:57:01Z</time>
      </trkpt>
      <trkpt lat="42.95454" lon="2.09751">
        <ele>517.33</ele>
        <time>2014-09-14T15:57:02Z</time>
      </trkpt>
      <trkpt lat="42.95465" lon="2.0975">
        <ele>516.85</ele>
        <time>2014-09-14T15:57:03Z</time>
      </trkpt>
      <trkpt lat="42.95547" lon="2.09754">
        <ele>512.52</ele>
        <time>2014-09-14T15:57:11Z</time>
      </trkpt>
      <trkpt lat="42.95554" lon="2.09761">
        <ele>512.04</ele>
        <time>2014-09-14T15:57:12Z</time>
      </trkpt>
      <trkpt lat="42.9556" lon="2.09772">
        <ele>511.56</ele>
        <time>2014-09-14T15:57:13Z</time>
      </trkpt>
      <trkpt lat="42.95563" lon="2.09785">
        <ele>511.08</ele>
        <time>2014-09-14T15:57:14Z</time>
      </trkpt>
      <trkpt lat="42.95561" lon="2.09798">
        <ele>510.6</ele>
        <time>2014-09-14T15:57:15Z</time>
      </trkpt>
      <trkpt lat="42.95556" lon="2.09808">
        <ele>510.6</ele>
        <time>2014-09-14T15:57:16Z</time>
      </trkpt>
      <trkpt lat="42.95547" lon="2.09821">
        <ele>510.12</ele>
        <time>2014-09-14T15:57:17Z</time>
      </trkpt>
      <trkpt lat="42.95538" lon="2.0983">
        <ele>509.64</ele>
        <time>2014-09-14T15:57:18Z</time>
      </trkpt>
      <trkpt lat="42.95512" lon="2.09861">
        <ele>507.71</ele>
        <time>2014-09-14T15:57:21Z</time>
      </trkpt>
      <trkpt lat="42.95504" lon="2.09873">
        <ele>507.23</ele>
        <time>2014-09-14T15:57:22Z</time>
      </trkpt>
      <trkpt lat="42.95498" lon="2.09886">
        <ele>506.27</ele>
        <time>2014-09-14T15:57:23Z</time>
      </trkpt>
      <trkpt lat="42.95493" lon="2.09899">
        <ele>505.79</ele>
        <time>2014-09-14T15:57:24Z</time>
      </trkpt>
      <trkpt lat="42.95489" lon="2.09914">
        <ele>505.31</ele>
        <time>2014-09-14T15:57:25Z</time>
      </trkpt>
      <trkpt lat="42.95487" lon="2.0993">
        <ele>504.83</ele>
        <time>2014-09-14T15:57:26Z</time>
      </trkpt>
      <trkpt lat="42.95487" lon="2.09946">
        <ele>503.87</ele>
        <time>2014-09-14T15:57:27Z</time>
      </trkpt>
      <trkpt lat="42.95489" lon="2.09962">
        <ele>503.39</ele>
        <time>2014-09-14T15:57:28Z</time>
      </trkpt>
      <trkpt lat="42.95493" lon="2.09977">
        <ele>502.43</ele>
        <time>2014-09-14T15:57:29Z</time>
      </trkpt>
      <trkpt lat="42.95499" lon="2.09992">
        <ele>501.95</ele>
        <time>2014-09-14T15:57:30Z</time>
      </trkpt>
      <trkpt lat="42.95507" lon="2.10008">
        <ele>500.98</ele>
        <time>2014-09-14T15:57:31Z</time>
      </trkpt>
      <trkpt lat="42.9554" lon="2.10078">
        <ele>497.62</ele>
        <time>2014-09-14T15:57:36Z</time>
      </trkpt>
      <trkpt lat="42.95547" lon="2.10085">
        <ele>496.66</ele>
        <time>2014-09-14T15:57:37Z</time>
      </trkpt>
      <trkpt lat="42.95559" lon="2.10087">
        <ele>496.18</ele>
        <time>2014-09-14T15:57:38Z</time>
      </trkpt>
      <trkpt lat="42.95569" lon="2.10085">
        <ele>495.22</ele>
        <time>2014-09-14T15:57:39Z</time>
      </trkpt>
      <trkpt lat="42.9558" lon="2.10081">
        <ele>494.74</ele>
        <time>2014-09-14T15:57:40Z</time>
      </trkpt>
      <trkpt lat="42.95634" lon="2.10078">
        <ele>492.33</ele>
        <time>2014-09-14T15:57:45Z</time>
      </trkpt>
      <trkpt lat="42.95645" lon="2.10083">
        <ele>491.37</ele>
        <time>2014-09-14T15:57:46Z</time>
      </trkpt>
      <trkpt lat="42.95655" lon="2.10091">
        <ele>490.89</ele>
        <time>2014-09-14T15:57:47Z</time>
      </trkpt>
      <trkpt lat="42.95663" lon="2.10102">
        <ele>490.41</ele>
        <time>2014-09-14T15:57:48Z</time>
      </trkpt>
      <trkpt lat="42.95668" lon="2.10117">
        <ele>489.93</ele>
        <time>2014-09-14T15:57:49Z</time>
      </trkpt>
      <trkpt lat="42.95669" lon="2.10133">
        <ele>489.45</ele>
        <time>2014-09-14T15:57:50Z</time>
      </trkpt>
      <trkpt lat="42.95665" lon="2.10148">
        <ele>489.45</ele>
        <time>2014-09-14T15:57:51Z</time>
      </trkpt>
      <trkpt lat="42.95658" lon="2.10161">
        <ele>488.97</ele>
        <time>2014-09-14T15:57:52Z</time>
      </trkpt>
      <trkpt lat="42.95649" lon="2.10174">
        <ele>488.01</ele>
        <time>2014-09-14T15:57:53Z</time>
      </trkpt>
      <trkpt lat="42.95637" lon="2.10202">
        <ele>487.05</ele>
        <time>2014-09-14T15:57:55Z</time>
      </trkpt>
      <trkpt lat="42.95634" lon="2.10218">
        <ele>486.08</ele>
        <time>2014-09-14T15:57:56Z</time>
      </trkpt>
      <trkpt lat="42.95636" lon="2.10234">
        <ele>485.6</ele>
        <time>2014-09-14T15:57:57Z</time>
      </trkpt>
      <trkpt lat="42.9564" lon="2.10249">
        <ele>484.64</ele>
        <time>2014-09-14T15:57:58Z</time>
      </trkpt>
      <trkpt lat="42.95647" lon="2.10266">
        <ele>484.16</ele>
        <time>2014-09-14T15:57:59Z</time>
      </trkpt>
      <trkpt lat="42.95675" lon="2.10337">
        <ele>481.28</ele>
        <time>2014-09-14T15:58:04Z</time>
      </trkpt>
      <trkpt lat="42.95684" lon="2.10349">
        <ele>480.8</ele>
        <time>2014-09-14T15:58:05Z</time>
      </trkpt>
      <trkpt lat="42.95694" lon="2.10361">
        <ele>479.84</ele>
        <time>2014-09-14T15:58:06Z</time>
      </trkpt>
      <trkpt lat="42.957" lon="2.10375">
        <ele>479.35</ele>
        <time>2014-09-14T15:58:07Z</time>
      </trkpt>
      <trkpt lat="42.95703" lon="2.10391">
        <ele>478.87</ele>
        <time>2014-09-14T15:58:08Z</time>
      </trkpt>
      <trkpt lat="42.95701" lon="2.10408">
        <ele>477.91</ele>
        <time>2014-09-14T15:58:09Z</time>
      </trkpt>
      <trkpt lat="42.957" lon="2.10425">
        <ele>477.43</ele>
        <time>2014-09-14T15:58:10Z</time>
      </trkpt>
      <trkpt lat="42.95699" lon="2.10444">
        <ele>476.95</ele>
        <time>2014-09-14T15:58:11Z</time>
      </trkpt>
      <trkpt lat="42.95701" lon="2.10458">
        <ele>475.99</ele>
        <time>2014-09-14T15:58:12Z</time>
      </trkpt>
      <trkpt lat="42.95704" lon="2.10474">
        <ele>475.51</ele>
        <time>2014-09-14T15:58:13Z</time>
      </trkpt>
      <trkpt lat="42.95707" lon="2.1049">
        <ele>475.03</ele>
        <time>2014-09-14T15:58:14Z</time>
      </trkpt>
      <trkpt lat="42.95734" lon="2.10649">
        <ele>468.3</ele>
        <time>2014-09-14T15:58:24Z</time>
      </trkpt>
      <trkpt lat="42.95739" lon="2.10661">
        <ele>467.34</ele>
        <time>2014-09-14T15:58:25Z</time>
      </trkpt>
      <trkpt lat="42.95747" lon="2.10668">
        <ele>466.86</ele>
        <time>2014-09-14T15:58:26Z</time>
      </trkpt>
      <trkpt lat="42.95755" lon="2.10669">
        <ele>466.38</ele>
        <time>2014-09-14T15:58:27Z</time>
      </trkpt>
      <trkpt lat="42.95765" lon="2.10663">
        <ele>465.9</ele>
        <time>2014-09-14T15:58:28Z</time>
      </trkpt>
      <trkpt lat="42.95773" lon="2.10656">
        <ele>465.42</ele>
        <time>2014-09-14T15:58:29Z</time>
      </trkpt>
      <trkpt lat="42.95782" lon="2.10648">
        <ele>464.93</ele>
        <time>2014-09-14T15:58:30Z</time>
      </trkpt>
      <trkpt lat="42.95807" lon="2.1063">
        <ele>463.97</ele>
        <time>2014-09-14T15:58:33Z</time>
      </trkpt>
      <trkpt lat="42.95816" lon="2.10629">
        <ele>463.49</ele>
        <time>2014-09-14T15:58:34Z</time>
      </trkpt>
      <trkpt lat="42.95824" lon="2.10633">
        <ele>463.01</ele>
        <time>2014-09-14T15:58:35Z</time>
      </trkpt>
      <trkpt lat="42.95829" lon="2.10638">
        <ele>462.53</ele>
        <time>2014-09-14T15:58:36Z</time>
      </trkpt>
      <trkpt lat="42.95832" lon="2.10646">
        <ele>462.53</ele>
        <time>2014-09-14T15:58:37Z</time>
      </trkpt>
      <trkpt lat="42.95835" lon="2.10658">
        <ele>462.53</ele>
        <time>2014-09-14T15:58:38Z</time>
      </trkpt>
      <trkpt lat="42.95837" lon="2.10669">
        <ele>462.53</ele>
        <time>2014-09-14T15:58:39Z</time>
      </trkpt>
      <trkpt lat="42.95812" lon="2.10719">
        <ele>466.38</ele>
        <time>2014-09-14T15:58:43Z</time>
      </trkpt>
      <trkpt lat="42.95808" lon="2.10735">
        <ele>466.86</ele>
        <time>2014-09-14T15:58:44Z</time>
      </trkpt>
      <trkpt lat="42.95805" lon="2.10745">
        <ele>466.86</ele>
        <time>2014-09-14T15:58:45Z</time>
      </trkpt>
      <trkpt lat="42.95793" lon="2.10761">
        <ele>465.9</ele>
        <time>2014-09-14T15:58:46Z</time>
      </trkpt>
      <trkpt lat="42.95791" lon="2.10777">
        <ele>465.9</ele>
        <time>2014-09-14T15:58:47Z</time>
      </trkpt>
      <trkpt lat="42.95786" lon="2.10792">
        <ele>465.9</ele>
        <time>2014-09-14T15:58:48Z</time>
      </trkpt>
      <trkpt lat="42.95776" lon="2.10804">
        <ele>464.93</ele>
        <time>2014-09-14T15:58:49Z</time>
      </trkpt>
      <trkpt lat="42.95767" lon="2.10817">
        <ele>463.97</ele>
        <time>2014-09-14T15:58:50Z</time>
      </trkpt>
      <trkpt lat="42.95749" lon="2.10845">
        <ele>462.05</ele>
        <time>2014-09-14T15:58:52Z</time>
      </trkpt>
      <trkpt lat="42.95745" lon="2.10856">
        <ele>461.57</ele>
        <time>2014-09-14T15:58:53Z</time>
      </trkpt>
      <trkpt lat="42.95743" lon="2.10872">
        <ele>461.09</ele>
        <time>2014-09-14T15:58:54Z</time>
      </trkpt>
      <trkpt lat="42.95743" lon="2.10888">
        <ele>460.61</ele>
        <time>2014-09-14T15:58:55Z</time>
      </trkpt>
      <trkpt lat="42.95746" lon="2.10905">
        <ele>460.13</ele>
        <time>2014-09-14T15:58:56Z</time>
      </trkpt>
      <trkpt lat="42.95749" lon="2.10921">
        <ele>459.65</ele>
        <time>2014-09-14T15:58:57Z</time>
      </trkpt>
      <trkpt lat="42.95766" lon="2.11064">
        <ele>451.48</ele>
        <time>2014-09-14T15:59:06Z</time>
      </trkpt>
      <trkpt lat="42.95771" lon="2.11076">
        <ele>450.52</ele>
        <time>2014-09-14T15:59:07Z</time>
      </trkpt>
      <trkpt lat="42.95782" lon="2.11087">
        <ele>449.55</ele>
        <time>2014-09-14T15:59:08Z</time>
      </trkpt>
      <trkpt lat="42.95789" lon="2.11093">
        <ele>449.07</ele>
        <time>2014-09-14T15:59:09Z</time>
      </trkpt>
      <trkpt lat="42.95797" lon="2.11105">
        <ele>448.11</ele>
        <time>2014-09-14T15:59:10Z</time>
      </trkpt>
      <trkpt lat="42.95798" lon="2.11115">
        <ele>447.63</ele>
        <time>2014-09-14T15:59:11Z</time>
      </trkpt>
      <trkpt lat="42.95797" lon="2.11129">
        <ele>446.67</ele>
        <time>2014-09-14T15:59:12Z</time>
      </trkpt>
      <trkpt lat="42.95792" lon="2.11141">
        <ele>445.71</ele>
        <time>2014-09-14T15:59:13Z</time>
      </trkpt>
      <trkpt lat="42.95785" lon="2.11151">
        <ele>444.75</ele>
        <time>2014-09-14T15:59:14Z</time>
      </trkpt>
      <trkpt lat="42.9578" lon="2.11163">
        <ele>444.27</ele>
        <time>2014-09-14T15:59:15Z</time>
      </trkpt>
      <trkpt lat="42.95776" lon="2.11175">
        <ele>443.31</ele>
        <time>2014-09-14T15:59:16Z</time>
      </trkpt>
      <trkpt lat="42.95777" lon="2.11191">
        <ele>442.34</ele>
        <time>2014-09-14T15:59:17Z</time>
      </trkpt>
      <trkpt lat="42.95779" lon="2.11204">
        <ele>441.38</ele>
        <time>2014-09-14T15:59:18Z</time>
      </trkpt>
      <trkpt lat="42.95783" lon="2.1122">
        <ele>440.42</ele>
        <time>2014-09-14T15:59:19Z</time>
      </trkpt>
      <trkpt lat="42.95795" lon="2.11257">
        <ele>437.54</ele>
        <time>2014-09-14T15:59:22Z</time>
      </trkpt>
      <trkpt lat="42.95802" lon="2.11268">
        <ele>437.06</ele>
        <time>2014-09-14T15:59:23Z</time>
      </trkpt>
      <trkpt lat="42.9581" lon="2.11276">
        <ele>436.1</ele>
        <time>2014-09-14T15:59:24Z</time>
      </trkpt>
      <trkpt lat="42.95819" lon="2.11284">
        <ele>435.13</ele>
        <time>2014-09-14T15:59:25Z</time>
      </trkpt>
      <trkpt lat="42.95827" lon="2.11294">
        <ele>434.17</ele>
        <time>2014-09-14T15:59:26Z</time>
      </trkpt>
      <trkpt lat="42.95832" lon="2.11307">
        <ele>433.21</ele>
        <time>2014-09-14T15:59:27Z</time>
      </trkpt>
      <trkpt lat="42.95833" lon="2.11321">
        <ele>432.73</ele>
        <time>2014-09-14T15:59:28Z</time>
      </trkpt>
      <trkpt lat="42.9583" lon="2.11336">
        <ele>431.77</ele>
        <time>2014-09-14T15:59:29Z</time>
      </trkpt>
      <trkpt lat="42.95828" lon="2.11351">
        <ele>430.81</ele>
        <time>2014-09-14T15:59:30Z</time>
      </trkpt>
      <trkpt lat="42.95827" lon="2.11366">
        <ele>430.33</ele>
        <time>2014-09-14T15:59:31Z</time>
      </trkpt>
      <trkpt lat="42.95828" lon="2.11381">
        <ele>429.37</ele>
        <time>2014-09-14T15:59:32Z</time>
      </trkpt>
      <trkpt lat="42.95831" lon="2.11396">
        <ele>428.4</ele>
        <time>2014-09-14T15:59:33Z</time>
      </trkpt>
      <trkpt lat="42.95835" lon="2.11412">
        <ele>427.92</ele>
        <time>2014-09-14T15:59:34Z</time>
      </trkpt>
      <trkpt lat="42.95889" lon="2.11639">
        <ele>417.83</ele>
        <time>2014-09-14T15:59:48Z</time>
      </trkpt>
      <trkpt lat="42.95918" lon="2.11779">
        <ele>412.06</ele>
        <time>2014-09-14T15:59:56Z</time>
      </trkpt>
      <trkpt lat="42.95951" lon="2.11964">
        <ele>405.81</ele>
        <time>2014-09-14T16:00:06Z</time>
      </trkpt>
      <trkpt lat="42.95974" lon="2.12115">
        <ele>399.08</ele>
        <time>2014-09-14T16:00:14Z</time>
      </trkpt>
      <trkpt lat="42.95979" lon="2.12132">
        <ele>398.12</ele>
        <time>2014-09-14T16:00:15Z</time>
      </trkpt>
      <trkpt lat="42.96071" lon="2.12378">
        <ele>384.66</ele>
        <time>2014-09-14T16:00:30Z</time>
      </trkpt>
      <trkpt lat="42.96077" lon="2.12388">
        <ele>383.7</ele>
        <time>2014-09-14T16:00:31Z</time>
      </trkpt>
      <trkpt lat="42.96087" lon="2.12401">
        <ele>383.22</ele>
        <time>2014-09-14T16:00:32Z</time>
      </trkpt>
      <trkpt lat="42.96097" lon="2.12411">
        <ele>382.26</ele>
        <time>2014-09-14T16:00:33Z</time>
      </trkpt>
      <trkpt lat="42.96108" lon="2.1242">
        <ele>381.78</ele>
        <time>2014-09-14T16:00:34Z</time>
      </trkpt>
      <trkpt lat="42.96122" lon="2.12428">
        <ele>380.82</ele>
        <time>2014-09-14T16:00:35Z</time>
      </trkpt>
      <trkpt lat="42.96231" lon="2.12506">
        <ele>373.61</ele>
        <time>2014-09-14T16:00:45Z</time>
      </trkpt>
      <trkpt lat="42.96266" lon="2.12529">
        <ele>371.69</ele>
        <time>2014-09-14T16:00:48Z</time>
      </trkpt>
      <trkpt lat="42.96274" lon="2.12537">
        <ele>370.73</ele>
        <time>2014-09-14T16:00:49Z</time>
      </trkpt>
      <trkpt lat="42.96303" lon="2.1257">
        <ele>368.8</ele>
        <time>2014-09-14T16:00:53Z</time>
      </trkpt>
      <trkpt lat="42.96311" lon="2.12572">
        <ele>368.8</ele>
        <time>2014-09-14T16:00:54Z</time>
      </trkpt>
      <trkpt lat="42.9632" lon="2.12571">
        <ele>368.32</ele>
        <time>2014-09-14T16:00:55Z</time>
      </trkpt>
      <trkpt lat="42.96327" lon="2.12569">
        <ele>368.32</ele>
        <time>2014-09-14T16:00:56Z</time>
      </trkpt>
      <trkpt lat="42.96334" lon="2.12569">
        <ele>367.84</ele>
        <time>2014-09-14T16:00:57Z</time>
      </trkpt>
      <trkpt lat="42.96339" lon="2.12571">
        <ele>367.84</ele>
        <time>2014-09-14T16:00:58Z</time>
      </trkpt>
      <trkpt lat="42.96345" lon="2.12576">
        <ele>367.84</ele>
        <time>2014-09-14T16:00:59Z</time>
      </trkpt>
      <trkpt lat="42.9635" lon="2.12581">
        <ele>367.84</ele>
        <time>2014-09-14T16:01:00Z</time>
      </trkpt>
      <trkpt lat="42.96355" lon="2.12586">
        <ele>367.84</ele>
        <time>2014-09-14T16:01:01Z</time>
      </trkpt>
      <trkpt lat="42.96359" lon="2.12592">
        <ele>367.84</ele>
        <time>2014-09-14T16:01:02Z</time>
      </trkpt>
      <trkpt lat="42.96362" lon="2.12599">
        <ele>367.36</ele>
        <time>2014-09-14T16:01:03Z</time>
      </trkpt>
      <trkpt lat="42.96364" lon="2.12607">
        <ele>367.36</ele>
        <time>2014-09-14T16:01:04Z</time>
      </trkpt>
      <trkpt lat="42.96365" lon="2.12616">
        <ele>367.36</ele>
        <time>2014-09-14T16:01:05Z</time>
      </trkpt>
      <trkpt lat="42.96365" lon="2.12624">
        <ele>366.88</ele>
        <time>2014-09-14T16:01:06Z</time>
      </trkpt>
      <trkpt lat="42.96369" lon="2.1265">
        <ele>366.4</ele>
        <time>2014-09-14T16:01:09Z</time>
      </trkpt>
      <trkpt lat="42.96381" lon="2.12691">
        <ele>365.44</ele>
        <time>2014-09-14T16:01:14Z</time>
      </trkpt>
      <trkpt lat="42.96388" lon="2.12725">
        <ele>364.96</ele>
        <time>2014-09-14T16:01:18Z</time>
      </trkpt>
      <trkpt lat="42.96389" lon="2.12733">
        <ele>364.96</ele>
        <time>2014-09-14T16:01:19Z</time>
      </trkpt>
      <trkpt lat="42.96388" lon="2.12743">
        <ele>364.96</ele>
        <time>2014-09-14T16:01:20Z</time>
      </trkpt>
      <trkpt lat="42.96386" lon="2.12751">
        <ele>364.48</ele>
        <time>2014-09-14T16:01:21Z</time>
      </trkpt>
      <trkpt lat="42.96383" lon="2.12759">
        <ele>364.48</ele>
        <time>2014-09-14T16:01:22Z</time>
      </trkpt>
      <trkpt lat="42.96378" lon="2.12776">
        <ele>364</ele>
        <time>2014-09-14T16:01:24Z</time>
      </trkpt>
      <trkpt lat="42.96377" lon="2.12784">
        <ele>364</ele>
        <time>2014-09-14T16:01:25Z</time>
      </trkpt>
      <trkpt lat="42.96378" lon="2.12793">
        <ele>364</ele>
        <time>2014-09-14T16:01:26Z</time>
      </trkpt>
      <trkpt lat="42.96381" lon="2.12802">
        <ele>363.52</ele>
        <time>2014-09-14T16:01:27Z</time>
      </trkpt>
      <trkpt lat="42.96384" lon="2.12809">
        <ele>363.52</ele>
        <time>2014-09-14T16:01:28Z</time>
      </trkpt>
      <trkpt lat="42.96387" lon="2.12815">
        <ele>363.52</ele>
        <time>2014-09-14T16:01:29Z</time>
      </trkpt>
      <trkpt lat="42.96391" lon="2.12822">
        <ele>363.52</ele>
        <time>2014-09-14T16:01:30Z</time>
      </trkpt>
      <trkpt lat="42.96459" lon="2.12927">
        <ele>363.52</ele>
        <time>2014-09-14T16:01:46Z</time>
      </trkpt>
      <trkpt lat="42.96513" lon="2.13035">
        <ele>361.59</ele>
        <time>2014-09-14T16:02:01Z</time>
      </trkpt>
      <trkpt lat="42.96591" lon="2.13179">
        <ele>358.71</ele>
        <time>2014-09-14T16:02:22Z</time>
      </trkpt>
      <trkpt lat="42.96657" lon="2.13287">
        <ele>357.75</ele>
        <time>2014-09-14T16:02:38Z</time>
      </trkpt>
      <trkpt lat="42.96727" lon="2.134">
        <ele>357.27</ele>
        <time>2014-09-14T16:02:57Z</time>
      </trkpt>
      <trkpt lat="42.96757" lon="2.13459">
        <ele>357.27</ele>
        <time>2014-09-14T16:03:08Z</time>
      </trkpt>
      <trkpt lat="42.96759" lon="2.13465">
        <ele>357.27</ele>
        <time>2014-09-14T16:03:09Z</time>
      </trkpt>
      <trkpt lat="42.96793" lon="2.13578">
        <ele>355.83</ele>
        <time>2014-09-14T16:03:26Z</time>
      </trkpt>
      <trkpt lat="42.96849" lon="2.13649">
        <ele>354.86</ele>
        <time>2014-09-14T16:03:39Z</time>
      </trkpt>
      <trkpt lat="42.96889" lon="2.13744">
        <ele>353.42</ele>
        <time>2014-09-14T16:03:53Z</time>
      </trkpt>
      <trkpt lat="42.96945" lon="2.13835">
        <ele>351.98</ele>
        <time>2014-09-14T16:04:06Z</time>
      </trkpt>
      <trkpt lat="42.97041" lon="2.13937">
        <ele>350.06</ele>
        <time>2014-09-14T16:04:21Z</time>
      </trkpt>
      <trkpt lat="42.97144" lon="2.14041">
        <ele>348.62</ele>
        <time>2014-09-14T16:04:36Z</time>
      </trkpt>
      <trkpt lat="42.9715" lon="2.14049">
        <ele>348.62</ele>
        <time>2014-09-14T16:04:37Z</time>
      </trkpt>
      <trkpt lat="42.97154" lon="2.14059">
        <ele>348.62</ele>
        <time>2014-09-14T16:04:38Z</time>
      </trkpt>
      <trkpt lat="42.97157" lon="2.14071">
        <ele>348.62</ele>
        <time>2014-09-14T16:04:39Z</time>
      </trkpt>
      <trkpt lat="42.97159" lon="2.14083">
        <ele>348.62</ele>
        <time>2014-09-14T16:04:40Z</time>
      </trkpt>
      <trkpt lat="42.97161" lon="2.14096">
        <ele>348.13</ele>
        <time>2014-09-14T16:04:41Z</time>
      </trkpt>
      <trkpt lat="42.97164" lon="2.1411">
        <ele>348.13</ele>
        <time>2014-09-14T16:04:42Z</time>
      </trkpt>
      <trkpt lat="42.97167" lon="2.14122">
        <ele>347.65</ele>
        <time>2014-09-14T16:04:43Z</time>
      </trkpt>
      <trkpt lat="42.9717" lon="2.14131">
        <ele>347.65</ele>
        <time>2014-09-14T16:04:44Z</time>
      </trkpt>
      <trkpt lat="42.9718" lon="2.14154">
        <ele>346.69</ele>
        <time>2014-09-14T16:04:46Z</time>
      </trkpt>
      <trkpt lat="42.97244" lon="2.1429">
        <ele>342.37</ele>
        <time>2014-09-14T16:04:58Z</time>
      </trkpt>
      <trkpt lat="42.97252" lon="2.14302">
        <ele>342.37</ele>
        <time>2014-09-14T16:04:59Z</time>
      </trkpt>
      <trkpt lat="42.97259" lon="2.1431">
        <ele>341.89</ele>
        <time>2014-09-14T16:05:00Z</time>
      </trkpt>
      <trkpt lat="42.97267" lon="2.14316">
        <ele>341.89</ele>
        <time>2014-09-14T16:05:01Z</time>
      </trkpt>
      <trkpt lat="42.97276" lon="2.14322">
        <ele>341.89</ele>
        <time>2014-09-14T16:05:02Z</time>
      </trkpt>
      <trkpt lat="42.97284" lon="2.14328">
        <ele>341.89</ele>
        <time>2014-09-14T16:05:03Z</time>
      </trkpt>
      <trkpt lat="42.97349" lon="2.14388">
        <ele>339.96</ele>
        <time>2014-09-14T16:05:11Z</time>
      </trkpt>
      <trkpt lat="42.97354" lon="2.14397">
        <ele>339.96</ele>
        <time>2014-09-14T16:05:12Z</time>
      </trkpt>
      <trkpt lat="42.97359" lon="2.14406">
        <ele>339.48</ele>
        <time>2014-09-14T16:05:13Z</time>
      </trkpt>
      <trkpt lat="42.97376" lon="2.14451">
        <ele>338.52</ele>
        <time>2014-09-14T16:05:18Z</time>
      </trkpt>
      <trkpt lat="42.9738" lon="2.1446">
        <ele>338.04</ele>
        <time>2014-09-14T16:05:19Z</time>
      </trkpt>
      <trkpt lat="42.97446" lon="2.14574">
        <ele>334.2</ele>
        <time>2014-09-14T16:05:31Z</time>
      </trkpt>
      <trkpt lat="42.97573" lon="2.14696">
        <ele>328.43</ele>
        <time>2014-09-14T16:05:46Z</time>
      </trkpt>
      <trkpt lat="42.97725" lon="2.14792">
        <ele>324.1</ele>
        <time>2014-09-14T16:06:02Z</time>
      </trkpt>
      <trkpt lat="42.97771" lon="2.14813">
        <ele>323.14</ele>
        <time>2014-09-14T16:06:07Z</time>
      </trkpt>
      <trkpt lat="42.9778" lon="2.14821">
        <ele>322.66</ele>
        <time>2014-09-14T16:06:08Z</time>
      </trkpt>
      <trkpt lat="42.97787" lon="2.14831">
        <ele>322.66</ele>
        <time>2014-09-14T16:06:09Z</time>
      </trkpt>
      <trkpt lat="42.97792" lon="2.14842">
        <ele>322.18</ele>
        <time>2014-09-14T16:06:10Z</time>
      </trkpt>
      <trkpt lat="42.97797" lon="2.14853">
        <ele>322.18</ele>
        <time>2014-09-14T16:06:11Z</time>
      </trkpt>
      <trkpt lat="42.97809" lon="2.14877">
        <ele>321.7</ele>
        <time>2014-09-14T16:06:13Z</time>
      </trkpt>
      <trkpt lat="42.97882" lon="2.14965">
        <ele>320.74</ele>
        <time>2014-09-14T16:06:23Z</time>
      </trkpt>
      <trkpt lat="42.9789" lon="2.14971">
        <ele>320.74</ele>
        <time>2014-09-14T16:06:24Z</time>
      </trkpt>
      <trkpt lat="42.97899" lon="2.14975">
        <ele>320.74</ele>
        <time>2014-09-14T16:06:25Z</time>
      </trkpt>
      <trkpt lat="42.97908" lon="2.14978">
        <ele>320.74</ele>
        <time>2014-09-14T16:06:26Z</time>
      </trkpt>
      <trkpt lat="42.97918" lon="2.14981">
        <ele>320.74</ele>
        <time>2014-09-14T16:06:27Z</time>
      </trkpt>
      <trkpt lat="42.97963" lon="2.14996">
        <ele>320.74</ele>
        <time>2014-09-14T16:06:32Z</time>
      </trkpt>
      <trkpt lat="42.97971" lon="2.15002">
        <ele>320.74</ele>
        <time>2014-09-14T16:06:33Z</time>
      </trkpt>
      <trkpt lat="42.97978" lon="2.15012">
        <ele>320.74</ele>
        <time>2014-09-14T16:06:34Z</time>
      </trkpt>
      <trkpt lat="42.97984" lon="2.1502">
        <ele>320.26</ele>
        <time>2014-09-14T16:06:35Z</time>
      </trkpt>
      <trkpt lat="42.9799" lon="2.1503">
        <ele>320.26</ele>
        <time>2014-09-14T16:06:36Z</time>
      </trkpt>
      <trkpt lat="42.97995" lon="2.15042">
        <ele>320.26</ele>
        <time>2014-09-14T16:06:37Z</time>
      </trkpt>
      <trkpt lat="42.98024" lon="2.1509">
        <ele>319.78</ele>
        <time>2014-09-14T16:06:42Z</time>
      </trkpt>
      <trkpt lat="42.98032" lon="2.15096">
        <ele>319.3</ele>
        <time>2014-09-14T16:06:43Z</time>
      </trkpt>
      <trkpt lat="42.98041" lon="2.15102">
        <ele>319.3</ele>
        <time>2014-09-14T16:06:44Z</time>
      </trkpt>
      <trkpt lat="42.9805" lon="2.15107">
        <ele>319.3</ele>
        <time>2014-09-14T16:06:45Z</time>
      </trkpt>
      <trkpt lat="42.98058" lon="2.1511">
        <ele>319.3</ele>
        <time>2014-09-14T16:06:46Z</time>
      </trkpt>
      <trkpt lat="42.98085" lon="2.15121">
        <ele>318.81</ele>
        <time>2014-09-14T16:06:49Z</time>
      </trkpt>
      <trkpt lat="42.98094" lon="2.15127">
        <ele>318.81</ele>
        <time>2014-09-14T16:06:50Z</time>
      </trkpt>
      <trkpt lat="42.98101" lon="2.15134">
        <ele>318.81</ele>
        <time>2014-09-14T16:06:51Z</time>
      </trkpt>
      <trkpt lat="42.98108" lon="2.15142">
        <ele>318.81</ele>
        <time>2014-09-14T16:06:52Z</time>
      </trkpt>
      <trkpt lat="42.98114" lon="2.15151">
        <ele>318.81</ele>
        <time>2014-09-14T16:06:53Z</time>
      </trkpt>
      <trkpt lat="42.9812" lon="2.1516">
        <ele>318.81</ele>
        <time>2014-09-14T16:06:54Z</time>
      </trkpt>
      <trkpt lat="42.98125" lon="2.15171">
        <ele>318.81</ele>
        <time>2014-09-14T16:06:55Z</time>
      </trkpt>
      <trkpt lat="42.98126" lon="2.15182">
        <ele>318.81</ele>
        <time>2014-09-14T16:06:56Z</time>
      </trkpt>
      <trkpt lat="42.98123" lon="2.15195">
        <ele>318.33</ele>
        <time>2014-09-14T16:06:57Z</time>
      </trkpt>
      <trkpt lat="42.98118" lon="2.15206">
        <ele>318.33</ele>
        <time>2014-09-14T16:06:58Z</time>
      </trkpt>
      <trkpt lat="42.98113" lon="2.15215">
        <ele>318.33</ele>
        <time>2014-09-14T16:06:59Z</time>
      </trkpt>
      <trkpt lat="42.98107" lon="2.15226">
        <ele>317.85</ele>
        <time>2014-09-14T16:07:00Z</time>
      </trkpt>
      <trkpt lat="42.98102" lon="2.15237">
        <ele>317.85</ele>
        <time>2014-09-14T16:07:01Z</time>
      </trkpt>
      <trkpt lat="42.98099" lon="2.15246">
        <ele>317.85</ele>
        <time>2014-09-14T16:07:02Z</time>
      </trkpt>
      <trkpt lat="42.98097" lon="2.15258">
        <ele>317.37</ele>
        <time>2014-09-14T16:07:03Z</time>
      </trkpt>
      <trkpt lat="42.98096" lon="2.15272">
        <ele>317.37</ele>
        <time>2014-09-14T16:07:04Z</time>
      </trkpt>
      <trkpt lat="42.98095" lon="2.15284">
        <ele>316.89</ele>
        <time>2014-09-14T16:07:05Z</time>
      </trkpt>
      <trkpt lat="42.98095" lon="2.15295">
        <ele>316.89</ele>
        <time>2014-09-14T16:07:06Z</time>
      </trkpt>
      <trkpt lat="42.98103" lon="2.15494">
        <ele>315.45</ele>
        <time>2014-09-14T16:07:22Z</time>
      </trkpt>
      <trkpt lat="42.98125" lon="2.15589">
        <ele>314.49</ele>
        <time>2014-09-14T16:07:30Z</time>
      </trkpt>
      <trkpt lat="42.98129" lon="2.15598">
        <ele>314.49</ele>
        <time>2014-09-14T16:07:31Z</time>
      </trkpt>
      <trkpt lat="42.98195" lon="2.15755">
        <ele>312.09</ele>
        <time>2014-09-14T16:07:45Z</time>
      </trkpt>
      <trkpt lat="42.98253" lon="2.15932">
        <ele>308.24</ele>
        <time>2014-09-14T16:08:00Z</time>
      </trkpt>
      <trkpt lat="42.9829" lon="2.16055">
        <ele>305.84</ele>
        <time>2014-09-14T16:08:10Z</time>
      </trkpt>
      <trkpt lat="42.98297" lon="2.16068">
        <ele>305.36</ele>
        <time>2014-09-14T16:08:11Z</time>
      </trkpt>
      <trkpt lat="42.98302" lon="2.16077">
        <ele>305.36</ele>
        <time>2014-09-14T16:08:12Z</time>
      </trkpt>
      <trkpt lat="42.98311" lon="2.16088">
        <ele>304.88</ele>
        <time>2014-09-14T16:08:13Z</time>
      </trkpt>
      <trkpt lat="42.98318" lon="2.16094">
        <ele>304.88</ele>
        <time>2014-09-14T16:08:14Z</time>
      </trkpt>
      <trkpt lat="42.98326" lon="2.16101">
        <ele>304.88</ele>
        <time>2014-09-14T16:08:15Z</time>
      </trkpt>
      <trkpt lat="42.98334" lon="2.16107">
        <ele>304.39</ele>
        <time>2014-09-14T16:08:16Z</time>
      </trkpt>
      <trkpt lat="42.98343" lon="2.16113">
        <ele>304.39</ele>
        <time>2014-09-14T16:08:17Z</time>
      </trkpt>
      <trkpt lat="42.98359" lon="2.16128">
        <ele>304.39</ele>
        <time>2014-09-14T16:08:19Z</time>
      </trkpt>
      <trkpt lat="42.98365" lon="2.16138">
        <ele>303.91</ele>
        <time>2014-09-14T16:08:20Z</time>
      </trkpt>
      <trkpt lat="42.98371" lon="2.1615">
        <ele>303.91</ele>
        <time>2014-09-14T16:08:21Z</time>
      </trkpt>
      <trkpt lat="42.98375" lon="2.16161">
        <ele>303.43</ele>
        <time>2014-09-14T16:08:22Z</time>
      </trkpt>
      <trkpt lat="42.98379" lon="2.16173">
        <ele>303.43</ele>
        <time>2014-09-14T16:08:23Z</time>
      </trkpt>
      <trkpt lat="42.9843" lon="2.16341">
        <ele>301.99</ele>
        <time>2014-09-14T16:08:37Z</time>
      </trkpt>
      <trkpt lat="42.98435" lon="2.1635">
        <ele>301.99</ele>
        <time>2014-09-14T16:08:38Z</time>
      </trkpt>
      <trkpt lat="42.98442" lon="2.1636">
        <ele>301.99</ele>
        <time>2014-09-14T16:08:39Z</time>
      </trkpt>
      <trkpt lat="42.98499" lon="2.16428">
        <ele>301.99</ele>
        <time>2014-09-14T16:08:47Z</time>
      </trkpt>
      <trkpt lat="42.98506" lon="2.16434">
        <ele>301.99</ele>
        <time>2014-09-14T16:08:48Z</time>
      </trkpt>
      <trkpt lat="42.98514" lon="2.1644">
        <ele>301.99</ele>
        <time>2014-09-14T16:08:49Z</time>
      </trkpt>
      <trkpt lat="42.98553" lon="2.16468">
        <ele>301.51</ele>
        <time>2014-09-14T16:08:54Z</time>
      </trkpt>
      <trkpt lat="42.98561" lon="2.16476">
        <ele>301.51</ele>
        <time>2014-09-14T16:08:55Z</time>
      </trkpt>
      <trkpt lat="42.98566" lon="2.16484">
        <ele>301.99</ele>
        <time>2014-09-14T16:08:56Z</time>
      </trkpt>
      <trkpt lat="42.98611" lon="2.16591">
        <ele>300.55</ele>
        <time>2014-09-14T16:09:07Z</time>
      </trkpt>
      <trkpt lat="42.98616" lon="2.16599">
        <ele>300.55</ele>
        <time>2014-09-14T16:09:08Z</time>
      </trkpt>
      <trkpt lat="42.98622" lon="2.16607">
        <ele>300.07</ele>
        <time>2014-09-14T16:09:09Z</time>
      </trkpt>
      <trkpt lat="42.98629" lon="2.16613">
        <ele>300.07</ele>
        <time>2014-09-14T16:09:10Z</time>
      </trkpt>
      <trkpt lat="42.98644" lon="2.16625">
        <ele>299.59</ele>
        <time>2014-09-14T16:09:12Z</time>
      </trkpt>
      <trkpt lat="42.98649" lon="2.16633">
        <ele>299.11</ele>
        <time>2014-09-14T16:09:13Z</time>
      </trkpt>
      <trkpt lat="42.98655" lon="2.16643">
        <ele>299.11</ele>
        <time>2014-09-14T16:09:14Z</time>
      </trkpt>
      <trkpt lat="42.98687" lon="2.16712">
        <ele>300.07</ele>
        <time>2014-09-14T16:09:21Z</time>
      </trkpt>
      <trkpt lat="42.98693" lon="2.16719">
        <ele>300.07</ele>
        <time>2014-09-14T16:09:22Z</time>
      </trkpt>
      <trkpt lat="42.98701" lon="2.16723">
        <ele>300.07</ele>
        <time>2014-09-14T16:09:23Z</time>
      </trkpt>
      <trkpt lat="42.9871" lon="2.16726">
        <ele>300.07</ele>
        <time>2014-09-14T16:09:24Z</time>
      </trkpt>
      <trkpt lat="42.98718" lon="2.16727">
        <ele>300.07</ele>
        <time>2014-09-14T16:09:25Z</time>
      </trkpt>
      <trkpt lat="42.98726" lon="2.16727">
        <ele>300.07</ele>
        <time>2014-09-14T16:09:26Z</time>
      </trkpt>
      <trkpt lat="42.98735" lon="2.16725">
        <ele>300.07</ele>
        <time>2014-09-14T16:09:27Z</time>
      </trkpt>
      <trkpt lat="42.98742" lon="2.16723">
        <ele>300.07</ele>
        <time>2014-09-14T16:09:28Z</time>
      </trkpt>
      <trkpt lat="42.98796" lon="2.16719">
        <ele>300.55</ele>
        <time>2014-09-14T16:09:35Z</time>
      </trkpt>
      <trkpt lat="42.98803" lon="2.16721">
        <ele>300.55</ele>
        <time>2014-09-14T16:09:36Z</time>
      </trkpt>
      <trkpt lat="42.98811" lon="2.16724">
        <ele>300.55</ele>
        <time>2014-09-14T16:09:37Z</time>
      </trkpt>
      <trkpt lat="42.98817" lon="2.16729">
        <ele>301.03</ele>
        <time>2014-09-14T16:09:38Z</time>
      </trkpt>
      <trkpt lat="42.98822" lon="2.16735">
        <ele>301.03</ele>
        <time>2014-09-14T16:09:39Z</time>
      </trkpt>
      <trkpt lat="42.98827" lon="2.16743">
        <ele>301.03</ele>
        <time>2014-09-14T16:09:40Z</time>
      </trkpt>
      <trkpt lat="42.98831" lon="2.16752">
        <ele>301.51</ele>
        <time>2014-09-14T16:09:41Z</time>
      </trkpt>
      <trkpt lat="42.98834" lon="2.1676">
        <ele>301.51</ele>
        <time>2014-09-14T16:09:42Z</time>
      </trkpt>
      <trkpt lat="42.9885" lon="2.16793">
        <ele>302.47</ele>
        <time>2014-09-14T16:09:46Z</time>
      </trkpt>
      <trkpt lat="42.98855" lon="2.16801">
        <ele>302.47</ele>
        <time>2014-09-14T16:09:47Z</time>
      </trkpt>
      <trkpt lat="42.98861" lon="2.16808">
        <ele>302.47</ele>
        <time>2014-09-14T16:09:48Z</time>
      </trkpt>
      <trkpt lat="42.98942" lon="2.16894">
        <ele>300.07</ele>
        <time>2014-09-14T16:10:00Z</time>
      </trkpt>
      <trkpt lat="42.98991" lon="2.1697">
        <ele>297.18</ele>
        <time>2014-09-14T16:10:08Z</time>
      </trkpt>
      <trkpt lat="42.98995" lon="2.16983">
        <ele>297.18</ele>
        <time>2014-09-14T16:10:09Z</time>
      </trkpt>
      <trkpt lat="42.98998" lon="2.16993">
        <ele>296.7</ele>
        <time>2014-09-14T16:10:10Z</time>
      </trkpt>
      <trkpt lat="42.99001" lon="2.17006">
        <ele>296.7</ele>
        <time>2014-09-14T16:10:11Z</time>
      </trkpt>
      <trkpt lat="42.99003" lon="2.17018">
        <ele>296.22</ele>
        <time>2014-09-14T16:10:12Z</time>
      </trkpt>
      <trkpt lat="42.99057" lon="2.17192">
        <ele>292.86</ele>
        <time>2014-09-14T16:10:27Z</time>
      </trkpt>
      <trkpt lat="42.99108" lon="2.17337">
        <ele>290.94</ele>
        <time>2014-09-14T16:10:40Z</time>
      </trkpt>
      <trkpt lat="42.99151" lon="2.17519">
        <ele>288.53</ele>
        <time>2014-09-14T16:10:55Z</time>
      </trkpt>
      <trkpt lat="42.99154" lon="2.17666">
        <ele>287.57</ele>
        <time>2014-09-14T16:11:07Z</time>
      </trkpt>
      <trkpt lat="42.99164" lon="2.17902">
        <ele>285.17</ele>
        <time>2014-09-14T16:11:26Z</time>
      </trkpt>
      <trkpt lat="42.99167" lon="2.17913">
        <ele>284.69</ele>
        <time>2014-09-14T16:11:27Z</time>
      </trkpt>
      <trkpt lat="42.99171" lon="2.17921">
        <ele>284.69</ele>
        <time>2014-09-14T16:11:28Z</time>
      </trkpt>
      <trkpt lat="42.99176" lon="2.1793">
        <ele>284.69</ele>
        <time>2014-09-14T16:11:29Z</time>
      </trkpt>
      <trkpt lat="42.99182" lon="2.17939">
        <ele>284.69</ele>
        <time>2014-09-14T16:11:30Z</time>
      </trkpt>
      <trkpt lat="42.992" lon="2.17966">
        <ele>284.21</ele>
        <time>2014-09-14T16:11:33Z</time>
      </trkpt>
      <trkpt lat="42.99205" lon="2.17977">
        <ele>284.21</ele>
        <time>2014-09-14T16:11:34Z</time>
      </trkpt>
      <trkpt lat="42.99209" lon="2.17988">
        <ele>284.21</ele>
        <time>2014-09-14T16:11:35Z</time>
      </trkpt>
      <trkpt lat="42.99222" lon="2.18042">
        <ele>283.73</ele>
        <time>2014-09-14T16:11:40Z</time>
      </trkpt>
      <trkpt lat="42.99223" lon="2.18055">
        <ele>283.25</ele>
        <time>2014-09-14T16:11:41Z</time>
      </trkpt>
      <trkpt lat="42.99222" lon="2.18066">
        <ele>283.25</ele>
        <time>2014-09-14T16:11:42Z</time>
      </trkpt>
      <trkpt lat="42.99221" lon="2.18077">
        <ele>282.77</ele>
        <time>2014-09-14T16:11:43Z</time>
      </trkpt>
      <trkpt lat="42.99218" lon="2.18089">
        <ele>282.77</ele>
        <time>2014-09-14T16:11:44Z</time>
      </trkpt>
      <trkpt lat="42.99204" lon="2.18204">
        <ele>282.28</ele>
        <time>2014-09-14T16:11:54Z</time>
      </trkpt>
      <trkpt lat="42.99205" lon="2.18216">
        <ele>282.28</ele>
        <time>2014-09-14T16:11:55Z</time>
      </trkpt>
      <trkpt lat="42.99207" lon="2.18228">
        <ele>282.28</ele>
        <time>2014-09-14T16:11:56Z</time>
      </trkpt>
      <trkpt lat="42.99253" lon="2.1842">
        <ele>283.25</ele>
        <time>2014-09-14T16:12:12Z</time>
      </trkpt>
      <trkpt lat="42.99309" lon="2.18616">
        <ele>281.8</ele>
        <time>2014-09-14T16:12:29Z</time>
      </trkpt>
      <trkpt lat="42.99354" lon="2.187">
        <ele>280.84</ele>
        <time>2014-09-14T16:12:37Z</time>
      </trkpt>
      <trkpt lat="42.99361" lon="2.18708">
        <ele>280.84</ele>
        <time>2014-09-14T16:12:38Z</time>
      </trkpt>
      <trkpt lat="42.9937" lon="2.18716">
        <ele>280.36</ele>
        <time>2014-09-14T16:12:39Z</time>
      </trkpt>
      <trkpt lat="42.99378" lon="2.18721">
        <ele>280.36</ele>
        <time>2014-09-14T16:12:40Z</time>
      </trkpt>
      <trkpt lat="42.99388" lon="2.18726">
        <ele>280.36</ele>
        <time>2014-09-14T16:12:41Z</time>
      </trkpt>
      <trkpt lat="42.99396" lon="2.18729">
        <ele>279.88</ele>
        <time>2014-09-14T16:12:42Z</time>
      </trkpt>
      <trkpt lat="42.99551" lon="2.18778">
        <ele>277</ele>
        <time>2014-09-14T16:12:58Z</time>
      </trkpt>
      <trkpt lat="42.99601" lon="2.18799">
        <ele>276.04</ele>
        <time>2014-09-14T16:13:03Z</time>
      </trkpt>
      <trkpt lat="42.99608" lon="2.18805">
        <ele>275.56</ele>
        <time>2014-09-14T16:13:04Z</time>
      </trkpt>
      <trkpt lat="42.99616" lon="2.18814">
        <ele>275.07</ele>
        <time>2014-09-14T16:13:05Z</time>
      </trkpt>
      <trkpt lat="42.99623" lon="2.18826">
        <ele>274.59</ele>
        <time>2014-09-14T16:13:06Z</time>
      </trkpt>
      <trkpt lat="42.99627" lon="2.18838">
        <ele>274.11</ele>
        <time>2014-09-14T16:13:07Z</time>
      </trkpt>
      <trkpt lat="42.99631" lon="2.1885">
        <ele>274.11</ele>
        <time>2014-09-14T16:13:08Z</time>
      </trkpt>
      <trkpt lat="42.99633" lon="2.18864">
        <ele>273.63</ele>
        <time>2014-09-14T16:13:09Z</time>
      </trkpt>
      <trkpt lat="42.99636" lon="2.18878">
        <ele>273.63</ele>
        <time>2014-09-14T16:13:10Z</time>
      </trkpt>
      <trkpt lat="42.99686" lon="2.19087">
        <ele>272.19</ele>
        <time>2014-09-14T16:13:27Z</time>
      </trkpt>
      <trkpt lat="42.99738" lon="2.19232">
        <ele>270.75</ele>
        <time>2014-09-14T16:13:39Z</time>
      </trkpt>
      <trkpt lat="42.99739" lon="2.19245">
        <ele>270.27</ele>
        <time>2014-09-14T16:13:40Z</time>
      </trkpt>
      <trkpt lat="42.99738" lon="2.19261">
        <ele>270.27</ele>
        <time>2014-09-14T16:13:41Z</time>
      </trkpt>
      <trkpt lat="42.99737" lon="2.19273">
        <ele>269.79</ele>
        <time>2014-09-14T16:13:42Z</time>
      </trkpt>
      <trkpt lat="42.99735" lon="2.19286">
        <ele>269.79</ele>
        <time>2014-09-14T16:13:43Z</time>
      </trkpt>
      <trkpt lat="42.9971" lon="2.19442">
        <ele>266.42</ele>
        <time>2014-09-14T16:13:55Z</time>
      </trkpt>
      <trkpt lat="42.9971" lon="2.19459">
        <ele>265.94</ele>
        <time>2014-09-14T16:13:56Z</time>
      </trkpt>
      <trkpt lat="42.99711" lon="2.1947">
        <ele>265.46</ele>
        <time>2014-09-14T16:13:57Z</time>
      </trkpt>
      <trkpt lat="42.99713" lon="2.19484">
        <ele>265.46</ele>
        <time>2014-09-14T16:13:58Z</time>
      </trkpt>
      <trkpt lat="42.99716" lon="2.19499">
        <ele>264.98</ele>
        <time>2014-09-14T16:13:59Z</time>
      </trkpt>
      <trkpt lat="42.99719" lon="2.1951">
        <ele>264.98</ele>
        <time>2014-09-14T16:14:00Z</time>
      </trkpt>
      <trkpt lat="42.99723" lon="2.19523">
        <ele>264.5</ele>
        <time>2014-09-14T16:14:01Z</time>
      </trkpt>
      <trkpt lat="42.99761" lon="2.19643">
        <ele>262.1</ele>
        <time>2014-09-14T16:14:10Z</time>
      </trkpt>
      <trkpt lat="42.99764" lon="2.19659">
        <ele>261.62</ele>
        <time>2014-09-14T16:14:11Z</time>
      </trkpt>
      <trkpt lat="42.99765" lon="2.19671">
        <ele>261.62</ele>
        <time>2014-09-14T16:14:12Z</time>
      </trkpt>
      <trkpt lat="42.99772" lon="2.19782">
        <ele>259.69</ele>
        <time>2014-09-14T16:14:20Z</time>
      </trkpt>
      <trkpt lat="42.99775" lon="2.19794">
        <ele>259.69</ele>
        <time>2014-09-14T16:14:21Z</time>
      </trkpt>
      <trkpt lat="42.9978" lon="2.19806">
        <ele>259.21</ele>
        <time>2014-09-14T16:14:22Z</time>
      </trkpt>
      <trkpt lat="42.99785" lon="2.19817">
        <ele>258.73</ele>
        <time>2014-09-14T16:14:23Z</time>
      </trkpt>
      <trkpt lat="42.99791" lon="2.19828">
        <ele>258.25</ele>
        <time>2014-09-14T16:14:24Z</time>
      </trkpt>
      <trkpt lat="42.99808" lon="2.19862">
        <ele>257.29</ele>
        <time>2014-09-14T16:14:27Z</time>
      </trkpt>
      <trkpt lat="42.99813" lon="2.19874">
        <ele>256.81</ele>
        <time>2014-09-14T16:14:28Z</time>
      </trkpt>
      <trkpt lat="42.99817" lon="2.19888">
        <ele>256.33</ele>
        <time>2014-09-14T16:14:29Z</time>
      </trkpt>
      <trkpt lat="42.9985" lon="2.20066">
        <ele>256.81</ele>
        <time>2014-09-14T16:14:43Z</time>
      </trkpt>
      <trkpt lat="42.99892" lon="2.20243">
        <ele>259.21</ele>
        <time>2014-09-14T16:14:58Z</time>
      </trkpt>
      <trkpt lat="42.9996" lon="2.20339">
        <ele>259.21</ele>
        <time>2014-09-14T16:15:09Z</time>
      </trkpt>
      <trkpt lat="43.00008" lon="2.20381">
        <ele>258.25</ele>
        <time>2014-09-14T16:15:15Z</time>
      </trkpt>
      <trkpt lat="43.00016" lon="2.20384">
        <ele>258.25</ele>
        <time>2014-09-14T16:15:16Z</time>
      </trkpt>
      <trkpt lat="43.00026" lon="2.20387">
        <ele>257.77</ele>
        <time>2014-09-14T16:15:17Z</time>
      </trkpt>
      <trkpt lat="43.00036" lon="2.20388">
        <ele>257.77</ele>
        <time>2014-09-14T16:15:18Z</time>
      </trkpt>
      <trkpt lat="43.00044" lon="2.20388">
        <ele>257.29</ele>
        <time>2014-09-14T16:15:19Z</time>
      </trkpt>
      <trkpt lat="43.00054" lon="2.20387">
        <ele>257.29</ele>
        <time>2014-09-14T16:15:20Z</time>
      </trkpt>
      <trkpt lat="43.00064" lon="2.20384">
        <ele>256.81</ele>
        <time>2014-09-14T16:15:21Z</time>
      </trkpt>
      <trkpt lat="43.00072" lon="2.20381">
        <ele>256.81</ele>
        <time>2014-09-14T16:15:22Z</time>
      </trkpt>
      <trkpt lat="43.00125" lon="2.20349">
        <ele>254.89</ele>
        <time>2014-09-14T16:15:28Z</time>
      </trkpt>
      <trkpt lat="43.00135" lon="2.20345">
        <ele>254.41</ele>
        <time>2014-09-14T16:15:29Z</time>
      </trkpt>
      <trkpt lat="43.00142" lon="2.20344">
        <ele>254.41</ele>
        <time>2014-09-14T16:15:30Z</time>
      </trkpt>
      <trkpt lat="43.00153" lon="2.20344">
        <ele>254.41</ele>
        <time>2014-09-14T16:15:31Z</time>
      </trkpt>
      <trkpt lat="43.00161" lon="2.20345">
        <ele>253.93</ele>
        <time>2014-09-14T16:15:32Z</time>
      </trkpt>
      <trkpt lat="43.0017" lon="2.20347">
        <ele>253.93</ele>
        <time>2014-09-14T16:15:33Z</time>
      </trkpt>
      <trkpt lat="43.00178" lon="2.20351">
        <ele>253.93</ele>
        <time>2014-09-14T16:15:34Z</time>
      </trkpt>
      <trkpt lat="43.00186" lon="2.20356">
        <ele>254.41</ele>
        <time>2014-09-14T16:15:35Z</time>
      </trkpt>
      <trkpt lat="43.00193" lon="2.20364">
        <ele>254.41</ele>
        <time>2014-09-14T16:15:36Z</time>
      </trkpt>
      <trkpt lat="43.00199" lon="2.20375">
        <ele>254.41</ele>
        <time>2014-09-14T16:15:37Z</time>
      </trkpt>
      <trkpt lat="43.00205" lon="2.20387">
        <ele>254.41</ele>
        <time>2014-09-14T16:15:38Z</time>
      </trkpt>
      <trkpt lat="43.00211" lon="2.20398">
        <ele>253.93</ele>
        <time>2014-09-14T16:15:39Z</time>
      </trkpt>
      <trkpt lat="43.00217" lon="2.20407">
        <ele>253.93</ele>
        <time>2014-09-14T16:15:40Z</time>
      </trkpt>
      <trkpt lat="43.00226" lon="2.20414">
        <ele>253.93</ele>
        <time>2014-09-14T16:15:41Z</time>
      </trkpt>
      <trkpt lat="43.00235" lon="2.20417">
        <ele>253.44</ele>
        <time>2014-09-14T16:15:42Z</time>
      </trkpt>
      <trkpt lat="43.00245" lon="2.20419">
        <ele>253.93</ele>
        <time>2014-09-14T16:15:43Z</time>
      </trkpt>
      <trkpt lat="43.00254" lon="2.20419">
        <ele>253.93</ele>
        <time>2014-09-14T16:15:44Z</time>
      </trkpt>
      <trkpt lat="43.00386" lon="2.20408">
        <ele>254.89</ele>
        <time>2014-09-14T16:15:58Z</time>
      </trkpt>
      <trkpt lat="43.00451" lon="2.20395">
        <ele>254.89</ele>
        <time>2014-09-14T16:16:05Z</time>
      </trkpt>
      <trkpt lat="43.00461" lon="2.20389">
        <ele>254.89</ele>
        <time>2014-09-14T16:16:06Z</time>
      </trkpt>
      <trkpt lat="43.00467" lon="2.20383">
        <ele>254.89</ele>
        <time>2014-09-14T16:16:07Z</time>
      </trkpt>
      <trkpt lat="43.00474" lon="2.20374">
        <ele>254.41</ele>
        <time>2014-09-14T16:16:08Z</time>
      </trkpt>
      <trkpt lat="43.0048" lon="2.20363">
        <ele>254.41</ele>
        <time>2014-09-14T16:16:09Z</time>
      </trkpt>
      <trkpt lat="43.00485" lon="2.20352">
        <ele>254.41</ele>
        <time>2014-09-14T16:16:10Z</time>
      </trkpt>
      <trkpt lat="43.00489" lon="2.2034">
        <ele>253.93</ele>
        <time>2014-09-14T16:16:11Z</time>
      </trkpt>
      <trkpt lat="43.00498" lon="2.20317">
        <ele>253.44</ele>
        <time>2014-09-14T16:16:13Z</time>
      </trkpt>
      <trkpt lat="43.00504" lon="2.20306">
        <ele>253.44</ele>
        <time>2014-09-14T16:16:14Z</time>
      </trkpt>
      <trkpt lat="43.00511" lon="2.20296">
        <ele>253.44</ele>
        <time>2014-09-14T16:16:15Z</time>
      </trkpt>
      <trkpt lat="43.00518" lon="2.20287">
        <ele>253.44</ele>
        <time>2014-09-14T16:16:16Z</time>
      </trkpt>
      <trkpt lat="43.00526" lon="2.20279">
        <ele>253.44</ele>
        <time>2014-09-14T16:16:17Z</time>
      </trkpt>
      <trkpt lat="43.00534" lon="2.20272">
        <ele>252.96</ele>
        <time>2014-09-14T16:16:18Z</time>
      </trkpt>
      <trkpt lat="43.00543" lon="2.20268">
        <ele>252.96</ele>
        <time>2014-09-14T16:16:19Z</time>
      </trkpt>
      <trkpt lat="43.00553" lon="2.20267">
        <ele>252.96</ele>
        <time>2014-09-14T16:16:20Z</time>
      </trkpt>
      <trkpt lat="43.00563" lon="2.20267">
        <ele>252.48</ele>
        <time>2014-09-14T16:16:21Z</time>
      </trkpt>
      <trkpt lat="43.00573" lon="2.20269">
        <ele>252.48</ele>
        <time>2014-09-14T16:16:22Z</time>
      </trkpt>
      <trkpt lat="43.00701" lon="2.20318">
        <ele>253.44</ele>
        <time>2014-09-14T16:16:36Z</time>
      </trkpt>
      <trkpt lat="43.00854" lon="2.20339">
        <ele>252.96</ele>
        <time>2014-09-14T16:16:52Z</time>
      </trkpt>
      <trkpt lat="43.00873" lon="2.20337">
        <ele>252.48</ele>
        <time>2014-09-14T16:16:54Z</time>
      </trkpt>
      <trkpt lat="43.00882" lon="2.20334">
        <ele>252.48</ele>
        <time>2014-09-14T16:16:55Z</time>
      </trkpt>
      <trkpt lat="43.00893" lon="2.20328">
        <ele>252.48</ele>
        <time>2014-09-14T16:16:56Z</time>
      </trkpt>
      <trkpt lat="43.00899" lon="2.20322">
        <ele>252</ele>
        <time>2014-09-14T16:16:57Z</time>
      </trkpt>
      <trkpt lat="43.00909" lon="2.20312">
        <ele>252</ele>
        <time>2014-09-14T16:16:58Z</time>
      </trkpt>
      <trkpt lat="43.00915" lon="2.20304">
        <ele>251.52</ele>
        <time>2014-09-14T16:16:59Z</time>
      </trkpt>
      <trkpt lat="43.00973" lon="2.20223">
        <ele>248.16</ele>
        <time>2014-09-14T16:17:07Z</time>
      </trkpt>
      <trkpt lat="43.00982" lon="2.20215">
        <ele>247.68</ele>
        <time>2014-09-14T16:17:08Z</time>
      </trkpt>
      <trkpt lat="43.00992" lon="2.20213">
        <ele>247.2</ele>
        <time>2014-09-14T16:17:09Z</time>
      </trkpt>
      <trkpt lat="43.01003" lon="2.20217">
        <ele>246.72</ele>
        <time>2014-09-14T16:17:10Z</time>
      </trkpt>
      <trkpt lat="43.01011" lon="2.20225">
        <ele>246.23</ele>
        <time>2014-09-14T16:17:11Z</time>
      </trkpt>
      <trkpt lat="43.01019" lon="2.20234">
        <ele>245.75</ele>
        <time>2014-09-14T16:17:12Z</time>
      </trkpt>
      <trkpt lat="43.01029" lon="2.20243">
        <ele>245.27</ele>
        <time>2014-09-14T16:17:13Z</time>
      </trkpt>
      <trkpt lat="43.01038" lon="2.20249">
        <ele>244.79</ele>
        <time>2014-09-14T16:17:14Z</time>
      </trkpt>
      <trkpt lat="43.0105" lon="2.20253">
        <ele>244.31</ele>
        <time>2014-09-14T16:17:15Z</time>
      </trkpt>
      <trkpt lat="43.0106" lon="2.20254">
        <ele>244.31</ele>
        <time>2014-09-14T16:17:16Z</time>
      </trkpt>
      <trkpt lat="43.0107" lon="2.20255">
        <ele>243.83</ele>
        <time>2014-09-14T16:17:17Z</time>
      </trkpt>
      <trkpt lat="43.01082" lon="2.20253">
        <ele>243.35</ele>
        <time>2014-09-14T16:17:18Z</time>
      </trkpt>
      <trkpt lat="43.0109" lon="2.2025">
        <ele>243.35</ele>
        <time>2014-09-14T16:17:19Z</time>
      </trkpt>
      <trkpt lat="43.011" lon="2.20245">
        <ele>242.87</ele>
        <time>2014-09-14T16:17:20Z</time>
      </trkpt>
      <trkpt lat="43.01109" lon="2.20241">
        <ele>242.39</ele>
        <time>2014-09-14T16:17:21Z</time>
      </trkpt>
      <trkpt lat="43.0112" lon="2.20237">
        <ele>241.91</ele>
        <time>2014-09-14T16:17:22Z</time>
      </trkpt>
      <trkpt lat="43.01171" lon="2.20236">
        <ele>240.47</ele>
        <time>2014-09-14T16:17:27Z</time>
      </trkpt>
      <trkpt lat="43.0118" lon="2.20241">
        <ele>239.99</ele>
        <time>2014-09-14T16:17:28Z</time>
      </trkpt>
      <trkpt lat="43.01189" lon="2.20248">
        <ele>239.51</ele>
        <time>2014-09-14T16:17:29Z</time>
      </trkpt>
      <trkpt lat="43.01197" lon="2.20259">
        <ele>239.02</ele>
        <time>2014-09-14T16:17:30Z</time>
      </trkpt>
      <trkpt lat="43.01205" lon="2.20269">
        <ele>238.54</ele>
        <time>2014-09-14T16:17:31Z</time>
      </trkpt>
      <trkpt lat="43.0132" lon="2.20414">
        <ele>238.54</ele>
        <time>2014-09-14T16:17:47Z</time>
      </trkpt>
      <trkpt lat="43.01327" lon="2.2042">
        <ele>238.54</ele>
        <time>2014-09-14T16:17:48Z</time>
      </trkpt>
      <trkpt lat="43.01336" lon="2.20422">
        <ele>238.54</ele>
        <time>2014-09-14T16:17:49Z</time>
      </trkpt>
      <trkpt lat="43.01345" lon="2.20422">
        <ele>238.54</ele>
        <time>2014-09-14T16:17:50Z</time>
      </trkpt>
      <trkpt lat="43.01352" lon="2.20419">
        <ele>238.54</ele>
        <time>2014-09-14T16:17:51Z</time>
      </trkpt>
      <trkpt lat="43.0136" lon="2.20414">
        <ele>238.54</ele>
        <time>2014-09-14T16:17:52Z</time>
      </trkpt>
      <trkpt lat="43.01368" lon="2.20409">
        <ele>238.54</ele>
        <time>2014-09-14T16:17:53Z</time>
      </trkpt>
      <trkpt lat="43.0142" lon="2.20374">
        <ele>239.51</ele>
        <time>2014-09-14T16:18:00Z</time>
      </trkpt>
      <trkpt lat="43.01428" lon="2.20373">
        <ele>239.51</ele>
        <time>2014-09-14T16:18:01Z</time>
      </trkpt>
      <trkpt lat="43.01438" lon="2.20374">
        <ele>239.02</ele>
        <time>2014-09-14T16:18:02Z</time>
      </trkpt>
      <trkpt lat="43.01446" lon="2.20377">
        <ele>239.02</ele>
        <time>2014-09-14T16:18:03Z</time>
      </trkpt>
      <trkpt lat="43.01455" lon="2.20383">
        <ele>238.54</ele>
        <time>2014-09-14T16:18:04Z</time>
      </trkpt>
      <trkpt lat="43.01462" lon="2.20387">
        <ele>238.54</ele>
        <time>2014-09-14T16:18:05Z</time>
      </trkpt>
      <trkpt lat="43.01588" lon="2.20471">
        <ele>233.74</ele>
        <time>2014-09-14T16:18:18Z</time>
      </trkpt>
      <trkpt lat="43.01699" lon="2.20545">
        <ele>235.18</ele>
        <time>2014-09-14T16:18:32Z</time>
      </trkpt>
      <trkpt lat="43.01809" lon="2.20585">
        <ele>237.1</ele>
        <time>2014-09-14T16:18:45Z</time>
      </trkpt>
      <trkpt lat="43.01818" lon="2.20592">
        <ele>237.1</ele>
        <time>2014-09-14T16:18:46Z</time>
      </trkpt>
      <trkpt lat="43.01854" lon="2.20624">
        <ele>237.1</ele>
        <time>2014-09-14T16:18:51Z</time>
      </trkpt>
      <trkpt lat="43.01944" lon="2.20656">
        <ele>238.06</ele>
        <time>2014-09-14T16:19:02Z</time>
      </trkpt>
      <trkpt lat="43.02034" lon="2.20717">
        <ele>239.99</ele>
        <time>2014-09-14T16:19:14Z</time>
      </trkpt>
      <trkpt lat="43.02048" lon="2.20728">
        <ele>240.47</ele>
        <time>2014-09-14T16:19:16Z</time>
      </trkpt>
      <trkpt lat="43.02172" lon="2.20806">
        <ele>240.47</ele>
        <time>2014-09-14T16:19:32Z</time>
      </trkpt>
      <trkpt lat="43.02218" lon="2.20837">
        <ele>240.47</ele>
        <time>2014-09-14T16:19:38Z</time>
      </trkpt>
      <trkpt lat="43.02275" lon="2.20848">
        <ele>241.43</ele>
        <time>2014-09-14T16:19:45Z</time>
      </trkpt>
      <trkpt lat="43.02282" lon="2.20847">
        <ele>241.91</ele>
        <time>2014-09-14T16:19:46Z</time>
      </trkpt>
      <trkpt lat="43.02289" lon="2.20844">
        <ele>241.91</ele>
        <time>2014-09-14T16:19:47Z</time>
      </trkpt>
      <trkpt lat="43.02298" lon="2.2084">
        <ele>242.39</ele>
        <time>2014-09-14T16:19:48Z</time>
      </trkpt>
      <trkpt lat="43.02304" lon="2.20835">
        <ele>242.39</ele>
        <time>2014-09-14T16:19:49Z</time>
      </trkpt>
      <trkpt lat="43.0231" lon="2.20829">
        <ele>242.87</ele>
        <time>2014-09-14T16:19:50Z</time>
      </trkpt>
      <trkpt lat="43.02316" lon="2.20823">
        <ele>242.87</ele>
        <time>2014-09-14T16:19:51Z</time>
      </trkpt>
      <trkpt lat="43.02322" lon="2.20815">
        <ele>243.35</ele>
        <time>2014-09-14T16:19:52Z</time>
      </trkpt>
      <trkpt lat="43.02327" lon="2.20807">
        <ele>243.35</ele>
        <time>2014-09-14T16:19:53Z</time>
      </trkpt>
      <trkpt lat="43.02332" lon="2.20799">
        <ele>243.83</ele>
        <time>2014-09-14T16:19:54Z</time>
      </trkpt>
      <trkpt lat="43.02352" lon="2.20758">
        <ele>245.27</ele>
        <time>2014-09-14T16:19:59Z</time>
      </trkpt>
      <trkpt lat="43.02354" lon="2.2075">
        <ele>245.27</ele>
        <time>2014-09-14T16:20:00Z</time>
      </trkpt>
      <trkpt lat="43.02355" lon="2.20739">
        <ele>245.75</ele>
        <time>2014-09-14T16:20:01Z</time>
      </trkpt>
      <trkpt lat="43.02356" lon="2.20732">
        <ele>245.75</ele>
        <time>2014-09-14T16:20:02Z</time>
      </trkpt>
      <trkpt lat="43.02358" lon="2.20724">
        <ele>245.75</ele>
        <time>2014-09-14T16:20:03Z</time>
      </trkpt>
      <trkpt lat="43.02361" lon="2.20716">
        <ele>246.23</ele>
        <time>2014-09-14T16:20:04Z</time>
      </trkpt>
      <trkpt lat="43.02367" lon="2.20707">
        <ele>246.72</ele>
        <time>2014-09-14T16:20:05Z</time>
      </trkpt>
      <trkpt lat="43.02371" lon="2.20704">
        <ele>246.72</ele>
        <time>2014-09-14T16:20:06Z</time>
      </trkpt>
      <trkpt lat="43.02377" lon="2.20702">
        <ele>246.72</ele>
        <time>2014-09-14T16:20:07Z</time>
      </trkpt>
      <trkpt lat="43.02383" lon="2.20703">
        <ele>247.2</ele>
        <time>2014-09-14T16:20:08Z</time>
      </trkpt>
      <trkpt lat="43.0239" lon="2.20708">
        <ele>247.2</ele>
        <time>2014-09-14T16:20:09Z</time>
      </trkpt>
      <trkpt lat="43.02397" lon="2.20714">
        <ele>247.68</ele>
        <time>2014-09-14T16:20:10Z</time>
      </trkpt>
      <trkpt lat="43.02403" lon="2.2072">
        <ele>247.68</ele>
        <time>2014-09-14T16:20:11Z</time>
      </trkpt>
      <trkpt lat="43.0241" lon="2.20726">
        <ele>247.68</ele>
        <time>2014-09-14T16:20:12Z</time>
      </trkpt>
      <trkpt lat="43.02416" lon="2.20731">
        <ele>248.16</ele>
        <time>2014-09-14T16:20:13Z</time>
      </trkpt>
      <trkpt lat="43.02422" lon="2.20735">
        <ele>248.16</ele>
        <time>2014-09-14T16:20:14Z</time>
      </trkpt>
      <trkpt lat="43.0243" lon="2.2074">
        <ele>248.16</ele>
        <time>2014-09-14T16:20:15Z</time>
      </trkpt>
      <trkpt lat="43.02437" lon="2.20743">
        <ele>248.16</ele>
        <time>2014-09-14T16:20:16Z</time>
      </trkpt>
      <trkpt lat="43.02483" lon="2.20754">
        <ele>248.64</ele>
        <time>2014-09-14T16:20:22Z</time>
      </trkpt>
      <trkpt lat="43.0249" lon="2.20752">
        <ele>248.64</ele>
        <time>2014-09-14T16:20:23Z</time>
      </trkpt>
      <trkpt lat="43.02497" lon="2.20747">
        <ele>248.64</ele>
        <time>2014-09-14T16:20:24Z</time>
      </trkpt>
      <trkpt lat="43.02502" lon="2.20738">
        <ele>249.12</ele>
        <time>2014-09-14T16:20:25Z</time>
      </trkpt>
      <trkpt lat="43.02505" lon="2.20726">
        <ele>249.12</ele>
        <time>2014-09-14T16:20:26Z</time>
      </trkpt>
      <trkpt lat="43.02505" lon="2.20718">
        <ele>249.12</ele>
        <time>2014-09-14T16:20:27Z</time>
      </trkpt>
      <trkpt lat="43.02504" lon="2.20708">
        <ele>249.6</ele>
        <time>2014-09-14T16:20:28Z</time>
      </trkpt>
      <trkpt lat="43.02503" lon="2.20696">
        <ele>249.6</ele>
        <time>2014-09-14T16:20:29Z</time>
      </trkpt>
      <trkpt lat="43.02501" lon="2.20663">
        <ele>250.56</ele>
        <time>2014-09-14T16:20:32Z</time>
      </trkpt>
      <trkpt lat="43.02503" lon="2.20653">
        <ele>251.04</ele>
        <time>2014-09-14T16:20:33Z</time>
      </trkpt>
      <trkpt lat="43.02507" lon="2.20644">
        <ele>251.04</ele>
        <time>2014-09-14T16:20:34Z</time>
      </trkpt>
      <trkpt lat="43.02512" lon="2.20636">
        <ele>251.52</ele>
        <time>2014-09-14T16:20:35Z</time>
      </trkpt>
      <trkpt lat="43.0252" lon="2.20628">
        <ele>252</ele>
        <time>2014-09-14T16:20:36Z</time>
      </trkpt>
      <trkpt lat="43.02526" lon="2.20624">
        <ele>252</ele>
        <time>2014-09-14T16:20:37Z</time>
      </trkpt>
      <trkpt lat="43.02534" lon="2.2062">
        <ele>252.48</ele>
        <time>2014-09-14T16:20:38Z</time>
      </trkpt>
      <trkpt lat="43.02542" lon="2.20617">
        <ele>252.48</ele>
        <time>2014-09-14T16:20:39Z</time>
      </trkpt>
      <trkpt lat="43.02573" lon="2.20601">
        <ele>252.48</ele>
        <time>2014-09-14T16:20:43Z</time>
      </trkpt>
      <trkpt lat="43.02578" lon="2.20598">
        <ele>252.48</ele>
        <time>2014-09-14T16:20:44Z</time>
      </trkpt>
      <trkpt lat="43.02583" lon="2.20592">
        <ele>252.48</ele>
        <time>2014-09-14T16:20:45Z</time>
      </trkpt>
      <trkpt lat="43.02589" lon="2.20586">
        <ele>252.48</ele>
        <time>2014-09-14T16:20:46Z</time>
      </trkpt>
      <trkpt lat="43.02594" lon="2.20579">
        <ele>252.48</ele>
        <time>2014-09-14T16:20:47Z</time>
      </trkpt>
      <trkpt lat="43.02599" lon="2.20572">
        <ele>252</ele>
        <time>2014-09-14T16:20:48Z</time>
      </trkpt>
      <trkpt lat="43.02603" lon="2.20563">
        <ele>252</ele>
        <time>2014-09-14T16:20:49Z</time>
      </trkpt>
      <trkpt lat="43.02606" lon="2.20556">
        <ele>252</ele>
        <time>2014-09-14T16:20:50Z</time>
      </trkpt>
      <trkpt lat="43.0261" lon="2.20546">
        <ele>251.52</ele>
        <time>2014-09-14T16:20:51Z</time>
      </trkpt>
      <trkpt lat="43.02612" lon="2.20537">
        <ele>251.04</ele>
        <time>2014-09-14T16:20:52Z</time>
      </trkpt>
      <trkpt lat="43.02616" lon="2.20519">
        <ele>250.08</ele>
        <time>2014-09-14T16:20:54Z</time>
      </trkpt>
      <trkpt lat="43.02618" lon="2.20508">
        <ele>249.6</ele>
        <time>2014-09-14T16:20:55Z</time>
      </trkpt>
      <trkpt lat="43.02649" lon="2.20345">
        <ele>241.43</ele>
        <time>2014-09-14T16:21:11Z</time>
      </trkpt>
      <trkpt lat="43.02682" lon="2.20243">
        <ele>236.14</ele>
        <time>2014-09-14T16:21:21Z</time>
      </trkpt>
      <trkpt lat="43.02688" lon="2.20233">
        <ele>235.66</ele>
        <time>2014-09-14T16:21:22Z</time>
      </trkpt>
      <trkpt lat="43.02694" lon="2.20224">
        <ele>234.7</ele>
        <time>2014-09-14T16:21:23Z</time>
      </trkpt>
      <trkpt lat="43.02701" lon="2.20216">
        <ele>234.22</ele>
        <time>2014-09-14T16:21:24Z</time>
      </trkpt>
      <trkpt lat="43.02708" lon="2.20209">
        <ele>233.74</ele>
        <time>2014-09-14T16:21:25Z</time>
      </trkpt>
      <trkpt lat="43.02716" lon="2.20202">
        <ele>233.26</ele>
        <time>2014-09-14T16:21:26Z</time>
      </trkpt>
      <trkpt lat="43.02724" lon="2.20197">
        <ele>232.78</ele>
        <time>2014-09-14T16:21:27Z</time>
      </trkpt>
      <trkpt lat="43.02734" lon="2.20191">
        <ele>231.81</ele>
        <time>2014-09-14T16:21:28Z</time>
      </trkpt>
      <trkpt lat="43.02742" lon="2.20188">
        <ele>231.33</ele>
        <time>2014-09-14T16:21:29Z</time>
      </trkpt>
      <trkpt lat="43.02753" lon="2.20184">
        <ele>230.85</ele>
        <time>2014-09-14T16:21:30Z</time>
      </trkpt>
      <trkpt lat="43.02782" lon="2.2018">
        <ele>228.93</ele>
        <time>2014-09-14T16:21:33Z</time>
      </trkpt>
      <trkpt lat="43.02793" lon="2.20181">
        <ele>228.45</ele>
        <time>2014-09-14T16:21:34Z</time>
      </trkpt>
      <trkpt lat="43.02802" lon="2.20183">
        <ele>227.97</ele>
        <time>2014-09-14T16:21:35Z</time>
      </trkpt>
      <trkpt lat="43.02812" lon="2.20185">
        <ele>227.49</ele>
        <time>2014-09-14T16:21:36Z</time>
      </trkpt>
      <trkpt lat="43.02821" lon="2.20188">
        <ele>227.01</ele>
        <time>2014-09-14T16:21:37Z</time>
      </trkpt>
      <trkpt lat="43.02962" lon="2.20241">
        <ele>218.36</ele>
        <time>2014-09-14T16:21:50Z</time>
      </trkpt>
      <trkpt lat="43.03139" lon="2.20305">
        <ele>207.78</ele>
        <time>2014-09-14T16:22:06Z</time>
      </trkpt>
      <trkpt lat="43.03203" lon="2.20328">
        <ele>206.82</ele>
        <time>2014-09-14T16:22:13Z</time>
      </trkpt>
      <trkpt lat="43.03212" lon="2.20334">
        <ele>206.82</ele>
        <time>2014-09-14T16:22:14Z</time>
      </trkpt>
      <trkpt lat="43.03232" lon="2.20351">
        <ele>206.82</ele>
        <time>2014-09-14T16:22:17Z</time>
      </trkpt>
      <trkpt lat="43.033" lon="2.20449">
        <ele>207.3</ele>
        <time>2014-09-14T16:22:31Z</time>
      </trkpt>
      <trkpt lat="43.03354" lon="2.20572">
        <ele>209.22</ele>
        <time>2014-09-14T16:22:47Z</time>
      </trkpt>
      <trkpt lat="43.03405" lon="2.20701">
        <ele>207.78</ele>
        <time>2014-09-14T16:23:03Z</time>
      </trkpt>
      <trkpt lat="43.03472" lon="2.2087">
        <ele>207.3</ele>
        <time>2014-09-14T16:23:23Z</time>
      </trkpt>
      <trkpt lat="43.03505" lon="2.20948">
        <ele>206.34</ele>
        <time>2014-09-14T16:23:32Z</time>
      </trkpt>
      <trkpt lat="43.03525" lon="2.20985">
        <ele>205.86</ele>
        <time>2014-09-14T16:23:37Z</time>
      </trkpt>
      <trkpt lat="43.03614" lon="2.21082">
        <ele>204.42</ele>
        <time>2014-09-14T16:23:53Z</time>
      </trkpt>
      <trkpt lat="43.0364" lon="2.21099">
        <ele>204.42</ele>
        <time>2014-09-14T16:23:57Z</time>
      </trkpt>
      <trkpt lat="43.03756" lon="2.21133">
        <ele>202.49</ele>
        <time>2014-09-14T16:24:14Z</time>
      </trkpt>
      <trkpt lat="43.03796" lon="2.21147">
        <ele>202.49</ele>
        <time>2014-09-14T16:24:20Z</time>
      </trkpt>
      <trkpt lat="43.03827" lon="2.21172">
        <ele>201.05</ele>
        <time>2014-09-14T16:24:25Z</time>
      </trkpt>
      <trkpt lat="43.03832" lon="2.21179">
        <ele>200.57</ele>
        <time>2014-09-14T16:24:26Z</time>
      </trkpt>
      <trkpt lat="43.03836" lon="2.21188">
        <ele>200.57</ele>
        <time>2014-09-14T16:24:27Z</time>
      </trkpt>
      <trkpt lat="43.0384" lon="2.21197">
        <ele>200.57</ele>
        <time>2014-09-14T16:24:28Z</time>
      </trkpt>
      <trkpt lat="43.03843" lon="2.21207">
        <ele>200.09</ele>
        <time>2014-09-14T16:24:29Z</time>
      </trkpt>
      <trkpt lat="43.03846" lon="2.21219">
        <ele>200.09</ele>
        <time>2014-09-14T16:24:30Z</time>
      </trkpt>
      <trkpt lat="43.03865" lon="2.21263">
        <ele>199.13</ele>
        <time>2014-09-14T16:24:35Z</time>
      </trkpt>
      <trkpt lat="43.03941" lon="2.21351">
        <ele>196.25</ele>
        <time>2014-09-14T16:24:47Z</time>
      </trkpt>
      <trkpt lat="43.03946" lon="2.21361">
        <ele>196.25</ele>
        <time>2014-09-14T16:24:48Z</time>
      </trkpt>
      <trkpt lat="43.0403" lon="2.21526">
        <ele>192.88</ele>
        <time>2014-09-14T16:25:05Z</time>
      </trkpt>
      <trkpt lat="43.04043" lon="2.21542">
        <ele>192.88</ele>
        <time>2014-09-14T16:25:07Z</time>
      </trkpt>
      <trkpt lat="43.0405" lon="2.21548">
        <ele>192.88</ele>
        <time>2014-09-14T16:25:08Z</time>
      </trkpt>
      <trkpt lat="43.04058" lon="2.21554">
        <ele>192.88</ele>
        <time>2014-09-14T16:25:09Z</time>
      </trkpt>
      <trkpt lat="43.04065" lon="2.21558">
        <ele>192.88</ele>
        <time>2014-09-14T16:25:10Z</time>
      </trkpt>
      <trkpt lat="43.04073" lon="2.21562">
        <ele>192.88</ele>
        <time>2014-09-14T16:25:11Z</time>
      </trkpt>
      <trkpt lat="43.0408" lon="2.21565">
        <ele>192.4</ele>
        <time>2014-09-14T16:25:12Z</time>
      </trkpt>
      <trkpt lat="43.04088" lon="2.21568">
        <ele>192.4</ele>
        <time>2014-09-14T16:25:13Z</time>
      </trkpt>
      <trkpt lat="43.04102" lon="2.21574">
        <ele>192.88</ele>
        <time>2014-09-14T16:25:15Z</time>
      </trkpt>
      <trkpt lat="43.04109" lon="2.21579">
        <ele>192.88</ele>
        <time>2014-09-14T16:25:16Z</time>
      </trkpt>
      <trkpt lat="43.04126" lon="2.21596">
        <ele>193.36</ele>
        <time>2014-09-14T16:25:19Z</time>
      </trkpt>
      <trkpt lat="43.04187" lon="2.21682">
        <ele>194.8</ele>
        <time>2014-09-14T16:25:31Z</time>
      </trkpt>
      <trkpt lat="43.04273" lon="2.21791">
        <ele>193.84</ele>
        <time>2014-09-14T16:25:46Z</time>
      </trkpt>
      <trkpt lat="43.04343" lon="2.21936">
        <ele>190.48</ele>
        <time>2014-09-14T16:26:02Z</time>
      </trkpt>
      <trkpt lat="43.04427" lon="2.22069">
        <ele>185.19</ele>
        <time>2014-09-14T16:26:16Z</time>
      </trkpt>
      <trkpt lat="43.04497" lon="2.22132">
        <ele>181.35</ele>
        <time>2014-09-14T16:26:25Z</time>
      </trkpt>
      <trkpt lat="43.04517" lon="2.2214">
        <ele>180.87</ele>
        <time>2014-09-14T16:26:27Z</time>
      </trkpt>
      <trkpt lat="43.04522" lon="2.22141">
        <ele>180.38</ele>
        <time>2014-09-14T16:26:28Z</time>
      </trkpt>
      <trkpt lat="43.04604" lon="2.22138">
        <ele>177.5</ele>
        <time>2014-09-14T16:26:39Z</time>
      </trkpt>
      <trkpt lat="43.04628" lon="2.22126">
        <ele>177.02</ele>
        <time>2014-09-14T16:26:43Z</time>
      </trkpt>
      <trkpt lat="43.04634" lon="2.22122">
        <ele>177.02</ele>
        <time>2014-09-14T16:26:44Z</time>
      </trkpt>
      <trkpt lat="43.04717" lon="2.22078">
        <ele>177.98</ele>
        <time>2014-09-14T16:26:58Z</time>
      </trkpt>
      <trkpt lat="43.04842" lon="2.22045">
        <ele>177.02</ele>
        <time>2014-09-14T16:27:16Z</time>
      </trkpt>
      <trkpt lat="43.04914" lon="2.22005">
        <ele>176.06</ele>
        <time>2014-09-14T16:27:27Z</time>
      </trkpt>
      <trkpt lat="43.04918" lon="2.21999">
        <ele>176.54</ele>
        <time>2014-09-14T16:27:28Z</time>
      </trkpt>
      <trkpt lat="43.04923" lon="2.21993">
        <ele>176.54</ele>
        <time>2014-09-14T16:27:29Z</time>
      </trkpt>
      <trkpt lat="43.04928" lon="2.21985">
        <ele>176.54</ele>
        <time>2014-09-14T16:27:30Z</time>
      </trkpt>
      <trkpt lat="43.04932" lon="2.21978">
        <ele>177.02</ele>
        <time>2014-09-14T16:27:31Z</time>
      </trkpt>
      <trkpt lat="43.04937" lon="2.2197">
        <ele>177.02</ele>
        <time>2014-09-14T16:27:32Z</time>
      </trkpt>
      <trkpt lat="43.0494" lon="2.21966">
        <ele>177.02</ele>
        <time>2014-09-14T16:27:33Z</time>
      </trkpt>
      <trkpt lat="43.04945" lon="2.21961">
        <ele>177.5</ele>
        <time>2014-09-14T16:27:34Z</time>
      </trkpt>
      <trkpt lat="43.0495" lon="2.21956">
        <ele>177.5</ele>
        <time>2014-09-14T16:27:35Z</time>
      </trkpt>
      <trkpt lat="43.04955" lon="2.21951">
        <ele>177.98</ele>
        <time>2014-09-14T16:27:36Z</time>
      </trkpt>
      <trkpt lat="43.0496" lon="2.21946">
        <ele>177.98</ele>
        <time>2014-09-14T16:27:37Z</time>
      </trkpt>
      <trkpt lat="43.05024" lon="2.2187">
        <ele>177.98</ele>
        <time>2014-09-14T16:27:51Z</time>
      </trkpt>
      <trkpt lat="43.0503" lon="2.21864">
        <ele>177.98</ele>
        <time>2014-09-14T16:27:52Z</time>
      </trkpt>
      <trkpt lat="43.05035" lon="2.2186">
        <ele>177.98</ele>
        <time>2014-09-14T16:27:53Z</time>
      </trkpt>
      <trkpt lat="43.0504" lon="2.21856">
        <ele>177.98</ele>
        <time>2014-09-14T16:27:54Z</time>
      </trkpt>
      <trkpt lat="43.05061" lon="2.21841">
        <ele>177.5</ele>
        <time>2014-09-14T16:27:58Z</time>
      </trkpt>
      <trkpt lat="43.05065" lon="2.21835">
        <ele>177.98</ele>
        <time>2014-09-14T16:27:59Z</time>
      </trkpt>
      <trkpt lat="43.05081" lon="2.21809">
        <ele>177.98</ele>
        <time>2014-09-14T16:28:03Z</time>
      </trkpt>
      <trkpt lat="43.05083" lon="2.21802">
        <ele>177.98</ele>
        <time>2014-09-14T16:28:04Z</time>
      </trkpt>
      <trkpt lat="43.05089" lon="2.21789">
        <ele>178.46</ele>
        <time>2014-09-14T16:28:06Z</time>
      </trkpt>
      <trkpt lat="43.05094" lon="2.21781">
        <ele>178.46</ele>
        <time>2014-09-14T16:28:07Z</time>
      </trkpt>
      <trkpt lat="43.05167" lon="2.21686">
        <ele>178.46</ele>
        <time>2014-09-14T16:28:24Z</time>
      </trkpt>
      <trkpt lat="43.05233" lon="2.21584">
        <ele>180.87</ele>
        <time>2014-09-14T16:28:41Z</time>
      </trkpt>
      <trkpt lat="43.05245" lon="2.21566">
        <ele>181.83</ele>
        <time>2014-09-14T16:28:44Z</time>
      </trkpt>
      <trkpt lat="43.05267" lon="2.21537">
        <ele>183.27</ele>
        <time>2014-09-14T16:28:53Z</time>
      </trkpt>
      <trkpt lat="43.05269" lon="2.21539">
        <ele>183.75</ele>
        <time>2014-09-14T16:28:54Z</time>
      </trkpt>
      <trkpt lat="43.05271" lon="2.21542">
        <ele>183.75</ele>
        <time>2014-09-14T16:28:55Z</time>
      </trkpt>
      <trkpt lat="43.05274" lon="2.21545">
        <ele>183.75</ele>
        <time>2014-09-14T16:28:56Z</time>
      </trkpt>
      <trkpt lat="43.05276" lon="2.21549">
        <ele>183.75</ele>
        <time>2014-09-14T16:28:57Z</time>
      </trkpt>
      <trkpt lat="43.05297" lon="2.21591">
        <ele>182.31</ele>
        <time>2014-09-14T16:29:09Z</time>
      </trkpt>
      <trkpt lat="43.05301" lon="2.21591">
        <ele>181.83</ele>
        <time>2014-09-14T16:29:10Z</time>
      </trkpt>
      <trkpt lat="43.05305" lon="2.2159">
        <ele>181.83</ele>
        <time>2014-09-14T16:29:11Z</time>
      </trkpt>
      <trkpt lat="43.05309" lon="2.21589">
        <ele>181.35</ele>
        <time>2014-09-14T16:29:12Z</time>
      </trkpt>
      <trkpt lat="43.05311" lon="2.21588">
        <ele>181.35</ele>
        <time>2014-09-14T16:29:13Z</time>
      </trkpt>
      <trkpt lat="43.05316" lon="2.21585">
        <ele>181.35</ele>
        <time>2014-09-14T16:29:14Z</time>
      </trkpt>
      <trkpt lat="43.0532" lon="2.21581">
        <ele>181.35</ele>
        <time>2014-09-14T16:29:15Z</time>
      </trkpt>
      <trkpt lat="43.05324" lon="2.21577">
        <ele>181.35</ele>
        <time>2014-09-14T16:29:16Z</time>
      </trkpt>
      <trkpt lat="43.05328" lon="2.21572">
        <ele>181.35</ele>
        <time>2014-09-14T16:29:17Z</time>
      </trkpt>
      <trkpt lat="43.05354" lon="2.21541">
        <ele>180.87</ele>
        <time>2014-09-14T16:29:23Z</time>
      </trkpt>
      <trkpt lat="43.05359" lon="2.21536">
        <ele>180.87</ele>
        <time>2014-09-14T16:29:24Z</time>
      </trkpt>
      <trkpt lat="43.05363" lon="2.2153">
        <ele>180.87</ele>
        <time>2014-09-14T16:29:25Z</time>
      </trkpt>
      <trkpt lat="43.0542" lon="2.21477">
        <ele>180.87</ele>
        <time>2014-09-14T16:29:39Z</time>
      </trkpt>
      <trkpt lat="43.05424" lon="2.21474">
        <ele>180.87</ele>
        <time>2014-09-14T16:29:40Z</time>
      </trkpt>
      <trkpt lat="43.05428" lon="2.21472">
        <ele>180.87</ele>
        <time>2014-09-14T16:29:41Z</time>
      </trkpt>
      <trkpt lat="43.05433" lon="2.2147">
        <ele>180.87</ele>
        <time>2014-09-14T16:29:42Z</time>
      </trkpt>
      <trkpt lat="43.05465" lon="2.21453">
        <ele>180.38</ele>
        <time>2014-09-14T16:29:52Z</time>
      </trkpt>
      <trkpt lat="43.05465" lon="2.21449">
        <ele>180.38</ele>
        <time>2014-09-14T16:29:53Z</time>
      </trkpt>
      <trkpt lat="43.05465" lon="2.21365">
        <ele>177.98</ele>
        <time>2014-09-14T16:30:09Z</time>
      </trkpt>
      <trkpt lat="43.05462" lon="2.21328">
        <ele>176.54</ele>
        <time>2014-09-14T16:30:19Z</time>
      </trkpt>
      <trkpt lat="43.05464" lon="2.21328">
        <ele>177.02</ele>
        <time>2014-09-14T16:30:21Z</time>
      </trkpt>
      <trkpt lat="43.05466" lon="2.21328">
        <ele>177.5</ele>
        <time>2014-09-14T16:30:22Z</time>
      </trkpt>
      <trkpt lat="43.05468" lon="2.2133">
        <ele>179.42</ele>
        <time>2014-09-14T16:30:36Z</time>
      </trkpt>
      <trkpt lat="43.05469" lon="2.21328">
        <ele>178.94</ele>
        <time>2014-09-14T16:30:59Z</time>
      </trkpt>
      <trkpt lat="43.05469" lon="2.21328">
        <ele>179.42</ele>
        <time>2014-09-14T16:31:28Z</time>
      </trkpt>
      <trkpt lat="43.05473" lon="2.21327">
        <ele>179.42</ele>
        <time>2014-09-14T16:31:49Z</time>
      </trkpt>
      <trkpt lat="43.05481" lon="2.21327">
        <ele>179.42</ele>
        <time>2014-09-14T16:32:06Z</time>
      </trkpt>
      <trkpt lat="43.05483" lon="2.21326">
        <ele>179.42</ele>
        <time>2014-09-14T16:32:07Z</time>
      </trkpt>
      <trkpt lat="43.05487" lon="2.21326">
        <ele>179.9</ele>
        <time>2014-09-14T16:32:10Z</time>
      </trkpt>
      <trkpt lat="43.05489" lon="2.21325">
        <ele>179.9</ele>
        <time>2014-09-14T16:32:11Z</time>
      </trkpt>
      <trkpt lat="43.05491" lon="2.21324">
        <ele>179.9</ele>
        <time>2014-09-14T16:32:12Z</time>
      </trkpt>
      <trkpt lat="43.05506" lon="2.2133">
        <ele>180.87</ele>
        <time>2014-09-14T16:32:17Z</time>
      </trkpt>
      <trkpt lat="43.05509" lon="2.21337">
        <ele>180.38</ele>
        <time>2014-09-14T16:32:18Z</time>
      </trkpt>
      <trkpt lat="43.05512" lon="2.21342">
        <ele>179.9</ele>
        <time>2014-09-14T16:32:19Z</time>
      </trkpt>
      <trkpt lat="43.05515" lon="2.21348">
        <ele>179.9</ele>
        <time>2014-09-14T16:32:20Z</time>
      </trkpt>
      <trkpt lat="43.05517" lon="2.21354">
        <ele>179.9</ele>
        <time>2014-09-14T16:32:21Z</time>
      </trkpt>
      <trkpt lat="43.05557" lon="2.21448">
        <ele>179.42</ele>
        <time>2014-09-14T16:32:35Z</time>
      </trkpt>
      <trkpt lat="43.05586" lon="2.21518">
        <ele>179.9</ele>
        <time>2014-09-14T16:32:48Z</time>
      </trkpt>
      <trkpt lat="43.05622" lon="2.21602">
        <ele>179.9</ele>
        <time>2014-09-14T16:33:01Z</time>
      </trkpt>
      <trkpt lat="43.05671" lon="2.21733">
        <ele>177.02</ele>
        <time>2014-09-14T16:33:20Z</time>
      </trkpt>
      <trkpt lat="43.05699" lon="2.2185">
        <ele>173.66</ele>
        <time>2014-09-14T16:33:35Z</time>
      </trkpt>
      <trkpt lat="43.05703" lon="2.21975">
        <ele>171.73</ele>
        <time>2014-09-14T16:33:48Z</time>
      </trkpt>
      <trkpt lat="43.05708" lon="2.22076">
        <ele>171.73</ele>
        <time>2014-09-14T16:33:59Z</time>
      </trkpt>
      <trkpt lat="43.05707" lon="2.22094">
        <ele>172.21</ele>
        <time>2014-09-14T16:34:01Z</time>
      </trkpt>
      <trkpt lat="43.0571" lon="2.22101">
        <ele>172.21</ele>
        <time>2014-09-14T16:34:02Z</time>
      </trkpt>
      <trkpt lat="43.05715" lon="2.22106">
        <ele>172.21</ele>
        <time>2014-09-14T16:34:03Z</time>
      </trkpt>
      <trkpt lat="43.05805" lon="2.22146">
        <ele>173.17</ele>
        <time>2014-09-14T16:34:17Z</time>
      </trkpt>
      <trkpt lat="43.05905" lon="2.22132">
        <ele>171.73</ele>
        <time>2014-09-14T16:34:32Z</time>
      </trkpt>
      <trkpt lat="43.05964" lon="2.22122">
        <ele>170.77</ele>
        <time>2014-09-14T16:34:41Z</time>
      </trkpt>
      <trkpt lat="43.05983" lon="2.22124">
        <ele>170.77</ele>
        <time>2014-09-14T16:34:44Z</time>
      </trkpt>
      <trkpt lat="43.06013" lon="2.22133">
        <ele>170.77</ele>
        <time>2014-09-14T16:34:49Z</time>
      </trkpt>
      <trkpt lat="43.06019" lon="2.22136">
        <ele>170.77</ele>
        <time>2014-09-14T16:34:50Z</time>
      </trkpt>
      <trkpt lat="43.06025" lon="2.22139">
        <ele>170.77</ele>
        <time>2014-09-14T16:34:51Z</time>
      </trkpt>
      <trkpt lat="43.0603" lon="2.22143">
        <ele>170.77</ele>
        <time>2014-09-14T16:34:52Z</time>
      </trkpt>
      <trkpt lat="43.06035" lon="2.22147">
        <ele>170.77</ele>
        <time>2014-09-14T16:34:53Z</time>
      </trkpt>
      <trkpt lat="43.06106" lon="2.22204">
        <ele>171.25</ele>
        <time>2014-09-14T16:35:07Z</time>
      </trkpt>
      <trkpt lat="43.06121" lon="2.22217">
        <ele>171.25</ele>
        <time>2014-09-14T16:35:10Z</time>
      </trkpt>
      <trkpt lat="43.06127" lon="2.2222">
        <ele>171.25</ele>
        <time>2014-09-14T16:35:11Z</time>
      </trkpt>
      <trkpt lat="43.06217" lon="2.2226">
        <ele>171.25</ele>
        <time>2014-09-14T16:35:26Z</time>
      </trkpt>
      <trkpt lat="43.063" lon="2.22297">
        <ele>171.25</ele>
        <time>2014-09-14T16:35:40Z</time>
      </trkpt>
      <trkpt lat="43.06305" lon="2.22305">
        <ele>171.73</ele>
        <time>2014-09-14T16:35:41Z</time>
      </trkpt>
      <trkpt lat="43.06306" lon="2.22313">
        <ele>171.73</ele>
        <time>2014-09-14T16:35:42Z</time>
      </trkpt>
      <trkpt lat="43.06307" lon="2.22318">
        <ele>171.73</ele>
        <time>2014-09-14T16:35:43Z</time>
      </trkpt>
      <trkpt lat="43.06311" lon="2.22325">
        <ele>172.21</ele>
        <time>2014-09-14T16:35:44Z</time>
      </trkpt>
      <trkpt lat="43.06317" lon="2.22329">
        <ele>172.21</ele>
        <time>2014-09-14T16:35:45Z</time>
      </trkpt>
      <trkpt lat="43.06321" lon="2.22329">
        <ele>172.21</ele>
        <time>2014-09-14T16:35:46Z</time>
      </trkpt>
      <trkpt lat="43.06329" lon="2.22326">
        <ele>172.69</ele>
        <time>2014-09-14T16:35:47Z</time>
      </trkpt>
      <trkpt lat="43.06333" lon="2.22325">
        <ele>172.69</ele>
        <time>2014-09-14T16:35:48Z</time>
      </trkpt>
      <trkpt lat="43.06339" lon="2.22325">
        <ele>172.69</ele>
        <time>2014-09-14T16:35:49Z</time>
      </trkpt>
      <trkpt lat="43.06345" lon="2.22327">
        <ele>172.69</ele>
        <time>2014-09-14T16:35:50Z</time>
      </trkpt>
      <trkpt lat="43.06352" lon="2.22329">
        <ele>172.21</ele>
        <time>2014-09-14T16:35:51Z</time>
      </trkpt>
      <trkpt lat="43.06358" lon="2.22332">
        <ele>172.21</ele>
        <time>2014-09-14T16:35:52Z</time>
      </trkpt>
      <trkpt lat="43.06364" lon="2.22335">
        <ele>172.21</ele>
        <time>2014-09-14T16:35:53Z</time>
      </trkpt>
      <trkpt lat="43.0637" lon="2.2234">
        <ele>172.21</ele>
        <time>2014-09-14T16:35:54Z</time>
      </trkpt>
      <trkpt lat="43.06374" lon="2.22348">
        <ele>172.21</ele>
        <time>2014-09-14T16:35:55Z</time>
      </trkpt>
      <trkpt lat="43.06379" lon="2.22354">
        <ele>172.21</ele>
        <time>2014-09-14T16:35:56Z</time>
      </trkpt>
      <trkpt lat="43.06385" lon="2.22357">
        <ele>171.73</ele>
        <time>2014-09-14T16:35:57Z</time>
      </trkpt>
      <trkpt lat="43.06392" lon="2.22355">
        <ele>171.73</ele>
        <time>2014-09-14T16:35:58Z</time>
      </trkpt>
      <trkpt lat="43.06397" lon="2.22351">
        <ele>171.73</ele>
        <time>2014-09-14T16:35:59Z</time>
      </trkpt>
      <trkpt lat="43.06403" lon="2.22346">
        <ele>171.73</ele>
        <time>2014-09-14T16:36:00Z</time>
      </trkpt>
      <trkpt lat="43.06411" lon="2.22343">
        <ele>171.73</ele>
        <time>2014-09-14T16:36:01Z</time>
      </trkpt>
      <trkpt lat="43.06418" lon="2.22344">
        <ele>171.73</ele>
        <time>2014-09-14T16:36:02Z</time>
      </trkpt>
      <trkpt lat="43.06424" lon="2.22346">
        <ele>171.73</ele>
        <time>2014-09-14T16:36:03Z</time>
      </trkpt>
      <trkpt lat="43.0648" lon="2.22375">
        <ele>171.73</ele>
        <time>2014-09-14T16:36:12Z</time>
      </trkpt>
      <trkpt lat="43.06485" lon="2.22381">
        <ele>171.73</ele>
        <time>2014-09-14T16:36:13Z</time>
      </trkpt>
      <trkpt lat="43.06488" lon="2.22389">
        <ele>171.73</ele>
        <time>2014-09-14T16:36:14Z</time>
      </trkpt>
      <trkpt lat="43.0649" lon="2.22397">
        <ele>171.73</ele>
        <time>2014-09-14T16:36:15Z</time>
      </trkpt>
      <trkpt lat="43.06492" lon="2.22406">
        <ele>172.21</ele>
        <time>2014-09-14T16:36:16Z</time>
      </trkpt>
      <trkpt lat="43.06492" lon="2.22414">
        <ele>172.21</ele>
        <time>2014-09-14T16:36:17Z</time>
      </trkpt>
      <trkpt lat="43.06492" lon="2.22423">
        <ele>172.21</ele>
        <time>2014-09-14T16:36:18Z</time>
      </trkpt>
      <trkpt lat="43.06492" lon="2.22431">
        <ele>172.69</ele>
        <time>2014-09-14T16:36:19Z</time>
      </trkpt>
      <trkpt lat="43.06491" lon="2.22532">
        <ele>174.14</ele>
        <time>2014-09-14T16:36:32Z</time>
      </trkpt>
      <trkpt lat="43.06485" lon="2.22593">
        <ele>175.1</ele>
        <time>2014-09-14T16:36:40Z</time>
      </trkpt>
      <trkpt lat="43.06486" lon="2.226">
        <ele>175.58</ele>
        <time>2014-09-14T16:36:41Z</time>
      </trkpt>
      <trkpt lat="43.06487" lon="2.22607">
        <ele>175.58</ele>
        <time>2014-09-14T16:36:42Z</time>
      </trkpt>
      <trkpt lat="43.06488" lon="2.22614">
        <ele>175.58</ele>
        <time>2014-09-14T16:36:43Z</time>
      </trkpt>
      <trkpt lat="43.0649" lon="2.2262">
        <ele>175.58</ele>
        <time>2014-09-14T16:36:44Z</time>
      </trkpt>
      <trkpt lat="43.06493" lon="2.22627">
        <ele>175.58</ele>
        <time>2014-09-14T16:36:45Z</time>
      </trkpt>
      <trkpt lat="43.06496" lon="2.22632">
        <ele>175.58</ele>
        <time>2014-09-14T16:36:46Z</time>
      </trkpt>
      <trkpt lat="43.06499" lon="2.22638">
        <ele>176.06</ele>
        <time>2014-09-14T16:36:47Z</time>
      </trkpt>
      <trkpt lat="43.06503" lon="2.22642">
        <ele>176.06</ele>
        <time>2014-09-14T16:36:48Z</time>
      </trkpt>
      <trkpt lat="43.06507" lon="2.22647">
        <ele>176.06</ele>
        <time>2014-09-14T16:36:49Z</time>
      </trkpt>
      <trkpt lat="43.06511" lon="2.2265">
        <ele>176.54</ele>
        <time>2014-09-14T16:36:50Z</time>
      </trkpt>
      <trkpt lat="43.06515" lon="2.22653">
        <ele>177.02</ele>
        <time>2014-09-14T16:36:51Z</time>
      </trkpt>
      <trkpt lat="43.0652" lon="2.22655">
        <ele>177.02</ele>
        <time>2014-09-14T16:36:52Z</time>
      </trkpt>
      <trkpt lat="43.06547" lon="2.22666">
        <ele>179.42</ele>
        <time>2014-09-14T16:36:58Z</time>
      </trkpt>
      <trkpt lat="43.06552" lon="2.22666">
        <ele>179.9</ele>
        <time>2014-09-14T16:36:59Z</time>
      </trkpt>
      <trkpt lat="43.06622" lon="2.22671">
        <ele>185.19</ele>
        <time>2014-09-14T16:37:14Z</time>
      </trkpt>
      <trkpt lat="43.06696" lon="2.22682">
        <ele>188.56</ele>
        <time>2014-09-14T16:37:30Z</time>
      </trkpt>
      <trkpt lat="43.0678" lon="2.22723">
        <ele>190.48</ele>
        <time>2014-09-14T16:37:48Z</time>
      </trkpt>
      <trkpt lat="43.06891" lon="2.2279">
        <ele>190.96</ele>
        <time>2014-09-14T16:38:10Z</time>
      </trkpt>
      <trkpt lat="43.06987" lon="2.22858">
        <ele>188.56</ele>
        <time>2014-09-14T16:38:27Z</time>
      </trkpt>
      <trkpt lat="43.06991" lon="2.22866">
        <ele>189.04</ele>
        <time>2014-09-14T16:38:28Z</time>
      </trkpt>
      <trkpt lat="43.06998" lon="2.22878">
        <ele>189.04</ele>
        <time>2014-09-14T16:38:30Z</time>
      </trkpt>
      <trkpt lat="43.07002" lon="2.22883">
        <ele>189.04</ele>
        <time>2014-09-14T16:38:31Z</time>
      </trkpt>
      <trkpt lat="43.07007" lon="2.22887">
        <ele>189.04</ele>
        <time>2014-09-14T16:38:32Z</time>
      </trkpt>
      <trkpt lat="43.07014" lon="2.22888">
        <ele>189.04</ele>
        <time>2014-09-14T16:38:33Z</time>
      </trkpt>
      <trkpt lat="43.0702" lon="2.22888">
        <ele>188.56</ele>
        <time>2014-09-14T16:38:34Z</time>
      </trkpt>
      <trkpt lat="43.07027" lon="2.22886">
        <ele>188.56</ele>
        <time>2014-09-14T16:38:35Z</time>
      </trkpt>
      <trkpt lat="43.07033" lon="2.22885">
        <ele>188.56</ele>
        <time>2014-09-14T16:38:36Z</time>
      </trkpt>
      <trkpt lat="43.0704" lon="2.22885">
        <ele>188.56</ele>
        <time>2014-09-14T16:38:37Z</time>
      </trkpt>
      <trkpt lat="43.07047" lon="2.22886">
        <ele>188.56</ele>
        <time>2014-09-14T16:38:38Z</time>
      </trkpt>
      <trkpt lat="43.07054" lon="2.22889">
        <ele>188.56</ele>
        <time>2014-09-14T16:38:39Z</time>
      </trkpt>
      <trkpt lat="43.0706" lon="2.22892">
        <ele>188.08</ele>
        <time>2014-09-14T16:38:40Z</time>
      </trkpt>
      <trkpt lat="43.07176" lon="2.2296">
        <ele>187.11</ele>
        <time>2014-09-14T16:38:59Z</time>
      </trkpt>
      <trkpt lat="43.07298" lon="2.23033">
        <ele>186.15</ele>
        <time>2014-09-14T16:39:19Z</time>
      </trkpt>
      <trkpt lat="43.07402" lon="2.23113">
        <ele>184.23</ele>
        <time>2014-09-14T16:39:36Z</time>
      </trkpt>
      <trkpt lat="43.07499" lon="2.23203">
        <ele>184.71</ele>
        <time>2014-09-14T16:39:53Z</time>
      </trkpt>
      <trkpt lat="43.0761" lon="2.23322">
        <ele>186.63</ele>
        <time>2014-09-14T16:40:14Z</time>
      </trkpt>
      <trkpt lat="43.07666" lon="2.23381">
        <ele>187.59</ele>
        <time>2014-09-14T16:40:25Z</time>
      </trkpt>
      <trkpt lat="43.07673" lon="2.23384">
        <ele>187.59</ele>
        <time>2014-09-14T16:40:26Z</time>
      </trkpt>
      <trkpt lat="43.07678" lon="2.23385">
        <ele>187.59</ele>
        <time>2014-09-14T16:40:27Z</time>
      </trkpt>
      <trkpt lat="43.07696" lon="2.23386">
        <ele>187.59</ele>
        <time>2014-09-14T16:40:30Z</time>
      </trkpt>
      <trkpt lat="43.07702" lon="2.23387">
        <ele>187.59</ele>
        <time>2014-09-14T16:40:31Z</time>
      </trkpt>
      <trkpt lat="43.07798" lon="2.23427">
        <ele>188.08</ele>
        <time>2014-09-14T16:40:47Z</time>
      </trkpt>
      <trkpt lat="43.07891" lon="2.23475">
        <ele>187.11</ele>
        <time>2014-09-14T16:41:03Z</time>
      </trkpt>
      <trkpt lat="43.07932" lon="2.23504">
        <ele>184.71</ele>
        <time>2014-09-14T16:41:09Z</time>
      </trkpt>
      <trkpt lat="43.07942" lon="2.23504">
        <ele>184.23</ele>
        <time>2014-09-14T16:41:10Z</time>
      </trkpt>
      <trkpt lat="43.07949" lon="2.235">
        <ele>183.75</ele>
        <time>2014-09-14T16:41:11Z</time>
      </trkpt>
      <trkpt lat="43.07956" lon="2.23493">
        <ele>183.27</ele>
        <time>2014-09-14T16:41:12Z</time>
      </trkpt>
      <trkpt lat="43.07961" lon="2.23485">
        <ele>183.27</ele>
        <time>2014-09-14T16:41:13Z</time>
      </trkpt>
      <trkpt lat="43.07966" lon="2.23476">
        <ele>182.79</ele>
        <time>2014-09-14T16:41:14Z</time>
      </trkpt>
      <trkpt lat="43.0797" lon="2.23467">
        <ele>182.31</ele>
        <time>2014-09-14T16:41:15Z</time>
      </trkpt>
      <trkpt lat="43.08005" lon="2.23396">
        <ele>179.9</ele>
        <time>2014-09-14T16:41:23Z</time>
      </trkpt>
      <trkpt lat="43.08011" lon="2.23388">
        <ele>179.42</ele>
        <time>2014-09-14T16:41:24Z</time>
      </trkpt>
      <trkpt lat="43.08074" lon="2.23309">
        <ele>172.21</ele>
        <time>2014-09-14T16:41:32Z</time>
      </trkpt>
      <trkpt lat="43.08081" lon="2.23295">
        <ele>171.25</ele>
        <time>2014-09-14T16:41:33Z</time>
      </trkpt>
      <trkpt lat="43.08088" lon="2.2328">
        <ele>170.29</ele>
        <time>2014-09-14T16:41:34Z</time>
      </trkpt>
      <trkpt lat="43.08135" lon="2.23147">
        <ele>162.6</ele>
        <time>2014-09-14T16:41:43Z</time>
      </trkpt>
      <trkpt lat="43.08144" lon="2.23136">
        <ele>161.64</ele>
        <time>2014-09-14T16:41:44Z</time>
      </trkpt>
      <trkpt lat="43.08154" lon="2.2313">
        <ele>161.16</ele>
        <time>2014-09-14T16:41:45Z</time>
      </trkpt>
      <trkpt lat="43.08164" lon="2.23128">
        <ele>161.16</ele>
        <time>2014-09-14T16:41:46Z</time>
      </trkpt>
      <trkpt lat="43.08174" lon="2.23127">
        <ele>160.68</ele>
        <time>2014-09-14T16:41:47Z</time>
      </trkpt>
      <trkpt lat="43.08308" lon="2.23107">
        <ele>158.27</ele>
        <time>2014-09-14T16:42:02Z</time>
      </trkpt>
      <trkpt lat="43.08418" lon="2.23123">
        <ele>158.27</ele>
        <time>2014-09-14T16:42:16Z</time>
      </trkpt>
      <trkpt lat="43.0855" lon="2.23172">
        <ele>160.2</ele>
        <time>2014-09-14T16:42:36Z</time>
      </trkpt>
      <trkpt lat="43.08638" lon="2.23215">
        <ele>162.6</ele>
        <time>2014-09-14T16:42:51Z</time>
      </trkpt>
      <trkpt lat="43.08644" lon="2.23216">
        <ele>162.6</ele>
        <time>2014-09-14T16:42:52Z</time>
      </trkpt>
      <trkpt lat="43.0876" lon="2.23234">
        <ele>162.6</ele>
        <time>2014-09-14T16:43:10Z</time>
      </trkpt>
      <trkpt lat="43.08862" lon="2.23286">
        <ele>160.68</ele>
        <time>2014-09-14T16:43:26Z</time>
      </trkpt>
      <trkpt lat="43.08975" lon="2.23364">
        <ele>159.24</ele>
        <time>2014-09-14T16:43:45Z</time>
      </trkpt>
      <trkpt lat="43.09077" lon="2.23437">
        <ele>157.79</ele>
        <time>2014-09-14T16:44:02Z</time>
      </trkpt>
      <trkpt lat="43.09221" lon="2.2358">
        <ele>156.83</ele>
        <time>2014-09-14T16:44:28Z</time>
      </trkpt>
      <trkpt lat="43.09304" lon="2.23718">
        <ele>157.31</ele>
        <time>2014-09-14T16:44:47Z</time>
      </trkpt>
      <trkpt lat="43.09321" lon="2.23768">
        <ele>158.27</ele>
        <time>2014-09-14T16:44:53Z</time>
      </trkpt>
      <trkpt lat="43.09327" lon="2.23792">
        <ele>158.75</ele>
        <time>2014-09-14T16:44:56Z</time>
      </trkpt>
      <trkpt lat="43.09345" lon="2.23925">
        <ele>159.72</ele>
        <time>2014-09-14T16:45:11Z</time>
      </trkpt>
      <trkpt lat="43.09368" lon="2.24036">
        <ele>160.68</ele>
        <time>2014-09-14T16:45:25Z</time>
      </trkpt>
      <trkpt lat="43.09394" lon="2.24135">
        <ele>161.64</ele>
        <time>2014-09-14T16:45:38Z</time>
      </trkpt>
      <trkpt lat="43.09431" lon="2.24256">
        <ele>161.64</ele>
        <time>2014-09-14T16:45:53Z</time>
      </trkpt>
      <trkpt lat="43.09456" lon="2.2438">
        <ele>160.2</ele>
        <time>2014-09-14T16:46:06Z</time>
      </trkpt>
      <trkpt lat="43.09481" lon="2.24506">
        <ele>160.68</ele>
        <time>2014-09-14T16:46:20Z</time>
      </trkpt>
      <trkpt lat="43.09495" lon="2.24547">
        <ele>160.68</ele>
        <time>2014-09-14T16:46:25Z</time>
      </trkpt>
      <trkpt lat="43.09518" lon="2.2461">
        <ele>159.24</ele>
        <time>2014-09-14T16:46:33Z</time>
      </trkpt>
      <trkpt lat="43.09557" lon="2.2471">
        <ele>156.83</ele>
        <time>2014-09-14T16:46:44Z</time>
      </trkpt>
      <trkpt lat="43.0961" lon="2.24798">
        <ele>153.47</ele>
        <time>2014-09-14T16:46:54Z</time>
      </trkpt>
      <trkpt lat="43.09615" lon="2.24808">
        <ele>152.99</ele>
        <time>2014-09-14T16:46:55Z</time>
      </trkpt>
      <trkpt lat="43.09617" lon="2.24819">
        <ele>152.99</ele>
        <time>2014-09-14T16:46:56Z</time>
      </trkpt>
      <trkpt lat="43.09617" lon="2.24829">
        <ele>152.51</ele>
        <time>2014-09-14T16:46:57Z</time>
      </trkpt>
      <trkpt lat="43.09616" lon="2.2484">
        <ele>152.51</ele>
        <time>2014-09-14T16:46:58Z</time>
      </trkpt>
      <trkpt lat="43.09615" lon="2.24851">
        <ele>152.51</ele>
        <time>2014-09-14T16:46:59Z</time>
      </trkpt>
      <trkpt lat="43.09614" lon="2.24862">
        <ele>152.51</ele>
        <time>2014-09-14T16:47:00Z</time>
      </trkpt>
      <trkpt lat="43.09613" lon="2.24894">
        <ele>152.03</ele>
        <time>2014-09-14T16:47:03Z</time>
      </trkpt>
      <trkpt lat="43.09614" lon="2.24904">
        <ele>152.03</ele>
        <time>2014-09-14T16:47:04Z</time>
      </trkpt>
      <trkpt lat="43.09617" lon="2.24914">
        <ele>152.03</ele>
        <time>2014-09-14T16:47:05Z</time>
      </trkpt>
      <trkpt lat="43.09622" lon="2.24922">
        <ele>152.03</ele>
        <time>2014-09-14T16:47:06Z</time>
      </trkpt>
      <trkpt lat="43.09629" lon="2.2493">
        <ele>152.51</ele>
        <time>2014-09-14T16:47:07Z</time>
      </trkpt>
      <trkpt lat="43.09635" lon="2.24935">
        <ele>152.51</ele>
        <time>2014-09-14T16:47:08Z</time>
      </trkpt>
      <trkpt lat="43.0964" lon="2.24937">
        <ele>152.51</ele>
        <time>2014-09-14T16:47:09Z</time>
      </trkpt>
      <trkpt lat="43.09646" lon="2.24939">
        <ele>152.51</ele>
        <time>2014-09-14T16:47:10Z</time>
      </trkpt>
      <trkpt lat="43.09673" lon="2.24951">
        <ele>152.99</ele>
        <time>2014-09-14T16:47:14Z</time>
      </trkpt>
      <trkpt lat="43.09744" lon="2.2503">
        <ele>152.03</ele>
        <time>2014-09-14T16:47:27Z</time>
      </trkpt>
      <trkpt lat="43.09814" lon="2.25134">
        <ele>150.1</ele>
        <time>2014-09-14T16:47:40Z</time>
      </trkpt>
      <trkpt lat="43.09835" lon="2.2519">
        <ele>149.14</ele>
        <time>2014-09-14T16:47:46Z</time>
      </trkpt>
      <trkpt lat="43.09838" lon="2.25199">
        <ele>149.14</ele>
        <time>2014-09-14T16:47:47Z</time>
      </trkpt>
      <trkpt lat="43.09841" lon="2.25208">
        <ele>148.66</ele>
        <time>2014-09-14T16:47:48Z</time>
      </trkpt>
      <trkpt lat="43.09845" lon="2.25216">
        <ele>148.66</ele>
        <time>2014-09-14T16:47:49Z</time>
      </trkpt>
      <trkpt lat="43.09849" lon="2.25224">
        <ele>148.66</ele>
        <time>2014-09-14T16:47:50Z</time>
      </trkpt>
      <trkpt lat="43.09918" lon="2.25351">
        <ele>148.18</ele>
        <time>2014-09-14T16:48:06Z</time>
      </trkpt>
      <trkpt lat="43.09959" lon="2.25449">
        <ele>147.7</ele>
        <time>2014-09-14T16:48:18Z</time>
      </trkpt>
      <trkpt lat="43.10018" lon="2.25558">
        <ele>149.62</ele>
        <time>2014-09-14T16:48:33Z</time>
      </trkpt>
      <trkpt lat="43.10094" lon="2.25695">
        <ele>150.1</ele>
        <time>2014-09-14T16:48:51Z</time>
      </trkpt>
      <trkpt lat="43.10157" lon="2.25809">
        <ele>151.06</ele>
        <time>2014-09-14T16:49:06Z</time>
      </trkpt>
      <trkpt lat="43.10197" lon="2.25885">
        <ele>151.06</ele>
        <time>2014-09-14T16:49:16Z</time>
      </trkpt>
      <trkpt lat="43.10199" lon="2.25894">
        <ele>151.06</ele>
        <time>2014-09-14T16:49:17Z</time>
      </trkpt>
      <trkpt lat="43.102" lon="2.25903">
        <ele>151.06</ele>
        <time>2014-09-14T16:49:18Z</time>
      </trkpt>
      <trkpt lat="43.10201" lon="2.25913">
        <ele>151.06</ele>
        <time>2014-09-14T16:49:19Z</time>
      </trkpt>
      <trkpt lat="43.10198" lon="2.25923">
        <ele>150.58</ele>
        <time>2014-09-14T16:49:20Z</time>
      </trkpt>
      <trkpt lat="43.10194" lon="2.25932">
        <ele>150.1</ele>
        <time>2014-09-14T16:49:21Z</time>
      </trkpt>
      <trkpt lat="43.1019" lon="2.25938">
        <ele>149.62</ele>
        <time>2014-09-14T16:49:22Z</time>
      </trkpt>
      <trkpt lat="43.10186" lon="2.25944">
        <ele>149.62</ele>
        <time>2014-09-14T16:49:23Z</time>
      </trkpt>
      <trkpt lat="43.10179" lon="2.25957">
        <ele>149.62</ele>
        <time>2014-09-14T16:49:25Z</time>
      </trkpt>
      <trkpt lat="43.10176" lon="2.25963">
        <ele>149.62</ele>
        <time>2014-09-14T16:49:26Z</time>
      </trkpt>
      <trkpt lat="43.10175" lon="2.2597">
        <ele>150.1</ele>
        <time>2014-09-14T16:49:27Z</time>
      </trkpt>
      <trkpt lat="43.10175" lon="2.25973">
        <ele>150.1</ele>
        <time>2014-09-14T16:49:28Z</time>
      </trkpt>
      <trkpt lat="43.10177" lon="2.25979">
        <ele>150.58</ele>
        <time>2014-09-14T16:49:29Z</time>
      </trkpt>
      <trkpt lat="43.10179" lon="2.25985">
        <ele>150.58</ele>
        <time>2014-09-14T16:49:30Z</time>
      </trkpt>
      <trkpt lat="43.1018" lon="2.25988">
        <ele>151.06</ele>
        <time>2014-09-14T16:49:31Z</time>
      </trkpt>
      <trkpt lat="43.10183" lon="2.25993">
        <ele>151.06</ele>
        <time>2014-09-14T16:49:32Z</time>
      </trkpt>
      <trkpt lat="43.10185" lon="2.25996">
        <ele>151.54</ele>
        <time>2014-09-14T16:49:33Z</time>
      </trkpt>
      <trkpt lat="43.10205" lon="2.26058">
        <ele>154.43</ele>
        <time>2014-09-14T16:49:48Z</time>
      </trkpt>
      <trkpt lat="43.10214" lon="2.26112">
        <ele>159.72</ele>
        <time>2014-09-14T16:50:00Z</time>
      </trkpt>
      <trkpt lat="43.10235" lon="2.26186">
        <ele>162.6</ele>
        <time>2014-09-14T16:50:14Z</time>
      </trkpt>
      <trkpt lat="43.10265" lon="2.26265">
        <ele>164.52</ele>
        <time>2014-09-14T16:50:29Z</time>
      </trkpt>
      <trkpt lat="43.10275" lon="2.26307">
        <ele>165.96</ele>
        <time>2014-09-14T16:50:36Z</time>
      </trkpt>
      <trkpt lat="43.10278" lon="2.26314">
        <ele>165.96</ele>
        <time>2014-09-14T16:50:37Z</time>
      </trkpt>
      <trkpt lat="43.10281" lon="2.2632">
        <ele>165.96</ele>
        <time>2014-09-14T16:50:38Z</time>
      </trkpt>
      <trkpt lat="43.10329" lon="2.26418">
        <ele>168.37</ele>
        <time>2014-09-14T16:50:55Z</time>
      </trkpt>
      <trkpt lat="43.10397" lon="2.26526">
        <ele>165</ele>
        <time>2014-09-14T16:51:12Z</time>
      </trkpt>
      <trkpt lat="43.10449" lon="2.26633">
        <ele>160.68</ele>
        <time>2014-09-14T16:51:23Z</time>
      </trkpt>
      <trkpt lat="43.10513" lon="2.26752">
        <ele>155.39</ele>
        <time>2014-09-14T16:51:34Z</time>
      </trkpt>
      <trkpt lat="43.10626" lon="2.26905">
        <ele>149.62</ele>
        <time>2014-09-14T16:51:51Z</time>
      </trkpt>
      <trkpt lat="43.10703" lon="2.27021">
        <ele>149.14</ele>
        <time>2014-09-14T16:52:05Z</time>
      </trkpt>
      <trkpt lat="43.10802" lon="2.27171">
        <ele>148.66</ele>
        <time>2014-09-14T16:52:24Z</time>
      </trkpt>
      <trkpt lat="43.10872" lon="2.27281">
        <ele>148.66</ele>
        <time>2014-09-14T16:52:40Z</time>
      </trkpt>
      <trkpt lat="43.10939" lon="2.27383">
        <ele>148.18</ele>
        <time>2014-09-14T16:52:55Z</time>
      </trkpt>
      <trkpt lat="43.11015" lon="2.27523">
        <ele>147.22</ele>
        <time>2014-09-14T16:53:14Z</time>
      </trkpt>
      <trkpt lat="43.11074" lon="2.27684">
        <ele>147.7</ele>
        <time>2014-09-14T16:53:34Z</time>
      </trkpt>
      <trkpt lat="43.11119" lon="2.27822">
        <ele>147.7</ele>
        <time>2014-09-14T16:53:51Z</time>
      </trkpt>
      <trkpt lat="43.11143" lon="2.27977">
        <ele>148.66</ele>
        <time>2014-09-14T16:54:09Z</time>
      </trkpt>
      <trkpt lat="43.11175" lon="2.28111">
        <ele>148.66</ele>
        <time>2014-09-14T16:54:25Z</time>
      </trkpt>
      <trkpt lat="43.11209" lon="2.28249">
        <ele>147.22</ele>
        <time>2014-09-14T16:54:40Z</time>
      </trkpt>
      <trkpt lat="43.11219" lon="2.28412">
        <ele>147.22</ele>
        <time>2014-09-14T16:54:57Z</time>
      </trkpt>
      <trkpt lat="43.11233" lon="2.28562">
        <ele>146.26</ele>
        <time>2014-09-14T16:55:13Z</time>
      </trkpt>
      <trkpt lat="43.1121" lon="2.28676">
        <ele>145.78</ele>
        <time>2014-09-14T16:55:26Z</time>
      </trkpt>
      <trkpt lat="43.1121" lon="2.28685">
        <ele>145.78</ele>
        <time>2014-09-14T16:55:27Z</time>
      </trkpt>
      <trkpt lat="43.11211" lon="2.28695">
        <ele>145.78</ele>
        <time>2014-09-14T16:55:28Z</time>
      </trkpt>
      <trkpt lat="43.11212" lon="2.28703">
        <ele>145.78</ele>
        <time>2014-09-14T16:55:29Z</time>
      </trkpt>
      <trkpt lat="43.11213" lon="2.28712">
        <ele>145.78</ele>
        <time>2014-09-14T16:55:30Z</time>
      </trkpt>
      <trkpt lat="43.11243" lon="2.28848">
        <ele>145.3</ele>
        <time>2014-09-14T16:55:46Z</time>
      </trkpt>
      <trkpt lat="43.11264" lon="2.28942">
        <ele>147.7</ele>
        <time>2014-09-14T16:55:59Z</time>
      </trkpt>
      <trkpt lat="43.11269" lon="2.28967">
        <ele>149.14</ele>
        <time>2014-09-14T16:56:03Z</time>
      </trkpt>
      <trkpt lat="43.11268" lon="2.28973">
        <ele>149.14</ele>
        <time>2014-09-14T16:56:04Z</time>
      </trkpt>
      <trkpt lat="43.11266" lon="2.2898">
        <ele>149.62</ele>
        <time>2014-09-14T16:56:05Z</time>
      </trkpt>
      <trkpt lat="43.11263" lon="2.28984">
        <ele>150.1</ele>
        <time>2014-09-14T16:56:06Z</time>
      </trkpt>
      <trkpt lat="43.1126" lon="2.28986">
        <ele>150.58</ele>
        <time>2014-09-14T16:56:07Z</time>
      </trkpt>
      <trkpt lat="43.11256" lon="2.28988">
        <ele>150.58</ele>
        <time>2014-09-14T16:56:08Z</time>
      </trkpt>
      <trkpt lat="43.11217" lon="2.29016">
        <ele>152.03</ele>
        <time>2014-09-14T16:56:16Z</time>
      </trkpt>
      <trkpt lat="43.11213" lon="2.29023">
        <ele>152.03</ele>
        <time>2014-09-14T16:56:17Z</time>
      </trkpt>
      <trkpt lat="43.11211" lon="2.29028">
        <ele>152.51</ele>
        <time>2014-09-14T16:56:18Z</time>
      </trkpt>
      <trkpt lat="43.11209" lon="2.29035">
        <ele>152.99</ele>
        <time>2014-09-14T16:56:19Z</time>
      </trkpt>
      <trkpt lat="43.11208" lon="2.29042">
        <ele>152.99</ele>
        <time>2014-09-14T16:56:20Z</time>
      </trkpt>
      <trkpt lat="43.11207" lon="2.2905">
        <ele>152.99</ele>
        <time>2014-09-14T16:56:21Z</time>
      </trkpt>
      <trkpt lat="43.11198" lon="2.2913">
        <ele>155.39</ele>
        <time>2014-09-14T16:56:33Z</time>
      </trkpt>
      <trkpt lat="43.11198" lon="2.29135">
        <ele>155.39</ele>
        <time>2014-09-14T16:56:34Z</time>
      </trkpt>
      <trkpt lat="43.11206" lon="2.29212">
        <ele>159.24</ele>
        <time>2014-09-14T16:56:47Z</time>
      </trkpt>
      <trkpt lat="43.11207" lon="2.29218">
        <ele>159.24</ele>
        <time>2014-09-14T16:56:48Z</time>
      </trkpt>
      <trkpt lat="43.11215" lon="2.2931">
        <ele>162.12</ele>
        <time>2014-09-14T16:57:02Z</time>
      </trkpt>
      <trkpt lat="43.11216" lon="2.29323">
        <ele>162.6</ele>
        <time>2014-09-14T16:57:04Z</time>
      </trkpt>
      <trkpt lat="43.11216" lon="2.2933">
        <ele>162.6</ele>
        <time>2014-09-14T16:57:05Z</time>
      </trkpt>
      <trkpt lat="43.1121" lon="2.29383">
        <ele>165</ele>
        <time>2014-09-14T16:57:14Z</time>
      </trkpt>
      <trkpt lat="43.1121" lon="2.29389">
        <ele>165.48</ele>
        <time>2014-09-14T16:57:15Z</time>
      </trkpt>
      <trkpt lat="43.1121" lon="2.29401">
        <ele>166.45</ele>
        <time>2014-09-14T16:57:17Z</time>
      </trkpt>
      <trkpt lat="43.11207" lon="2.29419">
        <ele>167.89</ele>
        <time>2014-09-14T16:57:20Z</time>
      </trkpt>
      <trkpt lat="43.11206" lon="2.29443">
        <ele>168.85</ele>
        <time>2014-09-14T16:57:24Z</time>
      </trkpt>
      <trkpt lat="43.11215" lon="2.29544">
        <ele>172.69</ele>
        <time>2014-09-14T16:57:40Z</time>
      </trkpt>
      <trkpt lat="43.11218" lon="2.29569">
        <ele>173.66</ele>
        <time>2014-09-14T16:57:44Z</time>
      </trkpt>
      <trkpt lat="43.11225" lon="2.29611">
        <ele>177.02</ele>
        <time>2014-09-14T16:57:51Z</time>
      </trkpt>
      <trkpt lat="43.11227" lon="2.29617">
        <ele>177.02</ele>
        <time>2014-09-14T16:57:52Z</time>
      </trkpt>
      <trkpt lat="43.1126" lon="2.29716">
        <ele>176.06</ele>
        <time>2014-09-14T16:58:08Z</time>
      </trkpt>
      <trkpt lat="43.11262" lon="2.29721">
        <ele>176.06</ele>
        <time>2014-09-14T16:58:09Z</time>
      </trkpt>
      <trkpt lat="43.11311" lon="2.29819">
        <ele>171.73</ele>
        <time>2014-09-14T16:58:24Z</time>
      </trkpt>
      <trkpt lat="43.11315" lon="2.29833">
        <ele>172.69</ele>
        <time>2014-09-14T16:58:32Z</time>
      </trkpt>
      <trkpt lat="43.11314" lon="2.29829">
        <ele>174.14</ele>
        <time>2014-09-14T16:59:02Z</time>
      </trkpt>
      <trkpt lat="43.11314" lon="2.29827">
        <ele>177.98</ele>
        <time>2014-09-14T16:59:34Z</time>
      </trkpt>
      <trkpt lat="43.11312" lon="2.29826">
        <ele>181.83</ele>
        <time>2014-09-14T17:00:13Z</time>
      </trkpt>
      <trkpt lat="43.11313" lon="2.29827">
        <ele>180.87</ele>
        <time>2014-09-14T17:00:44Z</time>
      </trkpt>
      <trkpt lat="43.11315" lon="2.29829">
        <ele>178.94</ele>
        <time>2014-09-14T17:01:19Z</time>
      </trkpt>
      <trkpt lat="43.11314" lon="2.29831">
        <ele>177.98</ele>
        <time>2014-09-14T17:01:44Z</time>
      </trkpt>
      <trkpt lat="43.11315" lon="2.29827">
        <ele>180.87</ele>
        <time>2014-09-14T17:02:20Z</time>
      </trkpt>
      <trkpt lat="43.11315" lon="2.29828">
        <ele>183.27</ele>
        <time>2014-09-14T17:02:43Z</time>
      </trkpt>
      <trkpt lat="43.11315" lon="2.29826">
        <ele>185.19</ele>
        <time>2014-09-14T17:03:15Z</time>
      </trkpt>
      <trkpt lat="43.11315" lon="2.29828">
        <ele>181.35</ele>
        <time>2014-09-14T17:03:44Z</time>
      </trkpt>
      <trkpt lat="43.11315" lon="2.2983">
        <ele>177.98</ele>
        <time>2014-09-14T17:04:12Z</time>
      </trkpt>
      <trkpt lat="43.11318" lon="2.29831">
        <ele>176.54</ele>
        <time>2014-09-14T17:04:23Z</time>
      </trkpt>
      <trkpt lat="43.1135" lon="2.29846">
        <ele>173.66</ele>
        <time>2014-09-14T17:04:35Z</time>
      </trkpt>
      <trkpt lat="43.11419" lon="2.29883">
        <ele>171.25</ele>
        <time>2014-09-14T17:04:51Z</time>
      </trkpt>
      <trkpt lat="43.11494" lon="2.29937">
        <ele>167.89</ele>
        <time>2014-09-14T17:05:05Z</time>
      </trkpt>
      <trkpt lat="43.11503" lon="2.29948">
        <ele>167.89</ele>
        <time>2014-09-14T17:05:07Z</time>
      </trkpt>
      <trkpt lat="43.11506" lon="2.29953">
        <ele>167.89</ele>
        <time>2014-09-14T17:05:08Z</time>
      </trkpt>
      <trkpt lat="43.11563" lon="2.30082">
        <ele>167.89</ele>
        <time>2014-09-14T17:05:26Z</time>
      </trkpt>
      <trkpt lat="43.11635" lon="2.30216">
        <ele>165.48</ele>
        <time>2014-09-14T17:05:45Z</time>
      </trkpt>
      <trkpt lat="43.11731" lon="2.30316">
        <ele>160.68</ele>
        <time>2014-09-14T17:06:00Z</time>
      </trkpt>
      <trkpt lat="43.1186" lon="2.30455">
        <ele>156.83</ele>
        <time>2014-09-14T17:06:20Z</time>
      </trkpt>
      <trkpt lat="43.11943" lon="2.30597">
        <ele>156.35</ele>
        <time>2014-09-14T17:06:37Z</time>
      </trkpt>
      <trkpt lat="43.12001" lon="2.30748">
        <ele>158.75</ele>
        <time>2014-09-14T17:06:57Z</time>
      </trkpt>
      <trkpt lat="43.12043" lon="2.30856">
        <ele>161.16</ele>
        <time>2014-09-14T17:07:13Z</time>
      </trkpt>
      <trkpt lat="43.12086" lon="2.3094">
        <ele>164.52</ele>
        <time>2014-09-14T17:07:27Z</time>
      </trkpt>
      <trkpt lat="43.12156" lon="2.31042">
        <ele>161.16</ele>
        <time>2014-09-14T17:07:42Z</time>
      </trkpt>
      <trkpt lat="43.12167" lon="2.31063">
        <ele>160.2</ele>
        <time>2014-09-14T17:07:44Z</time>
      </trkpt>
      <trkpt lat="43.12171" lon="2.31074">
        <ele>159.72</ele>
        <time>2014-09-14T17:07:45Z</time>
      </trkpt>
      <trkpt lat="43.12176" lon="2.31086">
        <ele>159.24</ele>
        <time>2014-09-14T17:07:46Z</time>
      </trkpt>
      <trkpt lat="43.12179" lon="2.31099">
        <ele>158.75</ele>
        <time>2014-09-14T17:07:47Z</time>
      </trkpt>
      <trkpt lat="43.12182" lon="2.31112">
        <ele>158.27</ele>
        <time>2014-09-14T17:07:48Z</time>
      </trkpt>
      <trkpt lat="43.12184" lon="2.3113">
        <ele>157.31</ele>
        <time>2014-09-14T17:07:49Z</time>
      </trkpt>
      <trkpt lat="43.12185" lon="2.31141">
        <ele>156.83</ele>
        <time>2014-09-14T17:07:50Z</time>
      </trkpt>
      <trkpt lat="43.12186" lon="2.31157">
        <ele>155.87</ele>
        <time>2014-09-14T17:07:51Z</time>
      </trkpt>
      <trkpt lat="43.12185" lon="2.31307">
        <ele>150.58</ele>
        <time>2014-09-14T17:08:01Z</time>
      </trkpt>
      <trkpt lat="43.12183" lon="2.31318">
        <ele>150.58</ele>
        <time>2014-09-14T17:08:02Z</time>
      </trkpt>
      <trkpt lat="43.12179" lon="2.31329">
        <ele>150.58</ele>
        <time>2014-09-14T17:08:03Z</time>
      </trkpt>
      <trkpt lat="43.12174" lon="2.31339">
        <ele>150.58</ele>
        <time>2014-09-14T17:08:04Z</time>
      </trkpt>
      <trkpt lat="43.12169" lon="2.31348">
        <ele>150.58</ele>
        <time>2014-09-14T17:08:05Z</time>
      </trkpt>
      <trkpt lat="43.12083" lon="2.31506">
        <ele>150.1</ele>
        <time>2014-09-14T17:08:22Z</time>
      </trkpt>
      <trkpt lat="43.12048" lon="2.31583">
        <ele>151.54</ele>
        <time>2014-09-14T17:08:32Z</time>
      </trkpt>
      <trkpt lat="43.12047" lon="2.3159">
        <ele>152.03</ele>
        <time>2014-09-14T17:08:33Z</time>
      </trkpt>
      <trkpt lat="43.12049" lon="2.31595">
        <ele>152.03</ele>
        <time>2014-09-14T17:08:34Z</time>
      </trkpt>
      <trkpt lat="43.12053" lon="2.31601">
        <ele>152.51</ele>
        <time>2014-09-14T17:08:35Z</time>
      </trkpt>
      <trkpt lat="43.1206" lon="2.31604">
        <ele>152.51</ele>
        <time>2014-09-14T17:08:36Z</time>
      </trkpt>
      <trkpt lat="43.12065" lon="2.31607">
        <ele>152.51</ele>
        <time>2014-09-14T17:08:37Z</time>
      </trkpt>
      <trkpt lat="43.1207" lon="2.31608">
        <ele>152.51</ele>
        <time>2014-09-14T17:08:38Z</time>
      </trkpt>
      <trkpt lat="43.12123" lon="2.31646">
        <ele>150.58</ele>
        <time>2014-09-14T17:08:46Z</time>
      </trkpt>
      <trkpt lat="43.12129" lon="2.31654">
        <ele>150.1</ele>
        <time>2014-09-14T17:08:47Z</time>
      </trkpt>
      <trkpt lat="43.12202" lon="2.31788">
        <ele>145.78</ele>
        <time>2014-09-14T17:09:01Z</time>
      </trkpt>
      <trkpt lat="43.12223" lon="2.31917">
        <ele>146.26</ele>
        <time>2014-09-14T17:09:13Z</time>
      </trkpt>
      <trkpt lat="43.12266" lon="2.32026">
        <ele>146.74</ele>
        <time>2014-09-14T17:09:25Z</time>
      </trkpt>
      <trkpt lat="43.12369" lon="2.3212">
        <ele>145.3</ele>
        <time>2014-09-14T17:09:41Z</time>
      </trkpt>
      <trkpt lat="43.12474" lon="2.32204">
        <ele>144.82</ele>
        <time>2014-09-14T17:09:58Z</time>
      </trkpt>
      <trkpt lat="43.12605" lon="2.32296">
        <ele>145.3</ele>
        <time>2014-09-14T17:10:19Z</time>
      </trkpt>
      <trkpt lat="43.12678" lon="2.32364">
        <ele>143.85</ele>
        <time>2014-09-14T17:10:31Z</time>
      </trkpt>
      <trkpt lat="43.1279" lon="2.32474">
        <ele>142.41</ele>
        <time>2014-09-14T17:10:49Z</time>
      </trkpt>
      <trkpt lat="43.12845" lon="2.32506">
        <ele>141.45</ele>
        <time>2014-09-14T17:10:57Z</time>
      </trkpt>
      <trkpt lat="43.12934" lon="2.32517">
        <ele>140.49</ele>
        <time>2014-09-14T17:11:10Z</time>
      </trkpt>
      <trkpt lat="43.13052" lon="2.32472">
        <ele>141.45</ele>
        <time>2014-09-14T17:11:27Z</time>
      </trkpt>
      <trkpt lat="43.13202" lon="2.32407">
        <ele>141.93</ele>
        <time>2014-09-14T17:11:49Z</time>
      </trkpt>
      <trkpt lat="43.13293" lon="2.32323">
        <ele>140.97</ele>
        <time>2014-09-14T17:12:04Z</time>
      </trkpt>
      <trkpt lat="43.13395" lon="2.32265">
        <ele>139.53</ele>
        <time>2014-09-14T17:12:19Z</time>
      </trkpt>
      <trkpt lat="43.13544" lon="2.32241">
        <ele>138.57</ele>
        <time>2014-09-14T17:12:40Z</time>
      </trkpt>
      <trkpt lat="43.13657" lon="2.32264">
        <ele>137.13</ele>
        <time>2014-09-14T17:12:56Z</time>
      </trkpt>
      <trkpt lat="43.13755" lon="2.32332">
        <ele>137.13</ele>
        <time>2014-09-14T17:13:11Z</time>
      </trkpt>
      <trkpt lat="43.13865" lon="2.32375">
        <ele>136.16</ele>
        <time>2014-09-14T17:13:27Z</time>
      </trkpt>
      <trkpt lat="43.14011" lon="2.32426">
        <ele>135.68</ele>
        <time>2014-09-14T17:13:48Z</time>
      </trkpt>
      <trkpt lat="43.14125" lon="2.32423">
        <ele>134.72</ele>
        <time>2014-09-14T17:14:04Z</time>
      </trkpt>
      <trkpt lat="43.14228" lon="2.32399">
        <ele>134.72</ele>
        <time>2014-09-14T17:14:19Z</time>
      </trkpt>
      <trkpt lat="43.14325" lon="2.32433">
        <ele>134.24</ele>
        <time>2014-09-14T17:14:33Z</time>
      </trkpt>
      <trkpt lat="43.14408" lon="2.32439">
        <ele>134.24</ele>
        <time>2014-09-14T17:14:45Z</time>
      </trkpt>
      <trkpt lat="43.14502" lon="2.32411">
        <ele>135.2</ele>
        <time>2014-09-14T17:14:59Z</time>
      </trkpt>
      <trkpt lat="43.1454" lon="2.32391">
        <ele>135.68</ele>
        <time>2014-09-14T17:15:05Z</time>
      </trkpt>
      <trkpt lat="43.14617" lon="2.32317">
        <ele>135.2</ele>
        <time>2014-09-14T17:15:19Z</time>
      </trkpt>
      <trkpt lat="43.14686" lon="2.32247">
        <ele>134.72</ele>
        <time>2014-09-14T17:15:32Z</time>
      </trkpt>
      <trkpt lat="43.14691" lon="2.32245">
        <ele>134.72</ele>
        <time>2014-09-14T17:15:33Z</time>
      </trkpt>
      <trkpt lat="43.14696" lon="2.32244">
        <ele>134.72</ele>
        <time>2014-09-14T17:15:34Z</time>
      </trkpt>
      <trkpt lat="43.14702" lon="2.32244">
        <ele>134.72</ele>
        <time>2014-09-14T17:15:35Z</time>
      </trkpt>
      <trkpt lat="43.14708" lon="2.32245">
        <ele>135.2</ele>
        <time>2014-09-14T17:15:36Z</time>
      </trkpt>
      <trkpt lat="43.14744" lon="2.32253">
        <ele>135.68</ele>
        <time>2014-09-14T17:15:42Z</time>
      </trkpt>
      <trkpt lat="43.1475" lon="2.32253">
        <ele>135.68</ele>
        <time>2014-09-14T17:15:43Z</time>
      </trkpt>
      <trkpt lat="43.14834" lon="2.32213">
        <ele>138.09</ele>
        <time>2014-09-14T17:15:57Z</time>
      </trkpt>
      <trkpt lat="43.14839" lon="2.32208">
        <ele>138.57</ele>
        <time>2014-09-14T17:15:58Z</time>
      </trkpt>
      <trkpt lat="43.14843" lon="2.32202">
        <ele>138.57</ele>
        <time>2014-09-14T17:15:59Z</time>
      </trkpt>
      <trkpt lat="43.14848" lon="2.32196">
        <ele>138.57</ele>
        <time>2014-09-14T17:16:00Z</time>
      </trkpt>
      <trkpt lat="43.14852" lon="2.32188">
        <ele>138.57</ele>
        <time>2014-09-14T17:16:01Z</time>
      </trkpt>
      <trkpt lat="43.14856" lon="2.32181">
        <ele>138.57</ele>
        <time>2014-09-14T17:16:02Z</time>
      </trkpt>
      <trkpt lat="43.14881" lon="2.32134">
        <ele>138.57</ele>
        <time>2014-09-14T17:16:08Z</time>
      </trkpt>
      <trkpt lat="43.14907" lon="2.32062">
        <ele>136.16</ele>
        <time>2014-09-14T17:16:16Z</time>
      </trkpt>
      <trkpt lat="43.14912" lon="2.32053">
        <ele>135.68</ele>
        <time>2014-09-14T17:16:17Z</time>
      </trkpt>
      <trkpt lat="43.14916" lon="2.32047">
        <ele>135.68</ele>
        <time>2014-09-14T17:16:18Z</time>
      </trkpt>
      <trkpt lat="43.14922" lon="2.3204">
        <ele>135.68</ele>
        <time>2014-09-14T17:16:19Z</time>
      </trkpt>
      <trkpt lat="43.14927" lon="2.32035">
        <ele>135.68</ele>
        <time>2014-09-14T17:16:20Z</time>
      </trkpt>
      <trkpt lat="43.14934" lon="2.3203">
        <ele>135.68</ele>
        <time>2014-09-14T17:16:21Z</time>
      </trkpt>
      <trkpt lat="43.1494" lon="2.32027">
        <ele>135.2</ele>
        <time>2014-09-14T17:16:22Z</time>
      </trkpt>
      <trkpt lat="43.14946" lon="2.32024">
        <ele>135.2</ele>
        <time>2014-09-14T17:16:23Z</time>
      </trkpt>
      <trkpt lat="43.14952" lon="2.32021">
        <ele>135.2</ele>
        <time>2014-09-14T17:16:24Z</time>
      </trkpt>
      <trkpt lat="43.15034" lon="2.32027">
        <ele>135.2</ele>
        <time>2014-09-14T17:16:37Z</time>
      </trkpt>
      <trkpt lat="43.15153" lon="2.32042">
        <ele>133.28</ele>
        <time>2014-09-14T17:16:55Z</time>
      </trkpt>
      <trkpt lat="43.15271" lon="2.32014">
        <ele>132.32</ele>
        <time>2014-09-14T17:17:12Z</time>
      </trkpt>
      <trkpt lat="43.15384" lon="2.31944">
        <ele>133.28</ele>
        <time>2014-09-14T17:17:30Z</time>
      </trkpt>
      <trkpt lat="43.15471" lon="2.31869">
        <ele>133.28</ele>
        <time>2014-09-14T17:17:45Z</time>
      </trkpt>
      <trkpt lat="43.15489" lon="2.31857">
        <ele>133.28</ele>
        <time>2014-09-14T17:17:48Z</time>
      </trkpt>
      <trkpt lat="43.15493" lon="2.31848">
        <ele>133.28</ele>
        <time>2014-09-14T17:17:49Z</time>
      </trkpt>
      <trkpt lat="43.15495" lon="2.31835">
        <ele>133.28</ele>
        <time>2014-09-14T17:17:51Z</time>
      </trkpt>
      <trkpt lat="43.15497" lon="2.31822">
        <ele>133.28</ele>
        <time>2014-09-14T17:17:52Z</time>
      </trkpt>
      <trkpt lat="43.15499" lon="2.31813">
        <ele>133.28</ele>
        <time>2014-09-14T17:17:53Z</time>
      </trkpt>
      <trkpt lat="43.15503" lon="2.31805">
        <ele>133.28</ele>
        <time>2014-09-14T17:17:54Z</time>
      </trkpt>
      <trkpt lat="43.15508" lon="2.318">
        <ele>133.28</ele>
        <time>2014-09-14T17:17:55Z</time>
      </trkpt>
      <trkpt lat="43.15515" lon="2.31798">
        <ele>133.28</ele>
        <time>2014-09-14T17:17:56Z</time>
      </trkpt>
      <trkpt lat="43.15521" lon="2.31796">
        <ele>133.28</ele>
        <time>2014-09-14T17:17:57Z</time>
      </trkpt>
      <trkpt lat="43.15527" lon="2.31795">
        <ele>133.28</ele>
        <time>2014-09-14T17:17:58Z</time>
      </trkpt>
      <trkpt lat="43.15545" lon="2.31792">
        <ele>133.76</ele>
        <time>2014-09-14T17:18:01Z</time>
      </trkpt>
      <trkpt lat="43.15549" lon="2.31789">
        <ele>133.76</ele>
        <time>2014-09-14T17:18:02Z</time>
      </trkpt>
      <trkpt lat="43.15554" lon="2.31784">
        <ele>133.76</ele>
        <time>2014-09-14T17:18:03Z</time>
      </trkpt>
      <trkpt lat="43.15558" lon="2.31779">
        <ele>133.76</ele>
        <time>2014-09-14T17:18:04Z</time>
      </trkpt>
      <trkpt lat="43.15562" lon="2.31771">
        <ele>133.76</ele>
        <time>2014-09-14T17:18:05Z</time>
      </trkpt>
      <trkpt lat="43.15564" lon="2.31766">
        <ele>133.76</ele>
        <time>2014-09-14T17:18:06Z</time>
      </trkpt>
      <trkpt lat="43.15566" lon="2.31758">
        <ele>133.76</ele>
        <time>2014-09-14T17:18:07Z</time>
      </trkpt>
      <trkpt lat="43.15568" lon="2.3175">
        <ele>133.76</ele>
        <time>2014-09-14T17:18:08Z</time>
      </trkpt>
      <trkpt lat="43.15601" lon="2.31622">
        <ele>131.36</ele>
        <time>2014-09-14T17:18:22Z</time>
      </trkpt>
      <trkpt lat="43.15621" lon="2.31482">
        <ele>130.88</ele>
        <time>2014-09-14T17:18:37Z</time>
      </trkpt>
      <trkpt lat="43.15651" lon="2.31319">
        <ele>131.36</ele>
        <time>2014-09-14T17:18:55Z</time>
      </trkpt>
      <trkpt lat="43.15698" lon="2.31178">
        <ele>127.03</ele>
        <time>2014-09-14T17:19:11Z</time>
      </trkpt>
      <trkpt lat="43.15731" lon="2.31105">
        <ele>125.59</ele>
        <time>2014-09-14T17:19:20Z</time>
      </trkpt>
      <trkpt lat="43.15796" lon="2.31022">
        <ele>126.07</ele>
        <time>2014-09-14T17:19:33Z</time>
      </trkpt>
      <trkpt lat="43.1585" lon="2.30979">
        <ele>128.47</ele>
        <time>2014-09-14T17:19:44Z</time>
      </trkpt>
      <trkpt lat="43.15893" lon="2.30965">
        <ele>130.4</ele>
        <time>2014-09-14T17:19:52Z</time>
      </trkpt>
      <trkpt lat="43.15988" lon="2.30967">
        <ele>131.84</ele>
        <time>2014-09-14T17:20:08Z</time>
      </trkpt>
      <trkpt lat="43.16074" lon="2.30971">
        <ele>132.8</ele>
        <time>2014-09-14T17:20:22Z</time>
      </trkpt>
      <trkpt lat="43.1618" lon="2.30957">
        <ele>130.4</ele>
        <time>2014-09-14T17:20:37Z</time>
      </trkpt>
      <trkpt lat="43.16315" lon="2.30894">
        <ele>127.99</ele>
        <time>2014-09-14T17:20:55Z</time>
      </trkpt>
      <trkpt lat="43.16433" lon="2.30845">
        <ele>128.95</ele>
        <time>2014-09-14T17:21:12Z</time>
      </trkpt>
      <trkpt lat="43.16529" lon="2.30818">
        <ele>127.03</ele>
        <time>2014-09-14T17:21:25Z</time>
      </trkpt>
      <trkpt lat="43.16536" lon="2.30819">
        <ele>127.03</ele>
        <time>2014-09-14T17:21:26Z</time>
      </trkpt>
      <trkpt lat="43.16545" lon="2.30822">
        <ele>126.55</ele>
        <time>2014-09-14T17:21:27Z</time>
      </trkpt>
      <trkpt lat="43.16653" lon="2.30866">
        <ele>126.07</ele>
        <time>2014-09-14T17:21:43Z</time>
      </trkpt>
      <trkpt lat="43.16764" lon="2.30919">
        <ele>125.59</ele>
        <time>2014-09-14T17:22:00Z</time>
      </trkpt>
      <trkpt lat="43.16793" lon="2.30926">
        <ele>125.11</ele>
        <time>2014-09-14T17:22:04Z</time>
      </trkpt>
      <trkpt lat="43.168" lon="2.30929">
        <ele>125.11</ele>
        <time>2014-09-14T17:22:05Z</time>
      </trkpt>
      <trkpt lat="43.16806" lon="2.30933">
        <ele>125.11</ele>
        <time>2014-09-14T17:22:06Z</time>
      </trkpt>
      <trkpt lat="43.16814" lon="2.30939">
        <ele>124.63</ele>
        <time>2014-09-14T17:22:07Z</time>
      </trkpt>
      <trkpt lat="43.16819" lon="2.30944">
        <ele>124.63</ele>
        <time>2014-09-14T17:22:08Z</time>
      </trkpt>
      <trkpt lat="43.16825" lon="2.30951">
        <ele>124.15</ele>
        <time>2014-09-14T17:22:09Z</time>
      </trkpt>
      <trkpt lat="43.1683" lon="2.30957">
        <ele>124.15</ele>
        <time>2014-09-14T17:22:10Z</time>
      </trkpt>
      <trkpt lat="43.16845" lon="2.30975">
        <ele>124.15</ele>
        <time>2014-09-14T17:22:13Z</time>
      </trkpt>
      <trkpt lat="43.16852" lon="2.30979">
        <ele>123.67</ele>
        <time>2014-09-14T17:22:14Z</time>
      </trkpt>
      <trkpt lat="43.16858" lon="2.30982">
        <ele>123.67</ele>
        <time>2014-09-14T17:22:15Z</time>
      </trkpt>
      <trkpt lat="43.16864" lon="2.30984">
        <ele>123.67</ele>
        <time>2014-09-14T17:22:16Z</time>
      </trkpt>
      <trkpt lat="43.16871" lon="2.30986">
        <ele>123.67</ele>
        <time>2014-09-14T17:22:17Z</time>
      </trkpt>
      <trkpt lat="43.16877" lon="2.30986">
        <ele>123.67</ele>
        <time>2014-09-14T17:22:18Z</time>
      </trkpt>
      <trkpt lat="43.16884" lon="2.30985">
        <ele>123.67</ele>
        <time>2014-09-14T17:22:19Z</time>
      </trkpt>
      <trkpt lat="43.16934" lon="2.30982">
        <ele>123.67</ele>
        <time>2014-09-14T17:22:26Z</time>
      </trkpt>
      <trkpt lat="43.17033" lon="2.30999">
        <ele>123.19</ele>
        <time>2014-09-14T17:22:40Z</time>
      </trkpt>
      <trkpt lat="43.17062" lon="2.30996">
        <ele>122.71</ele>
        <time>2014-09-14T17:22:44Z</time>
      </trkpt>
      <trkpt lat="43.1707" lon="2.30997">
        <ele>122.71</ele>
        <time>2014-09-14T17:22:45Z</time>
      </trkpt>
      <trkpt lat="43.17078" lon="2.30999">
        <ele>122.71</ele>
        <time>2014-09-14T17:22:46Z</time>
      </trkpt>
      <trkpt lat="43.17085" lon="2.31003">
        <ele>122.71</ele>
        <time>2014-09-14T17:22:47Z</time>
      </trkpt>
      <trkpt lat="43.17091" lon="2.31007">
        <ele>122.71</ele>
        <time>2014-09-14T17:22:48Z</time>
      </trkpt>
      <trkpt lat="43.17098" lon="2.31012">
        <ele>122.71</ele>
        <time>2014-09-14T17:22:49Z</time>
      </trkpt>
      <trkpt lat="43.17104" lon="2.31018">
        <ele>122.71</ele>
        <time>2014-09-14T17:22:50Z</time>
      </trkpt>
      <trkpt lat="43.1711" lon="2.31024">
        <ele>122.71</ele>
        <time>2014-09-14T17:22:51Z</time>
      </trkpt>
      <trkpt lat="43.17125" lon="2.31044">
        <ele>122.71</ele>
        <time>2014-09-14T17:22:54Z</time>
      </trkpt>
      <trkpt lat="43.1713" lon="2.31052">
        <ele>122.71</ele>
        <time>2014-09-14T17:22:55Z</time>
      </trkpt>
      <trkpt lat="43.17133" lon="2.3106">
        <ele>122.71</ele>
        <time>2014-09-14T17:22:56Z</time>
      </trkpt>
      <trkpt lat="43.17137" lon="2.31068">
        <ele>122.71</ele>
        <time>2014-09-14T17:22:57Z</time>
      </trkpt>
      <trkpt lat="43.17139" lon="2.31076">
        <ele>123.19</ele>
        <time>2014-09-14T17:22:58Z</time>
      </trkpt>
      <trkpt lat="43.17142" lon="2.31086">
        <ele>123.67</ele>
        <time>2014-09-14T17:22:59Z</time>
      </trkpt>
      <trkpt lat="43.17144" lon="2.31094">
        <ele>123.67</ele>
        <time>2014-09-14T17:23:00Z</time>
      </trkpt>
      <trkpt lat="43.17157" lon="2.31135">
        <ele>124.15</ele>
        <time>2014-09-14T17:23:05Z</time>
      </trkpt>
      <trkpt lat="43.1716" lon="2.31142">
        <ele>124.15</ele>
        <time>2014-09-14T17:23:06Z</time>
      </trkpt>
      <trkpt lat="43.17164" lon="2.3115">
        <ele>124.15</ele>
        <time>2014-09-14T17:23:07Z</time>
      </trkpt>
      <trkpt lat="43.17169" lon="2.31156">
        <ele>124.15</ele>
        <time>2014-09-14T17:23:08Z</time>
      </trkpt>
      <trkpt lat="43.17173" lon="2.31162">
        <ele>124.15</ele>
        <time>2014-09-14T17:23:09Z</time>
      </trkpt>
      <trkpt lat="43.17179" lon="2.31168">
        <ele>124.63</ele>
        <time>2014-09-14T17:23:10Z</time>
      </trkpt>
      <trkpt lat="43.17184" lon="2.31173">
        <ele>124.63</ele>
        <time>2014-09-14T17:23:11Z</time>
      </trkpt>
      <trkpt lat="43.1728" lon="2.31239">
        <ele>125.11</ele>
        <time>2014-09-14T17:23:28Z</time>
      </trkpt>
      <trkpt lat="43.17383" lon="2.31278">
        <ele>124.15</ele>
        <time>2014-09-14T17:23:44Z</time>
      </trkpt>
      <trkpt lat="43.17498" lon="2.3136">
        <ele>124.63</ele>
        <time>2014-09-14T17:24:04Z</time>
      </trkpt>
      <trkpt lat="43.17542" lon="2.31383">
        <ele>126.07</ele>
        <time>2014-09-14T17:24:12Z</time>
      </trkpt>
      <trkpt lat="43.17549" lon="2.31383">
        <ele>126.07</ele>
        <time>2014-09-14T17:24:13Z</time>
      </trkpt>
      <trkpt lat="43.17553" lon="2.31383">
        <ele>126.55</ele>
        <time>2014-09-14T17:24:14Z</time>
      </trkpt>
      <trkpt lat="43.17564" lon="2.3138">
        <ele>126.55</ele>
        <time>2014-09-14T17:24:16Z</time>
      </trkpt>
      <trkpt lat="43.1758" lon="2.31375">
        <ele>127.03</ele>
        <time>2014-09-14T17:24:19Z</time>
      </trkpt>
      <trkpt lat="43.17585" lon="2.31374">
        <ele>127.03</ele>
        <time>2014-09-14T17:24:20Z</time>
      </trkpt>
      <trkpt lat="43.17591" lon="2.31374">
        <ele>127.51</ele>
        <time>2014-09-14T17:24:21Z</time>
      </trkpt>
      <trkpt lat="43.17596" lon="2.31375">
        <ele>127.51</ele>
        <time>2014-09-14T17:24:22Z</time>
      </trkpt>
      <trkpt lat="43.17602" lon="2.31377">
        <ele>127.51</ele>
        <time>2014-09-14T17:24:23Z</time>
      </trkpt>
      <trkpt lat="43.17607" lon="2.31381">
        <ele>127.99</ele>
        <time>2014-09-14T17:24:24Z</time>
      </trkpt>
      <trkpt lat="43.17612" lon="2.31385">
        <ele>127.99</ele>
        <time>2014-09-14T17:24:25Z</time>
      </trkpt>
      <trkpt lat="43.1762" lon="2.31393">
        <ele>128.47</ele>
        <time>2014-09-14T17:24:27Z</time>
      </trkpt>
      <trkpt lat="43.17638" lon="2.31412">
        <ele>129.43</ele>
        <time>2014-09-14T17:24:31Z</time>
      </trkpt>
      <trkpt lat="43.17641" lon="2.31417">
        <ele>129.43</ele>
        <time>2014-09-14T17:24:32Z</time>
      </trkpt>
      <trkpt lat="43.17645" lon="2.31422">
        <ele>129.43</ele>
        <time>2014-09-14T17:24:33Z</time>
      </trkpt>
      <trkpt lat="43.17648" lon="2.31428">
        <ele>129.92</ele>
        <time>2014-09-14T17:24:34Z</time>
      </trkpt>
      <trkpt lat="43.17651" lon="2.31434">
        <ele>129.92</ele>
        <time>2014-09-14T17:24:35Z</time>
      </trkpt>
      <trkpt lat="43.17654" lon="2.31441">
        <ele>129.92</ele>
        <time>2014-09-14T17:24:36Z</time>
      </trkpt>
      <trkpt lat="43.17656" lon="2.31447">
        <ele>130.4</ele>
        <time>2014-09-14T17:24:37Z</time>
      </trkpt>
      <trkpt lat="43.17657" lon="2.31455">
        <ele>130.88</ele>
        <time>2014-09-14T17:24:38Z</time>
      </trkpt>
      <trkpt lat="43.17658" lon="2.31463">
        <ele>130.88</ele>
        <time>2014-09-14T17:24:39Z</time>
      </trkpt>
      <trkpt lat="43.17659" lon="2.31469">
        <ele>131.36</ele>
        <time>2014-09-14T17:24:40Z</time>
      </trkpt>
      <trkpt lat="43.17659" lon="2.31477">
        <ele>131.36</ele>
        <time>2014-09-14T17:24:41Z</time>
      </trkpt>
      <trkpt lat="43.17659" lon="2.31485">
        <ele>131.84</ele>
        <time>2014-09-14T17:24:42Z</time>
      </trkpt>
      <trkpt lat="43.17657" lon="2.31534">
        <ele>133.76</ele>
        <time>2014-09-14T17:24:49Z</time>
      </trkpt>
      <trkpt lat="43.17653" lon="2.31629">
        <ele>137.61</ele>
        <time>2014-09-14T17:25:02Z</time>
      </trkpt>
      <trkpt lat="43.17628" lon="2.31742">
        <ele>140.49</ele>
        <time>2014-09-14T17:25:17Z</time>
      </trkpt>
      <trkpt lat="43.17606" lon="2.31892">
        <ele>141.45</ele>
        <time>2014-09-14T17:25:36Z</time>
      </trkpt>
      <trkpt lat="43.17569" lon="2.32009">
        <ele>141.93</ele>
        <time>2014-09-14T17:25:52Z</time>
      </trkpt>
      <trkpt lat="43.17514" lon="2.32143">
        <ele>143.37</ele>
        <time>2014-09-14T17:26:11Z</time>
      </trkpt>
      <trkpt lat="43.17504" lon="2.32273">
        <ele>141.45</ele>
        <time>2014-09-14T17:26:26Z</time>
      </trkpt>
      <trkpt lat="43.17504" lon="2.32283">
        <ele>140.97</ele>
        <time>2014-09-14T17:26:27Z</time>
      </trkpt>
      <trkpt lat="43.17506" lon="2.32293">
        <ele>140.97</ele>
        <time>2014-09-14T17:26:28Z</time>
      </trkpt>
      <trkpt lat="43.17508" lon="2.32302">
        <ele>140.49</ele>
        <time>2014-09-14T17:26:29Z</time>
      </trkpt>
      <trkpt lat="43.17511" lon="2.32313">
        <ele>140.01</ele>
        <time>2014-09-14T17:26:30Z</time>
      </trkpt>
      <trkpt lat="43.17515" lon="2.3232">
        <ele>140.01</ele>
        <time>2014-09-14T17:26:31Z</time>
      </trkpt>
      <trkpt lat="43.1752" lon="2.32328">
        <ele>139.53</ele>
        <time>2014-09-14T17:26:32Z</time>
      </trkpt>
      <trkpt lat="43.17525" lon="2.32336">
        <ele>139.05</ele>
        <time>2014-09-14T17:26:33Z</time>
      </trkpt>
      <trkpt lat="43.17532" lon="2.32342">
        <ele>139.05</ele>
        <time>2014-09-14T17:26:34Z</time>
      </trkpt>
      <trkpt lat="43.17539" lon="2.32348">
        <ele>138.57</ele>
        <time>2014-09-14T17:26:35Z</time>
      </trkpt>
      <trkpt lat="43.17545" lon="2.32352">
        <ele>138.09</ele>
        <time>2014-09-14T17:26:36Z</time>
      </trkpt>
      <trkpt lat="43.17595" lon="2.3239">
        <ele>135.2</ele>
        <time>2014-09-14T17:26:44Z</time>
      </trkpt>
      <trkpt lat="43.17602" lon="2.32393">
        <ele>134.72</ele>
        <time>2014-09-14T17:26:45Z</time>
      </trkpt>
      <trkpt lat="43.17749" lon="2.3243">
        <ele>127.99</ele>
        <time>2014-09-14T17:27:03Z</time>
      </trkpt>
      <trkpt lat="43.17801" lon="2.32445">
        <ele>126.55</ele>
        <time>2014-09-14T17:27:09Z</time>
      </trkpt>
      <trkpt lat="43.1781" lon="2.3245">
        <ele>126.07</ele>
        <time>2014-09-14T17:27:10Z</time>
      </trkpt>
      <trkpt lat="43.17817" lon="2.32458">
        <ele>126.07</ele>
        <time>2014-09-14T17:27:11Z</time>
      </trkpt>
      <trkpt lat="43.17823" lon="2.32468">
        <ele>125.59</ele>
        <time>2014-09-14T17:27:12Z</time>
      </trkpt>
      <trkpt lat="43.17828" lon="2.32479">
        <ele>125.59</ele>
        <time>2014-09-14T17:27:13Z</time>
      </trkpt>
      <trkpt lat="43.17831" lon="2.3249">
        <ele>125.59</ele>
        <time>2014-09-14T17:27:14Z</time>
      </trkpt>
      <trkpt lat="43.17839" lon="2.32513">
        <ele>125.11</ele>
        <time>2014-09-14T17:27:16Z</time>
      </trkpt>
      <trkpt lat="43.17845" lon="2.32523">
        <ele>125.11</ele>
        <time>2014-09-14T17:27:17Z</time>
      </trkpt>
      <trkpt lat="43.1785" lon="2.3253">
        <ele>125.11</ele>
        <time>2014-09-14T17:27:18Z</time>
      </trkpt>
      <trkpt lat="43.17857" lon="2.32538">
        <ele>125.11</ele>
        <time>2014-09-14T17:27:19Z</time>
      </trkpt>
      <trkpt lat="43.17864" lon="2.32543">
        <ele>125.11</ele>
        <time>2014-09-14T17:27:20Z</time>
      </trkpt>
      <trkpt lat="43.17872" lon="2.32548">
        <ele>124.63</ele>
        <time>2014-09-14T17:27:21Z</time>
      </trkpt>
      <trkpt lat="43.17879" lon="2.32552">
        <ele>124.63</ele>
        <time>2014-09-14T17:27:22Z</time>
      </trkpt>
      <trkpt lat="43.18017" lon="2.32626">
        <ele>122.71</ele>
        <time>2014-09-14T17:27:40Z</time>
      </trkpt>
      <trkpt lat="43.182" lon="2.32726">
        <ele>118.38</ele>
        <time>2014-09-14T17:28:04Z</time>
      </trkpt>
      <trkpt lat="43.18358" lon="2.32812">
        <ele>116.94</ele>
        <time>2014-09-14T17:28:25Z</time>
      </trkpt>
      <trkpt lat="43.18502" lon="2.329">
        <ele>116.46</ele>
        <time>2014-09-14T17:28:45Z</time>
      </trkpt>
      <trkpt lat="43.18622" lon="2.32999">
        <ele>116.94</ele>
        <time>2014-09-14T17:29:04Z</time>
      </trkpt>
      <trkpt lat="43.18717" lon="2.33097">
        <ele>116.46</ele>
        <time>2014-09-14T17:29:21Z</time>
      </trkpt>
      <trkpt lat="43.18802" lon="2.33162">
        <ele>115.98</ele>
        <time>2014-09-14T17:29:35Z</time>
      </trkpt>
      <trkpt lat="43.1891" lon="2.33237">
        <ele>116.46</ele>
        <time>2014-09-14T17:29:52Z</time>
      </trkpt>
      <trkpt lat="43.18945" lon="2.33242">
        <ele>117.42</ele>
        <time>2014-09-14T17:29:57Z</time>
      </trkpt>
      <trkpt lat="43.19032" lon="2.33199">
        <ele>117.9</ele>
        <time>2014-09-14T17:30:10Z</time>
      </trkpt>
      <trkpt lat="43.191" lon="2.33185">
        <ele>117.42</ele>
        <time>2014-09-14T17:30:20Z</time>
      </trkpt>
      <trkpt lat="43.19118" lon="2.33194">
        <ele>116.94</ele>
        <time>2014-09-14T17:30:23Z</time>
      </trkpt>
      <trkpt lat="43.19125" lon="2.33199">
        <ele>116.94</ele>
        <time>2014-09-14T17:30:24Z</time>
      </trkpt>
      <trkpt lat="43.1913" lon="2.33203">
        <ele>116.94</ele>
        <time>2014-09-14T17:30:25Z</time>
      </trkpt>
      <trkpt lat="43.19136" lon="2.33208">
        <ele>116.94</ele>
        <time>2014-09-14T17:30:26Z</time>
      </trkpt>
      <trkpt lat="43.19141" lon="2.33214">
        <ele>116.94</ele>
        <time>2014-09-14T17:30:27Z</time>
      </trkpt>
      <trkpt lat="43.19147" lon="2.33221">
        <ele>116.94</ele>
        <time>2014-09-14T17:30:28Z</time>
      </trkpt>
      <trkpt lat="43.19151" lon="2.33228">
        <ele>116.94</ele>
        <time>2014-09-14T17:30:29Z</time>
      </trkpt>
      <trkpt lat="43.19162" lon="2.33251">
        <ele>116.94</ele>
        <time>2014-09-14T17:30:32Z</time>
      </trkpt>
      <trkpt lat="43.19165" lon="2.3326">
        <ele>116.94</ele>
        <time>2014-09-14T17:30:33Z</time>
      </trkpt>
      <trkpt lat="43.19167" lon="2.33269">
        <ele>116.94</ele>
        <time>2014-09-14T17:30:34Z</time>
      </trkpt>
      <trkpt lat="43.19169" lon="2.33278">
        <ele>116.94</ele>
        <time>2014-09-14T17:30:35Z</time>
      </trkpt>
      <trkpt lat="43.1917" lon="2.33288">
        <ele>116.94</ele>
        <time>2014-09-14T17:30:36Z</time>
      </trkpt>
      <trkpt lat="43.19171" lon="2.33297">
        <ele>116.94</ele>
        <time>2014-09-14T17:30:37Z</time>
      </trkpt>
      <trkpt lat="43.19178" lon="2.33427">
        <ele>115.98</ele>
        <time>2014-09-14T17:30:51Z</time>
      </trkpt>
      <trkpt lat="43.19183" lon="2.33445">
        <ele>116.46</ele>
        <time>2014-09-14T17:30:53Z</time>
      </trkpt>
      <trkpt lat="43.19239" lon="2.33546">
        <ele>120.78</ele>
        <time>2014-09-14T17:31:08Z</time>
      </trkpt>
      <trkpt lat="43.19302" lon="2.33608">
        <ele>121.74</ele>
        <time>2014-09-14T17:31:22Z</time>
      </trkpt>
      <trkpt lat="43.19304" lon="2.33612">
        <ele>121.74</ele>
        <time>2014-09-14T17:31:23Z</time>
      </trkpt>
      <trkpt lat="43.19326" lon="2.33628">
        <ele>122.71</ele>
        <time>2014-09-14T17:31:32Z</time>
      </trkpt>
      <trkpt lat="43.1933" lon="2.33629">
        <ele>122.71</ele>
        <time>2014-09-14T17:31:33Z</time>
      </trkpt>
      <trkpt lat="43.19424" lon="2.33635">
        <ele>124.15</ele>
        <time>2014-09-14T17:31:50Z</time>
      </trkpt>
      <trkpt lat="43.19508" lon="2.33648">
        <ele>127.51</ele>
        <time>2014-09-14T17:32:04Z</time>
      </trkpt>
      <trkpt lat="43.19633" lon="2.3367">
        <ele>123.67</ele>
        <time>2014-09-14T17:32:22Z</time>
      </trkpt>
      <trkpt lat="43.19747" lon="2.33728">
        <ele>118.86</ele>
        <time>2014-09-14T17:32:38Z</time>
      </trkpt>
      <trkpt lat="43.19857" lon="2.33741">
        <ele>116.46</ele>
        <time>2014-09-14T17:32:52Z</time>
      </trkpt>
      <trkpt lat="43.19972" lon="2.33735">
        <ele>114.53</ele>
        <time>2014-09-14T17:33:07Z</time>
      </trkpt>
      <trkpt lat="43.19979" lon="2.33738">
        <ele>114.53</ele>
        <time>2014-09-14T17:33:08Z</time>
      </trkpt>
      <trkpt lat="43.19985" lon="2.33742">
        <ele>114.53</ele>
        <time>2014-09-14T17:33:09Z</time>
      </trkpt>
      <trkpt lat="43.19993" lon="2.33745">
        <ele>114.53</ele>
        <time>2014-09-14T17:33:10Z</time>
      </trkpt>
      <trkpt lat="43.19997" lon="2.33744">
        <ele>115.01</ele>
        <time>2014-09-14T17:33:11Z</time>
      </trkpt>
      <trkpt lat="43.20006" lon="2.33737">
        <ele>115.01</ele>
        <time>2014-09-14T17:33:12Z</time>
      </trkpt>
      <trkpt lat="43.20011" lon="2.3373">
        <ele>115.01</ele>
        <time>2014-09-14T17:33:13Z</time>
      </trkpt>
      <trkpt lat="43.20017" lon="2.33725">
        <ele>115.01</ele>
        <time>2014-09-14T17:33:14Z</time>
      </trkpt>
      <trkpt lat="43.20022" lon="2.33722">
        <ele>115.01</ele>
        <time>2014-09-14T17:33:15Z</time>
      </trkpt>
      <trkpt lat="43.2003" lon="2.33718">
        <ele>114.53</ele>
        <time>2014-09-14T17:33:16Z</time>
      </trkpt>
      <trkpt lat="43.20036" lon="2.33716">
        <ele>114.53</ele>
        <time>2014-09-14T17:33:17Z</time>
      </trkpt>
      <trkpt lat="43.20142" lon="2.33658">
        <ele>113.57</ele>
        <time>2014-09-14T17:33:32Z</time>
      </trkpt>
      <trkpt lat="43.20257" lon="2.33541">
        <ele>113.09</ele>
        <time>2014-09-14T17:33:50Z</time>
      </trkpt>
      <trkpt lat="43.20344" lon="2.33441">
        <ele>114.05</ele>
        <time>2014-09-14T17:34:06Z</time>
      </trkpt>
      <trkpt lat="43.20439" lon="2.33336">
        <ele>115.01</ele>
        <time>2014-09-14T17:34:24Z</time>
      </trkpt>
      <trkpt lat="43.2045" lon="2.33327">
        <ele>115.01</ele>
        <time>2014-09-14T17:34:27Z</time>
      </trkpt>
      <trkpt lat="43.20454" lon="2.33325">
        <ele>115.01</ele>
        <time>2014-09-14T17:34:28Z</time>
      </trkpt>
      <trkpt lat="43.20459" lon="2.33326">
        <ele>115.01</ele>
        <time>2014-09-14T17:34:29Z</time>
      </trkpt>
      <trkpt lat="43.20475" lon="2.33327">
        <ele>115.01</ele>
        <time>2014-09-14T17:34:32Z</time>
      </trkpt>
      <trkpt lat="43.20482" lon="2.33329">
        <ele>115.01</ele>
        <time>2014-09-14T17:34:33Z</time>
      </trkpt>
      <trkpt lat="43.20486" lon="2.33331">
        <ele>115.01</ele>
        <time>2014-09-14T17:34:34Z</time>
      </trkpt>
      <trkpt lat="43.20491" lon="2.33334">
        <ele>115.01</ele>
        <time>2014-09-14T17:34:35Z</time>
      </trkpt>
      <trkpt lat="43.20497" lon="2.33338">
        <ele>115.01</ele>
        <time>2014-09-14T17:34:36Z</time>
      </trkpt>
      <trkpt lat="43.20501" lon="2.33342">
        <ele>114.53</ele>
        <time>2014-09-14T17:34:37Z</time>
      </trkpt>
      <trkpt lat="43.20564" lon="2.33399">
        <ele>114.05</ele>
        <time>2014-09-14T17:34:49Z</time>
      </trkpt>
      <trkpt lat="43.20649" lon="2.33491">
        <ele>113.57</ele>
        <time>2014-09-14T17:35:06Z</time>
      </trkpt>
      <trkpt lat="43.2068" lon="2.33536">
        <ele>114.53</ele>
        <time>2014-09-14T17:35:18Z</time>
      </trkpt>
      <trkpt lat="43.20679" lon="2.33534">
        <ele>115.01</ele>
        <time>2014-09-14T17:35:34Z</time>
      </trkpt>
      <trkpt lat="43.20679" lon="2.33532">
        <ele>116.46</ele>
        <time>2014-09-14T17:36:19Z</time>
      </trkpt>
      <trkpt lat="43.20679" lon="2.33532">
        <ele>117.9</ele>
        <time>2014-09-14T17:37:08Z</time>
      </trkpt>
      <trkpt lat="43.20679" lon="2.33529">
        <ele>120.3</ele>
        <time>2014-09-14T17:37:44Z</time>
      </trkpt>
      <trkpt lat="43.20678" lon="2.33529">
        <ele>121.26</ele>
        <time>2014-09-14T17:38:24Z</time>
      </trkpt>
      <trkpt lat="43.2068" lon="2.33529">
        <ele>118.38</ele>
        <time>2014-09-14T17:38:58Z</time>
      </trkpt>
      <trkpt lat="43.20678" lon="2.3353">
        <ele>115.98</ele>
        <time>2014-09-14T17:39:40Z</time>
      </trkpt>
      <trkpt lat="43.20679" lon="2.33535">
        <ele>116.94</ele>
        <time>2014-09-14T17:39:53Z</time>
      </trkpt>
      <trkpt lat="43.20679" lon="2.33536">
        <ele>116.94</ele>
        <time>2014-09-14T17:39:54Z</time>
      </trkpt>
      <trkpt lat="43.2068" lon="2.33537">
        <ele>117.42</ele>
        <time>2014-09-14T17:39:55Z</time>
      </trkpt>
      <trkpt lat="43.20681" lon="2.33539">
        <ele>117.9</ele>
        <time>2014-09-14T17:39:56Z</time>
      </trkpt>
      <trkpt lat="43.20682" lon="2.3354">
        <ele>117.9</ele>
        <time>2014-09-14T17:39:57Z</time>
      </trkpt>
      <trkpt lat="43.20683" lon="2.33542">
        <ele>118.38</ele>
        <time>2014-09-14T17:39:58Z</time>
      </trkpt>
      <trkpt lat="43.20685" lon="2.33544">
        <ele>118.86</ele>
        <time>2014-09-14T17:39:59Z</time>
      </trkpt>
      <trkpt lat="43.20686" lon="2.33547">
        <ele>119.34</ele>
        <time>2014-09-14T17:40:00Z</time>
      </trkpt>
      <trkpt lat="43.20689" lon="2.33551">
        <ele>119.82</ele>
        <time>2014-09-14T17:40:01Z</time>
      </trkpt>
      <trkpt lat="43.20691" lon="2.33554">
        <ele>119.82</ele>
        <time>2014-09-14T17:40:02Z</time>
      </trkpt>
      <trkpt lat="43.20731" lon="2.33612">
        <ele>121.74</ele>
        <time>2014-09-14T17:40:16Z</time>
      </trkpt>
      <trkpt lat="43.20767" lon="2.33661">
        <ele>117.9</ele>
        <time>2014-09-14T17:40:29Z</time>
      </trkpt>
      <trkpt lat="43.20771" lon="2.33664">
        <ele>114.05</ele>
        <time>2014-09-14T17:40:43Z</time>
      </trkpt>
      <trkpt lat="43.20787" lon="2.33685">
        <ele>114.05</ele>
        <time>2014-09-14T17:40:58Z</time>
      </trkpt>
      <trkpt lat="43.20854" lon="2.33773">
        <ele>114.53</ele>
        <time>2014-09-14T17:41:14Z</time>
      </trkpt>
      <trkpt lat="43.20929" lon="2.33864">
        <ele>114.53</ele>
        <time>2014-09-14T17:41:31Z</time>
      </trkpt>
      <trkpt lat="43.20985" lon="2.33951">
        <ele>116.46</ele>
        <time>2014-09-14T17:41:47Z</time>
      </trkpt>
      <trkpt lat="43.21007" lon="2.33984">
        <ele>116.94</ele>
        <time>2014-09-14T17:41:58Z</time>
      </trkpt>
      <trkpt lat="43.21052" lon="2.34052">
        <ele>118.38</ele>
        <time>2014-09-14T17:42:12Z</time>
      </trkpt>
      <trkpt lat="43.21079" lon="2.34099">
        <ele>118.86</ele>
        <time>2014-09-14T17:42:21Z</time>
      </trkpt>
      <trkpt lat="43.21087" lon="2.34124">
        <ele>119.34</ele>
        <time>2014-09-14T17:42:25Z</time>
      </trkpt>
      <trkpt lat="43.21092" lon="2.34138">
        <ele>119.82</ele>
        <time>2014-09-14T17:42:28Z</time>
      </trkpt>
      <trkpt lat="43.21095" lon="2.3414">
        <ele>119.82</ele>
        <time>2014-09-14T17:42:29Z</time>
      </trkpt>
      <trkpt lat="43.21098" lon="2.3414">
        <ele>119.82</ele>
        <time>2014-09-14T17:42:30Z</time>
      </trkpt>
      <trkpt lat="43.21099" lon="2.3414">
        <ele>119.82</ele>
        <time>2014-09-14T17:42:31Z</time>
      </trkpt>
      <trkpt lat="43.21101" lon="2.34137">
        <ele>120.3</ele>
        <time>2014-09-14T17:42:37Z</time>
      </trkpt>
      <trkpt lat="43.21102" lon="2.34135">
        <ele>120.78</ele>
        <time>2014-09-14T17:42:38Z</time>
      </trkpt>
      <trkpt lat="43.21101" lon="2.34132">
        <ele>120.78</ele>
        <time>2014-09-14T17:42:39Z</time>
      </trkpt>
      <trkpt lat="43.211" lon="2.34129">
        <ele>120.78</ele>
        <time>2014-09-14T17:42:40Z</time>
      </trkpt>
      <trkpt lat="43.21097" lon="2.34124">
        <ele>120.78</ele>
        <time>2014-09-14T17:42:41Z</time>
      </trkpt>
      <trkpt lat="43.21093" lon="2.34112">
        <ele>120.78</ele>
        <time>2014-09-14T17:42:43Z</time>
      </trkpt>
      <trkpt lat="43.21093" lon="2.34106">
        <ele>121.26</ele>
        <time>2014-09-14T17:42:44Z</time>
      </trkpt>
      <trkpt lat="43.21092" lon="2.34101">
        <ele>121.26</ele>
        <time>2014-09-14T17:42:45Z</time>
      </trkpt>
      <trkpt lat="43.21092" lon="2.34095">
        <ele>121.26</ele>
        <time>2014-09-14T17:42:46Z</time>
      </trkpt>
      <trkpt lat="43.21092" lon="2.3409">
        <ele>121.74</ele>
        <time>2014-09-14T17:42:47Z</time>
      </trkpt>
      <trkpt lat="43.21094" lon="2.34086">
        <ele>121.74</ele>
        <time>2014-09-14T17:42:48Z</time>
      </trkpt>
      <trkpt lat="43.21097" lon="2.34083">
        <ele>122.22</ele>
        <time>2014-09-14T17:42:49Z</time>
      </trkpt>
      <trkpt lat="43.211" lon="2.34083">
        <ele>122.71</ele>
        <time>2014-09-14T17:42:50Z</time>
      </trkpt>
      <trkpt lat="43.21104" lon="2.34083">
        <ele>122.71</ele>
        <time>2014-09-14T17:42:51Z</time>
      </trkpt>
      <trkpt lat="43.21108" lon="2.34084">
        <ele>123.19</ele>
        <time>2014-09-14T17:42:52Z</time>
      </trkpt>
      <trkpt lat="43.21113" lon="2.34085">
        <ele>123.19</ele>
        <time>2014-09-14T17:42:53Z</time>
      </trkpt>
      <trkpt lat="43.21126" lon="2.34088">
        <ele>123.67</ele>
        <time>2014-09-14T17:42:56Z</time>
      </trkpt>
      <trkpt lat="43.2113" lon="2.34089">
        <ele>123.19</ele>
        <time>2014-09-14T17:42:57Z</time>
      </trkpt>
      <trkpt lat="43.21189" lon="2.34097">
        <ele>122.71</ele>
        <time>2014-09-14T17:43:10Z</time>
      </trkpt>
      <trkpt lat="43.21205" lon="2.34099">
        <ele>122.22</ele>
        <time>2014-09-14T17:43:14Z</time>
      </trkpt>
      <trkpt lat="43.2121" lon="2.341">
        <ele>122.22</ele>
        <time>2014-09-14T17:43:15Z</time>
      </trkpt>
      <trkpt lat="43.21225" lon="2.34103">
        <ele>121.26</ele>
        <time>2014-09-14T17:43:18Z</time>
      </trkpt>
      <trkpt lat="43.21236" lon="2.34105">
        <ele>120.78</ele>
        <time>2014-09-14T17:43:20Z</time>
      </trkpt>
      <trkpt lat="43.21253" lon="2.34108">
        <ele>120.3</ele>
        <time>2014-09-14T17:43:23Z</time>
      </trkpt>
      <trkpt lat="43.21258" lon="2.34109">
        <ele>119.82</ele>
        <time>2014-09-14T17:43:24Z</time>
      </trkpt>
      <trkpt lat="43.21323" lon="2.34118">
        <ele>119.34</ele>
        <time>2014-09-14T17:43:36Z</time>
      </trkpt>
      <trkpt lat="43.21327" lon="2.34118">
        <ele>119.82</ele>
        <time>2014-09-14T17:43:37Z</time>
      </trkpt>
      <trkpt lat="43.21355" lon="2.34123">
        <ele>122.71</ele>
        <time>2014-09-14T17:43:47Z</time>
      </trkpt>
      <trkpt lat="43.21355" lon="2.34121">
        <ele>124.15</ele>
        <time>2014-09-14T17:44:03Z</time>
      </trkpt>
      <trkpt lat="43.21357" lon="2.3412">
        <ele>122.71</ele>
        <time>2014-09-14T17:44:12Z</time>
      </trkpt>
    </trkseg>
  </trk>
</gpx>